<?xml version="1.0" encoding="UTF-8" standalone="no" ?>
<gpx xmlns="http://www.topografix.com/GPX/1/1" xmlns:xsi="http://www.w3.org/2001/XMLSchema-instance" xsi:schemaLocation="http://www.topografix.com/GPX/1/1 http://www.topografix.com/GPX/1/1/gpx.xsd" version="1.1" creator="VisuGPX - https://www.visugpx.com">
  <metadata>
    <name>Boucle depuis Vagney</name>
  </metadata>
  <trk>
    <name><![CDATA[Boucle depuis Vagney_1]]></name>
    <trkseg>
      <trkpt lat="48.00664" lon="6.71994">
        <ele>407</ele>
        <time>2019-08-16T11:57:33Z</time>
      </trkpt>
      <trkpt lat="48.00669" lon="6.72005">
        <ele>413.093658</ele>
        <time>2019-08-16T11:57:34Z</time>
      </trkpt>
      <trkpt lat="48.00671" lon="6.72006">
        <ele>413.048737</ele>
        <time>2019-08-16T11:57:35Z</time>
      </trkpt>
      <trkpt lat="48.00673" lon="6.72006">
        <ele>413.017944</ele>
        <time>2019-08-16T11:57:36Z</time>
      </trkpt>
      <trkpt lat="48.00675" lon="6.72006">
        <ele>412.991669</ele>
        <time>2019-08-16T11:57:37Z</time>
      </trkpt>
      <trkpt lat="48.00677" lon="6.72004">
        <ele>412.959869</ele>
        <time>2019-08-16T11:57:38Z</time>
      </trkpt>
      <trkpt lat="48.00679" lon="6.72003">
        <ele>412.952118</ele>
        <time>2019-08-16T11:57:39Z</time>
      </trkpt>
      <trkpt lat="48.00681" lon="6.72001">
        <ele>412.951294</ele>
        <time>2019-08-16T11:57:40Z</time>
      </trkpt>
      <trkpt lat="48.00683" lon="6.71999">
        <ele>412.953857</ele>
        <time>2019-08-16T11:57:41Z</time>
      </trkpt>
      <trkpt lat="48.00684" lon="6.71995">
        <ele>412.954254</ele>
        <time>2019-08-16T11:57:42Z</time>
      </trkpt>
      <trkpt lat="48.00685" lon="6.71991">
        <ele>412.955078</ele>
        <time>2019-08-16T11:57:43Z</time>
      </trkpt>
      <trkpt lat="48.00686" lon="6.71988">
        <ele>412.956573</ele>
        <time>2019-08-16T11:57:44Z</time>
      </trkpt>
      <trkpt lat="48.00687" lon="6.71985">
        <ele>412.955444</ele>
        <time>2019-08-16T11:57:45Z</time>
      </trkpt>
      <trkpt lat="48.00689" lon="6.71982">
        <ele>412.957733</ele>
        <time>2019-08-16T11:57:46Z</time>
      </trkpt>
      <trkpt lat="48.00691" lon="6.71979">
        <ele>412.962433</ele>
        <time>2019-08-16T11:57:47Z</time>
      </trkpt>
      <trkpt lat="48.00694" lon="6.71977">
        <ele>412.978516</ele>
        <time>2019-08-16T11:57:48Z</time>
      </trkpt>
      <trkpt lat="48.00696" lon="6.71975">
        <ele>413.003662</ele>
        <time>2019-08-16T11:57:49Z</time>
      </trkpt>
      <trkpt lat="48.00698" lon="6.71972">
        <ele>413.040894</ele>
        <time>2019-08-16T11:57:50Z</time>
      </trkpt>
      <trkpt lat="48.00699" lon="6.71968">
        <ele>413.096436</ele>
        <time>2019-08-16T11:57:51Z</time>
      </trkpt>
      <trkpt lat="48.00699" lon="6.71963">
        <ele>413.11673</ele>
        <time>2019-08-16T11:57:52Z</time>
      </trkpt>
      <trkpt lat="48.00699" lon="6.71959">
        <ele>413.120026</ele>
        <time>2019-08-16T11:57:53Z</time>
      </trkpt>
      <trkpt lat="48.00699" lon="6.71954">
        <ele>413.118622</ele>
        <time>2019-08-16T11:57:54Z</time>
      </trkpt>
      <trkpt lat="48.00699" lon="6.7195">
        <ele>413.110016</ele>
        <time>2019-08-16T11:57:55Z</time>
      </trkpt>
      <trkpt lat="48.00699" lon="6.71945">
        <ele>413.097168</ele>
        <time>2019-08-16T11:57:56Z</time>
      </trkpt>
      <trkpt lat="48.00699" lon="6.71941">
        <ele>413.075714</ele>
        <time>2019-08-16T11:57:57Z</time>
      </trkpt>
      <trkpt lat="48.00699" lon="6.71937">
        <ele>413.020966</ele>
        <time>2019-08-16T11:57:58Z</time>
      </trkpt>
      <trkpt lat="48.007" lon="6.71932">
        <ele>412.982269</ele>
        <time>2019-08-16T11:57:59Z</time>
      </trkpt>
      <trkpt lat="48.007" lon="6.71928">
        <ele>412.959839</ele>
        <time>2019-08-16T11:58:00Z</time>
      </trkpt>
      <trkpt lat="48.007" lon="6.71923">
        <ele>412.95459</ele>
        <time>2019-08-16T11:58:01Z</time>
      </trkpt>
      <trkpt lat="48.007" lon="6.71918">
        <ele>412.956757</ele>
        <time>2019-08-16T11:58:02Z</time>
      </trkpt>
      <trkpt lat="48.00701" lon="6.71913">
        <ele>412.965973</ele>
        <time>2019-08-16T11:58:03Z</time>
      </trkpt>
      <trkpt lat="48.00701" lon="6.71908">
        <ele>412.981781</ele>
        <time>2019-08-16T11:58:04Z</time>
      </trkpt>
      <trkpt lat="48.00702" lon="6.71903">
        <ele>413.001373</ele>
        <time>2019-08-16T11:58:05Z</time>
      </trkpt>
      <trkpt lat="48.00703" lon="6.71898">
        <ele>413.016205</ele>
        <time>2019-08-16T11:58:06Z</time>
      </trkpt>
      <trkpt lat="48.00704" lon="6.71892">
        <ele>413.018463</ele>
        <time>2019-08-16T11:58:07Z</time>
      </trkpt>
      <trkpt lat="48.00705" lon="6.71887">
        <ele>413.016846</ele>
        <time>2019-08-16T11:58:08Z</time>
      </trkpt>
      <trkpt lat="48.00706" lon="6.71881">
        <ele>413.010742</ele>
        <time>2019-08-16T11:58:09Z</time>
      </trkpt>
      <trkpt lat="48.00707" lon="6.71876">
        <ele>412.999786</ele>
        <time>2019-08-16T11:58:10Z</time>
      </trkpt>
      <trkpt lat="48.00707" lon="6.7187">
        <ele>412.963989</ele>
        <time>2019-08-16T11:58:11Z</time>
      </trkpt>
      <trkpt lat="48.00708" lon="6.71865">
        <ele>412.880859</ele>
        <time>2019-08-16T11:58:12Z</time>
      </trkpt>
      <trkpt lat="48.00708" lon="6.71859">
        <ele>412.817719</ele>
        <time>2019-08-16T11:58:13Z</time>
      </trkpt>
      <trkpt lat="48.00708" lon="6.71853">
        <ele>412.760498</ele>
        <time>2019-08-16T11:58:14Z</time>
      </trkpt>
      <trkpt lat="48.00708" lon="6.71848">
        <ele>412.713623</ele>
        <time>2019-08-16T11:58:15Z</time>
      </trkpt>
      <trkpt lat="48.00707" lon="6.71843">
        <ele>412.675171</ele>
        <time>2019-08-16T11:58:16Z</time>
      </trkpt>
      <trkpt lat="48.00707" lon="6.71838">
        <ele>412.648773</ele>
        <time>2019-08-16T11:58:17Z</time>
      </trkpt>
      <trkpt lat="48.00706" lon="6.71833">
        <ele>412.644073</ele>
        <time>2019-08-16T11:58:18Z</time>
      </trkpt>
      <trkpt lat="48.00705" lon="6.71828">
        <ele>412.652252</ele>
        <time>2019-08-16T11:58:19Z</time>
      </trkpt>
      <trkpt lat="48.00704" lon="6.71823">
        <ele>412.67749</ele>
        <time>2019-08-16T11:58:20Z</time>
      </trkpt>
      <trkpt lat="48.00703" lon="6.71818">
        <ele>412.710083</ele>
        <time>2019-08-16T11:58:21Z</time>
      </trkpt>
      <trkpt lat="48.00702" lon="6.71812">
        <ele>412.744232</ele>
        <time>2019-08-16T11:58:22Z</time>
      </trkpt>
      <trkpt lat="48.00701" lon="6.71807">
        <ele>412.779388</ele>
        <time>2019-08-16T11:58:23Z</time>
      </trkpt>
      <trkpt lat="48.007" lon="6.71802">
        <ele>412.811432</ele>
        <time>2019-08-16T11:58:24Z</time>
      </trkpt>
      <trkpt lat="48.007" lon="6.71797">
        <ele>412.839386</ele>
        <time>2019-08-16T11:58:25Z</time>
      </trkpt>
      <trkpt lat="48.00699" lon="6.71792">
        <ele>412.863037</ele>
        <time>2019-08-16T11:58:26Z</time>
      </trkpt>
      <trkpt lat="48.00698" lon="6.71786">
        <ele>412.881927</ele>
        <time>2019-08-16T11:58:27Z</time>
      </trkpt>
      <trkpt lat="48.00697" lon="6.71782">
        <ele>412.892944</ele>
        <time>2019-08-16T11:58:28Z</time>
      </trkpt>
      <trkpt lat="48.00695" lon="6.71776">
        <ele>412.897583</ele>
        <time>2019-08-16T11:58:29Z</time>
      </trkpt>
      <trkpt lat="48.00695" lon="6.71771">
        <ele>412.900024</ele>
        <time>2019-08-16T11:58:30Z</time>
      </trkpt>
      <trkpt lat="48.00694" lon="6.71766">
        <ele>412.908234</ele>
        <time>2019-08-16T11:58:31Z</time>
      </trkpt>
      <trkpt lat="48.00693" lon="6.71761">
        <ele>412.922089</ele>
        <time>2019-08-16T11:58:32Z</time>
      </trkpt>
      <trkpt lat="48.00692" lon="6.71756">
        <ele>412.945068</ele>
        <time>2019-08-16T11:58:33Z</time>
      </trkpt>
      <trkpt lat="48.00691" lon="6.71751">
        <ele>412.992889</ele>
        <time>2019-08-16T11:58:34Z</time>
      </trkpt>
      <trkpt lat="48.0069" lon="6.71745">
        <ele>413.037994</ele>
        <time>2019-08-16T11:58:35Z</time>
      </trkpt>
      <trkpt lat="48.00689" lon="6.71741">
        <ele>413.093506</ele>
        <time>2019-08-16T11:58:36Z</time>
      </trkpt>
      <trkpt lat="48.00687" lon="6.71736">
        <ele>413.154877</ele>
        <time>2019-08-16T11:58:37Z</time>
      </trkpt>
      <trkpt lat="48.00686" lon="6.71731">
        <ele>413.245605</ele>
        <time>2019-08-16T11:58:38Z</time>
      </trkpt>
      <trkpt lat="48.00684" lon="6.71727">
        <ele>413.299347</ele>
        <time>2019-08-16T11:58:39Z</time>
      </trkpt>
      <trkpt lat="48.00684" lon="6.71723">
        <ele>413.346283</ele>
        <time>2019-08-16T11:58:40Z</time>
      </trkpt>
      <trkpt lat="48.00684" lon="6.71718">
        <ele>413.386963</ele>
        <time>2019-08-16T11:58:41Z</time>
      </trkpt>
      <trkpt lat="48.00685" lon="6.71715">
        <ele>413.429535</ele>
        <time>2019-08-16T11:58:42Z</time>
      </trkpt>
      <trkpt lat="48.00688" lon="6.71713">
        <ele>413.450897</ele>
        <time>2019-08-16T11:58:43Z</time>
      </trkpt>
      <trkpt lat="48.00691" lon="6.71711">
        <ele>413.469208</ele>
        <time>2019-08-16T11:58:44Z</time>
      </trkpt>
      <trkpt lat="48.00694" lon="6.71709">
        <ele>413.48999</ele>
        <time>2019-08-16T11:58:45Z</time>
      </trkpt>
      <trkpt lat="48.00697" lon="6.71707">
        <ele>413.49118</ele>
        <time>2019-08-16T11:58:46Z</time>
      </trkpt>
      <trkpt lat="48.00701" lon="6.71705">
        <ele>413.488678</ele>
        <time>2019-08-16T11:58:47Z</time>
      </trkpt>
      <trkpt lat="48.00705" lon="6.71702">
        <ele>413.462555</ele>
        <time>2019-08-16T11:58:48Z</time>
      </trkpt>
      <trkpt lat="48.00709" lon="6.717">
        <ele>413.438232</ele>
        <time>2019-08-16T11:58:49Z</time>
      </trkpt>
      <trkpt lat="48.00713" lon="6.71698">
        <ele>413.408691</ele>
        <time>2019-08-16T11:58:50Z</time>
      </trkpt>
      <trkpt lat="48.00717" lon="6.71695">
        <ele>413.345337</ele>
        <time>2019-08-16T11:58:51Z</time>
      </trkpt>
      <trkpt lat="48.00721" lon="6.71693">
        <ele>413.292725</ele>
        <time>2019-08-16T11:58:52Z</time>
      </trkpt>
      <trkpt lat="48.00725" lon="6.71691">
        <ele>413.246918</ele>
        <time>2019-08-16T11:58:53Z</time>
      </trkpt>
      <trkpt lat="48.00728" lon="6.71688">
        <ele>413.199249</ele>
        <time>2019-08-16T11:58:54Z</time>
      </trkpt>
      <trkpt lat="48.00732" lon="6.71686">
        <ele>413.171722</ele>
        <time>2019-08-16T11:58:55Z</time>
      </trkpt>
      <trkpt lat="48.00736" lon="6.71684">
        <ele>413.13913</ele>
        <time>2019-08-16T11:58:56Z</time>
      </trkpt>
      <trkpt lat="48.0074" lon="6.71682">
        <ele>413.093964</ele>
        <time>2019-08-16T11:58:57Z</time>
      </trkpt>
      <trkpt lat="48.00744" lon="6.7168">
        <ele>413.073761</ele>
        <time>2019-08-16T11:58:58Z</time>
      </trkpt>
      <trkpt lat="48.00748" lon="6.71677">
        <ele>413.058014</ele>
        <time>2019-08-16T11:58:59Z</time>
      </trkpt>
      <trkpt lat="48.00752" lon="6.71675">
        <ele>413.029755</ele>
        <time>2019-08-16T11:59:00Z</time>
      </trkpt>
      <trkpt lat="48.00756" lon="6.71672">
        <ele>413.011475</ele>
        <time>2019-08-16T11:59:01Z</time>
      </trkpt>
      <trkpt lat="48.0076" lon="6.7167">
        <ele>412.998688</ele>
        <time>2019-08-16T11:59:02Z</time>
      </trkpt>
      <trkpt lat="48.00765" lon="6.71668">
        <ele>412.984375</ele>
        <time>2019-08-16T11:59:03Z</time>
      </trkpt>
      <trkpt lat="48.00769" lon="6.71666">
        <ele>412.966461</ele>
        <time>2019-08-16T11:59:04Z</time>
      </trkpt>
      <trkpt lat="48.00774" lon="6.71665">
        <ele>412.941559</ele>
        <time>2019-08-16T11:59:05Z</time>
      </trkpt>
      <trkpt lat="48.00779" lon="6.71663">
        <ele>412.893768</ele>
        <time>2019-08-16T11:59:06Z</time>
      </trkpt>
      <trkpt lat="48.00784" lon="6.71662">
        <ele>412.853607</ele>
        <time>2019-08-16T11:59:07Z</time>
      </trkpt>
      <trkpt lat="48.00789" lon="6.7166">
        <ele>412.802704</ele>
        <time>2019-08-16T11:59:08Z</time>
      </trkpt>
      <trkpt lat="48.00795" lon="6.71658">
        <ele>412.709747</ele>
        <time>2019-08-16T11:59:09Z</time>
      </trkpt>
      <trkpt lat="48.00805" lon="6.71656">
        <ele>412.675293</ele>
        <time>2019-08-16T11:59:11Z</time>
      </trkpt>
      <trkpt lat="48.00812" lon="6.71654">
        <ele>412.641937</ele>
        <time>2019-08-16T11:59:12Z</time>
      </trkpt>
      <trkpt lat="48.00818" lon="6.71653">
        <ele>412.578949</ele>
        <time>2019-08-16T11:59:13Z</time>
      </trkpt>
      <trkpt lat="48.00822" lon="6.71652">
        <ele>412.494171</ele>
        <time>2019-08-16T11:59:14Z</time>
      </trkpt>
      <trkpt lat="48.00827" lon="6.7165">
        <ele>412.439209</ele>
        <time>2019-08-16T11:59:15Z</time>
      </trkpt>
      <trkpt lat="48.00832" lon="6.7165">
        <ele>412.3815</ele>
        <time>2019-08-16T11:59:16Z</time>
      </trkpt>
      <trkpt lat="48.00837" lon="6.71652">
        <ele>412.283051</ele>
        <time>2019-08-16T11:59:17Z</time>
      </trkpt>
      <trkpt lat="48.00842" lon="6.71656">
        <ele>412.209717</ele>
        <time>2019-08-16T11:59:18Z</time>
      </trkpt>
      <trkpt lat="48.00845" lon="6.7166">
        <ele>412.086273</ele>
        <time>2019-08-16T11:59:19Z</time>
      </trkpt>
      <trkpt lat="48.00848" lon="6.71666">
        <ele>411.99231</ele>
        <time>2019-08-16T11:59:20Z</time>
      </trkpt>
      <trkpt lat="48.00851" lon="6.71672">
        <ele>411.889404</ele>
        <time>2019-08-16T11:59:21Z</time>
      </trkpt>
      <trkpt lat="48.00851" lon="6.7168">
        <ele>411.783173</ele>
        <time>2019-08-16T11:59:22Z</time>
      </trkpt>
      <trkpt lat="48.00851" lon="6.71688">
        <ele>411.640747</ele>
        <time>2019-08-16T11:59:23Z</time>
      </trkpt>
      <trkpt lat="48.0085" lon="6.71696">
        <ele>411.564819</ele>
        <time>2019-08-16T11:59:24Z</time>
      </trkpt>
      <trkpt lat="48.00849" lon="6.71703">
        <ele>411.508087</ele>
        <time>2019-08-16T11:59:25Z</time>
      </trkpt>
      <trkpt lat="48.00848" lon="6.7171">
        <ele>411.467529</ele>
        <time>2019-08-16T11:59:26Z</time>
      </trkpt>
      <trkpt lat="48.00848" lon="6.71718">
        <ele>411.449188</ele>
        <time>2019-08-16T11:59:27Z</time>
      </trkpt>
      <trkpt lat="48.00849" lon="6.71724">
        <ele>411.448151</ele>
        <time>2019-08-16T11:59:28Z</time>
      </trkpt>
      <trkpt lat="48.0085" lon="6.71731">
        <ele>411.459839</ele>
        <time>2019-08-16T11:59:29Z</time>
      </trkpt>
      <trkpt lat="48.00851" lon="6.71738">
        <ele>411.487671</ele>
        <time>2019-08-16T11:59:30Z</time>
      </trkpt>
      <trkpt lat="48.00851" lon="6.71745">
        <ele>411.52066</ele>
        <time>2019-08-16T11:59:31Z</time>
      </trkpt>
      <trkpt lat="48.00851" lon="6.71753">
        <ele>411.552612</ele>
        <time>2019-08-16T11:59:32Z</time>
      </trkpt>
      <trkpt lat="48.00852" lon="6.7176">
        <ele>411.579132</ele>
        <time>2019-08-16T11:59:33Z</time>
      </trkpt>
      <trkpt lat="48.00853" lon="6.71766">
        <ele>411.604858</ele>
        <time>2019-08-16T11:59:34Z</time>
      </trkpt>
      <trkpt lat="48.00854" lon="6.71773">
        <ele>411.63382</ele>
        <time>2019-08-16T11:59:35Z</time>
      </trkpt>
      <trkpt lat="48.00854" lon="6.71781">
        <ele>411.665527</ele>
        <time>2019-08-16T11:59:36Z</time>
      </trkpt>
      <trkpt lat="48.00854" lon="6.71788">
        <ele>411.694611</ele>
        <time>2019-08-16T11:59:37Z</time>
      </trkpt>
      <trkpt lat="48.00854" lon="6.71795">
        <ele>411.716797</ele>
        <time>2019-08-16T11:59:38Z</time>
      </trkpt>
      <trkpt lat="48.00855" lon="6.71802">
        <ele>411.748901</ele>
        <time>2019-08-16T11:59:39Z</time>
      </trkpt>
      <trkpt lat="48.00856" lon="6.71809">
        <ele>411.778778</ele>
        <time>2019-08-16T11:59:40Z</time>
      </trkpt>
      <trkpt lat="48.00857" lon="6.71816">
        <ele>411.816132</ele>
        <time>2019-08-16T11:59:41Z</time>
      </trkpt>
      <trkpt lat="48.00858" lon="6.71823">
        <ele>411.890259</ele>
        <time>2019-08-16T11:59:42Z</time>
      </trkpt>
      <trkpt lat="48.00858" lon="6.7183">
        <ele>411.947113</ele>
        <time>2019-08-16T11:59:43Z</time>
      </trkpt>
      <trkpt lat="48.00859" lon="6.71837">
        <ele>412.002838</ele>
        <time>2019-08-16T11:59:44Z</time>
      </trkpt>
      <trkpt lat="48.00859" lon="6.71844">
        <ele>412.051422</ele>
        <time>2019-08-16T11:59:45Z</time>
      </trkpt>
      <trkpt lat="48.00859" lon="6.71852">
        <ele>412.087982</ele>
        <time>2019-08-16T11:59:46Z</time>
      </trkpt>
      <trkpt lat="48.00859" lon="6.7186">
        <ele>412.112579</ele>
        <time>2019-08-16T11:59:47Z</time>
      </trkpt>
      <trkpt lat="48.00859" lon="6.71867">
        <ele>412.122772</ele>
        <time>2019-08-16T11:59:48Z</time>
      </trkpt>
      <trkpt lat="48.0086" lon="6.71874">
        <ele>412.122772</ele>
        <time>2019-08-16T11:59:49Z</time>
      </trkpt>
      <trkpt lat="48.0086" lon="6.71881">
        <ele>412.11087</ele>
        <time>2019-08-16T11:59:50Z</time>
      </trkpt>
      <trkpt lat="48.0086" lon="6.71888">
        <ele>412.062469</ele>
        <time>2019-08-16T11:59:51Z</time>
      </trkpt>
      <trkpt lat="48.00861" lon="6.71895">
        <ele>412.026855</ele>
        <time>2019-08-16T11:59:52Z</time>
      </trkpt>
      <trkpt lat="48.00861" lon="6.71903">
        <ele>411.998688</ele>
        <time>2019-08-16T11:59:53Z</time>
      </trkpt>
      <trkpt lat="48.00861" lon="6.7191">
        <ele>411.976227</ele>
        <time>2019-08-16T11:59:54Z</time>
      </trkpt>
      <trkpt lat="48.00861" lon="6.71917">
        <ele>411.953613</ele>
        <time>2019-08-16T11:59:55Z</time>
      </trkpt>
      <trkpt lat="48.00861" lon="6.71924">
        <ele>411.930573</ele>
        <time>2019-08-16T11:59:56Z</time>
      </trkpt>
      <trkpt lat="48.00861" lon="6.71931">
        <ele>411.914551</ele>
        <time>2019-08-16T11:59:57Z</time>
      </trkpt>
      <trkpt lat="48.00861" lon="6.71938">
        <ele>411.911224</ele>
        <time>2019-08-16T11:59:58Z</time>
      </trkpt>
      <trkpt lat="48.00861" lon="6.71945">
        <ele>411.911224</ele>
        <time>2019-08-16T11:59:59Z</time>
      </trkpt>
      <trkpt lat="48.00861" lon="6.71952">
        <ele>411.919952</ele>
        <time>2019-08-16T12:00:00Z</time>
      </trkpt>
      <trkpt lat="48.00861" lon="6.71958">
        <ele>411.938812</ele>
        <time>2019-08-16T12:00:01Z</time>
      </trkpt>
      <trkpt lat="48.00861" lon="6.71965">
        <ele>411.969147</ele>
        <time>2019-08-16T12:00:02Z</time>
      </trkpt>
      <trkpt lat="48.00861" lon="6.71972">
        <ele>412.013214</ele>
        <time>2019-08-16T12:00:03Z</time>
      </trkpt>
      <trkpt lat="48.00861" lon="6.71979">
        <ele>412.068848</ele>
        <time>2019-08-16T12:00:04Z</time>
      </trkpt>
      <trkpt lat="48.00862" lon="6.71986">
        <ele>412.132843</ele>
        <time>2019-08-16T12:00:05Z</time>
      </trkpt>
      <trkpt lat="48.00862" lon="6.71993">
        <ele>412.196259</ele>
        <time>2019-08-16T12:00:06Z</time>
      </trkpt>
      <trkpt lat="48.00863" lon="6.72">
        <ele>412.25296</ele>
        <time>2019-08-16T12:00:07Z</time>
      </trkpt>
      <trkpt lat="48.00863" lon="6.72006">
        <ele>412.303253</ele>
        <time>2019-08-16T12:00:08Z</time>
      </trkpt>
      <trkpt lat="48.00864" lon="6.72013">
        <ele>412.352539</ele>
        <time>2019-08-16T12:00:09Z</time>
      </trkpt>
      <trkpt lat="48.00865" lon="6.72019">
        <ele>412.402924</ele>
        <time>2019-08-16T12:00:10Z</time>
      </trkpt>
      <trkpt lat="48.00866" lon="6.72026">
        <ele>412.428497</ele>
        <time>2019-08-16T12:00:11Z</time>
      </trkpt>
      <trkpt lat="48.00868" lon="6.72032">
        <ele>412.454376</ele>
        <time>2019-08-16T12:00:12Z</time>
      </trkpt>
      <trkpt lat="48.00869" lon="6.72038">
        <ele>412.507965</ele>
        <time>2019-08-16T12:00:13Z</time>
      </trkpt>
      <trkpt lat="48.00871" lon="6.72044">
        <ele>412.590485</ele>
        <time>2019-08-16T12:00:14Z</time>
      </trkpt>
      <trkpt lat="48.00872" lon="6.72051">
        <ele>412.647552</ele>
        <time>2019-08-16T12:00:15Z</time>
      </trkpt>
      <trkpt lat="48.00874" lon="6.72057">
        <ele>412.703339</ele>
        <time>2019-08-16T12:00:16Z</time>
      </trkpt>
      <trkpt lat="48.00875" lon="6.72063">
        <ele>412.777924</ele>
        <time>2019-08-16T12:00:17Z</time>
      </trkpt>
      <trkpt lat="48.00877" lon="6.7207">
        <ele>412.814667</ele>
        <time>2019-08-16T12:00:18Z</time>
      </trkpt>
      <trkpt lat="48.00878" lon="6.72077">
        <ele>412.843628</ele>
        <time>2019-08-16T12:00:19Z</time>
      </trkpt>
      <trkpt lat="48.00879" lon="6.72083">
        <ele>412.865356</ele>
        <time>2019-08-16T12:00:20Z</time>
      </trkpt>
      <trkpt lat="48.0088" lon="6.7209">
        <ele>412.884521</ele>
        <time>2019-08-16T12:00:21Z</time>
      </trkpt>
      <trkpt lat="48.00882" lon="6.72096">
        <ele>412.889862</ele>
        <time>2019-08-16T12:00:22Z</time>
      </trkpt>
      <trkpt lat="48.00883" lon="6.72102">
        <ele>412.894257</ele>
        <time>2019-08-16T12:00:23Z</time>
      </trkpt>
      <trkpt lat="48.00885" lon="6.72109">
        <ele>412.900177</ele>
        <time>2019-08-16T12:00:24Z</time>
      </trkpt>
      <trkpt lat="48.00886" lon="6.72115">
        <ele>412.913086</ele>
        <time>2019-08-16T12:00:25Z</time>
      </trkpt>
      <trkpt lat="48.00888" lon="6.72122">
        <ele>412.922607</ele>
        <time>2019-08-16T12:00:26Z</time>
      </trkpt>
      <trkpt lat="48.00889" lon="6.72128">
        <ele>412.938507</ele>
        <time>2019-08-16T12:00:27Z</time>
      </trkpt>
      <trkpt lat="48.0089" lon="6.72135">
        <ele>412.963898</ele>
        <time>2019-08-16T12:00:28Z</time>
      </trkpt>
      <trkpt lat="48.00892" lon="6.72141">
        <ele>412.999725</ele>
        <time>2019-08-16T12:00:29Z</time>
      </trkpt>
      <trkpt lat="48.00893" lon="6.72147">
        <ele>413.035675</ele>
        <time>2019-08-16T12:00:30Z</time>
      </trkpt>
      <trkpt lat="48.00895" lon="6.72153">
        <ele>413.081696</ele>
        <time>2019-08-16T12:00:31Z</time>
      </trkpt>
      <trkpt lat="48.00896" lon="6.7216">
        <ele>413.112091</ele>
        <time>2019-08-16T12:00:32Z</time>
      </trkpt>
      <trkpt lat="48.00896" lon="6.72166">
        <ele>413.146637</ele>
        <time>2019-08-16T12:00:33Z</time>
      </trkpt>
      <trkpt lat="48.00895" lon="6.72172">
        <ele>413.180023</ele>
        <time>2019-08-16T12:00:34Z</time>
      </trkpt>
      <trkpt lat="48.00892" lon="6.72178">
        <ele>413.207275</ele>
        <time>2019-08-16T12:00:35Z</time>
      </trkpt>
      <trkpt lat="48.0089" lon="6.72183">
        <ele>413.228729</ele>
        <time>2019-08-16T12:00:36Z</time>
      </trkpt>
      <trkpt lat="48.00887" lon="6.72188">
        <ele>413.268524</ele>
        <time>2019-08-16T12:00:37Z</time>
      </trkpt>
      <trkpt lat="48.00884" lon="6.72193">
        <ele>413.30484</ele>
        <time>2019-08-16T12:00:38Z</time>
      </trkpt>
      <trkpt lat="48.0088" lon="6.72198">
        <ele>413.342896</ele>
        <time>2019-08-16T12:00:39Z</time>
      </trkpt>
      <trkpt lat="48.00877" lon="6.72202">
        <ele>413.394928</ele>
        <time>2019-08-16T12:00:40Z</time>
      </trkpt>
      <trkpt lat="48.00873" lon="6.72205">
        <ele>413.430176</ele>
        <time>2019-08-16T12:00:41Z</time>
      </trkpt>
      <trkpt lat="48.00869" lon="6.72208">
        <ele>413.469849</ele>
        <time>2019-08-16T12:00:42Z</time>
      </trkpt>
      <trkpt lat="48.00865" lon="6.72211">
        <ele>413.542267</ele>
        <time>2019-08-16T12:00:43Z</time>
      </trkpt>
      <trkpt lat="48.0086" lon="6.72214">
        <ele>413.604095</ele>
        <time>2019-08-16T12:00:44Z</time>
      </trkpt>
      <trkpt lat="48.00857" lon="6.72217">
        <ele>413.675415</ele>
        <time>2019-08-16T12:00:45Z</time>
      </trkpt>
      <trkpt lat="48.00853" lon="6.72219">
        <ele>413.798126</ele>
        <time>2019-08-16T12:00:46Z</time>
      </trkpt>
      <trkpt lat="48.00849" lon="6.72222">
        <ele>413.886749</ele>
        <time>2019-08-16T12:00:47Z</time>
      </trkpt>
      <trkpt lat="48.00845" lon="6.72225">
        <ele>413.974609</ele>
        <time>2019-08-16T12:00:48Z</time>
      </trkpt>
      <trkpt lat="48.00842" lon="6.72228">
        <ele>414.087646</ele>
        <time>2019-08-16T12:00:49Z</time>
      </trkpt>
      <trkpt lat="48.00837" lon="6.7223">
        <ele>414.14209</ele>
        <time>2019-08-16T12:00:50Z</time>
      </trkpt>
      <trkpt lat="48.00834" lon="6.72233">
        <ele>414.178497</ele>
        <time>2019-08-16T12:00:51Z</time>
      </trkpt>
      <trkpt lat="48.0083" lon="6.72235">
        <ele>414.200104</ele>
        <time>2019-08-16T12:00:52Z</time>
      </trkpt>
      <trkpt lat="48.00826" lon="6.72238">
        <ele>414.200104</ele>
        <time>2019-08-16T12:00:53Z</time>
      </trkpt>
      <trkpt lat="48.00822" lon="6.7224">
        <ele>414.190338</ele>
        <time>2019-08-16T12:00:54Z</time>
      </trkpt>
      <trkpt lat="48.00818" lon="6.72243">
        <ele>414.140747</ele>
        <time>2019-08-16T12:00:55Z</time>
      </trkpt>
      <trkpt lat="48.00814" lon="6.72246">
        <ele>414.098633</ele>
        <time>2019-08-16T12:00:56Z</time>
      </trkpt>
      <trkpt lat="48.0081" lon="6.72249">
        <ele>414.056488</ele>
        <time>2019-08-16T12:00:57Z</time>
      </trkpt>
      <trkpt lat="48.00806" lon="6.72252">
        <ele>414.000519</ele>
        <time>2019-08-16T12:00:58Z</time>
      </trkpt>
      <trkpt lat="48.00802" lon="6.72256">
        <ele>413.963745</ele>
        <time>2019-08-16T12:00:59Z</time>
      </trkpt>
      <trkpt lat="48.00799" lon="6.7226">
        <ele>413.925812</ele>
        <time>2019-08-16T12:01:00Z</time>
      </trkpt>
      <trkpt lat="48.00795" lon="6.72265">
        <ele>413.874023</ele>
        <time>2019-08-16T12:01:01Z</time>
      </trkpt>
      <trkpt lat="48.00792" lon="6.7227">
        <ele>413.850739</ele>
        <time>2019-08-16T12:01:02Z</time>
      </trkpt>
      <trkpt lat="48.00789" lon="6.72275">
        <ele>413.837555</ele>
        <time>2019-08-16T12:01:03Z</time>
      </trkpt>
      <trkpt lat="48.00787" lon="6.72282">
        <ele>413.833832</ele>
        <time>2019-08-16T12:01:04Z</time>
      </trkpt>
      <trkpt lat="48.00785" lon="6.72288">
        <ele>413.833832</ele>
        <time>2019-08-16T12:01:05Z</time>
      </trkpt>
      <trkpt lat="48.00784" lon="6.72295">
        <ele>413.857391</ele>
        <time>2019-08-16T12:01:06Z</time>
      </trkpt>
      <trkpt lat="48.00784" lon="6.72302">
        <ele>413.893829</ele>
        <time>2019-08-16T12:01:07Z</time>
      </trkpt>
      <trkpt lat="48.00784" lon="6.72309">
        <ele>413.932373</ele>
        <time>2019-08-16T12:01:08Z</time>
      </trkpt>
      <trkpt lat="48.00784" lon="6.72316">
        <ele>413.961761</ele>
        <time>2019-08-16T12:01:09Z</time>
      </trkpt>
      <trkpt lat="48.00785" lon="6.72323">
        <ele>413.982574</ele>
        <time>2019-08-16T12:01:10Z</time>
      </trkpt>
      <trkpt lat="48.00785" lon="6.7233">
        <ele>413.995483</ele>
        <time>2019-08-16T12:01:11Z</time>
      </trkpt>
      <trkpt lat="48.00786" lon="6.7235">
        <ele>413.997589</ele>
        <time>2019-08-16T12:01:14Z</time>
      </trkpt>
      <trkpt lat="48.00786" lon="6.72357">
        <ele>413.997589</ele>
        <time>2019-08-16T12:01:15Z</time>
      </trkpt>
      <trkpt lat="48.00785" lon="6.72363">
        <ele>413.990967</ele>
        <time>2019-08-16T12:01:16Z</time>
      </trkpt>
      <trkpt lat="48.00784" lon="6.72369">
        <ele>413.971039</ele>
        <time>2019-08-16T12:01:17Z</time>
      </trkpt>
      <trkpt lat="48.00782" lon="6.72375">
        <ele>413.962921</ele>
        <time>2019-08-16T12:01:18Z</time>
      </trkpt>
      <trkpt lat="48.0078" lon="6.72381">
        <ele>413.962921</ele>
        <time>2019-08-16T12:01:19Z</time>
      </trkpt>
      <trkpt lat="48.00778" lon="6.72387">
        <ele>413.97171</ele>
        <time>2019-08-16T12:01:20Z</time>
      </trkpt>
      <trkpt lat="48.00776" lon="6.72392">
        <ele>413.999634</ele>
        <time>2019-08-16T12:01:21Z</time>
      </trkpt>
      <trkpt lat="48.00774" lon="6.72398">
        <ele>414.057831</ele>
        <time>2019-08-16T12:01:22Z</time>
      </trkpt>
      <trkpt lat="48.00772" lon="6.72404">
        <ele>414.108734</ele>
        <time>2019-08-16T12:01:23Z</time>
      </trkpt>
      <trkpt lat="48.00771" lon="6.7241">
        <ele>414.163116</ele>
        <time>2019-08-16T12:01:24Z</time>
      </trkpt>
      <trkpt lat="48.00772" lon="6.72417">
        <ele>414.209717</ele>
        <time>2019-08-16T12:01:25Z</time>
      </trkpt>
      <trkpt lat="48.00774" lon="6.72422">
        <ele>414.243256</ele>
        <time>2019-08-16T12:01:26Z</time>
      </trkpt>
      <trkpt lat="48.00776" lon="6.72428">
        <ele>414.264008</ele>
        <time>2019-08-16T12:01:27Z</time>
      </trkpt>
      <trkpt lat="48.00779" lon="6.72433">
        <ele>414.275757</ele>
        <time>2019-08-16T12:01:28Z</time>
      </trkpt>
      <trkpt lat="48.00782" lon="6.72438">
        <ele>414.275909</ele>
        <time>2019-08-16T12:01:29Z</time>
      </trkpt>
      <trkpt lat="48.00785" lon="6.72443">
        <ele>414.275299</ele>
        <time>2019-08-16T12:01:30Z</time>
      </trkpt>
      <trkpt lat="48.00788" lon="6.72448">
        <ele>414.273285</ele>
        <time>2019-08-16T12:01:31Z</time>
      </trkpt>
      <trkpt lat="48.00791" lon="6.72453">
        <ele>414.272858</ele>
        <time>2019-08-16T12:01:32Z</time>
      </trkpt>
      <trkpt lat="48.00794" lon="6.72459">
        <ele>414.275909</ele>
        <time>2019-08-16T12:01:33Z</time>
      </trkpt>
      <trkpt lat="48.00796" lon="6.72464">
        <ele>414.281403</ele>
        <time>2019-08-16T12:01:34Z</time>
      </trkpt>
      <trkpt lat="48.00799" lon="6.72469">
        <ele>414.288483</ele>
        <time>2019-08-16T12:01:35Z</time>
      </trkpt>
      <trkpt lat="48.00803" lon="6.72473">
        <ele>414.304718</ele>
        <time>2019-08-16T12:01:36Z</time>
      </trkpt>
      <trkpt lat="48.00807" lon="6.72477">
        <ele>414.316986</ele>
        <time>2019-08-16T12:01:37Z</time>
      </trkpt>
      <trkpt lat="48.00811" lon="6.7248">
        <ele>414.327423</ele>
        <time>2019-08-16T12:01:38Z</time>
      </trkpt>
      <trkpt lat="48.00816" lon="6.72481">
        <ele>414.33493</ele>
        <time>2019-08-16T12:01:39Z</time>
      </trkpt>
      <trkpt lat="48.00821" lon="6.72481">
        <ele>414.33902</ele>
        <time>2019-08-16T12:01:40Z</time>
      </trkpt>
      <trkpt lat="48.00825" lon="6.7248">
        <ele>414.342621</ele>
        <time>2019-08-16T12:01:41Z</time>
      </trkpt>
      <trkpt lat="48.00829" lon="6.72478">
        <ele>414.341431</ele>
        <time>2019-08-16T12:01:42Z</time>
      </trkpt>
      <trkpt lat="48.00833" lon="6.72477">
        <ele>414.333344</ele>
        <time>2019-08-16T12:01:43Z</time>
      </trkpt>
      <trkpt lat="48.00837" lon="6.72475">
        <ele>414.311066</ele>
        <time>2019-08-16T12:01:44Z</time>
      </trkpt>
      <trkpt lat="48.00841" lon="6.72475">
        <ele>414.30838</ele>
        <time>2019-08-16T12:01:45Z</time>
      </trkpt>
      <trkpt lat="48.00845" lon="6.72474">
        <ele>414.316193</ele>
        <time>2019-08-16T12:01:46Z</time>
      </trkpt>
      <trkpt lat="48.00849" lon="6.72475">
        <ele>414.344818</ele>
        <time>2019-08-16T12:01:47Z</time>
      </trkpt>
      <trkpt lat="48.00853" lon="6.72475">
        <ele>414.390137</ele>
        <time>2019-08-16T12:01:48Z</time>
      </trkpt>
      <trkpt lat="48.00858" lon="6.72476">
        <ele>414.483276</ele>
        <time>2019-08-16T12:01:49Z</time>
      </trkpt>
      <trkpt lat="48.00862" lon="6.72476">
        <ele>414.556</ele>
        <time>2019-08-16T12:01:50Z</time>
      </trkpt>
      <trkpt lat="48.00866" lon="6.72477">
        <ele>414.670441</ele>
        <time>2019-08-16T12:01:51Z</time>
      </trkpt>
      <trkpt lat="48.0087" lon="6.72478">
        <ele>414.745361</ele>
        <time>2019-08-16T12:01:52Z</time>
      </trkpt>
      <trkpt lat="48.00875" lon="6.72479">
        <ele>414.815338</ele>
        <time>2019-08-16T12:01:53Z</time>
      </trkpt>
      <trkpt lat="48.00879" lon="6.72479">
        <ele>414.901764</ele>
        <time>2019-08-16T12:01:54Z</time>
      </trkpt>
      <trkpt lat="48.00883" lon="6.72478">
        <ele>414.952484</ele>
        <time>2019-08-16T12:01:55Z</time>
      </trkpt>
      <trkpt lat="48.00887" lon="6.72476">
        <ele>414.963776</ele>
        <time>2019-08-16T12:01:56Z</time>
      </trkpt>
      <trkpt lat="48.00892" lon="6.72474">
        <ele>414.964355</ele>
        <time>2019-08-16T12:01:57Z</time>
      </trkpt>
      <trkpt lat="48.00896" lon="6.72471">
        <ele>414.962158</ele>
        <time>2019-08-16T12:01:58Z</time>
      </trkpt>
      <trkpt lat="48.009" lon="6.72468">
        <ele>414.946198</ele>
        <time>2019-08-16T12:01:59Z</time>
      </trkpt>
      <trkpt lat="48.00904" lon="6.72465">
        <ele>414.935303</ele>
        <time>2019-08-16T12:02:00Z</time>
      </trkpt>
      <trkpt lat="48.00908" lon="6.72464">
        <ele>414.926788</ele>
        <time>2019-08-16T12:02:01Z</time>
      </trkpt>
      <trkpt lat="48.00912" lon="6.72464">
        <ele>414.926971</ele>
        <time>2019-08-16T12:02:02Z</time>
      </trkpt>
      <trkpt lat="48.00916" lon="6.72466">
        <ele>414.934814</ele>
        <time>2019-08-16T12:02:03Z</time>
      </trkpt>
      <trkpt lat="48.0092" lon="6.72469">
        <ele>414.953979</ele>
        <time>2019-08-16T12:02:04Z</time>
      </trkpt>
      <trkpt lat="48.00924" lon="6.72473">
        <ele>415.002716</ele>
        <time>2019-08-16T12:02:05Z</time>
      </trkpt>
      <trkpt lat="48.00927" lon="6.72478">
        <ele>415.051758</ele>
        <time>2019-08-16T12:02:06Z</time>
      </trkpt>
      <trkpt lat="48.0093" lon="6.72483">
        <ele>415.108002</ele>
        <time>2019-08-16T12:02:07Z</time>
      </trkpt>
      <trkpt lat="48.00932" lon="6.72488">
        <ele>415.167572</ele>
        <time>2019-08-16T12:02:08Z</time>
      </trkpt>
      <trkpt lat="48.00935" lon="6.72494">
        <ele>415.252472</ele>
        <time>2019-08-16T12:02:09Z</time>
      </trkpt>
      <trkpt lat="48.00937" lon="6.725">
        <ele>415.308319</ele>
        <time>2019-08-16T12:02:10Z</time>
      </trkpt>
      <trkpt lat="48.0094" lon="6.72507">
        <ele>415.360138</ele>
        <time>2019-08-16T12:02:11Z</time>
      </trkpt>
      <trkpt lat="48.00942" lon="6.72513">
        <ele>415.404663</ele>
        <time>2019-08-16T12:02:12Z</time>
      </trkpt>
      <trkpt lat="48.00944" lon="6.72518">
        <ele>415.423218</ele>
        <time>2019-08-16T12:02:13Z</time>
      </trkpt>
      <trkpt lat="48.00946" lon="6.72524">
        <ele>415.450348</ele>
        <time>2019-08-16T12:02:14Z</time>
      </trkpt>
      <trkpt lat="48.00948" lon="6.7253">
        <ele>415.470612</ele>
        <time>2019-08-16T12:02:15Z</time>
      </trkpt>
      <trkpt lat="48.00951" lon="6.72536">
        <ele>415.487213</ele>
        <time>2019-08-16T12:02:16Z</time>
      </trkpt>
      <trkpt lat="48.00953" lon="6.72542">
        <ele>415.501221</ele>
        <time>2019-08-16T12:02:17Z</time>
      </trkpt>
      <trkpt lat="48.00955" lon="6.72548">
        <ele>415.51181</ele>
        <time>2019-08-16T12:02:18Z</time>
      </trkpt>
      <trkpt lat="48.00958" lon="6.72554">
        <ele>415.545929</ele>
        <time>2019-08-16T12:02:19Z</time>
      </trkpt>
      <trkpt lat="48.00961" lon="6.72559">
        <ele>415.578217</ele>
        <time>2019-08-16T12:02:20Z</time>
      </trkpt>
      <trkpt lat="48.00963" lon="6.72563">
        <ele>415.617767</ele>
        <time>2019-08-16T12:02:21Z</time>
      </trkpt>
      <trkpt lat="48.00966" lon="6.72568">
        <ele>415.640137</ele>
        <time>2019-08-16T12:02:22Z</time>
      </trkpt>
      <trkpt lat="48.00969" lon="6.72573">
        <ele>415.690643</ele>
        <time>2019-08-16T12:02:23Z</time>
      </trkpt>
      <trkpt lat="48.00972" lon="6.72578">
        <ele>415.790619</ele>
        <time>2019-08-16T12:02:24Z</time>
      </trkpt>
      <trkpt lat="48.00975" lon="6.72583">
        <ele>415.87561</ele>
        <time>2019-08-16T12:02:25Z</time>
      </trkpt>
      <trkpt lat="48.00979" lon="6.72587">
        <ele>415.96521</ele>
        <time>2019-08-16T12:02:26Z</time>
      </trkpt>
      <trkpt lat="48.00982" lon="6.72592">
        <ele>416.080353</ele>
        <time>2019-08-16T12:02:27Z</time>
      </trkpt>
      <trkpt lat="48.00985" lon="6.72596">
        <ele>416.137299</ele>
        <time>2019-08-16T12:02:28Z</time>
      </trkpt>
      <trkpt lat="48.00989" lon="6.726">
        <ele>416.183136</ele>
        <time>2019-08-16T12:02:29Z</time>
      </trkpt>
      <trkpt lat="48.00992" lon="6.72605">
        <ele>416.219818</ele>
        <time>2019-08-16T12:02:30Z</time>
      </trkpt>
      <trkpt lat="48.00995" lon="6.72608">
        <ele>416.26651</ele>
        <time>2019-08-16T12:02:31Z</time>
      </trkpt>
      <trkpt lat="48.00998" lon="6.72611">
        <ele>416.299072</ele>
        <time>2019-08-16T12:02:32Z</time>
      </trkpt>
      <trkpt lat="48.01001" lon="6.72614">
        <ele>416.340729</ele>
        <time>2019-08-16T12:02:33Z</time>
      </trkpt>
      <trkpt lat="48.01004" lon="6.72618">
        <ele>416.397064</ele>
        <time>2019-08-16T12:02:34Z</time>
      </trkpt>
      <trkpt lat="48.01008" lon="6.7262">
        <ele>416.514252</ele>
        <time>2019-08-16T12:02:35Z</time>
      </trkpt>
      <trkpt lat="48.01011" lon="6.72623">
        <ele>416.610748</ele>
        <time>2019-08-16T12:02:36Z</time>
      </trkpt>
      <trkpt lat="48.01014" lon="6.72626">
        <ele>416.718506</ele>
        <time>2019-08-16T12:02:37Z</time>
      </trkpt>
      <trkpt lat="48.01017" lon="6.72629">
        <ele>416.90213</ele>
        <time>2019-08-16T12:02:38Z</time>
      </trkpt>
      <trkpt lat="48.01019" lon="6.72633">
        <ele>417.043243</ele>
        <time>2019-08-16T12:02:39Z</time>
      </trkpt>
      <trkpt lat="48.01022" lon="6.72636">
        <ele>417.202881</ele>
        <time>2019-08-16T12:02:40Z</time>
      </trkpt>
      <trkpt lat="48.01025" lon="6.72639">
        <ele>417.472748</ele>
        <time>2019-08-16T12:02:41Z</time>
      </trkpt>
      <trkpt lat="48.01028" lon="6.72642">
        <ele>417.667969</ele>
        <time>2019-08-16T12:02:42Z</time>
      </trkpt>
      <trkpt lat="48.0103" lon="6.72645">
        <ele>417.866119</ele>
        <time>2019-08-16T12:02:43Z</time>
      </trkpt>
      <trkpt lat="48.01033" lon="6.72648">
        <ele>418.144257</ele>
        <time>2019-08-16T12:02:44Z</time>
      </trkpt>
      <trkpt lat="48.01037" lon="6.72649">
        <ele>418.303802</ele>
        <time>2019-08-16T12:02:45Z</time>
      </trkpt>
      <trkpt lat="48.0104" lon="6.7265">
        <ele>418.443695</ele>
        <time>2019-08-16T12:02:46Z</time>
      </trkpt>
      <trkpt lat="48.01043" lon="6.7265">
        <ele>418.630341</ele>
        <time>2019-08-16T12:02:47Z</time>
      </trkpt>
      <trkpt lat="48.01046" lon="6.72652">
        <ele>418.742584</ele>
        <time>2019-08-16T12:02:48Z</time>
      </trkpt>
      <trkpt lat="48.01049" lon="6.72655">
        <ele>418.847748</ele>
        <time>2019-08-16T12:02:49Z</time>
      </trkpt>
      <trkpt lat="48.01051" lon="6.72658">
        <ele>418.947662</ele>
        <time>2019-08-16T12:02:50Z</time>
      </trkpt>
      <trkpt lat="48.01053" lon="6.72662">
        <ele>419.098785</ele>
        <time>2019-08-16T12:02:51Z</time>
      </trkpt>
      <trkpt lat="48.01053" lon="6.72666">
        <ele>419.205444</ele>
        <time>2019-08-16T12:02:52Z</time>
      </trkpt>
      <trkpt lat="48.01053" lon="6.7267">
        <ele>419.314697</ele>
        <time>2019-08-16T12:02:53Z</time>
      </trkpt>
      <trkpt lat="48.01053" lon="6.72675">
        <ele>419.422882</ele>
        <time>2019-08-16T12:02:54Z</time>
      </trkpt>
      <trkpt lat="48.01053" lon="6.72679">
        <ele>419.529785</ele>
        <time>2019-08-16T12:02:55Z</time>
      </trkpt>
      <trkpt lat="48.01053" lon="6.72684">
        <ele>419.631348</ele>
        <time>2019-08-16T12:02:56Z</time>
      </trkpt>
      <trkpt lat="48.01052" lon="6.72688">
        <ele>419.73111</ele>
        <time>2019-08-16T12:02:57Z</time>
      </trkpt>
      <trkpt lat="48.01051" lon="6.72692">
        <ele>419.829102</ele>
        <time>2019-08-16T12:02:58Z</time>
      </trkpt>
      <trkpt lat="48.0105" lon="6.72696">
        <ele>419.992798</ele>
        <time>2019-08-16T12:02:59Z</time>
      </trkpt>
      <trkpt lat="48.01048" lon="6.72699">
        <ele>420.123444</ele>
        <time>2019-08-16T12:03:00Z</time>
      </trkpt>
      <trkpt lat="48.01046" lon="6.72702">
        <ele>420.274872</ele>
        <time>2019-08-16T12:03:01Z</time>
      </trkpt>
      <trkpt lat="48.01044" lon="6.72705">
        <ele>420.52829</ele>
        <time>2019-08-16T12:03:02Z</time>
      </trkpt>
      <trkpt lat="48.01042" lon="6.72708">
        <ele>420.710602</ele>
        <time>2019-08-16T12:03:03Z</time>
      </trkpt>
      <trkpt lat="48.0104" lon="6.72711">
        <ele>420.900513</ele>
        <time>2019-08-16T12:03:04Z</time>
      </trkpt>
      <trkpt lat="48.01037" lon="6.72714">
        <ele>421.186768</ele>
        <time>2019-08-16T12:03:05Z</time>
      </trkpt>
      <trkpt lat="48.01035" lon="6.72716">
        <ele>421.374603</ele>
        <time>2019-08-16T12:03:06Z</time>
      </trkpt>
      <trkpt lat="48.01032" lon="6.72719">
        <ele>421.558502</ele>
        <time>2019-08-16T12:03:07Z</time>
      </trkpt>
      <trkpt lat="48.0103" lon="6.72721">
        <ele>421.817993</ele>
        <time>2019-08-16T12:03:08Z</time>
      </trkpt>
      <trkpt lat="48.01027" lon="6.72723">
        <ele>421.974213</ele>
        <time>2019-08-16T12:03:09Z</time>
      </trkpt>
      <trkpt lat="48.01024" lon="6.72726">
        <ele>422.122223</ele>
        <time>2019-08-16T12:03:10Z</time>
      </trkpt>
      <trkpt lat="48.01022" lon="6.72729">
        <ele>422.263824</ele>
        <time>2019-08-16T12:03:11Z</time>
      </trkpt>
      <trkpt lat="48.01019" lon="6.72732">
        <ele>422.459747</ele>
        <time>2019-08-16T12:03:12Z</time>
      </trkpt>
      <trkpt lat="48.01017" lon="6.72737">
        <ele>422.518402</ele>
        <time>2019-08-16T12:03:13Z</time>
      </trkpt>
      <trkpt lat="48.01016" lon="6.72741">
        <ele>422.625946</ele>
        <time>2019-08-16T12:03:14Z</time>
      </trkpt>
      <trkpt lat="48.01016" lon="6.72746">
        <ele>422.724518</ele>
        <time>2019-08-16T12:03:15Z</time>
      </trkpt>
      <trkpt lat="48.01016" lon="6.7275">
        <ele>422.819977</ele>
        <time>2019-08-16T12:03:16Z</time>
      </trkpt>
      <trkpt lat="48.01017" lon="6.72754">
        <ele>422.911987</ele>
        <time>2019-08-16T12:03:17Z</time>
      </trkpt>
      <trkpt lat="48.01017" lon="6.72758">
        <ele>423.00058</ele>
        <time>2019-08-16T12:03:18Z</time>
      </trkpt>
      <trkpt lat="48.01017" lon="6.72763">
        <ele>423.089325</ele>
        <time>2019-08-16T12:03:19Z</time>
      </trkpt>
      <trkpt lat="48.01017" lon="6.72767">
        <ele>423.193573</ele>
        <time>2019-08-16T12:03:20Z</time>
      </trkpt>
      <trkpt lat="48.01018" lon="6.7277">
        <ele>423.319244</ele>
        <time>2019-08-16T12:03:21Z</time>
      </trkpt>
      <trkpt lat="48.01019" lon="6.72774">
        <ele>423.464142</ele>
        <time>2019-08-16T12:03:22Z</time>
      </trkpt>
      <trkpt lat="48.01019" lon="6.72778">
        <ele>423.621429</ele>
        <time>2019-08-16T12:03:23Z</time>
      </trkpt>
      <trkpt lat="48.0102" lon="6.72782">
        <ele>423.786407</ele>
        <time>2019-08-16T12:03:24Z</time>
      </trkpt>
      <trkpt lat="48.0102" lon="6.72785">
        <ele>423.95993</ele>
        <time>2019-08-16T12:03:25Z</time>
      </trkpt>
      <trkpt lat="48.0102" lon="6.72789">
        <ele>424.139374</ele>
        <time>2019-08-16T12:03:26Z</time>
      </trkpt>
      <trkpt lat="48.01019" lon="6.72793">
        <ele>424.322723</ele>
        <time>2019-08-16T12:03:27Z</time>
      </trkpt>
      <trkpt lat="48.01019" lon="6.72797">
        <ele>424.507599</ele>
        <time>2019-08-16T12:03:28Z</time>
      </trkpt>
      <trkpt lat="48.01019" lon="6.728">
        <ele>424.692108</ele>
        <time>2019-08-16T12:03:29Z</time>
      </trkpt>
      <trkpt lat="48.01019" lon="6.72804">
        <ele>424.875854</ele>
        <time>2019-08-16T12:03:30Z</time>
      </trkpt>
      <trkpt lat="48.01018" lon="6.72807">
        <ele>425.056671</ele>
        <time>2019-08-16T12:03:31Z</time>
      </trkpt>
      <trkpt lat="48.01019" lon="6.72811">
        <ele>425.234375</ele>
        <time>2019-08-16T12:03:32Z</time>
      </trkpt>
      <trkpt lat="48.01019" lon="6.72814">
        <ele>425.412689</ele>
        <time>2019-08-16T12:03:33Z</time>
      </trkpt>
      <trkpt lat="48.01018" lon="6.72818">
        <ele>425.594482</ele>
        <time>2019-08-16T12:03:34Z</time>
      </trkpt>
      <trkpt lat="48.01018" lon="6.72821">
        <ele>425.783783</ele>
        <time>2019-08-16T12:03:35Z</time>
      </trkpt>
      <trkpt lat="48.01018" lon="6.72825">
        <ele>426.070221</ele>
        <time>2019-08-16T12:03:36Z</time>
      </trkpt>
      <trkpt lat="48.01018" lon="6.72829">
        <ele>426.259125</ele>
        <time>2019-08-16T12:03:37Z</time>
      </trkpt>
      <trkpt lat="48.01018" lon="6.72832">
        <ele>426.447662</ele>
        <time>2019-08-16T12:03:38Z</time>
      </trkpt>
      <trkpt lat="48.01019" lon="6.72836">
        <ele>426.740387</ele>
        <time>2019-08-16T12:03:39Z</time>
      </trkpt>
      <trkpt lat="48.0102" lon="6.72839">
        <ele>426.943848</ele>
        <time>2019-08-16T12:03:40Z</time>
      </trkpt>
      <trkpt lat="48.0102" lon="6.72843">
        <ele>427.147949</ele>
        <time>2019-08-16T12:03:41Z</time>
      </trkpt>
      <trkpt lat="48.01021" lon="6.72846">
        <ele>427.34903</ele>
        <time>2019-08-16T12:03:42Z</time>
      </trkpt>
      <trkpt lat="48.01022" lon="6.7285">
        <ele>427.641083</ele>
        <time>2019-08-16T12:03:43Z</time>
      </trkpt>
      <trkpt lat="48.01024" lon="6.72853">
        <ele>427.834442</ele>
        <time>2019-08-16T12:03:44Z</time>
      </trkpt>
      <trkpt lat="48.01025" lon="6.72856">
        <ele>428.029633</ele>
        <time>2019-08-16T12:03:45Z</time>
      </trkpt>
      <trkpt lat="48.01026" lon="6.72859">
        <ele>428.218506</ele>
        <time>2019-08-16T12:03:46Z</time>
      </trkpt>
      <trkpt lat="48.01027" lon="6.72862">
        <ele>428.483795</ele>
        <time>2019-08-16T12:03:47Z</time>
      </trkpt>
      <trkpt lat="48.01028" lon="6.72866">
        <ele>428.647949</ele>
        <time>2019-08-16T12:03:48Z</time>
      </trkpt>
      <trkpt lat="48.0103" lon="6.72869">
        <ele>428.805176</ele>
        <time>2019-08-16T12:03:49Z</time>
      </trkpt>
      <trkpt lat="48.01031" lon="6.72873">
        <ele>428.952667</ele>
        <time>2019-08-16T12:03:50Z</time>
      </trkpt>
      <trkpt lat="48.01032" lon="6.72876">
        <ele>429.154999</ele>
        <time>2019-08-16T12:03:51Z</time>
      </trkpt>
      <trkpt lat="48.01033" lon="6.7288">
        <ele>429.281647</ele>
        <time>2019-08-16T12:03:52Z</time>
      </trkpt>
      <trkpt lat="48.01034" lon="6.72883">
        <ele>429.40683</ele>
        <time>2019-08-16T12:03:53Z</time>
      </trkpt>
      <trkpt lat="48.01035" lon="6.72887">
        <ele>429.531158</ele>
        <time>2019-08-16T12:03:54Z</time>
      </trkpt>
      <trkpt lat="48.01036" lon="6.7289">
        <ele>429.660919</ele>
        <time>2019-08-16T12:03:55Z</time>
      </trkpt>
      <trkpt lat="48.01037" lon="6.72893">
        <ele>429.869904</ele>
        <time>2019-08-16T12:03:56Z</time>
      </trkpt>
      <trkpt lat="48.01038" lon="6.72896">
        <ele>430.014648</ele>
        <time>2019-08-16T12:03:57Z</time>
      </trkpt>
      <trkpt lat="48.0104" lon="6.72899">
        <ele>430.158112</ele>
        <time>2019-08-16T12:03:58Z</time>
      </trkpt>
      <trkpt lat="48.01042" lon="6.72902">
        <ele>430.300201</ele>
        <time>2019-08-16T12:03:59Z</time>
      </trkpt>
      <trkpt lat="48.01044" lon="6.72904">
        <ele>430.521729</ele>
        <time>2019-08-16T12:04:00Z</time>
      </trkpt>
      <trkpt lat="48.01046" lon="6.72906">
        <ele>430.67514</ele>
        <time>2019-08-16T12:04:01Z</time>
      </trkpt>
      <trkpt lat="48.01049" lon="6.72909">
        <ele>430.825317</ele>
        <time>2019-08-16T12:04:02Z</time>
      </trkpt>
      <trkpt lat="48.01052" lon="6.72911">
        <ele>431.046783</ele>
        <time>2019-08-16T12:04:03Z</time>
      </trkpt>
      <trkpt lat="48.01054" lon="6.72912">
        <ele>431.197021</ele>
        <time>2019-08-16T12:04:04Z</time>
      </trkpt>
      <trkpt lat="48.01056" lon="6.72914">
        <ele>431.342316</ele>
        <time>2019-08-16T12:04:05Z</time>
      </trkpt>
      <trkpt lat="48.01059" lon="6.72916">
        <ele>431.534454</ele>
        <time>2019-08-16T12:04:06Z</time>
      </trkpt>
      <trkpt lat="48.01061" lon="6.72918">
        <ele>431.646698</ele>
        <time>2019-08-16T12:04:07Z</time>
      </trkpt>
      <trkpt lat="48.01063" lon="6.72919">
        <ele>431.750946</ele>
        <time>2019-08-16T12:04:08Z</time>
      </trkpt>
      <trkpt lat="48.01066" lon="6.7292">
        <ele>431.889008</ele>
        <time>2019-08-16T12:04:09Z</time>
      </trkpt>
      <trkpt lat="48.01069" lon="6.72921">
        <ele>431.965424</ele>
        <time>2019-08-16T12:04:10Z</time>
      </trkpt>
      <trkpt lat="48.01072" lon="6.72921">
        <ele>432.063568</ele>
        <time>2019-08-16T12:04:11Z</time>
      </trkpt>
      <trkpt lat="48.01074" lon="6.72922">
        <ele>432.123383</ele>
        <time>2019-08-16T12:04:12Z</time>
      </trkpt>
      <trkpt lat="48.01077" lon="6.72923">
        <ele>432.18045</ele>
        <time>2019-08-16T12:04:13Z</time>
      </trkpt>
      <trkpt lat="48.0108" lon="6.72925">
        <ele>432.207764</ele>
        <time>2019-08-16T12:04:14Z</time>
      </trkpt>
      <trkpt lat="48.01083" lon="6.72926">
        <ele>432.234406</ele>
        <time>2019-08-16T12:04:15Z</time>
      </trkpt>
      <trkpt lat="48.01086" lon="6.72927">
        <ele>432.30835</ele>
        <time>2019-08-16T12:04:16Z</time>
      </trkpt>
      <trkpt lat="48.01089" lon="6.72928">
        <ele>432.355011</ele>
        <time>2019-08-16T12:04:17Z</time>
      </trkpt>
      <trkpt lat="48.01093" lon="6.72929">
        <ele>432.400482</ele>
        <time>2019-08-16T12:04:18Z</time>
      </trkpt>
      <trkpt lat="48.01096" lon="6.72931">
        <ele>432.464111</ele>
        <time>2019-08-16T12:04:19Z</time>
      </trkpt>
      <trkpt lat="48.01099" lon="6.72933">
        <ele>432.501923</ele>
        <time>2019-08-16T12:04:20Z</time>
      </trkpt>
      <trkpt lat="48.01103" lon="6.72937">
        <ele>432.532806</ele>
        <time>2019-08-16T12:04:21Z</time>
      </trkpt>
      <trkpt lat="48.01107" lon="6.7294">
        <ele>432.548065</ele>
        <time>2019-08-16T12:04:22Z</time>
      </trkpt>
      <trkpt lat="48.01111" lon="6.72944">
        <ele>432.547577</ele>
        <time>2019-08-16T12:04:23Z</time>
      </trkpt>
      <trkpt lat="48.01115" lon="6.72949">
        <ele>432.524811</ele>
        <time>2019-08-16T12:04:24Z</time>
      </trkpt>
      <trkpt lat="48.01118" lon="6.72954">
        <ele>432.435272</ele>
        <time>2019-08-16T12:04:25Z</time>
      </trkpt>
      <trkpt lat="48.0112" lon="6.7296">
        <ele>432.340088</ele>
        <time>2019-08-16T12:04:26Z</time>
      </trkpt>
      <trkpt lat="48.01121" lon="6.72966">
        <ele>432.229858</ele>
        <time>2019-08-16T12:04:27Z</time>
      </trkpt>
      <trkpt lat="48.01122" lon="6.72971">
        <ele>432.122192</ele>
        <time>2019-08-16T12:04:28Z</time>
      </trkpt>
      <trkpt lat="48.01121" lon="6.72976">
        <ele>432.031952</ele>
        <time>2019-08-16T12:04:29Z</time>
      </trkpt>
      <trkpt lat="48.0112" lon="6.7298">
        <ele>431.972565</ele>
        <time>2019-08-16T12:04:30Z</time>
      </trkpt>
      <trkpt lat="48.01118" lon="6.72984">
        <ele>431.958832</ele>
        <time>2019-08-16T12:04:31Z</time>
      </trkpt>
      <trkpt lat="48.01117" lon="6.72987">
        <ele>431.971924</ele>
        <time>2019-08-16T12:04:32Z</time>
      </trkpt>
      <trkpt lat="48.01116" lon="6.7299">
        <ele>432.036835</ele>
        <time>2019-08-16T12:04:33Z</time>
      </trkpt>
      <trkpt lat="48.01115" lon="6.72993">
        <ele>432.145966</ele>
        <time>2019-08-16T12:04:34Z</time>
      </trkpt>
      <trkpt lat="48.01115" lon="6.72996">
        <ele>432.288818</ele>
        <time>2019-08-16T12:04:35Z</time>
      </trkpt>
      <trkpt lat="48.01114" lon="6.73">
        <ele>432.458862</ele>
        <time>2019-08-16T12:04:36Z</time>
      </trkpt>
      <trkpt lat="48.01112" lon="6.73003">
        <ele>432.652008</ele>
        <time>2019-08-16T12:04:37Z</time>
      </trkpt>
      <trkpt lat="48.01111" lon="6.73006">
        <ele>432.864014</ele>
        <time>2019-08-16T12:04:38Z</time>
      </trkpt>
      <trkpt lat="48.01111" lon="6.73009">
        <ele>433.088379</ele>
        <time>2019-08-16T12:04:39Z</time>
      </trkpt>
      <trkpt lat="48.0111" lon="6.73012">
        <ele>433.426514</ele>
        <time>2019-08-16T12:04:40Z</time>
      </trkpt>
      <trkpt lat="48.01109" lon="6.73015">
        <ele>433.648407</ele>
        <time>2019-08-16T12:04:41Z</time>
      </trkpt>
      <trkpt lat="48.01109" lon="6.73019">
        <ele>433.872955</ele>
        <time>2019-08-16T12:04:42Z</time>
      </trkpt>
      <trkpt lat="48.01109" lon="6.73022">
        <ele>434.098267</ele>
        <time>2019-08-16T12:04:43Z</time>
      </trkpt>
      <trkpt lat="48.01108" lon="6.73025">
        <ele>434.319977</ele>
        <time>2019-08-16T12:04:44Z</time>
      </trkpt>
      <trkpt lat="48.01108" lon="6.73028">
        <ele>434.535034</ele>
        <time>2019-08-16T12:04:45Z</time>
      </trkpt>
      <trkpt lat="48.01108" lon="6.73032">
        <ele>434.745636</ele>
        <time>2019-08-16T12:04:46Z</time>
      </trkpt>
      <trkpt lat="48.01108" lon="6.73035">
        <ele>435.054535</ele>
        <time>2019-08-16T12:04:47Z</time>
      </trkpt>
      <trkpt lat="48.01108" lon="6.73038">
        <ele>435.257111</ele>
        <time>2019-08-16T12:04:48Z</time>
      </trkpt>
      <trkpt lat="48.01108" lon="6.73042">
        <ele>435.456573</ele>
        <time>2019-08-16T12:04:49Z</time>
      </trkpt>
      <trkpt lat="48.01108" lon="6.73045">
        <ele>435.650787</ele>
        <time>2019-08-16T12:04:50Z</time>
      </trkpt>
      <trkpt lat="48.01108" lon="6.73049">
        <ele>435.838531</ele>
        <time>2019-08-16T12:04:51Z</time>
      </trkpt>
      <trkpt lat="48.01108" lon="6.73052">
        <ele>436.022614</ele>
        <time>2019-08-16T12:04:52Z</time>
      </trkpt>
      <trkpt lat="48.01107" lon="6.73055">
        <ele>436.292267</ele>
        <time>2019-08-16T12:04:53Z</time>
      </trkpt>
      <trkpt lat="48.01107" lon="6.73058">
        <ele>436.461548</ele>
        <time>2019-08-16T12:04:54Z</time>
      </trkpt>
      <trkpt lat="48.01107" lon="6.73062">
        <ele>436.617584</ele>
        <time>2019-08-16T12:04:55Z</time>
      </trkpt>
      <trkpt lat="48.01106" lon="6.73065">
        <ele>436.762482</ele>
        <time>2019-08-16T12:04:56Z</time>
      </trkpt>
      <trkpt lat="48.01106" lon="6.73068">
        <ele>436.901459</ele>
        <time>2019-08-16T12:04:57Z</time>
      </trkpt>
      <trkpt lat="48.01106" lon="6.73071">
        <ele>437.102661</ele>
        <time>2019-08-16T12:04:58Z</time>
      </trkpt>
      <trkpt lat="48.01106" lon="6.73074">
        <ele>437.231659</ele>
        <time>2019-08-16T12:04:59Z</time>
      </trkpt>
      <trkpt lat="48.01106" lon="6.73078">
        <ele>437.357208</ele>
        <time>2019-08-16T12:05:00Z</time>
      </trkpt>
      <trkpt lat="48.01105" lon="6.73081">
        <ele>437.48349</ele>
        <time>2019-08-16T12:05:01Z</time>
      </trkpt>
      <trkpt lat="48.01105" lon="6.73084">
        <ele>437.61496</ele>
        <time>2019-08-16T12:05:02Z</time>
      </trkpt>
      <trkpt lat="48.01104" lon="6.73087">
        <ele>437.749756</ele>
        <time>2019-08-16T12:05:03Z</time>
      </trkpt>
      <trkpt lat="48.01104" lon="6.73091">
        <ele>437.889069</ele>
        <time>2019-08-16T12:05:04Z</time>
      </trkpt>
      <trkpt lat="48.01104" lon="6.73094">
        <ele>438.035675</ele>
        <time>2019-08-16T12:05:05Z</time>
      </trkpt>
      <trkpt lat="48.01104" lon="6.73098">
        <ele>438.19693</ele>
        <time>2019-08-16T12:05:06Z</time>
      </trkpt>
      <trkpt lat="48.01103" lon="6.73101">
        <ele>438.36792</ele>
        <time>2019-08-16T12:05:07Z</time>
      </trkpt>
      <trkpt lat="48.01103" lon="6.73105">
        <ele>438.539642</ele>
        <time>2019-08-16T12:05:08Z</time>
      </trkpt>
      <trkpt lat="48.01103" lon="6.73108">
        <ele>438.707153</ele>
        <time>2019-08-16T12:05:09Z</time>
      </trkpt>
      <trkpt lat="48.01102" lon="6.73111">
        <ele>438.875519</ele>
        <time>2019-08-16T12:05:10Z</time>
      </trkpt>
      <trkpt lat="48.01102" lon="6.73114">
        <ele>439.049469</ele>
        <time>2019-08-16T12:05:11Z</time>
      </trkpt>
      <trkpt lat="48.01102" lon="6.73117">
        <ele>439.225433</ele>
        <time>2019-08-16T12:05:12Z</time>
      </trkpt>
      <trkpt lat="48.01102" lon="6.7312">
        <ele>439.482208</ele>
        <time>2019-08-16T12:05:13Z</time>
      </trkpt>
      <trkpt lat="48.01101" lon="6.73123">
        <ele>439.565521</ele>
        <time>2019-08-16T12:05:14Z</time>
      </trkpt>
      <trkpt lat="48.01101" lon="6.73126">
        <ele>439.650513</ele>
        <time>2019-08-16T12:05:15Z</time>
      </trkpt>
      <trkpt lat="48.01101" lon="6.7313">
        <ele>439.824249</ele>
        <time>2019-08-16T12:05:16Z</time>
      </trkpt>
      <trkpt lat="48.011" lon="6.73133">
        <ele>440.009644</ele>
        <time>2019-08-16T12:05:17Z</time>
      </trkpt>
      <trkpt lat="48.011" lon="6.73136">
        <ele>440.201691</ele>
        <time>2019-08-16T12:05:18Z</time>
      </trkpt>
      <trkpt lat="48.01099" lon="6.73139">
        <ele>440.395264</ele>
        <time>2019-08-16T12:05:19Z</time>
      </trkpt>
      <trkpt lat="48.01099" lon="6.73142">
        <ele>440.592072</ele>
        <time>2019-08-16T12:05:20Z</time>
      </trkpt>
      <trkpt lat="48.01099" lon="6.73145">
        <ele>440.790405</ele>
        <time>2019-08-16T12:05:21Z</time>
      </trkpt>
      <trkpt lat="48.01098" lon="6.73147">
        <ele>440.986969</ele>
        <time>2019-08-16T12:05:22Z</time>
      </trkpt>
      <trkpt lat="48.01098" lon="6.7315">
        <ele>441.17807</ele>
        <time>2019-08-16T12:05:23Z</time>
      </trkpt>
      <trkpt lat="48.01097" lon="6.73153">
        <ele>441.368774</ele>
        <time>2019-08-16T12:05:24Z</time>
      </trkpt>
      <trkpt lat="48.01097" lon="6.73156">
        <ele>441.569916</ele>
        <time>2019-08-16T12:05:25Z</time>
      </trkpt>
      <trkpt lat="48.01096" lon="6.73159">
        <ele>441.787262</ele>
        <time>2019-08-16T12:05:26Z</time>
      </trkpt>
      <trkpt lat="48.01096" lon="6.73162">
        <ele>442.02002</ele>
        <time>2019-08-16T12:05:27Z</time>
      </trkpt>
      <trkpt lat="48.01096" lon="6.73164">
        <ele>442.387238</ele>
        <time>2019-08-16T12:05:28Z</time>
      </trkpt>
      <trkpt lat="48.01095" lon="6.73167">
        <ele>442.640106</ele>
        <time>2019-08-16T12:05:29Z</time>
      </trkpt>
      <trkpt lat="48.01095" lon="6.7317">
        <ele>442.893036</ele>
        <time>2019-08-16T12:05:30Z</time>
      </trkpt>
      <trkpt lat="48.01095" lon="6.73173">
        <ele>443.137421</ele>
        <time>2019-08-16T12:05:31Z</time>
      </trkpt>
      <trkpt lat="48.01094" lon="6.73176">
        <ele>443.369507</ele>
        <time>2019-08-16T12:05:32Z</time>
      </trkpt>
      <trkpt lat="48.01093" lon="6.73179">
        <ele>443.591797</ele>
        <time>2019-08-16T12:05:33Z</time>
      </trkpt>
      <trkpt lat="48.01092" lon="6.73182">
        <ele>443.808685</ele>
        <time>2019-08-16T12:05:34Z</time>
      </trkpt>
      <trkpt lat="48.01091" lon="6.73184">
        <ele>444.025726</ele>
        <time>2019-08-16T12:05:35Z</time>
      </trkpt>
      <trkpt lat="48.0109" lon="6.73186">
        <ele>444.245941</ele>
        <time>2019-08-16T12:05:36Z</time>
      </trkpt>
      <trkpt lat="48.01089" lon="6.73189">
        <ele>444.474823</ele>
        <time>2019-08-16T12:05:37Z</time>
      </trkpt>
      <trkpt lat="48.01088" lon="6.73191">
        <ele>444.706787</ele>
        <time>2019-08-16T12:05:38Z</time>
      </trkpt>
      <trkpt lat="48.01087" lon="6.73193">
        <ele>445.045319</ele>
        <time>2019-08-16T12:05:39Z</time>
      </trkpt>
      <trkpt lat="48.01085" lon="6.73195">
        <ele>445.254395</ele>
        <time>2019-08-16T12:05:40Z</time>
      </trkpt>
      <trkpt lat="48.01084" lon="6.73197">
        <ele>445.449097</ele>
        <time>2019-08-16T12:05:41Z</time>
      </trkpt>
      <trkpt lat="48.01083" lon="6.73199">
        <ele>445.632233</ele>
        <time>2019-08-16T12:05:42Z</time>
      </trkpt>
      <trkpt lat="48.01081" lon="6.73201">
        <ele>445.888062</ele>
        <time>2019-08-16T12:05:43Z</time>
      </trkpt>
      <trkpt lat="48.0108" lon="6.73202">
        <ele>446.050446</ele>
        <time>2019-08-16T12:05:44Z</time>
      </trkpt>
      <trkpt lat="48.01078" lon="6.73204">
        <ele>446.216064</ele>
        <time>2019-08-16T12:05:45Z</time>
      </trkpt>
      <trkpt lat="48.01077" lon="6.73205">
        <ele>446.390472</ele>
        <time>2019-08-16T12:05:46Z</time>
      </trkpt>
      <trkpt lat="48.01075" lon="6.73207">
        <ele>446.674164</ele>
        <time>2019-08-16T12:05:47Z</time>
      </trkpt>
      <trkpt lat="48.01074" lon="6.73209">
        <ele>446.880157</ele>
        <time>2019-08-16T12:05:48Z</time>
      </trkpt>
      <trkpt lat="48.01073" lon="6.73211">
        <ele>447.096191</ele>
        <time>2019-08-16T12:05:49Z</time>
      </trkpt>
      <trkpt lat="48.01072" lon="6.73213">
        <ele>447.316315</ele>
        <time>2019-08-16T12:05:50Z</time>
      </trkpt>
      <trkpt lat="48.01071" lon="6.73215">
        <ele>447.63681</ele>
        <time>2019-08-16T12:05:51Z</time>
      </trkpt>
      <trkpt lat="48.0107" lon="6.73217">
        <ele>447.847412</ele>
        <time>2019-08-16T12:05:52Z</time>
      </trkpt>
      <trkpt lat="48.01069" lon="6.73219">
        <ele>448.053131</ele>
        <time>2019-08-16T12:05:53Z</time>
      </trkpt>
      <trkpt lat="48.01069" lon="6.73221">
        <ele>448.251434</ele>
        <time>2019-08-16T12:05:54Z</time>
      </trkpt>
      <trkpt lat="48.01068" lon="6.73224">
        <ele>448.435272</ele>
        <time>2019-08-16T12:05:55Z</time>
      </trkpt>
      <trkpt lat="48.01067" lon="6.73226">
        <ele>448.612762</ele>
        <time>2019-08-16T12:05:56Z</time>
      </trkpt>
      <trkpt lat="48.01067" lon="6.73229">
        <ele>448.790649</ele>
        <time>2019-08-16T12:05:57Z</time>
      </trkpt>
      <trkpt lat="48.01066" lon="6.73232">
        <ele>448.972565</ele>
        <time>2019-08-16T12:05:58Z</time>
      </trkpt>
      <trkpt lat="48.01066" lon="6.73235">
        <ele>449.153046</ele>
        <time>2019-08-16T12:05:59Z</time>
      </trkpt>
      <trkpt lat="48.01065" lon="6.73238">
        <ele>449.329498</ele>
        <time>2019-08-16T12:06:00Z</time>
      </trkpt>
      <trkpt lat="48.01064" lon="6.73241">
        <ele>449.500946</ele>
        <time>2019-08-16T12:06:01Z</time>
      </trkpt>
      <trkpt lat="48.01064" lon="6.73243">
        <ele>449.668457</ele>
        <time>2019-08-16T12:06:02Z</time>
      </trkpt>
      <trkpt lat="48.01063" lon="6.73245">
        <ele>449.833252</ele>
        <time>2019-08-16T12:06:03Z</time>
      </trkpt>
      <trkpt lat="48.01063" lon="6.73248">
        <ele>449.99527</ele>
        <time>2019-08-16T12:06:04Z</time>
      </trkpt>
      <trkpt lat="48.01062" lon="6.7325">
        <ele>450.152985</ele>
        <time>2019-08-16T12:06:05Z</time>
      </trkpt>
      <trkpt lat="48.01062" lon="6.73253">
        <ele>450.37915</ele>
        <time>2019-08-16T12:06:06Z</time>
      </trkpt>
      <trkpt lat="48.01061" lon="6.73255">
        <ele>450.525391</ele>
        <time>2019-08-16T12:06:07Z</time>
      </trkpt>
      <trkpt lat="48.01059" lon="6.73257">
        <ele>450.673187</ele>
        <time>2019-08-16T12:06:08Z</time>
      </trkpt>
      <trkpt lat="48.01058" lon="6.73257">
        <ele>450.825226</ele>
        <time>2019-08-16T12:06:09Z</time>
      </trkpt>
      <trkpt lat="48.01056" lon="6.73257">
        <ele>451.065674</ele>
        <time>2019-08-16T12:06:10Z</time>
      </trkpt>
      <trkpt lat="48.01056" lon="6.73256">
        <ele>451.242462</ele>
        <time>2019-08-16T12:06:11Z</time>
      </trkpt>
      <trkpt lat="48.01054" lon="6.73256">
        <ele>452.139557</ele>
        <time>2019-08-16T12:06:13Z</time>
      </trkpt>
      <trkpt lat="48.01053" lon="6.73255">
        <ele>452.266815</ele>
        <time>2019-08-16T12:06:15Z</time>
      </trkpt>
      <trkpt lat="48.01051" lon="6.73255">
        <ele>452.670013</ele>
        <time>2019-08-16T12:06:16Z</time>
      </trkpt>
      <trkpt lat="48.01049" lon="6.73256">
        <ele>452.953217</ele>
        <time>2019-08-16T12:06:17Z</time>
      </trkpt>
      <trkpt lat="48.01049" lon="6.73257">
        <ele>453.379883</ele>
        <time>2019-08-16T12:06:18Z</time>
      </trkpt>
      <trkpt lat="48.01048" lon="6.73258">
        <ele>453.661621</ele>
        <time>2019-08-16T12:06:19Z</time>
      </trkpt>
      <trkpt lat="48.01047" lon="6.73259">
        <ele>453.94516</ele>
        <time>2019-08-16T12:06:20Z</time>
      </trkpt>
      <trkpt lat="48.01046" lon="6.7326">
        <ele>454.229828</ele>
        <time>2019-08-16T12:06:21Z</time>
      </trkpt>
      <trkpt lat="48.01045" lon="6.73261">
        <ele>454.510376</ele>
        <time>2019-08-16T12:06:22Z</time>
      </trkpt>
      <trkpt lat="48.01043" lon="6.73261">
        <ele>454.922363</ele>
        <time>2019-08-16T12:06:23Z</time>
      </trkpt>
      <trkpt lat="48.01042" lon="6.7326">
        <ele>455.921143</ele>
        <time>2019-08-16T12:06:25Z</time>
      </trkpt>
      <trkpt lat="48.01041" lon="6.73259">
        <ele>456.238678</ele>
        <time>2019-08-16T12:06:27Z</time>
      </trkpt>
      <trkpt lat="48.0104" lon="6.73259">
        <ele>456.564941</ele>
        <time>2019-08-16T12:06:28Z</time>
      </trkpt>
      <trkpt lat="48.0104" lon="6.73259">
        <ele>457.062744</ele>
        <time>2019-08-16T12:06:29Z</time>
      </trkpt>
      <trkpt lat="48.01041" lon="6.73257">
        <ele>457.390717</ele>
        <time>2019-08-16T12:06:30Z</time>
      </trkpt>
      <trkpt lat="48.01042" lon="6.73255">
        <ele>457.70932</ele>
        <time>2019-08-16T12:06:31Z</time>
      </trkpt>
      <trkpt lat="48.01042" lon="6.73253">
        <ele>458.157593</ele>
        <time>2019-08-16T12:06:32Z</time>
      </trkpt>
      <trkpt lat="48.01041" lon="6.73251">
        <ele>458.439819</ele>
        <time>2019-08-16T12:06:33Z</time>
      </trkpt>
      <trkpt lat="48.0104" lon="6.73251">
        <ele>458.715179</ele>
        <time>2019-08-16T12:06:34Z</time>
      </trkpt>
      <trkpt lat="48.0104" lon="6.7325">
        <ele>459.117279</ele>
        <time>2019-08-16T12:06:35Z</time>
      </trkpt>
      <trkpt lat="48.01038" lon="6.7325">
        <ele>459.372437</ele>
        <time>2019-08-16T12:06:36Z</time>
      </trkpt>
      <trkpt lat="48.01038" lon="6.73251">
        <ele>459.949554</ele>
        <time>2019-08-16T12:06:37Z</time>
      </trkpt>
      <trkpt lat="48.01037" lon="6.73252">
        <ele>460.155792</ele>
        <time>2019-08-16T12:06:39Z</time>
      </trkpt>
      <trkpt lat="48.01036" lon="6.73253">
        <ele>460.352081</ele>
        <time>2019-08-16T12:06:40Z</time>
      </trkpt>
      <trkpt lat="48.01035" lon="6.73253">
        <ele>460.636353</ele>
        <time>2019-08-16T12:06:41Z</time>
      </trkpt>
      <trkpt lat="48.01034" lon="6.73255">
        <ele>460.82785</ele>
        <time>2019-08-16T12:06:42Z</time>
      </trkpt>
      <trkpt lat="48.01033" lon="6.73256">
        <ele>461.02121</ele>
        <time>2019-08-16T12:06:43Z</time>
      </trkpt>
      <trkpt lat="48.01032" lon="6.73257">
        <ele>461.314575</ele>
        <time>2019-08-16T12:06:44Z</time>
      </trkpt>
      <trkpt lat="48.01032" lon="6.73258">
        <ele>461.509918</ele>
        <time>2019-08-16T12:06:45Z</time>
      </trkpt>
      <trkpt lat="48.01031" lon="6.73259">
        <ele>461.705841</ele>
        <time>2019-08-16T12:06:46Z</time>
      </trkpt>
      <trkpt lat="48.0103" lon="6.73261">
        <ele>462.009125</ele>
        <time>2019-08-16T12:06:47Z</time>
      </trkpt>
      <trkpt lat="48.01029" lon="6.73263">
        <ele>462.219513</ele>
        <time>2019-08-16T12:06:48Z</time>
      </trkpt>
      <trkpt lat="48.01027" lon="6.73264">
        <ele>462.433472</ele>
        <time>2019-08-16T12:06:49Z</time>
      </trkpt>
      <trkpt lat="48.01026" lon="6.73265">
        <ele>462.74881</ele>
        <time>2019-08-16T12:06:50Z</time>
      </trkpt>
      <trkpt lat="48.01024" lon="6.73266">
        <ele>462.956573</ele>
        <time>2019-08-16T12:06:51Z</time>
      </trkpt>
      <trkpt lat="48.01023" lon="6.73267">
        <ele>463.161163</ele>
        <time>2019-08-16T12:06:52Z</time>
      </trkpt>
      <trkpt lat="48.01022" lon="6.73267">
        <ele>463.456512</ele>
        <time>2019-08-16T12:06:53Z</time>
      </trkpt>
      <trkpt lat="48.0102" lon="6.73268">
        <ele>463.638397</ele>
        <time>2019-08-16T12:06:54Z</time>
      </trkpt>
      <trkpt lat="48.01019" lon="6.73268">
        <ele>463.809326</ele>
        <time>2019-08-16T12:06:55Z</time>
      </trkpt>
      <trkpt lat="48.01017" lon="6.73269">
        <ele>464.051147</ele>
        <time>2019-08-16T12:06:56Z</time>
      </trkpt>
      <trkpt lat="48.01017" lon="6.73269">
        <ele>464.352661</ele>
        <time>2019-08-16T12:06:57Z</time>
      </trkpt>
      <trkpt lat="48.01015" lon="6.7327">
        <ele>464.574951</ele>
        <time>2019-08-16T12:06:59Z</time>
      </trkpt>
      <trkpt lat="48.01014" lon="6.7327">
        <ele>464.734711</ele>
        <time>2019-08-16T12:07:00Z</time>
      </trkpt>
      <trkpt lat="48.01012" lon="6.7327">
        <ele>464.911957</ele>
        <time>2019-08-16T12:07:01Z</time>
      </trkpt>
      <trkpt lat="48.01011" lon="6.73271">
        <ele>465.220703</ele>
        <time>2019-08-16T12:07:02Z</time>
      </trkpt>
      <trkpt lat="48.01009" lon="6.73271">
        <ele>465.453827</ele>
        <time>2019-08-16T12:07:03Z</time>
      </trkpt>
      <trkpt lat="48.01007" lon="6.7327">
        <ele>465.703217</ele>
        <time>2019-08-16T12:07:04Z</time>
      </trkpt>
      <trkpt lat="48.01004" lon="6.73269">
        <ele>466.082245</ele>
        <time>2019-08-16T12:07:05Z</time>
      </trkpt>
      <trkpt lat="48.01003" lon="6.73268">
        <ele>466.322998</ele>
        <time>2019-08-16T12:07:06Z</time>
      </trkpt>
      <trkpt lat="48.01001" lon="6.73267">
        <ele>466.546265</ele>
        <time>2019-08-16T12:07:07Z</time>
      </trkpt>
      <trkpt lat="48.01" lon="6.73265">
        <ele>466.841949</ele>
        <time>2019-08-16T12:07:08Z</time>
      </trkpt>
      <trkpt lat="48.00999" lon="6.73263">
        <ele>467.012451</ele>
        <time>2019-08-16T12:07:09Z</time>
      </trkpt>
      <trkpt lat="48.00998" lon="6.73262">
        <ele>467.16748</ele>
        <time>2019-08-16T12:07:10Z</time>
      </trkpt>
      <trkpt lat="48.00997" lon="6.73263">
        <ele>467.506622</ele>
        <time>2019-08-16T12:07:11Z</time>
      </trkpt>
      <trkpt lat="48.00997" lon="6.73264">
        <ele>467.816742</ele>
        <time>2019-08-16T12:07:13Z</time>
      </trkpt>
      <trkpt lat="48.00998" lon="6.73278">
        <ele>468.733978</ele>
        <time>2019-08-16T12:07:21Z</time>
      </trkpt>
      <trkpt lat="48.00998" lon="6.7328">
        <ele>468.764008</ele>
        <time>2019-08-16T12:07:23Z</time>
      </trkpt>
      <trkpt lat="48.00999" lon="6.73283">
        <ele>468.769287</ele>
        <time>2019-08-16T12:07:24Z</time>
      </trkpt>
      <trkpt lat="48.00999" lon="6.73285">
        <ele>468.769287</ele>
        <time>2019-08-16T12:07:25Z</time>
      </trkpt>
      <trkpt lat="48.01" lon="6.73288">
        <ele>468.757294</ele>
        <time>2019-08-16T12:07:26Z</time>
      </trkpt>
      <trkpt lat="48.01001" lon="6.7329">
        <ele>468.743744</ele>
        <time>2019-08-16T12:07:27Z</time>
      </trkpt>
      <trkpt lat="48.01001" lon="6.73292">
        <ele>468.739838</ele>
        <time>2019-08-16T12:07:28Z</time>
      </trkpt>
      <trkpt lat="48.01001" lon="6.73294">
        <ele>468.739838</ele>
        <time>2019-08-16T12:07:29Z</time>
      </trkpt>
      <trkpt lat="48.01001" lon="6.73296">
        <ele>468.74585</ele>
        <time>2019-08-16T12:07:30Z</time>
      </trkpt>
      <trkpt lat="48.01002" lon="6.73299">
        <ele>468.76709</ele>
        <time>2019-08-16T12:07:31Z</time>
      </trkpt>
      <trkpt lat="48.01002" lon="6.73301">
        <ele>468.804596</ele>
        <time>2019-08-16T12:07:32Z</time>
      </trkpt>
      <trkpt lat="48.01003" lon="6.73304">
        <ele>468.856689</ele>
        <time>2019-08-16T12:07:33Z</time>
      </trkpt>
      <trkpt lat="48.01002" lon="6.73306">
        <ele>468.917572</ele>
        <time>2019-08-16T12:07:34Z</time>
      </trkpt>
      <trkpt lat="48.01003" lon="6.73309">
        <ele>468.983032</ele>
        <time>2019-08-16T12:07:35Z</time>
      </trkpt>
      <trkpt lat="48.01003" lon="6.73311">
        <ele>469.04953</ele>
        <time>2019-08-16T12:07:36Z</time>
      </trkpt>
      <trkpt lat="48.01004" lon="6.73314">
        <ele>469.112579</ele>
        <time>2019-08-16T12:07:37Z</time>
      </trkpt>
      <trkpt lat="48.01004" lon="6.73316">
        <ele>469.174438</ele>
        <time>2019-08-16T12:07:38Z</time>
      </trkpt>
      <trkpt lat="48.01005" lon="6.73318">
        <ele>469.238739</ele>
        <time>2019-08-16T12:07:39Z</time>
      </trkpt>
      <trkpt lat="48.01005" lon="6.7332">
        <ele>469.312469</ele>
        <time>2019-08-16T12:07:40Z</time>
      </trkpt>
      <trkpt lat="48.01006" lon="6.73322">
        <ele>469.395782</ele>
        <time>2019-08-16T12:07:41Z</time>
      </trkpt>
      <trkpt lat="48.01007" lon="6.73324">
        <ele>469.538544</ele>
        <time>2019-08-16T12:07:42Z</time>
      </trkpt>
      <trkpt lat="48.01007" lon="6.73327">
        <ele>469.645142</ele>
        <time>2019-08-16T12:07:43Z</time>
      </trkpt>
      <trkpt lat="48.01007" lon="6.73329">
        <ele>469.764648</ele>
        <time>2019-08-16T12:07:44Z</time>
      </trkpt>
      <trkpt lat="48.01008" lon="6.73331">
        <ele>469.89621</ele>
        <time>2019-08-16T12:07:45Z</time>
      </trkpt>
      <trkpt lat="48.01008" lon="6.73334">
        <ele>470.035889</ele>
        <time>2019-08-16T12:07:46Z</time>
      </trkpt>
      <trkpt lat="48.01008" lon="6.73337">
        <ele>470.17392</ele>
        <time>2019-08-16T12:07:47Z</time>
      </trkpt>
      <trkpt lat="48.01008" lon="6.73339">
        <ele>470.298676</ele>
        <time>2019-08-16T12:07:48Z</time>
      </trkpt>
      <trkpt lat="48.01008" lon="6.73342">
        <ele>470.401459</ele>
        <time>2019-08-16T12:07:49Z</time>
      </trkpt>
      <trkpt lat="48.01008" lon="6.73345">
        <ele>470.481934</ele>
        <time>2019-08-16T12:07:50Z</time>
      </trkpt>
      <trkpt lat="48.01006" lon="6.73347">
        <ele>470.547852</ele>
        <time>2019-08-16T12:07:51Z</time>
      </trkpt>
      <trkpt lat="48.01005" lon="6.73349">
        <ele>470.606781</ele>
        <time>2019-08-16T12:07:52Z</time>
      </trkpt>
      <trkpt lat="48.01004" lon="6.7335">
        <ele>470.696136</ele>
        <time>2019-08-16T12:07:53Z</time>
      </trkpt>
      <trkpt lat="48.01004" lon="6.73352">
        <ele>470.760986</ele>
        <time>2019-08-16T12:07:54Z</time>
      </trkpt>
      <trkpt lat="48.01002" lon="6.73354">
        <ele>470.837982</ele>
        <time>2019-08-16T12:07:55Z</time>
      </trkpt>
      <trkpt lat="48.01001" lon="6.73355">
        <ele>470.998444</ele>
        <time>2019-08-16T12:07:56Z</time>
      </trkpt>
      <trkpt lat="48.01" lon="6.73357">
        <ele>471.144775</ele>
        <time>2019-08-16T12:07:57Z</time>
      </trkpt>
      <trkpt lat="48.00999" lon="6.73359">
        <ele>471.316132</ele>
        <time>2019-08-16T12:07:58Z</time>
      </trkpt>
      <trkpt lat="48.00998" lon="6.7336">
        <ele>471.610504</ele>
        <time>2019-08-16T12:07:59Z</time>
      </trkpt>
      <trkpt lat="48.00997" lon="6.73362">
        <ele>471.832184</ele>
        <time>2019-08-16T12:08:00Z</time>
      </trkpt>
      <trkpt lat="48.00997" lon="6.73365">
        <ele>472.183594</ele>
        <time>2019-08-16T12:08:01Z</time>
      </trkpt>
      <trkpt lat="48.00996" lon="6.73366">
        <ele>472.410919</ele>
        <time>2019-08-16T12:08:02Z</time>
      </trkpt>
      <trkpt lat="48.00995" lon="6.73368">
        <ele>472.624176</ele>
        <time>2019-08-16T12:08:03Z</time>
      </trkpt>
      <trkpt lat="48.00995" lon="6.73369">
        <ele>472.827271</ele>
        <time>2019-08-16T12:08:04Z</time>
      </trkpt>
      <trkpt lat="48.00994" lon="6.7337">
        <ele>473.121338</ele>
        <time>2019-08-16T12:08:05Z</time>
      </trkpt>
      <trkpt lat="48.00994" lon="6.73372">
        <ele>473.31015</ele>
        <time>2019-08-16T12:08:06Z</time>
      </trkpt>
      <trkpt lat="48.00994" lon="6.73374">
        <ele>473.488678</ele>
        <time>2019-08-16T12:08:07Z</time>
      </trkpt>
      <trkpt lat="48.00994" lon="6.73376">
        <ele>473.6633</ele>
        <time>2019-08-16T12:08:08Z</time>
      </trkpt>
      <trkpt lat="48.00993" lon="6.73377">
        <ele>474.149323</ele>
        <time>2019-08-16T12:08:09Z</time>
      </trkpt>
      <trkpt lat="48.00993" lon="6.73378">
        <ele>474.365875</ele>
        <time>2019-08-16T12:08:11Z</time>
      </trkpt>
      <trkpt lat="48.00992" lon="6.7338">
        <ele>474.588715</ele>
        <time>2019-08-16T12:08:12Z</time>
      </trkpt>
      <trkpt lat="48.00991" lon="6.73383">
        <ele>474.813629</ele>
        <time>2019-08-16T12:08:13Z</time>
      </trkpt>
      <trkpt lat="48.0099" lon="6.73385">
        <ele>475.033478</ele>
        <time>2019-08-16T12:08:14Z</time>
      </trkpt>
      <trkpt lat="48.0099" lon="6.73387">
        <ele>475.239838</ele>
        <time>2019-08-16T12:08:15Z</time>
      </trkpt>
      <trkpt lat="48.0099" lon="6.73389">
        <ele>475.429291</ele>
        <time>2019-08-16T12:08:16Z</time>
      </trkpt>
      <trkpt lat="48.0099" lon="6.73394">
        <ele>475.517181</ele>
        <time>2019-08-16T12:08:18Z</time>
      </trkpt>
      <trkpt lat="48.0099" lon="6.73396">
        <ele>475.602081</ele>
        <time>2019-08-16T12:08:19Z</time>
      </trkpt>
      <trkpt lat="48.00989" lon="6.73399">
        <ele>475.762115</ele>
        <time>2019-08-16T12:08:20Z</time>
      </trkpt>
      <trkpt lat="48.0099" lon="6.73401">
        <ele>475.917725</ele>
        <time>2019-08-16T12:08:21Z</time>
      </trkpt>
      <trkpt lat="48.0099" lon="6.73403">
        <ele>476.081787</ele>
        <time>2019-08-16T12:08:22Z</time>
      </trkpt>
      <trkpt lat="48.0099" lon="6.73405">
        <ele>476.264557</ele>
        <time>2019-08-16T12:08:23Z</time>
      </trkpt>
      <trkpt lat="48.0099" lon="6.73407">
        <ele>476.469147</ele>
        <time>2019-08-16T12:08:24Z</time>
      </trkpt>
      <trkpt lat="48.00989" lon="6.73409">
        <ele>476.691284</ele>
        <time>2019-08-16T12:08:25Z</time>
      </trkpt>
      <trkpt lat="48.00988" lon="6.7341">
        <ele>476.928192</ele>
        <time>2019-08-16T12:08:26Z</time>
      </trkpt>
      <trkpt lat="48.00988" lon="6.73412">
        <ele>477.175995</ele>
        <time>2019-08-16T12:08:27Z</time>
      </trkpt>
      <trkpt lat="48.00987" lon="6.73414">
        <ele>477.554047</ele>
        <time>2019-08-16T12:08:28Z</time>
      </trkpt>
      <trkpt lat="48.00986" lon="6.73416">
        <ele>477.798859</ele>
        <time>2019-08-16T12:08:29Z</time>
      </trkpt>
      <trkpt lat="48.00985" lon="6.73418">
        <ele>478.040527</ele>
        <time>2019-08-16T12:08:30Z</time>
      </trkpt>
      <trkpt lat="48.00984" lon="6.7342">
        <ele>478.278107</ele>
        <time>2019-08-16T12:08:31Z</time>
      </trkpt>
      <trkpt lat="48.00984" lon="6.73421">
        <ele>478.860931</ele>
        <time>2019-08-16T12:08:32Z</time>
      </trkpt>
      <trkpt lat="48.00984" lon="6.73422">
        <ele>479.092896</ele>
        <time>2019-08-16T12:08:34Z</time>
      </trkpt>
      <trkpt lat="48.00983" lon="6.73424">
        <ele>479.44101</ele>
        <time>2019-08-16T12:08:35Z</time>
      </trkpt>
      <trkpt lat="48.00983" lon="6.73425">
        <ele>479.678375</ele>
        <time>2019-08-16T12:08:36Z</time>
      </trkpt>
      <trkpt lat="48.00982" lon="6.73426">
        <ele>479.920929</ele>
        <time>2019-08-16T12:08:37Z</time>
      </trkpt>
      <trkpt lat="48.00982" lon="6.73428">
        <ele>480.284088</ele>
        <time>2019-08-16T12:08:38Z</time>
      </trkpt>
      <trkpt lat="48.00982" lon="6.7343">
        <ele>480.515717</ele>
        <time>2019-08-16T12:08:39Z</time>
      </trkpt>
      <trkpt lat="48.00983" lon="6.73432">
        <ele>480.736816</ele>
        <time>2019-08-16T12:08:40Z</time>
      </trkpt>
      <trkpt lat="48.00983" lon="6.73434">
        <ele>481.063446</ele>
        <time>2019-08-16T12:08:41Z</time>
      </trkpt>
      <trkpt lat="48.00983" lon="6.73435">
        <ele>481.282806</ele>
        <time>2019-08-16T12:08:42Z</time>
      </trkpt>
      <trkpt lat="48.00984" lon="6.73437">
        <ele>481.503418</ele>
        <time>2019-08-16T12:08:43Z</time>
      </trkpt>
      <trkpt lat="48.00984" lon="6.7344">
        <ele>481.833588</ele>
        <time>2019-08-16T12:08:44Z</time>
      </trkpt>
      <trkpt lat="48.00985" lon="6.73443">
        <ele>482.055267</ele>
        <time>2019-08-16T12:08:45Z</time>
      </trkpt>
      <trkpt lat="48.00986" lon="6.73446">
        <ele>482.271393</ele>
        <time>2019-08-16T12:08:46Z</time>
      </trkpt>
      <trkpt lat="48.00986" lon="6.73448">
        <ele>482.570557</ele>
        <time>2019-08-16T12:08:47Z</time>
      </trkpt>
      <trkpt lat="48.00986" lon="6.7345">
        <ele>482.752045</ele>
        <time>2019-08-16T12:08:48Z</time>
      </trkpt>
      <trkpt lat="48.00987" lon="6.73453">
        <ele>482.92984</ele>
        <time>2019-08-16T12:08:49Z</time>
      </trkpt>
      <trkpt lat="48.00988" lon="6.73455">
        <ele>483.109711</ele>
        <time>2019-08-16T12:08:50Z</time>
      </trkpt>
      <trkpt lat="48.00988" lon="6.73456">
        <ele>483.292084</ele>
        <time>2019-08-16T12:08:51Z</time>
      </trkpt>
      <trkpt lat="48.00988" lon="6.73457">
        <ele>483.469971</ele>
        <time>2019-08-16T12:08:52Z</time>
      </trkpt>
      <trkpt lat="48.00997" lon="6.73463">
        <ele>484.669342</ele>
        <time>2019-08-16T12:08:59Z</time>
      </trkpt>
      <trkpt lat="48.00999" lon="6.73463">
        <ele>484.746552</ele>
        <time>2019-08-16T12:09:01Z</time>
      </trkpt>
      <trkpt lat="48.01001" lon="6.73463">
        <ele>484.755524</ele>
        <time>2019-08-16T12:09:02Z</time>
      </trkpt>
      <trkpt lat="48.01004" lon="6.73464">
        <ele>484.747681</ele>
        <time>2019-08-16T12:09:03Z</time>
      </trkpt>
      <trkpt lat="48.01006" lon="6.73464">
        <ele>484.714264</ele>
        <time>2019-08-16T12:09:04Z</time>
      </trkpt>
      <trkpt lat="48.01007" lon="6.73465">
        <ele>484.664429</ele>
        <time>2019-08-16T12:09:05Z</time>
      </trkpt>
      <trkpt lat="48.01009" lon="6.73466">
        <ele>484.581573</ele>
        <time>2019-08-16T12:09:06Z</time>
      </trkpt>
      <trkpt lat="48.01011" lon="6.73467">
        <ele>484.532379</ele>
        <time>2019-08-16T12:09:07Z</time>
      </trkpt>
      <trkpt lat="48.01014" lon="6.73468">
        <ele>484.491547</ele>
        <time>2019-08-16T12:09:08Z</time>
      </trkpt>
      <trkpt lat="48.01017" lon="6.73469">
        <ele>484.429535</ele>
        <time>2019-08-16T12:09:09Z</time>
      </trkpt>
      <trkpt lat="48.0102" lon="6.73471">
        <ele>484.366119</ele>
        <time>2019-08-16T12:09:10Z</time>
      </trkpt>
      <trkpt lat="48.01024" lon="6.73473">
        <ele>484.270752</ele>
        <time>2019-08-16T12:09:11Z</time>
      </trkpt>
      <trkpt lat="48.01027" lon="6.73477">
        <ele>484.056305</ele>
        <time>2019-08-16T12:09:12Z</time>
      </trkpt>
      <trkpt lat="48.01032" lon="6.73481">
        <ele>483.871338</ele>
        <time>2019-08-16T12:09:13Z</time>
      </trkpt>
      <trkpt lat="48.01035" lon="6.73484">
        <ele>483.659882</ele>
        <time>2019-08-16T12:09:14Z</time>
      </trkpt>
      <trkpt lat="48.0104" lon="6.73487">
        <ele>483.316437</ele>
        <time>2019-08-16T12:09:15Z</time>
      </trkpt>
      <trkpt lat="48.01043" lon="6.73489">
        <ele>483.092163</ele>
        <time>2019-08-16T12:09:16Z</time>
      </trkpt>
      <trkpt lat="48.01046" lon="6.73492">
        <ele>482.988525</ele>
        <time>2019-08-16T12:09:17Z</time>
      </trkpt>
      <trkpt lat="48.01048" lon="6.73494">
        <ele>482.806549</ele>
        <time>2019-08-16T12:09:18Z</time>
      </trkpt>
      <trkpt lat="48.01049" lon="6.73497">
        <ele>482.662476</ele>
        <time>2019-08-16T12:09:19Z</time>
      </trkpt>
      <trkpt lat="48.01051" lon="6.73499">
        <ele>482.536713</ele>
        <time>2019-08-16T12:09:20Z</time>
      </trkpt>
      <trkpt lat="48.01053" lon="6.73501">
        <ele>482.511108</ele>
        <time>2019-08-16T12:09:21Z</time>
      </trkpt>
      <trkpt lat="48.01055" lon="6.73502">
        <ele>482.511108</ele>
        <time>2019-08-16T12:09:22Z</time>
      </trkpt>
      <trkpt lat="48.01057" lon="6.73504">
        <ele>482.517334</ele>
        <time>2019-08-16T12:09:23Z</time>
      </trkpt>
      <trkpt lat="48.01059" lon="6.73507">
        <ele>482.54361</ele>
        <time>2019-08-16T12:09:24Z</time>
      </trkpt>
      <trkpt lat="48.01061" lon="6.73509">
        <ele>482.582764</ele>
        <time>2019-08-16T12:09:25Z</time>
      </trkpt>
      <trkpt lat="48.01064" lon="6.73512">
        <ele>482.662598</ele>
        <time>2019-08-16T12:09:26Z</time>
      </trkpt>
      <trkpt lat="48.01068" lon="6.73514">
        <ele>482.714142</ele>
        <time>2019-08-16T12:09:27Z</time>
      </trkpt>
      <trkpt lat="48.01071" lon="6.73516">
        <ele>482.736572</ele>
        <time>2019-08-16T12:09:28Z</time>
      </trkpt>
      <trkpt lat="48.01074" lon="6.73518">
        <ele>482.730133</ele>
        <time>2019-08-16T12:09:29Z</time>
      </trkpt>
      <trkpt lat="48.01077" lon="6.7352">
        <ele>482.675537</ele>
        <time>2019-08-16T12:09:30Z</time>
      </trkpt>
      <trkpt lat="48.01081" lon="6.73521">
        <ele>482.559357</ele>
        <time>2019-08-16T12:09:31Z</time>
      </trkpt>
      <trkpt lat="48.01085" lon="6.73523">
        <ele>482.265961</ele>
        <time>2019-08-16T12:09:32Z</time>
      </trkpt>
      <trkpt lat="48.0109" lon="6.73524">
        <ele>481.966156</ele>
        <time>2019-08-16T12:09:33Z</time>
      </trkpt>
      <trkpt lat="48.01094" lon="6.73527">
        <ele>481.309326</ele>
        <time>2019-08-16T12:09:34Z</time>
      </trkpt>
      <trkpt lat="48.01099" lon="6.73531">
        <ele>480.733429</ele>
        <time>2019-08-16T12:09:35Z</time>
      </trkpt>
      <trkpt lat="48.01102" lon="6.73535">
        <ele>480.067047</ele>
        <time>2019-08-16T12:09:36Z</time>
      </trkpt>
      <trkpt lat="48.01106" lon="6.7354">
        <ele>478.939117</ele>
        <time>2019-08-16T12:09:37Z</time>
      </trkpt>
      <trkpt lat="48.01108" lon="6.73546">
        <ele>478.124969</ele>
        <time>2019-08-16T12:09:38Z</time>
      </trkpt>
      <trkpt lat="48.0111" lon="6.7355">
        <ele>477.300934</ele>
        <time>2019-08-16T12:09:39Z</time>
      </trkpt>
      <trkpt lat="48.01111" lon="6.73555">
        <ele>476.50943</ele>
        <time>2019-08-16T12:09:40Z</time>
      </trkpt>
      <trkpt lat="48.01111" lon="6.73558">
        <ele>475.79834</ele>
        <time>2019-08-16T12:09:41Z</time>
      </trkpt>
      <trkpt lat="48.01111" lon="6.73561">
        <ele>475.17627</ele>
        <time>2019-08-16T12:09:42Z</time>
      </trkpt>
      <trkpt lat="48.01111" lon="6.73564">
        <ele>474.404999</ele>
        <time>2019-08-16T12:09:43Z</time>
      </trkpt>
      <trkpt lat="48.01112" lon="6.73567">
        <ele>474.018585</ele>
        <time>2019-08-16T12:09:44Z</time>
      </trkpt>
      <trkpt lat="48.01113" lon="6.7357">
        <ele>473.754974</ele>
        <time>2019-08-16T12:09:45Z</time>
      </trkpt>
      <trkpt lat="48.01114" lon="6.73573">
        <ele>473.605225</ele>
        <time>2019-08-16T12:09:46Z</time>
      </trkpt>
      <trkpt lat="48.01114" lon="6.73576">
        <ele>473.545532</ele>
        <time>2019-08-16T12:09:47Z</time>
      </trkpt>
      <trkpt lat="48.01115" lon="6.73579">
        <ele>473.538116</ele>
        <time>2019-08-16T12:09:48Z</time>
      </trkpt>
      <trkpt lat="48.01115" lon="6.73583">
        <ele>473.540436</ele>
        <time>2019-08-16T12:09:49Z</time>
      </trkpt>
      <trkpt lat="48.01116" lon="6.73586">
        <ele>473.563873</ele>
        <time>2019-08-16T12:09:50Z</time>
      </trkpt>
      <trkpt lat="48.01117" lon="6.73589">
        <ele>473.62149</ele>
        <time>2019-08-16T12:09:51Z</time>
      </trkpt>
      <trkpt lat="48.01118" lon="6.73593">
        <ele>473.672455</ele>
        <time>2019-08-16T12:09:52Z</time>
      </trkpt>
      <trkpt lat="48.01119" lon="6.73595">
        <ele>473.733246</ele>
        <time>2019-08-16T12:09:53Z</time>
      </trkpt>
      <trkpt lat="48.0112" lon="6.73598">
        <ele>473.799316</ele>
        <time>2019-08-16T12:09:54Z</time>
      </trkpt>
      <trkpt lat="48.01121" lon="6.73601">
        <ele>473.872223</ele>
        <time>2019-08-16T12:09:55Z</time>
      </trkpt>
      <trkpt lat="48.01122" lon="6.73604">
        <ele>473.956177</ele>
        <time>2019-08-16T12:09:56Z</time>
      </trkpt>
      <trkpt lat="48.01122" lon="6.73607">
        <ele>474.065155</ele>
        <time>2019-08-16T12:09:57Z</time>
      </trkpt>
      <trkpt lat="48.01124" lon="6.73609">
        <ele>474.203979</ele>
        <time>2019-08-16T12:09:58Z</time>
      </trkpt>
      <trkpt lat="48.01125" lon="6.73612">
        <ele>474.462799</ele>
        <time>2019-08-16T12:09:59Z</time>
      </trkpt>
      <trkpt lat="48.01126" lon="6.73615">
        <ele>474.654083</ele>
        <time>2019-08-16T12:10:00Z</time>
      </trkpt>
      <trkpt lat="48.01127" lon="6.73618">
        <ele>474.855835</ele>
        <time>2019-08-16T12:10:01Z</time>
      </trkpt>
      <trkpt lat="48.01128" lon="6.73621">
        <ele>475.062744</ele>
        <time>2019-08-16T12:10:02Z</time>
      </trkpt>
      <trkpt lat="48.01129" lon="6.73623">
        <ele>475.268402</ele>
        <time>2019-08-16T12:10:03Z</time>
      </trkpt>
      <trkpt lat="48.0113" lon="6.73626">
        <ele>475.466217</ele>
        <time>2019-08-16T12:10:04Z</time>
      </trkpt>
      <trkpt lat="48.01131" lon="6.73628">
        <ele>475.650146</ele>
        <time>2019-08-16T12:10:05Z</time>
      </trkpt>
      <trkpt lat="48.01132" lon="6.73631">
        <ele>475.821411</ele>
        <time>2019-08-16T12:10:06Z</time>
      </trkpt>
      <trkpt lat="48.01134" lon="6.73634">
        <ele>476.058228</ele>
        <time>2019-08-16T12:10:07Z</time>
      </trkpt>
      <trkpt lat="48.01134" lon="6.73636">
        <ele>476.208221</ele>
        <time>2019-08-16T12:10:08Z</time>
      </trkpt>
      <trkpt lat="48.01134" lon="6.73638">
        <ele>476.354858</ele>
        <time>2019-08-16T12:10:09Z</time>
      </trkpt>
      <trkpt lat="48.01134" lon="6.7364">
        <ele>476.500885</ele>
        <time>2019-08-16T12:10:10Z</time>
      </trkpt>
      <trkpt lat="48.01135" lon="6.73643">
        <ele>476.648193</ele>
        <time>2019-08-16T12:10:11Z</time>
      </trkpt>
      <trkpt lat="48.01135" lon="6.73645">
        <ele>476.795288</ele>
        <time>2019-08-16T12:10:12Z</time>
      </trkpt>
      <trkpt lat="48.01136" lon="6.73647">
        <ele>477.000519</ele>
        <time>2019-08-16T12:10:13Z</time>
      </trkpt>
      <trkpt lat="48.01136" lon="6.7365">
        <ele>477.113739</ele>
        <time>2019-08-16T12:10:14Z</time>
      </trkpt>
      <trkpt lat="48.01136" lon="6.73654">
        <ele>477.204376</ele>
        <time>2019-08-16T12:10:15Z</time>
      </trkpt>
      <trkpt lat="48.01136" lon="6.73658">
        <ele>477.269318</ele>
        <time>2019-08-16T12:10:16Z</time>
      </trkpt>
      <trkpt lat="48.01136" lon="6.73664">
        <ele>477.286469</ele>
        <time>2019-08-16T12:10:17Z</time>
      </trkpt>
      <trkpt lat="48.01136" lon="6.7367">
        <ele>477.286469</ele>
        <time>2019-08-16T12:10:18Z</time>
      </trkpt>
      <trkpt lat="48.01136" lon="6.73675">
        <ele>477.286469</ele>
        <time>2019-08-16T12:10:19Z</time>
      </trkpt>
      <trkpt lat="48.01137" lon="6.73678">
        <ele>477.239166</ele>
        <time>2019-08-16T12:10:20Z</time>
      </trkpt>
      <trkpt lat="48.01138" lon="6.73681">
        <ele>477.056488</ele>
        <time>2019-08-16T12:10:21Z</time>
      </trkpt>
      <trkpt lat="48.01138" lon="6.73683">
        <ele>476.902466</ele>
        <time>2019-08-16T12:10:22Z</time>
      </trkpt>
      <trkpt lat="48.01138" lon="6.73685">
        <ele>476.753143</ele>
        <time>2019-08-16T12:10:23Z</time>
      </trkpt>
      <trkpt lat="48.01139" lon="6.73687">
        <ele>476.627197</ele>
        <time>2019-08-16T12:10:24Z</time>
      </trkpt>
      <trkpt lat="48.0114" lon="6.73689">
        <ele>476.569916</ele>
        <time>2019-08-16T12:10:25Z</time>
      </trkpt>
      <trkpt lat="48.0114" lon="6.73692">
        <ele>476.569916</ele>
        <time>2019-08-16T12:10:26Z</time>
      </trkpt>
      <trkpt lat="48.0114" lon="6.73694">
        <ele>476.609222</ele>
        <time>2019-08-16T12:10:27Z</time>
      </trkpt>
      <trkpt lat="48.0114" lon="6.73697">
        <ele>476.74707</ele>
        <time>2019-08-16T12:10:28Z</time>
      </trkpt>
      <trkpt lat="48.0114" lon="6.737">
        <ele>476.946869</ele>
        <time>2019-08-16T12:10:29Z</time>
      </trkpt>
      <trkpt lat="48.01141" lon="6.73703">
        <ele>477.190186</ele>
        <time>2019-08-16T12:10:30Z</time>
      </trkpt>
      <trkpt lat="48.01143" lon="6.73705">
        <ele>477.470551</ele>
        <time>2019-08-16T12:10:31Z</time>
      </trkpt>
      <trkpt lat="48.01143" lon="6.73707">
        <ele>477.778442</ele>
        <time>2019-08-16T12:10:32Z</time>
      </trkpt>
      <trkpt lat="48.01144" lon="6.7371">
        <ele>478.247284</ele>
        <time>2019-08-16T12:10:33Z</time>
      </trkpt>
      <trkpt lat="48.01144" lon="6.73711">
        <ele>478.552277</ele>
        <time>2019-08-16T12:10:34Z</time>
      </trkpt>
      <trkpt lat="48.01146" lon="6.73713">
        <ele>478.849884</ele>
        <time>2019-08-16T12:10:35Z</time>
      </trkpt>
      <trkpt lat="48.01147" lon="6.73715">
        <ele>479.275024</ele>
        <time>2019-08-16T12:10:36Z</time>
      </trkpt>
      <trkpt lat="48.01149" lon="6.73717">
        <ele>479.538727</ele>
        <time>2019-08-16T12:10:37Z</time>
      </trkpt>
      <trkpt lat="48.0115" lon="6.73718">
        <ele>479.784424</ele>
        <time>2019-08-16T12:10:38Z</time>
      </trkpt>
      <trkpt lat="48.01151" lon="6.73719">
        <ele>480.117706</ele>
        <time>2019-08-16T12:10:39Z</time>
      </trkpt>
      <trkpt lat="48.01152" lon="6.73721">
        <ele>480.317169</ele>
        <time>2019-08-16T12:10:40Z</time>
      </trkpt>
      <trkpt lat="48.01152" lon="6.73722">
        <ele>480.499481</ele>
        <time>2019-08-16T12:10:41Z</time>
      </trkpt>
      <trkpt lat="48.01153" lon="6.73725">
        <ele>480.743774</ele>
        <time>2019-08-16T12:10:42Z</time>
      </trkpt>
      <trkpt lat="48.01153" lon="6.73727">
        <ele>480.886688</ele>
        <time>2019-08-16T12:10:43Z</time>
      </trkpt>
      <trkpt lat="48.01154" lon="6.73729">
        <ele>481.01944</ele>
        <time>2019-08-16T12:10:44Z</time>
      </trkpt>
      <trkpt lat="48.01156" lon="6.73731">
        <ele>481.145996</ele>
        <time>2019-08-16T12:10:45Z</time>
      </trkpt>
      <trkpt lat="48.01157" lon="6.73732">
        <ele>481.330475</ele>
        <time>2019-08-16T12:10:46Z</time>
      </trkpt>
      <trkpt lat="48.01158" lon="6.73734">
        <ele>481.450195</ele>
        <time>2019-08-16T12:10:47Z</time>
      </trkpt>
      <trkpt lat="48.01159" lon="6.73735">
        <ele>481.574951</ele>
        <time>2019-08-16T12:10:48Z</time>
      </trkpt>
      <trkpt lat="48.01161" lon="6.73737">
        <ele>481.788086</ele>
        <time>2019-08-16T12:10:49Z</time>
      </trkpt>
      <trkpt lat="48.01162" lon="6.73739">
        <ele>481.94873</ele>
        <time>2019-08-16T12:10:50Z</time>
      </trkpt>
      <trkpt lat="48.01164" lon="6.73739">
        <ele>482.298065</ele>
        <time>2019-08-16T12:10:51Z</time>
      </trkpt>
      <trkpt lat="48.01165" lon="6.73741">
        <ele>482.495575</ele>
        <time>2019-08-16T12:10:53Z</time>
      </trkpt>
      <trkpt lat="48.01167" lon="6.73742">
        <ele>482.717194</ele>
        <time>2019-08-16T12:10:54Z</time>
      </trkpt>
      <trkpt lat="48.01167" lon="6.73743">
        <ele>483.093597</ele>
        <time>2019-08-16T12:10:55Z</time>
      </trkpt>
      <trkpt lat="48.01168" lon="6.73745">
        <ele>483.373627</ele>
        <time>2019-08-16T12:10:56Z</time>
      </trkpt>
      <trkpt lat="48.01169" lon="6.73748">
        <ele>483.674896</ele>
        <time>2019-08-16T12:10:57Z</time>
      </trkpt>
      <trkpt lat="48.0117" lon="6.7375">
        <ele>483.992523</ele>
        <time>2019-08-16T12:10:58Z</time>
      </trkpt>
      <trkpt lat="48.01171" lon="6.73751">
        <ele>484.318848</ele>
        <time>2019-08-16T12:10:59Z</time>
      </trkpt>
      <trkpt lat="48.01172" lon="6.73753">
        <ele>484.64502</ele>
        <time>2019-08-16T12:11:00Z</time>
      </trkpt>
      <trkpt lat="48.01174" lon="6.73755">
        <ele>485.102203</ele>
        <time>2019-08-16T12:11:01Z</time>
      </trkpt>
      <trkpt lat="48.01176" lon="6.73757">
        <ele>485.360382</ele>
        <time>2019-08-16T12:11:02Z</time>
      </trkpt>
      <trkpt lat="48.01178" lon="6.73759">
        <ele>485.571381</ele>
        <time>2019-08-16T12:11:03Z</time>
      </trkpt>
      <trkpt lat="48.0118" lon="6.73762">
        <ele>485.733856</ele>
        <time>2019-08-16T12:11:04Z</time>
      </trkpt>
      <trkpt lat="48.01183" lon="6.73764">
        <ele>485.905884</ele>
        <time>2019-08-16T12:11:05Z</time>
      </trkpt>
      <trkpt lat="48.01186" lon="6.73767">
        <ele>485.965607</ele>
        <time>2019-08-16T12:11:06Z</time>
      </trkpt>
      <trkpt lat="48.01189" lon="6.73771">
        <ele>485.97583</ele>
        <time>2019-08-16T12:11:07Z</time>
      </trkpt>
      <trkpt lat="48.01192" lon="6.73775">
        <ele>485.952606</ele>
        <time>2019-08-16T12:11:08Z</time>
      </trkpt>
      <trkpt lat="48.01194" lon="6.73779">
        <ele>485.883881</ele>
        <time>2019-08-16T12:11:09Z</time>
      </trkpt>
      <trkpt lat="48.01195" lon="6.73782">
        <ele>485.787354</ele>
        <time>2019-08-16T12:11:10Z</time>
      </trkpt>
      <trkpt lat="48.01197" lon="6.73785">
        <ele>485.577972</ele>
        <time>2019-08-16T12:11:11Z</time>
      </trkpt>
      <trkpt lat="48.01199" lon="6.73787">
        <ele>485.380371</ele>
        <time>2019-08-16T12:11:12Z</time>
      </trkpt>
      <trkpt lat="48.01201" lon="6.73789">
        <ele>485.137848</ele>
        <time>2019-08-16T12:11:13Z</time>
      </trkpt>
      <trkpt lat="48.01202" lon="6.73792">
        <ele>484.854248</ele>
        <time>2019-08-16T12:11:14Z</time>
      </trkpt>
      <trkpt lat="48.01203" lon="6.73795">
        <ele>484.353394</ele>
        <time>2019-08-16T12:11:15Z</time>
      </trkpt>
      <trkpt lat="48.01205" lon="6.738">
        <ele>483.969635</ele>
        <time>2019-08-16T12:11:16Z</time>
      </trkpt>
      <trkpt lat="48.01206" lon="6.73806">
        <ele>483.553955</ele>
        <time>2019-08-16T12:11:17Z</time>
      </trkpt>
      <trkpt lat="48.01208" lon="6.73811">
        <ele>483.335541</ele>
        <time>2019-08-16T12:11:18Z</time>
      </trkpt>
      <trkpt lat="48.01209" lon="6.73816">
        <ele>483.110596</ele>
        <time>2019-08-16T12:11:19Z</time>
      </trkpt>
      <trkpt lat="48.01209" lon="6.7382">
        <ele>482.634857</ele>
        <time>2019-08-16T12:11:20Z</time>
      </trkpt>
      <trkpt lat="48.01209" lon="6.73825">
        <ele>482.115723</ele>
        <time>2019-08-16T12:11:21Z</time>
      </trkpt>
      <trkpt lat="48.01209" lon="6.73829">
        <ele>481.55249</ele>
        <time>2019-08-16T12:11:22Z</time>
      </trkpt>
      <trkpt lat="48.0121" lon="6.73834">
        <ele>480.957764</ele>
        <time>2019-08-16T12:11:23Z</time>
      </trkpt>
      <trkpt lat="48.0121" lon="6.73839">
        <ele>480.351471</ele>
        <time>2019-08-16T12:11:24Z</time>
      </trkpt>
      <trkpt lat="48.01211" lon="6.73844">
        <ele>479.755859</ele>
        <time>2019-08-16T12:11:25Z</time>
      </trkpt>
      <trkpt lat="48.01212" lon="6.73849">
        <ele>479.180817</ele>
        <time>2019-08-16T12:11:26Z</time>
      </trkpt>
      <trkpt lat="48.01213" lon="6.73854">
        <ele>478.6427</ele>
        <time>2019-08-16T12:11:27Z</time>
      </trkpt>
      <trkpt lat="48.01215" lon="6.73858">
        <ele>478.152863</ele>
        <time>2019-08-16T12:11:28Z</time>
      </trkpt>
      <trkpt lat="48.01216" lon="6.73862">
        <ele>477.720856</ele>
        <time>2019-08-16T12:11:29Z</time>
      </trkpt>
      <trkpt lat="48.01216" lon="6.73866">
        <ele>477.338104</ele>
        <time>2019-08-16T12:11:30Z</time>
      </trkpt>
      <trkpt lat="48.01217" lon="6.73871">
        <ele>476.995087</ele>
        <time>2019-08-16T12:11:31Z</time>
      </trkpt>
      <trkpt lat="48.01217" lon="6.73875">
        <ele>476.688141</ele>
        <time>2019-08-16T12:11:32Z</time>
      </trkpt>
      <trkpt lat="48.01217" lon="6.73879">
        <ele>476.413818</ele>
        <time>2019-08-16T12:11:33Z</time>
      </trkpt>
      <trkpt lat="48.01218" lon="6.73883">
        <ele>476.162384</ele>
        <time>2019-08-16T12:11:34Z</time>
      </trkpt>
      <trkpt lat="48.01219" lon="6.73886">
        <ele>475.937134</ele>
        <time>2019-08-16T12:11:35Z</time>
      </trkpt>
      <trkpt lat="48.0122" lon="6.7389">
        <ele>475.669189</ele>
        <time>2019-08-16T12:11:36Z</time>
      </trkpt>
      <trkpt lat="48.01222" lon="6.73894">
        <ele>475.527008</ele>
        <time>2019-08-16T12:11:37Z</time>
      </trkpt>
      <trkpt lat="48.01222" lon="6.73899">
        <ele>475.388062</ele>
        <time>2019-08-16T12:11:38Z</time>
      </trkpt>
      <trkpt lat="48.01223" lon="6.73905">
        <ele>475.232666</ele>
        <time>2019-08-16T12:11:39Z</time>
      </trkpt>
      <trkpt lat="48.01224" lon="6.73911">
        <ele>475.049469</ele>
        <time>2019-08-16T12:11:40Z</time>
      </trkpt>
      <trkpt lat="48.01224" lon="6.73915">
        <ele>474.830078</ele>
        <time>2019-08-16T12:11:41Z</time>
      </trkpt>
      <trkpt lat="48.01224" lon="6.7392">
        <ele>474.57486</ele>
        <time>2019-08-16T12:11:42Z</time>
      </trkpt>
      <trkpt lat="48.01225" lon="6.73925">
        <ele>474.276001</ele>
        <time>2019-08-16T12:11:43Z</time>
      </trkpt>
      <trkpt lat="48.01225" lon="6.7393">
        <ele>473.942139</ele>
        <time>2019-08-16T12:11:44Z</time>
      </trkpt>
      <trkpt lat="48.01227" lon="6.73934">
        <ele>473.59494</ele>
        <time>2019-08-16T12:11:45Z</time>
      </trkpt>
      <trkpt lat="48.01228" lon="6.73938">
        <ele>473.260223</ele>
        <time>2019-08-16T12:11:46Z</time>
      </trkpt>
      <trkpt lat="48.0123" lon="6.73942">
        <ele>472.94165</ele>
        <time>2019-08-16T12:11:47Z</time>
      </trkpt>
      <trkpt lat="48.01231" lon="6.73945">
        <ele>472.638306</ele>
        <time>2019-08-16T12:11:48Z</time>
      </trkpt>
      <trkpt lat="48.01232" lon="6.73949">
        <ele>472.357147</ele>
        <time>2019-08-16T12:11:49Z</time>
      </trkpt>
      <trkpt lat="48.01234" lon="6.73954">
        <ele>472.106934</ele>
        <time>2019-08-16T12:11:50Z</time>
      </trkpt>
      <trkpt lat="48.01235" lon="6.73958">
        <ele>471.88443</ele>
        <time>2019-08-16T12:11:51Z</time>
      </trkpt>
      <trkpt lat="48.01237" lon="6.73962">
        <ele>471.584106</ele>
        <time>2019-08-16T12:11:52Z</time>
      </trkpt>
      <trkpt lat="48.01238" lon="6.73966">
        <ele>471.409576</ele>
        <time>2019-08-16T12:11:53Z</time>
      </trkpt>
      <trkpt lat="48.01239" lon="6.73969">
        <ele>471.265228</ele>
        <time>2019-08-16T12:11:54Z</time>
      </trkpt>
      <trkpt lat="48.0124" lon="6.73973">
        <ele>471.147552</ele>
        <time>2019-08-16T12:11:55Z</time>
      </trkpt>
      <trkpt lat="48.01242" lon="6.73977">
        <ele>471.042358</ele>
        <time>2019-08-16T12:11:56Z</time>
      </trkpt>
      <trkpt lat="48.01245" lon="6.7398">
        <ele>470.890381</ele>
        <time>2019-08-16T12:11:57Z</time>
      </trkpt>
      <trkpt lat="48.01247" lon="6.73983">
        <ele>470.800629</ele>
        <time>2019-08-16T12:11:58Z</time>
      </trkpt>
      <trkpt lat="48.01249" lon="6.73987">
        <ele>470.722412</ele>
        <time>2019-08-16T12:11:59Z</time>
      </trkpt>
      <trkpt lat="48.01251" lon="6.73992">
        <ele>470.604858</ele>
        <time>2019-08-16T12:12:00Z</time>
      </trkpt>
      <trkpt lat="48.01253" lon="6.73996">
        <ele>470.513306</ele>
        <time>2019-08-16T12:12:01Z</time>
      </trkpt>
      <trkpt lat="48.01255" lon="6.74">
        <ele>470.408203</ele>
        <time>2019-08-16T12:12:02Z</time>
      </trkpt>
      <trkpt lat="48.01258" lon="6.74003">
        <ele>470.29541</ele>
        <time>2019-08-16T12:12:03Z</time>
      </trkpt>
      <trkpt lat="48.01259" lon="6.74007">
        <ele>470.104156</ele>
        <time>2019-08-16T12:12:04Z</time>
      </trkpt>
      <trkpt lat="48.01261" lon="6.74011">
        <ele>469.967499</ele>
        <time>2019-08-16T12:12:05Z</time>
      </trkpt>
      <trkpt lat="48.01263" lon="6.74014">
        <ele>469.832245</ele>
        <time>2019-08-16T12:12:06Z</time>
      </trkpt>
      <trkpt lat="48.01265" lon="6.74018">
        <ele>469.708649</ele>
        <time>2019-08-16T12:12:07Z</time>
      </trkpt>
      <trkpt lat="48.01267" lon="6.74023">
        <ele>469.537811</ele>
        <time>2019-08-16T12:12:08Z</time>
      </trkpt>
      <trkpt lat="48.01268" lon="6.74027">
        <ele>469.431915</ele>
        <time>2019-08-16T12:12:09Z</time>
      </trkpt>
      <trkpt lat="48.01269" lon="6.74032">
        <ele>469.324921</ele>
        <time>2019-08-16T12:12:10Z</time>
      </trkpt>
      <trkpt lat="48.01271" lon="6.74038">
        <ele>469.214996</ele>
        <time>2019-08-16T12:12:11Z</time>
      </trkpt>
      <trkpt lat="48.01273" lon="6.74043">
        <ele>469.098724</ele>
        <time>2019-08-16T12:12:12Z</time>
      </trkpt>
      <trkpt lat="48.01275" lon="6.74049">
        <ele>468.982544</ele>
        <time>2019-08-16T12:12:13Z</time>
      </trkpt>
      <trkpt lat="48.01278" lon="6.74054">
        <ele>468.859619</ele>
        <time>2019-08-16T12:12:14Z</time>
      </trkpt>
      <trkpt lat="48.0128" lon="6.74059">
        <ele>468.726105</ele>
        <time>2019-08-16T12:12:15Z</time>
      </trkpt>
      <trkpt lat="48.01283" lon="6.74064">
        <ele>468.586517</ele>
        <time>2019-08-16T12:12:16Z</time>
      </trkpt>
      <trkpt lat="48.01285" lon="6.74069">
        <ele>468.45639</ele>
        <time>2019-08-16T12:12:17Z</time>
      </trkpt>
      <trkpt lat="48.01288" lon="6.74074">
        <ele>468.391815</ele>
        <time>2019-08-16T12:12:18Z</time>
      </trkpt>
      <trkpt lat="48.01292" lon="6.74078">
        <ele>468.26062</ele>
        <time>2019-08-16T12:12:19Z</time>
      </trkpt>
      <trkpt lat="48.01297" lon="6.74082">
        <ele>468.016602</ele>
        <time>2019-08-16T12:12:20Z</time>
      </trkpt>
      <trkpt lat="48.013" lon="6.74086">
        <ele>467.827515</ele>
        <time>2019-08-16T12:12:21Z</time>
      </trkpt>
      <trkpt lat="48.01305" lon="6.74089">
        <ele>467.609222</ele>
        <time>2019-08-16T12:12:22Z</time>
      </trkpt>
      <trkpt lat="48.01308" lon="6.74093">
        <ele>467.19458</ele>
        <time>2019-08-16T12:12:23Z</time>
      </trkpt>
      <trkpt lat="48.01312" lon="6.74097">
        <ele>466.831543</ele>
        <time>2019-08-16T12:12:24Z</time>
      </trkpt>
      <trkpt lat="48.01316" lon="6.741">
        <ele>466.397797</ele>
        <time>2019-08-16T12:12:25Z</time>
      </trkpt>
      <trkpt lat="48.01319" lon="6.74103">
        <ele>465.62027</ele>
        <time>2019-08-16T12:12:26Z</time>
      </trkpt>
      <trkpt lat="48.01319" lon="6.74108">
        <ele>465.054321</ele>
        <time>2019-08-16T12:12:27Z</time>
      </trkpt>
      <trkpt lat="48.01319" lon="6.74112">
        <ele>464.481476</ele>
        <time>2019-08-16T12:12:28Z</time>
      </trkpt>
      <trkpt lat="48.01318" lon="6.74115">
        <ele>463.939819</ele>
        <time>2019-08-16T12:12:29Z</time>
      </trkpt>
      <trkpt lat="48.01318" lon="6.74119">
        <ele>463.456207</ele>
        <time>2019-08-16T12:12:30Z</time>
      </trkpt>
      <trkpt lat="48.01317" lon="6.74123">
        <ele>463.032623</ele>
        <time>2019-08-16T12:12:31Z</time>
      </trkpt>
      <trkpt lat="48.01317" lon="6.74126">
        <ele>462.674438</ele>
        <time>2019-08-16T12:12:32Z</time>
      </trkpt>
      <trkpt lat="48.01317" lon="6.7413">
        <ele>462.387085</ele>
        <time>2019-08-16T12:12:33Z</time>
      </trkpt>
      <trkpt lat="48.01317" lon="6.74133">
        <ele>462.185822</ele>
        <time>2019-08-16T12:12:34Z</time>
      </trkpt>
      <trkpt lat="48.01317" lon="6.74136">
        <ele>462.068604</ele>
        <time>2019-08-16T12:12:35Z</time>
      </trkpt>
      <trkpt lat="48.01317" lon="6.74139">
        <ele>462.031097</ele>
        <time>2019-08-16T12:12:36Z</time>
      </trkpt>
      <trkpt lat="48.01317" lon="6.74143">
        <ele>462.031097</ele>
        <time>2019-08-16T12:12:37Z</time>
      </trkpt>
      <trkpt lat="48.01318" lon="6.74146">
        <ele>462.056763</ele>
        <time>2019-08-16T12:12:38Z</time>
      </trkpt>
      <trkpt lat="48.01318" lon="6.74149">
        <ele>462.129608</ele>
        <time>2019-08-16T12:12:39Z</time>
      </trkpt>
      <trkpt lat="48.01319" lon="6.74152">
        <ele>462.229858</ele>
        <time>2019-08-16T12:12:40Z</time>
      </trkpt>
      <trkpt lat="48.0132" lon="6.74154">
        <ele>462.346161</ele>
        <time>2019-08-16T12:12:41Z</time>
      </trkpt>
      <trkpt lat="48.0132" lon="6.74156">
        <ele>462.472382</ele>
        <time>2019-08-16T12:12:42Z</time>
      </trkpt>
      <trkpt lat="48.0132" lon="6.74159">
        <ele>462.599701</ele>
        <time>2019-08-16T12:12:43Z</time>
      </trkpt>
      <trkpt lat="48.0132" lon="6.74161">
        <ele>462.725311</ele>
        <time>2019-08-16T12:12:44Z</time>
      </trkpt>
      <trkpt lat="48.0132" lon="6.74164">
        <ele>462.847076</ele>
        <time>2019-08-16T12:12:45Z</time>
      </trkpt>
      <trkpt lat="48.0132" lon="6.74166">
        <ele>462.970947</ele>
        <time>2019-08-16T12:12:46Z</time>
      </trkpt>
      <trkpt lat="48.0132" lon="6.7417">
        <ele>463.102142</ele>
        <time>2019-08-16T12:12:47Z</time>
      </trkpt>
      <trkpt lat="48.0132" lon="6.74173">
        <ele>463.245331</ele>
        <time>2019-08-16T12:12:48Z</time>
      </trkpt>
      <trkpt lat="48.0132" lon="6.74176">
        <ele>463.398193</ele>
        <time>2019-08-16T12:12:49Z</time>
      </trkpt>
      <trkpt lat="48.0132" lon="6.74179">
        <ele>463.556854</ele>
        <time>2019-08-16T12:12:50Z</time>
      </trkpt>
      <trkpt lat="48.0132" lon="6.74182">
        <ele>463.810883</ele>
        <time>2019-08-16T12:12:51Z</time>
      </trkpt>
      <trkpt lat="48.0132" lon="6.74186">
        <ele>463.991302</ele>
        <time>2019-08-16T12:12:52Z</time>
      </trkpt>
      <trkpt lat="48.01321" lon="6.74189">
        <ele>464.177826</ele>
        <time>2019-08-16T12:12:53Z</time>
      </trkpt>
      <trkpt lat="48.01321" lon="6.74192">
        <ele>464.367218</ele>
        <time>2019-08-16T12:12:54Z</time>
      </trkpt>
      <trkpt lat="48.01321" lon="6.74195">
        <ele>464.556976</ele>
        <time>2019-08-16T12:12:55Z</time>
      </trkpt>
      <trkpt lat="48.01321" lon="6.74198">
        <ele>464.744049</ele>
        <time>2019-08-16T12:12:56Z</time>
      </trkpt>
      <trkpt lat="48.01322" lon="6.74201">
        <ele>464.923615</ele>
        <time>2019-08-16T12:12:57Z</time>
      </trkpt>
      <trkpt lat="48.01323" lon="6.74205">
        <ele>465.096405</ele>
        <time>2019-08-16T12:12:58Z</time>
      </trkpt>
      <trkpt lat="48.01323" lon="6.74208">
        <ele>465.266479</ele>
        <time>2019-08-16T12:12:59Z</time>
      </trkpt>
      <trkpt lat="48.01323" lon="6.74211">
        <ele>465.434235</ele>
        <time>2019-08-16T12:13:00Z</time>
      </trkpt>
      <trkpt lat="48.01323" lon="6.74214">
        <ele>465.595947</ele>
        <time>2019-08-16T12:13:01Z</time>
      </trkpt>
      <trkpt lat="48.01323" lon="6.74217">
        <ele>465.819489</ele>
        <time>2019-08-16T12:13:02Z</time>
      </trkpt>
      <trkpt lat="48.01323" lon="6.7422">
        <ele>465.960297</ele>
        <time>2019-08-16T12:13:03Z</time>
      </trkpt>
      <trkpt lat="48.01323" lon="6.74223">
        <ele>466.097321</ele>
        <time>2019-08-16T12:13:04Z</time>
      </trkpt>
      <trkpt lat="48.01323" lon="6.74226">
        <ele>466.228882</ele>
        <time>2019-08-16T12:13:05Z</time>
      </trkpt>
      <trkpt lat="48.01323" lon="6.74229">
        <ele>466.359039</ele>
        <time>2019-08-16T12:13:06Z</time>
      </trkpt>
      <trkpt lat="48.01323" lon="6.74232">
        <ele>466.489014</ele>
        <time>2019-08-16T12:13:07Z</time>
      </trkpt>
      <trkpt lat="48.01324" lon="6.74235">
        <ele>466.626007</ele>
        <time>2019-08-16T12:13:08Z</time>
      </trkpt>
      <trkpt lat="48.01323" lon="6.74238">
        <ele>466.771973</ele>
        <time>2019-08-16T12:13:09Z</time>
      </trkpt>
      <trkpt lat="48.01323" lon="6.74241">
        <ele>466.927582</ele>
        <time>2019-08-16T12:13:10Z</time>
      </trkpt>
      <trkpt lat="48.01323" lon="6.74243">
        <ele>467.087494</ele>
        <time>2019-08-16T12:13:11Z</time>
      </trkpt>
      <trkpt lat="48.01323" lon="6.74246">
        <ele>467.24881</ele>
        <time>2019-08-16T12:13:12Z</time>
      </trkpt>
      <trkpt lat="48.01323" lon="6.74248">
        <ele>467.40799</ele>
        <time>2019-08-16T12:13:13Z</time>
      </trkpt>
      <trkpt lat="48.01323" lon="6.74252">
        <ele>467.558838</ele>
        <time>2019-08-16T12:13:14Z</time>
      </trkpt>
      <trkpt lat="48.01323" lon="6.74256">
        <ele>467.695038</ele>
        <time>2019-08-16T12:13:15Z</time>
      </trkpt>
      <trkpt lat="48.01324" lon="6.74259">
        <ele>467.811188</ele>
        <time>2019-08-16T12:13:16Z</time>
      </trkpt>
      <trkpt lat="48.01324" lon="6.74263">
        <ele>467.905731</ele>
        <time>2019-08-16T12:13:17Z</time>
      </trkpt>
      <trkpt lat="48.01324" lon="6.74267">
        <ele>467.978302</ele>
        <time>2019-08-16T12:13:18Z</time>
      </trkpt>
      <trkpt lat="48.01323" lon="6.7427">
        <ele>468.006989</ele>
        <time>2019-08-16T12:13:19Z</time>
      </trkpt>
      <trkpt lat="48.01324" lon="6.74274">
        <ele>468.031372</ele>
        <time>2019-08-16T12:13:20Z</time>
      </trkpt>
      <trkpt lat="48.01324" lon="6.74278">
        <ele>468.06546</ele>
        <time>2019-08-16T12:13:21Z</time>
      </trkpt>
      <trkpt lat="48.01325" lon="6.74282">
        <ele>468.079132</ele>
        <time>2019-08-16T12:13:22Z</time>
      </trkpt>
      <trkpt lat="48.01325" lon="6.74285">
        <ele>468.079315</ele>
        <time>2019-08-16T12:13:23Z</time>
      </trkpt>
      <trkpt lat="48.01325" lon="6.74289">
        <ele>468.075562</ele>
        <time>2019-08-16T12:13:24Z</time>
      </trkpt>
      <trkpt lat="48.01326" lon="6.74293">
        <ele>468.060181</ele>
        <time>2019-08-16T12:13:25Z</time>
      </trkpt>
      <trkpt lat="48.01326" lon="6.74297">
        <ele>468.039917</ele>
        <time>2019-08-16T12:13:26Z</time>
      </trkpt>
      <trkpt lat="48.01326" lon="6.74301">
        <ele>468.019684</ele>
        <time>2019-08-16T12:13:27Z</time>
      </trkpt>
      <trkpt lat="48.01326" lon="6.74304">
        <ele>468.003143</ele>
        <time>2019-08-16T12:13:28Z</time>
      </trkpt>
      <trkpt lat="48.01327" lon="6.74308">
        <ele>467.991913</ele>
        <time>2019-08-16T12:13:29Z</time>
      </trkpt>
      <trkpt lat="48.01327" lon="6.74312">
        <ele>467.991821</ele>
        <time>2019-08-16T12:13:30Z</time>
      </trkpt>
      <trkpt lat="48.01327" lon="6.74316">
        <ele>467.99527</ele>
        <time>2019-08-16T12:13:31Z</time>
      </trkpt>
      <trkpt lat="48.01326" lon="6.74319">
        <ele>468.014679</ele>
        <time>2019-08-16T12:13:32Z</time>
      </trkpt>
      <trkpt lat="48.01326" lon="6.74322">
        <ele>468.055756</ele>
        <time>2019-08-16T12:13:33Z</time>
      </trkpt>
      <trkpt lat="48.01325" lon="6.74325">
        <ele>468.10733</ele>
        <time>2019-08-16T12:13:34Z</time>
      </trkpt>
      <trkpt lat="48.01325" lon="6.74327">
        <ele>468.168549</ele>
        <time>2019-08-16T12:13:35Z</time>
      </trkpt>
      <trkpt lat="48.01325" lon="6.7433">
        <ele>468.240387</ele>
        <time>2019-08-16T12:13:36Z</time>
      </trkpt>
      <trkpt lat="48.01325" lon="6.74333">
        <ele>468.329834</ele>
        <time>2019-08-16T12:13:37Z</time>
      </trkpt>
      <trkpt lat="48.01325" lon="6.74337">
        <ele>468.433258</ele>
        <time>2019-08-16T12:13:38Z</time>
      </trkpt>
      <trkpt lat="48.01325" lon="6.7434">
        <ele>468.539215</ele>
        <time>2019-08-16T12:13:39Z</time>
      </trkpt>
      <trkpt lat="48.01325" lon="6.74344">
        <ele>468.638458</ele>
        <time>2019-08-16T12:13:40Z</time>
      </trkpt>
      <trkpt lat="48.01326" lon="6.74347">
        <ele>468.778351</ele>
        <time>2019-08-16T12:13:41Z</time>
      </trkpt>
      <trkpt lat="48.01326" lon="6.74351">
        <ele>468.874664</ele>
        <time>2019-08-16T12:13:42Z</time>
      </trkpt>
      <trkpt lat="48.01326" lon="6.74354">
        <ele>468.975586</ele>
        <time>2019-08-16T12:13:43Z</time>
      </trkpt>
      <trkpt lat="48.01326" lon="6.74358">
        <ele>469.077301</ele>
        <time>2019-08-16T12:13:44Z</time>
      </trkpt>
      <trkpt lat="48.01326" lon="6.74362">
        <ele>469.181152</ele>
        <time>2019-08-16T12:13:45Z</time>
      </trkpt>
      <trkpt lat="48.01326" lon="6.74366">
        <ele>469.283447</ele>
        <time>2019-08-16T12:13:46Z</time>
      </trkpt>
      <trkpt lat="48.01326" lon="6.7437">
        <ele>469.425629</ele>
        <time>2019-08-16T12:13:47Z</time>
      </trkpt>
      <trkpt lat="48.01326" lon="6.74374">
        <ele>469.505981</ele>
        <time>2019-08-16T12:13:48Z</time>
      </trkpt>
      <trkpt lat="48.01326" lon="6.74378">
        <ele>469.581635</ele>
        <time>2019-08-16T12:13:49Z</time>
      </trkpt>
      <trkpt lat="48.01326" lon="6.74382">
        <ele>469.65506</ele>
        <time>2019-08-16T12:13:50Z</time>
      </trkpt>
      <trkpt lat="48.01326" lon="6.74386">
        <ele>469.728668</ele>
        <time>2019-08-16T12:13:51Z</time>
      </trkpt>
      <trkpt lat="48.01325" lon="6.7439">
        <ele>469.795135</ele>
        <time>2019-08-16T12:13:52Z</time>
      </trkpt>
      <trkpt lat="48.01324" lon="6.74394">
        <ele>469.852783</ele>
        <time>2019-08-16T12:13:53Z</time>
      </trkpt>
      <trkpt lat="48.01323" lon="6.74398">
        <ele>469.898346</ele>
        <time>2019-08-16T12:13:54Z</time>
      </trkpt>
      <trkpt lat="48.01322" lon="6.74402">
        <ele>469.936035</ele>
        <time>2019-08-16T12:13:55Z</time>
      </trkpt>
      <trkpt lat="48.01321" lon="6.74406">
        <ele>469.96701</ele>
        <time>2019-08-16T12:13:56Z</time>
      </trkpt>
      <trkpt lat="48.0132" lon="6.7441">
        <ele>469.992767</ele>
        <time>2019-08-16T12:13:57Z</time>
      </trkpt>
      <trkpt lat="48.01318" lon="6.74413">
        <ele>470.017944</ele>
        <time>2019-08-16T12:13:58Z</time>
      </trkpt>
      <trkpt lat="48.01317" lon="6.74416">
        <ele>470.043701</ele>
        <time>2019-08-16T12:13:59Z</time>
      </trkpt>
      <trkpt lat="48.01315" lon="6.74419">
        <ele>470.06665</ele>
        <time>2019-08-16T12:14:00Z</time>
      </trkpt>
      <trkpt lat="48.01313" lon="6.74423">
        <ele>470.08847</ele>
        <time>2019-08-16T12:14:01Z</time>
      </trkpt>
      <trkpt lat="48.01312" lon="6.74427">
        <ele>470.102173</ele>
        <time>2019-08-16T12:14:02Z</time>
      </trkpt>
      <trkpt lat="48.01311" lon="6.74431">
        <ele>470.121552</ele>
        <time>2019-08-16T12:14:03Z</time>
      </trkpt>
      <trkpt lat="48.0131" lon="6.74434">
        <ele>470.147125</ele>
        <time>2019-08-16T12:14:04Z</time>
      </trkpt>
      <trkpt lat="48.0131" lon="6.74438">
        <ele>470.171539</ele>
        <time>2019-08-16T12:14:05Z</time>
      </trkpt>
      <trkpt lat="48.01309" lon="6.74442">
        <ele>470.190063</ele>
        <time>2019-08-16T12:14:06Z</time>
      </trkpt>
      <trkpt lat="48.01308" lon="6.74447">
        <ele>470.202301</ele>
        <time>2019-08-16T12:14:07Z</time>
      </trkpt>
      <trkpt lat="48.01308" lon="6.74451">
        <ele>470.21579</ele>
        <time>2019-08-16T12:14:08Z</time>
      </trkpt>
      <trkpt lat="48.01308" lon="6.74456">
        <ele>470.233429</ele>
        <time>2019-08-16T12:14:09Z</time>
      </trkpt>
      <trkpt lat="48.01308" lon="6.7446">
        <ele>470.253296</ele>
        <time>2019-08-16T12:14:10Z</time>
      </trkpt>
      <trkpt lat="48.01308" lon="6.74465">
        <ele>470.268646</ele>
        <time>2019-08-16T12:14:11Z</time>
      </trkpt>
      <trkpt lat="48.01308" lon="6.7447">
        <ele>470.277679</ele>
        <time>2019-08-16T12:14:12Z</time>
      </trkpt>
      <trkpt lat="48.01308" lon="6.74475">
        <ele>470.282593</ele>
        <time>2019-08-16T12:14:13Z</time>
      </trkpt>
      <trkpt lat="48.01309" lon="6.7448">
        <ele>470.292511</ele>
        <time>2019-08-16T12:14:14Z</time>
      </trkpt>
      <trkpt lat="48.01309" lon="6.74486">
        <ele>470.309296</ele>
        <time>2019-08-16T12:14:15Z</time>
      </trkpt>
      <trkpt lat="48.0131" lon="6.74491">
        <ele>470.333344</ele>
        <time>2019-08-16T12:14:16Z</time>
      </trkpt>
      <trkpt lat="48.0131" lon="6.74496">
        <ele>470.361725</ele>
        <time>2019-08-16T12:14:17Z</time>
      </trkpt>
      <trkpt lat="48.0131" lon="6.74501">
        <ele>470.395721</ele>
        <time>2019-08-16T12:14:18Z</time>
      </trkpt>
      <trkpt lat="48.0131" lon="6.74506">
        <ele>470.413605</ele>
        <time>2019-08-16T12:14:19Z</time>
      </trkpt>
      <trkpt lat="48.0131" lon="6.74511">
        <ele>470.451447</ele>
        <time>2019-08-16T12:14:20Z</time>
      </trkpt>
      <trkpt lat="48.01309" lon="6.74516">
        <ele>470.492096</ele>
        <time>2019-08-16T12:14:21Z</time>
      </trkpt>
      <trkpt lat="48.01309" lon="6.74521">
        <ele>470.539185</ele>
        <time>2019-08-16T12:14:22Z</time>
      </trkpt>
      <trkpt lat="48.01309" lon="6.74526">
        <ele>470.598663</ele>
        <time>2019-08-16T12:14:23Z</time>
      </trkpt>
      <trkpt lat="48.01309" lon="6.74532">
        <ele>470.6698</ele>
        <time>2019-08-16T12:14:24Z</time>
      </trkpt>
      <trkpt lat="48.01308" lon="6.74537">
        <ele>470.750488</ele>
        <time>2019-08-16T12:14:25Z</time>
      </trkpt>
      <trkpt lat="48.01308" lon="6.74542">
        <ele>470.834747</ele>
        <time>2019-08-16T12:14:26Z</time>
      </trkpt>
      <trkpt lat="48.01308" lon="6.74547">
        <ele>470.921722</ele>
        <time>2019-08-16T12:14:27Z</time>
      </trkpt>
      <trkpt lat="48.01307" lon="6.74552">
        <ele>471.010895</ele>
        <time>2019-08-16T12:14:28Z</time>
      </trkpt>
      <trkpt lat="48.01307" lon="6.74557">
        <ele>471.10141</ele>
        <time>2019-08-16T12:14:29Z</time>
      </trkpt>
      <trkpt lat="48.01306" lon="6.74562">
        <ele>471.190155</ele>
        <time>2019-08-16T12:14:30Z</time>
      </trkpt>
      <trkpt lat="48.01305" lon="6.74567">
        <ele>471.273346</ele>
        <time>2019-08-16T12:14:31Z</time>
      </trkpt>
      <trkpt lat="48.01304" lon="6.74572">
        <ele>471.348846</ele>
        <time>2019-08-16T12:14:32Z</time>
      </trkpt>
      <trkpt lat="48.01302" lon="6.74576">
        <ele>471.417938</ele>
        <time>2019-08-16T12:14:33Z</time>
      </trkpt>
      <trkpt lat="48.013" lon="6.74581">
        <ele>471.483063</ele>
        <time>2019-08-16T12:14:34Z</time>
      </trkpt>
      <trkpt lat="48.01299" lon="6.74585">
        <ele>471.549316</ele>
        <time>2019-08-16T12:14:35Z</time>
      </trkpt>
      <trkpt lat="48.01297" lon="6.74589">
        <ele>471.617462</ele>
        <time>2019-08-16T12:14:36Z</time>
      </trkpt>
      <trkpt lat="48.01296" lon="6.74593">
        <ele>471.728119</ele>
        <time>2019-08-16T12:14:37Z</time>
      </trkpt>
      <trkpt lat="48.01294" lon="6.74597">
        <ele>471.806763</ele>
        <time>2019-08-16T12:14:38Z</time>
      </trkpt>
      <trkpt lat="48.01292" lon="6.746">
        <ele>471.891602</ele>
        <time>2019-08-16T12:14:39Z</time>
      </trkpt>
      <trkpt lat="48.01291" lon="6.74603">
        <ele>471.984467</ele>
        <time>2019-08-16T12:14:40Z</time>
      </trkpt>
      <trkpt lat="48.01289" lon="6.74606">
        <ele>472.088043</ele>
        <time>2019-08-16T12:14:41Z</time>
      </trkpt>
      <trkpt lat="48.01288" lon="6.74609">
        <ele>472.20694</ele>
        <time>2019-08-16T12:14:42Z</time>
      </trkpt>
      <trkpt lat="48.01286" lon="6.74611">
        <ele>472.343231</ele>
        <time>2019-08-16T12:14:43Z</time>
      </trkpt>
      <trkpt lat="48.01284" lon="6.74614">
        <ele>472.49942</ele>
        <time>2019-08-16T12:14:44Z</time>
      </trkpt>
      <trkpt lat="48.01283" lon="6.74617">
        <ele>472.759918</ele>
        <time>2019-08-16T12:14:45Z</time>
      </trkpt>
      <trkpt lat="48.01282" lon="6.74619">
        <ele>472.952789</ele>
        <time>2019-08-16T12:14:46Z</time>
      </trkpt>
      <trkpt lat="48.01281" lon="6.74622">
        <ele>473.158203</ele>
        <time>2019-08-16T12:14:47Z</time>
      </trkpt>
      <trkpt lat="48.0128" lon="6.74625">
        <ele>473.479126</ele>
        <time>2019-08-16T12:14:48Z</time>
      </trkpt>
      <trkpt lat="48.01278" lon="6.74628">
        <ele>473.683014</ele>
        <time>2019-08-16T12:14:49Z</time>
      </trkpt>
      <trkpt lat="48.01277" lon="6.74631">
        <ele>473.873444</ele>
        <time>2019-08-16T12:14:50Z</time>
      </trkpt>
      <trkpt lat="48.01276" lon="6.74633">
        <ele>474.056061</ele>
        <time>2019-08-16T12:14:51Z</time>
      </trkpt>
      <trkpt lat="48.01275" lon="6.74636">
        <ele>474.330444</ele>
        <time>2019-08-16T12:14:52Z</time>
      </trkpt>
      <trkpt lat="48.01273" lon="6.74638">
        <ele>474.521362</ele>
        <time>2019-08-16T12:14:53Z</time>
      </trkpt>
      <trkpt lat="48.01271" lon="6.7464">
        <ele>474.719116</ele>
        <time>2019-08-16T12:14:54Z</time>
      </trkpt>
      <trkpt lat="48.0127" lon="6.74643">
        <ele>475.011322</ele>
        <time>2019-08-16T12:14:55Z</time>
      </trkpt>
      <trkpt lat="48.01269" lon="6.74645">
        <ele>475.20108</ele>
        <time>2019-08-16T12:14:56Z</time>
      </trkpt>
      <trkpt lat="48.01268" lon="6.74648">
        <ele>475.383545</ele>
        <time>2019-08-16T12:14:57Z</time>
      </trkpt>
      <trkpt lat="48.01267" lon="6.74651">
        <ele>475.562164</ele>
        <time>2019-08-16T12:14:58Z</time>
      </trkpt>
      <trkpt lat="48.01265" lon="6.74654">
        <ele>475.817841</ele>
        <time>2019-08-16T12:14:59Z</time>
      </trkpt>
      <trkpt lat="48.01264" lon="6.74656">
        <ele>475.989014</ele>
        <time>2019-08-16T12:15:00Z</time>
      </trkpt>
      <trkpt lat="48.01263" lon="6.74659">
        <ele>476.165985</ele>
        <time>2019-08-16T12:15:01Z</time>
      </trkpt>
      <trkpt lat="48.01262" lon="6.74662">
        <ele>476.350494</ele>
        <time>2019-08-16T12:15:02Z</time>
      </trkpt>
      <trkpt lat="48.01261" lon="6.74665">
        <ele>476.536652</ele>
        <time>2019-08-16T12:15:03Z</time>
      </trkpt>
      <trkpt lat="48.01261" lon="6.74668">
        <ele>476.714752</ele>
        <time>2019-08-16T12:15:04Z</time>
      </trkpt>
      <trkpt lat="48.0126" lon="6.74671">
        <ele>476.879608</ele>
        <time>2019-08-16T12:15:05Z</time>
      </trkpt>
      <trkpt lat="48.01259" lon="6.74674">
        <ele>477.037384</ele>
        <time>2019-08-16T12:15:06Z</time>
      </trkpt>
      <trkpt lat="48.01258" lon="6.74677">
        <ele>477.195587</ele>
        <time>2019-08-16T12:15:07Z</time>
      </trkpt>
      <trkpt lat="48.01257" lon="6.7468">
        <ele>477.359497</ele>
        <time>2019-08-16T12:15:08Z</time>
      </trkpt>
      <trkpt lat="48.01256" lon="6.74683">
        <ele>477.5289</ele>
        <time>2019-08-16T12:15:09Z</time>
      </trkpt>
      <trkpt lat="48.01255" lon="6.74686">
        <ele>477.695923</ele>
        <time>2019-08-16T12:15:10Z</time>
      </trkpt>
      <trkpt lat="48.01255" lon="6.74689">
        <ele>477.860718</ele>
        <time>2019-08-16T12:15:11Z</time>
      </trkpt>
      <trkpt lat="48.01254" lon="6.74693">
        <ele>478.022217</ele>
        <time>2019-08-16T12:15:12Z</time>
      </trkpt>
      <trkpt lat="48.01253" lon="6.74696">
        <ele>478.187164</ele>
        <time>2019-08-16T12:15:13Z</time>
      </trkpt>
      <trkpt lat="48.01252" lon="6.74698">
        <ele>478.350861</ele>
        <time>2019-08-16T12:15:14Z</time>
      </trkpt>
      <trkpt lat="48.01251" lon="6.74701">
        <ele>478.509521</ele>
        <time>2019-08-16T12:15:15Z</time>
      </trkpt>
      <trkpt lat="48.0125" lon="6.74704">
        <ele>478.661591</ele>
        <time>2019-08-16T12:15:16Z</time>
      </trkpt>
      <trkpt lat="48.01249" lon="6.74707">
        <ele>478.884003</ele>
        <time>2019-08-16T12:15:17Z</time>
      </trkpt>
      <trkpt lat="48.01248" lon="6.7471">
        <ele>479.036591</ele>
        <time>2019-08-16T12:15:18Z</time>
      </trkpt>
      <trkpt lat="48.01247" lon="6.74712">
        <ele>479.114716</ele>
        <time>2019-08-16T12:15:19Z</time>
      </trkpt>
      <trkpt lat="48.01246" lon="6.74715">
        <ele>479.195648</ele>
        <time>2019-08-16T12:15:20Z</time>
      </trkpt>
      <trkpt lat="48.01245" lon="6.74718">
        <ele>479.364471</ele>
        <time>2019-08-16T12:15:21Z</time>
      </trkpt>
      <trkpt lat="48.01243" lon="6.74721">
        <ele>479.544403</ele>
        <time>2019-08-16T12:15:22Z</time>
      </trkpt>
      <trkpt lat="48.01242" lon="6.74724">
        <ele>479.72995</ele>
        <time>2019-08-16T12:15:23Z</time>
      </trkpt>
      <trkpt lat="48.01242" lon="6.74727">
        <ele>479.914642</ele>
        <time>2019-08-16T12:15:24Z</time>
      </trkpt>
      <trkpt lat="48.01241" lon="6.7473">
        <ele>480.093018</ele>
        <time>2019-08-16T12:15:25Z</time>
      </trkpt>
      <trkpt lat="48.0124" lon="6.74733">
        <ele>480.266479</ele>
        <time>2019-08-16T12:15:26Z</time>
      </trkpt>
      <trkpt lat="48.01239" lon="6.74735">
        <ele>480.440796</ele>
        <time>2019-08-16T12:15:27Z</time>
      </trkpt>
      <trkpt lat="48.01238" lon="6.74738">
        <ele>480.620697</ele>
        <time>2019-08-16T12:15:28Z</time>
      </trkpt>
      <trkpt lat="48.01236" lon="6.74741">
        <ele>480.806671</ele>
        <time>2019-08-16T12:15:29Z</time>
      </trkpt>
      <trkpt lat="48.01235" lon="6.74744">
        <ele>480.996185</ele>
        <time>2019-08-16T12:15:30Z</time>
      </trkpt>
      <trkpt lat="48.01235" lon="6.74748">
        <ele>481.182098</ele>
        <time>2019-08-16T12:15:31Z</time>
      </trkpt>
      <trkpt lat="48.01234" lon="6.74751">
        <ele>481.364288</ele>
        <time>2019-08-16T12:15:32Z</time>
      </trkpt>
      <trkpt lat="48.01233" lon="6.74754">
        <ele>481.53891</ele>
        <time>2019-08-16T12:15:33Z</time>
      </trkpt>
      <trkpt lat="48.01232" lon="6.74757">
        <ele>481.705658</ele>
        <time>2019-08-16T12:15:34Z</time>
      </trkpt>
      <trkpt lat="48.01231" lon="6.7476">
        <ele>481.860992</ele>
        <time>2019-08-16T12:15:35Z</time>
      </trkpt>
      <trkpt lat="48.0123" lon="6.74763">
        <ele>482.00296</ele>
        <time>2019-08-16T12:15:36Z</time>
      </trkpt>
      <trkpt lat="48.01229" lon="6.74767">
        <ele>482.194977</ele>
        <time>2019-08-16T12:15:37Z</time>
      </trkpt>
      <trkpt lat="48.01228" lon="6.7477">
        <ele>482.312164</ele>
        <time>2019-08-16T12:15:38Z</time>
      </trkpt>
      <trkpt lat="48.01227" lon="6.74773">
        <ele>482.424316</ele>
        <time>2019-08-16T12:15:39Z</time>
      </trkpt>
      <trkpt lat="48.01226" lon="6.74777">
        <ele>482.53418</ele>
        <time>2019-08-16T12:15:40Z</time>
      </trkpt>
      <trkpt lat="48.01225" lon="6.7478">
        <ele>482.646729</ele>
        <time>2019-08-16T12:15:41Z</time>
      </trkpt>
      <trkpt lat="48.01225" lon="6.74783">
        <ele>482.75827</ele>
        <time>2019-08-16T12:15:42Z</time>
      </trkpt>
      <trkpt lat="48.01224" lon="6.74786">
        <ele>482.867157</ele>
        <time>2019-08-16T12:15:43Z</time>
      </trkpt>
      <trkpt lat="48.01223" lon="6.74789">
        <ele>482.969116</ele>
        <time>2019-08-16T12:15:44Z</time>
      </trkpt>
      <trkpt lat="48.01222" lon="6.74791">
        <ele>483.071198</ele>
        <time>2019-08-16T12:15:45Z</time>
      </trkpt>
      <trkpt lat="48.01222" lon="6.74793">
        <ele>483.180084</ele>
        <time>2019-08-16T12:15:46Z</time>
      </trkpt>
      <trkpt lat="48.01221" lon="6.74796">
        <ele>483.303467</ele>
        <time>2019-08-16T12:15:47Z</time>
      </trkpt>
      <trkpt lat="48.01221" lon="6.74798">
        <ele>483.439789</ele>
        <time>2019-08-16T12:15:48Z</time>
      </trkpt>
      <trkpt lat="48.0122" lon="6.74801">
        <ele>483.587158</ele>
        <time>2019-08-16T12:15:49Z</time>
      </trkpt>
      <trkpt lat="48.0122" lon="6.74803">
        <ele>483.746307</ele>
        <time>2019-08-16T12:15:50Z</time>
      </trkpt>
      <trkpt lat="48.0122" lon="6.74806">
        <ele>483.923859</ele>
        <time>2019-08-16T12:15:51Z</time>
      </trkpt>
      <trkpt lat="48.0122" lon="6.74808">
        <ele>484.118378</ele>
        <time>2019-08-16T12:15:52Z</time>
      </trkpt>
      <trkpt lat="48.0122" lon="6.74811">
        <ele>484.423492</ele>
        <time>2019-08-16T12:15:53Z</time>
      </trkpt>
      <trkpt lat="48.01219" lon="6.74814">
        <ele>484.619385</ele>
        <time>2019-08-16T12:15:54Z</time>
      </trkpt>
      <trkpt lat="48.01219" lon="6.74817">
        <ele>484.811523</ele>
        <time>2019-08-16T12:15:55Z</time>
      </trkpt>
      <trkpt lat="48.0122" lon="6.74819">
        <ele>485.002441</ele>
        <time>2019-08-16T12:15:56Z</time>
      </trkpt>
      <trkpt lat="48.0122" lon="6.74822">
        <ele>485.193359</ele>
        <time>2019-08-16T12:15:57Z</time>
      </trkpt>
      <trkpt lat="48.0122" lon="6.74824">
        <ele>485.37442</ele>
        <time>2019-08-16T12:15:58Z</time>
      </trkpt>
      <trkpt lat="48.0122" lon="6.74827">
        <ele>485.55014</ele>
        <time>2019-08-16T12:15:59Z</time>
      </trkpt>
      <trkpt lat="48.0122" lon="6.74829">
        <ele>485.723633</ele>
        <time>2019-08-16T12:16:00Z</time>
      </trkpt>
      <trkpt lat="48.01221" lon="6.74832">
        <ele>485.89856</ele>
        <time>2019-08-16T12:16:01Z</time>
      </trkpt>
      <trkpt lat="48.01221" lon="6.74834">
        <ele>486.076019</ele>
        <time>2019-08-16T12:16:02Z</time>
      </trkpt>
      <trkpt lat="48.01221" lon="6.74836">
        <ele>486.263702</ele>
        <time>2019-08-16T12:16:03Z</time>
      </trkpt>
      <trkpt lat="48.01221" lon="6.74838">
        <ele>486.470306</ele>
        <time>2019-08-16T12:16:04Z</time>
      </trkpt>
      <trkpt lat="48.01221" lon="6.7484">
        <ele>486.695892</ele>
        <time>2019-08-16T12:16:05Z</time>
      </trkpt>
      <trkpt lat="48.01222" lon="6.74843">
        <ele>486.937469</ele>
        <time>2019-08-16T12:16:06Z</time>
      </trkpt>
      <trkpt lat="48.01222" lon="6.74845">
        <ele>487.1875</ele>
        <time>2019-08-16T12:16:07Z</time>
      </trkpt>
      <trkpt lat="48.01222" lon="6.74847">
        <ele>487.438507</ele>
        <time>2019-08-16T12:16:08Z</time>
      </trkpt>
      <trkpt lat="48.01222" lon="6.7485">
        <ele>487.682495</ele>
        <time>2019-08-16T12:16:09Z</time>
      </trkpt>
      <trkpt lat="48.01222" lon="6.74853">
        <ele>487.911255</ele>
        <time>2019-08-16T12:16:10Z</time>
      </trkpt>
      <trkpt lat="48.01221" lon="6.74855">
        <ele>488.120636</ele>
        <time>2019-08-16T12:16:11Z</time>
      </trkpt>
      <trkpt lat="48.0122" lon="6.74858">
        <ele>488.31543</ele>
        <time>2019-08-16T12:16:12Z</time>
      </trkpt>
      <trkpt lat="48.0122" lon="6.74861">
        <ele>488.608887</ele>
        <time>2019-08-16T12:16:13Z</time>
      </trkpt>
      <trkpt lat="48.0122" lon="6.74864">
        <ele>488.812714</ele>
        <time>2019-08-16T12:16:14Z</time>
      </trkpt>
      <trkpt lat="48.01219" lon="6.74866">
        <ele>489.014923</ele>
        <time>2019-08-16T12:16:15Z</time>
      </trkpt>
      <trkpt lat="48.01219" lon="6.74869">
        <ele>489.301483</ele>
        <time>2019-08-16T12:16:16Z</time>
      </trkpt>
      <trkpt lat="48.01219" lon="6.74872">
        <ele>489.487579</ele>
        <time>2019-08-16T12:16:17Z</time>
      </trkpt>
      <trkpt lat="48.01219" lon="6.74874">
        <ele>489.673828</ele>
        <time>2019-08-16T12:16:18Z</time>
      </trkpt>
      <trkpt lat="48.01219" lon="6.74877">
        <ele>489.863983</ele>
        <time>2019-08-16T12:16:19Z</time>
      </trkpt>
      <trkpt lat="48.01218" lon="6.74879">
        <ele>489.960236</ele>
        <time>2019-08-16T12:16:20Z</time>
      </trkpt>
      <trkpt lat="48.01218" lon="6.74882">
        <ele>490.057159</ele>
        <time>2019-08-16T12:16:21Z</time>
      </trkpt>
      <trkpt lat="48.01218" lon="6.74884">
        <ele>490.253876</ele>
        <time>2019-08-16T12:16:22Z</time>
      </trkpt>
      <trkpt lat="48.01217" lon="6.74887">
        <ele>490.454102</ele>
        <time>2019-08-16T12:16:23Z</time>
      </trkpt>
      <trkpt lat="48.01217" lon="6.74889">
        <ele>490.658051</ele>
        <time>2019-08-16T12:16:24Z</time>
      </trkpt>
      <trkpt lat="48.01217" lon="6.74892">
        <ele>490.865112</ele>
        <time>2019-08-16T12:16:25Z</time>
      </trkpt>
      <trkpt lat="48.01216" lon="6.74894">
        <ele>491.071075</ele>
        <time>2019-08-16T12:16:26Z</time>
      </trkpt>
      <trkpt lat="48.01216" lon="6.74897">
        <ele>491.274902</ele>
        <time>2019-08-16T12:16:27Z</time>
      </trkpt>
      <trkpt lat="48.01216" lon="6.74899">
        <ele>491.471802</ele>
        <time>2019-08-16T12:16:28Z</time>
      </trkpt>
      <trkpt lat="48.01216" lon="6.74902">
        <ele>491.659821</ele>
        <time>2019-08-16T12:16:29Z</time>
      </trkpt>
      <trkpt lat="48.01216" lon="6.74905">
        <ele>491.92984</ele>
        <time>2019-08-16T12:16:30Z</time>
      </trkpt>
      <trkpt lat="48.01216" lon="6.74907">
        <ele>492.105957</ele>
        <time>2019-08-16T12:16:31Z</time>
      </trkpt>
      <trkpt lat="48.01216" lon="6.7491">
        <ele>492.280914</ele>
        <time>2019-08-16T12:16:32Z</time>
      </trkpt>
      <trkpt lat="48.01215" lon="6.74912">
        <ele>492.453949</ele>
        <time>2019-08-16T12:16:33Z</time>
      </trkpt>
      <trkpt lat="48.01215" lon="6.74915">
        <ele>492.629791</ele>
        <time>2019-08-16T12:16:34Z</time>
      </trkpt>
      <trkpt lat="48.01215" lon="6.74918">
        <ele>492.810455</ele>
        <time>2019-08-16T12:16:35Z</time>
      </trkpt>
      <trkpt lat="48.01215" lon="6.74921">
        <ele>492.994537</ele>
        <time>2019-08-16T12:16:36Z</time>
      </trkpt>
      <trkpt lat="48.01215" lon="6.74923">
        <ele>493.181671</ele>
        <time>2019-08-16T12:16:37Z</time>
      </trkpt>
      <trkpt lat="48.01214" lon="6.74926">
        <ele>493.367889</ele>
        <time>2019-08-16T12:16:38Z</time>
      </trkpt>
      <trkpt lat="48.01214" lon="6.74929">
        <ele>493.554352</ele>
        <time>2019-08-16T12:16:39Z</time>
      </trkpt>
      <trkpt lat="48.01214" lon="6.74931">
        <ele>493.736816</ele>
        <time>2019-08-16T12:16:40Z</time>
      </trkpt>
      <trkpt lat="48.01214" lon="6.74934">
        <ele>493.914398</ele>
        <time>2019-08-16T12:16:41Z</time>
      </trkpt>
      <trkpt lat="48.01214" lon="6.74936">
        <ele>494.168793</ele>
        <time>2019-08-16T12:16:42Z</time>
      </trkpt>
      <trkpt lat="48.01213" lon="6.7494">
        <ele>494.328217</ele>
        <time>2019-08-16T12:16:43Z</time>
      </trkpt>
      <trkpt lat="48.01212" lon="6.74943">
        <ele>494.473389</ele>
        <time>2019-08-16T12:16:44Z</time>
      </trkpt>
      <trkpt lat="48.01212" lon="6.74947">
        <ele>494.59903</ele>
        <time>2019-08-16T12:16:45Z</time>
      </trkpt>
      <trkpt lat="48.01211" lon="6.7495">
        <ele>494.702393</ele>
        <time>2019-08-16T12:16:46Z</time>
      </trkpt>
      <trkpt lat="48.0121" lon="6.74954">
        <ele>494.785645</ele>
        <time>2019-08-16T12:16:47Z</time>
      </trkpt>
      <trkpt lat="48.01209" lon="6.74958">
        <ele>494.852051</ele>
        <time>2019-08-16T12:16:48Z</time>
      </trkpt>
      <trkpt lat="48.01208" lon="6.74962">
        <ele>494.905182</ele>
        <time>2019-08-16T12:16:49Z</time>
      </trkpt>
      <trkpt lat="48.01207" lon="6.74966">
        <ele>494.944</ele>
        <time>2019-08-16T12:16:50Z</time>
      </trkpt>
      <trkpt lat="48.01206" lon="6.7497">
        <ele>494.967743</ele>
        <time>2019-08-16T12:16:51Z</time>
      </trkpt>
      <trkpt lat="48.01205" lon="6.74974">
        <ele>494.974396</ele>
        <time>2019-08-16T12:16:52Z</time>
      </trkpt>
      <trkpt lat="48.01203" lon="6.74978">
        <ele>494.972656</ele>
        <time>2019-08-16T12:16:53Z</time>
      </trkpt>
      <trkpt lat="48.01202" lon="6.74981">
        <ele>494.960602</ele>
        <time>2019-08-16T12:16:54Z</time>
      </trkpt>
      <trkpt lat="48.01201" lon="6.74985">
        <ele>494.943573</ele>
        <time>2019-08-16T12:16:55Z</time>
      </trkpt>
      <trkpt lat="48.012" lon="6.74988">
        <ele>494.92627</ele>
        <time>2019-08-16T12:16:56Z</time>
      </trkpt>
      <trkpt lat="48.01199" lon="6.74992">
        <ele>494.907745</ele>
        <time>2019-08-16T12:16:57Z</time>
      </trkpt>
      <trkpt lat="48.01197" lon="6.74995">
        <ele>494.889526</ele>
        <time>2019-08-16T12:16:58Z</time>
      </trkpt>
      <trkpt lat="48.01196" lon="6.74999">
        <ele>494.870453</ele>
        <time>2019-08-16T12:16:59Z</time>
      </trkpt>
      <trkpt lat="48.01194" lon="6.75002">
        <ele>494.870453</ele>
        <time>2019-08-16T12:17:00Z</time>
      </trkpt>
      <trkpt lat="48.01193" lon="6.75005">
        <ele>494.877411</ele>
        <time>2019-08-16T12:17:01Z</time>
      </trkpt>
      <trkpt lat="48.01191" lon="6.75009">
        <ele>494.900238</ele>
        <time>2019-08-16T12:17:02Z</time>
      </trkpt>
      <trkpt lat="48.01189" lon="6.75012">
        <ele>494.933746</ele>
        <time>2019-08-16T12:17:03Z</time>
      </trkpt>
      <trkpt lat="48.01189" lon="6.75015">
        <ele>494.969086</ele>
        <time>2019-08-16T12:17:04Z</time>
      </trkpt>
      <trkpt lat="48.01187" lon="6.75019">
        <ele>495.004059</ele>
        <time>2019-08-16T12:17:05Z</time>
      </trkpt>
      <trkpt lat="48.01186" lon="6.75023">
        <ele>495.039154</ele>
        <time>2019-08-16T12:17:06Z</time>
      </trkpt>
      <trkpt lat="48.01185" lon="6.75027">
        <ele>495.088989</ele>
        <time>2019-08-16T12:17:07Z</time>
      </trkpt>
      <trkpt lat="48.01184" lon="6.7503">
        <ele>495.112183</ele>
        <time>2019-08-16T12:17:08Z</time>
      </trkpt>
      <trkpt lat="48.01183" lon="6.75034">
        <ele>495.116669</ele>
        <time>2019-08-16T12:17:09Z</time>
      </trkpt>
      <trkpt lat="48.01181" lon="6.75038">
        <ele>495.116669</ele>
        <time>2019-08-16T12:17:10Z</time>
      </trkpt>
      <trkpt lat="48.0118" lon="6.75041">
        <ele>495.098175</ele>
        <time>2019-08-16T12:17:11Z</time>
      </trkpt>
      <trkpt lat="48.01179" lon="6.75045">
        <ele>495.08963</ele>
        <time>2019-08-16T12:17:12Z</time>
      </trkpt>
      <trkpt lat="48.01177" lon="6.75049">
        <ele>495.08963</ele>
        <time>2019-08-16T12:17:13Z</time>
      </trkpt>
      <trkpt lat="48.01176" lon="6.75053">
        <ele>495.097046</ele>
        <time>2019-08-16T12:17:14Z</time>
      </trkpt>
      <trkpt lat="48.01175" lon="6.75056">
        <ele>495.118408</ele>
        <time>2019-08-16T12:17:15Z</time>
      </trkpt>
      <trkpt lat="48.01173" lon="6.75059">
        <ele>495.154175</ele>
        <time>2019-08-16T12:17:16Z</time>
      </trkpt>
      <trkpt lat="48.01172" lon="6.75062">
        <ele>495.222778</ele>
        <time>2019-08-16T12:17:17Z</time>
      </trkpt>
      <trkpt lat="48.0117" lon="6.75065">
        <ele>495.2771</ele>
        <time>2019-08-16T12:17:18Z</time>
      </trkpt>
      <trkpt lat="48.01168" lon="6.75068">
        <ele>495.337372</ele>
        <time>2019-08-16T12:17:19Z</time>
      </trkpt>
      <trkpt lat="48.01167" lon="6.75071">
        <ele>495.402679</ele>
        <time>2019-08-16T12:17:20Z</time>
      </trkpt>
      <trkpt lat="48.01165" lon="6.75075">
        <ele>495.438263</ele>
        <time>2019-08-16T12:17:21Z</time>
      </trkpt>
      <trkpt lat="48.01164" lon="6.75078">
        <ele>495.514191</ele>
        <time>2019-08-16T12:17:22Z</time>
      </trkpt>
      <trkpt lat="48.01162" lon="6.75081">
        <ele>495.592987</ele>
        <time>2019-08-16T12:17:23Z</time>
      </trkpt>
      <trkpt lat="48.01161" lon="6.75084">
        <ele>495.702637</ele>
        <time>2019-08-16T12:17:24Z</time>
      </trkpt>
      <trkpt lat="48.0116" lon="6.75088">
        <ele>495.764008</ele>
        <time>2019-08-16T12:17:25Z</time>
      </trkpt>
      <trkpt lat="48.01158" lon="6.75092">
        <ele>495.814545</ele>
        <time>2019-08-16T12:17:26Z</time>
      </trkpt>
      <trkpt lat="48.01156" lon="6.75095">
        <ele>495.854401</ele>
        <time>2019-08-16T12:17:27Z</time>
      </trkpt>
      <trkpt lat="48.01154" lon="6.75099">
        <ele>495.880859</ele>
        <time>2019-08-16T12:17:28Z</time>
      </trkpt>
      <trkpt lat="48.01151" lon="6.75103">
        <ele>495.884979</ele>
        <time>2019-08-16T12:17:29Z</time>
      </trkpt>
      <trkpt lat="48.01149" lon="6.75107">
        <ele>495.884644</ele>
        <time>2019-08-16T12:17:30Z</time>
      </trkpt>
      <trkpt lat="48.01146" lon="6.75111">
        <ele>495.854645</ele>
        <time>2019-08-16T12:17:31Z</time>
      </trkpt>
      <trkpt lat="48.01143" lon="6.75116">
        <ele>495.825104</ele>
        <time>2019-08-16T12:17:32Z</time>
      </trkpt>
      <trkpt lat="48.0114" lon="6.7512">
        <ele>495.790894</ele>
        <time>2019-08-16T12:17:33Z</time>
      </trkpt>
      <trkpt lat="48.01136" lon="6.75125">
        <ele>495.735474</ele>
        <time>2019-08-16T12:17:34Z</time>
      </trkpt>
      <trkpt lat="48.01132" lon="6.75131">
        <ele>495.699951</ele>
        <time>2019-08-16T12:17:35Z</time>
      </trkpt>
      <trkpt lat="48.01129" lon="6.75136">
        <ele>495.66214</ele>
        <time>2019-08-16T12:17:36Z</time>
      </trkpt>
      <trkpt lat="48.01125" lon="6.75141">
        <ele>495.578156</ele>
        <time>2019-08-16T12:17:37Z</time>
      </trkpt>
      <trkpt lat="48.01121" lon="6.75147">
        <ele>495.483673</ele>
        <time>2019-08-16T12:17:38Z</time>
      </trkpt>
      <trkpt lat="48.01117" lon="6.75153">
        <ele>495.351074</ele>
        <time>2019-08-16T12:17:39Z</time>
      </trkpt>
      <trkpt lat="48.01113" lon="6.7516">
        <ele>495.180145</ele>
        <time>2019-08-16T12:17:40Z</time>
      </trkpt>
      <trkpt lat="48.01108" lon="6.75166">
        <ele>494.963287</ele>
        <time>2019-08-16T12:17:41Z</time>
      </trkpt>
      <trkpt lat="48.01104" lon="6.75173">
        <ele>494.704315</ele>
        <time>2019-08-16T12:17:42Z</time>
      </trkpt>
      <trkpt lat="48.01099" lon="6.7518">
        <ele>494.263428</ele>
        <time>2019-08-16T12:17:43Z</time>
      </trkpt>
      <trkpt lat="48.01094" lon="6.75187">
        <ele>493.962921</ele>
        <time>2019-08-16T12:17:44Z</time>
      </trkpt>
      <trkpt lat="48.01088" lon="6.75194">
        <ele>493.66626</ele>
        <time>2019-08-16T12:17:45Z</time>
      </trkpt>
      <trkpt lat="48.01082" lon="6.75199">
        <ele>493.193848</ele>
        <time>2019-08-16T12:17:46Z</time>
      </trkpt>
      <trkpt lat="48.01076" lon="6.75205">
        <ele>492.844208</ele>
        <time>2019-08-16T12:17:47Z</time>
      </trkpt>
      <trkpt lat="48.01071" lon="6.75213">
        <ele>492.4729</ele>
        <time>2019-08-16T12:17:48Z</time>
      </trkpt>
      <trkpt lat="48.01067" lon="6.75221">
        <ele>492.091095</ele>
        <time>2019-08-16T12:17:49Z</time>
      </trkpt>
      <trkpt lat="48.01063" lon="6.75228">
        <ele>491.699554</ele>
        <time>2019-08-16T12:17:50Z</time>
      </trkpt>
      <trkpt lat="48.0106" lon="6.75235">
        <ele>491.316925</ele>
        <time>2019-08-16T12:17:51Z</time>
      </trkpt>
      <trkpt lat="48.01056" lon="6.75242">
        <ele>490.838989</ele>
        <time>2019-08-16T12:17:52Z</time>
      </trkpt>
      <trkpt lat="48.01053" lon="6.75248">
        <ele>490.599121</ele>
        <time>2019-08-16T12:17:53Z</time>
      </trkpt>
      <trkpt lat="48.01048" lon="6.75254">
        <ele>490.39505</ele>
        <time>2019-08-16T12:17:54Z</time>
      </trkpt>
      <trkpt lat="48.01043" lon="6.7526">
        <ele>490.201202</ele>
        <time>2019-08-16T12:17:55Z</time>
      </trkpt>
      <trkpt lat="48.01038" lon="6.75266">
        <ele>490.007446</ele>
        <time>2019-08-16T12:17:56Z</time>
      </trkpt>
      <trkpt lat="48.01033" lon="6.75273">
        <ele>489.768799</ele>
        <time>2019-08-16T12:17:57Z</time>
      </trkpt>
      <trkpt lat="48.01029" lon="6.7528">
        <ele>489.634399</ele>
        <time>2019-08-16T12:17:58Z</time>
      </trkpt>
      <trkpt lat="48.01025" lon="6.75286">
        <ele>489.49292</ele>
        <time>2019-08-16T12:17:59Z</time>
      </trkpt>
      <trkpt lat="48.01022" lon="6.75292">
        <ele>489.32663</ele>
        <time>2019-08-16T12:18:00Z</time>
      </trkpt>
      <trkpt lat="48.01018" lon="6.75297">
        <ele>489.157806</ele>
        <time>2019-08-16T12:18:01Z</time>
      </trkpt>
      <trkpt lat="48.01014" lon="6.75302">
        <ele>489.00058</ele>
        <time>2019-08-16T12:18:02Z</time>
      </trkpt>
      <trkpt lat="48.0101" lon="6.75307">
        <ele>488.78833</ele>
        <time>2019-08-16T12:18:03Z</time>
      </trkpt>
      <trkpt lat="48.01004" lon="6.75311">
        <ele>488.62619</ele>
        <time>2019-08-16T12:18:04Z</time>
      </trkpt>
      <trkpt lat="48.00999" lon="6.75314">
        <ele>488.434296</ele>
        <time>2019-08-16T12:18:05Z</time>
      </trkpt>
      <trkpt lat="48.00993" lon="6.75318">
        <ele>488.098175</ele>
        <time>2019-08-16T12:18:06Z</time>
      </trkpt>
      <trkpt lat="48.00987" lon="6.75321">
        <ele>487.874634</ele>
        <time>2019-08-16T12:18:07Z</time>
      </trkpt>
      <trkpt lat="48.00982" lon="6.75324">
        <ele>487.641998</ele>
        <time>2019-08-16T12:18:08Z</time>
      </trkpt>
      <trkpt lat="48.00978" lon="6.75326">
        <ele>487.276581</ele>
        <time>2019-08-16T12:18:09Z</time>
      </trkpt>
      <trkpt lat="48.00975" lon="6.75327">
        <ele>487.055756</ele>
        <time>2019-08-16T12:18:10Z</time>
      </trkpt>
      <trkpt lat="48.00971" lon="6.75328">
        <ele>486.889404</ele>
        <time>2019-08-16T12:18:11Z</time>
      </trkpt>
      <trkpt lat="48.00968" lon="6.75328">
        <ele>486.809814</ele>
        <time>2019-08-16T12:18:12Z</time>
      </trkpt>
      <trkpt lat="48.00966" lon="6.75328">
        <ele>486.810181</ele>
        <time>2019-08-16T12:18:13Z</time>
      </trkpt>
      <trkpt lat="48.00962" lon="6.75328">
        <ele>486.890259</ele>
        <time>2019-08-16T12:18:14Z</time>
      </trkpt>
      <trkpt lat="48.0096" lon="6.75328">
        <ele>487.158447</ele>
        <time>2019-08-16T12:18:15Z</time>
      </trkpt>
      <trkpt lat="48.00957" lon="6.75329">
        <ele>487.38269</ele>
        <time>2019-08-16T12:18:16Z</time>
      </trkpt>
      <trkpt lat="48.00955" lon="6.7533">
        <ele>487.619598</ele>
        <time>2019-08-16T12:18:17Z</time>
      </trkpt>
      <trkpt lat="48.00955" lon="6.75332">
        <ele>487.864532</ele>
        <time>2019-08-16T12:18:18Z</time>
      </trkpt>
      <trkpt lat="48.00954" lon="6.75335">
        <ele>488.236481</ele>
        <time>2019-08-16T12:18:19Z</time>
      </trkpt>
      <trkpt lat="48.00954" lon="6.75338">
        <ele>488.475311</ele>
        <time>2019-08-16T12:18:20Z</time>
      </trkpt>
      <trkpt lat="48.00953" lon="6.75342">
        <ele>488.687469</ele>
        <time>2019-08-16T12:18:21Z</time>
      </trkpt>
      <trkpt lat="48.00952" lon="6.75346">
        <ele>488.780518</ele>
        <time>2019-08-16T12:18:22Z</time>
      </trkpt>
      <trkpt lat="48.00951" lon="6.75351">
        <ele>488.864044</ele>
        <time>2019-08-16T12:18:23Z</time>
      </trkpt>
      <trkpt lat="48.00949" lon="6.75356">
        <ele>488.937988</ele>
        <time>2019-08-16T12:18:24Z</time>
      </trkpt>
      <trkpt lat="48.00948" lon="6.75362">
        <ele>489.060425</ele>
        <time>2019-08-16T12:18:25Z</time>
      </trkpt>
      <trkpt lat="48.00946" lon="6.75367">
        <ele>489.175903</ele>
        <time>2019-08-16T12:18:26Z</time>
      </trkpt>
      <trkpt lat="48.00944" lon="6.75373">
        <ele>489.188477</ele>
        <time>2019-08-16T12:18:27Z</time>
      </trkpt>
      <trkpt lat="48.00942" lon="6.75378">
        <ele>489.186646</ele>
        <time>2019-08-16T12:18:28Z</time>
      </trkpt>
      <trkpt lat="48.0094" lon="6.75383">
        <ele>489.14267</ele>
        <time>2019-08-16T12:18:29Z</time>
      </trkpt>
      <trkpt lat="48.00938" lon="6.75387">
        <ele>489.053619</ele>
        <time>2019-08-16T12:18:30Z</time>
      </trkpt>
      <trkpt lat="48.00935" lon="6.75389">
        <ele>488.873993</ele>
        <time>2019-08-16T12:18:31Z</time>
      </trkpt>
      <trkpt lat="48.00933" lon="6.75388">
        <ele>488.736847</ele>
        <time>2019-08-16T12:18:32Z</time>
      </trkpt>
      <trkpt lat="48.00931" lon="6.75385">
        <ele>488.602173</ele>
        <time>2019-08-16T12:18:33Z</time>
      </trkpt>
      <trkpt lat="48.00929" lon="6.75381">
        <ele>488.48465</ele>
        <time>2019-08-16T12:18:34Z</time>
      </trkpt>
      <trkpt lat="48.00928" lon="6.75377">
        <ele>488.393311</ele>
        <time>2019-08-16T12:18:35Z</time>
      </trkpt>
      <trkpt lat="48.00927" lon="6.75373">
        <ele>488.327026</ele>
        <time>2019-08-16T12:18:36Z</time>
      </trkpt>
      <trkpt lat="48.00926" lon="6.75368">
        <ele>488.327026</ele>
        <time>2019-08-16T12:18:37Z</time>
      </trkpt>
      <trkpt lat="48.00925" lon="6.75364">
        <ele>488.338867</ele>
        <time>2019-08-16T12:18:38Z</time>
      </trkpt>
      <trkpt lat="48.00924" lon="6.7536">
        <ele>488.384155</ele>
        <time>2019-08-16T12:18:39Z</time>
      </trkpt>
      <trkpt lat="48.00922" lon="6.75356">
        <ele>488.480103</ele>
        <time>2019-08-16T12:18:40Z</time>
      </trkpt>
      <trkpt lat="48.00921" lon="6.75352">
        <ele>488.548492</ele>
        <time>2019-08-16T12:18:41Z</time>
      </trkpt>
      <trkpt lat="48.0092" lon="6.75348">
        <ele>488.615631</ele>
        <time>2019-08-16T12:18:42Z</time>
      </trkpt>
      <trkpt lat="48.00919" lon="6.75344">
        <ele>488.678802</ele>
        <time>2019-08-16T12:18:43Z</time>
      </trkpt>
      <trkpt lat="48.00917" lon="6.7534">
        <ele>488.735199</ele>
        <time>2019-08-16T12:18:44Z</time>
      </trkpt>
      <trkpt lat="48.00916" lon="6.75335">
        <ele>488.811615</ele>
        <time>2019-08-16T12:18:45Z</time>
      </trkpt>
      <trkpt lat="48.00915" lon="6.75331">
        <ele>488.865692</ele>
        <time>2019-08-16T12:18:46Z</time>
      </trkpt>
      <trkpt lat="48.00913" lon="6.75327">
        <ele>488.922363</ele>
        <time>2019-08-16T12:18:47Z</time>
      </trkpt>
      <trkpt lat="48.00913" lon="6.75322">
        <ele>488.978271</ele>
        <time>2019-08-16T12:18:48Z</time>
      </trkpt>
      <trkpt lat="48.00911" lon="6.75318">
        <ele>489.031525</ele>
        <time>2019-08-16T12:18:49Z</time>
      </trkpt>
      <trkpt lat="48.00909" lon="6.75314">
        <ele>489.088959</ele>
        <time>2019-08-16T12:18:50Z</time>
      </trkpt>
      <trkpt lat="48.00908" lon="6.7531">
        <ele>489.157501</ele>
        <time>2019-08-16T12:18:51Z</time>
      </trkpt>
      <trkpt lat="48.00906" lon="6.75305">
        <ele>489.232758</ele>
        <time>2019-08-16T12:18:52Z</time>
      </trkpt>
      <trkpt lat="48.00904" lon="6.75301">
        <ele>489.308563</ele>
        <time>2019-08-16T12:18:53Z</time>
      </trkpt>
      <trkpt lat="48.00902" lon="6.75296">
        <ele>489.406403</ele>
        <time>2019-08-16T12:18:54Z</time>
      </trkpt>
      <trkpt lat="48.009" lon="6.75292">
        <ele>489.456909</ele>
        <time>2019-08-16T12:18:55Z</time>
      </trkpt>
      <trkpt lat="48.00898" lon="6.75288">
        <ele>489.495575</ele>
        <time>2019-08-16T12:18:56Z</time>
      </trkpt>
      <trkpt lat="48.00896" lon="6.75284">
        <ele>489.522797</ele>
        <time>2019-08-16T12:18:57Z</time>
      </trkpt>
      <trkpt lat="48.00893" lon="6.7528">
        <ele>489.5383</ele>
        <time>2019-08-16T12:18:58Z</time>
      </trkpt>
      <trkpt lat="48.00892" lon="6.75276">
        <ele>489.547638</ele>
        <time>2019-08-16T12:18:59Z</time>
      </trkpt>
      <trkpt lat="48.00889" lon="6.75272">
        <ele>489.550385</ele>
        <time>2019-08-16T12:19:00Z</time>
      </trkpt>
      <trkpt lat="48.00887" lon="6.75269">
        <ele>489.552826</ele>
        <time>2019-08-16T12:19:01Z</time>
      </trkpt>
      <trkpt lat="48.00884" lon="6.75265">
        <ele>489.557739</ele>
        <time>2019-08-16T12:19:02Z</time>
      </trkpt>
      <trkpt lat="48.00881" lon="6.75262">
        <ele>489.567505</ele>
        <time>2019-08-16T12:19:03Z</time>
      </trkpt>
      <trkpt lat="48.00879" lon="6.75259">
        <ele>489.583374</ele>
        <time>2019-08-16T12:19:04Z</time>
      </trkpt>
      <trkpt lat="48.00876" lon="6.75256">
        <ele>489.61441</ele>
        <time>2019-08-16T12:19:05Z</time>
      </trkpt>
      <trkpt lat="48.00873" lon="6.75252">
        <ele>489.636353</ele>
        <time>2019-08-16T12:19:06Z</time>
      </trkpt>
      <trkpt lat="48.0087" lon="6.75249">
        <ele>489.656158</ele>
        <time>2019-08-16T12:19:07Z</time>
      </trkpt>
      <trkpt lat="48.00867" lon="6.75246">
        <ele>489.676239</ele>
        <time>2019-08-16T12:19:08Z</time>
      </trkpt>
      <trkpt lat="48.00864" lon="6.75244">
        <ele>489.707123</ele>
        <time>2019-08-16T12:19:09Z</time>
      </trkpt>
      <trkpt lat="48.00862" lon="6.75241">
        <ele>489.735474</ele>
        <time>2019-08-16T12:19:10Z</time>
      </trkpt>
      <trkpt lat="48.00859" lon="6.75238">
        <ele>489.771484</ele>
        <time>2019-08-16T12:19:11Z</time>
      </trkpt>
      <trkpt lat="48.00856" lon="6.75235">
        <ele>489.853912</ele>
        <time>2019-08-16T12:19:12Z</time>
      </trkpt>
      <trkpt lat="48.00853" lon="6.75232">
        <ele>489.929352</ele>
        <time>2019-08-16T12:19:13Z</time>
      </trkpt>
      <trkpt lat="48.00851" lon="6.75229">
        <ele>490.024445</ele>
        <time>2019-08-16T12:19:14Z</time>
      </trkpt>
      <trkpt lat="48.00847" lon="6.75227">
        <ele>490.198944</ele>
        <time>2019-08-16T12:19:15Z</time>
      </trkpt>
      <trkpt lat="48.00844" lon="6.75224">
        <ele>490.334229</ele>
        <time>2019-08-16T12:19:16Z</time>
      </trkpt>
      <trkpt lat="48.00841" lon="6.75222">
        <ele>490.476563</ele>
        <time>2019-08-16T12:19:17Z</time>
      </trkpt>
      <trkpt lat="48.00839" lon="6.75219">
        <ele>490.687012</ele>
        <time>2019-08-16T12:19:18Z</time>
      </trkpt>
      <trkpt lat="48.00835" lon="6.75217">
        <ele>490.80896</ele>
        <time>2019-08-16T12:19:19Z</time>
      </trkpt>
      <trkpt lat="48.00833" lon="6.75214">
        <ele>490.908905</ele>
        <time>2019-08-16T12:19:20Z</time>
      </trkpt>
      <trkpt lat="48.0083" lon="6.75211">
        <ele>490.990509</ele>
        <time>2019-08-16T12:19:21Z</time>
      </trkpt>
      <trkpt lat="48.00827" lon="6.75207">
        <ele>491.059296</ele>
        <time>2019-08-16T12:19:22Z</time>
      </trkpt>
      <trkpt lat="48.00824" lon="6.75204">
        <ele>491.090088</ele>
        <time>2019-08-16T12:19:23Z</time>
      </trkpt>
      <trkpt lat="48.00822" lon="6.75201">
        <ele>491.169189</ele>
        <time>2019-08-16T12:19:24Z</time>
      </trkpt>
      <trkpt lat="48.00819" lon="6.75198">
        <ele>491.211151</ele>
        <time>2019-08-16T12:19:25Z</time>
      </trkpt>
      <trkpt lat="48.00816" lon="6.75195">
        <ele>491.250488</ele>
        <time>2019-08-16T12:19:26Z</time>
      </trkpt>
      <trkpt lat="48.00814" lon="6.75192">
        <ele>491.315063</ele>
        <time>2019-08-16T12:19:27Z</time>
      </trkpt>
      <trkpt lat="48.00811" lon="6.75188">
        <ele>491.365631</ele>
        <time>2019-08-16T12:19:28Z</time>
      </trkpt>
      <trkpt lat="48.00808" lon="6.75184">
        <ele>491.414795</ele>
        <time>2019-08-16T12:19:29Z</time>
      </trkpt>
      <trkpt lat="48.00806" lon="6.75181">
        <ele>491.457886</ele>
        <time>2019-08-16T12:19:30Z</time>
      </trkpt>
      <trkpt lat="48.00803" lon="6.75178">
        <ele>491.517609</ele>
        <time>2019-08-16T12:19:31Z</time>
      </trkpt>
      <trkpt lat="48.00801" lon="6.75174">
        <ele>491.558594</ele>
        <time>2019-08-16T12:19:32Z</time>
      </trkpt>
      <trkpt lat="48.00798" lon="6.75171">
        <ele>491.600189</ele>
        <time>2019-08-16T12:19:33Z</time>
      </trkpt>
      <trkpt lat="48.00795" lon="6.75167">
        <ele>491.665924</ele>
        <time>2019-08-16T12:19:34Z</time>
      </trkpt>
      <trkpt lat="48.00794" lon="6.75163">
        <ele>491.713348</ele>
        <time>2019-08-16T12:19:35Z</time>
      </trkpt>
      <trkpt lat="48.00791" lon="6.75158">
        <ele>491.765045</ele>
        <time>2019-08-16T12:19:36Z</time>
      </trkpt>
      <trkpt lat="48.00789" lon="6.75154">
        <ele>491.846069</ele>
        <time>2019-08-16T12:19:37Z</time>
      </trkpt>
      <trkpt lat="48.00787" lon="6.7515">
        <ele>491.900513</ele>
        <time>2019-08-16T12:19:38Z</time>
      </trkpt>
      <trkpt lat="48.00784" lon="6.75146">
        <ele>491.953644</ele>
        <time>2019-08-16T12:19:39Z</time>
      </trkpt>
      <trkpt lat="48.00782" lon="6.75141">
        <ele>492.034332</ele>
        <time>2019-08-16T12:19:40Z</time>
      </trkpt>
      <trkpt lat="48.00779" lon="6.75137">
        <ele>492.080719</ele>
        <time>2019-08-16T12:19:41Z</time>
      </trkpt>
      <trkpt lat="48.00776" lon="6.75133">
        <ele>492.116058</ele>
        <time>2019-08-16T12:19:42Z</time>
      </trkpt>
      <trkpt lat="48.00774" lon="6.75129">
        <ele>492.141022</ele>
        <time>2019-08-16T12:19:43Z</time>
      </trkpt>
      <trkpt lat="48.00772" lon="6.75124">
        <ele>492.158356</ele>
        <time>2019-08-16T12:19:44Z</time>
      </trkpt>
      <trkpt lat="48.00769" lon="6.7512">
        <ele>492.161774</ele>
        <time>2019-08-16T12:19:45Z</time>
      </trkpt>
      <trkpt lat="48.00766" lon="6.75116">
        <ele>492.155762</ele>
        <time>2019-08-16T12:19:46Z</time>
      </trkpt>
      <trkpt lat="48.00764" lon="6.75111">
        <ele>492.135223</ele>
        <time>2019-08-16T12:19:47Z</time>
      </trkpt>
      <trkpt lat="48.00761" lon="6.75106">
        <ele>492.111298</ele>
        <time>2019-08-16T12:19:48Z</time>
      </trkpt>
      <trkpt lat="48.00759" lon="6.75101">
        <ele>492.091339</ele>
        <time>2019-08-16T12:19:49Z</time>
      </trkpt>
      <trkpt lat="48.00757" lon="6.75096">
        <ele>492.071136</ele>
        <time>2019-08-16T12:19:50Z</time>
      </trkpt>
      <trkpt lat="48.00754" lon="6.75091">
        <ele>492.04895</ele>
        <time>2019-08-16T12:19:51Z</time>
      </trkpt>
      <trkpt lat="48.00752" lon="6.75086">
        <ele>492.026733</ele>
        <time>2019-08-16T12:19:52Z</time>
      </trkpt>
      <trkpt lat="48.00749" lon="6.75082">
        <ele>492.008057</ele>
        <time>2019-08-16T12:19:53Z</time>
      </trkpt>
      <trkpt lat="48.00746" lon="6.75077">
        <ele>492.000946</ele>
        <time>2019-08-16T12:19:54Z</time>
      </trkpt>
      <trkpt lat="48.00743" lon="6.75072">
        <ele>491.991669</ele>
        <time>2019-08-16T12:19:55Z</time>
      </trkpt>
      <trkpt lat="48.0074" lon="6.75067">
        <ele>491.974945</ele>
        <time>2019-08-16T12:19:56Z</time>
      </trkpt>
      <trkpt lat="48.00738" lon="6.75062">
        <ele>491.95517</ele>
        <time>2019-08-16T12:19:57Z</time>
      </trkpt>
      <trkpt lat="48.00735" lon="6.75057">
        <ele>491.931274</ele>
        <time>2019-08-16T12:19:58Z</time>
      </trkpt>
      <trkpt lat="48.00732" lon="6.75052">
        <ele>491.921906</ele>
        <time>2019-08-16T12:19:59Z</time>
      </trkpt>
      <trkpt lat="48.00729" lon="6.75047">
        <ele>491.912018</ele>
        <time>2019-08-16T12:20:00Z</time>
      </trkpt>
      <trkpt lat="48.00726" lon="6.75043">
        <ele>491.892853</ele>
        <time>2019-08-16T12:20:01Z</time>
      </trkpt>
      <trkpt lat="48.00723" lon="6.75038">
        <ele>491.872528</ele>
        <time>2019-08-16T12:20:02Z</time>
      </trkpt>
      <trkpt lat="48.0072" lon="6.75032">
        <ele>491.85379</ele>
        <time>2019-08-16T12:20:03Z</time>
      </trkpt>
      <trkpt lat="48.00718" lon="6.75027">
        <ele>491.842499</ele>
        <time>2019-08-16T12:20:04Z</time>
      </trkpt>
      <trkpt lat="48.00715" lon="6.75022">
        <ele>491.842499</ele>
        <time>2019-08-16T12:20:05Z</time>
      </trkpt>
      <trkpt lat="48.00712" lon="6.75017">
        <ele>491.844482</ele>
        <time>2019-08-16T12:20:06Z</time>
      </trkpt>
      <trkpt lat="48.0071" lon="6.75012">
        <ele>491.856415</ele>
        <time>2019-08-16T12:20:07Z</time>
      </trkpt>
      <trkpt lat="48.00707" lon="6.75008">
        <ele>491.874146</ele>
        <time>2019-08-16T12:20:08Z</time>
      </trkpt>
      <trkpt lat="48.00704" lon="6.75003">
        <ele>491.900238</ele>
        <time>2019-08-16T12:20:09Z</time>
      </trkpt>
      <trkpt lat="48.00701" lon="6.74998">
        <ele>491.941376</ele>
        <time>2019-08-16T12:20:10Z</time>
      </trkpt>
      <trkpt lat="48.00699" lon="6.74993">
        <ele>491.9664</ele>
        <time>2019-08-16T12:20:11Z</time>
      </trkpt>
      <trkpt lat="48.00696" lon="6.74988">
        <ele>491.993378</ele>
        <time>2019-08-16T12:20:12Z</time>
      </trkpt>
      <trkpt lat="48.00694" lon="6.74983">
        <ele>492.022217</ele>
        <time>2019-08-16T12:20:13Z</time>
      </trkpt>
      <trkpt lat="48.00691" lon="6.74978">
        <ele>492.058472</ele>
        <time>2019-08-16T12:20:14Z</time>
      </trkpt>
      <trkpt lat="48.00688" lon="6.74974">
        <ele>492.071014</ele>
        <time>2019-08-16T12:20:15Z</time>
      </trkpt>
      <trkpt lat="48.00685" lon="6.74969">
        <ele>492.076385</ele>
        <time>2019-08-16T12:20:16Z</time>
      </trkpt>
      <trkpt lat="48.00682" lon="6.74964">
        <ele>492.076385</ele>
        <time>2019-08-16T12:20:17Z</time>
      </trkpt>
      <trkpt lat="48.00679" lon="6.74959">
        <ele>492.071808</ele>
        <time>2019-08-16T12:20:18Z</time>
      </trkpt>
      <trkpt lat="48.00677" lon="6.74954">
        <ele>492.056793</ele>
        <time>2019-08-16T12:20:19Z</time>
      </trkpt>
      <trkpt lat="48.00674" lon="6.7495">
        <ele>492.025848</ele>
        <time>2019-08-16T12:20:20Z</time>
      </trkpt>
      <trkpt lat="48.00671" lon="6.74945">
        <ele>492.007782</ele>
        <time>2019-08-16T12:20:21Z</time>
      </trkpt>
      <trkpt lat="48.00668" lon="6.7494">
        <ele>491.993896</ele>
        <time>2019-08-16T12:20:22Z</time>
      </trkpt>
      <trkpt lat="48.00665" lon="6.74935">
        <ele>491.978638</ele>
        <time>2019-08-16T12:20:23Z</time>
      </trkpt>
      <trkpt lat="48.00663" lon="6.74929">
        <ele>491.970734</ele>
        <time>2019-08-16T12:20:24Z</time>
      </trkpt>
      <trkpt lat="48.0066" lon="6.74924">
        <ele>491.949341</ele>
        <time>2019-08-16T12:20:25Z</time>
      </trkpt>
      <trkpt lat="48.00657" lon="6.74919">
        <ele>491.936035</ele>
        <time>2019-08-16T12:20:26Z</time>
      </trkpt>
      <trkpt lat="48.00654" lon="6.74914">
        <ele>491.916534</ele>
        <time>2019-08-16T12:20:27Z</time>
      </trkpt>
      <trkpt lat="48.0065" lon="6.74909">
        <ele>491.859619</ele>
        <time>2019-08-16T12:20:28Z</time>
      </trkpt>
      <trkpt lat="48.00646" lon="6.74905">
        <ele>491.807709</ele>
        <time>2019-08-16T12:20:29Z</time>
      </trkpt>
      <trkpt lat="48.00642" lon="6.74903">
        <ele>491.74765</ele>
        <time>2019-08-16T12:20:30Z</time>
      </trkpt>
      <trkpt lat="48.00637" lon="6.74903">
        <ele>491.644989</ele>
        <time>2019-08-16T12:20:31Z</time>
      </trkpt>
      <trkpt lat="48.00633" lon="6.74904">
        <ele>491.565094</ele>
        <time>2019-08-16T12:20:32Z</time>
      </trkpt>
      <trkpt lat="48.00629" lon="6.74907">
        <ele>491.47522</ele>
        <time>2019-08-16T12:20:33Z</time>
      </trkpt>
      <trkpt lat="48.00625" lon="6.7491">
        <ele>491.327362</ele>
        <time>2019-08-16T12:20:34Z</time>
      </trkpt>
      <trkpt lat="48.00621" lon="6.74912">
        <ele>491.234741</ele>
        <time>2019-08-16T12:20:35Z</time>
      </trkpt>
      <trkpt lat="48.00617" lon="6.74914">
        <ele>491.16626</ele>
        <time>2019-08-16T12:20:36Z</time>
      </trkpt>
      <trkpt lat="48.00613" lon="6.74915">
        <ele>491.142548</ele>
        <time>2019-08-16T12:20:37Z</time>
      </trkpt>
      <trkpt lat="48.00609" lon="6.74916">
        <ele>491.14856</ele>
        <time>2019-08-16T12:20:38Z</time>
      </trkpt>
      <trkpt lat="48.00606" lon="6.74916">
        <ele>491.230133</ele>
        <time>2019-08-16T12:20:39Z</time>
      </trkpt>
      <trkpt lat="48.00602" lon="6.74915">
        <ele>491.319458</ele>
        <time>2019-08-16T12:20:40Z</time>
      </trkpt>
      <trkpt lat="48.00599" lon="6.74914">
        <ele>491.427765</ele>
        <time>2019-08-16T12:20:41Z</time>
      </trkpt>
      <trkpt lat="48.00596" lon="6.74912">
        <ele>491.619141</ele>
        <time>2019-08-16T12:20:42Z</time>
      </trkpt>
      <trkpt lat="48.00593" lon="6.74911">
        <ele>491.762482</ele>
        <time>2019-08-16T12:20:43Z</time>
      </trkpt>
      <trkpt lat="48.00591" lon="6.7491">
        <ele>491.915192</ele>
        <time>2019-08-16T12:20:44Z</time>
      </trkpt>
      <trkpt lat="48.00588" lon="6.74909">
        <ele>492.160889</ele>
        <time>2019-08-16T12:20:45Z</time>
      </trkpt>
      <trkpt lat="48.00586" lon="6.74908">
        <ele>492.337891</ele>
        <time>2019-08-16T12:20:46Z</time>
      </trkpt>
      <trkpt lat="48.00583" lon="6.74907">
        <ele>492.522949</ele>
        <time>2019-08-16T12:20:47Z</time>
      </trkpt>
      <trkpt lat="48.0058" lon="6.74906">
        <ele>492.811493</ele>
        <time>2019-08-16T12:20:48Z</time>
      </trkpt>
      <trkpt lat="48.00578" lon="6.74905">
        <ele>493.010284</ele>
        <time>2019-08-16T12:20:49Z</time>
      </trkpt>
      <trkpt lat="48.00575" lon="6.74905">
        <ele>493.210327</ele>
        <time>2019-08-16T12:20:50Z</time>
      </trkpt>
      <trkpt lat="48.00572" lon="6.74904">
        <ele>493.502533</ele>
        <time>2019-08-16T12:20:51Z</time>
      </trkpt>
      <trkpt lat="48.00569" lon="6.74904">
        <ele>493.688599</ele>
        <time>2019-08-16T12:20:52Z</time>
      </trkpt>
      <trkpt lat="48.00567" lon="6.74904">
        <ele>493.871429</ele>
        <time>2019-08-16T12:20:53Z</time>
      </trkpt>
      <trkpt lat="48.00564" lon="6.74904">
        <ele>494.135498</ele>
        <time>2019-08-16T12:20:54Z</time>
      </trkpt>
      <trkpt lat="48.0056" lon="6.74905">
        <ele>494.30899</ele>
        <time>2019-08-16T12:20:55Z</time>
      </trkpt>
      <trkpt lat="48.00557" lon="6.74905">
        <ele>494.481323</ele>
        <time>2019-08-16T12:20:56Z</time>
      </trkpt>
      <trkpt lat="48.00554" lon="6.74905">
        <ele>494.728394</ele>
        <time>2019-08-16T12:20:57Z</time>
      </trkpt>
      <trkpt lat="48.00552" lon="6.74906">
        <ele>494.881012</ele>
        <time>2019-08-16T12:20:58Z</time>
      </trkpt>
      <trkpt lat="48.00549" lon="6.74907">
        <ele>495.027313</ele>
        <time>2019-08-16T12:20:59Z</time>
      </trkpt>
      <trkpt lat="48.00546" lon="6.74907">
        <ele>495.224976</ele>
        <time>2019-08-16T12:21:00Z</time>
      </trkpt>
      <trkpt lat="48.00542" lon="6.74908">
        <ele>495.339233</ele>
        <time>2019-08-16T12:21:01Z</time>
      </trkpt>
      <trkpt lat="48.0054" lon="6.74908">
        <ele>495.43869</ele>
        <time>2019-08-16T12:21:02Z</time>
      </trkpt>
      <trkpt lat="48.00537" lon="6.74909">
        <ele>495.568848</ele>
        <time>2019-08-16T12:21:03Z</time>
      </trkpt>
      <trkpt lat="48.00534" lon="6.7491">
        <ele>495.641266</ele>
        <time>2019-08-16T12:21:04Z</time>
      </trkpt>
      <trkpt lat="48.00531" lon="6.74911">
        <ele>495.700592</ele>
        <time>2019-08-16T12:21:05Z</time>
      </trkpt>
      <trkpt lat="48.00528" lon="6.74912">
        <ele>495.772339</ele>
        <time>2019-08-16T12:21:06Z</time>
      </trkpt>
      <trkpt lat="48.00525" lon="6.74912">
        <ele>495.820557</ele>
        <time>2019-08-16T12:21:07Z</time>
      </trkpt>
      <trkpt lat="48.00521" lon="6.74913">
        <ele>495.868927</ele>
        <time>2019-08-16T12:21:08Z</time>
      </trkpt>
      <trkpt lat="48.00518" lon="6.74913">
        <ele>495.931427</ele>
        <time>2019-08-16T12:21:09Z</time>
      </trkpt>
      <trkpt lat="48.00515" lon="6.74914">
        <ele>495.963226</ele>
        <time>2019-08-16T12:21:10Z</time>
      </trkpt>
      <trkpt lat="48.00512" lon="6.74915">
        <ele>496.002411</ele>
        <time>2019-08-16T12:21:11Z</time>
      </trkpt>
      <trkpt lat="48.00509" lon="6.74916">
        <ele>496.02356</ele>
        <time>2019-08-16T12:21:12Z</time>
      </trkpt>
      <trkpt lat="48.00506" lon="6.74917">
        <ele>496.035889</ele>
        <time>2019-08-16T12:21:13Z</time>
      </trkpt>
      <trkpt lat="48.00503" lon="6.74918">
        <ele>496.041351</ele>
        <time>2019-08-16T12:21:14Z</time>
      </trkpt>
      <trkpt lat="48.00499" lon="6.74919">
        <ele>496.042969</ele>
        <time>2019-08-16T12:21:15Z</time>
      </trkpt>
      <trkpt lat="48.00496" lon="6.7492">
        <ele>496.043823</ele>
        <time>2019-08-16T12:21:16Z</time>
      </trkpt>
      <trkpt lat="48.00493" lon="6.74921">
        <ele>496.065521</ele>
        <time>2019-08-16T12:21:17Z</time>
      </trkpt>
      <trkpt lat="48.0049" lon="6.74922">
        <ele>496.092133</ele>
        <time>2019-08-16T12:21:18Z</time>
      </trkpt>
      <trkpt lat="48.00487" lon="6.74923">
        <ele>496.136749</ele>
        <time>2019-08-16T12:21:19Z</time>
      </trkpt>
      <trkpt lat="48.00483" lon="6.74924">
        <ele>496.16745</ele>
        <time>2019-08-16T12:21:20Z</time>
      </trkpt>
      <trkpt lat="48.0048" lon="6.74925">
        <ele>496.20108</ele>
        <time>2019-08-16T12:21:21Z</time>
      </trkpt>
      <trkpt lat="48.00477" lon="6.74927">
        <ele>496.250153</ele>
        <time>2019-08-16T12:21:22Z</time>
      </trkpt>
      <trkpt lat="48.00474" lon="6.74929">
        <ele>496.272369</ele>
        <time>2019-08-16T12:21:23Z</time>
      </trkpt>
      <trkpt lat="48.00471" lon="6.74931">
        <ele>496.290375</ele>
        <time>2019-08-16T12:21:24Z</time>
      </trkpt>
      <trkpt lat="48.00465" lon="6.74937">
        <ele>496.296295</ele>
        <time>2019-08-16T12:21:26Z</time>
      </trkpt>
      <trkpt lat="48.00463" lon="6.7494">
        <ele>496.318024</ele>
        <time>2019-08-16T12:21:27Z</time>
      </trkpt>
      <trkpt lat="48.00461" lon="6.74944">
        <ele>496.359955</ele>
        <time>2019-08-16T12:21:28Z</time>
      </trkpt>
      <trkpt lat="48.00459" lon="6.74948">
        <ele>496.452728</ele>
        <time>2019-08-16T12:21:29Z</time>
      </trkpt>
      <trkpt lat="48.00457" lon="6.74952">
        <ele>496.539551</ele>
        <time>2019-08-16T12:21:30Z</time>
      </trkpt>
      <trkpt lat="48.00456" lon="6.74957">
        <ele>496.650879</ele>
        <time>2019-08-16T12:21:31Z</time>
      </trkpt>
      <trkpt lat="48.00455" lon="6.74961">
        <ele>496.791107</ele>
        <time>2019-08-16T12:21:32Z</time>
      </trkpt>
      <trkpt lat="48.00454" lon="6.74966">
        <ele>497.038361</ele>
        <time>2019-08-16T12:21:33Z</time>
      </trkpt>
      <trkpt lat="48.00453" lon="6.74971">
        <ele>497.223022</ele>
        <time>2019-08-16T12:21:34Z</time>
      </trkpt>
      <trkpt lat="48.00453" lon="6.74976">
        <ele>497.41153</ele>
        <time>2019-08-16T12:21:35Z</time>
      </trkpt>
      <trkpt lat="48.00453" lon="6.74981">
        <ele>497.587616</ele>
        <time>2019-08-16T12:21:36Z</time>
      </trkpt>
      <trkpt lat="48.00453" lon="6.74986">
        <ele>497.742523</ele>
        <time>2019-08-16T12:21:37Z</time>
      </trkpt>
      <trkpt lat="48.00453" lon="6.74991">
        <ele>497.877075</ele>
        <time>2019-08-16T12:21:38Z</time>
      </trkpt>
      <trkpt lat="48.00453" lon="6.74996">
        <ele>497.995605</ele>
        <time>2019-08-16T12:21:39Z</time>
      </trkpt>
      <trkpt lat="48.00453" lon="6.75001">
        <ele>498.098999</ele>
        <time>2019-08-16T12:21:40Z</time>
      </trkpt>
      <trkpt lat="48.00454" lon="6.75006">
        <ele>498.183929</ele>
        <time>2019-08-16T12:21:41Z</time>
      </trkpt>
      <trkpt lat="48.00454" lon="6.75012">
        <ele>498.251251</ele>
        <time>2019-08-16T12:21:42Z</time>
      </trkpt>
      <trkpt lat="48.00454" lon="6.75017">
        <ele>498.303711</ele>
        <time>2019-08-16T12:21:43Z</time>
      </trkpt>
      <trkpt lat="48.00454" lon="6.75023">
        <ele>498.348297</ele>
        <time>2019-08-16T12:21:44Z</time>
      </trkpt>
      <trkpt lat="48.00455" lon="6.75029">
        <ele>498.383209</ele>
        <time>2019-08-16T12:21:45Z</time>
      </trkpt>
      <trkpt lat="48.00455" lon="6.75035">
        <ele>498.411041</ele>
        <time>2019-08-16T12:21:46Z</time>
      </trkpt>
      <trkpt lat="48.00455" lon="6.75041">
        <ele>498.440643</ele>
        <time>2019-08-16T12:21:47Z</time>
      </trkpt>
      <trkpt lat="48.00454" lon="6.75047">
        <ele>498.478851</ele>
        <time>2019-08-16T12:21:48Z</time>
      </trkpt>
      <trkpt lat="48.00453" lon="6.75052">
        <ele>498.539795</ele>
        <time>2019-08-16T12:21:49Z</time>
      </trkpt>
      <trkpt lat="48.00452" lon="6.75058">
        <ele>498.571869</ele>
        <time>2019-08-16T12:21:50Z</time>
      </trkpt>
      <trkpt lat="48.0045" lon="6.75064">
        <ele>498.598907</ele>
        <time>2019-08-16T12:21:51Z</time>
      </trkpt>
      <trkpt lat="48.00448" lon="6.7507">
        <ele>498.625885</ele>
        <time>2019-08-16T12:21:52Z</time>
      </trkpt>
      <trkpt lat="48.00446" lon="6.75075">
        <ele>498.652191</ele>
        <time>2019-08-16T12:21:53Z</time>
      </trkpt>
      <trkpt lat="48.00443" lon="6.7508">
        <ele>498.673431</ele>
        <time>2019-08-16T12:21:54Z</time>
      </trkpt>
      <trkpt lat="48.0044" lon="6.75084">
        <ele>498.685699</ele>
        <time>2019-08-16T12:21:55Z</time>
      </trkpt>
      <trkpt lat="48.00436" lon="6.75088">
        <ele>498.691528</ele>
        <time>2019-08-16T12:21:56Z</time>
      </trkpt>
      <trkpt lat="48.00433" lon="6.75091">
        <ele>498.702362</ele>
        <time>2019-08-16T12:21:57Z</time>
      </trkpt>
      <trkpt lat="48.00429" lon="6.75094">
        <ele>498.709351</ele>
        <time>2019-08-16T12:21:58Z</time>
      </trkpt>
      <trkpt lat="48.00425" lon="6.75096">
        <ele>498.71463</ele>
        <time>2019-08-16T12:21:59Z</time>
      </trkpt>
      <trkpt lat="48.00422" lon="6.75098">
        <ele>498.724213</ele>
        <time>2019-08-16T12:22:00Z</time>
      </trkpt>
      <trkpt lat="48.00418" lon="6.751">
        <ele>498.736053</ele>
        <time>2019-08-16T12:22:01Z</time>
      </trkpt>
      <trkpt lat="48.00414" lon="6.75102">
        <ele>498.754791</ele>
        <time>2019-08-16T12:22:02Z</time>
      </trkpt>
      <trkpt lat="48.0041" lon="6.75103">
        <ele>498.788788</ele>
        <time>2019-08-16T12:22:03Z</time>
      </trkpt>
      <trkpt lat="48.00406" lon="6.75105">
        <ele>498.811035</ele>
        <time>2019-08-16T12:22:04Z</time>
      </trkpt>
      <trkpt lat="48.00402" lon="6.75106">
        <ele>498.832794</ele>
        <time>2019-08-16T12:22:05Z</time>
      </trkpt>
      <trkpt lat="48.00398" lon="6.75107">
        <ele>498.862061</ele>
        <time>2019-08-16T12:22:06Z</time>
      </trkpt>
      <trkpt lat="48.00394" lon="6.75108">
        <ele>498.891479</ele>
        <time>2019-08-16T12:22:07Z</time>
      </trkpt>
      <trkpt lat="48.0039" lon="6.75109">
        <ele>498.943634</ele>
        <time>2019-08-16T12:22:08Z</time>
      </trkpt>
      <trkpt lat="48.00386" lon="6.7511">
        <ele>498.979767</ele>
        <time>2019-08-16T12:22:09Z</time>
      </trkpt>
      <trkpt lat="48.00382" lon="6.75111">
        <ele>499.020355</ele>
        <time>2019-08-16T12:22:10Z</time>
      </trkpt>
      <trkpt lat="48.00378" lon="6.75112">
        <ele>499.102997</ele>
        <time>2019-08-16T12:22:11Z</time>
      </trkpt>
      <trkpt lat="48.00374" lon="6.75112">
        <ele>499.167969</ele>
        <time>2019-08-16T12:22:12Z</time>
      </trkpt>
      <trkpt lat="48.0037" lon="6.75113">
        <ele>499.232422</ele>
        <time>2019-08-16T12:22:13Z</time>
      </trkpt>
      <trkpt lat="48.00366" lon="6.75114">
        <ele>499.319244</ele>
        <time>2019-08-16T12:22:14Z</time>
      </trkpt>
      <trkpt lat="48.00362" lon="6.75115">
        <ele>499.386353</ele>
        <time>2019-08-16T12:22:15Z</time>
      </trkpt>
      <trkpt lat="48.00358" lon="6.75116">
        <ele>499.465973</ele>
        <time>2019-08-16T12:22:16Z</time>
      </trkpt>
      <trkpt lat="48.00355" lon="6.75117">
        <ele>499.586517</ele>
        <time>2019-08-16T12:22:17Z</time>
      </trkpt>
      <trkpt lat="48.00351" lon="6.75119">
        <ele>499.661652</ele>
        <time>2019-08-16T12:22:18Z</time>
      </trkpt>
      <trkpt lat="48.00348" lon="6.75122">
        <ele>499.740143</ele>
        <time>2019-08-16T12:22:19Z</time>
      </trkpt>
      <trkpt lat="48.00346" lon="6.75128">
        <ele>499.862793</ele>
        <time>2019-08-16T12:22:20Z</time>
      </trkpt>
      <trkpt lat="48.00346" lon="6.75133">
        <ele>499.952515</ele>
        <time>2019-08-16T12:22:21Z</time>
      </trkpt>
      <trkpt lat="48.00348" lon="6.75138">
        <ele>500.050049</ele>
        <time>2019-08-16T12:22:22Z</time>
      </trkpt>
      <trkpt lat="48.00349" lon="6.75142">
        <ele>500.154144</ele>
        <time>2019-08-16T12:22:23Z</time>
      </trkpt>
      <trkpt lat="48.00352" lon="6.75146">
        <ele>500.258087</ele>
        <time>2019-08-16T12:22:24Z</time>
      </trkpt>
      <trkpt lat="48.00355" lon="6.75149">
        <ele>500.359772</ele>
        <time>2019-08-16T12:22:25Z</time>
      </trkpt>
      <trkpt lat="48.00358" lon="6.75152">
        <ele>500.410492</ele>
        <time>2019-08-16T12:22:26Z</time>
      </trkpt>
      <trkpt lat="48.00361" lon="6.75155">
        <ele>500.565186</ele>
        <time>2019-08-16T12:22:27Z</time>
      </trkpt>
      <trkpt lat="48.00364" lon="6.75158">
        <ele>500.666504</ele>
        <time>2019-08-16T12:22:28Z</time>
      </trkpt>
      <trkpt lat="48.00366" lon="6.75161">
        <ele>500.752319</ele>
        <time>2019-08-16T12:22:29Z</time>
      </trkpt>
      <trkpt lat="48.00368" lon="6.75163">
        <ele>500.851593</ele>
        <time>2019-08-16T12:22:30Z</time>
      </trkpt>
      <trkpt lat="48.0037" lon="6.75166">
        <ele>500.917694</ele>
        <time>2019-08-16T12:22:31Z</time>
      </trkpt>
      <trkpt lat="48.00372" lon="6.75169">
        <ele>500.99585</ele>
        <time>2019-08-16T12:22:32Z</time>
      </trkpt>
      <trkpt lat="48.00374" lon="6.75171">
        <ele>501.086823</ele>
        <time>2019-08-16T12:22:33Z</time>
      </trkpt>
      <trkpt lat="48.00375" lon="6.75175">
        <ele>501.247406</ele>
        <time>2019-08-16T12:22:34Z</time>
      </trkpt>
      <trkpt lat="48.00377" lon="6.75178">
        <ele>501.372284</ele>
        <time>2019-08-16T12:22:35Z</time>
      </trkpt>
      <trkpt lat="48.00379" lon="6.75181">
        <ele>501.514893</ele>
        <time>2019-08-16T12:22:36Z</time>
      </trkpt>
      <trkpt lat="48.00381" lon="6.75184">
        <ele>501.675568</ele>
        <time>2019-08-16T12:22:37Z</time>
      </trkpt>
      <trkpt lat="48.00382" lon="6.75187">
        <ele>501.934204</ele>
        <time>2019-08-16T12:22:38Z</time>
      </trkpt>
      <trkpt lat="48.00384" lon="6.7519">
        <ele>502.10498</ele>
        <time>2019-08-16T12:22:39Z</time>
      </trkpt>
      <trkpt lat="48.00385" lon="6.75193">
        <ele>502.26767</ele>
        <time>2019-08-16T12:22:40Z</time>
      </trkpt>
      <trkpt lat="48.00386" lon="6.75196">
        <ele>502.423981</ele>
        <time>2019-08-16T12:22:41Z</time>
      </trkpt>
      <trkpt lat="48.00388" lon="6.75199">
        <ele>502.576813</ele>
        <time>2019-08-16T12:22:42Z</time>
      </trkpt>
      <trkpt lat="48.00389" lon="6.75202">
        <ele>502.805908</ele>
        <time>2019-08-16T12:22:43Z</time>
      </trkpt>
      <trkpt lat="48.0039" lon="6.75206">
        <ele>502.962189</ele>
        <time>2019-08-16T12:22:44Z</time>
      </trkpt>
      <trkpt lat="48.00391" lon="6.75209">
        <ele>503.123199</ele>
        <time>2019-08-16T12:22:45Z</time>
      </trkpt>
      <trkpt lat="48.00392" lon="6.75212">
        <ele>503.286102</ele>
        <time>2019-08-16T12:22:46Z</time>
      </trkpt>
      <trkpt lat="48.00393" lon="6.75215">
        <ele>503.531494</ele>
        <time>2019-08-16T12:22:47Z</time>
      </trkpt>
      <trkpt lat="48.00394" lon="6.75219">
        <ele>503.694855</ele>
        <time>2019-08-16T12:22:48Z</time>
      </trkpt>
      <trkpt lat="48.00396" lon="6.75222">
        <ele>503.860931</ele>
        <time>2019-08-16T12:22:49Z</time>
      </trkpt>
      <trkpt lat="48.00397" lon="6.75225">
        <ele>504.027832</ele>
        <time>2019-08-16T12:22:50Z</time>
      </trkpt>
      <trkpt lat="48.00398" lon="6.75229">
        <ele>504.200043</ele>
        <time>2019-08-16T12:22:51Z</time>
      </trkpt>
      <trkpt lat="48.00398" lon="6.75232">
        <ele>504.377289</ele>
        <time>2019-08-16T12:22:52Z</time>
      </trkpt>
      <trkpt lat="48.00399" lon="6.75236">
        <ele>504.55423</ele>
        <time>2019-08-16T12:22:53Z</time>
      </trkpt>
      <trkpt lat="48.004" lon="6.75239">
        <ele>504.72403</ele>
        <time>2019-08-16T12:22:54Z</time>
      </trkpt>
      <trkpt lat="48.00401" lon="6.75243">
        <ele>504.882904</ele>
        <time>2019-08-16T12:22:55Z</time>
      </trkpt>
      <trkpt lat="48.00401" lon="6.75246">
        <ele>505.037445</ele>
        <time>2019-08-16T12:22:56Z</time>
      </trkpt>
      <trkpt lat="48.00402" lon="6.7525">
        <ele>505.189087</ele>
        <time>2019-08-16T12:22:57Z</time>
      </trkpt>
      <trkpt lat="48.00403" lon="6.75253">
        <ele>505.337524</ele>
        <time>2019-08-16T12:22:58Z</time>
      </trkpt>
      <trkpt lat="48.00404" lon="6.75256">
        <ele>505.475098</ele>
        <time>2019-08-16T12:22:59Z</time>
      </trkpt>
      <trkpt lat="48.00405" lon="6.75259">
        <ele>505.602203</ele>
        <time>2019-08-16T12:23:00Z</time>
      </trkpt>
      <trkpt lat="48.00406" lon="6.75262">
        <ele>505.783691</ele>
        <time>2019-08-16T12:23:01Z</time>
      </trkpt>
      <trkpt lat="48.00407" lon="6.75265">
        <ele>505.900726</ele>
        <time>2019-08-16T12:23:02Z</time>
      </trkpt>
      <trkpt lat="48.00408" lon="6.75269">
        <ele>506.005951</ele>
        <time>2019-08-16T12:23:03Z</time>
      </trkpt>
      <trkpt lat="48.00409" lon="6.75272">
        <ele>506.106934</ele>
        <time>2019-08-16T12:23:04Z</time>
      </trkpt>
      <trkpt lat="48.00411" lon="6.75276">
        <ele>506.209808</ele>
        <time>2019-08-16T12:23:05Z</time>
      </trkpt>
      <trkpt lat="48.00411" lon="6.75279">
        <ele>506.31958</ele>
        <time>2019-08-16T12:23:06Z</time>
      </trkpt>
      <trkpt lat="48.00412" lon="6.75282">
        <ele>506.497314</ele>
        <time>2019-08-16T12:23:07Z</time>
      </trkpt>
      <trkpt lat="48.00414" lon="6.75285">
        <ele>506.620972</ele>
        <time>2019-08-16T12:23:08Z</time>
      </trkpt>
      <trkpt lat="48.00415" lon="6.75288">
        <ele>506.744476</ele>
        <time>2019-08-16T12:23:09Z</time>
      </trkpt>
      <trkpt lat="48.00416" lon="6.75291">
        <ele>506.86499</ele>
        <time>2019-08-16T12:23:10Z</time>
      </trkpt>
      <trkpt lat="48.00417" lon="6.75294">
        <ele>506.985931</ele>
        <time>2019-08-16T12:23:11Z</time>
      </trkpt>
      <trkpt lat="48.00419" lon="6.75297">
        <ele>507.104492</ele>
        <time>2019-08-16T12:23:12Z</time>
      </trkpt>
      <trkpt lat="48.0042" lon="6.753">
        <ele>507.217621</ele>
        <time>2019-08-16T12:23:13Z</time>
      </trkpt>
      <trkpt lat="48.00422" lon="6.75304">
        <ele>507.372406</ele>
        <time>2019-08-16T12:23:14Z</time>
      </trkpt>
      <trkpt lat="48.00423" lon="6.75307">
        <ele>507.466156</ele>
        <time>2019-08-16T12:23:15Z</time>
      </trkpt>
      <trkpt lat="48.00425" lon="6.75311">
        <ele>507.554535</ele>
        <time>2019-08-16T12:23:16Z</time>
      </trkpt>
      <trkpt lat="48.00427" lon="6.75314">
        <ele>507.640137</ele>
        <time>2019-08-16T12:23:17Z</time>
      </trkpt>
      <trkpt lat="48.00429" lon="6.75317">
        <ele>507.721191</ele>
        <time>2019-08-16T12:23:18Z</time>
      </trkpt>
      <trkpt lat="48.00431" lon="6.7532">
        <ele>507.794037</ele>
        <time>2019-08-16T12:23:19Z</time>
      </trkpt>
      <trkpt lat="48.00433" lon="6.75324">
        <ele>507.859863</ele>
        <time>2019-08-16T12:23:20Z</time>
      </trkpt>
      <trkpt lat="48.00436" lon="6.75327">
        <ele>507.922394</ele>
        <time>2019-08-16T12:23:21Z</time>
      </trkpt>
      <trkpt lat="48.00438" lon="6.7533">
        <ele>507.984497</ele>
        <time>2019-08-16T12:23:22Z</time>
      </trkpt>
      <trkpt lat="48.0044" lon="6.75334">
        <ele>508.07724</ele>
        <time>2019-08-16T12:23:23Z</time>
      </trkpt>
      <trkpt lat="48.00443" lon="6.75338">
        <ele>508.1362</ele>
        <time>2019-08-16T12:23:24Z</time>
      </trkpt>
      <trkpt lat="48.00445" lon="6.75341">
        <ele>508.186401</ele>
        <time>2019-08-16T12:23:25Z</time>
      </trkpt>
      <trkpt lat="48.00448" lon="6.75344">
        <ele>508.224243</ele>
        <time>2019-08-16T12:23:26Z</time>
      </trkpt>
      <trkpt lat="48.00449" lon="6.75348">
        <ele>508.237762</ele>
        <time>2019-08-16T12:23:27Z</time>
      </trkpt>
      <trkpt lat="48.00452" lon="6.75351">
        <ele>508.248871</ele>
        <time>2019-08-16T12:23:28Z</time>
      </trkpt>
      <trkpt lat="48.00454" lon="6.75355">
        <ele>508.264526</ele>
        <time>2019-08-16T12:23:29Z</time>
      </trkpt>
      <trkpt lat="48.00456" lon="6.75359">
        <ele>508.278534</ele>
        <time>2019-08-16T12:23:30Z</time>
      </trkpt>
      <trkpt lat="48.00458" lon="6.75363">
        <ele>508.288116</ele>
        <time>2019-08-16T12:23:31Z</time>
      </trkpt>
      <trkpt lat="48.00461" lon="6.75367">
        <ele>508.29187</ele>
        <time>2019-08-16T12:23:32Z</time>
      </trkpt>
      <trkpt lat="48.00463" lon="6.75371">
        <ele>508.290253</ele>
        <time>2019-08-16T12:23:33Z</time>
      </trkpt>
      <trkpt lat="48.00465" lon="6.75376">
        <ele>508.284912</ele>
        <time>2019-08-16T12:23:34Z</time>
      </trkpt>
      <trkpt lat="48.00466" lon="6.75381">
        <ele>508.281403</ele>
        <time>2019-08-16T12:23:35Z</time>
      </trkpt>
      <trkpt lat="48.00467" lon="6.75387">
        <ele>508.276947</ele>
        <time>2019-08-16T12:23:36Z</time>
      </trkpt>
      <trkpt lat="48.00467" lon="6.75392">
        <ele>508.270416</ele>
        <time>2019-08-16T12:23:37Z</time>
      </trkpt>
      <trkpt lat="48.00467" lon="6.75398">
        <ele>508.260895</ele>
        <time>2019-08-16T12:23:38Z</time>
      </trkpt>
      <trkpt lat="48.00467" lon="6.75403">
        <ele>508.246918</ele>
        <time>2019-08-16T12:23:39Z</time>
      </trkpt>
      <trkpt lat="48.00467" lon="6.75409">
        <ele>508.238373</ele>
        <time>2019-08-16T12:23:40Z</time>
      </trkpt>
      <trkpt lat="48.00468" lon="6.75414">
        <ele>508.238373</ele>
        <time>2019-08-16T12:23:41Z</time>
      </trkpt>
      <trkpt lat="48.00468" lon="6.7542">
        <ele>508.245453</ele>
        <time>2019-08-16T12:23:42Z</time>
      </trkpt>
      <trkpt lat="48.00468" lon="6.75425">
        <ele>508.265503</ele>
        <time>2019-08-16T12:23:43Z</time>
      </trkpt>
      <trkpt lat="48.0047" lon="6.7543">
        <ele>508.294952</ele>
        <time>2019-08-16T12:23:44Z</time>
      </trkpt>
      <trkpt lat="48.00472" lon="6.75434">
        <ele>508.326935</ele>
        <time>2019-08-16T12:23:45Z</time>
      </trkpt>
      <trkpt lat="48.00473" lon="6.75439">
        <ele>508.36853</ele>
        <time>2019-08-16T12:23:46Z</time>
      </trkpt>
      <trkpt lat="48.00476" lon="6.75443">
        <ele>508.420654</ele>
        <time>2019-08-16T12:23:47Z</time>
      </trkpt>
      <trkpt lat="48.00478" lon="6.75447">
        <ele>508.483246</ele>
        <time>2019-08-16T12:23:48Z</time>
      </trkpt>
      <trkpt lat="48.00481" lon="6.7545">
        <ele>508.54892</ele>
        <time>2019-08-16T12:23:49Z</time>
      </trkpt>
      <trkpt lat="48.00484" lon="6.75454">
        <ele>508.645996</ele>
        <time>2019-08-16T12:23:50Z</time>
      </trkpt>
      <trkpt lat="48.00486" lon="6.75457">
        <ele>508.714203</ele>
        <time>2019-08-16T12:23:51Z</time>
      </trkpt>
      <trkpt lat="48.00489" lon="6.75459">
        <ele>508.787109</ele>
        <time>2019-08-16T12:23:52Z</time>
      </trkpt>
      <trkpt lat="48.00493" lon="6.75462">
        <ele>508.898163</ele>
        <time>2019-08-16T12:23:53Z</time>
      </trkpt>
      <trkpt lat="48.00496" lon="6.75466">
        <ele>508.966187</ele>
        <time>2019-08-16T12:23:54Z</time>
      </trkpt>
      <trkpt lat="48.00499" lon="6.75469">
        <ele>509.023712</ele>
        <time>2019-08-16T12:23:55Z</time>
      </trkpt>
      <trkpt lat="48.00501" lon="6.75473">
        <ele>509.099396</ele>
        <time>2019-08-16T12:23:56Z</time>
      </trkpt>
      <trkpt lat="48.00504" lon="6.75476">
        <ele>509.147217</ele>
        <time>2019-08-16T12:23:57Z</time>
      </trkpt>
      <trkpt lat="48.00507" lon="6.75479">
        <ele>509.185913</ele>
        <time>2019-08-16T12:23:58Z</time>
      </trkpt>
      <trkpt lat="48.0051" lon="6.75483">
        <ele>509.219269</ele>
        <time>2019-08-16T12:23:59Z</time>
      </trkpt>
      <trkpt lat="48.00512" lon="6.75486">
        <ele>509.230591</ele>
        <time>2019-08-16T12:24:00Z</time>
      </trkpt>
      <trkpt lat="48.00515" lon="6.75489">
        <ele>509.242188</ele>
        <time>2019-08-16T12:24:01Z</time>
      </trkpt>
      <trkpt lat="48.00517" lon="6.75493">
        <ele>509.266327</ele>
        <time>2019-08-16T12:24:02Z</time>
      </trkpt>
      <trkpt lat="48.00519" lon="6.75498">
        <ele>509.285889</ele>
        <time>2019-08-16T12:24:03Z</time>
      </trkpt>
      <trkpt lat="48.00521" lon="6.75502">
        <ele>509.306549</ele>
        <time>2019-08-16T12:24:04Z</time>
      </trkpt>
      <trkpt lat="48.00523" lon="6.75506">
        <ele>509.332916</ele>
        <time>2019-08-16T12:24:05Z</time>
      </trkpt>
      <trkpt lat="48.00525" lon="6.75509">
        <ele>509.366852</ele>
        <time>2019-08-16T12:24:06Z</time>
      </trkpt>
      <trkpt lat="48.00528" lon="6.75512">
        <ele>509.433685</ele>
        <time>2019-08-16T12:24:07Z</time>
      </trkpt>
      <trkpt lat="48.00531" lon="6.75515">
        <ele>509.493927</ele>
        <time>2019-08-16T12:24:08Z</time>
      </trkpt>
      <trkpt lat="48.00533" lon="6.75518">
        <ele>509.568695</ele>
        <time>2019-08-16T12:24:09Z</time>
      </trkpt>
      <trkpt lat="48.00536" lon="6.75521">
        <ele>509.704803</ele>
        <time>2019-08-16T12:24:10Z</time>
      </trkpt>
      <trkpt lat="48.00539" lon="6.75524">
        <ele>509.805939</ele>
        <time>2019-08-16T12:24:11Z</time>
      </trkpt>
      <trkpt lat="48.00542" lon="6.75526">
        <ele>509.910858</ele>
        <time>2019-08-16T12:24:12Z</time>
      </trkpt>
      <trkpt lat="48.00545" lon="6.75528">
        <ele>510.061493</ele>
        <time>2019-08-16T12:24:13Z</time>
      </trkpt>
      <trkpt lat="48.00548" lon="6.75531">
        <ele>510.160278</ele>
        <time>2019-08-16T12:24:14Z</time>
      </trkpt>
      <trkpt lat="48.00551" lon="6.75534">
        <ele>510.255951</ele>
        <time>2019-08-16T12:24:15Z</time>
      </trkpt>
      <trkpt lat="48.00554" lon="6.75537">
        <ele>510.392487</ele>
        <time>2019-08-16T12:24:16Z</time>
      </trkpt>
      <trkpt lat="48.00557" lon="6.7554">
        <ele>510.473969</ele>
        <time>2019-08-16T12:24:17Z</time>
      </trkpt>
      <trkpt lat="48.00559" lon="6.75543">
        <ele>510.546661</ele>
        <time>2019-08-16T12:24:18Z</time>
      </trkpt>
      <trkpt lat="48.00562" lon="6.75545">
        <ele>510.642334</ele>
        <time>2019-08-16T12:24:19Z</time>
      </trkpt>
      <trkpt lat="48.00565" lon="6.75548">
        <ele>510.701385</ele>
        <time>2019-08-16T12:24:20Z</time>
      </trkpt>
      <trkpt lat="48.00567" lon="6.7555">
        <ele>510.754364</ele>
        <time>2019-08-16T12:24:21Z</time>
      </trkpt>
      <trkpt lat="48.0057" lon="6.75553">
        <ele>510.805206</ele>
        <time>2019-08-16T12:24:22Z</time>
      </trkpt>
      <trkpt lat="48.00573" lon="6.75555">
        <ele>510.890839</ele>
        <time>2019-08-16T12:24:23Z</time>
      </trkpt>
      <trkpt lat="48.00575" lon="6.75557">
        <ele>510.961884</ele>
        <time>2019-08-16T12:24:24Z</time>
      </trkpt>
      <trkpt lat="48.00577" lon="6.7556">
        <ele>511.044098</ele>
        <time>2019-08-16T12:24:25Z</time>
      </trkpt>
      <trkpt lat="48.0058" lon="6.75562">
        <ele>511.176666</ele>
        <time>2019-08-16T12:24:26Z</time>
      </trkpt>
      <trkpt lat="48.00581" lon="6.75564">
        <ele>511.222168</ele>
        <time>2019-08-16T12:24:27Z</time>
      </trkpt>
      <trkpt lat="48.00583" lon="6.75566">
        <ele>511.269501</ele>
        <time>2019-08-16T12:24:28Z</time>
      </trkpt>
      <trkpt lat="48.00586" lon="6.75567">
        <ele>511.373199</ele>
        <time>2019-08-16T12:24:29Z</time>
      </trkpt>
      <trkpt lat="48.00588" lon="6.75569">
        <ele>511.559235</ele>
        <time>2019-08-16T12:24:30Z</time>
      </trkpt>
      <trkpt lat="48.0059" lon="6.75571">
        <ele>511.699371</ele>
        <time>2019-08-16T12:24:31Z</time>
      </trkpt>
      <trkpt lat="48.00592" lon="6.75573">
        <ele>511.851593</ele>
        <time>2019-08-16T12:24:32Z</time>
      </trkpt>
      <trkpt lat="48.00594" lon="6.75574">
        <ele>512.015808</ele>
        <time>2019-08-16T12:24:33Z</time>
      </trkpt>
      <trkpt lat="48.00596" lon="6.75576">
        <ele>512.280579</ele>
        <time>2019-08-16T12:24:34Z</time>
      </trkpt>
      <trkpt lat="48.00597" lon="6.75578">
        <ele>512.464172</ele>
        <time>2019-08-16T12:24:35Z</time>
      </trkpt>
      <trkpt lat="48.00599" lon="6.7558">
        <ele>512.645569</ele>
        <time>2019-08-16T12:24:36Z</time>
      </trkpt>
      <trkpt lat="48.00601" lon="6.75582">
        <ele>512.897888</ele>
        <time>2019-08-16T12:24:37Z</time>
      </trkpt>
      <trkpt lat="48.00603" lon="6.75584">
        <ele>513.056885</ele>
        <time>2019-08-16T12:24:38Z</time>
      </trkpt>
      <trkpt lat="48.00604" lon="6.75586">
        <ele>513.216919</ele>
        <time>2019-08-16T12:24:39Z</time>
      </trkpt>
      <trkpt lat="48.00606" lon="6.75588">
        <ele>513.461365</ele>
        <time>2019-08-16T12:24:40Z</time>
      </trkpt>
      <trkpt lat="48.00608" lon="6.75591">
        <ele>513.620056</ele>
        <time>2019-08-16T12:24:41Z</time>
      </trkpt>
      <trkpt lat="48.00609" lon="6.75593">
        <ele>513.775757</ele>
        <time>2019-08-16T12:24:42Z</time>
      </trkpt>
      <trkpt lat="48.00611" lon="6.75595">
        <ele>514.016418</ele>
        <time>2019-08-16T12:24:43Z</time>
      </trkpt>
      <trkpt lat="48.00613" lon="6.75597">
        <ele>514.179016</ele>
        <time>2019-08-16T12:24:44Z</time>
      </trkpt>
      <trkpt lat="48.00613" lon="6.756">
        <ele>514.337463</ele>
        <time>2019-08-16T12:24:45Z</time>
      </trkpt>
      <trkpt lat="48.00615" lon="6.75603">
        <ele>514.492126</ele>
        <time>2019-08-16T12:24:46Z</time>
      </trkpt>
      <trkpt lat="48.00616" lon="6.75605">
        <ele>514.649536</ele>
        <time>2019-08-16T12:24:47Z</time>
      </trkpt>
      <trkpt lat="48.00617" lon="6.75608">
        <ele>514.811829</ele>
        <time>2019-08-16T12:24:48Z</time>
      </trkpt>
      <trkpt lat="48.00619" lon="6.7561">
        <ele>514.979675</ele>
        <time>2019-08-16T12:24:49Z</time>
      </trkpt>
      <trkpt lat="48.0062" lon="6.75613">
        <ele>515.149292</ele>
        <time>2019-08-16T12:24:50Z</time>
      </trkpt>
      <trkpt lat="48.00621" lon="6.75616">
        <ele>515.319458</ele>
        <time>2019-08-16T12:24:51Z</time>
      </trkpt>
      <trkpt lat="48.00623" lon="6.75619">
        <ele>515.486267</ele>
        <time>2019-08-16T12:24:52Z</time>
      </trkpt>
      <trkpt lat="48.00624" lon="6.75622">
        <ele>515.651123</ele>
        <time>2019-08-16T12:24:53Z</time>
      </trkpt>
      <trkpt lat="48.00625" lon="6.75625">
        <ele>515.814453</ele>
        <time>2019-08-16T12:24:54Z</time>
      </trkpt>
      <trkpt lat="48.00626" lon="6.75628">
        <ele>516.067932</ele>
        <time>2019-08-16T12:24:55Z</time>
      </trkpt>
      <trkpt lat="48.00628" lon="6.75632">
        <ele>516.241882</ele>
        <time>2019-08-16T12:24:56Z</time>
      </trkpt>
      <trkpt lat="48.00631" lon="6.75635">
        <ele>516.412354</ele>
        <time>2019-08-16T12:24:57Z</time>
      </trkpt>
      <trkpt lat="48.00633" lon="6.75639">
        <ele>516.643616</ele>
        <time>2019-08-16T12:24:58Z</time>
      </trkpt>
      <trkpt lat="48.00636" lon="6.75643">
        <ele>516.769958</ele>
        <time>2019-08-16T12:24:59Z</time>
      </trkpt>
      <trkpt lat="48.00639" lon="6.75647">
        <ele>516.869812</ele>
        <time>2019-08-16T12:25:00Z</time>
      </trkpt>
      <trkpt lat="48.00641" lon="6.75651">
        <ele>516.968262</ele>
        <time>2019-08-16T12:25:01Z</time>
      </trkpt>
      <trkpt lat="48.00644" lon="6.75654">
        <ele>516.993591</ele>
        <time>2019-08-16T12:25:02Z</time>
      </trkpt>
      <trkpt lat="48.00647" lon="6.75658">
        <ele>516.995361</ele>
        <time>2019-08-16T12:25:03Z</time>
      </trkpt>
      <trkpt lat="48.00649" lon="6.75661">
        <ele>516.982727</ele>
        <time>2019-08-16T12:25:04Z</time>
      </trkpt>
      <trkpt lat="48.00652" lon="6.75664">
        <ele>516.965515</ele>
        <time>2019-08-16T12:25:05Z</time>
      </trkpt>
      <trkpt lat="48.00655" lon="6.75667">
        <ele>516.960754</ele>
        <time>2019-08-16T12:25:06Z</time>
      </trkpt>
      <trkpt lat="48.00658" lon="6.7567">
        <ele>516.968323</ele>
        <time>2019-08-16T12:25:07Z</time>
      </trkpt>
      <trkpt lat="48.00661" lon="6.75673">
        <ele>517.004028</ele>
        <time>2019-08-16T12:25:08Z</time>
      </trkpt>
      <trkpt lat="48.00663" lon="6.75677">
        <ele>517.065247</ele>
        <time>2019-08-16T12:25:09Z</time>
      </trkpt>
      <trkpt lat="48.00666" lon="6.7568">
        <ele>517.142456</ele>
        <time>2019-08-16T12:25:10Z</time>
      </trkpt>
      <trkpt lat="48.00668" lon="6.75682">
        <ele>517.232117</ele>
        <time>2019-08-16T12:25:11Z</time>
      </trkpt>
      <trkpt lat="48.0067" lon="6.75685">
        <ele>517.36908</ele>
        <time>2019-08-16T12:25:12Z</time>
      </trkpt>
      <trkpt lat="48.00672" lon="6.75687">
        <ele>517.457703</ele>
        <time>2019-08-16T12:25:13Z</time>
      </trkpt>
      <trkpt lat="48.00674" lon="6.7569">
        <ele>517.547913</ele>
        <time>2019-08-16T12:25:14Z</time>
      </trkpt>
      <trkpt lat="48.00675" lon="6.75692">
        <ele>517.649353</ele>
        <time>2019-08-16T12:25:15Z</time>
      </trkpt>
      <trkpt lat="48.00677" lon="6.75695">
        <ele>517.824402</ele>
        <time>2019-08-16T12:25:16Z</time>
      </trkpt>
      <trkpt lat="48.00678" lon="6.75697">
        <ele>517.950745</ele>
        <time>2019-08-16T12:25:17Z</time>
      </trkpt>
      <trkpt lat="48.0068" lon="6.757">
        <ele>518.080505</ele>
        <time>2019-08-16T12:25:18Z</time>
      </trkpt>
      <trkpt lat="48.00681" lon="6.75702">
        <ele>518.213684</ele>
        <time>2019-08-16T12:25:19Z</time>
      </trkpt>
      <trkpt lat="48.00683" lon="6.75704">
        <ele>518.354309</ele>
        <time>2019-08-16T12:25:20Z</time>
      </trkpt>
      <trkpt lat="48.00684" lon="6.75706">
        <ele>518.58197</ele>
        <time>2019-08-16T12:25:21Z</time>
      </trkpt>
      <trkpt lat="48.00686" lon="6.75709">
        <ele>518.739929</ele>
        <time>2019-08-16T12:25:22Z</time>
      </trkpt>
      <trkpt lat="48.00687" lon="6.75711">
        <ele>518.90332</ele>
        <time>2019-08-16T12:25:23Z</time>
      </trkpt>
      <trkpt lat="48.00688" lon="6.75714">
        <ele>519.074036</ele>
        <time>2019-08-16T12:25:24Z</time>
      </trkpt>
      <trkpt lat="48.0069" lon="6.75717">
        <ele>519.252686</ele>
        <time>2019-08-16T12:25:25Z</time>
      </trkpt>
      <trkpt lat="48.00691" lon="6.7572">
        <ele>519.43512</ele>
        <time>2019-08-16T12:25:26Z</time>
      </trkpt>
      <trkpt lat="48.00691" lon="6.75723">
        <ele>519.704529</ele>
        <time>2019-08-16T12:25:27Z</time>
      </trkpt>
      <trkpt lat="48.00692" lon="6.75726">
        <ele>519.794495</ele>
        <time>2019-08-16T12:25:28Z</time>
      </trkpt>
      <trkpt lat="48.00693" lon="6.75729">
        <ele>519.885559</ele>
        <time>2019-08-16T12:25:29Z</time>
      </trkpt>
      <trkpt lat="48.00694" lon="6.75733">
        <ele>520.067444</ele>
        <time>2019-08-16T12:25:30Z</time>
      </trkpt>
      <trkpt lat="48.00695" lon="6.75736">
        <ele>520.246765</ele>
        <time>2019-08-16T12:25:31Z</time>
      </trkpt>
      <trkpt lat="48.00696" lon="6.7574">
        <ele>520.417908</ele>
        <time>2019-08-16T12:25:32Z</time>
      </trkpt>
      <trkpt lat="48.00697" lon="6.75744">
        <ele>520.573792</ele>
        <time>2019-08-16T12:25:33Z</time>
      </trkpt>
      <trkpt lat="48.00697" lon="6.75748">
        <ele>520.713867</ele>
        <time>2019-08-16T12:25:34Z</time>
      </trkpt>
      <trkpt lat="48.00699" lon="6.75752">
        <ele>520.834961</ele>
        <time>2019-08-16T12:25:35Z</time>
      </trkpt>
      <trkpt lat="48.00699" lon="6.75756">
        <ele>520.94165</ele>
        <time>2019-08-16T12:25:36Z</time>
      </trkpt>
      <trkpt lat="48.007" lon="6.75761">
        <ele>521.031189</ele>
        <time>2019-08-16T12:25:37Z</time>
      </trkpt>
      <trkpt lat="48.00701" lon="6.75765">
        <ele>521.105042</ele>
        <time>2019-08-16T12:25:38Z</time>
      </trkpt>
      <trkpt lat="48.00703" lon="6.75768">
        <ele>521.158325</ele>
        <time>2019-08-16T12:25:39Z</time>
      </trkpt>
      <trkpt lat="48.00705" lon="6.75771">
        <ele>521.201782</ele>
        <time>2019-08-16T12:25:40Z</time>
      </trkpt>
      <trkpt lat="48.00707" lon="6.75774">
        <ele>521.220886</ele>
        <time>2019-08-16T12:25:41Z</time>
      </trkpt>
      <trkpt lat="48.00708" lon="6.75776">
        <ele>521.248108</ele>
        <time>2019-08-16T12:25:42Z</time>
      </trkpt>
      <trkpt lat="48.0071" lon="6.75779">
        <ele>521.300842</ele>
        <time>2019-08-16T12:25:43Z</time>
      </trkpt>
      <trkpt lat="48.00713" lon="6.75781">
        <ele>521.335632</ele>
        <time>2019-08-16T12:25:44Z</time>
      </trkpt>
      <trkpt lat="48.00714" lon="6.75784">
        <ele>521.361816</ele>
        <time>2019-08-16T12:25:45Z</time>
      </trkpt>
      <trkpt lat="48.00716" lon="6.75787">
        <ele>521.387268</ele>
        <time>2019-08-16T12:25:46Z</time>
      </trkpt>
      <trkpt lat="48.00717" lon="6.75789">
        <ele>521.444885</ele>
        <time>2019-08-16T12:25:47Z</time>
      </trkpt>
      <trkpt lat="48.00719" lon="6.75791">
        <ele>521.502686</ele>
        <time>2019-08-16T12:25:48Z</time>
      </trkpt>
      <trkpt lat="48.0072" lon="6.75794">
        <ele>521.572571</ele>
        <time>2019-08-16T12:25:49Z</time>
      </trkpt>
      <trkpt lat="48.00721" lon="6.75796">
        <ele>521.663879</ele>
        <time>2019-08-16T12:25:50Z</time>
      </trkpt>
      <trkpt lat="48.00722" lon="6.75799">
        <ele>521.776184</ele>
        <time>2019-08-16T12:25:51Z</time>
      </trkpt>
      <trkpt lat="48.00723" lon="6.75801">
        <ele>521.913513</ele>
        <time>2019-08-16T12:25:52Z</time>
      </trkpt>
      <trkpt lat="48.00723" lon="6.75804">
        <ele>522.066711</ele>
        <time>2019-08-16T12:25:53Z</time>
      </trkpt>
      <trkpt lat="48.00724" lon="6.75807">
        <ele>522.232422</ele>
        <time>2019-08-16T12:25:54Z</time>
      </trkpt>
      <trkpt lat="48.00725" lon="6.75809">
        <ele>522.490662</ele>
        <time>2019-08-16T12:25:55Z</time>
      </trkpt>
      <trkpt lat="48.00726" lon="6.75812">
        <ele>522.669128</ele>
        <time>2019-08-16T12:25:56Z</time>
      </trkpt>
      <trkpt lat="48.00726" lon="6.75814">
        <ele>522.852295</ele>
        <time>2019-08-16T12:25:57Z</time>
      </trkpt>
      <trkpt lat="48.00727" lon="6.75817">
        <ele>523.037781</ele>
        <time>2019-08-16T12:25:58Z</time>
      </trkpt>
      <trkpt lat="48.00727" lon="6.75819">
        <ele>523.224548</ele>
        <time>2019-08-16T12:25:59Z</time>
      </trkpt>
      <trkpt lat="48.00727" lon="6.75822">
        <ele>523.414124</ele>
        <time>2019-08-16T12:26:00Z</time>
      </trkpt>
      <trkpt lat="48.00728" lon="6.75824">
        <ele>523.610535</ele>
        <time>2019-08-16T12:26:01Z</time>
      </trkpt>
      <trkpt lat="48.00728" lon="6.75827">
        <ele>523.812012</ele>
        <time>2019-08-16T12:26:02Z</time>
      </trkpt>
      <trkpt lat="48.00729" lon="6.7583">
        <ele>524.120972</ele>
        <time>2019-08-16T12:26:03Z</time>
      </trkpt>
      <trkpt lat="48.00729" lon="6.75832">
        <ele>524.324036</ele>
        <time>2019-08-16T12:26:04Z</time>
      </trkpt>
      <trkpt lat="48.00729" lon="6.75835">
        <ele>524.527039</ele>
        <time>2019-08-16T12:26:05Z</time>
      </trkpt>
      <trkpt lat="48.0073" lon="6.75837">
        <ele>524.728943</ele>
        <time>2019-08-16T12:26:06Z</time>
      </trkpt>
      <trkpt lat="48.0073" lon="6.7584">
        <ele>525.037964</ele>
        <time>2019-08-16T12:26:07Z</time>
      </trkpt>
      <trkpt lat="48.00731" lon="6.75842">
        <ele>525.24823</ele>
        <time>2019-08-16T12:26:08Z</time>
      </trkpt>
      <trkpt lat="48.00732" lon="6.75844">
        <ele>525.461487</ele>
        <time>2019-08-16T12:26:09Z</time>
      </trkpt>
      <trkpt lat="48.00732" lon="6.75846">
        <ele>525.677002</ele>
        <time>2019-08-16T12:26:10Z</time>
      </trkpt>
      <trkpt lat="48.00733" lon="6.75852">
        <ele>526.117004</ele>
        <time>2019-08-16T12:26:12Z</time>
      </trkpt>
      <trkpt lat="48.00734" lon="6.75854">
        <ele>526.336182</ele>
        <time>2019-08-16T12:26:13Z</time>
      </trkpt>
      <trkpt lat="48.00734" lon="6.75856">
        <ele>526.549255</ele>
        <time>2019-08-16T12:26:14Z</time>
      </trkpt>
      <trkpt lat="48.00735" lon="6.75859">
        <ele>526.756409</ele>
        <time>2019-08-16T12:26:15Z</time>
      </trkpt>
      <trkpt lat="48.00736" lon="6.75861">
        <ele>526.956421</ele>
        <time>2019-08-16T12:26:16Z</time>
      </trkpt>
      <trkpt lat="48.00736" lon="6.75863">
        <ele>527.243958</ele>
        <time>2019-08-16T12:26:17Z</time>
      </trkpt>
      <trkpt lat="48.00737" lon="6.75865">
        <ele>527.433716</ele>
        <time>2019-08-16T12:26:18Z</time>
      </trkpt>
      <trkpt lat="48.00737" lon="6.75867">
        <ele>527.63092</ele>
        <time>2019-08-16T12:26:19Z</time>
      </trkpt>
      <trkpt lat="48.00738" lon="6.7587">
        <ele>527.839294</ele>
        <time>2019-08-16T12:26:20Z</time>
      </trkpt>
      <trkpt lat="48.00739" lon="6.75872">
        <ele>528.059265</ele>
        <time>2019-08-16T12:26:21Z</time>
      </trkpt>
      <trkpt lat="48.0074" lon="6.75874">
        <ele>528.289246</ele>
        <time>2019-08-16T12:26:22Z</time>
      </trkpt>
      <trkpt lat="48.0074" lon="6.75876">
        <ele>528.52832</ele>
        <time>2019-08-16T12:26:23Z</time>
      </trkpt>
      <trkpt lat="48.00741" lon="6.75878">
        <ele>528.775513</ele>
        <time>2019-08-16T12:26:24Z</time>
      </trkpt>
      <trkpt lat="48.00742" lon="6.75881">
        <ele>529.025085</ele>
        <time>2019-08-16T12:26:25Z</time>
      </trkpt>
      <trkpt lat="48.00742" lon="6.75883">
        <ele>529.269714</ele>
        <time>2019-08-16T12:26:26Z</time>
      </trkpt>
      <trkpt lat="48.00743" lon="6.75885">
        <ele>529.505554</ele>
        <time>2019-08-16T12:26:27Z</time>
      </trkpt>
      <trkpt lat="48.00744" lon="6.75887">
        <ele>529.731506</ele>
        <time>2019-08-16T12:26:28Z</time>
      </trkpt>
      <trkpt lat="48.00745" lon="6.7589">
        <ele>529.841187</ele>
        <time>2019-08-16T12:26:29Z</time>
      </trkpt>
      <trkpt lat="48.00746" lon="6.75892">
        <ele>529.949463</ele>
        <time>2019-08-16T12:26:30Z</time>
      </trkpt>
      <trkpt lat="48.00746" lon="6.75894">
        <ele>530.161865</ele>
        <time>2019-08-16T12:26:31Z</time>
      </trkpt>
      <trkpt lat="48.00747" lon="6.75896">
        <ele>530.484192</ele>
        <time>2019-08-16T12:26:32Z</time>
      </trkpt>
      <trkpt lat="48.00748" lon="6.75898">
        <ele>530.710144</ele>
        <time>2019-08-16T12:26:33Z</time>
      </trkpt>
      <trkpt lat="48.00749" lon="6.759">
        <ele>530.944519</ele>
        <time>2019-08-16T12:26:34Z</time>
      </trkpt>
      <trkpt lat="48.0075" lon="6.75902">
        <ele>531.188965</ele>
        <time>2019-08-16T12:26:35Z</time>
      </trkpt>
      <trkpt lat="48.00751" lon="6.75904">
        <ele>531.440918</ele>
        <time>2019-08-16T12:26:36Z</time>
      </trkpt>
      <trkpt lat="48.00752" lon="6.75906">
        <ele>531.694519</ele>
        <time>2019-08-16T12:26:37Z</time>
      </trkpt>
      <trkpt lat="48.00753" lon="6.75908">
        <ele>532.061279</ele>
        <time>2019-08-16T12:26:38Z</time>
      </trkpt>
      <trkpt lat="48.00753" lon="6.7591">
        <ele>532.294861</ele>
        <time>2019-08-16T12:26:39Z</time>
      </trkpt>
      <trkpt lat="48.00755" lon="6.75912">
        <ele>532.519348</ele>
        <time>2019-08-16T12:26:40Z</time>
      </trkpt>
      <trkpt lat="48.00755" lon="6.75913">
        <ele>532.735535</ele>
        <time>2019-08-16T12:26:41Z</time>
      </trkpt>
      <trkpt lat="48.00756" lon="6.75915">
        <ele>532.940979</ele>
        <time>2019-08-16T12:26:42Z</time>
      </trkpt>
      <trkpt lat="48.00757" lon="6.75917">
        <ele>533.236023</ele>
        <time>2019-08-16T12:26:43Z</time>
      </trkpt>
      <trkpt lat="48.00758" lon="6.75919">
        <ele>533.423401</ele>
        <time>2019-08-16T12:26:44Z</time>
      </trkpt>
      <trkpt lat="48.00759" lon="6.75921">
        <ele>533.604065</ele>
        <time>2019-08-16T12:26:45Z</time>
      </trkpt>
      <trkpt lat="48.0076" lon="6.75923">
        <ele>533.777832</ele>
        <time>2019-08-16T12:26:46Z</time>
      </trkpt>
      <trkpt lat="48.00761" lon="6.75925">
        <ele>533.951965</ele>
        <time>2019-08-16T12:26:47Z</time>
      </trkpt>
      <trkpt lat="48.00763" lon="6.75927">
        <ele>534.131165</ele>
        <time>2019-08-16T12:26:48Z</time>
      </trkpt>
      <trkpt lat="48.00764" lon="6.75928">
        <ele>534.315613</ele>
        <time>2019-08-16T12:26:49Z</time>
      </trkpt>
      <trkpt lat="48.00765" lon="6.7593">
        <ele>534.605286</ele>
        <time>2019-08-16T12:26:50Z</time>
      </trkpt>
      <trkpt lat="48.00766" lon="6.75932">
        <ele>534.812195</ele>
        <time>2019-08-16T12:26:51Z</time>
      </trkpt>
      <trkpt lat="48.00767" lon="6.75934">
        <ele>535.028198</ele>
        <time>2019-08-16T12:26:52Z</time>
      </trkpt>
      <trkpt lat="48.00768" lon="6.75936">
        <ele>535.348694</ele>
        <time>2019-08-16T12:26:53Z</time>
      </trkpt>
      <trkpt lat="48.00769" lon="6.75938">
        <ele>535.551025</ele>
        <time>2019-08-16T12:26:54Z</time>
      </trkpt>
      <trkpt lat="48.0077" lon="6.75939">
        <ele>535.745544</ele>
        <time>2019-08-16T12:26:55Z</time>
      </trkpt>
      <trkpt lat="48.00771" lon="6.75941">
        <ele>535.938965</ele>
        <time>2019-08-16T12:26:56Z</time>
      </trkpt>
      <trkpt lat="48.00772" lon="6.75943">
        <ele>536.235352</ele>
        <time>2019-08-16T12:26:57Z</time>
      </trkpt>
      <trkpt lat="48.00773" lon="6.75945">
        <ele>536.431702</ele>
        <time>2019-08-16T12:26:58Z</time>
      </trkpt>
      <trkpt lat="48.00774" lon="6.75947">
        <ele>536.620056</ele>
        <time>2019-08-16T12:26:59Z</time>
      </trkpt>
      <trkpt lat="48.00774" lon="6.75949">
        <ele>536.795105</ele>
        <time>2019-08-16T12:27:00Z</time>
      </trkpt>
      <trkpt lat="48.00775" lon="6.75951">
        <ele>537.034668</ele>
        <time>2019-08-16T12:27:01Z</time>
      </trkpt>
      <trkpt lat="48.00776" lon="6.75953">
        <ele>537.186157</ele>
        <time>2019-08-16T12:27:02Z</time>
      </trkpt>
      <trkpt lat="48.00776" lon="6.75955">
        <ele>537.339661</ele>
        <time>2019-08-16T12:27:03Z</time>
      </trkpt>
      <trkpt lat="48.00777" lon="6.75957">
        <ele>537.496338</ele>
        <time>2019-08-16T12:27:04Z</time>
      </trkpt>
      <trkpt lat="48.00778" lon="6.75959">
        <ele>537.658508</ele>
        <time>2019-08-16T12:27:05Z</time>
      </trkpt>
      <trkpt lat="48.00779" lon="6.75962">
        <ele>537.830872</ele>
        <time>2019-08-16T12:27:06Z</time>
      </trkpt>
      <trkpt lat="48.0078" lon="6.75964">
        <ele>538.115784</ele>
        <time>2019-08-16T12:27:07Z</time>
      </trkpt>
      <trkpt lat="48.00781" lon="6.75965">
        <ele>538.32074</ele>
        <time>2019-08-16T12:27:08Z</time>
      </trkpt>
      <trkpt lat="48.00782" lon="6.75967">
        <ele>538.530945</ele>
        <time>2019-08-16T12:27:09Z</time>
      </trkpt>
      <trkpt lat="48.00783" lon="6.75969">
        <ele>538.737549</ele>
        <time>2019-08-16T12:27:10Z</time>
      </trkpt>
      <trkpt lat="48.00784" lon="6.75971">
        <ele>538.93457</ele>
        <time>2019-08-16T12:27:11Z</time>
      </trkpt>
      <trkpt lat="48.00785" lon="6.75972">
        <ele>539.120728</ele>
        <time>2019-08-16T12:27:12Z</time>
      </trkpt>
      <trkpt lat="48.00787" lon="6.75974">
        <ele>539.387756</ele>
        <time>2019-08-16T12:27:13Z</time>
      </trkpt>
      <trkpt lat="48.00788" lon="6.75976">
        <ele>539.56073</ele>
        <time>2019-08-16T12:27:14Z</time>
      </trkpt>
      <trkpt lat="48.00789" lon="6.75977">
        <ele>539.731506</ele>
        <time>2019-08-16T12:27:15Z</time>
      </trkpt>
      <trkpt lat="48.0079" lon="6.75978">
        <ele>539.904114</ele>
        <time>2019-08-16T12:27:16Z</time>
      </trkpt>
      <trkpt lat="48.00791" lon="6.75979">
        <ele>540.082092</ele>
        <time>2019-08-16T12:27:17Z</time>
      </trkpt>
      <trkpt lat="48.00792" lon="6.75981">
        <ele>540.265686</ele>
        <time>2019-08-16T12:27:18Z</time>
      </trkpt>
      <trkpt lat="48.00794" lon="6.75983">
        <ele>540.545776</ele>
        <time>2019-08-16T12:27:19Z</time>
      </trkpt>
      <trkpt lat="48.00795" lon="6.75984">
        <ele>540.733459</ele>
        <time>2019-08-16T12:27:20Z</time>
      </trkpt>
      <trkpt lat="48.00796" lon="6.75986">
        <ele>540.919495</ele>
        <time>2019-08-16T12:27:21Z</time>
      </trkpt>
      <trkpt lat="48.00798" lon="6.75987">
        <ele>541.194763</ele>
        <time>2019-08-16T12:27:22Z</time>
      </trkpt>
      <trkpt lat="48.00799" lon="6.75988">
        <ele>541.377869</ele>
        <time>2019-08-16T12:27:23Z</time>
      </trkpt>
      <trkpt lat="48.008" lon="6.75989">
        <ele>541.559021</ele>
        <time>2019-08-16T12:27:24Z</time>
      </trkpt>
      <trkpt lat="48.00802" lon="6.75991">
        <ele>541.830505</ele>
        <time>2019-08-16T12:27:25Z</time>
      </trkpt>
      <trkpt lat="48.00803" lon="6.75993">
        <ele>542.016418</ele>
        <time>2019-08-16T12:27:26Z</time>
      </trkpt>
      <trkpt lat="48.00804" lon="6.75995">
        <ele>542.206238</ele>
        <time>2019-08-16T12:27:27Z</time>
      </trkpt>
      <trkpt lat="48.00805" lon="6.75996">
        <ele>542.483948</ele>
        <time>2019-08-16T12:27:28Z</time>
      </trkpt>
      <trkpt lat="48.00806" lon="6.75998">
        <ele>542.575378</ele>
        <time>2019-08-16T12:27:29Z</time>
      </trkpt>
      <trkpt lat="48.00808" lon="6.75999">
        <ele>542.851563</ele>
        <time>2019-08-16T12:27:30Z</time>
      </trkpt>
      <trkpt lat="48.00809" lon="6.76001">
        <ele>543.032349</ele>
        <time>2019-08-16T12:27:31Z</time>
      </trkpt>
      <trkpt lat="48.0081" lon="6.76003">
        <ele>543.205383</ele>
        <time>2019-08-16T12:27:32Z</time>
      </trkpt>
      <trkpt lat="48.00811" lon="6.76004">
        <ele>543.456543</ele>
        <time>2019-08-16T12:27:33Z</time>
      </trkpt>
      <trkpt lat="48.00813" lon="6.76006">
        <ele>543.627747</ele>
        <time>2019-08-16T12:27:34Z</time>
      </trkpt>
      <trkpt lat="48.00814" lon="6.76008">
        <ele>543.803223</ele>
        <time>2019-08-16T12:27:35Z</time>
      </trkpt>
      <trkpt lat="48.00815" lon="6.76009">
        <ele>544.07959</ele>
        <time>2019-08-16T12:27:36Z</time>
      </trkpt>
      <trkpt lat="48.00816" lon="6.76011">
        <ele>544.284607</ele>
        <time>2019-08-16T12:27:37Z</time>
      </trkpt>
      <trkpt lat="48.00818" lon="6.76012">
        <ele>544.512756</ele>
        <time>2019-08-16T12:27:38Z</time>
      </trkpt>
      <trkpt lat="48.00819" lon="6.76014">
        <ele>544.753052</ele>
        <time>2019-08-16T12:27:39Z</time>
      </trkpt>
      <trkpt lat="48.00821" lon="6.76016">
        <ele>545.109314</ele>
        <time>2019-08-16T12:27:40Z</time>
      </trkpt>
      <trkpt lat="48.00822" lon="6.76018">
        <ele>545.329834</ele>
        <time>2019-08-16T12:27:41Z</time>
      </trkpt>
      <trkpt lat="48.00823" lon="6.76019">
        <ele>545.531433</ele>
        <time>2019-08-16T12:27:42Z</time>
      </trkpt>
      <trkpt lat="48.00824" lon="6.76021">
        <ele>545.709473</ele>
        <time>2019-08-16T12:27:43Z</time>
      </trkpt>
      <trkpt lat="48.00826" lon="6.76023">
        <ele>545.93042</ele>
        <time>2019-08-16T12:27:44Z</time>
      </trkpt>
      <trkpt lat="48.00827" lon="6.76025">
        <ele>546.054321</ele>
        <time>2019-08-16T12:27:45Z</time>
      </trkpt>
      <trkpt lat="48.00828" lon="6.76027">
        <ele>546.171936</ele>
        <time>2019-08-16T12:27:46Z</time>
      </trkpt>
      <trkpt lat="48.0083" lon="6.76029">
        <ele>546.286682</ele>
        <time>2019-08-16T12:27:47Z</time>
      </trkpt>
      <trkpt lat="48.00831" lon="6.7603">
        <ele>546.399292</ele>
        <time>2019-08-16T12:27:48Z</time>
      </trkpt>
      <trkpt lat="48.00833" lon="6.76032">
        <ele>546.571472</ele>
        <time>2019-08-16T12:27:49Z</time>
      </trkpt>
      <trkpt lat="48.00834" lon="6.76034">
        <ele>546.701782</ele>
        <time>2019-08-16T12:27:50Z</time>
      </trkpt>
      <trkpt lat="48.00836" lon="6.76036">
        <ele>546.84259</ele>
        <time>2019-08-16T12:27:51Z</time>
      </trkpt>
      <trkpt lat="48.00837" lon="6.76037">
        <ele>547.050659</ele>
        <time>2019-08-16T12:27:52Z</time>
      </trkpt>
      <trkpt lat="48.00839" lon="6.76039">
        <ele>547.179749</ele>
        <time>2019-08-16T12:27:53Z</time>
      </trkpt>
      <trkpt lat="48.0084" lon="6.76041">
        <ele>547.305115</ele>
        <time>2019-08-16T12:27:54Z</time>
      </trkpt>
      <trkpt lat="48.00842" lon="6.76042">
        <ele>547.427917</ele>
        <time>2019-08-16T12:27:55Z</time>
      </trkpt>
      <trkpt lat="48.00843" lon="6.76044">
        <ele>547.549866</ele>
        <time>2019-08-16T12:27:56Z</time>
      </trkpt>
      <trkpt lat="48.00844" lon="6.76046">
        <ele>547.723511</ele>
        <time>2019-08-16T12:27:57Z</time>
      </trkpt>
      <trkpt lat="48.00846" lon="6.76048">
        <ele>547.83197</ele>
        <time>2019-08-16T12:27:58Z</time>
      </trkpt>
      <trkpt lat="48.00847" lon="6.7605">
        <ele>547.942078</ele>
        <time>2019-08-16T12:27:59Z</time>
      </trkpt>
      <trkpt lat="48.00848" lon="6.76051">
        <ele>548.106689</ele>
        <time>2019-08-16T12:28:00Z</time>
      </trkpt>
      <trkpt lat="48.0085" lon="6.76053">
        <ele>548.209717</ele>
        <time>2019-08-16T12:28:01Z</time>
      </trkpt>
      <trkpt lat="48.00851" lon="6.76055">
        <ele>548.302246</ele>
        <time>2019-08-16T12:28:02Z</time>
      </trkpt>
      <trkpt lat="48.00853" lon="6.76057">
        <ele>548.433838</ele>
        <time>2019-08-16T12:28:03Z</time>
      </trkpt>
      <trkpt lat="48.00854" lon="6.76059">
        <ele>548.519775</ele>
        <time>2019-08-16T12:28:04Z</time>
      </trkpt>
      <trkpt lat="48.00856" lon="6.76061">
        <ele>548.606812</ele>
        <time>2019-08-16T12:28:05Z</time>
      </trkpt>
      <trkpt lat="48.00858" lon="6.76063">
        <ele>548.743713</ele>
        <time>2019-08-16T12:28:06Z</time>
      </trkpt>
      <trkpt lat="48.00859" lon="6.76064">
        <ele>548.848816</ele>
        <time>2019-08-16T12:28:07Z</time>
      </trkpt>
      <trkpt lat="48.0086" lon="6.76065">
        <ele>548.970276</ele>
        <time>2019-08-16T12:28:08Z</time>
      </trkpt>
      <trkpt lat="48.00861" lon="6.76066">
        <ele>549.104858</ele>
        <time>2019-08-16T12:28:09Z</time>
      </trkpt>
      <trkpt lat="48.00863" lon="6.76068">
        <ele>549.314697</ele>
        <time>2019-08-16T12:28:10Z</time>
      </trkpt>
      <trkpt lat="48.00864" lon="6.7607">
        <ele>549.455261</ele>
        <time>2019-08-16T12:28:11Z</time>
      </trkpt>
      <trkpt lat="48.00865" lon="6.76073">
        <ele>549.658936</ele>
        <time>2019-08-16T12:28:12Z</time>
      </trkpt>
      <trkpt lat="48.00867" lon="6.76075">
        <ele>549.784546</ele>
        <time>2019-08-16T12:28:13Z</time>
      </trkpt>
      <trkpt lat="48.00868" lon="6.76077">
        <ele>549.902344</ele>
        <time>2019-08-16T12:28:14Z</time>
      </trkpt>
      <trkpt lat="48.00869" lon="6.76079">
        <ele>550.070313</ele>
        <time>2019-08-16T12:28:15Z</time>
      </trkpt>
      <trkpt lat="48.0087" lon="6.76082">
        <ele>550.182312</ele>
        <time>2019-08-16T12:28:16Z</time>
      </trkpt>
      <trkpt lat="48.00872" lon="6.76084">
        <ele>550.294739</ele>
        <time>2019-08-16T12:28:17Z</time>
      </trkpt>
      <trkpt lat="48.00873" lon="6.76086">
        <ele>550.451721</ele>
        <time>2019-08-16T12:28:18Z</time>
      </trkpt>
      <trkpt lat="48.00874" lon="6.76089">
        <ele>550.543579</ele>
        <time>2019-08-16T12:28:19Z</time>
      </trkpt>
      <trkpt lat="48.00876" lon="6.76092">
        <ele>550.630249</ele>
        <time>2019-08-16T12:28:20Z</time>
      </trkpt>
      <trkpt lat="48.00877" lon="6.76094">
        <ele>550.710938</ele>
        <time>2019-08-16T12:28:21Z</time>
      </trkpt>
      <trkpt lat="48.00878" lon="6.76096">
        <ele>550.789917</ele>
        <time>2019-08-16T12:28:22Z</time>
      </trkpt>
      <trkpt lat="48.00878" lon="6.76097">
        <ele>550.905701</ele>
        <time>2019-08-16T12:28:23Z</time>
      </trkpt>
      <trkpt lat="48.00879" lon="6.761">
        <ele>550.987122</ele>
        <time>2019-08-16T12:28:24Z</time>
      </trkpt>
      <trkpt lat="48.0088" lon="6.76102">
        <ele>551.075439</ele>
        <time>2019-08-16T12:28:25Z</time>
      </trkpt>
      <trkpt lat="48.00881" lon="6.76105">
        <ele>551.173157</ele>
        <time>2019-08-16T12:28:26Z</time>
      </trkpt>
      <trkpt lat="48.00882" lon="6.76108">
        <ele>551.277466</ele>
        <time>2019-08-16T12:28:27Z</time>
      </trkpt>
      <trkpt lat="48.00883" lon="6.76111">
        <ele>551.384644</ele>
        <time>2019-08-16T12:28:28Z</time>
      </trkpt>
      <trkpt lat="48.00883" lon="6.76114">
        <ele>551.489563</ele>
        <time>2019-08-16T12:28:29Z</time>
      </trkpt>
      <trkpt lat="48.00884" lon="6.76117">
        <ele>551.539307</ele>
        <time>2019-08-16T12:28:30Z</time>
      </trkpt>
      <trkpt lat="48.00886" lon="6.76121">
        <ele>551.586487</ele>
        <time>2019-08-16T12:28:31Z</time>
      </trkpt>
      <trkpt lat="48.00887" lon="6.76124">
        <ele>551.672485</ele>
        <time>2019-08-16T12:28:32Z</time>
      </trkpt>
      <trkpt lat="48.00889" lon="6.76128">
        <ele>551.746582</ele>
        <time>2019-08-16T12:28:33Z</time>
      </trkpt>
      <trkpt lat="48.0089" lon="6.76132">
        <ele>551.809875</ele>
        <time>2019-08-16T12:28:34Z</time>
      </trkpt>
      <trkpt lat="48.00891" lon="6.76136">
        <ele>551.864441</ele>
        <time>2019-08-16T12:28:35Z</time>
      </trkpt>
      <trkpt lat="48.00893" lon="6.7614">
        <ele>551.91272</ele>
        <time>2019-08-16T12:28:36Z</time>
      </trkpt>
      <trkpt lat="48.00895" lon="6.76145">
        <ele>551.97467</ele>
        <time>2019-08-16T12:28:37Z</time>
      </trkpt>
      <trkpt lat="48.00897" lon="6.7615">
        <ele>552.011475</ele>
        <time>2019-08-16T12:28:38Z</time>
      </trkpt>
      <trkpt lat="48.00898" lon="6.76153">
        <ele>552.04425</ele>
        <time>2019-08-16T12:28:39Z</time>
      </trkpt>
      <trkpt lat="48.009" lon="6.76157">
        <ele>552.075134</ele>
        <time>2019-08-16T12:28:40Z</time>
      </trkpt>
      <trkpt lat="48.00901" lon="6.7616">
        <ele>552.101563</ele>
        <time>2019-08-16T12:28:41Z</time>
      </trkpt>
      <trkpt lat="48.00903" lon="6.76163">
        <ele>552.12146</ele>
        <time>2019-08-16T12:28:42Z</time>
      </trkpt>
      <trkpt lat="48.00906" lon="6.76165">
        <ele>552.12677</ele>
        <time>2019-08-16T12:28:43Z</time>
      </trkpt>
      <trkpt lat="48.00908" lon="6.76167">
        <ele>552.124817</ele>
        <time>2019-08-16T12:28:44Z</time>
      </trkpt>
      <trkpt lat="48.00911" lon="6.76169">
        <ele>552.10675</ele>
        <time>2019-08-16T12:28:45Z</time>
      </trkpt>
      <trkpt lat="48.00913" lon="6.7617">
        <ele>552.076416</ele>
        <time>2019-08-16T12:28:46Z</time>
      </trkpt>
      <trkpt lat="48.00916" lon="6.76171">
        <ele>552.054016</ele>
        <time>2019-08-16T12:28:47Z</time>
      </trkpt>
      <trkpt lat="48.00918" lon="6.76173">
        <ele>552.031555</ele>
        <time>2019-08-16T12:28:48Z</time>
      </trkpt>
      <trkpt lat="48.00921" lon="6.76175">
        <ele>552.001404</ele>
        <time>2019-08-16T12:28:49Z</time>
      </trkpt>
      <trkpt lat="48.00924" lon="6.76177">
        <ele>552.000549</ele>
        <time>2019-08-16T12:28:50Z</time>
      </trkpt>
      <trkpt lat="48.00926" lon="6.76179">
        <ele>552.005798</ele>
        <time>2019-08-16T12:28:51Z</time>
      </trkpt>
      <trkpt lat="48.00929" lon="6.7618">
        <ele>552.064026</ele>
        <time>2019-08-16T12:28:52Z</time>
      </trkpt>
      <trkpt lat="48.00932" lon="6.76181">
        <ele>552.127197</ele>
        <time>2019-08-16T12:28:53Z</time>
      </trkpt>
      <trkpt lat="48.00935" lon="6.76183">
        <ele>552.198792</ele>
        <time>2019-08-16T12:28:54Z</time>
      </trkpt>
      <trkpt lat="48.00936" lon="6.76185">
        <ele>552.320679</ele>
        <time>2019-08-16T12:28:55Z</time>
      </trkpt>
      <trkpt lat="48.00938" lon="6.76187">
        <ele>552.412781</ele>
        <time>2019-08-16T12:28:56Z</time>
      </trkpt>
      <trkpt lat="48.00941" lon="6.76189">
        <ele>552.511536</ele>
        <time>2019-08-16T12:28:57Z</time>
      </trkpt>
      <trkpt lat="48.00944" lon="6.76191">
        <ele>552.654968</ele>
        <time>2019-08-16T12:28:58Z</time>
      </trkpt>
      <trkpt lat="48.00946" lon="6.76193">
        <ele>552.738098</ele>
        <time>2019-08-16T12:28:59Z</time>
      </trkpt>
      <trkpt lat="48.00949" lon="6.76196">
        <ele>552.814453</ele>
        <time>2019-08-16T12:29:00Z</time>
      </trkpt>
      <trkpt lat="48.00953" lon="6.76198">
        <ele>552.92334</ele>
        <time>2019-08-16T12:29:01Z</time>
      </trkpt>
      <trkpt lat="48.00956" lon="6.762">
        <ele>552.991333</ele>
        <time>2019-08-16T12:29:02Z</time>
      </trkpt>
      <trkpt lat="48.00958" lon="6.76201">
        <ele>553.052551</ele>
        <time>2019-08-16T12:29:03Z</time>
      </trkpt>
      <trkpt lat="48.00959" lon="6.76202">
        <ele>553.146423</ele>
        <time>2019-08-16T12:29:04Z</time>
      </trkpt>
      <trkpt lat="48.00961" lon="6.76204">
        <ele>553.216614</ele>
        <time>2019-08-16T12:29:05Z</time>
      </trkpt>
      <trkpt lat="48.00962" lon="6.76207">
        <ele>553.294128</ele>
        <time>2019-08-16T12:29:06Z</time>
      </trkpt>
      <trkpt lat="48.00964" lon="6.76209">
        <ele>553.413086</ele>
        <time>2019-08-16T12:29:07Z</time>
      </trkpt>
      <trkpt lat="48.00965" lon="6.76209">
        <ele>553.492004</ele>
        <time>2019-08-16T12:29:08Z</time>
      </trkpt>
      <trkpt lat="48.00966" lon="6.7621">
        <ele>553.689148</ele>
        <time>2019-08-16T12:29:09Z</time>
      </trkpt>
      <trkpt lat="48.00967" lon="6.7621">
        <ele>553.759399</ele>
        <time>2019-08-16T12:29:11Z</time>
      </trkpt>
      <trkpt lat="48.00968" lon="6.7621">
        <ele>553.819275</ele>
        <time>2019-08-16T12:29:12Z</time>
      </trkpt>
      <trkpt lat="48.00969" lon="6.76211">
        <ele>553.872498</ele>
        <time>2019-08-16T12:29:13Z</time>
      </trkpt>
      <trkpt lat="48.0097" lon="6.76213">
        <ele>553.954834</ele>
        <time>2019-08-16T12:29:14Z</time>
      </trkpt>
      <trkpt lat="48.00971" lon="6.76214">
        <ele>554.021973</ele>
        <time>2019-08-16T12:29:15Z</time>
      </trkpt>
      <trkpt lat="48.00973" lon="6.76216">
        <ele>554.105164</ele>
        <time>2019-08-16T12:29:16Z</time>
      </trkpt>
      <trkpt lat="48.00974" lon="6.76217">
        <ele>554.271118</ele>
        <time>2019-08-16T12:29:17Z</time>
      </trkpt>
      <trkpt lat="48.00976" lon="6.76217">
        <ele>554.409485</ele>
        <time>2019-08-16T12:29:18Z</time>
      </trkpt>
      <trkpt lat="48.00978" lon="6.76218">
        <ele>554.563721</ele>
        <time>2019-08-16T12:29:19Z</time>
      </trkpt>
      <trkpt lat="48.00979" lon="6.76217">
        <ele>554.810547</ele>
        <time>2019-08-16T12:29:20Z</time>
      </trkpt>
      <trkpt lat="48.00981" lon="6.76217">
        <ele>554.975159</ele>
        <time>2019-08-16T12:29:21Z</time>
      </trkpt>
      <trkpt lat="48.00983" lon="6.76216">
        <ele>555.134094</ele>
        <time>2019-08-16T12:29:22Z</time>
      </trkpt>
      <trkpt lat="48.00986" lon="6.76215">
        <ele>555.349121</ele>
        <time>2019-08-16T12:29:23Z</time>
      </trkpt>
      <trkpt lat="48.00988" lon="6.76214">
        <ele>555.478882</ele>
        <time>2019-08-16T12:29:24Z</time>
      </trkpt>
      <trkpt lat="48.0099" lon="6.76214">
        <ele>555.601501</ele>
        <time>2019-08-16T12:29:25Z</time>
      </trkpt>
      <trkpt lat="48.00992" lon="6.76212">
        <ele>555.769226</ele>
        <time>2019-08-16T12:29:26Z</time>
      </trkpt>
      <trkpt lat="48.00994" lon="6.76211">
        <ele>555.861023</ele>
        <time>2019-08-16T12:29:27Z</time>
      </trkpt>
      <trkpt lat="48.00996" lon="6.7621">
        <ele>555.938354</ele>
        <time>2019-08-16T12:29:28Z</time>
      </trkpt>
      <trkpt lat="48.00998" lon="6.76208">
        <ele>556.03656</ele>
        <time>2019-08-16T12:29:29Z</time>
      </trkpt>
      <trkpt lat="48.01001" lon="6.76206">
        <ele>556.06488</ele>
        <time>2019-08-16T12:29:30Z</time>
      </trkpt>
      <trkpt lat="48.01002" lon="6.76205">
        <ele>556.06488</ele>
        <time>2019-08-16T12:29:31Z</time>
      </trkpt>
      <trkpt lat="48.01004" lon="6.76203">
        <ele>556.101624</ele>
        <time>2019-08-16T12:29:32Z</time>
      </trkpt>
      <trkpt lat="48.01005" lon="6.76202">
        <ele>556.108582</ele>
        <time>2019-08-16T12:29:33Z</time>
      </trkpt>
      <trkpt lat="48.01006" lon="6.762">
        <ele>556.108337</ele>
        <time>2019-08-16T12:29:34Z</time>
      </trkpt>
      <trkpt lat="48.01008" lon="6.76198">
        <ele>556.066467</ele>
        <time>2019-08-16T12:29:35Z</time>
      </trkpt>
      <trkpt lat="48.0101" lon="6.76195">
        <ele>556.018433</ele>
        <time>2019-08-16T12:29:36Z</time>
      </trkpt>
      <trkpt lat="48.01012" lon="6.76193">
        <ele>555.951233</ele>
        <time>2019-08-16T12:29:37Z</time>
      </trkpt>
      <trkpt lat="48.01015" lon="6.76192">
        <ele>555.800781</ele>
        <time>2019-08-16T12:29:38Z</time>
      </trkpt>
      <trkpt lat="48.01019" lon="6.7619">
        <ele>555.666321</ele>
        <time>2019-08-16T12:29:39Z</time>
      </trkpt>
      <trkpt lat="48.01023" lon="6.76188">
        <ele>555.515381</ele>
        <time>2019-08-16T12:29:40Z</time>
      </trkpt>
      <trkpt lat="48.01026" lon="6.76186">
        <ele>555.260315</ele>
        <time>2019-08-16T12:29:41Z</time>
      </trkpt>
      <trkpt lat="48.0103" lon="6.76183">
        <ele>555.069092</ele>
        <time>2019-08-16T12:29:42Z</time>
      </trkpt>
      <trkpt lat="48.01033" lon="6.7618">
        <ele>554.861633</ele>
        <time>2019-08-16T12:29:43Z</time>
      </trkpt>
      <trkpt lat="48.01038" lon="6.76177">
        <ele>554.556824</ele>
        <time>2019-08-16T12:29:44Z</time>
      </trkpt>
      <trkpt lat="48.01043" lon="6.76173">
        <ele>554.362732</ele>
        <time>2019-08-16T12:29:45Z</time>
      </trkpt>
      <trkpt lat="48.01047" lon="6.76169">
        <ele>554.171143</ele>
        <time>2019-08-16T12:29:46Z</time>
      </trkpt>
      <trkpt lat="48.01052" lon="6.76166">
        <ele>553.849792</ele>
        <time>2019-08-16T12:29:47Z</time>
      </trkpt>
      <trkpt lat="48.01056" lon="6.76162">
        <ele>553.609558</ele>
        <time>2019-08-16T12:29:48Z</time>
      </trkpt>
      <trkpt lat="48.01062" lon="6.76158">
        <ele>553.347656</ele>
        <time>2019-08-16T12:29:49Z</time>
      </trkpt>
      <trkpt lat="48.01067" lon="6.76155">
        <ele>552.917786</ele>
        <time>2019-08-16T12:29:50Z</time>
      </trkpt>
      <trkpt lat="48.01073" lon="6.76151">
        <ele>552.601013</ele>
        <time>2019-08-16T12:29:51Z</time>
      </trkpt>
      <trkpt lat="48.01079" lon="6.76148">
        <ele>552.272034</ele>
        <time>2019-08-16T12:29:52Z</time>
      </trkpt>
      <trkpt lat="48.01085" lon="6.76145">
        <ele>551.778076</ele>
        <time>2019-08-16T12:29:53Z</time>
      </trkpt>
      <trkpt lat="48.01092" lon="6.76143">
        <ele>551.45697</ele>
        <time>2019-08-16T12:29:54Z</time>
      </trkpt>
      <trkpt lat="48.01098" lon="6.76142">
        <ele>551.145447</ele>
        <time>2019-08-16T12:29:55Z</time>
      </trkpt>
      <trkpt lat="48.01105" lon="6.7614">
        <ele>550.692749</ele>
        <time>2019-08-16T12:29:56Z</time>
      </trkpt>
      <trkpt lat="48.01113" lon="6.76139">
        <ele>550.380554</ele>
        <time>2019-08-16T12:29:57Z</time>
      </trkpt>
      <trkpt lat="48.0112" lon="6.76138">
        <ele>550.033142</ele>
        <time>2019-08-16T12:29:58Z</time>
      </trkpt>
      <trkpt lat="48.01128" lon="6.7614">
        <ele>549.432068</ele>
        <time>2019-08-16T12:29:59Z</time>
      </trkpt>
      <trkpt lat="48.01134" lon="6.76143">
        <ele>548.980896</ele>
        <time>2019-08-16T12:30:00Z</time>
      </trkpt>
      <trkpt lat="48.0114" lon="6.76147">
        <ele>548.505676</ele>
        <time>2019-08-16T12:30:01Z</time>
      </trkpt>
      <trkpt lat="48.01144" lon="6.7615">
        <ele>547.794861</ele>
        <time>2019-08-16T12:30:02Z</time>
      </trkpt>
      <trkpt lat="48.01146" lon="6.76153">
        <ele>547.368591</ele>
        <time>2019-08-16T12:30:03Z</time>
      </trkpt>
      <trkpt lat="48.01149" lon="6.76154">
        <ele>547.031128</ele>
        <time>2019-08-16T12:30:04Z</time>
      </trkpt>
      <trkpt lat="48.01152" lon="6.76155">
        <ele>546.751526</ele>
        <time>2019-08-16T12:30:05Z</time>
      </trkpt>
      <trkpt lat="48.01154" lon="6.76156">
        <ele>546.719116</ele>
        <time>2019-08-16T12:30:06Z</time>
      </trkpt>
      <trkpt lat="48.0116" lon="6.76165">
        <ele>547.041382</ele>
        <time>2019-08-16T12:30:33Z</time>
      </trkpt>
      <trkpt lat="48.01163" lon="6.76168">
        <ele>547.008606</ele>
        <time>2019-08-16T12:30:35Z</time>
      </trkpt>
      <trkpt lat="48.01165" lon="6.76171">
        <ele>546.973999</ele>
        <time>2019-08-16T12:30:36Z</time>
      </trkpt>
      <trkpt lat="48.01168" lon="6.76174">
        <ele>546.9198</ele>
        <time>2019-08-16T12:30:37Z</time>
      </trkpt>
      <trkpt lat="48.01171" lon="6.76178">
        <ele>546.87738</ele>
        <time>2019-08-16T12:30:38Z</time>
      </trkpt>
      <trkpt lat="48.01173" lon="6.76181">
        <ele>546.826904</ele>
        <time>2019-08-16T12:30:39Z</time>
      </trkpt>
      <trkpt lat="48.01176" lon="6.76185">
        <ele>546.732788</ele>
        <time>2019-08-16T12:30:40Z</time>
      </trkpt>
      <trkpt lat="48.01179" lon="6.76188">
        <ele>546.66803</ele>
        <time>2019-08-16T12:30:41Z</time>
      </trkpt>
      <trkpt lat="48.01182" lon="6.76191">
        <ele>546.609314</ele>
        <time>2019-08-16T12:30:42Z</time>
      </trkpt>
      <trkpt lat="48.01185" lon="6.76195">
        <ele>546.541809</ele>
        <time>2019-08-16T12:30:43Z</time>
      </trkpt>
      <trkpt lat="48.01188" lon="6.76198">
        <ele>546.502502</ele>
        <time>2019-08-16T12:30:44Z</time>
      </trkpt>
      <trkpt lat="48.01191" lon="6.76202">
        <ele>546.468445</ele>
        <time>2019-08-16T12:30:45Z</time>
      </trkpt>
      <trkpt lat="48.01194" lon="6.76206">
        <ele>546.441589</ele>
        <time>2019-08-16T12:30:46Z</time>
      </trkpt>
      <trkpt lat="48.01196" lon="6.7621">
        <ele>546.441589</ele>
        <time>2019-08-16T12:30:47Z</time>
      </trkpt>
      <trkpt lat="48.01199" lon="6.76214">
        <ele>546.445251</ele>
        <time>2019-08-16T12:30:48Z</time>
      </trkpt>
      <trkpt lat="48.01202" lon="6.76218">
        <ele>546.465576</ele>
        <time>2019-08-16T12:30:49Z</time>
      </trkpt>
      <trkpt lat="48.01205" lon="6.76221">
        <ele>546.48645</ele>
        <time>2019-08-16T12:30:50Z</time>
      </trkpt>
      <trkpt lat="48.01207" lon="6.76225">
        <ele>546.51593</ele>
        <time>2019-08-16T12:30:51Z</time>
      </trkpt>
      <trkpt lat="48.01209" lon="6.76229">
        <ele>546.593567</ele>
        <time>2019-08-16T12:30:52Z</time>
      </trkpt>
      <trkpt lat="48.01212" lon="6.76232">
        <ele>546.670837</ele>
        <time>2019-08-16T12:30:53Z</time>
      </trkpt>
      <trkpt lat="48.01214" lon="6.76235">
        <ele>546.765381</ele>
        <time>2019-08-16T12:30:54Z</time>
      </trkpt>
      <trkpt lat="48.01216" lon="6.76238">
        <ele>546.871948</ele>
        <time>2019-08-16T12:30:55Z</time>
      </trkpt>
      <trkpt lat="48.01218" lon="6.76241">
        <ele>547.047424</ele>
        <time>2019-08-16T12:30:56Z</time>
      </trkpt>
      <trkpt lat="48.0122" lon="6.76243">
        <ele>547.185669</ele>
        <time>2019-08-16T12:30:57Z</time>
      </trkpt>
      <trkpt lat="48.01222" lon="6.76246">
        <ele>547.352966</ele>
        <time>2019-08-16T12:30:58Z</time>
      </trkpt>
      <trkpt lat="48.01224" lon="6.76249">
        <ele>547.654968</ele>
        <time>2019-08-16T12:30:59Z</time>
      </trkpt>
      <trkpt lat="48.01226" lon="6.76252">
        <ele>547.884766</ele>
        <time>2019-08-16T12:31:00Z</time>
      </trkpt>
      <trkpt lat="48.01228" lon="6.76254">
        <ele>548.133911</ele>
        <time>2019-08-16T12:31:01Z</time>
      </trkpt>
      <trkpt lat="48.0123" lon="6.76257">
        <ele>548.529785</ele>
        <time>2019-08-16T12:31:02Z</time>
      </trkpt>
      <trkpt lat="48.01233" lon="6.76259">
        <ele>548.794495</ele>
        <time>2019-08-16T12:31:03Z</time>
      </trkpt>
      <trkpt lat="48.01235" lon="6.76262">
        <ele>549.049805</ele>
        <time>2019-08-16T12:31:04Z</time>
      </trkpt>
      <trkpt lat="48.01237" lon="6.76265">
        <ele>549.405334</ele>
        <time>2019-08-16T12:31:05Z</time>
      </trkpt>
      <trkpt lat="48.01239" lon="6.76267">
        <ele>549.620178</ele>
        <time>2019-08-16T12:31:06Z</time>
      </trkpt>
      <trkpt lat="48.01242" lon="6.76269">
        <ele>549.901367</ele>
        <time>2019-08-16T12:31:07Z</time>
      </trkpt>
      <trkpt lat="48.01244" lon="6.76272">
        <ele>550.065674</ele>
        <time>2019-08-16T12:31:08Z</time>
      </trkpt>
      <trkpt lat="48.01246" lon="6.76275">
        <ele>550.220703</ele>
        <time>2019-08-16T12:31:09Z</time>
      </trkpt>
      <trkpt lat="48.01248" lon="6.76277">
        <ele>550.379822</ele>
        <time>2019-08-16T12:31:10Z</time>
      </trkpt>
      <trkpt lat="48.01251" lon="6.76281">
        <ele>550.637146</ele>
        <time>2019-08-16T12:31:11Z</time>
      </trkpt>
      <trkpt lat="48.01252" lon="6.76284">
        <ele>550.825134</ele>
        <time>2019-08-16T12:31:12Z</time>
      </trkpt>
      <trkpt lat="48.01255" lon="6.76286">
        <ele>551.028381</ele>
        <time>2019-08-16T12:31:13Z</time>
      </trkpt>
      <trkpt lat="48.01256" lon="6.76289">
        <ele>551.240295</ele>
        <time>2019-08-16T12:31:14Z</time>
      </trkpt>
      <trkpt lat="48.01258" lon="6.76293">
        <ele>551.448914</ele>
        <time>2019-08-16T12:31:15Z</time>
      </trkpt>
      <trkpt lat="48.01259" lon="6.76297">
        <ele>551.640442</ele>
        <time>2019-08-16T12:31:16Z</time>
      </trkpt>
      <trkpt lat="48.0126" lon="6.76301">
        <ele>551.812744</ele>
        <time>2019-08-16T12:31:17Z</time>
      </trkpt>
      <trkpt lat="48.01262" lon="6.76304">
        <ele>551.966858</ele>
        <time>2019-08-16T12:31:18Z</time>
      </trkpt>
      <trkpt lat="48.01263" lon="6.76308">
        <ele>552.166992</ele>
        <time>2019-08-16T12:31:19Z</time>
      </trkpt>
      <trkpt lat="48.01265" lon="6.76313">
        <ele>552.276672</ele>
        <time>2019-08-16T12:31:20Z</time>
      </trkpt>
      <trkpt lat="48.01265" lon="6.76317">
        <ele>552.365662</ele>
        <time>2019-08-16T12:31:21Z</time>
      </trkpt>
      <trkpt lat="48.01267" lon="6.76321">
        <ele>552.439941</ele>
        <time>2019-08-16T12:31:22Z</time>
      </trkpt>
      <trkpt lat="48.01268" lon="6.76325">
        <ele>552.503906</ele>
        <time>2019-08-16T12:31:23Z</time>
      </trkpt>
      <trkpt lat="48.01268" lon="6.7633">
        <ele>552.557861</ele>
        <time>2019-08-16T12:31:24Z</time>
      </trkpt>
      <trkpt lat="48.0127" lon="6.76333">
        <ele>552.600647</ele>
        <time>2019-08-16T12:31:25Z</time>
      </trkpt>
      <trkpt lat="48.01271" lon="6.76337">
        <ele>552.628967</ele>
        <time>2019-08-16T12:31:26Z</time>
      </trkpt>
      <trkpt lat="48.01271" lon="6.76341">
        <ele>552.655029</ele>
        <time>2019-08-16T12:31:27Z</time>
      </trkpt>
      <trkpt lat="48.01273" lon="6.76345">
        <ele>552.681458</ele>
        <time>2019-08-16T12:31:28Z</time>
      </trkpt>
      <trkpt lat="48.01273" lon="6.76348">
        <ele>552.714661</ele>
        <time>2019-08-16T12:31:29Z</time>
      </trkpt>
      <trkpt lat="48.01275" lon="6.76352">
        <ele>552.743835</ele>
        <time>2019-08-16T12:31:30Z</time>
      </trkpt>
      <trkpt lat="48.01278" lon="6.76364">
        <ele>552.75592</ele>
        <time>2019-08-16T12:31:33Z</time>
      </trkpt>
      <trkpt lat="48.01278" lon="6.76368">
        <ele>552.774353</ele>
        <time>2019-08-16T12:31:34Z</time>
      </trkpt>
      <trkpt lat="48.01278" lon="6.76371">
        <ele>552.795715</ele>
        <time>2019-08-16T12:31:35Z</time>
      </trkpt>
      <trkpt lat="48.01278" lon="6.76375">
        <ele>552.834106</ele>
        <time>2019-08-16T12:31:36Z</time>
      </trkpt>
      <trkpt lat="48.01278" lon="6.76379">
        <ele>552.92218</ele>
        <time>2019-08-16T12:31:37Z</time>
      </trkpt>
      <trkpt lat="48.01278" lon="6.76381">
        <ele>552.993652</ele>
        <time>2019-08-16T12:31:38Z</time>
      </trkpt>
      <trkpt lat="48.01278" lon="6.76383">
        <ele>553.071716</ele>
        <time>2019-08-16T12:31:39Z</time>
      </trkpt>
      <trkpt lat="48.01279" lon="6.76384">
        <ele>553.214417</ele>
        <time>2019-08-16T12:31:40Z</time>
      </trkpt>
      <trkpt lat="48.0128" lon="6.76385">
        <ele>553.318542</ele>
        <time>2019-08-16T12:31:41Z</time>
      </trkpt>
      <trkpt lat="48.01283" lon="6.76386">
        <ele>553.415039</ele>
        <time>2019-08-16T12:31:42Z</time>
      </trkpt>
      <trkpt lat="48.01287" lon="6.76387">
        <ele>553.487305</ele>
        <time>2019-08-16T12:31:43Z</time>
      </trkpt>
      <trkpt lat="48.01291" lon="6.76389">
        <ele>553.487305</ele>
        <time>2019-08-16T12:31:44Z</time>
      </trkpt>
      <trkpt lat="48.01294" lon="6.76392">
        <ele>553.374695</ele>
        <time>2019-08-16T12:31:45Z</time>
      </trkpt>
      <trkpt lat="48.01296" lon="6.76396">
        <ele>553.170959</ele>
        <time>2019-08-16T12:31:46Z</time>
      </trkpt>
      <trkpt lat="48.01298" lon="6.764">
        <ele>552.875916</ele>
        <time>2019-08-16T12:31:47Z</time>
      </trkpt>
      <trkpt lat="48.01298" lon="6.76402">
        <ele>552.494629</ele>
        <time>2019-08-16T12:31:48Z</time>
      </trkpt>
      <trkpt lat="48.01297" lon="6.76404">
        <ele>551.798645</ele>
        <time>2019-08-16T12:31:49Z</time>
      </trkpt>
      <trkpt lat="48.01295" lon="6.76406">
        <ele>551.300781</ele>
        <time>2019-08-16T12:31:50Z</time>
      </trkpt>
      <trkpt lat="48.01294" lon="6.76408">
        <ele>550.811035</ele>
        <time>2019-08-16T12:31:51Z</time>
      </trkpt>
      <trkpt lat="48.01291" lon="6.76414">
        <ele>550.106384</ele>
        <time>2019-08-16T12:31:52Z</time>
      </trkpt>
      <trkpt lat="48.01288" lon="6.76423">
        <ele>549.645264</ele>
        <time>2019-08-16T12:31:53Z</time>
      </trkpt>
      <trkpt lat="48.01288" lon="6.76429">
        <ele>549.164429</ele>
        <time>2019-08-16T12:31:54Z</time>
      </trkpt>
      <trkpt lat="48.01291" lon="6.76433">
        <ele>548.648376</ele>
        <time>2019-08-16T12:31:55Z</time>
      </trkpt>
      <trkpt lat="48.01293" lon="6.76436">
        <ele>548.106262</ele>
        <time>2019-08-16T12:31:56Z</time>
      </trkpt>
      <trkpt lat="48.01295" lon="6.76439">
        <ele>547.33551</ele>
        <time>2019-08-16T12:31:57Z</time>
      </trkpt>
      <trkpt lat="48.01297" lon="6.76443">
        <ele>546.903503</ele>
        <time>2019-08-16T12:31:58Z</time>
      </trkpt>
      <trkpt lat="48.01297" lon="6.76447">
        <ele>546.560242</ele>
        <time>2019-08-16T12:31:59Z</time>
      </trkpt>
      <trkpt lat="48.01297" lon="6.7645">
        <ele>546.343323</ele>
        <time>2019-08-16T12:32:00Z</time>
      </trkpt>
      <trkpt lat="48.01297" lon="6.76454">
        <ele>546.264709</ele>
        <time>2019-08-16T12:32:01Z</time>
      </trkpt>
      <trkpt lat="48.01296" lon="6.76457">
        <ele>546.264709</ele>
        <time>2019-08-16T12:32:02Z</time>
      </trkpt>
      <trkpt lat="48.01294" lon="6.76461">
        <ele>546.294128</ele>
        <time>2019-08-16T12:32:03Z</time>
      </trkpt>
      <trkpt lat="48.01294" lon="6.76464">
        <ele>546.367676</ele>
        <time>2019-08-16T12:32:04Z</time>
      </trkpt>
      <trkpt lat="48.01294" lon="6.76467">
        <ele>546.443787</ele>
        <time>2019-08-16T12:32:05Z</time>
      </trkpt>
      <trkpt lat="48.01295" lon="6.76469">
        <ele>546.564026</ele>
        <time>2019-08-16T12:32:06Z</time>
      </trkpt>
      <trkpt lat="48.01296" lon="6.76472">
        <ele>546.6651</ele>
        <time>2019-08-16T12:32:07Z</time>
      </trkpt>
      <trkpt lat="48.01297" lon="6.76474">
        <ele>546.792603</ele>
        <time>2019-08-16T12:32:08Z</time>
      </trkpt>
      <trkpt lat="48.01299" lon="6.76476">
        <ele>546.949646</ele>
        <time>2019-08-16T12:32:09Z</time>
      </trkpt>
      <trkpt lat="48.013" lon="6.76478">
        <ele>547.237061</ele>
        <time>2019-08-16T12:32:10Z</time>
      </trkpt>
      <trkpt lat="48.01301" lon="6.76481">
        <ele>547.455811</ele>
        <time>2019-08-16T12:32:11Z</time>
      </trkpt>
      <trkpt lat="48.01302" lon="6.76483">
        <ele>547.684387</ele>
        <time>2019-08-16T12:32:12Z</time>
      </trkpt>
      <trkpt lat="48.01304" lon="6.76485">
        <ele>547.910461</ele>
        <time>2019-08-16T12:32:13Z</time>
      </trkpt>
      <trkpt lat="48.01307" lon="6.76487">
        <ele>548.229065</ele>
        <time>2019-08-16T12:32:14Z</time>
      </trkpt>
      <trkpt lat="48.01308" lon="6.76491">
        <ele>548.416687</ele>
        <time>2019-08-16T12:32:15Z</time>
      </trkpt>
      <trkpt lat="48.0131" lon="6.76494">
        <ele>548.6474</ele>
        <time>2019-08-16T12:32:16Z</time>
      </trkpt>
      <trkpt lat="48.01308" lon="6.76497">
        <ele>548.76886</ele>
        <time>2019-08-16T12:32:17Z</time>
      </trkpt>
      <trkpt lat="48.01307" lon="6.765">
        <ele>548.872864</ele>
        <time>2019-08-16T12:32:18Z</time>
      </trkpt>
      <trkpt lat="48.01306" lon="6.76504">
        <ele>548.958862</ele>
        <time>2019-08-16T12:32:19Z</time>
      </trkpt>
      <trkpt lat="48.01305" lon="6.76506">
        <ele>549.050171</ele>
        <time>2019-08-16T12:32:20Z</time>
      </trkpt>
      <trkpt lat="48.01304" lon="6.76508">
        <ele>549.089539</ele>
        <time>2019-08-16T12:32:21Z</time>
      </trkpt>
      <trkpt lat="48.01304" lon="6.7651">
        <ele>549.126526</ele>
        <time>2019-08-16T12:32:22Z</time>
      </trkpt>
      <trkpt lat="48.01303" lon="6.76512">
        <ele>549.168518</ele>
        <time>2019-08-16T12:32:23Z</time>
      </trkpt>
      <trkpt lat="48.01302" lon="6.76514">
        <ele>549.235291</ele>
        <time>2019-08-16T12:32:24Z</time>
      </trkpt>
      <trkpt lat="48.013" lon="6.76516">
        <ele>549.277527</ele>
        <time>2019-08-16T12:32:25Z</time>
      </trkpt>
      <trkpt lat="48.01299" lon="6.76518">
        <ele>549.324585</ele>
        <time>2019-08-16T12:32:26Z</time>
      </trkpt>
      <trkpt lat="48.01298" lon="6.76521">
        <ele>549.388367</ele>
        <time>2019-08-16T12:32:27Z</time>
      </trkpt>
      <trkpt lat="48.01298" lon="6.76522">
        <ele>549.475159</ele>
        <time>2019-08-16T12:32:28Z</time>
      </trkpt>
      <trkpt lat="48.01298" lon="6.76524">
        <ele>549.590515</ele>
        <time>2019-08-16T12:32:29Z</time>
      </trkpt>
      <trkpt lat="48.01298" lon="6.76527">
        <ele>549.736572</ele>
        <time>2019-08-16T12:32:30Z</time>
      </trkpt>
      <trkpt lat="48.01298" lon="6.7653">
        <ele>549.903564</ele>
        <time>2019-08-16T12:32:31Z</time>
      </trkpt>
      <trkpt lat="48.01299" lon="6.76533">
        <ele>549.992493</ele>
        <time>2019-08-16T12:32:32Z</time>
      </trkpt>
      <trkpt lat="48.013" lon="6.76536">
        <ele>550.177551</ele>
        <time>2019-08-16T12:32:33Z</time>
      </trkpt>
      <trkpt lat="48.01302" lon="6.76539">
        <ele>550.366211</ele>
        <time>2019-08-16T12:32:34Z</time>
      </trkpt>
      <trkpt lat="48.01304" lon="6.76541">
        <ele>550.64209</ele>
        <time>2019-08-16T12:32:35Z</time>
      </trkpt>
      <trkpt lat="48.01305" lon="6.76544">
        <ele>550.810242</ele>
        <time>2019-08-16T12:32:36Z</time>
      </trkpt>
      <trkpt lat="48.01308" lon="6.76546">
        <ele>550.958679</ele>
        <time>2019-08-16T12:32:37Z</time>
      </trkpt>
      <trkpt lat="48.0131" lon="6.76548">
        <ele>551.143738</ele>
        <time>2019-08-16T12:32:38Z</time>
      </trkpt>
      <trkpt lat="48.01312" lon="6.7655">
        <ele>551.247253</ele>
        <time>2019-08-16T12:32:39Z</time>
      </trkpt>
      <trkpt lat="48.01313" lon="6.76552">
        <ele>551.344299</ele>
        <time>2019-08-16T12:32:40Z</time>
      </trkpt>
      <trkpt lat="48.01315" lon="6.76554">
        <ele>551.483887</ele>
        <time>2019-08-16T12:32:41Z</time>
      </trkpt>
      <trkpt lat="48.01317" lon="6.76556">
        <ele>551.577576</ele>
        <time>2019-08-16T12:32:42Z</time>
      </trkpt>
      <trkpt lat="48.01318" lon="6.76558">
        <ele>551.675842</ele>
        <time>2019-08-16T12:32:43Z</time>
      </trkpt>
      <trkpt lat="48.01319" lon="6.76561">
        <ele>551.838379</ele>
        <time>2019-08-16T12:32:44Z</time>
      </trkpt>
      <trkpt lat="48.0132" lon="6.76563">
        <ele>551.956726</ele>
        <time>2019-08-16T12:32:45Z</time>
      </trkpt>
      <trkpt lat="48.01321" lon="6.76565">
        <ele>552.082275</ele>
        <time>2019-08-16T12:32:46Z</time>
      </trkpt>
      <trkpt lat="48.01323" lon="6.76566">
        <ele>552.275452</ele>
        <time>2019-08-16T12:32:47Z</time>
      </trkpt>
      <trkpt lat="48.01325" lon="6.76568">
        <ele>552.402344</ele>
        <time>2019-08-16T12:32:48Z</time>
      </trkpt>
      <trkpt lat="48.01326" lon="6.7657">
        <ele>552.528564</ele>
        <time>2019-08-16T12:32:49Z</time>
      </trkpt>
      <trkpt lat="48.01327" lon="6.76572">
        <ele>552.71759</ele>
        <time>2019-08-16T12:32:50Z</time>
      </trkpt>
      <trkpt lat="48.01329" lon="6.76574">
        <ele>552.847656</ele>
        <time>2019-08-16T12:32:51Z</time>
      </trkpt>
      <trkpt lat="48.0133" lon="6.76577">
        <ele>552.978943</ele>
        <time>2019-08-16T12:32:52Z</time>
      </trkpt>
      <trkpt lat="48.01331" lon="6.7658">
        <ele>553.111511</ele>
        <time>2019-08-16T12:32:53Z</time>
      </trkpt>
      <trkpt lat="48.01333" lon="6.76582">
        <ele>553.239685</ele>
        <time>2019-08-16T12:32:54Z</time>
      </trkpt>
      <trkpt lat="48.01334" lon="6.76584">
        <ele>553.371155</ele>
        <time>2019-08-16T12:32:55Z</time>
      </trkpt>
      <trkpt lat="48.01335" lon="6.76586">
        <ele>553.517639</ele>
        <time>2019-08-16T12:32:56Z</time>
      </trkpt>
      <trkpt lat="48.01337" lon="6.76588">
        <ele>553.776611</ele>
        <time>2019-08-16T12:32:57Z</time>
      </trkpt>
      <trkpt lat="48.01338" lon="6.76589">
        <ele>553.966248</ele>
        <time>2019-08-16T12:32:58Z</time>
      </trkpt>
      <trkpt lat="48.0134" lon="6.7659">
        <ele>554.168762</ele>
        <time>2019-08-16T12:32:59Z</time>
      </trkpt>
      <trkpt lat="48.01341" lon="6.76592">
        <ele>554.492004</ele>
        <time>2019-08-16T12:33:00Z</time>
      </trkpt>
      <trkpt lat="48.01343" lon="6.76594">
        <ele>554.71344</ele>
        <time>2019-08-16T12:33:01Z</time>
      </trkpt>
      <trkpt lat="48.01344" lon="6.76595">
        <ele>554.925476</ele>
        <time>2019-08-16T12:33:02Z</time>
      </trkpt>
      <trkpt lat="48.01345" lon="6.76596">
        <ele>555.213562</ele>
        <time>2019-08-16T12:33:03Z</time>
      </trkpt>
      <trkpt lat="48.01347" lon="6.76598">
        <ele>555.388367</ele>
        <time>2019-08-16T12:33:04Z</time>
      </trkpt>
      <trkpt lat="48.01349" lon="6.76599">
        <ele>555.558472</ele>
        <time>2019-08-16T12:33:05Z</time>
      </trkpt>
      <trkpt lat="48.0135" lon="6.76602">
        <ele>555.818176</ele>
        <time>2019-08-16T12:33:06Z</time>
      </trkpt>
      <trkpt lat="48.01352" lon="6.76604">
        <ele>555.997559</ele>
        <time>2019-08-16T12:33:07Z</time>
      </trkpt>
      <trkpt lat="48.01354" lon="6.76606">
        <ele>556.183472</ele>
        <time>2019-08-16T12:33:08Z</time>
      </trkpt>
      <trkpt lat="48.01355" lon="6.76609">
        <ele>556.47821</ele>
        <time>2019-08-16T12:33:09Z</time>
      </trkpt>
      <trkpt lat="48.01356" lon="6.76611">
        <ele>556.677307</ele>
        <time>2019-08-16T12:33:10Z</time>
      </trkpt>
      <trkpt lat="48.01357" lon="6.76614">
        <ele>556.866028</ele>
        <time>2019-08-16T12:33:11Z</time>
      </trkpt>
      <trkpt lat="48.01358" lon="6.76617">
        <ele>557.035095</ele>
        <time>2019-08-16T12:33:12Z</time>
      </trkpt>
      <trkpt lat="48.01359" lon="6.76621">
        <ele>557.249207</ele>
        <time>2019-08-16T12:33:13Z</time>
      </trkpt>
      <trkpt lat="48.0136" lon="6.76625">
        <ele>557.370239</ele>
        <time>2019-08-16T12:33:14Z</time>
      </trkpt>
      <trkpt lat="48.0136" lon="6.76629">
        <ele>557.475769</ele>
        <time>2019-08-16T12:33:15Z</time>
      </trkpt>
      <trkpt lat="48.01362" lon="6.76633">
        <ele>557.562439</ele>
        <time>2019-08-16T12:33:16Z</time>
      </trkpt>
      <trkpt lat="48.01363" lon="6.76638">
        <ele>557.63385</ele>
        <time>2019-08-16T12:33:17Z</time>
      </trkpt>
      <trkpt lat="48.01364" lon="6.76642">
        <ele>557.692932</ele>
        <time>2019-08-16T12:33:18Z</time>
      </trkpt>
      <trkpt lat="48.01366" lon="6.76647">
        <ele>557.749695</ele>
        <time>2019-08-16T12:33:19Z</time>
      </trkpt>
      <trkpt lat="48.01367" lon="6.76651">
        <ele>557.829163</ele>
        <time>2019-08-16T12:33:20Z</time>
      </trkpt>
      <trkpt lat="48.01369" lon="6.76655">
        <ele>557.882996</ele>
        <time>2019-08-16T12:33:21Z</time>
      </trkpt>
      <trkpt lat="48.0137" lon="6.76658">
        <ele>557.937927</ele>
        <time>2019-08-16T12:33:22Z</time>
      </trkpt>
      <trkpt lat="48.01372" lon="6.76661">
        <ele>558.000061</ele>
        <time>2019-08-16T12:33:23Z</time>
      </trkpt>
      <trkpt lat="48.01374" lon="6.76663">
        <ele>558.060547</ele>
        <time>2019-08-16T12:33:24Z</time>
      </trkpt>
      <trkpt lat="48.01376" lon="6.76666">
        <ele>558.113831</ele>
        <time>2019-08-16T12:33:25Z</time>
      </trkpt>
      <trkpt lat="48.01377" lon="6.76668">
        <ele>558.18219</ele>
        <time>2019-08-16T12:33:26Z</time>
      </trkpt>
      <trkpt lat="48.01379" lon="6.7667">
        <ele>558.23114</ele>
        <time>2019-08-16T12:33:27Z</time>
      </trkpt>
      <trkpt lat="48.01381" lon="6.76672">
        <ele>558.283752</ele>
        <time>2019-08-16T12:33:28Z</time>
      </trkpt>
      <trkpt lat="48.01383" lon="6.76675">
        <ele>558.376709</ele>
        <time>2019-08-16T12:33:29Z</time>
      </trkpt>
      <trkpt lat="48.01385" lon="6.76677">
        <ele>558.450745</ele>
        <time>2019-08-16T12:33:30Z</time>
      </trkpt>
      <trkpt lat="48.01387" lon="6.76679">
        <ele>558.54071</ele>
        <time>2019-08-16T12:33:31Z</time>
      </trkpt>
      <trkpt lat="48.01389" lon="6.76682">
        <ele>558.705933</ele>
        <time>2019-08-16T12:33:32Z</time>
      </trkpt>
      <trkpt lat="48.01391" lon="6.76684">
        <ele>558.990845</ele>
        <time>2019-08-16T12:33:33Z</time>
      </trkpt>
      <trkpt lat="48.01392" lon="6.76686">
        <ele>559.150391</ele>
        <time>2019-08-16T12:33:35Z</time>
      </trkpt>
      <trkpt lat="48.01394" lon="6.76689">
        <ele>559.31134</ele>
        <time>2019-08-16T12:33:36Z</time>
      </trkpt>
      <trkpt lat="48.01396" lon="6.76691">
        <ele>559.553467</ele>
        <time>2019-08-16T12:33:37Z</time>
      </trkpt>
      <trkpt lat="48.01398" lon="6.76693">
        <ele>559.720276</ele>
        <time>2019-08-16T12:33:38Z</time>
      </trkpt>
      <trkpt lat="48.014" lon="6.76694">
        <ele>559.894836</ele>
        <time>2019-08-16T12:33:39Z</time>
      </trkpt>
      <trkpt lat="48.01402" lon="6.76697">
        <ele>560.16449</ele>
        <time>2019-08-16T12:33:40Z</time>
      </trkpt>
      <trkpt lat="48.01404" lon="6.76699">
        <ele>560.350281</ele>
        <time>2019-08-16T12:33:41Z</time>
      </trkpt>
      <trkpt lat="48.01405" lon="6.76702">
        <ele>560.54541</ele>
        <time>2019-08-16T12:33:42Z</time>
      </trkpt>
      <trkpt lat="48.01407" lon="6.76705">
        <ele>560.841736</ele>
        <time>2019-08-16T12:33:43Z</time>
      </trkpt>
      <trkpt lat="48.01408" lon="6.76707">
        <ele>561.031067</ele>
        <time>2019-08-16T12:33:44Z</time>
      </trkpt>
      <trkpt lat="48.0141" lon="6.7671">
        <ele>561.212341</ele>
        <time>2019-08-16T12:33:45Z</time>
      </trkpt>
      <trkpt lat="48.01411" lon="6.76713">
        <ele>561.390564</ele>
        <time>2019-08-16T12:33:46Z</time>
      </trkpt>
      <trkpt lat="48.01413" lon="6.76715">
        <ele>561.642761</ele>
        <time>2019-08-16T12:33:47Z</time>
      </trkpt>
      <trkpt lat="48.01415" lon="6.76718">
        <ele>561.794861</ele>
        <time>2019-08-16T12:33:48Z</time>
      </trkpt>
      <trkpt lat="48.01416" lon="6.76721">
        <ele>561.997803</ele>
        <time>2019-08-16T12:33:49Z</time>
      </trkpt>
      <trkpt lat="48.01417" lon="6.76724">
        <ele>562.134033</ele>
        <time>2019-08-16T12:33:50Z</time>
      </trkpt>
      <trkpt lat="48.01418" lon="6.76727">
        <ele>562.273987</ele>
        <time>2019-08-16T12:33:51Z</time>
      </trkpt>
      <trkpt lat="48.01419" lon="6.7673">
        <ele>562.412659</ele>
        <time>2019-08-16T12:33:52Z</time>
      </trkpt>
      <trkpt lat="48.01421" lon="6.76733">
        <ele>562.541992</ele>
        <time>2019-08-16T12:33:53Z</time>
      </trkpt>
      <trkpt lat="48.01422" lon="6.76736">
        <ele>562.65918</ele>
        <time>2019-08-16T12:33:54Z</time>
      </trkpt>
      <trkpt lat="48.01423" lon="6.76739">
        <ele>562.763428</ele>
        <time>2019-08-16T12:33:55Z</time>
      </trkpt>
      <trkpt lat="48.01424" lon="6.76742">
        <ele>562.857544</ele>
        <time>2019-08-16T12:33:56Z</time>
      </trkpt>
      <trkpt lat="48.01425" lon="6.76746">
        <ele>562.943176</ele>
        <time>2019-08-16T12:33:57Z</time>
      </trkpt>
      <trkpt lat="48.01426" lon="6.7675">
        <ele>563.016174</ele>
        <time>2019-08-16T12:33:58Z</time>
      </trkpt>
      <trkpt lat="48.01427" lon="6.76753">
        <ele>563.077576</ele>
        <time>2019-08-16T12:33:59Z</time>
      </trkpt>
      <trkpt lat="48.01428" lon="6.76756">
        <ele>563.132263</ele>
        <time>2019-08-16T12:34:00Z</time>
      </trkpt>
      <trkpt lat="48.01429" lon="6.7676">
        <ele>563.193909</ele>
        <time>2019-08-16T12:34:01Z</time>
      </trkpt>
      <trkpt lat="48.01429" lon="6.76763">
        <ele>563.273499</ele>
        <time>2019-08-16T12:34:02Z</time>
      </trkpt>
      <trkpt lat="48.0143" lon="6.76767">
        <ele>563.371887</ele>
        <time>2019-08-16T12:34:03Z</time>
      </trkpt>
      <trkpt lat="48.0143" lon="6.7677">
        <ele>563.486023</ele>
        <time>2019-08-16T12:34:04Z</time>
      </trkpt>
      <trkpt lat="48.0143" lon="6.76773">
        <ele>563.611755</ele>
        <time>2019-08-16T12:34:05Z</time>
      </trkpt>
      <trkpt lat="48.01431" lon="6.76776">
        <ele>563.749573</ele>
        <time>2019-08-16T12:34:06Z</time>
      </trkpt>
      <trkpt lat="48.01431" lon="6.76779">
        <ele>563.893005</ele>
        <time>2019-08-16T12:34:07Z</time>
      </trkpt>
      <trkpt lat="48.01431" lon="6.76782">
        <ele>564.038025</ele>
        <time>2019-08-16T12:34:08Z</time>
      </trkpt>
      <trkpt lat="48.01431" lon="6.76785">
        <ele>564.24054</ele>
        <time>2019-08-16T12:34:09Z</time>
      </trkpt>
      <trkpt lat="48.01431" lon="6.76788">
        <ele>564.355408</ele>
        <time>2019-08-16T12:34:10Z</time>
      </trkpt>
      <trkpt lat="48.01431" lon="6.76792">
        <ele>564.443909</ele>
        <time>2019-08-16T12:34:11Z</time>
      </trkpt>
      <trkpt lat="48.01432" lon="6.76794">
        <ele>564.511902</ele>
        <time>2019-08-16T12:34:12Z</time>
      </trkpt>
      <trkpt lat="48.01433" lon="6.76797">
        <ele>564.559082</ele>
        <time>2019-08-16T12:34:13Z</time>
      </trkpt>
      <trkpt lat="48.01433" lon="6.768">
        <ele>564.593079</ele>
        <time>2019-08-16T12:34:14Z</time>
      </trkpt>
      <trkpt lat="48.01434" lon="6.76803">
        <ele>564.605225</ele>
        <time>2019-08-16T12:34:15Z</time>
      </trkpt>
      <trkpt lat="48.01435" lon="6.76807">
        <ele>564.605225</ele>
        <time>2019-08-16T12:34:16Z</time>
      </trkpt>
      <trkpt lat="48.01436" lon="6.76811">
        <ele>564.596436</ele>
        <time>2019-08-16T12:34:17Z</time>
      </trkpt>
      <trkpt lat="48.01436" lon="6.76816">
        <ele>564.563538</ele>
        <time>2019-08-16T12:34:18Z</time>
      </trkpt>
      <trkpt lat="48.01437" lon="6.76821">
        <ele>564.499939</ele>
        <time>2019-08-16T12:34:19Z</time>
      </trkpt>
      <trkpt lat="48.01438" lon="6.76826">
        <ele>564.453308</ele>
        <time>2019-08-16T12:34:20Z</time>
      </trkpt>
      <trkpt lat="48.01438" lon="6.76832">
        <ele>564.396729</ele>
        <time>2019-08-16T12:34:21Z</time>
      </trkpt>
      <trkpt lat="48.01438" lon="6.76837">
        <ele>564.315613</ele>
        <time>2019-08-16T12:34:22Z</time>
      </trkpt>
      <trkpt lat="48.01438" lon="6.76844">
        <ele>564.206543</ele>
        <time>2019-08-16T12:34:23Z</time>
      </trkpt>
      <trkpt lat="48.01438" lon="6.7685">
        <ele>563.99823</ele>
        <time>2019-08-16T12:34:24Z</time>
      </trkpt>
      <trkpt lat="48.01438" lon="6.76856">
        <ele>563.838135</ele>
        <time>2019-08-16T12:34:25Z</time>
      </trkpt>
      <trkpt lat="48.01439" lon="6.76863">
        <ele>563.658325</ele>
        <time>2019-08-16T12:34:26Z</time>
      </trkpt>
      <trkpt lat="48.01439" lon="6.7687">
        <ele>563.454773</ele>
        <time>2019-08-16T12:34:27Z</time>
      </trkpt>
      <trkpt lat="48.01439" lon="6.76877">
        <ele>563.10553</ele>
        <time>2019-08-16T12:34:28Z</time>
      </trkpt>
      <trkpt lat="48.0144" lon="6.76883">
        <ele>562.871826</ele>
        <time>2019-08-16T12:34:29Z</time>
      </trkpt>
      <trkpt lat="48.01442" lon="6.7689">
        <ele>562.662231</ele>
        <time>2019-08-16T12:34:30Z</time>
      </trkpt>
      <trkpt lat="48.01443" lon="6.76895">
        <ele>562.487732</ele>
        <time>2019-08-16T12:34:31Z</time>
      </trkpt>
      <trkpt lat="48.01445" lon="6.76901">
        <ele>562.339661</ele>
        <time>2019-08-16T12:34:32Z</time>
      </trkpt>
      <trkpt lat="48.01447" lon="6.76906">
        <ele>562.269592</ele>
        <time>2019-08-16T12:34:33Z</time>
      </trkpt>
      <trkpt lat="48.01449" lon="6.76911">
        <ele>562.203186</ele>
        <time>2019-08-16T12:34:34Z</time>
      </trkpt>
      <trkpt lat="48.01451" lon="6.76916">
        <ele>562.073792</ele>
        <time>2019-08-16T12:34:35Z</time>
      </trkpt>
      <trkpt lat="48.01453" lon="6.7692">
        <ele>561.950317</ele>
        <time>2019-08-16T12:34:36Z</time>
      </trkpt>
      <trkpt lat="48.01455" lon="6.76925">
        <ele>561.78125</ele>
        <time>2019-08-16T12:34:37Z</time>
      </trkpt>
      <trkpt lat="48.01457" lon="6.76929">
        <ele>561.669434</ele>
        <time>2019-08-16T12:34:38Z</time>
      </trkpt>
      <trkpt lat="48.0146" lon="6.76933">
        <ele>561.5578</ele>
        <time>2019-08-16T12:34:39Z</time>
      </trkpt>
      <trkpt lat="48.01462" lon="6.76937">
        <ele>561.45929</ele>
        <time>2019-08-16T12:34:40Z</time>
      </trkpt>
      <trkpt lat="48.01465" lon="6.76941">
        <ele>561.38092</ele>
        <time>2019-08-16T12:34:41Z</time>
      </trkpt>
      <trkpt lat="48.01467" lon="6.76943">
        <ele>561.316528</ele>
        <time>2019-08-16T12:34:42Z</time>
      </trkpt>
      <trkpt lat="48.0147" lon="6.76946">
        <ele>561.271057</ele>
        <time>2019-08-16T12:34:43Z</time>
      </trkpt>
      <trkpt lat="48.01473" lon="6.76949">
        <ele>561.263367</ele>
        <time>2019-08-16T12:34:44Z</time>
      </trkpt>
      <trkpt lat="48.01476" lon="6.76952">
        <ele>561.27948</ele>
        <time>2019-08-16T12:34:45Z</time>
      </trkpt>
      <trkpt lat="48.01478" lon="6.76956">
        <ele>561.329712</ele>
        <time>2019-08-16T12:34:46Z</time>
      </trkpt>
      <trkpt lat="48.01481" lon="6.76959">
        <ele>561.408142</ele>
        <time>2019-08-16T12:34:47Z</time>
      </trkpt>
      <trkpt lat="48.01484" lon="6.76962">
        <ele>561.442627</ele>
        <time>2019-08-16T12:34:48Z</time>
      </trkpt>
      <trkpt lat="48.01487" lon="6.76965">
        <ele>561.450745</ele>
        <time>2019-08-16T12:34:49Z</time>
      </trkpt>
      <trkpt lat="48.0149" lon="6.76968">
        <ele>561.44458</ele>
        <time>2019-08-16T12:34:50Z</time>
      </trkpt>
      <trkpt lat="48.01492" lon="6.76971">
        <ele>561.407471</ele>
        <time>2019-08-16T12:34:51Z</time>
      </trkpt>
      <trkpt lat="48.01495" lon="6.76974">
        <ele>561.343811</ele>
        <time>2019-08-16T12:34:52Z</time>
      </trkpt>
      <trkpt lat="48.01498" lon="6.76976">
        <ele>561.230652</ele>
        <time>2019-08-16T12:34:53Z</time>
      </trkpt>
      <trkpt lat="48.015" lon="6.76977">
        <ele>561.155762</ele>
        <time>2019-08-16T12:34:54Z</time>
      </trkpt>
      <trkpt lat="48.01503" lon="6.76979">
        <ele>561.08844</ele>
        <time>2019-08-16T12:34:55Z</time>
      </trkpt>
      <trkpt lat="48.01505" lon="6.7698">
        <ele>561.013306</ele>
        <time>2019-08-16T12:34:56Z</time>
      </trkpt>
      <trkpt lat="48.01507" lon="6.76981">
        <ele>560.987061</ele>
        <time>2019-08-16T12:34:57Z</time>
      </trkpt>
      <trkpt lat="48.0151" lon="6.76981">
        <ele>560.977966</ele>
        <time>2019-08-16T12:34:58Z</time>
      </trkpt>
      <trkpt lat="48.01512" lon="6.76981">
        <ele>560.979309</ele>
        <time>2019-08-16T12:34:59Z</time>
      </trkpt>
      <trkpt lat="48.01514" lon="6.76982">
        <ele>560.988342</ele>
        <time>2019-08-16T12:35:00Z</time>
      </trkpt>
      <trkpt lat="48.01516" lon="6.76982">
        <ele>561.000183</ele>
        <time>2019-08-16T12:35:01Z</time>
      </trkpt>
      <trkpt lat="48.01518" lon="6.76983">
        <ele>561.027527</ele>
        <time>2019-08-16T12:35:02Z</time>
      </trkpt>
      <trkpt lat="48.0152" lon="6.76983">
        <ele>561.048279</ele>
        <time>2019-08-16T12:35:03Z</time>
      </trkpt>
      <trkpt lat="48.01522" lon="6.76984">
        <ele>561.055847</ele>
        <time>2019-08-16T12:35:04Z</time>
      </trkpt>
      <trkpt lat="48.01524" lon="6.76984">
        <ele>561.055054</ele>
        <time>2019-08-16T12:35:05Z</time>
      </trkpt>
      <trkpt lat="48.01527" lon="6.76985">
        <ele>561.046875</ele>
        <time>2019-08-16T12:35:06Z</time>
      </trkpt>
      <trkpt lat="48.01529" lon="6.76986">
        <ele>561.037415</ele>
        <time>2019-08-16T12:35:07Z</time>
      </trkpt>
      <trkpt lat="48.01531" lon="6.76986">
        <ele>561.033142</ele>
        <time>2019-08-16T12:35:08Z</time>
      </trkpt>
      <trkpt lat="48.01533" lon="6.76987">
        <ele>561.033142</ele>
        <time>2019-08-16T12:35:09Z</time>
      </trkpt>
      <trkpt lat="48.01535" lon="6.76988">
        <ele>561.036194</ele>
        <time>2019-08-16T12:35:10Z</time>
      </trkpt>
      <trkpt lat="48.01538" lon="6.76989">
        <ele>561.047424</ele>
        <time>2019-08-16T12:35:11Z</time>
      </trkpt>
      <trkpt lat="48.0154" lon="6.7699">
        <ele>561.0578</ele>
        <time>2019-08-16T12:35:12Z</time>
      </trkpt>
      <trkpt lat="48.01542" lon="6.76991">
        <ele>561.059631</ele>
        <time>2019-08-16T12:35:13Z</time>
      </trkpt>
      <trkpt lat="48.01545" lon="6.76992">
        <ele>561.053711</ele>
        <time>2019-08-16T12:35:14Z</time>
      </trkpt>
      <trkpt lat="48.01548" lon="6.76993">
        <ele>561.034119</ele>
        <time>2019-08-16T12:35:15Z</time>
      </trkpt>
      <trkpt lat="48.01551" lon="6.76994">
        <ele>561.005676</ele>
        <time>2019-08-16T12:35:16Z</time>
      </trkpt>
      <trkpt lat="48.01555" lon="6.76996">
        <ele>560.939697</ele>
        <time>2019-08-16T12:35:17Z</time>
      </trkpt>
      <trkpt lat="48.01557" lon="6.76998">
        <ele>560.878601</ele>
        <time>2019-08-16T12:35:18Z</time>
      </trkpt>
      <trkpt lat="48.0156" lon="6.76999">
        <ele>560.805603</ele>
        <time>2019-08-16T12:35:19Z</time>
      </trkpt>
      <trkpt lat="48.01563" lon="6.77001">
        <ele>560.68988</ele>
        <time>2019-08-16T12:35:20Z</time>
      </trkpt>
      <trkpt lat="48.01565" lon="6.77003">
        <ele>560.624634</ele>
        <time>2019-08-16T12:35:21Z</time>
      </trkpt>
      <trkpt lat="48.01568" lon="6.77005">
        <ele>560.5672</ele>
        <time>2019-08-16T12:35:22Z</time>
      </trkpt>
      <trkpt lat="48.0157" lon="6.77006">
        <ele>560.479675</ele>
        <time>2019-08-16T12:35:23Z</time>
      </trkpt>
      <trkpt lat="48.01572" lon="6.77008">
        <ele>560.423584</ele>
        <time>2019-08-16T12:35:24Z</time>
      </trkpt>
      <trkpt lat="48.01575" lon="6.77009">
        <ele>560.371399</ele>
        <time>2019-08-16T12:35:25Z</time>
      </trkpt>
      <trkpt lat="48.01577" lon="6.7701">
        <ele>560.300476</ele>
        <time>2019-08-16T12:35:26Z</time>
      </trkpt>
      <trkpt lat="48.0158" lon="6.77011">
        <ele>560.254822</ele>
        <time>2019-08-16T12:35:27Z</time>
      </trkpt>
      <trkpt lat="48.01582" lon="6.77013">
        <ele>560.205322</ele>
        <time>2019-08-16T12:35:28Z</time>
      </trkpt>
      <trkpt lat="48.01585" lon="6.77014">
        <ele>560.114502</ele>
        <time>2019-08-16T12:35:29Z</time>
      </trkpt>
      <trkpt lat="48.01588" lon="6.77015">
        <ele>560.048889</ele>
        <time>2019-08-16T12:35:30Z</time>
      </trkpt>
      <trkpt lat="48.01591" lon="6.77017">
        <ele>559.984253</ele>
        <time>2019-08-16T12:35:31Z</time>
      </trkpt>
      <trkpt lat="48.01594" lon="6.77018">
        <ele>559.875977</ele>
        <time>2019-08-16T12:35:32Z</time>
      </trkpt>
      <trkpt lat="48.01597" lon="6.7702">
        <ele>559.795837</ele>
        <time>2019-08-16T12:35:33Z</time>
      </trkpt>
      <trkpt lat="48.016" lon="6.77023">
        <ele>559.757385</ele>
        <time>2019-08-16T12:35:34Z</time>
      </trkpt>
      <trkpt lat="48.01603" lon="6.77025">
        <ele>559.720703</ele>
        <time>2019-08-16T12:35:35Z</time>
      </trkpt>
      <trkpt lat="48.01606" lon="6.77028">
        <ele>559.620789</ele>
        <time>2019-08-16T12:35:36Z</time>
      </trkpt>
      <trkpt lat="48.01608" lon="6.77032">
        <ele>559.557739</ele>
        <time>2019-08-16T12:35:37Z</time>
      </trkpt>
      <trkpt lat="48.0161" lon="6.77037">
        <ele>559.490967</ele>
        <time>2019-08-16T12:35:38Z</time>
      </trkpt>
      <trkpt lat="48.01611" lon="6.77042">
        <ele>559.420898</ele>
        <time>2019-08-16T12:35:39Z</time>
      </trkpt>
      <trkpt lat="48.01613" lon="6.77047">
        <ele>559.351135</ele>
        <time>2019-08-16T12:35:40Z</time>
      </trkpt>
      <trkpt lat="48.01613" lon="6.77052">
        <ele>559.289063</ele>
        <time>2019-08-16T12:35:41Z</time>
      </trkpt>
      <trkpt lat="48.01613" lon="6.77058">
        <ele>559.225525</ele>
        <time>2019-08-16T12:35:42Z</time>
      </trkpt>
      <trkpt lat="48.01613" lon="6.77065">
        <ele>559.151123</ele>
        <time>2019-08-16T12:35:43Z</time>
      </trkpt>
      <trkpt lat="48.01612" lon="6.77072">
        <ele>559.058533</ele>
        <time>2019-08-16T12:35:44Z</time>
      </trkpt>
      <trkpt lat="48.01611" lon="6.77079">
        <ele>558.954102</ele>
        <time>2019-08-16T12:35:45Z</time>
      </trkpt>
      <trkpt lat="48.0161" lon="6.77087">
        <ele>558.838379</ele>
        <time>2019-08-16T12:35:46Z</time>
      </trkpt>
      <trkpt lat="48.01611" lon="6.77095">
        <ele>558.702576</ele>
        <time>2019-08-16T12:35:47Z</time>
      </trkpt>
      <trkpt lat="48.01612" lon="6.77104">
        <ele>558.542175</ele>
        <time>2019-08-16T12:35:48Z</time>
      </trkpt>
      <trkpt lat="48.01614" lon="6.77111">
        <ele>558.342957</ele>
        <time>2019-08-16T12:35:49Z</time>
      </trkpt>
      <trkpt lat="48.01617" lon="6.77118">
        <ele>558.113831</ele>
        <time>2019-08-16T12:35:50Z</time>
      </trkpt>
      <trkpt lat="48.01621" lon="6.77125">
        <ele>557.846619</ele>
        <time>2019-08-16T12:35:51Z</time>
      </trkpt>
      <trkpt lat="48.01624" lon="6.77131">
        <ele>557.386047</ele>
        <time>2019-08-16T12:35:52Z</time>
      </trkpt>
      <trkpt lat="48.01629" lon="6.77136">
        <ele>557.055359</ele>
        <time>2019-08-16T12:35:53Z</time>
      </trkpt>
      <trkpt lat="48.01633" lon="6.77141">
        <ele>556.728943</ele>
        <time>2019-08-16T12:35:54Z</time>
      </trkpt>
      <trkpt lat="48.01638" lon="6.77145">
        <ele>556.418396</ele>
        <time>2019-08-16T12:35:55Z</time>
      </trkpt>
      <trkpt lat="48.01642" lon="6.77149">
        <ele>555.969055</ele>
        <time>2019-08-16T12:35:56Z</time>
      </trkpt>
      <trkpt lat="48.01646" lon="6.77153">
        <ele>555.67926</ele>
        <time>2019-08-16T12:35:57Z</time>
      </trkpt>
      <trkpt lat="48.0165" lon="6.77159">
        <ele>555.412109</ele>
        <time>2019-08-16T12:35:58Z</time>
      </trkpt>
      <trkpt lat="48.01653" lon="6.77165">
        <ele>555.06543</ele>
        <time>2019-08-16T12:35:59Z</time>
      </trkpt>
      <trkpt lat="48.01656" lon="6.77172">
        <ele>554.873901</ele>
        <time>2019-08-16T12:36:00Z</time>
      </trkpt>
      <trkpt lat="48.01658" lon="6.7718">
        <ele>554.702393</ele>
        <time>2019-08-16T12:36:01Z</time>
      </trkpt>
      <trkpt lat="48.01659" lon="6.77188">
        <ele>554.540161</ele>
        <time>2019-08-16T12:36:02Z</time>
      </trkpt>
      <trkpt lat="48.01662" lon="6.77196">
        <ele>554.384521</ele>
        <time>2019-08-16T12:36:03Z</time>
      </trkpt>
      <trkpt lat="48.01663" lon="6.77205">
        <ele>554.227783</ele>
        <time>2019-08-16T12:36:04Z</time>
      </trkpt>
      <trkpt lat="48.01663" lon="6.77214">
        <ele>553.975891</ele>
        <time>2019-08-16T12:36:05Z</time>
      </trkpt>
      <trkpt lat="48.01662" lon="6.77223">
        <ele>553.780212</ele>
        <time>2019-08-16T12:36:06Z</time>
      </trkpt>
      <trkpt lat="48.01661" lon="6.77231">
        <ele>553.553955</ele>
        <time>2019-08-16T12:36:07Z</time>
      </trkpt>
      <trkpt lat="48.0166" lon="6.77239">
        <ele>553.307922</ele>
        <time>2019-08-16T12:36:08Z</time>
      </trkpt>
      <trkpt lat="48.01659" lon="6.77247">
        <ele>552.933105</ele>
        <time>2019-08-16T12:36:09Z</time>
      </trkpt>
      <trkpt lat="48.01658" lon="6.77255">
        <ele>552.700012</ele>
        <time>2019-08-16T12:36:10Z</time>
      </trkpt>
      <trkpt lat="48.01656" lon="6.77262">
        <ele>552.495789</ele>
        <time>2019-08-16T12:36:11Z</time>
      </trkpt>
      <trkpt lat="48.01654" lon="6.77269">
        <ele>552.329773</ele>
        <time>2019-08-16T12:36:12Z</time>
      </trkpt>
      <trkpt lat="48.01653" lon="6.77276">
        <ele>552.206543</ele>
        <time>2019-08-16T12:36:13Z</time>
      </trkpt>
      <trkpt lat="48.01655" lon="6.77282">
        <ele>552.105835</ele>
        <time>2019-08-16T12:36:14Z</time>
      </trkpt>
      <trkpt lat="48.01657" lon="6.77287">
        <ele>552.025696</ele>
        <time>2019-08-16T12:36:15Z</time>
      </trkpt>
      <trkpt lat="48.0166" lon="6.7729">
        <ele>551.952759</ele>
        <time>2019-08-16T12:36:16Z</time>
      </trkpt>
      <trkpt lat="48.01664" lon="6.77292">
        <ele>551.869446</ele>
        <time>2019-08-16T12:36:17Z</time>
      </trkpt>
      <trkpt lat="48.01667" lon="6.77294">
        <ele>551.831726</ele>
        <time>2019-08-16T12:36:18Z</time>
      </trkpt>
      <trkpt lat="48.01669" lon="6.77296">
        <ele>551.824524</ele>
        <time>2019-08-16T12:36:19Z</time>
      </trkpt>
      <trkpt lat="48.01672" lon="6.77298">
        <ele>551.839783</ele>
        <time>2019-08-16T12:36:20Z</time>
      </trkpt>
      <trkpt lat="48.01675" lon="6.773">
        <ele>551.894104</ele>
        <time>2019-08-16T12:36:21Z</time>
      </trkpt>
      <trkpt lat="48.01678" lon="6.77302">
        <ele>551.988342</ele>
        <time>2019-08-16T12:36:22Z</time>
      </trkpt>
      <trkpt lat="48.01681" lon="6.77304">
        <ele>552.189514</ele>
        <time>2019-08-16T12:36:23Z</time>
      </trkpt>
      <trkpt lat="48.01683" lon="6.77307">
        <ele>552.359619</ele>
        <time>2019-08-16T12:36:24Z</time>
      </trkpt>
      <trkpt lat="48.01686" lon="6.7731">
        <ele>552.543396</ele>
        <time>2019-08-16T12:36:25Z</time>
      </trkpt>
      <trkpt lat="48.01688" lon="6.77313">
        <ele>552.830872</ele>
        <time>2019-08-16T12:36:26Z</time>
      </trkpt>
      <trkpt lat="48.0169" lon="6.77317">
        <ele>553.018982</ele>
        <time>2019-08-16T12:36:27Z</time>
      </trkpt>
      <trkpt lat="48.01692" lon="6.7732">
        <ele>553.201416</ele>
        <time>2019-08-16T12:36:28Z</time>
      </trkpt>
      <trkpt lat="48.01693" lon="6.77323">
        <ele>553.461121</ele>
        <time>2019-08-16T12:36:29Z</time>
      </trkpt>
      <trkpt lat="48.01695" lon="6.77327">
        <ele>553.619324</ele>
        <time>2019-08-16T12:36:30Z</time>
      </trkpt>
      <trkpt lat="48.01697" lon="6.7733">
        <ele>553.754456</ele>
        <time>2019-08-16T12:36:31Z</time>
      </trkpt>
      <trkpt lat="48.01698" lon="6.77334">
        <ele>553.864441</ele>
        <time>2019-08-16T12:36:32Z</time>
      </trkpt>
      <trkpt lat="48.01699" lon="6.77338">
        <ele>553.956604</ele>
        <time>2019-08-16T12:36:33Z</time>
      </trkpt>
      <trkpt lat="48.017" lon="6.77342">
        <ele>554.03772</ele>
        <time>2019-08-16T12:36:34Z</time>
      </trkpt>
      <trkpt lat="48.01702" lon="6.77345">
        <ele>554.073547</ele>
        <time>2019-08-16T12:36:35Z</time>
      </trkpt>
      <trkpt lat="48.01704" lon="6.77349">
        <ele>554.105652</ele>
        <time>2019-08-16T12:36:36Z</time>
      </trkpt>
      <trkpt lat="48.01706" lon="6.77353">
        <ele>554.152893</ele>
        <time>2019-08-16T12:36:37Z</time>
      </trkpt>
      <trkpt lat="48.01708" lon="6.77357">
        <ele>554.177551</ele>
        <time>2019-08-16T12:36:38Z</time>
      </trkpt>
      <trkpt lat="48.01711" lon="6.7736">
        <ele>554.193176</ele>
        <time>2019-08-16T12:36:39Z</time>
      </trkpt>
      <trkpt lat="48.01712" lon="6.77364">
        <ele>554.216064</ele>
        <time>2019-08-16T12:36:40Z</time>
      </trkpt>
      <trkpt lat="48.01713" lon="6.77367">
        <ele>554.265198</ele>
        <time>2019-08-16T12:36:41Z</time>
      </trkpt>
      <trkpt lat="48.01714" lon="6.7737">
        <ele>554.338196</ele>
        <time>2019-08-16T12:36:42Z</time>
      </trkpt>
      <trkpt lat="48.01716" lon="6.77373">
        <ele>554.439575</ele>
        <time>2019-08-16T12:36:43Z</time>
      </trkpt>
      <trkpt lat="48.01718" lon="6.77377">
        <ele>554.65094</ele>
        <time>2019-08-16T12:36:44Z</time>
      </trkpt>
      <trkpt lat="48.0172" lon="6.7738">
        <ele>554.825378</ele>
        <time>2019-08-16T12:36:45Z</time>
      </trkpt>
      <trkpt lat="48.01722" lon="6.77384">
        <ele>555.003113</ele>
        <time>2019-08-16T12:36:46Z</time>
      </trkpt>
      <trkpt lat="48.01724" lon="6.77387">
        <ele>555.167297</ele>
        <time>2019-08-16T12:36:47Z</time>
      </trkpt>
      <trkpt lat="48.01727" lon="6.7739">
        <ele>555.374634</ele>
        <time>2019-08-16T12:36:48Z</time>
      </trkpt>
      <trkpt lat="48.01728" lon="6.77393">
        <ele>555.492615</ele>
        <time>2019-08-16T12:36:49Z</time>
      </trkpt>
      <trkpt lat="48.01731" lon="6.77395">
        <ele>555.59906</ele>
        <time>2019-08-16T12:36:50Z</time>
      </trkpt>
      <trkpt lat="48.01733" lon="6.77398">
        <ele>555.729431</ele>
        <time>2019-08-16T12:36:51Z</time>
      </trkpt>
      <trkpt lat="48.01736" lon="6.77401">
        <ele>555.789001</ele>
        <time>2019-08-16T12:36:52Z</time>
      </trkpt>
      <trkpt lat="48.01738" lon="6.77404">
        <ele>555.83197</ele>
        <time>2019-08-16T12:36:53Z</time>
      </trkpt>
      <trkpt lat="48.01741" lon="6.77408">
        <ele>555.870605</ele>
        <time>2019-08-16T12:36:54Z</time>
      </trkpt>
      <trkpt lat="48.01743" lon="6.77412">
        <ele>555.930359</ele>
        <time>2019-08-16T12:36:55Z</time>
      </trkpt>
      <trkpt lat="48.01745" lon="6.77416">
        <ele>555.953064</ele>
        <time>2019-08-16T12:36:56Z</time>
      </trkpt>
      <trkpt lat="48.01747" lon="6.7742">
        <ele>555.953064</ele>
        <time>2019-08-16T12:36:57Z</time>
      </trkpt>
      <trkpt lat="48.01749" lon="6.77425">
        <ele>555.946106</ele>
        <time>2019-08-16T12:36:58Z</time>
      </trkpt>
      <trkpt lat="48.0175" lon="6.77429">
        <ele>555.920471</ele>
        <time>2019-08-16T12:36:59Z</time>
      </trkpt>
      <trkpt lat="48.01752" lon="6.77434">
        <ele>555.887268</ele>
        <time>2019-08-16T12:37:00Z</time>
      </trkpt>
      <trkpt lat="48.01753" lon="6.77439">
        <ele>555.833557</ele>
        <time>2019-08-16T12:37:01Z</time>
      </trkpt>
      <trkpt lat="48.01754" lon="6.77444">
        <ele>555.781799</ele>
        <time>2019-08-16T12:37:02Z</time>
      </trkpt>
      <trkpt lat="48.01756" lon="6.77448">
        <ele>555.715027</ele>
        <time>2019-08-16T12:37:03Z</time>
      </trkpt>
      <trkpt lat="48.01758" lon="6.77453">
        <ele>555.633606</ele>
        <time>2019-08-16T12:37:04Z</time>
      </trkpt>
      <trkpt lat="48.01759" lon="6.77457">
        <ele>555.540344</ele>
        <time>2019-08-16T12:37:05Z</time>
      </trkpt>
      <trkpt lat="48.01761" lon="6.77461">
        <ele>555.4328</ele>
        <time>2019-08-16T12:37:06Z</time>
      </trkpt>
      <trkpt lat="48.01762" lon="6.77466">
        <ele>555.310364</ele>
        <time>2019-08-16T12:37:07Z</time>
      </trkpt>
      <trkpt lat="48.01764" lon="6.77471">
        <ele>555.170898</ele>
        <time>2019-08-16T12:37:08Z</time>
      </trkpt>
      <trkpt lat="48.01765" lon="6.77475">
        <ele>555.020325</ele>
        <time>2019-08-16T12:37:09Z</time>
      </trkpt>
      <trkpt lat="48.01767" lon="6.7748">
        <ele>554.803223</ele>
        <time>2019-08-16T12:37:10Z</time>
      </trkpt>
      <trkpt lat="48.01769" lon="6.77484">
        <ele>554.678223</ele>
        <time>2019-08-16T12:37:11Z</time>
      </trkpt>
      <trkpt lat="48.0177" lon="6.77488">
        <ele>554.572083</ele>
        <time>2019-08-16T12:37:12Z</time>
      </trkpt>
      <trkpt lat="48.01773" lon="6.77492">
        <ele>554.486267</ele>
        <time>2019-08-16T12:37:13Z</time>
      </trkpt>
      <trkpt lat="48.01775" lon="6.77496">
        <ele>554.395447</ele>
        <time>2019-08-16T12:37:14Z</time>
      </trkpt>
      <trkpt lat="48.01777" lon="6.775">
        <ele>554.350159</ele>
        <time>2019-08-16T12:37:15Z</time>
      </trkpt>
      <trkpt lat="48.01778" lon="6.77505">
        <ele>554.304626</ele>
        <time>2019-08-16T12:37:16Z</time>
      </trkpt>
      <trkpt lat="48.0178" lon="6.77509">
        <ele>554.253357</ele>
        <time>2019-08-16T12:37:17Z</time>
      </trkpt>
      <trkpt lat="48.01781" lon="6.77513">
        <ele>554.197327</ele>
        <time>2019-08-16T12:37:18Z</time>
      </trkpt>
      <trkpt lat="48.01783" lon="6.77518">
        <ele>554.138611</ele>
        <time>2019-08-16T12:37:19Z</time>
      </trkpt>
      <trkpt lat="48.01783" lon="6.77522">
        <ele>554.075317</ele>
        <time>2019-08-16T12:37:20Z</time>
      </trkpt>
      <trkpt lat="48.01785" lon="6.77526">
        <ele>554.011047</ele>
        <time>2019-08-16T12:37:21Z</time>
      </trkpt>
      <trkpt lat="48.01786" lon="6.77531">
        <ele>553.946167</ele>
        <time>2019-08-16T12:37:22Z</time>
      </trkpt>
      <trkpt lat="48.01788" lon="6.77535">
        <ele>553.882141</ele>
        <time>2019-08-16T12:37:23Z</time>
      </trkpt>
      <trkpt lat="48.0179" lon="6.7754">
        <ele>553.786133</ele>
        <time>2019-08-16T12:37:24Z</time>
      </trkpt>
      <trkpt lat="48.01791" lon="6.77545">
        <ele>553.730591</ele>
        <time>2019-08-16T12:37:25Z</time>
      </trkpt>
      <trkpt lat="48.01792" lon="6.7755">
        <ele>553.679871</ele>
        <time>2019-08-16T12:37:26Z</time>
      </trkpt>
      <trkpt lat="48.01793" lon="6.77555">
        <ele>553.628967</ele>
        <time>2019-08-16T12:37:27Z</time>
      </trkpt>
      <trkpt lat="48.01795" lon="6.7756">
        <ele>553.573792</ele>
        <time>2019-08-16T12:37:28Z</time>
      </trkpt>
      <trkpt lat="48.01796" lon="6.77564">
        <ele>553.516418</ele>
        <time>2019-08-16T12:37:29Z</time>
      </trkpt>
      <trkpt lat="48.01798" lon="6.77568">
        <ele>553.458008</ele>
        <time>2019-08-16T12:37:30Z</time>
      </trkpt>
      <trkpt lat="48.01799" lon="6.77573">
        <ele>553.371521</ele>
        <time>2019-08-16T12:37:31Z</time>
      </trkpt>
      <trkpt lat="48.01801" lon="6.77578">
        <ele>553.314148</ele>
        <time>2019-08-16T12:37:32Z</time>
      </trkpt>
      <trkpt lat="48.01802" lon="6.77582">
        <ele>553.253296</ele>
        <time>2019-08-16T12:37:33Z</time>
      </trkpt>
      <trkpt lat="48.01804" lon="6.77587">
        <ele>553.190735</ele>
        <time>2019-08-16T12:37:34Z</time>
      </trkpt>
      <trkpt lat="48.01806" lon="6.77591">
        <ele>553.160583</ele>
        <time>2019-08-16T12:37:35Z</time>
      </trkpt>
      <trkpt lat="48.01809" lon="6.77595">
        <ele>553.130188</ele>
        <time>2019-08-16T12:37:36Z</time>
      </trkpt>
      <trkpt lat="48.01811" lon="6.776">
        <ele>553.071594</ele>
        <time>2019-08-16T12:37:37Z</time>
      </trkpt>
      <trkpt lat="48.01812" lon="6.77604">
        <ele>553.022827</ele>
        <time>2019-08-16T12:37:38Z</time>
      </trkpt>
      <trkpt lat="48.01814" lon="6.77607">
        <ele>553.022827</ele>
        <time>2019-08-16T12:37:39Z</time>
      </trkpt>
      <trkpt lat="48.01814" lon="6.77611">
        <ele>553.041138</ele>
        <time>2019-08-16T12:37:40Z</time>
      </trkpt>
      <trkpt lat="48.01814" lon="6.77614">
        <ele>553.111145</ele>
        <time>2019-08-16T12:37:41Z</time>
      </trkpt>
      <trkpt lat="48.01815" lon="6.77618">
        <ele>553.22229</ele>
        <time>2019-08-16T12:37:42Z</time>
      </trkpt>
      <trkpt lat="48.01815" lon="6.77622">
        <ele>553.359619</ele>
        <time>2019-08-16T12:37:43Z</time>
      </trkpt>
      <trkpt lat="48.01816" lon="6.77627">
        <ele>553.502258</ele>
        <time>2019-08-16T12:37:44Z</time>
      </trkpt>
      <trkpt lat="48.01817" lon="6.77634">
        <ele>553.63092</ele>
        <time>2019-08-16T12:37:45Z</time>
      </trkpt>
      <trkpt lat="48.01819" lon="6.7764">
        <ele>553.745422</ele>
        <time>2019-08-16T12:37:46Z</time>
      </trkpt>
      <trkpt lat="48.01821" lon="6.77644">
        <ele>553.837891</ele>
        <time>2019-08-16T12:37:47Z</time>
      </trkpt>
      <trkpt lat="48.01824" lon="6.77648">
        <ele>553.906189</ele>
        <time>2019-08-16T12:37:48Z</time>
      </trkpt>
      <trkpt lat="48.01827" lon="6.77651">
        <ele>553.927185</ele>
        <time>2019-08-16T12:37:49Z</time>
      </trkpt>
      <trkpt lat="48.0183" lon="6.77654">
        <ele>553.921936</ele>
        <time>2019-08-16T12:37:50Z</time>
      </trkpt>
      <trkpt lat="48.01832" lon="6.77657">
        <ele>553.883728</ele>
        <time>2019-08-16T12:37:51Z</time>
      </trkpt>
      <trkpt lat="48.01835" lon="6.77661">
        <ele>553.798279</ele>
        <time>2019-08-16T12:37:52Z</time>
      </trkpt>
      <trkpt lat="48.01836" lon="6.77664">
        <ele>553.756409</ele>
        <time>2019-08-16T12:37:53Z</time>
      </trkpt>
      <trkpt lat="48.01839" lon="6.77667">
        <ele>553.741882</ele>
        <time>2019-08-16T12:37:54Z</time>
      </trkpt>
      <trkpt lat="48.01841" lon="6.7767">
        <ele>553.746033</ele>
        <time>2019-08-16T12:37:55Z</time>
      </trkpt>
      <trkpt lat="48.01843" lon="6.77673">
        <ele>553.780945</ele>
        <time>2019-08-16T12:37:56Z</time>
      </trkpt>
      <trkpt lat="48.01845" lon="6.77677">
        <ele>553.826416</ele>
        <time>2019-08-16T12:37:57Z</time>
      </trkpt>
      <trkpt lat="48.01847" lon="6.77681">
        <ele>553.92157</ele>
        <time>2019-08-16T12:37:58Z</time>
      </trkpt>
      <trkpt lat="48.01848" lon="6.77685">
        <ele>554.001465</ele>
        <time>2019-08-16T12:37:59Z</time>
      </trkpt>
      <trkpt lat="48.01849" lon="6.77689">
        <ele>554.075928</ele>
        <time>2019-08-16T12:38:00Z</time>
      </trkpt>
      <trkpt lat="48.01851" lon="6.77693">
        <ele>554.147034</ele>
        <time>2019-08-16T12:38:01Z</time>
      </trkpt>
      <trkpt lat="48.01851" lon="6.77696">
        <ele>554.21991</ele>
        <time>2019-08-16T12:38:02Z</time>
      </trkpt>
      <trkpt lat="48.01852" lon="6.77699">
        <ele>554.312805</ele>
        <time>2019-08-16T12:38:03Z</time>
      </trkpt>
      <trkpt lat="48.01854" lon="6.77703">
        <ele>554.421631</ele>
        <time>2019-08-16T12:38:04Z</time>
      </trkpt>
      <trkpt lat="48.01854" lon="6.77705">
        <ele>554.53241</ele>
        <time>2019-08-16T12:38:05Z</time>
      </trkpt>
      <trkpt lat="48.01855" lon="6.77708">
        <ele>554.640686</ele>
        <time>2019-08-16T12:38:06Z</time>
      </trkpt>
      <trkpt lat="48.01855" lon="6.77711">
        <ele>554.80127</ele>
        <time>2019-08-16T12:38:07Z</time>
      </trkpt>
      <trkpt lat="48.01855" lon="6.77714">
        <ele>554.921875</ele>
        <time>2019-08-16T12:38:08Z</time>
      </trkpt>
      <trkpt lat="48.01855" lon="6.77717">
        <ele>555.053955</ele>
        <time>2019-08-16T12:38:09Z</time>
      </trkpt>
      <trkpt lat="48.01856" lon="6.7772">
        <ele>555.195801</ele>
        <time>2019-08-16T12:38:10Z</time>
      </trkpt>
      <trkpt lat="48.01857" lon="6.77723">
        <ele>555.418091</ele>
        <time>2019-08-16T12:38:11Z</time>
      </trkpt>
      <trkpt lat="48.01857" lon="6.77726">
        <ele>555.580811</ele>
        <time>2019-08-16T12:38:12Z</time>
      </trkpt>
      <trkpt lat="48.01857" lon="6.77729">
        <ele>555.75293</ele>
        <time>2019-08-16T12:38:13Z</time>
      </trkpt>
      <trkpt lat="48.01858" lon="6.77732">
        <ele>555.998657</ele>
        <time>2019-08-16T12:38:14Z</time>
      </trkpt>
      <trkpt lat="48.01858" lon="6.77735">
        <ele>556.141541</ele>
        <time>2019-08-16T12:38:15Z</time>
      </trkpt>
      <trkpt lat="48.01858" lon="6.77738">
        <ele>556.274353</ele>
        <time>2019-08-16T12:38:16Z</time>
      </trkpt>
      <trkpt lat="48.01858" lon="6.77741">
        <ele>556.412476</ele>
        <time>2019-08-16T12:38:17Z</time>
      </trkpt>
      <trkpt lat="48.01858" lon="6.77744">
        <ele>556.562622</ele>
        <time>2019-08-16T12:38:18Z</time>
      </trkpt>
      <trkpt lat="48.01858" lon="6.77747">
        <ele>556.725281</ele>
        <time>2019-08-16T12:38:19Z</time>
      </trkpt>
      <trkpt lat="48.01858" lon="6.77749">
        <ele>556.901001</ele>
        <time>2019-08-16T12:38:20Z</time>
      </trkpt>
      <trkpt lat="48.01858" lon="6.77752">
        <ele>557.096497</ele>
        <time>2019-08-16T12:38:21Z</time>
      </trkpt>
      <trkpt lat="48.01858" lon="6.77755">
        <ele>557.312988</ele>
        <time>2019-08-16T12:38:22Z</time>
      </trkpt>
      <trkpt lat="48.01858" lon="6.77757">
        <ele>557.549561</ele>
        <time>2019-08-16T12:38:23Z</time>
      </trkpt>
      <trkpt lat="48.01858" lon="6.7776">
        <ele>557.797546</ele>
        <time>2019-08-16T12:38:24Z</time>
      </trkpt>
      <trkpt lat="48.01858" lon="6.77762">
        <ele>558.052795</ele>
        <time>2019-08-16T12:38:25Z</time>
      </trkpt>
      <trkpt lat="48.01857" lon="6.77765">
        <ele>558.309509</ele>
        <time>2019-08-16T12:38:26Z</time>
      </trkpt>
      <trkpt lat="48.01856" lon="6.77767">
        <ele>558.563721</ele>
        <time>2019-08-16T12:38:27Z</time>
      </trkpt>
      <trkpt lat="48.01854" lon="6.77769">
        <ele>558.930847</ele>
        <time>2019-08-16T12:38:28Z</time>
      </trkpt>
      <trkpt lat="48.01853" lon="6.77772">
        <ele>559.164368</ele>
        <time>2019-08-16T12:38:29Z</time>
      </trkpt>
      <trkpt lat="48.01852" lon="6.77775">
        <ele>559.394226</ele>
        <time>2019-08-16T12:38:30Z</time>
      </trkpt>
      <trkpt lat="48.01852" lon="6.77778">
        <ele>559.622131</ele>
        <time>2019-08-16T12:38:31Z</time>
      </trkpt>
      <trkpt lat="48.01852" lon="6.7778">
        <ele>559.849792</ele>
        <time>2019-08-16T12:38:32Z</time>
      </trkpt>
      <trkpt lat="48.01851" lon="6.77782">
        <ele>560.076111</ele>
        <time>2019-08-16T12:38:33Z</time>
      </trkpt>
      <trkpt lat="48.01851" lon="6.77784">
        <ele>560.297791</ele>
        <time>2019-08-16T12:38:34Z</time>
      </trkpt>
      <trkpt lat="48.0185" lon="6.77786">
        <ele>560.508545</ele>
        <time>2019-08-16T12:38:35Z</time>
      </trkpt>
      <trkpt lat="48.0185" lon="6.77788">
        <ele>560.610291</ele>
        <time>2019-08-16T12:38:36Z</time>
      </trkpt>
      <trkpt lat="48.01849" lon="6.7779">
        <ele>560.711182</ele>
        <time>2019-08-16T12:38:37Z</time>
      </trkpt>
      <trkpt lat="48.01849" lon="6.77793">
        <ele>560.912048</ele>
        <time>2019-08-16T12:38:38Z</time>
      </trkpt>
      <trkpt lat="48.01849" lon="6.77796">
        <ele>561.112854</ele>
        <time>2019-08-16T12:38:39Z</time>
      </trkpt>
      <trkpt lat="48.01851" lon="6.77799">
        <ele>561.30481</ele>
        <time>2019-08-16T12:38:40Z</time>
      </trkpt>
      <trkpt lat="48.01851" lon="6.77802">
        <ele>561.557129</ele>
        <time>2019-08-16T12:38:41Z</time>
      </trkpt>
      <trkpt lat="48.01853" lon="6.77804">
        <ele>561.697754</ele>
        <time>2019-08-16T12:38:42Z</time>
      </trkpt>
      <trkpt lat="48.01855" lon="6.77807">
        <ele>561.817322</ele>
        <time>2019-08-16T12:38:43Z</time>
      </trkpt>
      <trkpt lat="48.01857" lon="6.7781">
        <ele>561.919617</ele>
        <time>2019-08-16T12:38:44Z</time>
      </trkpt>
      <trkpt lat="48.01859" lon="6.77813">
        <ele>561.997437</ele>
        <time>2019-08-16T12:38:45Z</time>
      </trkpt>
      <trkpt lat="48.01862" lon="6.77816">
        <ele>562.049316</ele>
        <time>2019-08-16T12:38:46Z</time>
      </trkpt>
      <trkpt lat="48.01865" lon="6.7782">
        <ele>562.049316</ele>
        <time>2019-08-16T12:38:47Z</time>
      </trkpt>
      <trkpt lat="48.01868" lon="6.77824">
        <ele>562.039978</ele>
        <time>2019-08-16T12:38:48Z</time>
      </trkpt>
      <trkpt lat="48.01871" lon="6.77829">
        <ele>561.969666</ele>
        <time>2019-08-16T12:38:49Z</time>
      </trkpt>
      <trkpt lat="48.01873" lon="6.77834">
        <ele>561.882263</ele>
        <time>2019-08-16T12:38:50Z</time>
      </trkpt>
      <trkpt lat="48.01876" lon="6.77838">
        <ele>561.759766</ele>
        <time>2019-08-16T12:38:51Z</time>
      </trkpt>
      <trkpt lat="48.01879" lon="6.77842">
        <ele>561.610901</ele>
        <time>2019-08-16T12:38:52Z</time>
      </trkpt>
      <trkpt lat="48.01881" lon="6.77845">
        <ele>561.4505</ele>
        <time>2019-08-16T12:38:53Z</time>
      </trkpt>
      <trkpt lat="48.01884" lon="6.77848">
        <ele>561.20752</ele>
        <time>2019-08-16T12:38:54Z</time>
      </trkpt>
      <trkpt lat="48.01887" lon="6.77852">
        <ele>561.058533</ele>
        <time>2019-08-16T12:38:55Z</time>
      </trkpt>
      <trkpt lat="48.01888" lon="6.77855">
        <ele>560.930359</ele>
        <time>2019-08-16T12:38:56Z</time>
      </trkpt>
      <trkpt lat="48.0189" lon="6.77859">
        <ele>560.832581</ele>
        <time>2019-08-16T12:38:57Z</time>
      </trkpt>
      <trkpt lat="48.01892" lon="6.77863">
        <ele>560.761475</ele>
        <time>2019-08-16T12:38:58Z</time>
      </trkpt>
      <trkpt lat="48.01894" lon="6.77866">
        <ele>560.722595</ele>
        <time>2019-08-16T12:38:59Z</time>
      </trkpt>
      <trkpt lat="48.01894" lon="6.7787">
        <ele>560.722595</ele>
        <time>2019-08-16T12:39:00Z</time>
      </trkpt>
      <trkpt lat="48.01896" lon="6.77874">
        <ele>560.74707</ele>
        <time>2019-08-16T12:39:01Z</time>
      </trkpt>
      <trkpt lat="48.01897" lon="6.77879">
        <ele>560.806702</ele>
        <time>2019-08-16T12:39:02Z</time>
      </trkpt>
      <trkpt lat="48.01899" lon="6.77883">
        <ele>560.92395</ele>
        <time>2019-08-16T12:39:03Z</time>
      </trkpt>
      <trkpt lat="48.019" lon="6.77887">
        <ele>561.003967</ele>
        <time>2019-08-16T12:39:04Z</time>
      </trkpt>
      <trkpt lat="48.019" lon="6.77891">
        <ele>561.080566</ele>
        <time>2019-08-16T12:39:05Z</time>
      </trkpt>
      <trkpt lat="48.019" lon="6.77896">
        <ele>561.148865</ele>
        <time>2019-08-16T12:39:06Z</time>
      </trkpt>
      <trkpt lat="48.01899" lon="6.77901">
        <ele>561.202515</ele>
        <time>2019-08-16T12:39:07Z</time>
      </trkpt>
      <trkpt lat="48.01898" lon="6.77906">
        <ele>561.240417</ele>
        <time>2019-08-16T12:39:08Z</time>
      </trkpt>
      <trkpt lat="48.01897" lon="6.77911">
        <ele>561.260986</ele>
        <time>2019-08-16T12:39:09Z</time>
      </trkpt>
      <trkpt lat="48.01896" lon="6.77915">
        <ele>561.270813</ele>
        <time>2019-08-16T12:39:10Z</time>
      </trkpt>
      <trkpt lat="48.01895" lon="6.7792">
        <ele>561.270813</ele>
        <time>2019-08-16T12:39:11Z</time>
      </trkpt>
      <trkpt lat="48.01896" lon="6.77925">
        <ele>561.268127</ele>
        <time>2019-08-16T12:39:12Z</time>
      </trkpt>
      <trkpt lat="48.01897" lon="6.77929">
        <ele>561.25946</ele>
        <time>2019-08-16T12:39:13Z</time>
      </trkpt>
      <trkpt lat="48.01897" lon="6.77934">
        <ele>561.245789</ele>
        <time>2019-08-16T12:39:14Z</time>
      </trkpt>
      <trkpt lat="48.01898" lon="6.77938">
        <ele>561.23291</ele>
        <time>2019-08-16T12:39:15Z</time>
      </trkpt>
      <trkpt lat="48.01899" lon="6.77942">
        <ele>561.227051</ele>
        <time>2019-08-16T12:39:16Z</time>
      </trkpt>
      <trkpt lat="48.01901" lon="6.77946">
        <ele>561.227051</ele>
        <time>2019-08-16T12:39:17Z</time>
      </trkpt>
      <trkpt lat="48.01902" lon="6.7795">
        <ele>561.236145</ele>
        <time>2019-08-16T12:39:18Z</time>
      </trkpt>
      <trkpt lat="48.01904" lon="6.77954">
        <ele>561.267517</ele>
        <time>2019-08-16T12:39:19Z</time>
      </trkpt>
      <trkpt lat="48.01905" lon="6.77958">
        <ele>561.363098</ele>
        <time>2019-08-16T12:39:20Z</time>
      </trkpt>
      <trkpt lat="48.01906" lon="6.77962">
        <ele>561.452454</ele>
        <time>2019-08-16T12:39:21Z</time>
      </trkpt>
      <trkpt lat="48.01906" lon="6.77966">
        <ele>561.556946</ele>
        <time>2019-08-16T12:39:22Z</time>
      </trkpt>
      <trkpt lat="48.01907" lon="6.77971">
        <ele>561.672424</ele>
        <time>2019-08-16T12:39:23Z</time>
      </trkpt>
      <trkpt lat="48.01906" lon="6.77975">
        <ele>561.797058</ele>
        <time>2019-08-16T12:39:24Z</time>
      </trkpt>
      <trkpt lat="48.01905" lon="6.7798">
        <ele>561.919495</ele>
        <time>2019-08-16T12:39:25Z</time>
      </trkpt>
      <trkpt lat="48.01904" lon="6.77985">
        <ele>562.028931</ele>
        <time>2019-08-16T12:39:26Z</time>
      </trkpt>
      <trkpt lat="48.01903" lon="6.7799">
        <ele>562.11792</ele>
        <time>2019-08-16T12:39:27Z</time>
      </trkpt>
      <trkpt lat="48.01902" lon="6.77997">
        <ele>562.184875</ele>
        <time>2019-08-16T12:39:28Z</time>
      </trkpt>
      <trkpt lat="48.01901" lon="6.78004">
        <ele>562.220093</ele>
        <time>2019-08-16T12:39:29Z</time>
      </trkpt>
      <trkpt lat="48.01901" lon="6.78012">
        <ele>562.220154</ele>
        <time>2019-08-16T12:39:30Z</time>
      </trkpt>
      <trkpt lat="48.01902" lon="6.7802">
        <ele>562.206482</ele>
        <time>2019-08-16T12:39:31Z</time>
      </trkpt>
      <trkpt lat="48.01903" lon="6.78029">
        <ele>562.131409</ele>
        <time>2019-08-16T12:39:32Z</time>
      </trkpt>
      <trkpt lat="48.01905" lon="6.78037">
        <ele>561.99054</ele>
        <time>2019-08-16T12:39:33Z</time>
      </trkpt>
      <trkpt lat="48.01909" lon="6.78045">
        <ele>561.788635</ele>
        <time>2019-08-16T12:39:34Z</time>
      </trkpt>
      <trkpt lat="48.01914" lon="6.78051">
        <ele>561.53125</ele>
        <time>2019-08-16T12:39:35Z</time>
      </trkpt>
      <trkpt lat="48.01918" lon="6.78056">
        <ele>561.230286</ele>
        <time>2019-08-16T12:39:36Z</time>
      </trkpt>
      <trkpt lat="48.01923" lon="6.7806">
        <ele>561.069092</ele>
        <time>2019-08-16T12:39:37Z</time>
      </trkpt>
      <trkpt lat="48.01926" lon="6.78063">
        <ele>560.902832</ele>
        <time>2019-08-16T12:39:38Z</time>
      </trkpt>
      <trkpt lat="48.0193" lon="6.78067">
        <ele>560.569031</ele>
        <time>2019-08-16T12:39:39Z</time>
      </trkpt>
      <trkpt lat="48.01932" lon="6.78071">
        <ele>560.135193</ele>
        <time>2019-08-16T12:39:40Z</time>
      </trkpt>
      <trkpt lat="48.01934" lon="6.78075">
        <ele>559.944214</ele>
        <time>2019-08-16T12:39:41Z</time>
      </trkpt>
      <trkpt lat="48.01936" lon="6.78079">
        <ele>559.864258</ele>
        <time>2019-08-16T12:39:42Z</time>
      </trkpt>
      <trkpt lat="48.01938" lon="6.78083">
        <ele>559.864258</ele>
        <time>2019-08-16T12:39:43Z</time>
      </trkpt>
      <trkpt lat="48.01939" lon="6.78088">
        <ele>559.88855</ele>
        <time>2019-08-16T12:39:44Z</time>
      </trkpt>
      <trkpt lat="48.01941" lon="6.78093">
        <ele>559.997253</ele>
        <time>2019-08-16T12:39:45Z</time>
      </trkpt>
      <trkpt lat="48.01942" lon="6.78098">
        <ele>560.148621</ele>
        <time>2019-08-16T12:39:46Z</time>
      </trkpt>
      <trkpt lat="48.01944" lon="6.78104">
        <ele>560.379333</ele>
        <time>2019-08-16T12:39:47Z</time>
      </trkpt>
      <trkpt lat="48.01946" lon="6.78111">
        <ele>560.5047</ele>
        <time>2019-08-16T12:39:48Z</time>
      </trkpt>
      <trkpt lat="48.01948" lon="6.78117">
        <ele>560.603394</ele>
        <time>2019-08-16T12:39:49Z</time>
      </trkpt>
      <trkpt lat="48.01951" lon="6.78124">
        <ele>560.675476</ele>
        <time>2019-08-16T12:39:50Z</time>
      </trkpt>
      <trkpt lat="48.01954" lon="6.78131">
        <ele>560.699585</ele>
        <time>2019-08-16T12:39:51Z</time>
      </trkpt>
      <trkpt lat="48.01957" lon="6.78139">
        <ele>560.699585</ele>
        <time>2019-08-16T12:39:52Z</time>
      </trkpt>
      <trkpt lat="48.01959" lon="6.78146">
        <ele>560.657532</ele>
        <time>2019-08-16T12:39:53Z</time>
      </trkpt>
      <trkpt lat="48.01961" lon="6.78152">
        <ele>560.54303</ele>
        <time>2019-08-16T12:39:54Z</time>
      </trkpt>
      <trkpt lat="48.01962" lon="6.78158">
        <ele>560.37323</ele>
        <time>2019-08-16T12:39:55Z</time>
      </trkpt>
      <trkpt lat="48.01963" lon="6.78164">
        <ele>560.167786</ele>
        <time>2019-08-16T12:39:56Z</time>
      </trkpt>
      <trkpt lat="48.01965" lon="6.7817">
        <ele>559.945862</ele>
        <time>2019-08-16T12:39:57Z</time>
      </trkpt>
      <trkpt lat="48.01966" lon="6.78176">
        <ele>559.71759</ele>
        <time>2019-08-16T12:39:58Z</time>
      </trkpt>
      <trkpt lat="48.01967" lon="6.78182">
        <ele>559.492188</ele>
        <time>2019-08-16T12:39:59Z</time>
      </trkpt>
      <trkpt lat="48.01968" lon="6.78189">
        <ele>559.277161</ele>
        <time>2019-08-16T12:40:00Z</time>
      </trkpt>
      <trkpt lat="48.0197" lon="6.78195">
        <ele>559.086731</ele>
        <time>2019-08-16T12:40:01Z</time>
      </trkpt>
      <trkpt lat="48.01971" lon="6.78201">
        <ele>558.930359</ele>
        <time>2019-08-16T12:40:02Z</time>
      </trkpt>
      <trkpt lat="48.01973" lon="6.78208">
        <ele>558.80658</ele>
        <time>2019-08-16T12:40:03Z</time>
      </trkpt>
      <trkpt lat="48.01974" lon="6.78214">
        <ele>558.702698</ele>
        <time>2019-08-16T12:40:04Z</time>
      </trkpt>
      <trkpt lat="48.01976" lon="6.7822">
        <ele>558.603882</ele>
        <time>2019-08-16T12:40:05Z</time>
      </trkpt>
      <trkpt lat="48.01978" lon="6.78226">
        <ele>558.455444</ele>
        <time>2019-08-16T12:40:06Z</time>
      </trkpt>
      <trkpt lat="48.01979" lon="6.78232">
        <ele>558.36676</ele>
        <time>2019-08-16T12:40:07Z</time>
      </trkpt>
      <trkpt lat="48.01981" lon="6.78238">
        <ele>558.286316</ele>
        <time>2019-08-16T12:40:08Z</time>
      </trkpt>
      <trkpt lat="48.01984" lon="6.78245">
        <ele>558.201843</ele>
        <time>2019-08-16T12:40:09Z</time>
      </trkpt>
      <trkpt lat="48.01986" lon="6.78252">
        <ele>558.099426</ele>
        <time>2019-08-16T12:40:10Z</time>
      </trkpt>
      <trkpt lat="48.01989" lon="6.78258">
        <ele>557.97699</ele>
        <time>2019-08-16T12:40:11Z</time>
      </trkpt>
      <trkpt lat="48.01991" lon="6.78265">
        <ele>557.84259</ele>
        <time>2019-08-16T12:40:12Z</time>
      </trkpt>
      <trkpt lat="48.01992" lon="6.78272">
        <ele>557.703125</ele>
        <time>2019-08-16T12:40:13Z</time>
      </trkpt>
      <trkpt lat="48.01994" lon="6.78279">
        <ele>557.548157</ele>
        <time>2019-08-16T12:40:14Z</time>
      </trkpt>
      <trkpt lat="48.01996" lon="6.78287">
        <ele>557.37384</ele>
        <time>2019-08-16T12:40:15Z</time>
      </trkpt>
      <trkpt lat="48.01997" lon="6.78295">
        <ele>557.177917</ele>
        <time>2019-08-16T12:40:16Z</time>
      </trkpt>
      <trkpt lat="48.01997" lon="6.78301">
        <ele>556.973938</ele>
        <time>2019-08-16T12:40:17Z</time>
      </trkpt>
      <trkpt lat="48.01997" lon="6.78306">
        <ele>556.770752</ele>
        <time>2019-08-16T12:40:18Z</time>
      </trkpt>
      <trkpt lat="48.01996" lon="6.78311">
        <ele>556.586487</ele>
        <time>2019-08-16T12:40:19Z</time>
      </trkpt>
      <trkpt lat="48.01995" lon="6.78316">
        <ele>556.439514</ele>
        <time>2019-08-16T12:40:20Z</time>
      </trkpt>
      <trkpt lat="48.01994" lon="6.7832">
        <ele>556.357361</ele>
        <time>2019-08-16T12:40:21Z</time>
      </trkpt>
      <trkpt lat="48.01994" lon="6.78323">
        <ele>556.345947</ele>
        <time>2019-08-16T12:40:22Z</time>
      </trkpt>
      <trkpt lat="48.01993" lon="6.78327">
        <ele>556.35614</ele>
        <time>2019-08-16T12:40:23Z</time>
      </trkpt>
      <trkpt lat="48.01992" lon="6.7833">
        <ele>556.438721</ele>
        <time>2019-08-16T12:40:24Z</time>
      </trkpt>
      <trkpt lat="48.01992" lon="6.78332">
        <ele>556.585022</ele>
        <time>2019-08-16T12:40:25Z</time>
      </trkpt>
      <trkpt lat="48.01991" lon="6.78335">
        <ele>556.773376</ele>
        <time>2019-08-16T12:40:26Z</time>
      </trkpt>
      <trkpt lat="48.01991" lon="6.78338">
        <ele>556.985718</ele>
        <time>2019-08-16T12:40:27Z</time>
      </trkpt>
      <trkpt lat="48.0199" lon="6.78341">
        <ele>557.326111</ele>
        <time>2019-08-16T12:40:28Z</time>
      </trkpt>
      <trkpt lat="48.01989" lon="6.78344">
        <ele>557.554443</ele>
        <time>2019-08-16T12:40:29Z</time>
      </trkpt>
      <trkpt lat="48.01988" lon="6.78347">
        <ele>557.774719</ele>
        <time>2019-08-16T12:40:30Z</time>
      </trkpt>
      <trkpt lat="48.01988" lon="6.7835">
        <ele>557.979126</ele>
        <time>2019-08-16T12:40:31Z</time>
      </trkpt>
      <trkpt lat="48.01987" lon="6.78353">
        <ele>558.171936</ele>
        <time>2019-08-16T12:40:32Z</time>
      </trkpt>
      <trkpt lat="48.01986" lon="6.78355">
        <ele>558.361206</ele>
        <time>2019-08-16T12:40:33Z</time>
      </trkpt>
      <trkpt lat="48.01985" lon="6.78358">
        <ele>558.554077</ele>
        <time>2019-08-16T12:40:34Z</time>
      </trkpt>
      <trkpt lat="48.01984" lon="6.7836">
        <ele>558.751404</ele>
        <time>2019-08-16T12:40:35Z</time>
      </trkpt>
      <trkpt lat="48.01984" lon="6.78363">
        <ele>559.048096</ele>
        <time>2019-08-16T12:40:36Z</time>
      </trkpt>
      <trkpt lat="48.01983" lon="6.78366">
        <ele>559.147644</ele>
        <time>2019-08-16T12:40:37Z</time>
      </trkpt>
      <trkpt lat="48.01982" lon="6.78368">
        <ele>559.350037</ele>
        <time>2019-08-16T12:40:38Z</time>
      </trkpt>
      <trkpt lat="48.01981" lon="6.78371">
        <ele>559.561707</ele>
        <time>2019-08-16T12:40:39Z</time>
      </trkpt>
      <trkpt lat="48.0198" lon="6.78373">
        <ele>559.773132</ele>
        <time>2019-08-16T12:40:40Z</time>
      </trkpt>
      <trkpt lat="48.01979" lon="6.78376">
        <ele>559.978699</ele>
        <time>2019-08-16T12:40:41Z</time>
      </trkpt>
      <trkpt lat="48.01979" lon="6.78378">
        <ele>560.178223</ele>
        <time>2019-08-16T12:40:42Z</time>
      </trkpt>
      <trkpt lat="48.01978" lon="6.78381">
        <ele>560.382019</ele>
        <time>2019-08-16T12:40:43Z</time>
      </trkpt>
      <trkpt lat="48.01977" lon="6.78383">
        <ele>560.69928</ele>
        <time>2019-08-16T12:40:44Z</time>
      </trkpt>
      <trkpt lat="48.01976" lon="6.78386">
        <ele>560.909241</ele>
        <time>2019-08-16T12:40:45Z</time>
      </trkpt>
      <trkpt lat="48.01975" lon="6.78389">
        <ele>561.105652</ele>
        <time>2019-08-16T12:40:46Z</time>
      </trkpt>
      <trkpt lat="48.01975" lon="6.78392">
        <ele>561.283997</ele>
        <time>2019-08-16T12:40:47Z</time>
      </trkpt>
      <trkpt lat="48.01974" lon="6.78395">
        <ele>561.448792</ele>
        <time>2019-08-16T12:40:48Z</time>
      </trkpt>
      <trkpt lat="48.01974" lon="6.78397">
        <ele>561.609924</ele>
        <time>2019-08-16T12:40:49Z</time>
      </trkpt>
      <trkpt lat="48.01974" lon="6.78399">
        <ele>561.773987</ele>
        <time>2019-08-16T12:40:50Z</time>
      </trkpt>
      <trkpt lat="48.01974" lon="6.78402">
        <ele>561.942322</ele>
        <time>2019-08-16T12:40:51Z</time>
      </trkpt>
      <trkpt lat="48.01973" lon="6.78404">
        <ele>562.118042</ele>
        <time>2019-08-16T12:40:52Z</time>
      </trkpt>
      <trkpt lat="48.01974" lon="6.78408">
        <ele>562.307007</ele>
        <time>2019-08-16T12:40:53Z</time>
      </trkpt>
      <trkpt lat="48.01974" lon="6.78411">
        <ele>562.513611</ele>
        <time>2019-08-16T12:40:54Z</time>
      </trkpt>
      <trkpt lat="48.01973" lon="6.78414">
        <ele>562.733948</ele>
        <time>2019-08-16T12:40:55Z</time>
      </trkpt>
      <trkpt lat="48.01973" lon="6.78417">
        <ele>563.071594</ele>
        <time>2019-08-16T12:40:56Z</time>
      </trkpt>
      <trkpt lat="48.01973" lon="6.78419">
        <ele>563.288635</ele>
        <time>2019-08-16T12:40:57Z</time>
      </trkpt>
      <trkpt lat="48.01973" lon="6.78422">
        <ele>563.495789</ele>
        <time>2019-08-16T12:40:58Z</time>
      </trkpt>
      <trkpt lat="48.01973" lon="6.78425">
        <ele>563.692383</ele>
        <time>2019-08-16T12:40:59Z</time>
      </trkpt>
      <trkpt lat="48.01973" lon="6.78428">
        <ele>563.87616</ele>
        <time>2019-08-16T12:41:00Z</time>
      </trkpt>
      <trkpt lat="48.01973" lon="6.78431">
        <ele>564.047302</ele>
        <time>2019-08-16T12:41:01Z</time>
      </trkpt>
      <trkpt lat="48.01972" lon="6.78434">
        <ele>564.204773</ele>
        <time>2019-08-16T12:41:02Z</time>
      </trkpt>
      <trkpt lat="48.01972" lon="6.78437">
        <ele>564.357239</ele>
        <time>2019-08-16T12:41:03Z</time>
      </trkpt>
      <trkpt lat="48.01972" lon="6.7844">
        <ele>564.508301</ele>
        <time>2019-08-16T12:41:04Z</time>
      </trkpt>
      <trkpt lat="48.01972" lon="6.78443">
        <ele>564.660522</ele>
        <time>2019-08-16T12:41:05Z</time>
      </trkpt>
      <trkpt lat="48.01972" lon="6.78447">
        <ele>564.817017</ele>
        <time>2019-08-16T12:41:06Z</time>
      </trkpt>
      <trkpt lat="48.01972" lon="6.7845">
        <ele>565.067932</ele>
        <time>2019-08-16T12:41:07Z</time>
      </trkpt>
      <trkpt lat="48.01972" lon="6.78453">
        <ele>565.249023</ele>
        <time>2019-08-16T12:41:08Z</time>
      </trkpt>
      <trkpt lat="48.01972" lon="6.78456">
        <ele>565.43866</ele>
        <time>2019-08-16T12:41:09Z</time>
      </trkpt>
      <trkpt lat="48.01972" lon="6.78459">
        <ele>565.627441</ele>
        <time>2019-08-16T12:41:10Z</time>
      </trkpt>
      <trkpt lat="48.01972" lon="6.78461">
        <ele>565.809631</ele>
        <time>2019-08-16T12:41:11Z</time>
      </trkpt>
      <trkpt lat="48.01971" lon="6.78464">
        <ele>565.986511</ele>
        <time>2019-08-16T12:41:12Z</time>
      </trkpt>
      <trkpt lat="48.01971" lon="6.78467">
        <ele>566.161987</ele>
        <time>2019-08-16T12:41:13Z</time>
      </trkpt>
      <trkpt lat="48.01971" lon="6.7847">
        <ele>566.331482</ele>
        <time>2019-08-16T12:41:14Z</time>
      </trkpt>
      <trkpt lat="48.01971" lon="6.78473">
        <ele>566.491089</ele>
        <time>2019-08-16T12:41:15Z</time>
      </trkpt>
      <trkpt lat="48.01971" lon="6.78476">
        <ele>566.64093</ele>
        <time>2019-08-16T12:41:16Z</time>
      </trkpt>
      <trkpt lat="48.01971" lon="6.78479">
        <ele>566.789307</ele>
        <time>2019-08-16T12:41:17Z</time>
      </trkpt>
      <trkpt lat="48.01971" lon="6.78482">
        <ele>566.938171</ele>
        <time>2019-08-16T12:41:18Z</time>
      </trkpt>
      <trkpt lat="48.01971" lon="6.78485">
        <ele>567.092834</ele>
        <time>2019-08-16T12:41:19Z</time>
      </trkpt>
      <trkpt lat="48.01971" lon="6.78488">
        <ele>567.24884</ele>
        <time>2019-08-16T12:41:20Z</time>
      </trkpt>
      <trkpt lat="48.01971" lon="6.78491">
        <ele>567.407043</ele>
        <time>2019-08-16T12:41:21Z</time>
      </trkpt>
      <trkpt lat="48.01971" lon="6.78493">
        <ele>567.563782</ele>
        <time>2019-08-16T12:41:22Z</time>
      </trkpt>
      <trkpt lat="48.01971" lon="6.78496">
        <ele>567.791077</ele>
        <time>2019-08-16T12:41:23Z</time>
      </trkpt>
      <trkpt lat="48.0197" lon="6.78499">
        <ele>567.93457</ele>
        <time>2019-08-16T12:41:24Z</time>
      </trkpt>
      <trkpt lat="48.0197" lon="6.78502">
        <ele>568.076599</ele>
        <time>2019-08-16T12:41:25Z</time>
      </trkpt>
      <trkpt lat="48.0197" lon="6.78505">
        <ele>568.221436</ele>
        <time>2019-08-16T12:41:26Z</time>
      </trkpt>
      <trkpt lat="48.0197" lon="6.78508">
        <ele>568.445923</ele>
        <time>2019-08-16T12:41:27Z</time>
      </trkpt>
      <trkpt lat="48.01971" lon="6.78511">
        <ele>568.598694</ele>
        <time>2019-08-16T12:41:28Z</time>
      </trkpt>
      <trkpt lat="48.01971" lon="6.78515">
        <ele>568.758972</ele>
        <time>2019-08-16T12:41:29Z</time>
      </trkpt>
      <trkpt lat="48.01972" lon="6.78518">
        <ele>568.927185</ele>
        <time>2019-08-16T12:41:30Z</time>
      </trkpt>
      <trkpt lat="48.01972" lon="6.78521">
        <ele>569.186584</ele>
        <time>2019-08-16T12:41:31Z</time>
      </trkpt>
      <trkpt lat="48.01972" lon="6.78524">
        <ele>569.355957</ele>
        <time>2019-08-16T12:41:32Z</time>
      </trkpt>
      <trkpt lat="48.01973" lon="6.78527">
        <ele>569.523621</ele>
        <time>2019-08-16T12:41:33Z</time>
      </trkpt>
      <trkpt lat="48.01973" lon="6.7853">
        <ele>569.686157</ele>
        <time>2019-08-16T12:41:34Z</time>
      </trkpt>
      <trkpt lat="48.01974" lon="6.78533">
        <ele>569.842712</ele>
        <time>2019-08-16T12:41:35Z</time>
      </trkpt>
      <trkpt lat="48.01975" lon="6.78536">
        <ele>569.991394</ele>
        <time>2019-08-16T12:41:36Z</time>
      </trkpt>
      <trkpt lat="48.01975" lon="6.78539">
        <ele>570.143555</ele>
        <time>2019-08-16T12:41:37Z</time>
      </trkpt>
      <trkpt lat="48.01975" lon="6.78542">
        <ele>570.224426</ele>
        <time>2019-08-16T12:41:38Z</time>
      </trkpt>
      <trkpt lat="48.01976" lon="6.78545">
        <ele>570.397522</ele>
        <time>2019-08-16T12:41:39Z</time>
      </trkpt>
      <trkpt lat="48.01976" lon="6.78548">
        <ele>570.583374</ele>
        <time>2019-08-16T12:41:40Z</time>
      </trkpt>
      <trkpt lat="48.01977" lon="6.78551">
        <ele>570.862976</ele>
        <time>2019-08-16T12:41:41Z</time>
      </trkpt>
      <trkpt lat="48.01978" lon="6.78554">
        <ele>571.039856</ele>
        <time>2019-08-16T12:41:42Z</time>
      </trkpt>
      <trkpt lat="48.01978" lon="6.78557">
        <ele>571.205383</ele>
        <time>2019-08-16T12:41:43Z</time>
      </trkpt>
      <trkpt lat="48.01979" lon="6.7856">
        <ele>571.357422</ele>
        <time>2019-08-16T12:41:44Z</time>
      </trkpt>
      <trkpt lat="48.01979" lon="6.78563">
        <ele>571.496521</ele>
        <time>2019-08-16T12:41:45Z</time>
      </trkpt>
      <trkpt lat="48.01979" lon="6.78566">
        <ele>571.620544</ele>
        <time>2019-08-16T12:41:46Z</time>
      </trkpt>
      <trkpt lat="48.0198" lon="6.78569">
        <ele>571.735779</ele>
        <time>2019-08-16T12:41:47Z</time>
      </trkpt>
      <trkpt lat="48.01981" lon="6.78573">
        <ele>571.849304</ele>
        <time>2019-08-16T12:41:48Z</time>
      </trkpt>
      <trkpt lat="48.01981" lon="6.78576">
        <ele>571.968994</ele>
        <time>2019-08-16T12:41:49Z</time>
      </trkpt>
      <trkpt lat="48.01981" lon="6.78579">
        <ele>572.091736</ele>
        <time>2019-08-16T12:41:50Z</time>
      </trkpt>
      <trkpt lat="48.01982" lon="6.78582">
        <ele>572.215271</ele>
        <time>2019-08-16T12:41:51Z</time>
      </trkpt>
      <trkpt lat="48.01982" lon="6.78585">
        <ele>572.393555</ele>
        <time>2019-08-16T12:41:52Z</time>
      </trkpt>
      <trkpt lat="48.01983" lon="6.78588">
        <ele>572.510986</ele>
        <time>2019-08-16T12:41:53Z</time>
      </trkpt>
      <trkpt lat="48.01983" lon="6.78591">
        <ele>572.635803</ele>
        <time>2019-08-16T12:41:54Z</time>
      </trkpt>
      <trkpt lat="48.01984" lon="6.78595">
        <ele>572.772644</ele>
        <time>2019-08-16T12:41:55Z</time>
      </trkpt>
      <trkpt lat="48.01984" lon="6.78598">
        <ele>572.924133</ele>
        <time>2019-08-16T12:41:56Z</time>
      </trkpt>
      <trkpt lat="48.01985" lon="6.78601">
        <ele>573.088623</ele>
        <time>2019-08-16T12:41:57Z</time>
      </trkpt>
      <trkpt lat="48.01985" lon="6.78604">
        <ele>573.266235</ele>
        <time>2019-08-16T12:41:58Z</time>
      </trkpt>
      <trkpt lat="48.01985" lon="6.78607">
        <ele>573.451111</ele>
        <time>2019-08-16T12:41:59Z</time>
      </trkpt>
      <trkpt lat="48.01986" lon="6.78611">
        <ele>573.705505</ele>
        <time>2019-08-16T12:42:00Z</time>
      </trkpt>
      <trkpt lat="48.01986" lon="6.78614">
        <ele>573.840759</ele>
        <time>2019-08-16T12:42:01Z</time>
      </trkpt>
      <trkpt lat="48.01986" lon="6.78618">
        <ele>573.952881</ele>
        <time>2019-08-16T12:42:02Z</time>
      </trkpt>
      <trkpt lat="48.01986" lon="6.78621">
        <ele>574.048035</ele>
        <time>2019-08-16T12:42:03Z</time>
      </trkpt>
      <trkpt lat="48.01986" lon="6.78625">
        <ele>574.128113</ele>
        <time>2019-08-16T12:42:04Z</time>
      </trkpt>
      <trkpt lat="48.01987" lon="6.78628">
        <ele>574.196533</ele>
        <time>2019-08-16T12:42:05Z</time>
      </trkpt>
      <trkpt lat="48.01987" lon="6.78631">
        <ele>574.262207</ele>
        <time>2019-08-16T12:42:06Z</time>
      </trkpt>
      <trkpt lat="48.01987" lon="6.78634">
        <ele>574.338562</ele>
        <time>2019-08-16T12:42:07Z</time>
      </trkpt>
      <trkpt lat="48.01987" lon="6.78637">
        <ele>574.431519</ele>
        <time>2019-08-16T12:42:08Z</time>
      </trkpt>
      <trkpt lat="48.01988" lon="6.7864">
        <ele>574.539368</ele>
        <time>2019-08-16T12:42:09Z</time>
      </trkpt>
      <trkpt lat="48.01988" lon="6.78643">
        <ele>574.661133</ele>
        <time>2019-08-16T12:42:10Z</time>
      </trkpt>
      <trkpt lat="48.01988" lon="6.78646">
        <ele>574.7901</ele>
        <time>2019-08-16T12:42:11Z</time>
      </trkpt>
      <trkpt lat="48.01989" lon="6.7865">
        <ele>574.929932</ele>
        <time>2019-08-16T12:42:12Z</time>
      </trkpt>
      <trkpt lat="48.0199" lon="6.78653">
        <ele>575.076294</ele>
        <time>2019-08-16T12:42:13Z</time>
      </trkpt>
      <trkpt lat="48.01991" lon="6.78655">
        <ele>575.227966</ele>
        <time>2019-08-16T12:42:14Z</time>
      </trkpt>
      <trkpt lat="48.01992" lon="6.78658">
        <ele>575.381348</ele>
        <time>2019-08-16T12:42:15Z</time>
      </trkpt>
      <trkpt lat="48.01992" lon="6.78661">
        <ele>575.535339</ele>
        <time>2019-08-16T12:42:16Z</time>
      </trkpt>
      <trkpt lat="48.01993" lon="6.78664">
        <ele>575.69342</ele>
        <time>2019-08-16T12:42:17Z</time>
      </trkpt>
      <trkpt lat="48.01994" lon="6.78667">
        <ele>575.855469</ele>
        <time>2019-08-16T12:42:18Z</time>
      </trkpt>
      <trkpt lat="48.01995" lon="6.7867">
        <ele>576.023193</ele>
        <time>2019-08-16T12:42:19Z</time>
      </trkpt>
      <trkpt lat="48.01995" lon="6.78673">
        <ele>576.192444</ele>
        <time>2019-08-16T12:42:20Z</time>
      </trkpt>
      <trkpt lat="48.01996" lon="6.78677">
        <ele>576.359375</ele>
        <time>2019-08-16T12:42:21Z</time>
      </trkpt>
      <trkpt lat="48.01996" lon="6.7868">
        <ele>576.601074</ele>
        <time>2019-08-16T12:42:22Z</time>
      </trkpt>
      <trkpt lat="48.01997" lon="6.78683">
        <ele>576.752869</ele>
        <time>2019-08-16T12:42:23Z</time>
      </trkpt>
      <trkpt lat="48.01997" lon="6.78686">
        <ele>576.898193</ele>
        <time>2019-08-16T12:42:24Z</time>
      </trkpt>
      <trkpt lat="48.01998" lon="6.78689">
        <ele>577.035645</ele>
        <time>2019-08-16T12:42:25Z</time>
      </trkpt>
      <trkpt lat="48.01998" lon="6.78692">
        <ele>577.171265</ele>
        <time>2019-08-16T12:42:26Z</time>
      </trkpt>
      <trkpt lat="48.01998" lon="6.78695">
        <ele>577.306519</ele>
        <time>2019-08-16T12:42:27Z</time>
      </trkpt>
      <trkpt lat="48.01998" lon="6.78699">
        <ele>577.443054</ele>
        <time>2019-08-16T12:42:28Z</time>
      </trkpt>
      <trkpt lat="48.01998" lon="6.78702">
        <ele>577.577637</ele>
        <time>2019-08-16T12:42:29Z</time>
      </trkpt>
      <trkpt lat="48.01998" lon="6.78705">
        <ele>577.709167</ele>
        <time>2019-08-16T12:42:30Z</time>
      </trkpt>
      <trkpt lat="48.01997" lon="6.78708">
        <ele>577.83667</ele>
        <time>2019-08-16T12:42:31Z</time>
      </trkpt>
      <trkpt lat="48.01997" lon="6.78711">
        <ele>577.964172</ele>
        <time>2019-08-16T12:42:32Z</time>
      </trkpt>
      <trkpt lat="48.01996" lon="6.78714">
        <ele>578.092224</ele>
        <time>2019-08-16T12:42:33Z</time>
      </trkpt>
      <trkpt lat="48.01995" lon="6.78717">
        <ele>578.224915</ele>
        <time>2019-08-16T12:42:34Z</time>
      </trkpt>
      <trkpt lat="48.01995" lon="6.7872">
        <ele>578.364563</ele>
        <time>2019-08-16T12:42:35Z</time>
      </trkpt>
      <trkpt lat="48.01994" lon="6.78723">
        <ele>578.516541</ele>
        <time>2019-08-16T12:42:36Z</time>
      </trkpt>
      <trkpt lat="48.01993" lon="6.78727">
        <ele>578.68158</ele>
        <time>2019-08-16T12:42:37Z</time>
      </trkpt>
      <trkpt lat="48.01992" lon="6.78733">
        <ele>578.768982</ele>
        <time>2019-08-16T12:42:39Z</time>
      </trkpt>
      <trkpt lat="48.01991" lon="6.78736">
        <ele>578.859009</ele>
        <time>2019-08-16T12:42:40Z</time>
      </trkpt>
      <trkpt lat="48.01991" lon="6.78739">
        <ele>579.042175</ele>
        <time>2019-08-16T12:42:41Z</time>
      </trkpt>
      <trkpt lat="48.01989" lon="6.78742">
        <ele>579.227356</ele>
        <time>2019-08-16T12:42:42Z</time>
      </trkpt>
      <trkpt lat="48.01988" lon="6.78745">
        <ele>579.409851</ele>
        <time>2019-08-16T12:42:43Z</time>
      </trkpt>
      <trkpt lat="48.01988" lon="6.78748">
        <ele>579.587708</ele>
        <time>2019-08-16T12:42:44Z</time>
      </trkpt>
      <trkpt lat="48.01987" lon="6.78752">
        <ele>579.764648</ele>
        <time>2019-08-16T12:42:45Z</time>
      </trkpt>
      <trkpt lat="48.01986" lon="6.78755">
        <ele>579.945068</ele>
        <time>2019-08-16T12:42:46Z</time>
      </trkpt>
      <trkpt lat="48.01986" lon="6.78758">
        <ele>580.131958</ele>
        <time>2019-08-16T12:42:47Z</time>
      </trkpt>
      <trkpt lat="48.01985" lon="6.78762">
        <ele>580.315186</ele>
        <time>2019-08-16T12:42:48Z</time>
      </trkpt>
      <trkpt lat="48.01985" lon="6.78765">
        <ele>580.484436</ele>
        <time>2019-08-16T12:42:49Z</time>
      </trkpt>
      <trkpt lat="48.01984" lon="6.78769">
        <ele>580.633301</ele>
        <time>2019-08-16T12:42:50Z</time>
      </trkpt>
      <trkpt lat="48.01983" lon="6.78772">
        <ele>580.765381</ele>
        <time>2019-08-16T12:42:51Z</time>
      </trkpt>
      <trkpt lat="48.01982" lon="6.78775">
        <ele>580.882019</ele>
        <time>2019-08-16T12:42:52Z</time>
      </trkpt>
      <trkpt lat="48.01981" lon="6.78779">
        <ele>580.981995</ele>
        <time>2019-08-16T12:42:53Z</time>
      </trkpt>
      <trkpt lat="48.0198" lon="6.78782">
        <ele>581.062622</ele>
        <time>2019-08-16T12:42:54Z</time>
      </trkpt>
      <trkpt lat="48.01979" lon="6.78785">
        <ele>581.126587</ele>
        <time>2019-08-16T12:42:55Z</time>
      </trkpt>
      <trkpt lat="48.01977" lon="6.78788">
        <ele>581.179626</ele>
        <time>2019-08-16T12:42:56Z</time>
      </trkpt>
      <trkpt lat="48.01975" lon="6.78791">
        <ele>581.228821</ele>
        <time>2019-08-16T12:42:57Z</time>
      </trkpt>
      <trkpt lat="48.01974" lon="6.78794">
        <ele>581.307007</ele>
        <time>2019-08-16T12:42:58Z</time>
      </trkpt>
      <trkpt lat="48.01972" lon="6.78796">
        <ele>581.365295</ele>
        <time>2019-08-16T12:42:59Z</time>
      </trkpt>
      <trkpt lat="48.0197" lon="6.78799">
        <ele>581.425476</ele>
        <time>2019-08-16T12:43:00Z</time>
      </trkpt>
      <trkpt lat="48.01969" lon="6.78802">
        <ele>581.487061</ele>
        <time>2019-08-16T12:43:01Z</time>
      </trkpt>
      <trkpt lat="48.01967" lon="6.78805">
        <ele>581.553528</ele>
        <time>2019-08-16T12:43:02Z</time>
      </trkpt>
      <trkpt lat="48.01965" lon="6.78808">
        <ele>581.666626</ele>
        <time>2019-08-16T12:43:03Z</time>
      </trkpt>
      <trkpt lat="48.01964" lon="6.78811">
        <ele>581.744446</ele>
        <time>2019-08-16T12:43:04Z</time>
      </trkpt>
      <trkpt lat="48.01962" lon="6.78814">
        <ele>581.82074</ele>
        <time>2019-08-16T12:43:05Z</time>
      </trkpt>
      <trkpt lat="48.01961" lon="6.78817">
        <ele>581.938843</ele>
        <time>2019-08-16T12:43:06Z</time>
      </trkpt>
      <trkpt lat="48.0196" lon="6.7882">
        <ele>582.022583</ele>
        <time>2019-08-16T12:43:07Z</time>
      </trkpt>
      <trkpt lat="48.01959" lon="6.78824">
        <ele>582.11084</ele>
        <time>2019-08-16T12:43:08Z</time>
      </trkpt>
      <trkpt lat="48.01959" lon="6.78827">
        <ele>582.199707</ele>
        <time>2019-08-16T12:43:09Z</time>
      </trkpt>
      <trkpt lat="48.01958" lon="6.78831">
        <ele>582.290833</ele>
        <time>2019-08-16T12:43:10Z</time>
      </trkpt>
      <trkpt lat="48.01958" lon="6.78834">
        <ele>582.388794</ele>
        <time>2019-08-16T12:43:11Z</time>
      </trkpt>
      <trkpt lat="48.01958" lon="6.78838">
        <ele>582.499512</ele>
        <time>2019-08-16T12:43:12Z</time>
      </trkpt>
      <trkpt lat="48.01958" lon="6.78841">
        <ele>582.621216</ele>
        <time>2019-08-16T12:43:13Z</time>
      </trkpt>
      <trkpt lat="48.01958" lon="6.78844">
        <ele>582.747925</ele>
        <time>2019-08-16T12:43:14Z</time>
      </trkpt>
      <trkpt lat="48.01959" lon="6.78848">
        <ele>582.879944</ele>
        <time>2019-08-16T12:43:15Z</time>
      </trkpt>
      <trkpt lat="48.01959" lon="6.78851">
        <ele>583.022156</ele>
        <time>2019-08-16T12:43:16Z</time>
      </trkpt>
      <trkpt lat="48.01959" lon="6.78853">
        <ele>583.177124</ele>
        <time>2019-08-16T12:43:17Z</time>
      </trkpt>
      <trkpt lat="48.0196" lon="6.78856">
        <ele>583.343933</ele>
        <time>2019-08-16T12:43:18Z</time>
      </trkpt>
      <trkpt lat="48.0196" lon="6.78859">
        <ele>583.519348</ele>
        <time>2019-08-16T12:43:19Z</time>
      </trkpt>
      <trkpt lat="48.01961" lon="6.78862">
        <ele>583.699036</ele>
        <time>2019-08-16T12:43:20Z</time>
      </trkpt>
      <trkpt lat="48.01962" lon="6.78865">
        <ele>583.877441</ele>
        <time>2019-08-16T12:43:21Z</time>
      </trkpt>
      <trkpt lat="48.01962" lon="6.78868">
        <ele>584.055298</ele>
        <time>2019-08-16T12:43:22Z</time>
      </trkpt>
      <trkpt lat="48.01963" lon="6.78871">
        <ele>584.230835</ele>
        <time>2019-08-16T12:43:23Z</time>
      </trkpt>
      <trkpt lat="48.01963" lon="6.78874">
        <ele>584.403992</ele>
        <time>2019-08-16T12:43:24Z</time>
      </trkpt>
      <trkpt lat="48.01963" lon="6.78877">
        <ele>584.571472</ele>
        <time>2019-08-16T12:43:25Z</time>
      </trkpt>
      <trkpt lat="48.01964" lon="6.7888">
        <ele>584.736023</ele>
        <time>2019-08-16T12:43:26Z</time>
      </trkpt>
      <trkpt lat="48.01964" lon="6.78882">
        <ele>584.980896</ele>
        <time>2019-08-16T12:43:27Z</time>
      </trkpt>
      <trkpt lat="48.01964" lon="6.78885">
        <ele>585.143799</ele>
        <time>2019-08-16T12:43:28Z</time>
      </trkpt>
      <trkpt lat="48.01965" lon="6.78887">
        <ele>585.30426</ele>
        <time>2019-08-16T12:43:29Z</time>
      </trkpt>
      <trkpt lat="48.01965" lon="6.7889">
        <ele>585.460266</ele>
        <time>2019-08-16T12:43:30Z</time>
      </trkpt>
      <trkpt lat="48.01965" lon="6.78893">
        <ele>585.614136</ele>
        <time>2019-08-16T12:43:31Z</time>
      </trkpt>
      <trkpt lat="48.01965" lon="6.78896">
        <ele>585.770081</ele>
        <time>2019-08-16T12:43:32Z</time>
      </trkpt>
      <trkpt lat="48.01966" lon="6.78898">
        <ele>585.92572</ele>
        <time>2019-08-16T12:43:33Z</time>
      </trkpt>
      <trkpt lat="48.01967" lon="6.78901">
        <ele>586.081238</ele>
        <time>2019-08-16T12:43:34Z</time>
      </trkpt>
      <trkpt lat="48.01967" lon="6.78904">
        <ele>586.233582</ele>
        <time>2019-08-16T12:43:35Z</time>
      </trkpt>
      <trkpt lat="48.01967" lon="6.78906">
        <ele>586.382813</ele>
        <time>2019-08-16T12:43:36Z</time>
      </trkpt>
      <trkpt lat="48.01967" lon="6.78909">
        <ele>586.528503</ele>
        <time>2019-08-16T12:43:37Z</time>
      </trkpt>
      <trkpt lat="48.01968" lon="6.78912">
        <ele>586.673218</ele>
        <time>2019-08-16T12:43:38Z</time>
      </trkpt>
      <trkpt lat="48.01968" lon="6.78915">
        <ele>586.74762</ele>
        <time>2019-08-16T12:43:39Z</time>
      </trkpt>
      <trkpt lat="48.01968" lon="6.78918">
        <ele>586.899719</ele>
        <time>2019-08-16T12:43:40Z</time>
      </trkpt>
      <trkpt lat="48.01968" lon="6.7892">
        <ele>587.061768</ele>
        <time>2019-08-16T12:43:41Z</time>
      </trkpt>
      <trkpt lat="48.01969" lon="6.78923">
        <ele>587.237854</ele>
        <time>2019-08-16T12:43:42Z</time>
      </trkpt>
      <trkpt lat="48.0197" lon="6.78925">
        <ele>587.426697</ele>
        <time>2019-08-16T12:43:43Z</time>
      </trkpt>
      <trkpt lat="48.0197" lon="6.78928">
        <ele>587.621033</ele>
        <time>2019-08-16T12:43:44Z</time>
      </trkpt>
      <trkpt lat="48.0197" lon="6.78931">
        <ele>587.901794</ele>
        <time>2019-08-16T12:43:45Z</time>
      </trkpt>
      <trkpt lat="48.01971" lon="6.78934">
        <ele>588.071716</ele>
        <time>2019-08-16T12:43:46Z</time>
      </trkpt>
      <trkpt lat="48.01972" lon="6.78936">
        <ele>588.229919</ele>
        <time>2019-08-16T12:43:47Z</time>
      </trkpt>
      <trkpt lat="48.01972" lon="6.78939">
        <ele>588.38092</ele>
        <time>2019-08-16T12:43:48Z</time>
      </trkpt>
      <trkpt lat="48.01972" lon="6.78942">
        <ele>588.530701</ele>
        <time>2019-08-16T12:43:49Z</time>
      </trkpt>
      <trkpt lat="48.01973" lon="6.78944">
        <ele>588.681641</ele>
        <time>2019-08-16T12:43:50Z</time>
      </trkpt>
      <trkpt lat="48.01973" lon="6.78947">
        <ele>588.834595</ele>
        <time>2019-08-16T12:43:51Z</time>
      </trkpt>
      <trkpt lat="48.01975" lon="6.7895">
        <ele>588.991211</ele>
        <time>2019-08-16T12:43:52Z</time>
      </trkpt>
      <trkpt lat="48.01975" lon="6.78953">
        <ele>589.15271</ele>
        <time>2019-08-16T12:43:53Z</time>
      </trkpt>
      <trkpt lat="48.01975" lon="6.78955">
        <ele>589.323425</ele>
        <time>2019-08-16T12:43:54Z</time>
      </trkpt>
      <trkpt lat="48.01976" lon="6.78958">
        <ele>589.502625</ele>
        <time>2019-08-16T12:43:55Z</time>
      </trkpt>
      <trkpt lat="48.01976" lon="6.7896">
        <ele>589.687805</ele>
        <time>2019-08-16T12:43:56Z</time>
      </trkpt>
      <trkpt lat="48.01975" lon="6.78963">
        <ele>589.871399</ele>
        <time>2019-08-16T12:43:57Z</time>
      </trkpt>
      <trkpt lat="48.01975" lon="6.78966">
        <ele>590.050598</ele>
        <time>2019-08-16T12:43:58Z</time>
      </trkpt>
      <trkpt lat="48.01975" lon="6.78968">
        <ele>590.31488</ele>
        <time>2019-08-16T12:43:59Z</time>
      </trkpt>
      <trkpt lat="48.01974" lon="6.78971">
        <ele>590.491638</ele>
        <time>2019-08-16T12:44:00Z</time>
      </trkpt>
      <trkpt lat="48.01974" lon="6.78974">
        <ele>590.669006</ele>
        <time>2019-08-16T12:44:01Z</time>
      </trkpt>
      <trkpt lat="48.01973" lon="6.78977">
        <ele>590.846924</ele>
        <time>2019-08-16T12:44:02Z</time>
      </trkpt>
      <trkpt lat="48.01973" lon="6.7898">
        <ele>591.021301</ele>
        <time>2019-08-16T12:44:03Z</time>
      </trkpt>
      <trkpt lat="48.01972" lon="6.78982">
        <ele>591.187195</ele>
        <time>2019-08-16T12:44:04Z</time>
      </trkpt>
      <trkpt lat="48.01971" lon="6.78985">
        <ele>591.344055</ele>
        <time>2019-08-16T12:44:05Z</time>
      </trkpt>
      <trkpt lat="48.01971" lon="6.78988">
        <ele>591.497314</ele>
        <time>2019-08-16T12:44:06Z</time>
      </trkpt>
      <trkpt lat="48.0197" lon="6.7899">
        <ele>591.652466</ele>
        <time>2019-08-16T12:44:07Z</time>
      </trkpt>
      <trkpt lat="48.0197" lon="6.78993">
        <ele>591.811096</ele>
        <time>2019-08-16T12:44:08Z</time>
      </trkpt>
      <trkpt lat="48.01969" lon="6.78995">
        <ele>591.968323</ele>
        <time>2019-08-16T12:44:09Z</time>
      </trkpt>
      <trkpt lat="48.01968" lon="6.78998">
        <ele>592.113586</ele>
        <time>2019-08-16T12:44:10Z</time>
      </trkpt>
      <trkpt lat="48.01968" lon="6.79001">
        <ele>592.243469</ele>
        <time>2019-08-16T12:44:11Z</time>
      </trkpt>
      <trkpt lat="48.01967" lon="6.79003">
        <ele>592.363098</ele>
        <time>2019-08-16T12:44:12Z</time>
      </trkpt>
      <trkpt lat="48.01967" lon="6.79006">
        <ele>592.479797</ele>
        <time>2019-08-16T12:44:13Z</time>
      </trkpt>
      <trkpt lat="48.01966" lon="6.79009">
        <ele>592.592224</ele>
        <time>2019-08-16T12:44:14Z</time>
      </trkpt>
      <trkpt lat="48.01965" lon="6.79011">
        <ele>592.692566</ele>
        <time>2019-08-16T12:44:15Z</time>
      </trkpt>
      <trkpt lat="48.01965" lon="6.79014">
        <ele>592.820862</ele>
        <time>2019-08-16T12:44:16Z</time>
      </trkpt>
      <trkpt lat="48.01964" lon="6.79016">
        <ele>592.904297</ele>
        <time>2019-08-16T12:44:17Z</time>
      </trkpt>
      <trkpt lat="48.01963" lon="6.79019">
        <ele>592.993469</ele>
        <time>2019-08-16T12:44:18Z</time>
      </trkpt>
      <trkpt lat="48.01963" lon="6.79022">
        <ele>593.094055</ele>
        <time>2019-08-16T12:44:19Z</time>
      </trkpt>
      <trkpt lat="48.01962" lon="6.79025">
        <ele>593.20575</ele>
        <time>2019-08-16T12:44:20Z</time>
      </trkpt>
      <trkpt lat="48.01962" lon="6.79027">
        <ele>593.331238</ele>
        <time>2019-08-16T12:44:21Z</time>
      </trkpt>
      <trkpt lat="48.01962" lon="6.7903">
        <ele>593.469604</ele>
        <time>2019-08-16T12:44:22Z</time>
      </trkpt>
      <trkpt lat="48.01961" lon="6.79033">
        <ele>593.622131</ele>
        <time>2019-08-16T12:44:23Z</time>
      </trkpt>
      <trkpt lat="48.0196" lon="6.79036">
        <ele>593.784485</ele>
        <time>2019-08-16T12:44:24Z</time>
      </trkpt>
      <trkpt lat="48.0196" lon="6.79038">
        <ele>593.950012</ele>
        <time>2019-08-16T12:44:25Z</time>
      </trkpt>
      <trkpt lat="48.0196" lon="6.79041">
        <ele>594.113342</ele>
        <time>2019-08-16T12:44:26Z</time>
      </trkpt>
      <trkpt lat="48.0196" lon="6.79044">
        <ele>594.273987</ele>
        <time>2019-08-16T12:44:27Z</time>
      </trkpt>
      <trkpt lat="48.0196" lon="6.79047">
        <ele>594.436218</ele>
        <time>2019-08-16T12:44:28Z</time>
      </trkpt>
      <trkpt lat="48.01959" lon="6.7905">
        <ele>594.604126</ele>
        <time>2019-08-16T12:44:29Z</time>
      </trkpt>
      <trkpt lat="48.01959" lon="6.79053">
        <ele>594.776306</ele>
        <time>2019-08-16T12:44:30Z</time>
      </trkpt>
      <trkpt lat="48.01959" lon="6.79055">
        <ele>594.950623</ele>
        <time>2019-08-16T12:44:31Z</time>
      </trkpt>
      <trkpt lat="48.01958" lon="6.79058">
        <ele>595.124939</ele>
        <time>2019-08-16T12:44:32Z</time>
      </trkpt>
      <trkpt lat="48.01958" lon="6.79061">
        <ele>595.302551</ele>
        <time>2019-08-16T12:44:33Z</time>
      </trkpt>
      <trkpt lat="48.01958" lon="6.79064">
        <ele>595.482788</ele>
        <time>2019-08-16T12:44:34Z</time>
      </trkpt>
      <trkpt lat="48.01958" lon="6.79066">
        <ele>595.663147</ele>
        <time>2019-08-16T12:44:35Z</time>
      </trkpt>
      <trkpt lat="48.01958" lon="6.79069">
        <ele>595.839172</ele>
        <time>2019-08-16T12:44:36Z</time>
      </trkpt>
      <trkpt lat="48.01957" lon="6.79071">
        <ele>596.013245</ele>
        <time>2019-08-16T12:44:37Z</time>
      </trkpt>
      <trkpt lat="48.01957" lon="6.79074">
        <ele>596.187805</ele>
        <time>2019-08-16T12:44:38Z</time>
      </trkpt>
      <trkpt lat="48.01957" lon="6.79077">
        <ele>596.277771</ele>
        <time>2019-08-16T12:44:39Z</time>
      </trkpt>
      <trkpt lat="48.01957" lon="6.79079">
        <ele>596.369446</ele>
        <time>2019-08-16T12:44:40Z</time>
      </trkpt>
      <trkpt lat="48.01957" lon="6.79082">
        <ele>596.557373</ele>
        <time>2019-08-16T12:44:41Z</time>
      </trkpt>
      <trkpt lat="48.01957" lon="6.79084">
        <ele>596.747925</ele>
        <time>2019-08-16T12:44:42Z</time>
      </trkpt>
      <trkpt lat="48.01956" lon="6.79086">
        <ele>596.93573</ele>
        <time>2019-08-16T12:44:43Z</time>
      </trkpt>
      <trkpt lat="48.01956" lon="6.79088">
        <ele>597.118896</ele>
        <time>2019-08-16T12:44:44Z</time>
      </trkpt>
      <trkpt lat="48.01956" lon="6.79091">
        <ele>597.305908</ele>
        <time>2019-08-16T12:44:45Z</time>
      </trkpt>
      <trkpt lat="48.01956" lon="6.79093">
        <ele>597.496582</ele>
        <time>2019-08-16T12:44:46Z</time>
      </trkpt>
      <trkpt lat="48.01955" lon="6.79095">
        <ele>597.693176</ele>
        <time>2019-08-16T12:44:47Z</time>
      </trkpt>
      <trkpt lat="48.01955" lon="6.79097">
        <ele>597.895386</ele>
        <time>2019-08-16T12:44:48Z</time>
      </trkpt>
      <trkpt lat="48.01954" lon="6.79099">
        <ele>598.102234</ele>
        <time>2019-08-16T12:44:49Z</time>
      </trkpt>
      <trkpt lat="48.01954" lon="6.79101">
        <ele>598.315125</ele>
        <time>2019-08-16T12:44:50Z</time>
      </trkpt>
      <trkpt lat="48.01954" lon="6.79103">
        <ele>598.635803</ele>
        <time>2019-08-16T12:44:51Z</time>
      </trkpt>
      <trkpt lat="48.01954" lon="6.79104">
        <ele>598.846924</ele>
        <time>2019-08-16T12:44:52Z</time>
      </trkpt>
      <trkpt lat="48.01954" lon="6.79106">
        <ele>599.04718</ele>
        <time>2019-08-16T12:44:53Z</time>
      </trkpt>
      <trkpt lat="48.01954" lon="6.79108">
        <ele>599.231628</ele>
        <time>2019-08-16T12:44:54Z</time>
      </trkpt>
      <trkpt lat="48.01954" lon="6.7911">
        <ele>599.40155</ele>
        <time>2019-08-16T12:44:55Z</time>
      </trkpt>
      <trkpt lat="48.01954" lon="6.79112">
        <ele>599.559509</ele>
        <time>2019-08-16T12:44:56Z</time>
      </trkpt>
      <trkpt lat="48.01953" lon="6.79114">
        <ele>599.71521</ele>
        <time>2019-08-16T12:44:57Z</time>
      </trkpt>
      <trkpt lat="48.01953" lon="6.79115">
        <ele>599.87262</ele>
        <time>2019-08-16T12:44:58Z</time>
      </trkpt>
      <trkpt lat="48.01952" lon="6.79117">
        <ele>600.038879</ele>
        <time>2019-08-16T12:44:59Z</time>
      </trkpt>
      <trkpt lat="48.01952" lon="6.79119">
        <ele>600.213989</ele>
        <time>2019-08-16T12:45:00Z</time>
      </trkpt>
      <trkpt lat="48.01952" lon="6.79121">
        <ele>600.394104</ele>
        <time>2019-08-16T12:45:01Z</time>
      </trkpt>
      <trkpt lat="48.01951" lon="6.79123">
        <ele>600.575256</ele>
        <time>2019-08-16T12:45:02Z</time>
      </trkpt>
      <trkpt lat="48.01951" lon="6.79124">
        <ele>600.752075</ele>
        <time>2019-08-16T12:45:03Z</time>
      </trkpt>
      <trkpt lat="48.01951" lon="6.79126">
        <ele>600.928711</ele>
        <time>2019-08-16T12:45:04Z</time>
      </trkpt>
      <trkpt lat="48.01951" lon="6.79128">
        <ele>601.10614</ele>
        <time>2019-08-16T12:45:05Z</time>
      </trkpt>
      <trkpt lat="48.01951" lon="6.7913">
        <ele>601.288391</ele>
        <time>2019-08-16T12:45:06Z</time>
      </trkpt>
      <trkpt lat="48.01951" lon="6.79132">
        <ele>601.478088</ele>
        <time>2019-08-16T12:45:07Z</time>
      </trkpt>
      <trkpt lat="48.0195" lon="6.79134">
        <ele>601.67804</ele>
        <time>2019-08-16T12:45:08Z</time>
      </trkpt>
      <trkpt lat="48.0195" lon="6.79136">
        <ele>601.896851</ele>
        <time>2019-08-16T12:45:09Z</time>
      </trkpt>
      <trkpt lat="48.0195" lon="6.79138">
        <ele>602.132629</ele>
        <time>2019-08-16T12:45:10Z</time>
      </trkpt>
      <trkpt lat="48.0195" lon="6.7914">
        <ele>602.378967</ele>
        <time>2019-08-16T12:45:11Z</time>
      </trkpt>
      <trkpt lat="48.01949" lon="6.79142">
        <ele>602.627258</ele>
        <time>2019-08-16T12:45:12Z</time>
      </trkpt>
      <trkpt lat="48.01949" lon="6.79144">
        <ele>602.875061</ele>
        <time>2019-08-16T12:45:13Z</time>
      </trkpt>
      <trkpt lat="48.01949" lon="6.79146">
        <ele>603.117126</ele>
        <time>2019-08-16T12:45:14Z</time>
      </trkpt>
      <trkpt lat="48.01948" lon="6.79148">
        <ele>603.352661</ele>
        <time>2019-08-16T12:45:15Z</time>
      </trkpt>
      <trkpt lat="48.01948" lon="6.7915">
        <ele>603.579041</ele>
        <time>2019-08-16T12:45:16Z</time>
      </trkpt>
      <trkpt lat="48.01947" lon="6.79152">
        <ele>603.802429</ele>
        <time>2019-08-16T12:45:17Z</time>
      </trkpt>
      <trkpt lat="48.01947" lon="6.79155">
        <ele>604.130066</ele>
        <time>2019-08-16T12:45:18Z</time>
      </trkpt>
      <trkpt lat="48.01947" lon="6.79156">
        <ele>604.350037</ele>
        <time>2019-08-16T12:45:19Z</time>
      </trkpt>
      <trkpt lat="48.01947" lon="6.79158">
        <ele>604.573547</ele>
        <time>2019-08-16T12:45:20Z</time>
      </trkpt>
      <trkpt lat="48.01947" lon="6.7916">
        <ele>604.796082</ele>
        <time>2019-08-16T12:45:21Z</time>
      </trkpt>
      <trkpt lat="48.01947" lon="6.79162">
        <ele>605.115417</ele>
        <time>2019-08-16T12:45:22Z</time>
      </trkpt>
      <trkpt lat="48.01946" lon="6.79164">
        <ele>605.320313</ele>
        <time>2019-08-16T12:45:23Z</time>
      </trkpt>
      <trkpt lat="48.01946" lon="6.79166">
        <ele>605.516174</ele>
        <time>2019-08-16T12:45:24Z</time>
      </trkpt>
      <trkpt lat="48.01946" lon="6.79168">
        <ele>605.701965</ele>
        <time>2019-08-16T12:45:25Z</time>
      </trkpt>
      <trkpt lat="48.01946" lon="6.79171">
        <ele>605.872864</ele>
        <time>2019-08-16T12:45:26Z</time>
      </trkpt>
      <trkpt lat="48.01946" lon="6.79173">
        <ele>606.036072</ele>
        <time>2019-08-16T12:45:27Z</time>
      </trkpt>
      <trkpt lat="48.01946" lon="6.79175">
        <ele>606.199097</ele>
        <time>2019-08-16T12:45:28Z</time>
      </trkpt>
      <trkpt lat="48.01945" lon="6.79177">
        <ele>606.365662</ele>
        <time>2019-08-16T12:45:29Z</time>
      </trkpt>
      <trkpt lat="48.01945" lon="6.79179">
        <ele>606.53833</ele>
        <time>2019-08-16T12:45:30Z</time>
      </trkpt>
      <trkpt lat="48.01945" lon="6.79181">
        <ele>606.714417</ele>
        <time>2019-08-16T12:45:31Z</time>
      </trkpt>
      <trkpt lat="48.01944" lon="6.79183">
        <ele>606.890076</ele>
        <time>2019-08-16T12:45:32Z</time>
      </trkpt>
      <trkpt lat="48.01944" lon="6.79184">
        <ele>607.060974</ele>
        <time>2019-08-16T12:45:33Z</time>
      </trkpt>
      <trkpt lat="48.01944" lon="6.79186">
        <ele>607.22821</ele>
        <time>2019-08-16T12:45:34Z</time>
      </trkpt>
      <trkpt lat="48.01943" lon="6.79188">
        <ele>607.397461</ele>
        <time>2019-08-16T12:45:35Z</time>
      </trkpt>
      <trkpt lat="48.01943" lon="6.7919">
        <ele>607.570068</ele>
        <time>2019-08-16T12:45:36Z</time>
      </trkpt>
      <trkpt lat="48.01942" lon="6.79192">
        <ele>607.740662</ele>
        <time>2019-08-16T12:45:37Z</time>
      </trkpt>
      <trkpt lat="48.01942" lon="6.79195">
        <ele>607.992004</ele>
        <time>2019-08-16T12:45:38Z</time>
      </trkpt>
      <trkpt lat="48.01942" lon="6.79197">
        <ele>608.076721</ele>
        <time>2019-08-16T12:45:39Z</time>
      </trkpt>
      <trkpt lat="48.01942" lon="6.79199">
        <ele>608.162415</ele>
        <time>2019-08-16T12:45:40Z</time>
      </trkpt>
      <trkpt lat="48.01942" lon="6.79202">
        <ele>608.332336</ele>
        <time>2019-08-16T12:45:41Z</time>
      </trkpt>
      <trkpt lat="48.01942" lon="6.79204">
        <ele>608.501526</ele>
        <time>2019-08-16T12:45:42Z</time>
      </trkpt>
      <trkpt lat="48.01942" lon="6.79206">
        <ele>608.6651</ele>
        <time>2019-08-16T12:45:43Z</time>
      </trkpt>
      <trkpt lat="48.01941" lon="6.79208">
        <ele>608.83136</ele>
        <time>2019-08-16T12:45:44Z</time>
      </trkpt>
      <trkpt lat="48.01941" lon="6.7921">
        <ele>609.005554</ele>
        <time>2019-08-16T12:45:45Z</time>
      </trkpt>
      <trkpt lat="48.01941" lon="6.79212">
        <ele>609.191711</ele>
        <time>2019-08-16T12:45:46Z</time>
      </trkpt>
      <trkpt lat="48.01941" lon="6.79214">
        <ele>609.39447</ele>
        <time>2019-08-16T12:45:47Z</time>
      </trkpt>
      <trkpt lat="48.01941" lon="6.79216">
        <ele>609.612183</ele>
        <time>2019-08-16T12:45:48Z</time>
      </trkpt>
      <trkpt lat="48.01941" lon="6.79218">
        <ele>609.846741</ele>
        <time>2019-08-16T12:45:49Z</time>
      </trkpt>
      <trkpt lat="48.01942" lon="6.79221">
        <ele>610.099915</ele>
        <time>2019-08-16T12:45:50Z</time>
      </trkpt>
      <trkpt lat="48.01942" lon="6.79223">
        <ele>610.373169</ele>
        <time>2019-08-16T12:45:51Z</time>
      </trkpt>
      <trkpt lat="48.01942" lon="6.79225">
        <ele>610.656311</ele>
        <time>2019-08-16T12:45:52Z</time>
      </trkpt>
      <trkpt lat="48.01942" lon="6.79227">
        <ele>610.93634</ele>
        <time>2019-08-16T12:45:53Z</time>
      </trkpt>
      <trkpt lat="48.01943" lon="6.79229">
        <ele>611.199829</ele>
        <time>2019-08-16T12:45:54Z</time>
      </trkpt>
      <trkpt lat="48.01943" lon="6.79231">
        <ele>611.446228</ele>
        <time>2019-08-16T12:45:55Z</time>
      </trkpt>
      <trkpt lat="48.01943" lon="6.79234">
        <ele>611.674072</ele>
        <time>2019-08-16T12:45:56Z</time>
      </trkpt>
      <trkpt lat="48.01943" lon="6.79236">
        <ele>611.888184</ele>
        <time>2019-08-16T12:45:57Z</time>
      </trkpt>
      <trkpt lat="48.01944" lon="6.79238">
        <ele>612.088135</ele>
        <time>2019-08-16T12:45:58Z</time>
      </trkpt>
      <trkpt lat="48.01944" lon="6.7924">
        <ele>612.269592</ele>
        <time>2019-08-16T12:45:59Z</time>
      </trkpt>
      <trkpt lat="48.01944" lon="6.79242">
        <ele>612.436279</ele>
        <time>2019-08-16T12:46:00Z</time>
      </trkpt>
      <trkpt lat="48.01944" lon="6.79244">
        <ele>612.597351</ele>
        <time>2019-08-16T12:46:01Z</time>
      </trkpt>
      <trkpt lat="48.01944" lon="6.79246">
        <ele>612.764832</ele>
        <time>2019-08-16T12:46:02Z</time>
      </trkpt>
      <trkpt lat="48.01944" lon="6.79248">
        <ele>613.029724</ele>
        <time>2019-08-16T12:46:03Z</time>
      </trkpt>
      <trkpt lat="48.01944" lon="6.7925">
        <ele>613.214722</ele>
        <time>2019-08-16T12:46:04Z</time>
      </trkpt>
      <trkpt lat="48.01944" lon="6.79251">
        <ele>613.40979</ele>
        <time>2019-08-16T12:46:05Z</time>
      </trkpt>
      <trkpt lat="48.01944" lon="6.79253">
        <ele>613.617004</ele>
        <time>2019-08-16T12:46:06Z</time>
      </trkpt>
      <trkpt lat="48.01944" lon="6.79256">
        <ele>613.830444</ele>
        <time>2019-08-16T12:46:07Z</time>
      </trkpt>
      <trkpt lat="48.01945" lon="6.79257">
        <ele>614.04248</ele>
        <time>2019-08-16T12:46:08Z</time>
      </trkpt>
      <trkpt lat="48.01946" lon="6.79259">
        <ele>614.246643</ele>
        <time>2019-08-16T12:46:09Z</time>
      </trkpt>
      <trkpt lat="48.01946" lon="6.79261">
        <ele>614.439636</ele>
        <time>2019-08-16T12:46:10Z</time>
      </trkpt>
      <trkpt lat="48.01946" lon="6.79263">
        <ele>614.618835</ele>
        <time>2019-08-16T12:46:11Z</time>
      </trkpt>
      <trkpt lat="48.01946" lon="6.79266">
        <ele>614.784119</ele>
        <time>2019-08-16T12:46:12Z</time>
      </trkpt>
      <trkpt lat="48.01946" lon="6.79268">
        <ele>614.939453</ele>
        <time>2019-08-16T12:46:13Z</time>
      </trkpt>
      <trkpt lat="48.01946" lon="6.79269">
        <ele>615.091492</ele>
        <time>2019-08-16T12:46:14Z</time>
      </trkpt>
      <trkpt lat="48.01946" lon="6.79271">
        <ele>615.242737</ele>
        <time>2019-08-16T12:46:15Z</time>
      </trkpt>
      <trkpt lat="48.01946" lon="6.79273">
        <ele>615.396545</ele>
        <time>2019-08-16T12:46:16Z</time>
      </trkpt>
      <trkpt lat="48.01946" lon="6.79275">
        <ele>615.554749</ele>
        <time>2019-08-16T12:46:17Z</time>
      </trkpt>
      <trkpt lat="48.01946" lon="6.79277">
        <ele>615.720215</ele>
        <time>2019-08-16T12:46:18Z</time>
      </trkpt>
      <trkpt lat="48.01946" lon="6.79279">
        <ele>615.893494</ele>
        <time>2019-08-16T12:46:19Z</time>
      </trkpt>
      <trkpt lat="48.01946" lon="6.79281">
        <ele>616.072266</ele>
        <time>2019-08-16T12:46:20Z</time>
      </trkpt>
      <trkpt lat="48.01946" lon="6.79283">
        <ele>616.255798</ele>
        <time>2019-08-16T12:46:21Z</time>
      </trkpt>
      <trkpt lat="48.01947" lon="6.79285">
        <ele>616.438538</ele>
        <time>2019-08-16T12:46:22Z</time>
      </trkpt>
      <trkpt lat="48.01947" lon="6.79287">
        <ele>616.614929</ele>
        <time>2019-08-16T12:46:23Z</time>
      </trkpt>
      <trkpt lat="48.01948" lon="6.79289">
        <ele>616.784241</ele>
        <time>2019-08-16T12:46:24Z</time>
      </trkpt>
      <trkpt lat="48.01948" lon="6.79292">
        <ele>616.948425</ele>
        <time>2019-08-16T12:46:25Z</time>
      </trkpt>
      <trkpt lat="48.01949" lon="6.79294">
        <ele>617.115845</ele>
        <time>2019-08-16T12:46:26Z</time>
      </trkpt>
      <trkpt lat="48.01949" lon="6.79296">
        <ele>617.287659</ele>
        <time>2019-08-16T12:46:27Z</time>
      </trkpt>
      <trkpt lat="48.01949" lon="6.79298">
        <ele>617.461487</ele>
        <time>2019-08-16T12:46:28Z</time>
      </trkpt>
      <trkpt lat="48.0195" lon="6.793">
        <ele>617.637024</ele>
        <time>2019-08-16T12:46:29Z</time>
      </trkpt>
      <trkpt lat="48.01951" lon="6.79302">
        <ele>617.813721</ele>
        <time>2019-08-16T12:46:30Z</time>
      </trkpt>
      <trkpt lat="48.01951" lon="6.79304">
        <ele>617.99823</ele>
        <time>2019-08-16T12:46:31Z</time>
      </trkpt>
      <trkpt lat="48.01951" lon="6.79305">
        <ele>618.284607</ele>
        <time>2019-08-16T12:46:32Z</time>
      </trkpt>
      <trkpt lat="48.01952" lon="6.79307">
        <ele>618.481262</ele>
        <time>2019-08-16T12:46:33Z</time>
      </trkpt>
      <trkpt lat="48.01952" lon="6.79309">
        <ele>618.678467</ele>
        <time>2019-08-16T12:46:34Z</time>
      </trkpt>
      <trkpt lat="48.01952" lon="6.79311">
        <ele>618.872437</ele>
        <time>2019-08-16T12:46:35Z</time>
      </trkpt>
      <trkpt lat="48.01952" lon="6.79313">
        <ele>619.152283</ele>
        <time>2019-08-16T12:46:36Z</time>
      </trkpt>
      <trkpt lat="48.01953" lon="6.79315">
        <ele>619.333801</ele>
        <time>2019-08-16T12:46:37Z</time>
      </trkpt>
      <trkpt lat="48.01953" lon="6.79316">
        <ele>619.514648</ele>
        <time>2019-08-16T12:46:38Z</time>
      </trkpt>
      <trkpt lat="48.01954" lon="6.79318">
        <ele>619.788879</ele>
        <time>2019-08-16T12:46:39Z</time>
      </trkpt>
      <trkpt lat="48.01954" lon="6.7932">
        <ele>619.882141</ele>
        <time>2019-08-16T12:46:40Z</time>
      </trkpt>
      <trkpt lat="48.01955" lon="6.79322">
        <ele>620.07196</ele>
        <time>2019-08-16T12:46:41Z</time>
      </trkpt>
      <trkpt lat="48.01955" lon="6.79324">
        <ele>620.264709</ele>
        <time>2019-08-16T12:46:42Z</time>
      </trkpt>
      <trkpt lat="48.01956" lon="6.79325">
        <ele>620.456848</ele>
        <time>2019-08-16T12:46:43Z</time>
      </trkpt>
      <trkpt lat="48.01956" lon="6.79328">
        <ele>620.638733</ele>
        <time>2019-08-16T12:46:44Z</time>
      </trkpt>
      <trkpt lat="48.01956" lon="6.7933">
        <ele>620.804443</ele>
        <time>2019-08-16T12:46:45Z</time>
      </trkpt>
      <trkpt lat="48.01957" lon="6.79332">
        <ele>620.960144</ele>
        <time>2019-08-16T12:46:46Z</time>
      </trkpt>
      <trkpt lat="48.01957" lon="6.79333">
        <ele>621.109863</ele>
        <time>2019-08-16T12:46:47Z</time>
      </trkpt>
      <trkpt lat="48.01957" lon="6.79336">
        <ele>621.267761</ele>
        <time>2019-08-16T12:46:48Z</time>
      </trkpt>
      <trkpt lat="48.01957" lon="6.79338">
        <ele>621.437927</ele>
        <time>2019-08-16T12:46:49Z</time>
      </trkpt>
      <trkpt lat="48.01957" lon="6.7934">
        <ele>621.629395</ele>
        <time>2019-08-16T12:46:50Z</time>
      </trkpt>
      <trkpt lat="48.01957" lon="6.79342">
        <ele>621.835266</ele>
        <time>2019-08-16T12:46:51Z</time>
      </trkpt>
      <trkpt lat="48.01958" lon="6.79344">
        <ele>622.049316</ele>
        <time>2019-08-16T12:46:52Z</time>
      </trkpt>
      <trkpt lat="48.01959" lon="6.79346">
        <ele>622.365784</ele>
        <time>2019-08-16T12:46:53Z</time>
      </trkpt>
      <trkpt lat="48.01959" lon="6.79348">
        <ele>622.56134</ele>
        <time>2019-08-16T12:46:54Z</time>
      </trkpt>
      <trkpt lat="48.01959" lon="6.7935">
        <ele>622.741028</ele>
        <time>2019-08-16T12:46:55Z</time>
      </trkpt>
      <trkpt lat="48.0196" lon="6.79352">
        <ele>622.906799</ele>
        <time>2019-08-16T12:46:56Z</time>
      </trkpt>
      <trkpt lat="48.0196" lon="6.79354">
        <ele>623.059265</ele>
        <time>2019-08-16T12:46:57Z</time>
      </trkpt>
      <trkpt lat="48.0196" lon="6.79356">
        <ele>623.200623</ele>
        <time>2019-08-16T12:46:58Z</time>
      </trkpt>
      <trkpt lat="48.01959" lon="6.79357">
        <ele>623.331726</ele>
        <time>2019-08-16T12:46:59Z</time>
      </trkpt>
      <trkpt lat="48.01959" lon="6.79359">
        <ele>623.460144</ele>
        <time>2019-08-16T12:47:00Z</time>
      </trkpt>
      <trkpt lat="48.01959" lon="6.79362">
        <ele>623.593689</ele>
        <time>2019-08-16T12:47:01Z</time>
      </trkpt>
      <trkpt lat="48.01959" lon="6.79364">
        <ele>623.737732</ele>
        <time>2019-08-16T12:47:02Z</time>
      </trkpt>
      <trkpt lat="48.01958" lon="6.79365">
        <ele>623.962646</ele>
        <time>2019-08-16T12:47:03Z</time>
      </trkpt>
      <trkpt lat="48.01958" lon="6.79367">
        <ele>624.116943</ele>
        <time>2019-08-16T12:47:04Z</time>
      </trkpt>
      <trkpt lat="48.01957" lon="6.79369">
        <ele>624.281128</ele>
        <time>2019-08-16T12:47:05Z</time>
      </trkpt>
      <trkpt lat="48.01957" lon="6.79371">
        <ele>624.456665</ele>
        <time>2019-08-16T12:47:06Z</time>
      </trkpt>
      <trkpt lat="48.01956" lon="6.79373">
        <ele>624.638123</ele>
        <time>2019-08-16T12:47:07Z</time>
      </trkpt>
      <trkpt lat="48.01956" lon="6.79375">
        <ele>624.901978</ele>
        <time>2019-08-16T12:47:08Z</time>
      </trkpt>
      <trkpt lat="48.01956" lon="6.79377">
        <ele>625.075256</ele>
        <time>2019-08-16T12:47:09Z</time>
      </trkpt>
      <trkpt lat="48.01955" lon="6.79379">
        <ele>625.248535</ele>
        <time>2019-08-16T12:47:10Z</time>
      </trkpt>
      <trkpt lat="48.01955" lon="6.7938">
        <ele>625.520508</ele>
        <time>2019-08-16T12:47:11Z</time>
      </trkpt>
      <trkpt lat="48.01955" lon="6.79381">
        <ele>625.716003</ele>
        <time>2019-08-16T12:47:12Z</time>
      </trkpt>
      <trkpt lat="48.01955" lon="6.79383">
        <ele>625.928772</ele>
        <time>2019-08-16T12:47:13Z</time>
      </trkpt>
      <trkpt lat="48.01954" lon="6.79385">
        <ele>626.153381</ele>
        <time>2019-08-16T12:47:14Z</time>
      </trkpt>
      <trkpt lat="48.01954" lon="6.79386">
        <ele>626.375427</ele>
        <time>2019-08-16T12:47:15Z</time>
      </trkpt>
      <trkpt lat="48.01953" lon="6.79388">
        <ele>626.585022</ele>
        <time>2019-08-16T12:47:16Z</time>
      </trkpt>
      <trkpt lat="48.01952" lon="6.79389">
        <ele>626.779541</ele>
        <time>2019-08-16T12:47:17Z</time>
      </trkpt>
      <trkpt lat="48.01951" lon="6.79391">
        <ele>626.96405</ele>
        <time>2019-08-16T12:47:18Z</time>
      </trkpt>
      <trkpt lat="48.01951" lon="6.79393">
        <ele>627.141663</ele>
        <time>2019-08-16T12:47:19Z</time>
      </trkpt>
      <trkpt lat="48.0195" lon="6.79394">
        <ele>627.315979</ele>
        <time>2019-08-16T12:47:20Z</time>
      </trkpt>
      <trkpt lat="48.0195" lon="6.79396">
        <ele>627.48822</ele>
        <time>2019-08-16T12:47:21Z</time>
      </trkpt>
      <trkpt lat="48.01949" lon="6.79397">
        <ele>627.660645</ele>
        <time>2019-08-16T12:47:22Z</time>
      </trkpt>
      <trkpt lat="48.01949" lon="6.79399">
        <ele>627.837708</ele>
        <time>2019-08-16T12:47:23Z</time>
      </trkpt>
      <trkpt lat="48.01948" lon="6.79401">
        <ele>628.023254</ele>
        <time>2019-08-16T12:47:24Z</time>
      </trkpt>
      <trkpt lat="48.01947" lon="6.79402">
        <ele>628.21814</ele>
        <time>2019-08-16T12:47:25Z</time>
      </trkpt>
      <trkpt lat="48.01946" lon="6.79404">
        <ele>628.417908</ele>
        <time>2019-08-16T12:47:26Z</time>
      </trkpt>
      <trkpt lat="48.01945" lon="6.79405">
        <ele>628.716003</ele>
        <time>2019-08-16T12:47:27Z</time>
      </trkpt>
      <trkpt lat="48.01944" lon="6.79406">
        <ele>628.91394</ele>
        <time>2019-08-16T12:47:28Z</time>
      </trkpt>
      <trkpt lat="48.01944" lon="6.79408">
        <ele>629.111694</ele>
        <time>2019-08-16T12:47:29Z</time>
      </trkpt>
      <trkpt lat="48.01943" lon="6.7941">
        <ele>629.311951</ele>
        <time>2019-08-16T12:47:30Z</time>
      </trkpt>
      <trkpt lat="48.01943" lon="6.79412">
        <ele>629.516846</ele>
        <time>2019-08-16T12:47:31Z</time>
      </trkpt>
      <trkpt lat="48.01943" lon="6.79414">
        <ele>629.727966</ele>
        <time>2019-08-16T12:47:32Z</time>
      </trkpt>
      <trkpt lat="48.01943" lon="6.79416">
        <ele>630.042664</ele>
        <time>2019-08-16T12:47:33Z</time>
      </trkpt>
      <trkpt lat="48.01942" lon="6.79418">
        <ele>630.238586</ele>
        <time>2019-08-16T12:47:34Z</time>
      </trkpt>
      <trkpt lat="48.01942" lon="6.7942">
        <ele>630.429688</ele>
        <time>2019-08-16T12:47:35Z</time>
      </trkpt>
      <trkpt lat="48.01941" lon="6.79422">
        <ele>630.621094</ele>
        <time>2019-08-16T12:47:36Z</time>
      </trkpt>
      <trkpt lat="48.01941" lon="6.79424">
        <ele>630.81543</ele>
        <time>2019-08-16T12:47:37Z</time>
      </trkpt>
      <trkpt lat="48.01941" lon="6.79425">
        <ele>631.006042</ele>
        <time>2019-08-16T12:47:38Z</time>
      </trkpt>
      <trkpt lat="48.0194" lon="6.79426">
        <ele>631.191101</ele>
        <time>2019-08-16T12:47:39Z</time>
      </trkpt>
      <trkpt lat="48.0194" lon="6.79427">
        <ele>631.373352</ele>
        <time>2019-08-16T12:47:40Z</time>
      </trkpt>
      <trkpt lat="48.01939" lon="6.79429">
        <ele>631.46283</ele>
        <time>2019-08-16T12:47:41Z</time>
      </trkpt>
      <trkpt lat="48.01939" lon="6.7943">
        <ele>631.551086</ele>
        <time>2019-08-16T12:47:42Z</time>
      </trkpt>
      <trkpt lat="48.01938" lon="6.79433">
        <ele>631.727478</ele>
        <time>2019-08-16T12:47:43Z</time>
      </trkpt>
      <trkpt lat="48.01938" lon="6.79435">
        <ele>631.898499</ele>
        <time>2019-08-16T12:47:44Z</time>
      </trkpt>
      <trkpt lat="48.01938" lon="6.79437">
        <ele>632.069641</ele>
        <time>2019-08-16T12:47:45Z</time>
      </trkpt>
      <trkpt lat="48.01938" lon="6.79439">
        <ele>632.244507</ele>
        <time>2019-08-16T12:47:46Z</time>
      </trkpt>
      <trkpt lat="48.01937" lon="6.79441">
        <ele>632.429321</ele>
        <time>2019-08-16T12:47:47Z</time>
      </trkpt>
      <trkpt lat="48.01937" lon="6.79442">
        <ele>632.621948</ele>
        <time>2019-08-16T12:47:48Z</time>
      </trkpt>
      <trkpt lat="48.01936" lon="6.79444">
        <ele>632.819519</ele>
        <time>2019-08-16T12:47:49Z</time>
      </trkpt>
      <trkpt lat="48.01936" lon="6.79446">
        <ele>633.025085</ele>
        <time>2019-08-16T12:47:50Z</time>
      </trkpt>
      <trkpt lat="48.01936" lon="6.79448">
        <ele>633.344055</ele>
        <time>2019-08-16T12:47:51Z</time>
      </trkpt>
      <trkpt lat="48.01936" lon="6.7945">
        <ele>633.55658</ele>
        <time>2019-08-16T12:47:52Z</time>
      </trkpt>
      <trkpt lat="48.01935" lon="6.79452">
        <ele>633.771301</ele>
        <time>2019-08-16T12:47:53Z</time>
      </trkpt>
      <trkpt lat="48.01935" lon="6.79455">
        <ele>633.992676</ele>
        <time>2019-08-16T12:47:54Z</time>
      </trkpt>
      <trkpt lat="48.01934" lon="6.79457">
        <ele>634.225159</ele>
        <time>2019-08-16T12:47:55Z</time>
      </trkpt>
      <trkpt lat="48.01934" lon="6.7946">
        <ele>634.4599</ele>
        <time>2019-08-16T12:47:56Z</time>
      </trkpt>
      <trkpt lat="48.01933" lon="6.79462">
        <ele>634.691345</ele>
        <time>2019-08-16T12:47:57Z</time>
      </trkpt>
      <trkpt lat="48.01933" lon="6.79463">
        <ele>634.919983</ele>
        <time>2019-08-16T12:47:58Z</time>
      </trkpt>
      <trkpt lat="48.01932" lon="6.79466">
        <ele>635.147339</ele>
        <time>2019-08-16T12:47:59Z</time>
      </trkpt>
      <trkpt lat="48.01931" lon="6.79467">
        <ele>635.376404</ele>
        <time>2019-08-16T12:48:00Z</time>
      </trkpt>
      <trkpt lat="48.01931" lon="6.79469">
        <ele>635.595276</ele>
        <time>2019-08-16T12:48:01Z</time>
      </trkpt>
      <trkpt lat="48.0193" lon="6.79472">
        <ele>635.801819</ele>
        <time>2019-08-16T12:48:02Z</time>
      </trkpt>
      <trkpt lat="48.0193" lon="6.79473">
        <ele>635.995178</ele>
        <time>2019-08-16T12:48:03Z</time>
      </trkpt>
      <trkpt lat="48.0193" lon="6.79476">
        <ele>636.269836</ele>
        <time>2019-08-16T12:48:04Z</time>
      </trkpt>
      <trkpt lat="48.01929" lon="6.79478">
        <ele>636.43988</ele>
        <time>2019-08-16T12:48:05Z</time>
      </trkpt>
      <trkpt lat="48.01929" lon="6.7948">
        <ele>636.599548</ele>
        <time>2019-08-16T12:48:06Z</time>
      </trkpt>
      <trkpt lat="48.01928" lon="6.79482">
        <ele>636.751709</ele>
        <time>2019-08-16T12:48:07Z</time>
      </trkpt>
      <trkpt lat="48.01927" lon="6.79485">
        <ele>636.904846</ele>
        <time>2019-08-16T12:48:08Z</time>
      </trkpt>
      <trkpt lat="48.01927" lon="6.79487">
        <ele>637.066345</ele>
        <time>2019-08-16T12:48:09Z</time>
      </trkpt>
      <trkpt lat="48.01926" lon="6.79489">
        <ele>637.236633</ele>
        <time>2019-08-16T12:48:10Z</time>
      </trkpt>
      <trkpt lat="48.01926" lon="6.79491">
        <ele>637.415161</ele>
        <time>2019-08-16T12:48:11Z</time>
      </trkpt>
      <trkpt lat="48.01926" lon="6.79493">
        <ele>637.596313</ele>
        <time>2019-08-16T12:48:12Z</time>
      </trkpt>
      <trkpt lat="48.01926" lon="6.79496">
        <ele>637.781494</ele>
        <time>2019-08-16T12:48:13Z</time>
      </trkpt>
      <trkpt lat="48.01925" lon="6.79497">
        <ele>637.969116</ele>
        <time>2019-08-16T12:48:14Z</time>
      </trkpt>
      <trkpt lat="48.01925" lon="6.79499">
        <ele>638.155762</ele>
        <time>2019-08-16T12:48:15Z</time>
      </trkpt>
      <trkpt lat="48.01925" lon="6.79501">
        <ele>638.337463</ele>
        <time>2019-08-16T12:48:16Z</time>
      </trkpt>
      <trkpt lat="48.01925" lon="6.79503">
        <ele>638.517395</ele>
        <time>2019-08-16T12:48:17Z</time>
      </trkpt>
      <trkpt lat="48.01924" lon="6.79504">
        <ele>638.703369</ele>
        <time>2019-08-16T12:48:18Z</time>
      </trkpt>
      <trkpt lat="48.01923" lon="6.79506">
        <ele>638.899902</ele>
        <time>2019-08-16T12:48:19Z</time>
      </trkpt>
      <trkpt lat="48.01923" lon="6.79507">
        <ele>639.101868</ele>
        <time>2019-08-16T12:48:20Z</time>
      </trkpt>
      <trkpt lat="48.01923" lon="6.79509">
        <ele>639.304138</ele>
        <time>2019-08-16T12:48:21Z</time>
      </trkpt>
      <trkpt lat="48.01923" lon="6.79511">
        <ele>639.503601</ele>
        <time>2019-08-16T12:48:22Z</time>
      </trkpt>
      <trkpt lat="48.01923" lon="6.79513">
        <ele>639.702637</ele>
        <time>2019-08-16T12:48:23Z</time>
      </trkpt>
      <trkpt lat="48.01922" lon="6.79514">
        <ele>640.008057</ele>
        <time>2019-08-16T12:48:24Z</time>
      </trkpt>
      <trkpt lat="48.01922" lon="6.79516">
        <ele>640.220642</ele>
        <time>2019-08-16T12:48:25Z</time>
      </trkpt>
      <trkpt lat="48.01922" lon="6.79518">
        <ele>640.439331</ele>
        <time>2019-08-16T12:48:26Z</time>
      </trkpt>
      <trkpt lat="48.01922" lon="6.7952">
        <ele>640.661804</ele>
        <time>2019-08-16T12:48:27Z</time>
      </trkpt>
      <trkpt lat="48.01922" lon="6.79522">
        <ele>640.885132</ele>
        <time>2019-08-16T12:48:28Z</time>
      </trkpt>
      <trkpt lat="48.01922" lon="6.79524">
        <ele>641.109436</ele>
        <time>2019-08-16T12:48:29Z</time>
      </trkpt>
      <trkpt lat="48.01922" lon="6.79526">
        <ele>641.331238</ele>
        <time>2019-08-16T12:48:30Z</time>
      </trkpt>
      <trkpt lat="48.01922" lon="6.79528">
        <ele>641.545349</ele>
        <time>2019-08-16T12:48:31Z</time>
      </trkpt>
      <trkpt lat="48.01921" lon="6.7953">
        <ele>641.848083</ele>
        <time>2019-08-16T12:48:32Z</time>
      </trkpt>
      <trkpt lat="48.0192" lon="6.79531">
        <ele>642.048096</ele>
        <time>2019-08-16T12:48:33Z</time>
      </trkpt>
      <trkpt lat="48.0192" lon="6.79533">
        <ele>642.250793</ele>
        <time>2019-08-16T12:48:34Z</time>
      </trkpt>
      <trkpt lat="48.01918" lon="6.79534">
        <ele>642.45282</ele>
        <time>2019-08-16T12:48:35Z</time>
      </trkpt>
      <trkpt lat="48.01917" lon="6.79535">
        <ele>642.647522</ele>
        <time>2019-08-16T12:48:36Z</time>
      </trkpt>
      <trkpt lat="48.01915" lon="6.79535">
        <ele>642.924561</ele>
        <time>2019-08-16T12:48:37Z</time>
      </trkpt>
      <trkpt lat="48.01914" lon="6.79535">
        <ele>643.100159</ele>
        <time>2019-08-16T12:48:38Z</time>
      </trkpt>
      <trkpt lat="48.01914" lon="6.79535">
        <ele>643.26709</ele>
        <time>2019-08-16T12:48:39Z</time>
      </trkpt>
      <trkpt lat="48.01912" lon="6.79535">
        <ele>643.503479</ele>
        <time>2019-08-16T12:48:40Z</time>
      </trkpt>
      <trkpt lat="48.01911" lon="6.79535">
        <ele>643.660583</ele>
        <time>2019-08-16T12:48:41Z</time>
      </trkpt>
      <trkpt lat="48.0191" lon="6.79535">
        <ele>643.742188</ele>
        <time>2019-08-16T12:48:42Z</time>
      </trkpt>
      <trkpt lat="48.01909" lon="6.79535">
        <ele>643.827148</ele>
        <time>2019-08-16T12:48:43Z</time>
      </trkpt>
      <trkpt lat="48.01907" lon="6.79535">
        <ele>644.105896</ele>
        <time>2019-08-16T12:48:44Z</time>
      </trkpt>
      <trkpt lat="48.01907" lon="6.79534">
        <ele>644.31134</ele>
        <time>2019-08-16T12:48:45Z</time>
      </trkpt>
      <trkpt lat="48.01906" lon="6.79533">
        <ele>644.532043</ele>
        <time>2019-08-16T12:48:46Z</time>
      </trkpt>
      <trkpt lat="48.01905" lon="6.79531">
        <ele>644.890503</ele>
        <time>2019-08-16T12:48:47Z</time>
      </trkpt>
      <trkpt lat="48.01904" lon="6.79529">
        <ele>645.135559</ele>
        <time>2019-08-16T12:48:48Z</time>
      </trkpt>
      <trkpt lat="48.01903" lon="6.79527">
        <ele>645.373474</ele>
        <time>2019-08-16T12:48:49Z</time>
      </trkpt>
      <trkpt lat="48.01902" lon="6.79525">
        <ele>645.591248</ele>
        <time>2019-08-16T12:48:50Z</time>
      </trkpt>
      <trkpt lat="48.01902" lon="6.79522">
        <ele>645.785217</ele>
        <time>2019-08-16T12:48:51Z</time>
      </trkpt>
      <trkpt lat="48.01901" lon="6.7952">
        <ele>645.952148</ele>
        <time>2019-08-16T12:48:52Z</time>
      </trkpt>
      <trkpt lat="48.01901" lon="6.79518">
        <ele>646.094116</ele>
        <time>2019-08-16T12:48:53Z</time>
      </trkpt>
      <trkpt lat="48.01901" lon="6.79516">
        <ele>646.215942</ele>
        <time>2019-08-16T12:48:54Z</time>
      </trkpt>
      <trkpt lat="48.019" lon="6.79514">
        <ele>646.327209</ele>
        <time>2019-08-16T12:48:55Z</time>
      </trkpt>
      <trkpt lat="48.019" lon="6.79511">
        <ele>646.439331</ele>
        <time>2019-08-16T12:48:56Z</time>
      </trkpt>
      <trkpt lat="48.01899" lon="6.79509">
        <ele>646.552551</ele>
        <time>2019-08-16T12:48:57Z</time>
      </trkpt>
      <trkpt lat="48.01899" lon="6.79507">
        <ele>646.671021</ele>
        <time>2019-08-16T12:48:58Z</time>
      </trkpt>
      <trkpt lat="48.01899" lon="6.79504">
        <ele>646.793335</ele>
        <time>2019-08-16T12:48:59Z</time>
      </trkpt>
      <trkpt lat="48.01899" lon="6.79502">
        <ele>646.923645</ele>
        <time>2019-08-16T12:49:00Z</time>
      </trkpt>
      <trkpt lat="48.01899" lon="6.79499">
        <ele>647.055664</ele>
        <time>2019-08-16T12:49:01Z</time>
      </trkpt>
      <trkpt lat="48.01898" lon="6.79497">
        <ele>647.186462</ele>
        <time>2019-08-16T12:49:02Z</time>
      </trkpt>
      <trkpt lat="48.01897" lon="6.79494">
        <ele>647.3172</ele>
        <time>2019-08-16T12:49:03Z</time>
      </trkpt>
      <trkpt lat="48.01897" lon="6.79492">
        <ele>647.455017</ele>
        <time>2019-08-16T12:49:04Z</time>
      </trkpt>
      <trkpt lat="48.01896" lon="6.79489">
        <ele>647.603455</ele>
        <time>2019-08-16T12:49:05Z</time>
      </trkpt>
      <trkpt lat="48.01895" lon="6.79487">
        <ele>647.756897</ele>
        <time>2019-08-16T12:49:06Z</time>
      </trkpt>
      <trkpt lat="48.01894" lon="6.79484">
        <ele>647.909424</ele>
        <time>2019-08-16T12:49:07Z</time>
      </trkpt>
      <trkpt lat="48.01894" lon="6.79481">
        <ele>648.062134</ele>
        <time>2019-08-16T12:49:08Z</time>
      </trkpt>
      <trkpt lat="48.01893" lon="6.79479">
        <ele>648.217102</ele>
        <time>2019-08-16T12:49:09Z</time>
      </trkpt>
      <trkpt lat="48.01892" lon="6.79477">
        <ele>648.369324</ele>
        <time>2019-08-16T12:49:10Z</time>
      </trkpt>
      <trkpt lat="48.01891" lon="6.79474">
        <ele>648.507874</ele>
        <time>2019-08-16T12:49:11Z</time>
      </trkpt>
      <trkpt lat="48.01891" lon="6.79471">
        <ele>648.621887</ele>
        <time>2019-08-16T12:49:12Z</time>
      </trkpt>
      <trkpt lat="48.0189" lon="6.79468">
        <ele>648.74707</ele>
        <time>2019-08-16T12:49:13Z</time>
      </trkpt>
      <trkpt lat="48.01889" lon="6.79466">
        <ele>648.809998</ele>
        <time>2019-08-16T12:49:14Z</time>
      </trkpt>
      <trkpt lat="48.01888" lon="6.79463">
        <ele>648.86499</ele>
        <time>2019-08-16T12:49:15Z</time>
      </trkpt>
      <trkpt lat="48.01888" lon="6.7946">
        <ele>648.911804</ele>
        <time>2019-08-16T12:49:16Z</time>
      </trkpt>
      <trkpt lat="48.01887" lon="6.79458">
        <ele>648.951355</ele>
        <time>2019-08-16T12:49:17Z</time>
      </trkpt>
      <trkpt lat="48.01886" lon="6.79455">
        <ele>649.011292</ele>
        <time>2019-08-16T12:49:18Z</time>
      </trkpt>
      <trkpt lat="48.01885" lon="6.79452">
        <ele>649.06842</ele>
        <time>2019-08-16T12:49:19Z</time>
      </trkpt>
      <trkpt lat="48.01884" lon="6.7945">
        <ele>649.147522</ele>
        <time>2019-08-16T12:49:20Z</time>
      </trkpt>
      <trkpt lat="48.01883" lon="6.79447">
        <ele>649.243713</ele>
        <time>2019-08-16T12:49:21Z</time>
      </trkpt>
      <trkpt lat="48.01882" lon="6.79444">
        <ele>649.345886</ele>
        <time>2019-08-16T12:49:22Z</time>
      </trkpt>
      <trkpt lat="48.01881" lon="6.79442">
        <ele>649.449219</ele>
        <time>2019-08-16T12:49:23Z</time>
      </trkpt>
      <trkpt lat="48.01881" lon="6.79439">
        <ele>649.551758</ele>
        <time>2019-08-16T12:49:24Z</time>
      </trkpt>
      <trkpt lat="48.0188" lon="6.79436">
        <ele>649.654602</ele>
        <time>2019-08-16T12:49:25Z</time>
      </trkpt>
      <trkpt lat="48.01879" lon="6.79434">
        <ele>649.804443</ele>
        <time>2019-08-16T12:49:26Z</time>
      </trkpt>
      <trkpt lat="48.01878" lon="6.79431">
        <ele>649.897705</ele>
        <time>2019-08-16T12:49:27Z</time>
      </trkpt>
      <trkpt lat="48.01878" lon="6.79429">
        <ele>649.990601</ele>
        <time>2019-08-16T12:49:28Z</time>
      </trkpt>
      <trkpt lat="48.01877" lon="6.79426">
        <ele>650.092102</ele>
        <time>2019-08-16T12:49:29Z</time>
      </trkpt>
      <trkpt lat="48.01876" lon="6.79423">
        <ele>650.207153</ele>
        <time>2019-08-16T12:49:30Z</time>
      </trkpt>
      <trkpt lat="48.01875" lon="6.79421">
        <ele>650.328796</ele>
        <time>2019-08-16T12:49:31Z</time>
      </trkpt>
      <trkpt lat="48.01875" lon="6.79418">
        <ele>650.455261</ele>
        <time>2019-08-16T12:49:32Z</time>
      </trkpt>
      <trkpt lat="48.01874" lon="6.79416">
        <ele>650.66217</ele>
        <time>2019-08-16T12:49:33Z</time>
      </trkpt>
      <trkpt lat="48.01873" lon="6.79413">
        <ele>650.811829</ele>
        <time>2019-08-16T12:49:34Z</time>
      </trkpt>
      <trkpt lat="48.01872" lon="6.7941">
        <ele>650.964355</ele>
        <time>2019-08-16T12:49:35Z</time>
      </trkpt>
      <trkpt lat="48.01871" lon="6.79408">
        <ele>651.112793</ele>
        <time>2019-08-16T12:49:36Z</time>
      </trkpt>
      <trkpt lat="48.0187" lon="6.79406">
        <ele>651.256653</ele>
        <time>2019-08-16T12:49:37Z</time>
      </trkpt>
      <trkpt lat="48.01869" lon="6.79404">
        <ele>651.463562</ele>
        <time>2019-08-16T12:49:38Z</time>
      </trkpt>
      <trkpt lat="48.01868" lon="6.79402">
        <ele>651.598694</ele>
        <time>2019-08-16T12:49:39Z</time>
      </trkpt>
      <trkpt lat="48.01867" lon="6.794">
        <ele>651.73053</ele>
        <time>2019-08-16T12:49:40Z</time>
      </trkpt>
      <trkpt lat="48.01866" lon="6.79398">
        <ele>651.934998</ele>
        <time>2019-08-16T12:49:41Z</time>
      </trkpt>
      <trkpt lat="48.01865" lon="6.79396">
        <ele>652.005676</ele>
        <time>2019-08-16T12:49:42Z</time>
      </trkpt>
      <trkpt lat="48.01864" lon="6.79394">
        <ele>652.153015</ele>
        <time>2019-08-16T12:49:43Z</time>
      </trkpt>
      <trkpt lat="48.01863" lon="6.79392">
        <ele>652.389893</ele>
        <time>2019-08-16T12:49:44Z</time>
      </trkpt>
      <trkpt lat="48.01861" lon="6.79391">
        <ele>652.557739</ele>
        <time>2019-08-16T12:49:45Z</time>
      </trkpt>
      <trkpt lat="48.0186" lon="6.79389">
        <ele>652.73114</ele>
        <time>2019-08-16T12:49:46Z</time>
      </trkpt>
      <trkpt lat="48.01858" lon="6.79388">
        <ele>652.988586</ele>
        <time>2019-08-16T12:49:47Z</time>
      </trkpt>
      <trkpt lat="48.01856" lon="6.79387">
        <ele>653.151917</ele>
        <time>2019-08-16T12:49:48Z</time>
      </trkpt>
      <trkpt lat="48.01855" lon="6.79386">
        <ele>653.313049</ele>
        <time>2019-08-16T12:49:49Z</time>
      </trkpt>
      <trkpt lat="48.01853" lon="6.79386">
        <ele>653.554504</ele>
        <time>2019-08-16T12:49:50Z</time>
      </trkpt>
      <trkpt lat="48.01851" lon="6.79387">
        <ele>653.71991</ele>
        <time>2019-08-16T12:49:51Z</time>
      </trkpt>
      <trkpt lat="48.01849" lon="6.79387">
        <ele>653.88916</ele>
        <time>2019-08-16T12:49:52Z</time>
      </trkpt>
      <trkpt lat="48.01848" lon="6.79388">
        <ele>654.148743</ele>
        <time>2019-08-16T12:49:53Z</time>
      </trkpt>
      <trkpt lat="48.01846" lon="6.79389">
        <ele>654.325439</ele>
        <time>2019-08-16T12:49:54Z</time>
      </trkpt>
      <trkpt lat="48.01845" lon="6.7939">
        <ele>654.507019</ele>
        <time>2019-08-16T12:49:55Z</time>
      </trkpt>
      <trkpt lat="48.01844" lon="6.79392">
        <ele>654.78418</ele>
        <time>2019-08-16T12:49:56Z</time>
      </trkpt>
      <trkpt lat="48.01843" lon="6.79393">
        <ele>654.965759</ele>
        <time>2019-08-16T12:49:57Z</time>
      </trkpt>
      <trkpt lat="48.01842" lon="6.79395">
        <ele>655.144958</ele>
        <time>2019-08-16T12:49:58Z</time>
      </trkpt>
      <trkpt lat="48.01842" lon="6.79397">
        <ele>655.415466</ele>
        <time>2019-08-16T12:49:59Z</time>
      </trkpt>
      <trkpt lat="48.01841" lon="6.79398">
        <ele>655.598938</ele>
        <time>2019-08-16T12:50:00Z</time>
      </trkpt>
      <trkpt lat="48.0184" lon="6.794">
        <ele>655.786316</ele>
        <time>2019-08-16T12:50:01Z</time>
      </trkpt>
      <trkpt lat="48.01839" lon="6.79401">
        <ele>655.98053</ele>
        <time>2019-08-16T12:50:02Z</time>
      </trkpt>
      <trkpt lat="48.01839" lon="6.79403">
        <ele>656.192322</ele>
        <time>2019-08-16T12:50:03Z</time>
      </trkpt>
      <trkpt lat="48.01838" lon="6.79405">
        <ele>656.42804</ele>
        <time>2019-08-16T12:50:04Z</time>
      </trkpt>
      <trkpt lat="48.01838" lon="6.79407">
        <ele>656.683167</ele>
        <time>2019-08-16T12:50:05Z</time>
      </trkpt>
      <trkpt lat="48.01837" lon="6.79409">
        <ele>656.948792</ele>
        <time>2019-08-16T12:50:06Z</time>
      </trkpt>
      <trkpt lat="48.01836" lon="6.79411">
        <ele>657.215698</ele>
        <time>2019-08-16T12:50:07Z</time>
      </trkpt>
      <trkpt lat="48.01836" lon="6.79413">
        <ele>657.616516</ele>
        <time>2019-08-16T12:50:08Z</time>
      </trkpt>
      <trkpt lat="48.01836" lon="6.79415">
        <ele>657.879395</ele>
        <time>2019-08-16T12:50:09Z</time>
      </trkpt>
      <trkpt lat="48.01835" lon="6.79416">
        <ele>658.132813</ele>
        <time>2019-08-16T12:50:10Z</time>
      </trkpt>
      <trkpt lat="48.01835" lon="6.79418">
        <ele>658.370178</ele>
        <time>2019-08-16T12:50:11Z</time>
      </trkpt>
      <trkpt lat="48.01835" lon="6.7942">
        <ele>658.592285</ele>
        <time>2019-08-16T12:50:12Z</time>
      </trkpt>
      <trkpt lat="48.01835" lon="6.79421">
        <ele>658.805481</ele>
        <time>2019-08-16T12:50:13Z</time>
      </trkpt>
      <trkpt lat="48.01835" lon="6.79423">
        <ele>659.015137</ele>
        <time>2019-08-16T12:50:14Z</time>
      </trkpt>
      <trkpt lat="48.01834" lon="6.79425">
        <ele>659.220459</ele>
        <time>2019-08-16T12:50:15Z</time>
      </trkpt>
      <trkpt lat="48.01834" lon="6.79427">
        <ele>659.417908</ele>
        <time>2019-08-16T12:50:16Z</time>
      </trkpt>
      <trkpt lat="48.01834" lon="6.79429">
        <ele>659.61322</ele>
        <time>2019-08-16T12:50:17Z</time>
      </trkpt>
      <trkpt lat="48.01834" lon="6.79431">
        <ele>659.817749</ele>
        <time>2019-08-16T12:50:18Z</time>
      </trkpt>
      <trkpt lat="48.01834" lon="6.79433">
        <ele>660.035339</ele>
        <time>2019-08-16T12:50:19Z</time>
      </trkpt>
      <trkpt lat="48.01834" lon="6.79436">
        <ele>660.264771</ele>
        <time>2019-08-16T12:50:20Z</time>
      </trkpt>
      <trkpt lat="48.01834" lon="6.79437">
        <ele>660.495789</ele>
        <time>2019-08-16T12:50:21Z</time>
      </trkpt>
      <trkpt lat="48.01834" lon="6.79439">
        <ele>660.726746</ele>
        <time>2019-08-16T12:50:22Z</time>
      </trkpt>
      <trkpt lat="48.01834" lon="6.79441">
        <ele>660.952209</ele>
        <time>2019-08-16T12:50:23Z</time>
      </trkpt>
      <trkpt lat="48.01834" lon="6.79443">
        <ele>661.172119</ele>
        <time>2019-08-16T12:50:24Z</time>
      </trkpt>
      <trkpt lat="48.01834" lon="6.79445">
        <ele>661.48999</ele>
        <time>2019-08-16T12:50:25Z</time>
      </trkpt>
      <trkpt lat="48.01833" lon="6.79446">
        <ele>661.695618</ele>
        <time>2019-08-16T12:50:26Z</time>
      </trkpt>
      <trkpt lat="48.01833" lon="6.79448">
        <ele>661.895508</ele>
        <time>2019-08-16T12:50:27Z</time>
      </trkpt>
      <trkpt lat="48.01834" lon="6.7945">
        <ele>662.092834</ele>
        <time>2019-08-16T12:50:28Z</time>
      </trkpt>
      <trkpt lat="48.01834" lon="6.79452">
        <ele>662.290833</ele>
        <time>2019-08-16T12:50:29Z</time>
      </trkpt>
      <trkpt lat="48.01833" lon="6.79454">
        <ele>662.493774</ele>
        <time>2019-08-16T12:50:30Z</time>
      </trkpt>
      <trkpt lat="48.01833" lon="6.79455">
        <ele>662.70166</ele>
        <time>2019-08-16T12:50:31Z</time>
      </trkpt>
      <trkpt lat="48.01833" lon="6.79457">
        <ele>662.912048</ele>
        <time>2019-08-16T12:50:32Z</time>
      </trkpt>
      <trkpt lat="48.01832" lon="6.79459">
        <ele>663.123596</ele>
        <time>2019-08-16T12:50:33Z</time>
      </trkpt>
      <trkpt lat="48.01832" lon="6.79461">
        <ele>663.340759</ele>
        <time>2019-08-16T12:50:34Z</time>
      </trkpt>
      <trkpt lat="48.01832" lon="6.79463">
        <ele>663.55896</ele>
        <time>2019-08-16T12:50:35Z</time>
      </trkpt>
      <trkpt lat="48.01832" lon="6.79465">
        <ele>663.771057</ele>
        <time>2019-08-16T12:50:36Z</time>
      </trkpt>
      <trkpt lat="48.01832" lon="6.79467">
        <ele>663.971375</ele>
        <time>2019-08-16T12:50:37Z</time>
      </trkpt>
      <trkpt lat="48.01832" lon="6.79469">
        <ele>664.168396</ele>
        <time>2019-08-16T12:50:38Z</time>
      </trkpt>
      <trkpt lat="48.01832" lon="6.79471">
        <ele>664.366638</ele>
        <time>2019-08-16T12:50:39Z</time>
      </trkpt>
      <trkpt lat="48.01832" lon="6.79472">
        <ele>664.565613</ele>
        <time>2019-08-16T12:50:40Z</time>
      </trkpt>
      <trkpt lat="48.01832" lon="6.79474">
        <ele>664.761658</ele>
        <time>2019-08-16T12:50:41Z</time>
      </trkpt>
      <trkpt lat="48.01832" lon="6.79476">
        <ele>665.044739</ele>
        <time>2019-08-16T12:50:42Z</time>
      </trkpt>
      <trkpt lat="48.01831" lon="6.79479">
        <ele>665.134521</ele>
        <time>2019-08-16T12:50:44Z</time>
      </trkpt>
      <trkpt lat="48.0183" lon="6.79481">
        <ele>665.304626</ele>
        <time>2019-08-16T12:50:45Z</time>
      </trkpt>
      <trkpt lat="48.0183" lon="6.79483">
        <ele>665.468201</ele>
        <time>2019-08-16T12:50:46Z</time>
      </trkpt>
      <trkpt lat="48.0183" lon="6.79485">
        <ele>665.634094</ele>
        <time>2019-08-16T12:50:47Z</time>
      </trkpt>
      <trkpt lat="48.0183" lon="6.79486">
        <ele>665.813538</ele>
        <time>2019-08-16T12:50:48Z</time>
      </trkpt>
      <trkpt lat="48.0183" lon="6.79489">
        <ele>666.012268</ele>
        <time>2019-08-16T12:50:49Z</time>
      </trkpt>
      <trkpt lat="48.0183" lon="6.79491">
        <ele>666.341492</ele>
        <time>2019-08-16T12:50:50Z</time>
      </trkpt>
      <trkpt lat="48.01829" lon="6.79493">
        <ele>666.579285</ele>
        <time>2019-08-16T12:50:51Z</time>
      </trkpt>
      <trkpt lat="48.01828" lon="6.79495">
        <ele>666.827087</ele>
        <time>2019-08-16T12:50:52Z</time>
      </trkpt>
      <trkpt lat="48.01828" lon="6.79497">
        <ele>667.078308</ele>
        <time>2019-08-16T12:50:53Z</time>
      </trkpt>
      <trkpt lat="48.01827" lon="6.79499">
        <ele>667.322998</ele>
        <time>2019-08-16T12:50:54Z</time>
      </trkpt>
      <trkpt lat="48.01827" lon="6.79501">
        <ele>667.559021</ele>
        <time>2019-08-16T12:50:55Z</time>
      </trkpt>
      <trkpt lat="48.01826" lon="6.79502">
        <ele>667.792175</ele>
        <time>2019-08-16T12:50:56Z</time>
      </trkpt>
      <trkpt lat="48.01825" lon="6.79504">
        <ele>668.137695</ele>
        <time>2019-08-16T12:50:57Z</time>
      </trkpt>
      <trkpt lat="48.01825" lon="6.79506">
        <ele>668.365906</ele>
        <time>2019-08-16T12:50:58Z</time>
      </trkpt>
      <trkpt lat="48.01824" lon="6.79508">
        <ele>668.590515</ele>
        <time>2019-08-16T12:50:59Z</time>
      </trkpt>
      <trkpt lat="48.01824" lon="6.79509">
        <ele>668.810913</ele>
        <time>2019-08-16T12:51:00Z</time>
      </trkpt>
      <trkpt lat="48.01823" lon="6.79512">
        <ele>669.123779</ele>
        <time>2019-08-16T12:51:01Z</time>
      </trkpt>
      <trkpt lat="48.01823" lon="6.79514">
        <ele>669.321167</ele>
        <time>2019-08-16T12:51:02Z</time>
      </trkpt>
      <trkpt lat="48.01822" lon="6.79516">
        <ele>669.514221</ele>
        <time>2019-08-16T12:51:03Z</time>
      </trkpt>
      <trkpt lat="48.01822" lon="6.79517">
        <ele>669.706116</ele>
        <time>2019-08-16T12:51:04Z</time>
      </trkpt>
      <trkpt lat="48.01821" lon="6.79519">
        <ele>669.89325</ele>
        <time>2019-08-16T12:51:05Z</time>
      </trkpt>
      <trkpt lat="48.01821" lon="6.79521">
        <ele>670.081848</ele>
        <time>2019-08-16T12:51:06Z</time>
      </trkpt>
      <trkpt lat="48.0182" lon="6.79523">
        <ele>670.375183</ele>
        <time>2019-08-16T12:51:07Z</time>
      </trkpt>
      <trkpt lat="48.0182" lon="6.79525">
        <ele>670.572693</ele>
        <time>2019-08-16T12:51:08Z</time>
      </trkpt>
      <trkpt lat="48.0182" lon="6.79526">
        <ele>670.761414</ele>
        <time>2019-08-16T12:51:09Z</time>
      </trkpt>
      <trkpt lat="48.01819" lon="6.79528">
        <ele>670.938843</ele>
        <time>2019-08-16T12:51:10Z</time>
      </trkpt>
      <trkpt lat="48.01819" lon="6.7953">
        <ele>671.110535</ele>
        <time>2019-08-16T12:51:11Z</time>
      </trkpt>
      <trkpt lat="48.01819" lon="6.79532">
        <ele>671.285522</ele>
        <time>2019-08-16T12:51:12Z</time>
      </trkpt>
      <trkpt lat="48.01819" lon="6.79534">
        <ele>671.468506</ele>
        <time>2019-08-16T12:51:13Z</time>
      </trkpt>
      <trkpt lat="48.01818" lon="6.79536">
        <ele>671.661072</ele>
        <time>2019-08-16T12:51:14Z</time>
      </trkpt>
      <trkpt lat="48.01818" lon="6.79538">
        <ele>671.864441</ele>
        <time>2019-08-16T12:51:15Z</time>
      </trkpt>
      <trkpt lat="48.01818" lon="6.7954">
        <ele>672.078674</ele>
        <time>2019-08-16T12:51:16Z</time>
      </trkpt>
      <trkpt lat="48.01817" lon="6.79541">
        <ele>672.301514</ele>
        <time>2019-08-16T12:51:17Z</time>
      </trkpt>
      <trkpt lat="48.01816" lon="6.79543">
        <ele>672.523865</ele>
        <time>2019-08-16T12:51:18Z</time>
      </trkpt>
      <trkpt lat="48.01815" lon="6.79545">
        <ele>672.742432</ele>
        <time>2019-08-16T12:51:19Z</time>
      </trkpt>
      <trkpt lat="48.01815" lon="6.79547">
        <ele>673.059143</ele>
        <time>2019-08-16T12:51:20Z</time>
      </trkpt>
      <trkpt lat="48.01815" lon="6.79548">
        <ele>673.263611</ele>
        <time>2019-08-16T12:51:21Z</time>
      </trkpt>
      <trkpt lat="48.01814" lon="6.7955">
        <ele>673.463135</ele>
        <time>2019-08-16T12:51:22Z</time>
      </trkpt>
      <trkpt lat="48.01814" lon="6.79552">
        <ele>673.658569</ele>
        <time>2019-08-16T12:51:23Z</time>
      </trkpt>
      <trkpt lat="48.01813" lon="6.79554">
        <ele>673.850525</ele>
        <time>2019-08-16T12:51:24Z</time>
      </trkpt>
      <trkpt lat="48.01813" lon="6.79556">
        <ele>674.041077</ele>
        <time>2019-08-16T12:51:25Z</time>
      </trkpt>
      <trkpt lat="48.01812" lon="6.79557">
        <ele>674.233582</ele>
        <time>2019-08-16T12:51:26Z</time>
      </trkpt>
      <trkpt lat="48.01812" lon="6.79559">
        <ele>674.433044</ele>
        <time>2019-08-16T12:51:27Z</time>
      </trkpt>
      <trkpt lat="48.01811" lon="6.79561">
        <ele>674.745605</ele>
        <time>2019-08-16T12:51:28Z</time>
      </trkpt>
      <trkpt lat="48.01811" lon="6.79563">
        <ele>674.961121</ele>
        <time>2019-08-16T12:51:29Z</time>
      </trkpt>
      <trkpt lat="48.01811" lon="6.79564">
        <ele>675.177063</ele>
        <time>2019-08-16T12:51:30Z</time>
      </trkpt>
      <trkpt lat="48.0181" lon="6.79566">
        <ele>675.39209</ele>
        <time>2019-08-16T12:51:31Z</time>
      </trkpt>
      <trkpt lat="48.0181" lon="6.79568">
        <ele>675.599976</ele>
        <time>2019-08-16T12:51:32Z</time>
      </trkpt>
      <trkpt lat="48.01809" lon="6.7957">
        <ele>675.799744</ele>
        <time>2019-08-16T12:51:33Z</time>
      </trkpt>
      <trkpt lat="48.01809" lon="6.79571">
        <ele>675.98938</ele>
        <time>2019-08-16T12:51:34Z</time>
      </trkpt>
      <trkpt lat="48.01808" lon="6.79573">
        <ele>676.173523</ele>
        <time>2019-08-16T12:51:35Z</time>
      </trkpt>
      <trkpt lat="48.01807" lon="6.79575">
        <ele>676.356506</ele>
        <time>2019-08-16T12:51:36Z</time>
      </trkpt>
      <trkpt lat="48.01807" lon="6.79576">
        <ele>676.54425</ele>
        <time>2019-08-16T12:51:37Z</time>
      </trkpt>
      <trkpt lat="48.01806" lon="6.79578">
        <ele>676.736145</ele>
        <time>2019-08-16T12:51:38Z</time>
      </trkpt>
      <trkpt lat="48.01806" lon="6.79579">
        <ele>676.933655</ele>
        <time>2019-08-16T12:51:39Z</time>
      </trkpt>
      <trkpt lat="48.01805" lon="6.79581">
        <ele>677.136414</ele>
        <time>2019-08-16T12:51:40Z</time>
      </trkpt>
      <trkpt lat="48.01804" lon="6.79582">
        <ele>677.343506</ele>
        <time>2019-08-16T12:51:41Z</time>
      </trkpt>
      <trkpt lat="48.01803" lon="6.79583">
        <ele>677.550903</ele>
        <time>2019-08-16T12:51:42Z</time>
      </trkpt>
      <trkpt lat="48.01802" lon="6.79585">
        <ele>677.849182</ele>
        <time>2019-08-16T12:51:43Z</time>
      </trkpt>
      <trkpt lat="48.01802" lon="6.79587">
        <ele>677.94397</ele>
        <time>2019-08-16T12:51:44Z</time>
      </trkpt>
      <trkpt lat="48.01801" lon="6.79588">
        <ele>678.130798</ele>
        <time>2019-08-16T12:51:45Z</time>
      </trkpt>
      <trkpt lat="48.018" lon="6.79589">
        <ele>678.316467</ele>
        <time>2019-08-16T12:51:46Z</time>
      </trkpt>
      <trkpt lat="48.01799" lon="6.79591">
        <ele>678.594055</ele>
        <time>2019-08-16T12:51:47Z</time>
      </trkpt>
      <trkpt lat="48.01799" lon="6.79592">
        <ele>678.773193</ele>
        <time>2019-08-16T12:51:48Z</time>
      </trkpt>
      <trkpt lat="48.01798" lon="6.79594">
        <ele>678.948486</ele>
        <time>2019-08-16T12:51:49Z</time>
      </trkpt>
      <trkpt lat="48.01796" lon="6.79595">
        <ele>679.124207</ele>
        <time>2019-08-16T12:51:50Z</time>
      </trkpt>
      <trkpt lat="48.01796" lon="6.79596">
        <ele>679.31311</ele>
        <time>2019-08-16T12:51:51Z</time>
      </trkpt>
      <trkpt lat="48.01794" lon="6.79597">
        <ele>679.518005</ele>
        <time>2019-08-16T12:51:52Z</time>
      </trkpt>
      <trkpt lat="48.01794" lon="6.79598">
        <ele>679.730225</ele>
        <time>2019-08-16T12:51:53Z</time>
      </trkpt>
      <trkpt lat="48.01793" lon="6.796">
        <ele>679.939941</ele>
        <time>2019-08-16T12:51:54Z</time>
      </trkpt>
      <trkpt lat="48.01792" lon="6.79601">
        <ele>680.151184</ele>
        <time>2019-08-16T12:51:55Z</time>
      </trkpt>
      <trkpt lat="48.01791" lon="6.79602">
        <ele>680.370422</ele>
        <time>2019-08-16T12:51:56Z</time>
      </trkpt>
      <trkpt lat="48.0179" lon="6.79603">
        <ele>680.594727</ele>
        <time>2019-08-16T12:51:57Z</time>
      </trkpt>
      <trkpt lat="48.0179" lon="6.79605">
        <ele>680.816162</ele>
        <time>2019-08-16T12:51:58Z</time>
      </trkpt>
      <trkpt lat="48.01789" lon="6.79606">
        <ele>681.029968</ele>
        <time>2019-08-16T12:51:59Z</time>
      </trkpt>
      <trkpt lat="48.01788" lon="6.79608">
        <ele>681.33783</ele>
        <time>2019-08-16T12:52:00Z</time>
      </trkpt>
      <trkpt lat="48.01787" lon="6.79609">
        <ele>681.542236</ele>
        <time>2019-08-16T12:52:01Z</time>
      </trkpt>
      <trkpt lat="48.01786" lon="6.79611">
        <ele>681.751892</ele>
        <time>2019-08-16T12:52:02Z</time>
      </trkpt>
      <trkpt lat="48.01785" lon="6.79612">
        <ele>682.07135</ele>
        <time>2019-08-16T12:52:03Z</time>
      </trkpt>
      <trkpt lat="48.01784" lon="6.79613">
        <ele>682.282532</ele>
        <time>2019-08-16T12:52:04Z</time>
      </trkpt>
      <trkpt lat="48.01783" lon="6.79614">
        <ele>682.495667</ele>
        <time>2019-08-16T12:52:05Z</time>
      </trkpt>
      <trkpt lat="48.01783" lon="6.79616">
        <ele>682.709412</ele>
        <time>2019-08-16T12:52:06Z</time>
      </trkpt>
      <trkpt lat="48.01782" lon="6.79617">
        <ele>682.918884</ele>
        <time>2019-08-16T12:52:07Z</time>
      </trkpt>
      <trkpt lat="48.0178" lon="6.79619">
        <ele>683.119873</ele>
        <time>2019-08-16T12:52:08Z</time>
      </trkpt>
      <trkpt lat="48.01779" lon="6.7962">
        <ele>683.30719</ele>
        <time>2019-08-16T12:52:09Z</time>
      </trkpt>
      <trkpt lat="48.01778" lon="6.79621">
        <ele>683.567383</ele>
        <time>2019-08-16T12:52:10Z</time>
      </trkpt>
      <trkpt lat="48.01777" lon="6.79623">
        <ele>683.732239</ele>
        <time>2019-08-16T12:52:11Z</time>
      </trkpt>
      <trkpt lat="48.01776" lon="6.79624">
        <ele>683.898132</ele>
        <time>2019-08-16T12:52:12Z</time>
      </trkpt>
      <trkpt lat="48.01775" lon="6.79625">
        <ele>684.154541</ele>
        <time>2019-08-16T12:52:13Z</time>
      </trkpt>
      <trkpt lat="48.01774" lon="6.79627">
        <ele>684.327698</ele>
        <time>2019-08-16T12:52:14Z</time>
      </trkpt>
      <trkpt lat="48.01773" lon="6.79628">
        <ele>684.500671</ele>
        <time>2019-08-16T12:52:15Z</time>
      </trkpt>
      <trkpt lat="48.01772" lon="6.7963">
        <ele>684.763611</ele>
        <time>2019-08-16T12:52:16Z</time>
      </trkpt>
      <trkpt lat="48.01772" lon="6.79631">
        <ele>684.940918</ele>
        <time>2019-08-16T12:52:17Z</time>
      </trkpt>
      <trkpt lat="48.0177" lon="6.79632">
        <ele>685.11261</ele>
        <time>2019-08-16T12:52:18Z</time>
      </trkpt>
      <trkpt lat="48.0177" lon="6.79634">
        <ele>685.276855</ele>
        <time>2019-08-16T12:52:19Z</time>
      </trkpt>
      <trkpt lat="48.01769" lon="6.79635">
        <ele>685.519836</ele>
        <time>2019-08-16T12:52:20Z</time>
      </trkpt>
      <trkpt lat="48.01768" lon="6.79637">
        <ele>685.684326</ele>
        <time>2019-08-16T12:52:21Z</time>
      </trkpt>
      <trkpt lat="48.01767" lon="6.79638">
        <ele>685.852112</ele>
        <time>2019-08-16T12:52:22Z</time>
      </trkpt>
      <trkpt lat="48.01765" lon="6.7964">
        <ele>686.022278</ele>
        <time>2019-08-16T12:52:23Z</time>
      </trkpt>
      <trkpt lat="48.01764" lon="6.79642">
        <ele>686.287109</ele>
        <time>2019-08-16T12:52:24Z</time>
      </trkpt>
      <trkpt lat="48.01764" lon="6.79643">
        <ele>686.463562</ele>
        <time>2019-08-16T12:52:25Z</time>
      </trkpt>
      <trkpt lat="48.01763" lon="6.79645">
        <ele>686.634766</ele>
        <time>2019-08-16T12:52:26Z</time>
      </trkpt>
      <trkpt lat="48.01762" lon="6.79647">
        <ele>686.801575</ele>
        <time>2019-08-16T12:52:27Z</time>
      </trkpt>
      <trkpt lat="48.01761" lon="6.79648">
        <ele>687.0495</ele>
        <time>2019-08-16T12:52:28Z</time>
      </trkpt>
      <trkpt lat="48.0176" lon="6.7965">
        <ele>687.216125</ele>
        <time>2019-08-16T12:52:29Z</time>
      </trkpt>
      <trkpt lat="48.01758" lon="6.79652">
        <ele>687.382385</ele>
        <time>2019-08-16T12:52:30Z</time>
      </trkpt>
      <trkpt lat="48.01757" lon="6.79654">
        <ele>687.551819</ele>
        <time>2019-08-16T12:52:31Z</time>
      </trkpt>
      <trkpt lat="48.01756" lon="6.79655">
        <ele>687.820313</ele>
        <time>2019-08-16T12:52:32Z</time>
      </trkpt>
      <trkpt lat="48.01756" lon="6.79656">
        <ele>688.006836</ele>
        <time>2019-08-16T12:52:33Z</time>
      </trkpt>
      <trkpt lat="48.01754" lon="6.79658">
        <ele>688.192871</ele>
        <time>2019-08-16T12:52:34Z</time>
      </trkpt>
      <trkpt lat="48.01754" lon="6.79659">
        <ele>688.466125</ele>
        <time>2019-08-16T12:52:35Z</time>
      </trkpt>
      <trkpt lat="48.01753" lon="6.7966">
        <ele>688.641296</ele>
        <time>2019-08-16T12:52:36Z</time>
      </trkpt>
      <trkpt lat="48.01751" lon="6.79662">
        <ele>688.805908</ele>
        <time>2019-08-16T12:52:37Z</time>
      </trkpt>
      <trkpt lat="48.0175" lon="6.79663">
        <ele>689.039978</ele>
        <time>2019-08-16T12:52:38Z</time>
      </trkpt>
      <trkpt lat="48.01749" lon="6.79665">
        <ele>689.190735</ele>
        <time>2019-08-16T12:52:39Z</time>
      </trkpt>
      <trkpt lat="48.01748" lon="6.79666">
        <ele>689.342102</ele>
        <time>2019-08-16T12:52:40Z</time>
      </trkpt>
      <trkpt lat="48.01747" lon="6.79668">
        <ele>689.495361</ele>
        <time>2019-08-16T12:52:41Z</time>
      </trkpt>
      <trkpt lat="48.01746" lon="6.7967">
        <ele>689.723694</ele>
        <time>2019-08-16T12:52:42Z</time>
      </trkpt>
      <trkpt lat="48.01745" lon="6.79672">
        <ele>689.877502</ele>
        <time>2019-08-16T12:52:43Z</time>
      </trkpt>
      <trkpt lat="48.01744" lon="6.79674">
        <ele>690.036316</ele>
        <time>2019-08-16T12:52:44Z</time>
      </trkpt>
      <trkpt lat="48.01743" lon="6.79676">
        <ele>690.116516</ele>
        <time>2019-08-16T12:52:45Z</time>
      </trkpt>
      <trkpt lat="48.01742" lon="6.79678">
        <ele>690.196838</ele>
        <time>2019-08-16T12:52:46Z</time>
      </trkpt>
      <trkpt lat="48.01741" lon="6.7968">
        <ele>690.277832</ele>
        <time>2019-08-16T12:52:47Z</time>
      </trkpt>
      <trkpt lat="48.0174" lon="6.79681">
        <ele>690.441162</ele>
        <time>2019-08-16T12:52:48Z</time>
      </trkpt>
      <trkpt lat="48.01739" lon="6.79683">
        <ele>690.705322</ele>
        <time>2019-08-16T12:52:49Z</time>
      </trkpt>
      <trkpt lat="48.01738" lon="6.79685">
        <ele>690.896423</ele>
        <time>2019-08-16T12:52:50Z</time>
      </trkpt>
      <trkpt lat="48.01737" lon="6.79687">
        <ele>691.093811</ele>
        <time>2019-08-16T12:52:51Z</time>
      </trkpt>
      <trkpt lat="48.01736" lon="6.79689">
        <ele>691.293701</ele>
        <time>2019-08-16T12:52:52Z</time>
      </trkpt>
      <trkpt lat="48.01735" lon="6.79691">
        <ele>691.491455</ele>
        <time>2019-08-16T12:52:53Z</time>
      </trkpt>
      <trkpt lat="48.01734" lon="6.79693">
        <ele>691.783447</ele>
        <time>2019-08-16T12:52:54Z</time>
      </trkpt>
      <trkpt lat="48.01733" lon="6.79695">
        <ele>691.966492</ele>
        <time>2019-08-16T12:52:55Z</time>
      </trkpt>
      <trkpt lat="48.01732" lon="6.79696">
        <ele>692.135315</ele>
        <time>2019-08-16T12:52:56Z</time>
      </trkpt>
      <trkpt lat="48.0173" lon="6.79698">
        <ele>692.363037</ele>
        <time>2019-08-16T12:52:57Z</time>
      </trkpt>
      <trkpt lat="48.01729" lon="6.797">
        <ele>692.50531</ele>
        <time>2019-08-16T12:52:58Z</time>
      </trkpt>
      <trkpt lat="48.01728" lon="6.79702">
        <ele>692.645508</ele>
        <time>2019-08-16T12:52:59Z</time>
      </trkpt>
      <trkpt lat="48.01727" lon="6.79704">
        <ele>692.790833</ele>
        <time>2019-08-16T12:53:00Z</time>
      </trkpt>
      <trkpt lat="48.01726" lon="6.79706">
        <ele>692.948425</ele>
        <time>2019-08-16T12:53:01Z</time>
      </trkpt>
      <trkpt lat="48.01725" lon="6.79708">
        <ele>693.119446</ele>
        <time>2019-08-16T12:53:02Z</time>
      </trkpt>
      <trkpt lat="48.01724" lon="6.7971">
        <ele>693.390564</ele>
        <time>2019-08-16T12:53:03Z</time>
      </trkpt>
      <trkpt lat="48.01724" lon="6.79711">
        <ele>693.568542</ele>
        <time>2019-08-16T12:53:04Z</time>
      </trkpt>
      <trkpt lat="48.01722" lon="6.79713">
        <ele>693.742126</ele>
        <time>2019-08-16T12:53:05Z</time>
      </trkpt>
      <trkpt lat="48.01721" lon="6.79715">
        <ele>693.912903</ele>
        <time>2019-08-16T12:53:06Z</time>
      </trkpt>
      <trkpt lat="48.0172" lon="6.79716">
        <ele>694.173157</ele>
        <time>2019-08-16T12:53:07Z</time>
      </trkpt>
      <trkpt lat="48.01719" lon="6.79718">
        <ele>694.348694</ele>
        <time>2019-08-16T12:53:08Z</time>
      </trkpt>
      <trkpt lat="48.01718" lon="6.79719">
        <ele>694.527405</ele>
        <time>2019-08-16T12:53:09Z</time>
      </trkpt>
      <trkpt lat="48.01717" lon="6.7972">
        <ele>694.710754</ele>
        <time>2019-08-16T12:53:10Z</time>
      </trkpt>
      <trkpt lat="48.01715" lon="6.79721">
        <ele>694.893982</ele>
        <time>2019-08-16T12:53:11Z</time>
      </trkpt>
      <trkpt lat="48.01714" lon="6.79723">
        <ele>695.167175</ele>
        <time>2019-08-16T12:53:12Z</time>
      </trkpt>
      <trkpt lat="48.01713" lon="6.79724">
        <ele>695.352722</ele>
        <time>2019-08-16T12:53:13Z</time>
      </trkpt>
      <trkpt lat="48.01712" lon="6.79726">
        <ele>695.545349</ele>
        <time>2019-08-16T12:53:14Z</time>
      </trkpt>
      <trkpt lat="48.01711" lon="6.79727">
        <ele>695.842224</ele>
        <time>2019-08-16T12:53:15Z</time>
      </trkpt>
      <trkpt lat="48.01709" lon="6.79729">
        <ele>696.042419</ele>
        <time>2019-08-16T12:53:16Z</time>
      </trkpt>
      <trkpt lat="48.01708" lon="6.7973">
        <ele>696.241211</ele>
        <time>2019-08-16T12:53:17Z</time>
      </trkpt>
      <trkpt lat="48.01707" lon="6.79731">
        <ele>696.434082</ele>
        <time>2019-08-16T12:53:18Z</time>
      </trkpt>
      <trkpt lat="48.01706" lon="6.79732">
        <ele>696.705261</ele>
        <time>2019-08-16T12:53:19Z</time>
      </trkpt>
      <trkpt lat="48.01704" lon="6.79733">
        <ele>696.87262</ele>
        <time>2019-08-16T12:53:20Z</time>
      </trkpt>
      <trkpt lat="48.01703" lon="6.79733">
        <ele>697.033752</ele>
        <time>2019-08-16T12:53:21Z</time>
      </trkpt>
      <trkpt lat="48.01701" lon="6.79734">
        <ele>697.273682</ele>
        <time>2019-08-16T12:53:22Z</time>
      </trkpt>
      <trkpt lat="48.01699" lon="6.79735">
        <ele>697.434021</ele>
        <time>2019-08-16T12:53:23Z</time>
      </trkpt>
      <trkpt lat="48.01698" lon="6.79736">
        <ele>697.589539</ele>
        <time>2019-08-16T12:53:24Z</time>
      </trkpt>
      <trkpt lat="48.01696" lon="6.79737">
        <ele>697.816406</ele>
        <time>2019-08-16T12:53:25Z</time>
      </trkpt>
      <trkpt lat="48.01695" lon="6.79738">
        <ele>697.968933</ele>
        <time>2019-08-16T12:53:26Z</time>
      </trkpt>
      <trkpt lat="48.01694" lon="6.7974">
        <ele>698.124695</ele>
        <time>2019-08-16T12:53:27Z</time>
      </trkpt>
      <trkpt lat="48.01693" lon="6.79741">
        <ele>698.354675</ele>
        <time>2019-08-16T12:53:28Z</time>
      </trkpt>
      <trkpt lat="48.01692" lon="6.79742">
        <ele>698.500488</ele>
        <time>2019-08-16T12:53:29Z</time>
      </trkpt>
      <trkpt lat="48.01691" lon="6.79744">
        <ele>698.641907</ele>
        <time>2019-08-16T12:53:30Z</time>
      </trkpt>
      <trkpt lat="48.01689" lon="6.79744">
        <ele>698.85498</ele>
        <time>2019-08-16T12:53:31Z</time>
      </trkpt>
      <trkpt lat="48.01688" lon="6.79745">
        <ele>698.998718</ele>
        <time>2019-08-16T12:53:32Z</time>
      </trkpt>
      <trkpt lat="48.01687" lon="6.79746">
        <ele>699.141052</ele>
        <time>2019-08-16T12:53:33Z</time>
      </trkpt>
      <trkpt lat="48.01685" lon="6.79747">
        <ele>699.353027</ele>
        <time>2019-08-16T12:53:34Z</time>
      </trkpt>
      <trkpt lat="48.01684" lon="6.79749">
        <ele>699.496826</ele>
        <time>2019-08-16T12:53:35Z</time>
      </trkpt>
      <trkpt lat="48.01683" lon="6.7975">
        <ele>699.71283</ele>
        <time>2019-08-16T12:53:36Z</time>
      </trkpt>
      <trkpt lat="48.01681" lon="6.79751">
        <ele>699.850281</ele>
        <time>2019-08-16T12:53:37Z</time>
      </trkpt>
      <trkpt lat="48.0168" lon="6.79752">
        <ele>699.984619</ele>
        <time>2019-08-16T12:53:38Z</time>
      </trkpt>
      <trkpt lat="48.01679" lon="6.79754">
        <ele>700.191711</ele>
        <time>2019-08-16T12:53:39Z</time>
      </trkpt>
      <trkpt lat="48.01677" lon="6.79755">
        <ele>700.335999</ele>
        <time>2019-08-16T12:53:40Z</time>
      </trkpt>
      <trkpt lat="48.01676" lon="6.79757">
        <ele>700.485046</ele>
        <time>2019-08-16T12:53:41Z</time>
      </trkpt>
      <trkpt lat="48.01674" lon="6.79758">
        <ele>700.716553</ele>
        <time>2019-08-16T12:53:42Z</time>
      </trkpt>
      <trkpt lat="48.01673" lon="6.7976">
        <ele>700.878418</ele>
        <time>2019-08-16T12:53:43Z</time>
      </trkpt>
      <trkpt lat="48.01672" lon="6.79761">
        <ele>701.03949</ele>
        <time>2019-08-16T12:53:44Z</time>
      </trkpt>
      <trkpt lat="48.0167" lon="6.79762">
        <ele>701.117432</ele>
        <time>2019-08-16T12:53:45Z</time>
      </trkpt>
      <trkpt lat="48.01669" lon="6.79763">
        <ele>701.263977</ele>
        <time>2019-08-16T12:53:46Z</time>
      </trkpt>
      <trkpt lat="48.01667" lon="6.79765">
        <ele>701.473206</ele>
        <time>2019-08-16T12:53:47Z</time>
      </trkpt>
      <trkpt lat="48.01666" lon="6.79766">
        <ele>701.6203</ele>
        <time>2019-08-16T12:53:48Z</time>
      </trkpt>
      <trkpt lat="48.01665" lon="6.79767">
        <ele>701.778748</ele>
        <time>2019-08-16T12:53:49Z</time>
      </trkpt>
      <trkpt lat="48.01663" lon="6.79769">
        <ele>702.03833</ele>
        <time>2019-08-16T12:53:50Z</time>
      </trkpt>
      <trkpt lat="48.01662" lon="6.7977">
        <ele>702.223328</ele>
        <time>2019-08-16T12:53:51Z</time>
      </trkpt>
      <trkpt lat="48.01661" lon="6.79772">
        <ele>702.421936</ele>
        <time>2019-08-16T12:53:52Z</time>
      </trkpt>
      <trkpt lat="48.01659" lon="6.79773">
        <ele>702.739929</ele>
        <time>2019-08-16T12:53:53Z</time>
      </trkpt>
      <trkpt lat="48.01658" lon="6.79774">
        <ele>702.954407</ele>
        <time>2019-08-16T12:53:54Z</time>
      </trkpt>
      <trkpt lat="48.01657" lon="6.79776">
        <ele>703.159668</ele>
        <time>2019-08-16T12:53:55Z</time>
      </trkpt>
      <trkpt lat="48.01656" lon="6.79777">
        <ele>703.446716</ele>
        <time>2019-08-16T12:53:56Z</time>
      </trkpt>
      <trkpt lat="48.01654" lon="6.79779">
        <ele>703.623596</ele>
        <time>2019-08-16T12:53:57Z</time>
      </trkpt>
      <trkpt lat="48.01653" lon="6.7978">
        <ele>703.791687</ele>
        <time>2019-08-16T12:53:58Z</time>
      </trkpt>
      <trkpt lat="48.01651" lon="6.79782">
        <ele>704.028503</ele>
        <time>2019-08-16T12:53:59Z</time>
      </trkpt>
      <trkpt lat="48.0165" lon="6.79783">
        <ele>704.184143</ele>
        <time>2019-08-16T12:54:00Z</time>
      </trkpt>
      <trkpt lat="48.01649" lon="6.79785">
        <ele>704.346252</ele>
        <time>2019-08-16T12:54:01Z</time>
      </trkpt>
      <trkpt lat="48.01648" lon="6.79787">
        <ele>704.601868</ele>
        <time>2019-08-16T12:54:02Z</time>
      </trkpt>
      <trkpt lat="48.01646" lon="6.79788">
        <ele>704.775879</ele>
        <time>2019-08-16T12:54:03Z</time>
      </trkpt>
      <trkpt lat="48.01645" lon="6.7979">
        <ele>704.955811</ele>
        <time>2019-08-16T12:54:04Z</time>
      </trkpt>
      <trkpt lat="48.01644" lon="6.79792">
        <ele>705.140869</ele>
        <time>2019-08-16T12:54:05Z</time>
      </trkpt>
      <trkpt lat="48.01642" lon="6.79793">
        <ele>705.328613</ele>
        <time>2019-08-16T12:54:06Z</time>
      </trkpt>
      <trkpt lat="48.01641" lon="6.79794">
        <ele>705.610413</ele>
        <time>2019-08-16T12:54:07Z</time>
      </trkpt>
      <trkpt lat="48.0164" lon="6.79796">
        <ele>705.801086</ele>
        <time>2019-08-16T12:54:08Z</time>
      </trkpt>
      <trkpt lat="48.01638" lon="6.79797">
        <ele>705.993103</ele>
        <time>2019-08-16T12:54:09Z</time>
      </trkpt>
      <trkpt lat="48.01637" lon="6.79798">
        <ele>706.184753</ele>
        <time>2019-08-16T12:54:10Z</time>
      </trkpt>
      <trkpt lat="48.01635" lon="6.79799">
        <ele>706.368347</ele>
        <time>2019-08-16T12:54:11Z</time>
      </trkpt>
      <trkpt lat="48.01634" lon="6.79801">
        <ele>706.619446</ele>
        <time>2019-08-16T12:54:12Z</time>
      </trkpt>
      <trkpt lat="48.01633" lon="6.79802">
        <ele>706.77179</ele>
        <time>2019-08-16T12:54:13Z</time>
      </trkpt>
      <trkpt lat="48.01631" lon="6.79804">
        <ele>706.919495</ele>
        <time>2019-08-16T12:54:14Z</time>
      </trkpt>
      <trkpt lat="48.0163" lon="6.79805">
        <ele>707.066895</ele>
        <time>2019-08-16T12:54:15Z</time>
      </trkpt>
      <trkpt lat="48.01629" lon="6.79807">
        <ele>707.219971</ele>
        <time>2019-08-16T12:54:16Z</time>
      </trkpt>
      <trkpt lat="48.01627" lon="6.79808">
        <ele>707.459961</ele>
        <time>2019-08-16T12:54:17Z</time>
      </trkpt>
      <trkpt lat="48.01626" lon="6.79809">
        <ele>707.626038</ele>
        <time>2019-08-16T12:54:18Z</time>
      </trkpt>
      <trkpt lat="48.01625" lon="6.79811">
        <ele>707.797607</ele>
        <time>2019-08-16T12:54:19Z</time>
      </trkpt>
      <trkpt lat="48.01624" lon="6.79812">
        <ele>707.974854</ele>
        <time>2019-08-16T12:54:20Z</time>
      </trkpt>
      <trkpt lat="48.01622" lon="6.79813">
        <ele>708.241394</ele>
        <time>2019-08-16T12:54:21Z</time>
      </trkpt>
      <trkpt lat="48.01621" lon="6.79814">
        <ele>708.409912</ele>
        <time>2019-08-16T12:54:22Z</time>
      </trkpt>
      <trkpt lat="48.01619" lon="6.79816">
        <ele>708.571228</ele>
        <time>2019-08-16T12:54:23Z</time>
      </trkpt>
      <trkpt lat="48.01618" lon="6.79817">
        <ele>708.806213</ele>
        <time>2019-08-16T12:54:24Z</time>
      </trkpt>
      <trkpt lat="48.01617" lon="6.79818">
        <ele>708.961914</ele>
        <time>2019-08-16T12:54:25Z</time>
      </trkpt>
      <trkpt lat="48.01615" lon="6.79819">
        <ele>709.11792</ele>
        <time>2019-08-16T12:54:26Z</time>
      </trkpt>
      <trkpt lat="48.01614" lon="6.7982">
        <ele>709.348572</ele>
        <time>2019-08-16T12:54:27Z</time>
      </trkpt>
      <trkpt lat="48.01613" lon="6.79821">
        <ele>709.502747</ele>
        <time>2019-08-16T12:54:28Z</time>
      </trkpt>
      <trkpt lat="48.01611" lon="6.79823">
        <ele>709.657715</ele>
        <time>2019-08-16T12:54:29Z</time>
      </trkpt>
      <trkpt lat="48.0161" lon="6.79824">
        <ele>709.806824</ele>
        <time>2019-08-16T12:54:30Z</time>
      </trkpt>
      <trkpt lat="48.01609" lon="6.79825">
        <ele>710.017578</ele>
        <time>2019-08-16T12:54:31Z</time>
      </trkpt>
      <trkpt lat="48.01608" lon="6.79826">
        <ele>710.148193</ele>
        <time>2019-08-16T12:54:32Z</time>
      </trkpt>
      <trkpt lat="48.01606" lon="6.79827">
        <ele>710.335449</ele>
        <time>2019-08-16T12:54:33Z</time>
      </trkpt>
      <trkpt lat="48.01604" lon="6.79828">
        <ele>710.466248</ele>
        <time>2019-08-16T12:54:34Z</time>
      </trkpt>
      <trkpt lat="48.01603" lon="6.79829">
        <ele>710.613586</ele>
        <time>2019-08-16T12:54:35Z</time>
      </trkpt>
      <trkpt lat="48.01601" lon="6.7983">
        <ele>710.862732</ele>
        <time>2019-08-16T12:54:36Z</time>
      </trkpt>
      <trkpt lat="48.016" lon="6.79831">
        <ele>711.034851</ele>
        <time>2019-08-16T12:54:37Z</time>
      </trkpt>
      <trkpt lat="48.016" lon="6.79833">
        <ele>711.201721</ele>
        <time>2019-08-16T12:54:38Z</time>
      </trkpt>
      <trkpt lat="48.01598" lon="6.79834">
        <ele>711.444397</ele>
        <time>2019-08-16T12:54:39Z</time>
      </trkpt>
      <trkpt lat="48.01597" lon="6.79835">
        <ele>711.609863</ele>
        <time>2019-08-16T12:54:40Z</time>
      </trkpt>
      <trkpt lat="48.01596" lon="6.79837">
        <ele>711.856689</ele>
        <time>2019-08-16T12:54:41Z</time>
      </trkpt>
      <trkpt lat="48.01595" lon="6.79839">
        <ele>712.009827</ele>
        <time>2019-08-16T12:54:42Z</time>
      </trkpt>
      <trkpt lat="48.01594" lon="6.79841">
        <ele>712.149475</ele>
        <time>2019-08-16T12:54:43Z</time>
      </trkpt>
      <trkpt lat="48.01592" lon="6.79842">
        <ele>712.27533</ele>
        <time>2019-08-16T12:54:44Z</time>
      </trkpt>
      <trkpt lat="48.01591" lon="6.79844">
        <ele>712.392578</ele>
        <time>2019-08-16T12:54:45Z</time>
      </trkpt>
      <trkpt lat="48.01589" lon="6.79845">
        <ele>712.448425</ele>
        <time>2019-08-16T12:54:46Z</time>
      </trkpt>
      <trkpt lat="48.01588" lon="6.79846">
        <ele>712.556885</ele>
        <time>2019-08-16T12:54:47Z</time>
      </trkpt>
      <trkpt lat="48.01587" lon="6.79847">
        <ele>712.716248</ele>
        <time>2019-08-16T12:54:48Z</time>
      </trkpt>
      <trkpt lat="48.01585" lon="6.79848">
        <ele>712.822693</ele>
        <time>2019-08-16T12:54:49Z</time>
      </trkpt>
      <trkpt lat="48.01584" lon="6.79849">
        <ele>712.928955</ele>
        <time>2019-08-16T12:54:50Z</time>
      </trkpt>
      <trkpt lat="48.01583" lon="6.7985">
        <ele>713.072998</ele>
        <time>2019-08-16T12:54:51Z</time>
      </trkpt>
      <trkpt lat="48.01582" lon="6.79851">
        <ele>713.151306</ele>
        <time>2019-08-16T12:54:52Z</time>
      </trkpt>
      <trkpt lat="48.01581" lon="6.79852">
        <ele>713.216003</ele>
        <time>2019-08-16T12:54:53Z</time>
      </trkpt>
      <trkpt lat="48.01571" lon="6.79857">
        <ele>713.342712</ele>
        <time>2019-08-16T12:56:12Z</time>
      </trkpt>
      <trkpt lat="48.01569" lon="6.79858">
        <ele>713.337402</ele>
        <time>2019-08-16T12:56:14Z</time>
      </trkpt>
      <trkpt lat="48.01567" lon="6.79859">
        <ele>713.337402</ele>
        <time>2019-08-16T12:56:15Z</time>
      </trkpt>
      <trkpt lat="48.01565" lon="6.79861">
        <ele>713.345886</ele>
        <time>2019-08-16T12:56:16Z</time>
      </trkpt>
      <trkpt lat="48.01562" lon="6.79862">
        <ele>713.349365</ele>
        <time>2019-08-16T12:56:17Z</time>
      </trkpt>
      <trkpt lat="48.01559" lon="6.79864">
        <ele>713.353516</ele>
        <time>2019-08-16T12:56:18Z</time>
      </trkpt>
      <trkpt lat="48.01557" lon="6.79865">
        <ele>713.355225</ele>
        <time>2019-08-16T12:56:19Z</time>
      </trkpt>
      <trkpt lat="48.01555" lon="6.79867">
        <ele>713.350403</ele>
        <time>2019-08-16T12:56:20Z</time>
      </trkpt>
      <trkpt lat="48.01553" lon="6.79869">
        <ele>713.341553</ele>
        <time>2019-08-16T12:56:21Z</time>
      </trkpt>
      <trkpt lat="48.01551" lon="6.79872">
        <ele>713.306885</ele>
        <time>2019-08-16T12:56:22Z</time>
      </trkpt>
      <trkpt lat="48.01548" lon="6.79875">
        <ele>713.216309</ele>
        <time>2019-08-16T12:56:23Z</time>
      </trkpt>
      <trkpt lat="48.01547" lon="6.79878">
        <ele>713.154846</ele>
        <time>2019-08-16T12:56:24Z</time>
      </trkpt>
      <trkpt lat="48.01545" lon="6.79882">
        <ele>713.104492</ele>
        <time>2019-08-16T12:56:25Z</time>
      </trkpt>
      <trkpt lat="48.01545" lon="6.79886">
        <ele>713.062317</ele>
        <time>2019-08-16T12:56:26Z</time>
      </trkpt>
      <trkpt lat="48.01544" lon="6.7989">
        <ele>713.022461</ele>
        <time>2019-08-16T12:56:27Z</time>
      </trkpt>
      <trkpt lat="48.01543" lon="6.79894">
        <ele>712.987793</ele>
        <time>2019-08-16T12:56:28Z</time>
      </trkpt>
      <trkpt lat="48.01543" lon="6.79899">
        <ele>712.97168</ele>
        <time>2019-08-16T12:56:29Z</time>
      </trkpt>
      <trkpt lat="48.01543" lon="6.79903">
        <ele>712.971497</ele>
        <time>2019-08-16T12:56:30Z</time>
      </trkpt>
      <trkpt lat="48.01543" lon="6.79907">
        <ele>712.973206</ele>
        <time>2019-08-16T12:56:31Z</time>
      </trkpt>
      <trkpt lat="48.01544" lon="6.79912">
        <ele>712.98114</ele>
        <time>2019-08-16T12:56:32Z</time>
      </trkpt>
      <trkpt lat="48.01545" lon="6.79916">
        <ele>712.987122</ele>
        <time>2019-08-16T12:56:33Z</time>
      </trkpt>
      <trkpt lat="48.01545" lon="6.7992">
        <ele>712.996277</ele>
        <time>2019-08-16T12:56:34Z</time>
      </trkpt>
      <trkpt lat="48.01546" lon="6.79924">
        <ele>713.022949</ele>
        <time>2019-08-16T12:56:35Z</time>
      </trkpt>
      <trkpt lat="48.01547" lon="6.79927">
        <ele>713.075684</ele>
        <time>2019-08-16T12:56:36Z</time>
      </trkpt>
      <trkpt lat="48.01548" lon="6.79931">
        <ele>713.143799</ele>
        <time>2019-08-16T12:56:37Z</time>
      </trkpt>
      <trkpt lat="48.0155" lon="6.79934">
        <ele>713.213928</ele>
        <time>2019-08-16T12:56:38Z</time>
      </trkpt>
      <trkpt lat="48.01552" lon="6.79937">
        <ele>713.28418</ele>
        <time>2019-08-16T12:56:39Z</time>
      </trkpt>
      <trkpt lat="48.01554" lon="6.7994">
        <ele>713.358948</ele>
        <time>2019-08-16T12:56:40Z</time>
      </trkpt>
      <trkpt lat="48.01555" lon="6.79942">
        <ele>713.480774</ele>
        <time>2019-08-16T12:56:41Z</time>
      </trkpt>
      <trkpt lat="48.01557" lon="6.79945">
        <ele>713.55658</ele>
        <time>2019-08-16T12:56:42Z</time>
      </trkpt>
      <trkpt lat="48.01559" lon="6.79947">
        <ele>713.622559</ele>
        <time>2019-08-16T12:56:43Z</time>
      </trkpt>
      <trkpt lat="48.01561" lon="6.7995">
        <ele>713.71698</ele>
        <time>2019-08-16T12:56:44Z</time>
      </trkpt>
      <trkpt lat="48.01564" lon="6.79952">
        <ele>713.783752</ele>
        <time>2019-08-16T12:56:45Z</time>
      </trkpt>
      <trkpt lat="48.01566" lon="6.79953">
        <ele>713.850037</ele>
        <time>2019-08-16T12:56:46Z</time>
      </trkpt>
      <trkpt lat="48.01568" lon="6.79955">
        <ele>713.883606</ele>
        <time>2019-08-16T12:56:47Z</time>
      </trkpt>
      <trkpt lat="48.01569" lon="6.79956">
        <ele>713.979065</ele>
        <time>2019-08-16T12:56:48Z</time>
      </trkpt>
      <trkpt lat="48.01572" lon="6.79957">
        <ele>714.038086</ele>
        <time>2019-08-16T12:56:49Z</time>
      </trkpt>
      <trkpt lat="48.01574" lon="6.7996">
        <ele>714.096191</ele>
        <time>2019-08-16T12:56:50Z</time>
      </trkpt>
      <trkpt lat="48.01576" lon="6.79962">
        <ele>714.181885</ele>
        <time>2019-08-16T12:56:51Z</time>
      </trkpt>
      <trkpt lat="48.01578" lon="6.79964">
        <ele>714.235413</ele>
        <time>2019-08-16T12:56:52Z</time>
      </trkpt>
      <trkpt lat="48.01581" lon="6.79966">
        <ele>714.290222</ele>
        <time>2019-08-16T12:56:53Z</time>
      </trkpt>
      <trkpt lat="48.01584" lon="6.79967">
        <ele>714.379211</ele>
        <time>2019-08-16T12:56:54Z</time>
      </trkpt>
      <trkpt lat="48.01585" lon="6.79968">
        <ele>714.442871</ele>
        <time>2019-08-16T12:56:55Z</time>
      </trkpt>
      <trkpt lat="48.01587" lon="6.79969">
        <ele>714.506287</ele>
        <time>2019-08-16T12:56:56Z</time>
      </trkpt>
      <trkpt lat="48.01587" lon="6.79969">
        <ele>714.650818</ele>
        <time>2019-08-16T12:56:57Z</time>
      </trkpt>
      <trkpt lat="48.01588" lon="6.7997">
        <ele>714.699951</ele>
        <time>2019-08-16T12:56:59Z</time>
      </trkpt>
      <trkpt lat="48.0159" lon="6.79971">
        <ele>714.756348</ele>
        <time>2019-08-16T12:57:00Z</time>
      </trkpt>
      <trkpt lat="48.01592" lon="6.79972">
        <ele>714.789734</ele>
        <time>2019-08-16T12:57:01Z</time>
      </trkpt>
      <trkpt lat="48.01595" lon="6.79974">
        <ele>714.82666</ele>
        <time>2019-08-16T12:57:02Z</time>
      </trkpt>
      <trkpt lat="48.01597" lon="6.79975">
        <ele>714.892822</ele>
        <time>2019-08-16T12:57:03Z</time>
      </trkpt>
      <trkpt lat="48.01599" lon="6.79976">
        <ele>714.936523</ele>
        <time>2019-08-16T12:57:04Z</time>
      </trkpt>
      <trkpt lat="48.01601" lon="6.79977">
        <ele>714.980164</ele>
        <time>2019-08-16T12:57:05Z</time>
      </trkpt>
      <trkpt lat="48.01603" lon="6.79977">
        <ele>715.061035</ele>
        <time>2019-08-16T12:57:06Z</time>
      </trkpt>
      <trkpt lat="48.01604" lon="6.79978">
        <ele>715.12793</ele>
        <time>2019-08-16T12:57:07Z</time>
      </trkpt>
      <trkpt lat="48.01607" lon="6.79978">
        <ele>715.197083</ele>
        <time>2019-08-16T12:57:08Z</time>
      </trkpt>
      <trkpt lat="48.01609" lon="6.79978">
        <ele>715.29718</ele>
        <time>2019-08-16T12:57:09Z</time>
      </trkpt>
      <trkpt lat="48.0161" lon="6.79979">
        <ele>715.366455</ele>
        <time>2019-08-16T12:57:10Z</time>
      </trkpt>
      <trkpt lat="48.01612" lon="6.7998">
        <ele>715.444031</ele>
        <time>2019-08-16T12:57:11Z</time>
      </trkpt>
      <trkpt lat="48.01614" lon="6.79981">
        <ele>715.567932</ele>
        <time>2019-08-16T12:57:12Z</time>
      </trkpt>
      <trkpt lat="48.01617" lon="6.79982">
        <ele>715.648926</ele>
        <time>2019-08-16T12:57:13Z</time>
      </trkpt>
      <trkpt lat="48.0162" lon="6.79983">
        <ele>715.730042</ele>
        <time>2019-08-16T12:57:14Z</time>
      </trkpt>
      <trkpt lat="48.01622" lon="6.79985">
        <ele>715.86908</ele>
        <time>2019-08-16T12:57:15Z</time>
      </trkpt>
      <trkpt lat="48.01625" lon="6.79986">
        <ele>715.973633</ele>
        <time>2019-08-16T12:57:16Z</time>
      </trkpt>
      <trkpt lat="48.01627" lon="6.79986">
        <ele>716.087097</ele>
        <time>2019-08-16T12:57:17Z</time>
      </trkpt>
      <trkpt lat="48.01628" lon="6.79987">
        <ele>716.20752</ele>
        <time>2019-08-16T12:57:18Z</time>
      </trkpt>
      <trkpt lat="48.0163" lon="6.79988">
        <ele>716.395569</ele>
        <time>2019-08-16T12:57:19Z</time>
      </trkpt>
      <trkpt lat="48.01632" lon="6.79989">
        <ele>716.51947</ele>
        <time>2019-08-16T12:57:20Z</time>
      </trkpt>
      <trkpt lat="48.01635" lon="6.7999">
        <ele>716.637756</ele>
        <time>2019-08-16T12:57:21Z</time>
      </trkpt>
      <trkpt lat="48.01637" lon="6.79991">
        <ele>716.805115</ele>
        <time>2019-08-16T12:57:22Z</time>
      </trkpt>
      <trkpt lat="48.0164" lon="6.79993">
        <ele>716.912598</ele>
        <time>2019-08-16T12:57:23Z</time>
      </trkpt>
      <trkpt lat="48.01643" lon="6.79994">
        <ele>717.015625</ele>
        <time>2019-08-16T12:57:24Z</time>
      </trkpt>
      <trkpt lat="48.01645" lon="6.79996">
        <ele>717.166321</ele>
        <time>2019-08-16T12:57:25Z</time>
      </trkpt>
      <trkpt lat="48.01648" lon="6.79998">
        <ele>717.277527</ele>
        <time>2019-08-16T12:57:26Z</time>
      </trkpt>
      <trkpt lat="48.01651" lon="6.79999">
        <ele>717.40332</ele>
        <time>2019-08-16T12:57:27Z</time>
      </trkpt>
      <trkpt lat="48.01653" lon="6.80001">
        <ele>717.613281</ele>
        <time>2019-08-16T12:57:28Z</time>
      </trkpt>
      <trkpt lat="48.01656" lon="6.80002">
        <ele>717.756165</ele>
        <time>2019-08-16T12:57:29Z</time>
      </trkpt>
      <trkpt lat="48.01658" lon="6.80004">
        <ele>717.901672</ele>
        <time>2019-08-16T12:57:30Z</time>
      </trkpt>
      <trkpt lat="48.0166" lon="6.80005">
        <ele>718.120178</ele>
        <time>2019-08-16T12:57:31Z</time>
      </trkpt>
      <trkpt lat="48.01662" lon="6.80007">
        <ele>718.260071</ele>
        <time>2019-08-16T12:57:32Z</time>
      </trkpt>
      <trkpt lat="48.01664" lon="6.80008">
        <ele>718.39032</ele>
        <time>2019-08-16T12:57:33Z</time>
      </trkpt>
      <trkpt lat="48.01666" lon="6.8001">
        <ele>718.56073</ele>
        <time>2019-08-16T12:57:34Z</time>
      </trkpt>
      <trkpt lat="48.01668" lon="6.80011">
        <ele>718.655273</ele>
        <time>2019-08-16T12:57:35Z</time>
      </trkpt>
      <trkpt lat="48.01671" lon="6.80013">
        <ele>718.734131</ele>
        <time>2019-08-16T12:57:36Z</time>
      </trkpt>
      <trkpt lat="48.01672" lon="6.80014">
        <ele>718.797791</ele>
        <time>2019-08-16T12:57:37Z</time>
      </trkpt>
      <trkpt lat="48.01675" lon="6.80016">
        <ele>718.876404</ele>
        <time>2019-08-16T12:57:38Z</time>
      </trkpt>
      <trkpt lat="48.01678" lon="6.80017">
        <ele>718.923828</ele>
        <time>2019-08-16T12:57:39Z</time>
      </trkpt>
      <trkpt lat="48.01679" lon="6.80019">
        <ele>718.971985</ele>
        <time>2019-08-16T12:57:40Z</time>
      </trkpt>
      <trkpt lat="48.01682" lon="6.8002">
        <ele>719.061707</ele>
        <time>2019-08-16T12:57:41Z</time>
      </trkpt>
      <trkpt lat="48.01683" lon="6.80022">
        <ele>719.137512</ele>
        <time>2019-08-16T12:57:42Z</time>
      </trkpt>
      <trkpt lat="48.01685" lon="6.80023">
        <ele>719.219727</ele>
        <time>2019-08-16T12:57:43Z</time>
      </trkpt>
      <trkpt lat="48.01688" lon="6.80024">
        <ele>719.361511</ele>
        <time>2019-08-16T12:57:44Z</time>
      </trkpt>
      <trkpt lat="48.0169" lon="6.80025">
        <ele>719.468811</ele>
        <time>2019-08-16T12:57:45Z</time>
      </trkpt>
      <trkpt lat="48.01693" lon="6.80027">
        <ele>719.583313</ele>
        <time>2019-08-16T12:57:46Z</time>
      </trkpt>
      <trkpt lat="48.01695" lon="6.80028">
        <ele>719.75</ele>
        <time>2019-08-16T12:57:47Z</time>
      </trkpt>
      <trkpt lat="48.01698" lon="6.80029">
        <ele>719.802734</ele>
        <time>2019-08-16T12:57:48Z</time>
      </trkpt>
      <trkpt lat="48.01699" lon="6.80029">
        <ele>719.903381</ele>
        <time>2019-08-16T12:57:49Z</time>
      </trkpt>
      <trkpt lat="48.01701" lon="6.8003">
        <ele>720.059082</ele>
        <time>2019-08-16T12:57:50Z</time>
      </trkpt>
      <trkpt lat="48.01702" lon="6.8003">
        <ele>720.172668</ele>
        <time>2019-08-16T12:57:51Z</time>
      </trkpt>
      <trkpt lat="48.01704" lon="6.80031">
        <ele>720.281555</ele>
        <time>2019-08-16T12:57:52Z</time>
      </trkpt>
      <trkpt lat="48.01707" lon="6.80032">
        <ele>720.411621</ele>
        <time>2019-08-16T12:57:53Z</time>
      </trkpt>
      <trkpt lat="48.01709" lon="6.80033">
        <ele>720.482666</ele>
        <time>2019-08-16T12:57:54Z</time>
      </trkpt>
      <trkpt lat="48.01711" lon="6.80033">
        <ele>720.672607</ele>
        <time>2019-08-16T12:57:55Z</time>
      </trkpt>
      <trkpt lat="48.01714" lon="6.80034">
        <ele>720.747742</ele>
        <time>2019-08-16T12:57:57Z</time>
      </trkpt>
      <trkpt lat="48.01716" lon="6.80035">
        <ele>720.844788</ele>
        <time>2019-08-16T12:57:58Z</time>
      </trkpt>
      <trkpt lat="48.01718" lon="6.80036">
        <ele>720.909729</ele>
        <time>2019-08-16T12:57:59Z</time>
      </trkpt>
      <trkpt lat="48.01721" lon="6.80037">
        <ele>720.984619</ele>
        <time>2019-08-16T12:58:00Z</time>
      </trkpt>
      <trkpt lat="48.01724" lon="6.80037">
        <ele>721.103027</ele>
        <time>2019-08-16T12:58:01Z</time>
      </trkpt>
      <trkpt lat="48.01726" lon="6.80038">
        <ele>721.185364</ele>
        <time>2019-08-16T12:58:02Z</time>
      </trkpt>
      <trkpt lat="48.01728" lon="6.80039">
        <ele>721.277588</ele>
        <time>2019-08-16T12:58:03Z</time>
      </trkpt>
      <trkpt lat="48.0173" lon="6.80039">
        <ele>721.440369</ele>
        <time>2019-08-16T12:58:04Z</time>
      </trkpt>
      <trkpt lat="48.01733" lon="6.8004">
        <ele>721.553955</ele>
        <time>2019-08-16T12:58:05Z</time>
      </trkpt>
      <trkpt lat="48.01734" lon="6.80041">
        <ele>721.666199</ele>
        <time>2019-08-16T12:58:06Z</time>
      </trkpt>
      <trkpt lat="48.01737" lon="6.80041">
        <ele>721.776367</ele>
        <time>2019-08-16T12:58:07Z</time>
      </trkpt>
      <trkpt lat="48.01739" lon="6.80042">
        <ele>721.936829</ele>
        <time>2019-08-16T12:58:08Z</time>
      </trkpt>
      <trkpt lat="48.01742" lon="6.80043">
        <ele>722.040527</ele>
        <time>2019-08-16T12:58:09Z</time>
      </trkpt>
      <trkpt lat="48.01744" lon="6.80044">
        <ele>722.136047</ele>
        <time>2019-08-16T12:58:10Z</time>
      </trkpt>
      <trkpt lat="48.01746" lon="6.80044">
        <ele>722.26416</ele>
        <time>2019-08-16T12:58:11Z</time>
      </trkpt>
      <trkpt lat="48.01749" lon="6.80045">
        <ele>722.340637</ele>
        <time>2019-08-16T12:58:12Z</time>
      </trkpt>
      <trkpt lat="48.01752" lon="6.80046">
        <ele>722.475281</ele>
        <time>2019-08-16T12:58:13Z</time>
      </trkpt>
      <trkpt lat="48.01753" lon="6.80046">
        <ele>722.592957</ele>
        <time>2019-08-16T12:58:14Z</time>
      </trkpt>
      <trkpt lat="48.01754" lon="6.80047">
        <ele>722.978516</ele>
        <time>2019-08-16T12:58:15Z</time>
      </trkpt>
      <trkpt lat="48.01757" lon="6.80047">
        <ele>723.137146</ele>
        <time>2019-08-16T12:58:17Z</time>
      </trkpt>
      <trkpt lat="48.01759" lon="6.80048">
        <ele>723.29071</ele>
        <time>2019-08-16T12:58:18Z</time>
      </trkpt>
      <trkpt lat="48.01762" lon="6.80048">
        <ele>723.519531</ele>
        <time>2019-08-16T12:58:19Z</time>
      </trkpt>
      <trkpt lat="48.01765" lon="6.80049">
        <ele>723.657898</ele>
        <time>2019-08-16T12:58:20Z</time>
      </trkpt>
      <trkpt lat="48.01767" lon="6.80049">
        <ele>723.775879</ele>
        <time>2019-08-16T12:58:21Z</time>
      </trkpt>
      <trkpt lat="48.0177" lon="6.8005">
        <ele>723.904846</ele>
        <time>2019-08-16T12:58:22Z</time>
      </trkpt>
      <trkpt lat="48.01772" lon="6.80051">
        <ele>723.976868</ele>
        <time>2019-08-16T12:58:23Z</time>
      </trkpt>
      <trkpt lat="48.01775" lon="6.80052">
        <ele>724.047546</ele>
        <time>2019-08-16T12:58:24Z</time>
      </trkpt>
      <trkpt lat="48.01778" lon="6.80053">
        <ele>724.153992</ele>
        <time>2019-08-16T12:58:25Z</time>
      </trkpt>
      <trkpt lat="48.01781" lon="6.80054">
        <ele>724.219971</ele>
        <time>2019-08-16T12:58:26Z</time>
      </trkpt>
      <trkpt lat="48.01783" lon="6.80055">
        <ele>724.286438</ele>
        <time>2019-08-16T12:58:27Z</time>
      </trkpt>
      <trkpt lat="48.01786" lon="6.80057">
        <ele>724.398682</ele>
        <time>2019-08-16T12:58:28Z</time>
      </trkpt>
      <trkpt lat="48.01788" lon="6.80059">
        <ele>724.479309</ele>
        <time>2019-08-16T12:58:29Z</time>
      </trkpt>
      <trkpt lat="48.01791" lon="6.8006">
        <ele>724.559143</ele>
        <time>2019-08-16T12:58:30Z</time>
      </trkpt>
      <trkpt lat="48.01793" lon="6.80062">
        <ele>724.670898</ele>
        <time>2019-08-16T12:58:31Z</time>
      </trkpt>
      <trkpt lat="48.01796" lon="6.80064">
        <ele>724.744324</ele>
        <time>2019-08-16T12:58:32Z</time>
      </trkpt>
      <trkpt lat="48.01799" lon="6.80065">
        <ele>724.819092</ele>
        <time>2019-08-16T12:58:33Z</time>
      </trkpt>
      <trkpt lat="48.01801" lon="6.80067">
        <ele>724.900879</ele>
        <time>2019-08-16T12:58:34Z</time>
      </trkpt>
      <trkpt lat="48.01804" lon="6.8007">
        <ele>725.042969</ele>
        <time>2019-08-16T12:58:35Z</time>
      </trkpt>
      <trkpt lat="48.01806" lon="6.80072">
        <ele>725.149109</ele>
        <time>2019-08-16T12:58:36Z</time>
      </trkpt>
      <trkpt lat="48.01808" lon="6.80074">
        <ele>725.259705</ele>
        <time>2019-08-16T12:58:37Z</time>
      </trkpt>
      <trkpt lat="48.01811" lon="6.80077">
        <ele>725.432373</ele>
        <time>2019-08-16T12:58:38Z</time>
      </trkpt>
      <trkpt lat="48.01812" lon="6.80079">
        <ele>725.554993</ele>
        <time>2019-08-16T12:58:39Z</time>
      </trkpt>
      <trkpt lat="48.01815" lon="6.80082">
        <ele>725.681702</ele>
        <time>2019-08-16T12:58:40Z</time>
      </trkpt>
      <trkpt lat="48.01817" lon="6.80084">
        <ele>725.860168</ele>
        <time>2019-08-16T12:58:41Z</time>
      </trkpt>
      <trkpt lat="48.01819" lon="6.80086">
        <ele>725.961182</ele>
        <time>2019-08-16T12:58:42Z</time>
      </trkpt>
      <trkpt lat="48.01822" lon="6.80089">
        <ele>726.052917</ele>
        <time>2019-08-16T12:58:43Z</time>
      </trkpt>
      <trkpt lat="48.01825" lon="6.80091">
        <ele>726.184265</ele>
        <time>2019-08-16T12:58:44Z</time>
      </trkpt>
      <trkpt lat="48.01826" lon="6.80094">
        <ele>726.276672</ele>
        <time>2019-08-16T12:58:45Z</time>
      </trkpt>
      <trkpt lat="48.01828" lon="6.80096">
        <ele>726.364563</ele>
        <time>2019-08-16T12:58:46Z</time>
      </trkpt>
      <trkpt lat="48.01831" lon="6.80098">
        <ele>726.448425</ele>
        <time>2019-08-16T12:58:47Z</time>
      </trkpt>
      <trkpt lat="48.01832" lon="6.80101">
        <ele>726.575867</ele>
        <time>2019-08-16T12:58:48Z</time>
      </trkpt>
      <trkpt lat="48.01838" lon="6.80109">
        <ele>726.625977</ele>
        <time>2019-08-16T12:58:51Z</time>
      </trkpt>
      <trkpt lat="48.01841" lon="6.80111">
        <ele>726.680115</ele>
        <time>2019-08-16T12:58:52Z</time>
      </trkpt>
      <trkpt lat="48.01843" lon="6.80114">
        <ele>726.738708</ele>
        <time>2019-08-16T12:58:53Z</time>
      </trkpt>
      <trkpt lat="48.01845" lon="6.80116">
        <ele>726.949402</ele>
        <time>2019-08-16T12:58:54Z</time>
      </trkpt>
      <trkpt lat="48.01847" lon="6.80119">
        <ele>727.117126</ele>
        <time>2019-08-16T12:58:55Z</time>
      </trkpt>
      <trkpt lat="48.01849" lon="6.80122">
        <ele>727.297607</ele>
        <time>2019-08-16T12:58:56Z</time>
      </trkpt>
      <trkpt lat="48.01851" lon="6.80124">
        <ele>727.583557</ele>
        <time>2019-08-16T12:58:57Z</time>
      </trkpt>
      <trkpt lat="48.01853" lon="6.80127">
        <ele>727.782959</ele>
        <time>2019-08-16T12:58:58Z</time>
      </trkpt>
      <trkpt lat="48.01854" lon="6.8013">
        <ele>727.976807</ele>
        <time>2019-08-16T12:58:59Z</time>
      </trkpt>
      <trkpt lat="48.01856" lon="6.80134">
        <ele>728.154114</ele>
        <time>2019-08-16T12:59:00Z</time>
      </trkpt>
      <trkpt lat="48.01858" lon="6.80137">
        <ele>728.307617</ele>
        <time>2019-08-16T12:59:01Z</time>
      </trkpt>
      <trkpt lat="48.0186" lon="6.8014">
        <ele>728.445313</ele>
        <time>2019-08-16T12:59:02Z</time>
      </trkpt>
      <trkpt lat="48.01861" lon="6.80142">
        <ele>728.6474</ele>
        <time>2019-08-16T12:59:03Z</time>
      </trkpt>
      <trkpt lat="48.01864" lon="6.80145">
        <ele>728.78717</ele>
        <time>2019-08-16T12:59:04Z</time>
      </trkpt>
      <trkpt lat="48.01865" lon="6.80148">
        <ele>728.928284</ele>
        <time>2019-08-16T12:59:05Z</time>
      </trkpt>
      <trkpt lat="48.01868" lon="6.80151">
        <ele>729.149109</ele>
        <time>2019-08-16T12:59:06Z</time>
      </trkpt>
      <trkpt lat="48.01869" lon="6.80154">
        <ele>729.309082</ele>
        <time>2019-08-16T12:59:07Z</time>
      </trkpt>
      <trkpt lat="48.01871" lon="6.80156">
        <ele>729.470642</ele>
        <time>2019-08-16T12:59:08Z</time>
      </trkpt>
      <trkpt lat="48.01873" lon="6.80159">
        <ele>729.621399</ele>
        <time>2019-08-16T12:59:09Z</time>
      </trkpt>
      <trkpt lat="48.01874" lon="6.80161">
        <ele>729.752625</ele>
        <time>2019-08-16T12:59:10Z</time>
      </trkpt>
      <trkpt lat="48.01876" lon="6.80164">
        <ele>729.863464</ele>
        <time>2019-08-16T12:59:11Z</time>
      </trkpt>
      <trkpt lat="48.01878" lon="6.80166">
        <ele>730.004578</ele>
        <time>2019-08-16T12:59:12Z</time>
      </trkpt>
      <trkpt lat="48.01879" lon="6.80169">
        <ele>730.086853</ele>
        <time>2019-08-16T12:59:13Z</time>
      </trkpt>
      <trkpt lat="48.01881" lon="6.80171">
        <ele>730.161316</ele>
        <time>2019-08-16T12:59:14Z</time>
      </trkpt>
      <trkpt lat="48.01881" lon="6.80174">
        <ele>730.229675</ele>
        <time>2019-08-16T12:59:15Z</time>
      </trkpt>
      <trkpt lat="48.01883" lon="6.80176">
        <ele>730.294739</ele>
        <time>2019-08-16T12:59:16Z</time>
      </trkpt>
      <trkpt lat="48.01885" lon="6.80178">
        <ele>730.356445</ele>
        <time>2019-08-16T12:59:17Z</time>
      </trkpt>
      <trkpt lat="48.01887" lon="6.80181">
        <ele>730.416443</ele>
        <time>2019-08-16T12:59:18Z</time>
      </trkpt>
      <trkpt lat="48.01888" lon="6.80183">
        <ele>730.487488</ele>
        <time>2019-08-16T12:59:19Z</time>
      </trkpt>
      <trkpt lat="48.0189" lon="6.80185">
        <ele>730.572021</ele>
        <time>2019-08-16T12:59:20Z</time>
      </trkpt>
      <trkpt lat="48.01891" lon="6.80188">
        <ele>730.664612</ele>
        <time>2019-08-16T12:59:21Z</time>
      </trkpt>
      <trkpt lat="48.01893" lon="6.8019">
        <ele>730.795593</ele>
        <time>2019-08-16T12:59:22Z</time>
      </trkpt>
      <trkpt lat="48.01894" lon="6.80193">
        <ele>730.880859</ele>
        <time>2019-08-16T12:59:23Z</time>
      </trkpt>
      <trkpt lat="48.01896" lon="6.80195">
        <ele>730.968567</ele>
        <time>2019-08-16T12:59:24Z</time>
      </trkpt>
      <trkpt lat="48.01898" lon="6.80198">
        <ele>731.058899</ele>
        <time>2019-08-16T12:59:25Z</time>
      </trkpt>
      <trkpt lat="48.019" lon="6.802">
        <ele>731.145752</ele>
        <time>2019-08-16T12:59:26Z</time>
      </trkpt>
      <trkpt lat="48.01901" lon="6.80203">
        <ele>731.256592</ele>
        <time>2019-08-16T12:59:27Z</time>
      </trkpt>
      <trkpt lat="48.01903" lon="6.80205">
        <ele>731.324036</ele>
        <time>2019-08-16T12:59:28Z</time>
      </trkpt>
      <trkpt lat="48.01905" lon="6.80207">
        <ele>731.398438</ele>
        <time>2019-08-16T12:59:29Z</time>
      </trkpt>
      <trkpt lat="48.01907" lon="6.80209">
        <ele>731.48175</ele>
        <time>2019-08-16T12:59:30Z</time>
      </trkpt>
      <trkpt lat="48.01908" lon="6.80211">
        <ele>731.607178</ele>
        <time>2019-08-16T12:59:31Z</time>
      </trkpt>
      <trkpt lat="48.0191" lon="6.80214">
        <ele>731.690918</ele>
        <time>2019-08-16T12:59:32Z</time>
      </trkpt>
      <trkpt lat="48.01911" lon="6.80216">
        <ele>731.773254</ele>
        <time>2019-08-16T12:59:33Z</time>
      </trkpt>
      <trkpt lat="48.01913" lon="6.80219">
        <ele>731.884521</ele>
        <time>2019-08-16T12:59:34Z</time>
      </trkpt>
      <trkpt lat="48.01915" lon="6.80221">
        <ele>731.950623</ele>
        <time>2019-08-16T12:59:35Z</time>
      </trkpt>
      <trkpt lat="48.01917" lon="6.80223">
        <ele>732.01532</ele>
        <time>2019-08-16T12:59:36Z</time>
      </trkpt>
      <trkpt lat="48.01918" lon="6.80226">
        <ele>732.114563</ele>
        <time>2019-08-16T12:59:37Z</time>
      </trkpt>
      <trkpt lat="48.0192" lon="6.80228">
        <ele>732.178711</ele>
        <time>2019-08-16T12:59:38Z</time>
      </trkpt>
      <trkpt lat="48.01922" lon="6.80231">
        <ele>732.242371</ele>
        <time>2019-08-16T12:59:39Z</time>
      </trkpt>
      <trkpt lat="48.01923" lon="6.80233">
        <ele>732.313965</ele>
        <time>2019-08-16T12:59:40Z</time>
      </trkpt>
      <trkpt lat="48.01925" lon="6.80235">
        <ele>732.440674</ele>
        <time>2019-08-16T12:59:41Z</time>
      </trkpt>
      <trkpt lat="48.01926" lon="6.80237">
        <ele>732.531799</ele>
        <time>2019-08-16T12:59:42Z</time>
      </trkpt>
      <trkpt lat="48.01928" lon="6.80239">
        <ele>732.672668</ele>
        <time>2019-08-16T12:59:43Z</time>
      </trkpt>
      <trkpt lat="48.0193" lon="6.80242">
        <ele>732.773438</ele>
        <time>2019-08-16T12:59:44Z</time>
      </trkpt>
      <trkpt lat="48.01931" lon="6.80244">
        <ele>732.886475</ele>
        <time>2019-08-16T12:59:45Z</time>
      </trkpt>
      <trkpt lat="48.01933" lon="6.80246">
        <ele>733.018799</ele>
        <time>2019-08-16T12:59:46Z</time>
      </trkpt>
      <trkpt lat="48.01934" lon="6.80249">
        <ele>733.162781</ele>
        <time>2019-08-16T12:59:47Z</time>
      </trkpt>
      <trkpt lat="48.01936" lon="6.80251">
        <ele>733.312317</ele>
        <time>2019-08-16T12:59:48Z</time>
      </trkpt>
      <trkpt lat="48.01938" lon="6.80253">
        <ele>733.457336</ele>
        <time>2019-08-16T12:59:49Z</time>
      </trkpt>
      <trkpt lat="48.01939" lon="6.80255">
        <ele>733.526306</ele>
        <time>2019-08-16T12:59:50Z</time>
      </trkpt>
      <trkpt lat="48.01941" lon="6.80257">
        <ele>733.659912</ele>
        <time>2019-08-16T12:59:51Z</time>
      </trkpt>
      <trkpt lat="48.01942" lon="6.80259">
        <ele>733.778137</ele>
        <time>2019-08-16T12:59:52Z</time>
      </trkpt>
      <trkpt lat="48.01943" lon="6.80261">
        <ele>733.93457</ele>
        <time>2019-08-16T12:59:53Z</time>
      </trkpt>
      <trkpt lat="48.01945" lon="6.80262">
        <ele>734.025208</ele>
        <time>2019-08-16T12:59:54Z</time>
      </trkpt>
      <trkpt lat="48.01947" lon="6.80264">
        <ele>734.11554</ele>
        <time>2019-08-16T12:59:55Z</time>
      </trkpt>
      <trkpt lat="48.01948" lon="6.80266">
        <ele>734.264954</ele>
        <time>2019-08-16T12:59:56Z</time>
      </trkpt>
      <trkpt lat="48.01949" lon="6.80267">
        <ele>734.382813</ele>
        <time>2019-08-16T12:59:57Z</time>
      </trkpt>
      <trkpt lat="48.01951" lon="6.80268">
        <ele>734.504822</ele>
        <time>2019-08-16T12:59:58Z</time>
      </trkpt>
      <trkpt lat="48.01952" lon="6.8027">
        <ele>734.688965</ele>
        <time>2019-08-16T12:59:59Z</time>
      </trkpt>
      <trkpt lat="48.01954" lon="6.80271">
        <ele>734.807312</ele>
        <time>2019-08-16T13:00:00Z</time>
      </trkpt>
      <trkpt lat="48.01956" lon="6.80272">
        <ele>734.922546</ele>
        <time>2019-08-16T13:00:01Z</time>
      </trkpt>
      <trkpt lat="48.01959" lon="6.80274">
        <ele>735.032288</ele>
        <time>2019-08-16T13:00:02Z</time>
      </trkpt>
      <trkpt lat="48.0196" lon="6.80276">
        <ele>735.186829</ele>
        <time>2019-08-16T13:00:03Z</time>
      </trkpt>
      <trkpt lat="48.01962" lon="6.80277">
        <ele>735.279602</ele>
        <time>2019-08-16T13:00:04Z</time>
      </trkpt>
      <trkpt lat="48.01964" lon="6.80279">
        <ele>735.371887</ele>
        <time>2019-08-16T13:00:05Z</time>
      </trkpt>
      <trkpt lat="48.01966" lon="6.8028">
        <ele>735.513855</ele>
        <time>2019-08-16T13:00:06Z</time>
      </trkpt>
      <trkpt lat="48.01968" lon="6.80282">
        <ele>735.611328</ele>
        <time>2019-08-16T13:00:07Z</time>
      </trkpt>
      <trkpt lat="48.01969" lon="6.80284">
        <ele>735.71405</ele>
        <time>2019-08-16T13:00:08Z</time>
      </trkpt>
      <trkpt lat="48.01971" lon="6.80286">
        <ele>735.89093</ele>
        <time>2019-08-16T13:00:09Z</time>
      </trkpt>
      <trkpt lat="48.01973" lon="6.80287">
        <ele>736.024597</ele>
        <time>2019-08-16T13:00:10Z</time>
      </trkpt>
      <trkpt lat="48.01975" lon="6.80289">
        <ele>736.166748</ele>
        <time>2019-08-16T13:00:11Z</time>
      </trkpt>
      <trkpt lat="48.01977" lon="6.8029">
        <ele>736.3078</ele>
        <time>2019-08-16T13:00:12Z</time>
      </trkpt>
      <trkpt lat="48.01979" lon="6.80292">
        <ele>736.520935</ele>
        <time>2019-08-16T13:00:13Z</time>
      </trkpt>
      <trkpt lat="48.01981" lon="6.80294">
        <ele>736.665588</ele>
        <time>2019-08-16T13:00:14Z</time>
      </trkpt>
      <trkpt lat="48.01983" lon="6.80297">
        <ele>736.813782</ele>
        <time>2019-08-16T13:00:15Z</time>
      </trkpt>
      <trkpt lat="48.01984" lon="6.80299">
        <ele>737.030457</ele>
        <time>2019-08-16T13:00:16Z</time>
      </trkpt>
      <trkpt lat="48.01986" lon="6.80301">
        <ele>737.17218</ele>
        <time>2019-08-16T13:00:17Z</time>
      </trkpt>
      <trkpt lat="48.01988" lon="6.80303">
        <ele>737.315674</ele>
        <time>2019-08-16T13:00:18Z</time>
      </trkpt>
      <trkpt lat="48.0199" lon="6.80305">
        <ele>737.522034</ele>
        <time>2019-08-16T13:00:19Z</time>
      </trkpt>
      <trkpt lat="48.01992" lon="6.80307">
        <ele>737.645508</ele>
        <time>2019-08-16T13:00:20Z</time>
      </trkpt>
      <trkpt lat="48.01994" lon="6.80309">
        <ele>737.758606</ele>
        <time>2019-08-16T13:00:21Z</time>
      </trkpt>
      <trkpt lat="48.01995" lon="6.80312">
        <ele>737.917725</ele>
        <time>2019-08-16T13:00:22Z</time>
      </trkpt>
      <trkpt lat="48.01996" lon="6.80314">
        <ele>738.015808</ele>
        <time>2019-08-16T13:00:23Z</time>
      </trkpt>
      <trkpt lat="48.01998" lon="6.80317">
        <ele>738.104309</ele>
        <time>2019-08-16T13:00:24Z</time>
      </trkpt>
      <trkpt lat="48.02" lon="6.80319">
        <ele>738.181396</ele>
        <time>2019-08-16T13:00:25Z</time>
      </trkpt>
      <trkpt lat="48.02002" lon="6.80321">
        <ele>738.256592</ele>
        <time>2019-08-16T13:00:26Z</time>
      </trkpt>
      <trkpt lat="48.02004" lon="6.80322">
        <ele>738.388489</ele>
        <time>2019-08-16T13:00:27Z</time>
      </trkpt>
      <trkpt lat="48.02006" lon="6.80325">
        <ele>738.491943</ele>
        <time>2019-08-16T13:00:28Z</time>
      </trkpt>
      <trkpt lat="48.02008" lon="6.80326">
        <ele>738.600525</ele>
        <time>2019-08-16T13:00:29Z</time>
      </trkpt>
      <trkpt lat="48.0201" lon="6.80328">
        <ele>738.779602</ele>
        <time>2019-08-16T13:00:30Z</time>
      </trkpt>
      <trkpt lat="48.02012" lon="6.80329">
        <ele>738.912292</ele>
        <time>2019-08-16T13:00:31Z</time>
      </trkpt>
      <trkpt lat="48.02015" lon="6.80331">
        <ele>739.053711</ele>
        <time>2019-08-16T13:00:32Z</time>
      </trkpt>
      <trkpt lat="48.02016" lon="6.80332">
        <ele>739.271973</ele>
        <time>2019-08-16T13:00:33Z</time>
      </trkpt>
      <trkpt lat="48.02018" lon="6.80334">
        <ele>739.417175</ele>
        <time>2019-08-16T13:00:34Z</time>
      </trkpt>
      <trkpt lat="48.02021" lon="6.80336">
        <ele>739.564026</ele>
        <time>2019-08-16T13:00:35Z</time>
      </trkpt>
      <trkpt lat="48.02022" lon="6.80338">
        <ele>739.789978</ele>
        <time>2019-08-16T13:00:36Z</time>
      </trkpt>
      <trkpt lat="48.02024" lon="6.8034">
        <ele>739.939758</ele>
        <time>2019-08-16T13:00:37Z</time>
      </trkpt>
      <trkpt lat="48.02026" lon="6.80343">
        <ele>740.086426</ele>
        <time>2019-08-16T13:00:38Z</time>
      </trkpt>
      <trkpt lat="48.02028" lon="6.80345">
        <ele>740.299133</ele>
        <time>2019-08-16T13:00:39Z</time>
      </trkpt>
      <trkpt lat="48.02029" lon="6.80348">
        <ele>740.435303</ele>
        <time>2019-08-16T13:00:40Z</time>
      </trkpt>
      <trkpt lat="48.02031" lon="6.8035">
        <ele>740.568909</ele>
        <time>2019-08-16T13:00:41Z</time>
      </trkpt>
      <trkpt lat="48.02033" lon="6.80352">
        <ele>740.756104</ele>
        <time>2019-08-16T13:00:42Z</time>
      </trkpt>
      <trkpt lat="48.02034" lon="6.80355">
        <ele>740.869629</ele>
        <time>2019-08-16T13:00:43Z</time>
      </trkpt>
      <trkpt lat="48.02036" lon="6.80357">
        <ele>740.971436</ele>
        <time>2019-08-16T13:00:44Z</time>
      </trkpt>
      <trkpt lat="48.02038" lon="6.80359">
        <ele>741.105286</ele>
        <time>2019-08-16T13:00:45Z</time>
      </trkpt>
      <trkpt lat="48.0204" lon="6.80361">
        <ele>741.187927</ele>
        <time>2019-08-16T13:00:46Z</time>
      </trkpt>
      <trkpt lat="48.02041" lon="6.80364">
        <ele>741.272949</ele>
        <time>2019-08-16T13:00:47Z</time>
      </trkpt>
      <trkpt lat="48.02043" lon="6.80366">
        <ele>741.365967</ele>
        <time>2019-08-16T13:00:48Z</time>
      </trkpt>
      <trkpt lat="48.02045" lon="6.80368">
        <ele>741.524475</ele>
        <time>2019-08-16T13:00:49Z</time>
      </trkpt>
      <trkpt lat="48.02047" lon="6.8037">
        <ele>741.579895</ele>
        <time>2019-08-16T13:00:50Z</time>
      </trkpt>
      <trkpt lat="48.02049" lon="6.80373">
        <ele>741.635315</ele>
        <time>2019-08-16T13:00:51Z</time>
      </trkpt>
      <trkpt lat="48.0205" lon="6.80375">
        <ele>741.750671</ele>
        <time>2019-08-16T13:00:52Z</time>
      </trkpt>
      <trkpt lat="48.02052" lon="6.80378">
        <ele>741.870605</ele>
        <time>2019-08-16T13:00:53Z</time>
      </trkpt>
      <trkpt lat="48.02054" lon="6.8038">
        <ele>741.99823</ele>
        <time>2019-08-16T13:00:54Z</time>
      </trkpt>
      <trkpt lat="48.02055" lon="6.80383">
        <ele>742.133972</ele>
        <time>2019-08-16T13:00:55Z</time>
      </trkpt>
      <trkpt lat="48.02057" lon="6.80386">
        <ele>742.336853</ele>
        <time>2019-08-16T13:00:56Z</time>
      </trkpt>
      <trkpt lat="48.02058" lon="6.80389">
        <ele>742.46405</ele>
        <time>2019-08-16T13:00:57Z</time>
      </trkpt>
      <trkpt lat="48.02059" lon="6.80392">
        <ele>742.588867</ele>
        <time>2019-08-16T13:00:58Z</time>
      </trkpt>
      <trkpt lat="48.0206" lon="6.80395">
        <ele>742.717773</ele>
        <time>2019-08-16T13:00:59Z</time>
      </trkpt>
      <trkpt lat="48.02062" lon="6.80398">
        <ele>742.853088</ele>
        <time>2019-08-16T13:01:00Z</time>
      </trkpt>
      <trkpt lat="48.02063" lon="6.80401">
        <ele>742.984558</ele>
        <time>2019-08-16T13:01:01Z</time>
      </trkpt>
      <trkpt lat="48.02064" lon="6.80404">
        <ele>743.107483</ele>
        <time>2019-08-16T13:01:02Z</time>
      </trkpt>
      <trkpt lat="48.02066" lon="6.80407">
        <ele>743.216736</ele>
        <time>2019-08-16T13:01:03Z</time>
      </trkpt>
      <trkpt lat="48.02066" lon="6.8041">
        <ele>743.315491</ele>
        <time>2019-08-16T13:01:04Z</time>
      </trkpt>
      <trkpt lat="48.02068" lon="6.80413">
        <ele>743.409607</ele>
        <time>2019-08-16T13:01:05Z</time>
      </trkpt>
      <trkpt lat="48.02069" lon="6.80416">
        <ele>743.502014</ele>
        <time>2019-08-16T13:01:06Z</time>
      </trkpt>
      <trkpt lat="48.0207" lon="6.80419">
        <ele>743.595276</ele>
        <time>2019-08-16T13:01:07Z</time>
      </trkpt>
      <trkpt lat="48.0207" lon="6.80422">
        <ele>743.737366</ele>
        <time>2019-08-16T13:01:08Z</time>
      </trkpt>
      <trkpt lat="48.02071" lon="6.80425">
        <ele>743.838684</ele>
        <time>2019-08-16T13:01:09Z</time>
      </trkpt>
      <trkpt lat="48.02072" lon="6.80429">
        <ele>743.945496</ele>
        <time>2019-08-16T13:01:10Z</time>
      </trkpt>
      <trkpt lat="48.02073" lon="6.80432">
        <ele>744.05835</ele>
        <time>2019-08-16T13:01:11Z</time>
      </trkpt>
      <trkpt lat="48.02074" lon="6.80435">
        <ele>744.177917</ele>
        <time>2019-08-16T13:01:12Z</time>
      </trkpt>
      <trkpt lat="48.02075" lon="6.80439">
        <ele>744.306641</ele>
        <time>2019-08-16T13:01:13Z</time>
      </trkpt>
      <trkpt lat="48.02076" lon="6.80442">
        <ele>744.441895</ele>
        <time>2019-08-16T13:01:14Z</time>
      </trkpt>
      <trkpt lat="48.02076" lon="6.80445">
        <ele>744.58075</ele>
        <time>2019-08-16T13:01:15Z</time>
      </trkpt>
      <trkpt lat="48.02077" lon="6.80448">
        <ele>744.717224</ele>
        <time>2019-08-16T13:01:16Z</time>
      </trkpt>
      <trkpt lat="48.02077" lon="6.80452">
        <ele>744.912598</ele>
        <time>2019-08-16T13:01:17Z</time>
      </trkpt>
      <trkpt lat="48.02078" lon="6.80455">
        <ele>745.04303</ele>
        <time>2019-08-16T13:01:18Z</time>
      </trkpt>
      <trkpt lat="48.02079" lon="6.80459">
        <ele>745.176941</ele>
        <time>2019-08-16T13:01:19Z</time>
      </trkpt>
      <trkpt lat="48.02079" lon="6.80462">
        <ele>745.306458</ele>
        <time>2019-08-16T13:01:20Z</time>
      </trkpt>
      <trkpt lat="48.02079" lon="6.80465">
        <ele>745.429932</ele>
        <time>2019-08-16T13:01:21Z</time>
      </trkpt>
      <trkpt lat="48.0208" lon="6.80469">
        <ele>745.552795</ele>
        <time>2019-08-16T13:01:22Z</time>
      </trkpt>
      <trkpt lat="48.0208" lon="6.80472">
        <ele>745.68042</ele>
        <time>2019-08-16T13:01:23Z</time>
      </trkpt>
      <trkpt lat="48.0208" lon="6.80475">
        <ele>745.878235</ele>
        <time>2019-08-16T13:01:24Z</time>
      </trkpt>
      <trkpt lat="48.0208" lon="6.80479">
        <ele>746.003845</ele>
        <time>2019-08-16T13:01:25Z</time>
      </trkpt>
      <trkpt lat="48.02081" lon="6.80482">
        <ele>746.123352</ele>
        <time>2019-08-16T13:01:26Z</time>
      </trkpt>
      <trkpt lat="48.02081" lon="6.80486">
        <ele>746.236755</ele>
        <time>2019-08-16T13:01:27Z</time>
      </trkpt>
      <trkpt lat="48.02081" lon="6.80489">
        <ele>746.349548</ele>
        <time>2019-08-16T13:01:28Z</time>
      </trkpt>
      <trkpt lat="48.02081" lon="6.80492">
        <ele>746.456299</ele>
        <time>2019-08-16T13:01:29Z</time>
      </trkpt>
      <trkpt lat="48.02082" lon="6.80496">
        <ele>746.561462</ele>
        <time>2019-08-16T13:01:30Z</time>
      </trkpt>
      <trkpt lat="48.02082" lon="6.805">
        <ele>746.671326</ele>
        <time>2019-08-16T13:01:31Z</time>
      </trkpt>
      <trkpt lat="48.02082" lon="6.80503">
        <ele>746.793152</ele>
        <time>2019-08-16T13:01:32Z</time>
      </trkpt>
      <trkpt lat="48.02082" lon="6.80506">
        <ele>746.926819</ele>
        <time>2019-08-16T13:01:33Z</time>
      </trkpt>
      <trkpt lat="48.02082" lon="6.8051">
        <ele>747.074524</ele>
        <time>2019-08-16T13:01:34Z</time>
      </trkpt>
      <trkpt lat="48.02082" lon="6.80514">
        <ele>747.233398</ele>
        <time>2019-08-16T13:01:35Z</time>
      </trkpt>
      <trkpt lat="48.02083" lon="6.80517">
        <ele>747.394043</ele>
        <time>2019-08-16T13:01:36Z</time>
      </trkpt>
      <trkpt lat="48.02082" lon="6.80521">
        <ele>747.549988</ele>
        <time>2019-08-16T13:01:37Z</time>
      </trkpt>
      <trkpt lat="48.02083" lon="6.80525">
        <ele>747.69989</ele>
        <time>2019-08-16T13:01:38Z</time>
      </trkpt>
      <trkpt lat="48.02083" lon="6.80528">
        <ele>747.846008</ele>
        <time>2019-08-16T13:01:39Z</time>
      </trkpt>
      <trkpt lat="48.02083" lon="6.80532">
        <ele>747.982971</ele>
        <time>2019-08-16T13:01:40Z</time>
      </trkpt>
      <trkpt lat="48.02084" lon="6.80535">
        <ele>748.11322</ele>
        <time>2019-08-16T13:01:41Z</time>
      </trkpt>
      <trkpt lat="48.02084" lon="6.80539">
        <ele>748.233948</ele>
        <time>2019-08-16T13:01:42Z</time>
      </trkpt>
      <trkpt lat="48.02084" lon="6.80542">
        <ele>748.350098</ele>
        <time>2019-08-16T13:01:43Z</time>
      </trkpt>
      <trkpt lat="48.02084" lon="6.80545">
        <ele>748.463806</ele>
        <time>2019-08-16T13:01:44Z</time>
      </trkpt>
      <trkpt lat="48.02085" lon="6.80549">
        <ele>748.581787</ele>
        <time>2019-08-16T13:01:45Z</time>
      </trkpt>
      <trkpt lat="48.02085" lon="6.80553">
        <ele>748.706543</ele>
        <time>2019-08-16T13:01:46Z</time>
      </trkpt>
      <trkpt lat="48.02086" lon="6.80556">
        <ele>748.899719</ele>
        <time>2019-08-16T13:01:47Z</time>
      </trkpt>
      <trkpt lat="48.02086" lon="6.80559">
        <ele>749.036438</ele>
        <time>2019-08-16T13:01:48Z</time>
      </trkpt>
      <trkpt lat="48.02087" lon="6.80563">
        <ele>749.18335</ele>
        <time>2019-08-16T13:01:49Z</time>
      </trkpt>
      <trkpt lat="48.02087" lon="6.80566">
        <ele>749.34198</ele>
        <time>2019-08-16T13:01:50Z</time>
      </trkpt>
      <trkpt lat="48.02088" lon="6.8057">
        <ele>749.42334</ele>
        <time>2019-08-16T13:01:51Z</time>
      </trkpt>
      <trkpt lat="48.02088" lon="6.80573">
        <ele>749.58374</ele>
        <time>2019-08-16T13:01:52Z</time>
      </trkpt>
      <trkpt lat="48.02089" lon="6.80577">
        <ele>749.73468</ele>
        <time>2019-08-16T13:01:53Z</time>
      </trkpt>
      <trkpt lat="48.02089" lon="6.8058">
        <ele>749.867676</ele>
        <time>2019-08-16T13:01:54Z</time>
      </trkpt>
      <trkpt lat="48.02089" lon="6.80583">
        <ele>749.985046</ele>
        <time>2019-08-16T13:01:55Z</time>
      </trkpt>
      <trkpt lat="48.02089" lon="6.80587">
        <ele>750.096924</ele>
        <time>2019-08-16T13:01:56Z</time>
      </trkpt>
      <trkpt lat="48.02089" lon="6.8059">
        <ele>750.207275</ele>
        <time>2019-08-16T13:01:57Z</time>
      </trkpt>
      <trkpt lat="48.02089" lon="6.80594">
        <ele>750.321716</ele>
        <time>2019-08-16T13:01:58Z</time>
      </trkpt>
      <trkpt lat="48.02089" lon="6.80597">
        <ele>750.438965</ele>
        <time>2019-08-16T13:01:59Z</time>
      </trkpt>
      <trkpt lat="48.02089" lon="6.806">
        <ele>750.570007</ele>
        <time>2019-08-16T13:02:00Z</time>
      </trkpt>
      <trkpt lat="48.02089" lon="6.80604">
        <ele>750.709229</ele>
        <time>2019-08-16T13:02:01Z</time>
      </trkpt>
      <trkpt lat="48.02089" lon="6.80607">
        <ele>750.862244</ele>
        <time>2019-08-16T13:02:02Z</time>
      </trkpt>
      <trkpt lat="48.02088" lon="6.8061">
        <ele>751.025635</ele>
        <time>2019-08-16T13:02:03Z</time>
      </trkpt>
      <trkpt lat="48.02088" lon="6.80614">
        <ele>751.200256</ele>
        <time>2019-08-16T13:02:04Z</time>
      </trkpt>
      <trkpt lat="48.02087" lon="6.80617">
        <ele>751.377258</ele>
        <time>2019-08-16T13:02:05Z</time>
      </trkpt>
      <trkpt lat="48.02087" lon="6.80621">
        <ele>751.547668</ele>
        <time>2019-08-16T13:02:06Z</time>
      </trkpt>
      <trkpt lat="48.02087" lon="6.80625">
        <ele>751.713684</ele>
        <time>2019-08-16T13:02:07Z</time>
      </trkpt>
      <trkpt lat="48.02087" lon="6.80628">
        <ele>751.949707</ele>
        <time>2019-08-16T13:02:08Z</time>
      </trkpt>
      <trkpt lat="48.02086" lon="6.80632">
        <ele>752.098328</ele>
        <time>2019-08-16T13:02:09Z</time>
      </trkpt>
      <trkpt lat="48.02086" lon="6.80636">
        <ele>752.240723</ele>
        <time>2019-08-16T13:02:10Z</time>
      </trkpt>
      <trkpt lat="48.02085" lon="6.80639">
        <ele>752.375183</ele>
        <time>2019-08-16T13:02:11Z</time>
      </trkpt>
      <trkpt lat="48.02085" lon="6.80642">
        <ele>752.506348</ele>
        <time>2019-08-16T13:02:12Z</time>
      </trkpt>
      <trkpt lat="48.02084" lon="6.80646">
        <ele>752.635742</ele>
        <time>2019-08-16T13:02:13Z</time>
      </trkpt>
      <trkpt lat="48.02084" lon="6.8065">
        <ele>752.765137</ele>
        <time>2019-08-16T13:02:14Z</time>
      </trkpt>
      <trkpt lat="48.02084" lon="6.80653">
        <ele>752.895508</ele>
        <time>2019-08-16T13:02:15Z</time>
      </trkpt>
      <trkpt lat="48.02084" lon="6.80657">
        <ele>753.024719</ele>
        <time>2019-08-16T13:02:16Z</time>
      </trkpt>
      <trkpt lat="48.02084" lon="6.80661">
        <ele>753.154724</ele>
        <time>2019-08-16T13:02:17Z</time>
      </trkpt>
      <trkpt lat="48.02083" lon="6.80664">
        <ele>753.279297</ele>
        <time>2019-08-16T13:02:18Z</time>
      </trkpt>
      <trkpt lat="48.02082" lon="6.80667">
        <ele>753.395264</ele>
        <time>2019-08-16T13:02:19Z</time>
      </trkpt>
      <trkpt lat="48.02081" lon="6.80671">
        <ele>753.503418</ele>
        <time>2019-08-16T13:02:20Z</time>
      </trkpt>
      <trkpt lat="48.02081" lon="6.80675">
        <ele>753.607483</ele>
        <time>2019-08-16T13:02:21Z</time>
      </trkpt>
      <trkpt lat="48.02081" lon="6.80679">
        <ele>753.712463</ele>
        <time>2019-08-16T13:02:22Z</time>
      </trkpt>
      <trkpt lat="48.0208" lon="6.80682">
        <ele>753.816589</ele>
        <time>2019-08-16T13:02:23Z</time>
      </trkpt>
      <trkpt lat="48.02079" lon="6.80686">
        <ele>753.921814</ele>
        <time>2019-08-16T13:02:24Z</time>
      </trkpt>
      <trkpt lat="48.02078" lon="6.80689">
        <ele>754.030823</ele>
        <time>2019-08-16T13:02:25Z</time>
      </trkpt>
      <trkpt lat="48.02078" lon="6.80693">
        <ele>754.142578</ele>
        <time>2019-08-16T13:02:26Z</time>
      </trkpt>
      <trkpt lat="48.02077" lon="6.80697">
        <ele>754.254578</ele>
        <time>2019-08-16T13:02:27Z</time>
      </trkpt>
      <trkpt lat="48.02077" lon="6.807">
        <ele>754.357727</ele>
        <time>2019-08-16T13:02:28Z</time>
      </trkpt>
      <trkpt lat="48.02077" lon="6.80704">
        <ele>754.453613</ele>
        <time>2019-08-16T13:02:29Z</time>
      </trkpt>
      <trkpt lat="48.02078" lon="6.80707">
        <ele>754.539978</ele>
        <time>2019-08-16T13:02:30Z</time>
      </trkpt>
      <trkpt lat="48.02078" lon="6.80711">
        <ele>754.668701</ele>
        <time>2019-08-16T13:02:31Z</time>
      </trkpt>
      <trkpt lat="48.02078" lon="6.80715">
        <ele>754.752991</ele>
        <time>2019-08-16T13:02:32Z</time>
      </trkpt>
      <trkpt lat="48.02078" lon="6.80718">
        <ele>754.834045</ele>
        <time>2019-08-16T13:02:33Z</time>
      </trkpt>
      <trkpt lat="48.02079" lon="6.80722">
        <ele>754.90918</ele>
        <time>2019-08-16T13:02:34Z</time>
      </trkpt>
      <trkpt lat="48.02079" lon="6.80726">
        <ele>754.989929</ele>
        <time>2019-08-16T13:02:35Z</time>
      </trkpt>
      <trkpt lat="48.02079" lon="6.8073">
        <ele>755.133362</ele>
        <time>2019-08-16T13:02:36Z</time>
      </trkpt>
      <trkpt lat="48.0208" lon="6.80734">
        <ele>755.250549</ele>
        <time>2019-08-16T13:02:37Z</time>
      </trkpt>
      <trkpt lat="48.02081" lon="6.80738">
        <ele>755.381653</ele>
        <time>2019-08-16T13:02:38Z</time>
      </trkpt>
      <trkpt lat="48.02081" lon="6.80741">
        <ele>755.520508</ele>
        <time>2019-08-16T13:02:39Z</time>
      </trkpt>
      <trkpt lat="48.0208" lon="6.80745">
        <ele>755.719543</ele>
        <time>2019-08-16T13:02:40Z</time>
      </trkpt>
      <trkpt lat="48.0208" lon="6.80749">
        <ele>755.839539</ele>
        <time>2019-08-16T13:02:41Z</time>
      </trkpt>
      <trkpt lat="48.02081" lon="6.80754">
        <ele>755.949219</ele>
        <time>2019-08-16T13:02:42Z</time>
      </trkpt>
      <trkpt lat="48.02081" lon="6.80758">
        <ele>756.04425</ele>
        <time>2019-08-16T13:02:43Z</time>
      </trkpt>
      <trkpt lat="48.02081" lon="6.80763">
        <ele>756.124451</ele>
        <time>2019-08-16T13:02:44Z</time>
      </trkpt>
      <trkpt lat="48.02081" lon="6.80767">
        <ele>756.18927</ele>
        <time>2019-08-16T13:02:45Z</time>
      </trkpt>
      <trkpt lat="48.02081" lon="6.80771">
        <ele>756.242371</ele>
        <time>2019-08-16T13:02:46Z</time>
      </trkpt>
      <trkpt lat="48.02082" lon="6.80775">
        <ele>756.289856</ele>
        <time>2019-08-16T13:02:47Z</time>
      </trkpt>
      <trkpt lat="48.02082" lon="6.80779">
        <ele>756.331543</ele>
        <time>2019-08-16T13:02:48Z</time>
      </trkpt>
      <trkpt lat="48.02082" lon="6.80784">
        <ele>756.374817</ele>
        <time>2019-08-16T13:02:49Z</time>
      </trkpt>
      <trkpt lat="48.02082" lon="6.80788">
        <ele>756.421814</ele>
        <time>2019-08-16T13:02:50Z</time>
      </trkpt>
      <trkpt lat="48.02082" lon="6.80792">
        <ele>756.448975</ele>
        <time>2019-08-16T13:02:51Z</time>
      </trkpt>
      <trkpt lat="48.02082" lon="6.80797">
        <ele>756.477844</ele>
        <time>2019-08-16T13:02:52Z</time>
      </trkpt>
      <trkpt lat="48.02082" lon="6.80801">
        <ele>756.536804</ele>
        <time>2019-08-16T13:02:53Z</time>
      </trkpt>
      <trkpt lat="48.02082" lon="6.80805">
        <ele>756.595398</ele>
        <time>2019-08-16T13:02:54Z</time>
      </trkpt>
      <trkpt lat="48.02082" lon="6.80809">
        <ele>756.650574</ele>
        <time>2019-08-16T13:02:55Z</time>
      </trkpt>
      <trkpt lat="48.02082" lon="6.80813">
        <ele>756.702576</ele>
        <time>2019-08-16T13:02:56Z</time>
      </trkpt>
      <trkpt lat="48.02082" lon="6.80817">
        <ele>756.756104</ele>
        <time>2019-08-16T13:02:57Z</time>
      </trkpt>
      <trkpt lat="48.02082" lon="6.80822">
        <ele>756.811707</ele>
        <time>2019-08-16T13:02:58Z</time>
      </trkpt>
      <trkpt lat="48.02082" lon="6.80826">
        <ele>756.867615</ele>
        <time>2019-08-16T13:02:59Z</time>
      </trkpt>
      <trkpt lat="48.02081" lon="6.8083">
        <ele>756.917908</ele>
        <time>2019-08-16T13:03:00Z</time>
      </trkpt>
      <trkpt lat="48.0208" lon="6.80834">
        <ele>756.963379</ele>
        <time>2019-08-16T13:03:01Z</time>
      </trkpt>
      <trkpt lat="48.0208" lon="6.80837">
        <ele>757.017761</ele>
        <time>2019-08-16T13:03:02Z</time>
      </trkpt>
      <trkpt lat="48.02079" lon="6.80841">
        <ele>757.09375</ele>
        <time>2019-08-16T13:03:03Z</time>
      </trkpt>
      <trkpt lat="48.02078" lon="6.80845">
        <ele>757.198303</ele>
        <time>2019-08-16T13:03:04Z</time>
      </trkpt>
      <trkpt lat="48.02077" lon="6.80849">
        <ele>757.316467</ele>
        <time>2019-08-16T13:03:05Z</time>
      </trkpt>
      <trkpt lat="48.02076" lon="6.80853">
        <ele>757.44458</ele>
        <time>2019-08-16T13:03:06Z</time>
      </trkpt>
      <trkpt lat="48.02076" lon="6.80856">
        <ele>757.578674</ele>
        <time>2019-08-16T13:03:07Z</time>
      </trkpt>
      <trkpt lat="48.02074" lon="6.8086">
        <ele>757.721436</ele>
        <time>2019-08-16T13:03:08Z</time>
      </trkpt>
      <trkpt lat="48.02073" lon="6.80863">
        <ele>757.864502</ele>
        <time>2019-08-16T13:03:09Z</time>
      </trkpt>
      <trkpt lat="48.02072" lon="6.80867">
        <ele>758.000732</ele>
        <time>2019-08-16T13:03:10Z</time>
      </trkpt>
      <trkpt lat="48.02071" lon="6.8087">
        <ele>758.179382</ele>
        <time>2019-08-16T13:03:11Z</time>
      </trkpt>
      <trkpt lat="48.0207" lon="6.80874">
        <ele>758.285461</ele>
        <time>2019-08-16T13:03:12Z</time>
      </trkpt>
      <trkpt lat="48.02069" lon="6.80878">
        <ele>758.390137</ele>
        <time>2019-08-16T13:03:13Z</time>
      </trkpt>
      <trkpt lat="48.02069" lon="6.80882">
        <ele>758.490295</ele>
        <time>2019-08-16T13:03:14Z</time>
      </trkpt>
      <trkpt lat="48.02067" lon="6.80886">
        <ele>758.581726</ele>
        <time>2019-08-16T13:03:15Z</time>
      </trkpt>
      <trkpt lat="48.02066" lon="6.8089">
        <ele>758.664734</ele>
        <time>2019-08-16T13:03:16Z</time>
      </trkpt>
      <trkpt lat="48.02065" lon="6.80893">
        <ele>758.739441</ele>
        <time>2019-08-16T13:03:17Z</time>
      </trkpt>
      <trkpt lat="48.02064" lon="6.80897">
        <ele>758.810364</ele>
        <time>2019-08-16T13:03:18Z</time>
      </trkpt>
      <trkpt lat="48.02063" lon="6.80901">
        <ele>758.927429</ele>
        <time>2019-08-16T13:03:19Z</time>
      </trkpt>
      <trkpt lat="48.02062" lon="6.80904">
        <ele>759.013245</ele>
        <time>2019-08-16T13:03:20Z</time>
      </trkpt>
      <trkpt lat="48.02061" lon="6.80908">
        <ele>759.093506</ele>
        <time>2019-08-16T13:03:21Z</time>
      </trkpt>
      <trkpt lat="48.0206" lon="6.80912">
        <ele>759.163818</ele>
        <time>2019-08-16T13:03:22Z</time>
      </trkpt>
      <trkpt lat="48.0206" lon="6.80916">
        <ele>759.231934</ele>
        <time>2019-08-16T13:03:23Z</time>
      </trkpt>
      <trkpt lat="48.02059" lon="6.80919">
        <ele>759.309814</ele>
        <time>2019-08-16T13:03:24Z</time>
      </trkpt>
      <trkpt lat="48.02058" lon="6.80923">
        <ele>759.398926</ele>
        <time>2019-08-16T13:03:25Z</time>
      </trkpt>
      <trkpt lat="48.02058" lon="6.80928">
        <ele>759.493469</ele>
        <time>2019-08-16T13:03:26Z</time>
      </trkpt>
      <trkpt lat="48.02057" lon="6.80932">
        <ele>759.57959</ele>
        <time>2019-08-16T13:03:27Z</time>
      </trkpt>
      <trkpt lat="48.02056" lon="6.80935">
        <ele>759.661377</ele>
        <time>2019-08-16T13:03:28Z</time>
      </trkpt>
      <trkpt lat="48.02055" lon="6.8094">
        <ele>759.747742</ele>
        <time>2019-08-16T13:03:29Z</time>
      </trkpt>
      <trkpt lat="48.02055" lon="6.80944">
        <ele>759.845703</ele>
        <time>2019-08-16T13:03:30Z</time>
      </trkpt>
      <trkpt lat="48.02056" lon="6.80949">
        <ele>759.999023</ele>
        <time>2019-08-16T13:03:31Z</time>
      </trkpt>
      <trkpt lat="48.02057" lon="6.80953">
        <ele>760.09375</ele>
        <time>2019-08-16T13:03:32Z</time>
      </trkpt>
      <trkpt lat="48.02057" lon="6.80957">
        <ele>760.181458</ele>
        <time>2019-08-16T13:03:33Z</time>
      </trkpt>
      <trkpt lat="48.02057" lon="6.80962">
        <ele>760.269958</ele>
        <time>2019-08-16T13:03:34Z</time>
      </trkpt>
      <trkpt lat="48.02058" lon="6.80966">
        <ele>760.360291</ele>
        <time>2019-08-16T13:03:35Z</time>
      </trkpt>
      <trkpt lat="48.02058" lon="6.8097">
        <ele>760.448425</ele>
        <time>2019-08-16T13:03:36Z</time>
      </trkpt>
      <trkpt lat="48.02059" lon="6.80974">
        <ele>760.528503</ele>
        <time>2019-08-16T13:03:37Z</time>
      </trkpt>
      <trkpt lat="48.0206" lon="6.80978">
        <ele>760.60614</ele>
        <time>2019-08-16T13:03:38Z</time>
      </trkpt>
      <trkpt lat="48.0206" lon="6.80982">
        <ele>760.684387</ele>
        <time>2019-08-16T13:03:39Z</time>
      </trkpt>
      <trkpt lat="48.02059" lon="6.80986">
        <ele>760.760681</ele>
        <time>2019-08-16T13:03:40Z</time>
      </trkpt>
      <trkpt lat="48.02058" lon="6.80989">
        <ele>760.828918</ele>
        <time>2019-08-16T13:03:41Z</time>
      </trkpt>
      <trkpt lat="48.02058" lon="6.80993">
        <ele>760.884277</ele>
        <time>2019-08-16T13:03:42Z</time>
      </trkpt>
      <trkpt lat="48.02058" lon="6.80997">
        <ele>760.936523</ele>
        <time>2019-08-16T13:03:43Z</time>
      </trkpt>
      <trkpt lat="48.02058" lon="6.81001">
        <ele>760.987305</ele>
        <time>2019-08-16T13:03:44Z</time>
      </trkpt>
      <trkpt lat="48.02058" lon="6.81006">
        <ele>761.043701</ele>
        <time>2019-08-16T13:03:45Z</time>
      </trkpt>
      <trkpt lat="48.02057" lon="6.8101">
        <ele>761.102295</ele>
        <time>2019-08-16T13:03:46Z</time>
      </trkpt>
      <trkpt lat="48.02057" lon="6.81014">
        <ele>761.164063</ele>
        <time>2019-08-16T13:03:47Z</time>
      </trkpt>
      <trkpt lat="48.02056" lon="6.81018">
        <ele>761.237305</ele>
        <time>2019-08-16T13:03:48Z</time>
      </trkpt>
      <trkpt lat="48.02055" lon="6.81022">
        <ele>761.323975</ele>
        <time>2019-08-16T13:03:49Z</time>
      </trkpt>
      <trkpt lat="48.02055" lon="6.81026">
        <ele>761.429199</ele>
        <time>2019-08-16T13:03:50Z</time>
      </trkpt>
      <trkpt lat="48.02055" lon="6.8103">
        <ele>761.541321</ele>
        <time>2019-08-16T13:03:51Z</time>
      </trkpt>
      <trkpt lat="48.02055" lon="6.81035">
        <ele>761.600098</ele>
        <time>2019-08-16T13:03:52Z</time>
      </trkpt>
      <trkpt lat="48.02055" lon="6.81039">
        <ele>761.661133</ele>
        <time>2019-08-16T13:03:53Z</time>
      </trkpt>
      <trkpt lat="48.02055" lon="6.81044">
        <ele>761.785461</ele>
        <time>2019-08-16T13:03:54Z</time>
      </trkpt>
      <trkpt lat="48.02056" lon="6.81048">
        <ele>761.912415</ele>
        <time>2019-08-16T13:03:55Z</time>
      </trkpt>
      <trkpt lat="48.02055" lon="6.81052">
        <ele>762.032715</ele>
        <time>2019-08-16T13:03:56Z</time>
      </trkpt>
      <trkpt lat="48.02055" lon="6.81057">
        <ele>762.145569</ele>
        <time>2019-08-16T13:03:57Z</time>
      </trkpt>
      <trkpt lat="48.02056" lon="6.81061">
        <ele>762.25531</ele>
        <time>2019-08-16T13:03:58Z</time>
      </trkpt>
      <trkpt lat="48.02056" lon="6.81065">
        <ele>762.367859</ele>
        <time>2019-08-16T13:03:59Z</time>
      </trkpt>
      <trkpt lat="48.02056" lon="6.81069">
        <ele>762.481018</ele>
        <time>2019-08-16T13:04:00Z</time>
      </trkpt>
      <trkpt lat="48.02057" lon="6.81074">
        <ele>762.590271</ele>
        <time>2019-08-16T13:04:01Z</time>
      </trkpt>
      <trkpt lat="48.02057" lon="6.81078">
        <ele>762.689758</ele>
        <time>2019-08-16T13:04:02Z</time>
      </trkpt>
      <trkpt lat="48.02057" lon="6.81082">
        <ele>762.784729</ele>
        <time>2019-08-16T13:04:03Z</time>
      </trkpt>
      <trkpt lat="48.02057" lon="6.81086">
        <ele>762.878723</ele>
        <time>2019-08-16T13:04:04Z</time>
      </trkpt>
      <trkpt lat="48.02057" lon="6.8109">
        <ele>762.975037</ele>
        <time>2019-08-16T13:04:05Z</time>
      </trkpt>
      <trkpt lat="48.02058" lon="6.81094">
        <ele>763.070007</ele>
        <time>2019-08-16T13:04:06Z</time>
      </trkpt>
      <trkpt lat="48.02058" lon="6.81098">
        <ele>763.163574</ele>
        <time>2019-08-16T13:04:07Z</time>
      </trkpt>
      <trkpt lat="48.02058" lon="6.81102">
        <ele>763.258606</ele>
        <time>2019-08-16T13:04:08Z</time>
      </trkpt>
      <trkpt lat="48.02058" lon="6.81106">
        <ele>763.40863</ele>
        <time>2019-08-16T13:04:09Z</time>
      </trkpt>
      <trkpt lat="48.02059" lon="6.81109">
        <ele>763.51532</ele>
        <time>2019-08-16T13:04:10Z</time>
      </trkpt>
      <trkpt lat="48.02059" lon="6.81113">
        <ele>763.63208</ele>
        <time>2019-08-16T13:04:11Z</time>
      </trkpt>
      <trkpt lat="48.02059" lon="6.81117">
        <ele>763.760254</ele>
        <time>2019-08-16T13:04:12Z</time>
      </trkpt>
      <trkpt lat="48.02059" lon="6.81121">
        <ele>763.895569</ele>
        <time>2019-08-16T13:04:13Z</time>
      </trkpt>
      <trkpt lat="48.02059" lon="6.81125">
        <ele>764.033447</ele>
        <time>2019-08-16T13:04:14Z</time>
      </trkpt>
      <trkpt lat="48.02059" lon="6.81129">
        <ele>764.171692</ele>
        <time>2019-08-16T13:04:15Z</time>
      </trkpt>
      <trkpt lat="48.0206" lon="6.81133">
        <ele>764.316223</ele>
        <time>2019-08-16T13:04:16Z</time>
      </trkpt>
      <trkpt lat="48.0206" lon="6.81137">
        <ele>764.46637</ele>
        <time>2019-08-16T13:04:17Z</time>
      </trkpt>
      <trkpt lat="48.0206" lon="6.81141">
        <ele>764.617615</ele>
        <time>2019-08-16T13:04:18Z</time>
      </trkpt>
      <trkpt lat="48.0206" lon="6.81145">
        <ele>764.759766</ele>
        <time>2019-08-16T13:04:19Z</time>
      </trkpt>
      <trkpt lat="48.0206" lon="6.81149">
        <ele>764.881592</ele>
        <time>2019-08-16T13:04:20Z</time>
      </trkpt>
      <trkpt lat="48.0206" lon="6.81154">
        <ele>764.981934</ele>
        <time>2019-08-16T13:04:21Z</time>
      </trkpt>
      <trkpt lat="48.0206" lon="6.81158">
        <ele>765.070984</ele>
        <time>2019-08-16T13:04:22Z</time>
      </trkpt>
      <trkpt lat="48.0206" lon="6.81163">
        <ele>765.155518</ele>
        <time>2019-08-16T13:04:23Z</time>
      </trkpt>
      <trkpt lat="48.0206" lon="6.81167">
        <ele>765.237976</ele>
        <time>2019-08-16T13:04:24Z</time>
      </trkpt>
      <trkpt lat="48.02059" lon="6.81171">
        <ele>765.315369</ele>
        <time>2019-08-16T13:04:25Z</time>
      </trkpt>
      <trkpt lat="48.02058" lon="6.81175">
        <ele>765.390076</ele>
        <time>2019-08-16T13:04:26Z</time>
      </trkpt>
      <trkpt lat="48.02058" lon="6.81179">
        <ele>765.46344</ele>
        <time>2019-08-16T13:04:27Z</time>
      </trkpt>
      <trkpt lat="48.02057" lon="6.81184">
        <ele>765.537109</ele>
        <time>2019-08-16T13:04:28Z</time>
      </trkpt>
      <trkpt lat="48.02057" lon="6.81188">
        <ele>765.612305</ele>
        <time>2019-08-16T13:04:29Z</time>
      </trkpt>
      <trkpt lat="48.02057" lon="6.81192">
        <ele>765.733459</ele>
        <time>2019-08-16T13:04:30Z</time>
      </trkpt>
      <trkpt lat="48.02056" lon="6.81196">
        <ele>765.82074</ele>
        <time>2019-08-16T13:04:31Z</time>
      </trkpt>
      <trkpt lat="48.02055" lon="6.812">
        <ele>765.908752</ele>
        <time>2019-08-16T13:04:32Z</time>
      </trkpt>
      <trkpt lat="48.02054" lon="6.81204">
        <ele>765.996643</ele>
        <time>2019-08-16T13:04:33Z</time>
      </trkpt>
      <trkpt lat="48.02053" lon="6.81208">
        <ele>766.082764</ele>
        <time>2019-08-16T13:04:34Z</time>
      </trkpt>
      <trkpt lat="48.02052" lon="6.81212">
        <ele>766.169861</ele>
        <time>2019-08-16T13:04:35Z</time>
      </trkpt>
      <trkpt lat="48.02051" lon="6.81216">
        <ele>766.257568</ele>
        <time>2019-08-16T13:04:36Z</time>
      </trkpt>
      <trkpt lat="48.0205" lon="6.8122">
        <ele>766.343689</ele>
        <time>2019-08-16T13:04:37Z</time>
      </trkpt>
      <trkpt lat="48.02049" lon="6.81224">
        <ele>766.422791</ele>
        <time>2019-08-16T13:04:38Z</time>
      </trkpt>
      <trkpt lat="48.02048" lon="6.81228">
        <ele>766.494141</ele>
        <time>2019-08-16T13:04:39Z</time>
      </trkpt>
      <trkpt lat="48.02047" lon="6.81232">
        <ele>766.564514</ele>
        <time>2019-08-16T13:04:40Z</time>
      </trkpt>
      <trkpt lat="48.02045" lon="6.81236">
        <ele>766.63678</ele>
        <time>2019-08-16T13:04:41Z</time>
      </trkpt>
      <trkpt lat="48.02044" lon="6.8124">
        <ele>766.717957</ele>
        <time>2019-08-16T13:04:42Z</time>
      </trkpt>
      <trkpt lat="48.02044" lon="6.81244">
        <ele>766.857483</ele>
        <time>2019-08-16T13:04:43Z</time>
      </trkpt>
      <trkpt lat="48.02043" lon="6.81248">
        <ele>766.962402</ele>
        <time>2019-08-16T13:04:44Z</time>
      </trkpt>
      <trkpt lat="48.02042" lon="6.81252">
        <ele>767.071289</ele>
        <time>2019-08-16T13:04:45Z</time>
      </trkpt>
      <trkpt lat="48.02041" lon="6.81256">
        <ele>767.185547</ele>
        <time>2019-08-16T13:04:46Z</time>
      </trkpt>
      <trkpt lat="48.02041" lon="6.81259">
        <ele>767.300964</ele>
        <time>2019-08-16T13:04:47Z</time>
      </trkpt>
      <trkpt lat="48.02039" lon="6.81263">
        <ele>767.414368</ele>
        <time>2019-08-16T13:04:48Z</time>
      </trkpt>
      <trkpt lat="48.02037" lon="6.81268">
        <ele>767.527344</ele>
        <time>2019-08-16T13:04:49Z</time>
      </trkpt>
      <trkpt lat="48.02037" lon="6.81272">
        <ele>767.63916</ele>
        <time>2019-08-16T13:04:50Z</time>
      </trkpt>
      <trkpt lat="48.02036" lon="6.81276">
        <ele>767.747986</ele>
        <time>2019-08-16T13:04:51Z</time>
      </trkpt>
      <trkpt lat="48.02035" lon="6.8128">
        <ele>767.798889</ele>
        <time>2019-08-16T13:04:52Z</time>
      </trkpt>
      <trkpt lat="48.02034" lon="6.81284">
        <ele>767.889832</ele>
        <time>2019-08-16T13:04:53Z</time>
      </trkpt>
      <trkpt lat="48.02034" lon="6.81288">
        <ele>767.967957</ele>
        <time>2019-08-16T13:04:54Z</time>
      </trkpt>
      <trkpt lat="48.02033" lon="6.81292">
        <ele>768.039307</ele>
        <time>2019-08-16T13:04:55Z</time>
      </trkpt>
      <trkpt lat="48.02031" lon="6.81296">
        <ele>768.109863</ele>
        <time>2019-08-16T13:04:56Z</time>
      </trkpt>
      <trkpt lat="48.02031" lon="6.813">
        <ele>768.177307</ele>
        <time>2019-08-16T13:04:57Z</time>
      </trkpt>
      <trkpt lat="48.0203" lon="6.81304">
        <ele>768.23761</ele>
        <time>2019-08-16T13:04:58Z</time>
      </trkpt>
      <trkpt lat="48.02029" lon="6.81308">
        <ele>768.285095</ele>
        <time>2019-08-16T13:04:59Z</time>
      </trkpt>
      <trkpt lat="48.02028" lon="6.81312">
        <ele>768.346924</ele>
        <time>2019-08-16T13:05:00Z</time>
      </trkpt>
      <trkpt lat="48.02026" lon="6.81316">
        <ele>768.398499</ele>
        <time>2019-08-16T13:05:01Z</time>
      </trkpt>
      <trkpt lat="48.02025" lon="6.81319">
        <ele>768.461731</ele>
        <time>2019-08-16T13:05:02Z</time>
      </trkpt>
      <trkpt lat="48.02023" lon="6.81323">
        <ele>768.529968</ele>
        <time>2019-08-16T13:05:03Z</time>
      </trkpt>
      <trkpt lat="48.02021" lon="6.81326">
        <ele>768.596191</ele>
        <time>2019-08-16T13:05:04Z</time>
      </trkpt>
      <trkpt lat="48.0202" lon="6.81329">
        <ele>768.6651</ele>
        <time>2019-08-16T13:05:05Z</time>
      </trkpt>
      <trkpt lat="48.02018" lon="6.81333">
        <ele>768.740051</ele>
        <time>2019-08-16T13:05:06Z</time>
      </trkpt>
      <trkpt lat="48.02016" lon="6.81336">
        <ele>768.874023</ele>
        <time>2019-08-16T13:05:07Z</time>
      </trkpt>
      <trkpt lat="48.02015" lon="6.81339">
        <ele>768.976379</ele>
        <time>2019-08-16T13:05:08Z</time>
      </trkpt>
      <trkpt lat="48.02013" lon="6.81342">
        <ele>769.083008</ele>
        <time>2019-08-16T13:05:09Z</time>
      </trkpt>
      <trkpt lat="48.02011" lon="6.81345">
        <ele>769.193359</ele>
        <time>2019-08-16T13:05:10Z</time>
      </trkpt>
      <trkpt lat="48.02009" lon="6.81348">
        <ele>769.309143</ele>
        <time>2019-08-16T13:05:11Z</time>
      </trkpt>
      <trkpt lat="48.02007" lon="6.81351">
        <ele>769.426758</ele>
        <time>2019-08-16T13:05:12Z</time>
      </trkpt>
      <trkpt lat="48.02005" lon="6.81355">
        <ele>769.539551</ele>
        <time>2019-08-16T13:05:13Z</time>
      </trkpt>
      <trkpt lat="48.02003" lon="6.81358">
        <ele>769.651428</ele>
        <time>2019-08-16T13:05:14Z</time>
      </trkpt>
      <trkpt lat="48.02001" lon="6.8136">
        <ele>769.820984</ele>
        <time>2019-08-16T13:05:15Z</time>
      </trkpt>
      <trkpt lat="48.01999" lon="6.81363">
        <ele>769.93335</ele>
        <time>2019-08-16T13:05:16Z</time>
      </trkpt>
      <trkpt lat="48.01996" lon="6.81366">
        <ele>770.046692</ele>
        <time>2019-08-16T13:05:17Z</time>
      </trkpt>
      <trkpt lat="48.01994" lon="6.81368">
        <ele>770.167786</ele>
        <time>2019-08-16T13:05:18Z</time>
      </trkpt>
      <trkpt lat="48.01992" lon="6.81371">
        <ele>770.364746</ele>
        <time>2019-08-16T13:05:19Z</time>
      </trkpt>
      <trkpt lat="48.0199" lon="6.81373">
        <ele>770.503845</ele>
        <time>2019-08-16T13:05:20Z</time>
      </trkpt>
      <trkpt lat="48.01988" lon="6.81376">
        <ele>770.641907</ele>
        <time>2019-08-16T13:05:21Z</time>
      </trkpt>
      <trkpt lat="48.01986" lon="6.81379">
        <ele>770.841736</ele>
        <time>2019-08-16T13:05:22Z</time>
      </trkpt>
      <trkpt lat="48.01984" lon="6.81381">
        <ele>770.968079</ele>
        <time>2019-08-16T13:05:23Z</time>
      </trkpt>
      <trkpt lat="48.01982" lon="6.81383">
        <ele>771.08844</ele>
        <time>2019-08-16T13:05:24Z</time>
      </trkpt>
      <trkpt lat="48.0198" lon="6.81386">
        <ele>771.257813</ele>
        <time>2019-08-16T13:05:25Z</time>
      </trkpt>
      <trkpt lat="48.01979" lon="6.81389">
        <ele>771.361572</ele>
        <time>2019-08-16T13:05:26Z</time>
      </trkpt>
      <trkpt lat="48.01976" lon="6.81392">
        <ele>771.457825</ele>
        <time>2019-08-16T13:05:27Z</time>
      </trkpt>
      <trkpt lat="48.01974" lon="6.81394">
        <ele>771.581543</ele>
        <time>2019-08-16T13:05:28Z</time>
      </trkpt>
      <trkpt lat="48.01972" lon="6.81397">
        <ele>771.654297</ele>
        <time>2019-08-16T13:05:29Z</time>
      </trkpt>
      <trkpt lat="48.0197" lon="6.81399">
        <ele>771.729248</ele>
        <time>2019-08-16T13:05:30Z</time>
      </trkpt>
      <trkpt lat="48.01968" lon="6.81401">
        <ele>771.864563</ele>
        <time>2019-08-16T13:05:31Z</time>
      </trkpt>
      <trkpt lat="48.01965" lon="6.81403">
        <ele>771.960388</ele>
        <time>2019-08-16T13:05:32Z</time>
      </trkpt>
      <trkpt lat="48.01963" lon="6.81405">
        <ele>772.053162</ele>
        <time>2019-08-16T13:05:33Z</time>
      </trkpt>
      <trkpt lat="48.01962" lon="6.81407">
        <ele>772.196106</ele>
        <time>2019-08-16T13:05:34Z</time>
      </trkpt>
      <trkpt lat="48.0196" lon="6.81409">
        <ele>772.304504</ele>
        <time>2019-08-16T13:05:35Z</time>
      </trkpt>
      <trkpt lat="48.01958" lon="6.8141">
        <ele>772.421814</ele>
        <time>2019-08-16T13:05:36Z</time>
      </trkpt>
      <trkpt lat="48.01956" lon="6.81412">
        <ele>772.594421</ele>
        <time>2019-08-16T13:05:37Z</time>
      </trkpt>
      <trkpt lat="48.01954" lon="6.81414">
        <ele>772.70459</ele>
        <time>2019-08-16T13:05:38Z</time>
      </trkpt>
      <trkpt lat="48.01952" lon="6.81416">
        <ele>772.822449</ele>
        <time>2019-08-16T13:05:39Z</time>
      </trkpt>
      <trkpt lat="48.01949" lon="6.81418">
        <ele>772.960266</ele>
        <time>2019-08-16T13:05:40Z</time>
      </trkpt>
      <trkpt lat="48.01947" lon="6.81419">
        <ele>773.19928</ele>
        <time>2019-08-16T13:05:41Z</time>
      </trkpt>
      <trkpt lat="48.01946" lon="6.81421">
        <ele>773.363708</ele>
        <time>2019-08-16T13:05:42Z</time>
      </trkpt>
      <trkpt lat="48.01943" lon="6.81422">
        <ele>773.522888</ele>
        <time>2019-08-16T13:05:43Z</time>
      </trkpt>
      <trkpt lat="48.01941" lon="6.81423">
        <ele>773.75</ele>
        <time>2019-08-16T13:05:44Z</time>
      </trkpt>
      <trkpt lat="48.01939" lon="6.81424">
        <ele>773.891357</ele>
        <time>2019-08-16T13:05:45Z</time>
      </trkpt>
      <trkpt lat="48.01937" lon="6.81425">
        <ele>774.022644</ele>
        <time>2019-08-16T13:05:46Z</time>
      </trkpt>
      <trkpt lat="48.01934" lon="6.81426">
        <ele>774.195801</ele>
        <time>2019-08-16T13:05:47Z</time>
      </trkpt>
      <trkpt lat="48.01933" lon="6.81427">
        <ele>774.303162</ele>
        <time>2019-08-16T13:05:48Z</time>
      </trkpt>
      <trkpt lat="48.0193" lon="6.81428">
        <ele>774.414368</ele>
        <time>2019-08-16T13:05:49Z</time>
      </trkpt>
      <trkpt lat="48.01928" lon="6.81429">
        <ele>774.599304</ele>
        <time>2019-08-16T13:05:50Z</time>
      </trkpt>
      <trkpt lat="48.01926" lon="6.8143">
        <ele>774.726563</ele>
        <time>2019-08-16T13:05:51Z</time>
      </trkpt>
      <trkpt lat="48.01924" lon="6.8143">
        <ele>774.853516</ele>
        <time>2019-08-16T13:05:52Z</time>
      </trkpt>
      <trkpt lat="48.01922" lon="6.81431">
        <ele>774.916321</ele>
        <time>2019-08-16T13:05:53Z</time>
      </trkpt>
      <trkpt lat="48.0192" lon="6.81432">
        <ele>774.980164</ele>
        <time>2019-08-16T13:05:54Z</time>
      </trkpt>
      <trkpt lat="48.01918" lon="6.81433">
        <ele>775.046082</ele>
        <time>2019-08-16T13:05:55Z</time>
      </trkpt>
      <trkpt lat="48.01916" lon="6.81433">
        <ele>775.258606</ele>
        <time>2019-08-16T13:05:56Z</time>
      </trkpt>
      <trkpt lat="48.01914" lon="6.81434">
        <ele>775.408386</ele>
        <time>2019-08-16T13:05:57Z</time>
      </trkpt>
      <trkpt lat="48.01912" lon="6.81435">
        <ele>775.562683</ele>
        <time>2019-08-16T13:05:58Z</time>
      </trkpt>
      <trkpt lat="48.0191" lon="6.81436">
        <ele>775.805908</ele>
        <time>2019-08-16T13:05:59Z</time>
      </trkpt>
      <trkpt lat="48.01908" lon="6.81436">
        <ele>775.984131</ele>
        <time>2019-08-16T13:06:00Z</time>
      </trkpt>
      <trkpt lat="48.01906" lon="6.81437">
        <ele>776.17334</ele>
        <time>2019-08-16T13:06:01Z</time>
      </trkpt>
      <trkpt lat="48.01904" lon="6.81438">
        <ele>776.466858</ele>
        <time>2019-08-16T13:06:02Z</time>
      </trkpt>
      <trkpt lat="48.01903" lon="6.81439">
        <ele>776.658264</ele>
        <time>2019-08-16T13:06:03Z</time>
      </trkpt>
      <trkpt lat="48.01902" lon="6.8144">
        <ele>776.920959</ele>
        <time>2019-08-16T13:06:04Z</time>
      </trkpt>
      <trkpt lat="48.01901" lon="6.81441">
        <ele>777.075378</ele>
        <time>2019-08-16T13:06:05Z</time>
      </trkpt>
      <trkpt lat="48.01898" lon="6.81442">
        <ele>777.218445</ele>
        <time>2019-08-16T13:06:06Z</time>
      </trkpt>
      <trkpt lat="48.01896" lon="6.81443">
        <ele>777.42157</ele>
        <time>2019-08-16T13:06:07Z</time>
      </trkpt>
      <trkpt lat="48.01894" lon="6.81444">
        <ele>777.549561</ele>
        <time>2019-08-16T13:06:08Z</time>
      </trkpt>
      <trkpt lat="48.01892" lon="6.81445">
        <ele>777.667297</ele>
        <time>2019-08-16T13:06:09Z</time>
      </trkpt>
      <trkpt lat="48.0189" lon="6.81445">
        <ele>777.830383</ele>
        <time>2019-08-16T13:06:10Z</time>
      </trkpt>
      <trkpt lat="48.01888" lon="6.81445">
        <ele>777.941101</ele>
        <time>2019-08-16T13:06:11Z</time>
      </trkpt>
      <trkpt lat="48.01886" lon="6.81446">
        <ele>778.064392</ele>
        <time>2019-08-16T13:06:12Z</time>
      </trkpt>
      <trkpt lat="48.01884" lon="6.81447">
        <ele>778.262695</ele>
        <time>2019-08-16T13:06:13Z</time>
      </trkpt>
      <trkpt lat="48.01882" lon="6.81448">
        <ele>778.395935</ele>
        <time>2019-08-16T13:06:14Z</time>
      </trkpt>
      <trkpt lat="48.0188" lon="6.8145">
        <ele>778.52594</ele>
        <time>2019-08-16T13:06:15Z</time>
      </trkpt>
      <trkpt lat="48.01878" lon="6.81451">
        <ele>778.715271</ele>
        <time>2019-08-16T13:06:16Z</time>
      </trkpt>
      <trkpt lat="48.01875" lon="6.81453">
        <ele>778.833008</ele>
        <time>2019-08-16T13:06:17Z</time>
      </trkpt>
      <trkpt lat="48.01873" lon="6.81454">
        <ele>778.941345</ele>
        <time>2019-08-16T13:06:18Z</time>
      </trkpt>
      <trkpt lat="48.01871" lon="6.81456">
        <ele>779.085876</ele>
        <time>2019-08-16T13:06:19Z</time>
      </trkpt>
      <trkpt lat="48.0187" lon="6.81457">
        <ele>779.16571</ele>
        <time>2019-08-16T13:06:20Z</time>
      </trkpt>
      <trkpt lat="48.01868" lon="6.81459">
        <ele>779.236023</ele>
        <time>2019-08-16T13:06:21Z</time>
      </trkpt>
      <trkpt lat="48.01866" lon="6.8146">
        <ele>779.300537</ele>
        <time>2019-08-16T13:06:22Z</time>
      </trkpt>
      <trkpt lat="48.01864" lon="6.81461">
        <ele>779.395203</ele>
        <time>2019-08-16T13:06:23Z</time>
      </trkpt>
      <trkpt lat="48.01861" lon="6.81463">
        <ele>779.466125</ele>
        <time>2019-08-16T13:06:24Z</time>
      </trkpt>
      <trkpt lat="48.01859" lon="6.81464">
        <ele>779.55072</ele>
        <time>2019-08-16T13:06:25Z</time>
      </trkpt>
      <trkpt lat="48.01857" lon="6.81465">
        <ele>779.705505</ele>
        <time>2019-08-16T13:06:26Z</time>
      </trkpt>
      <trkpt lat="48.01855" lon="6.81467">
        <ele>779.834412</ele>
        <time>2019-08-16T13:06:27Z</time>
      </trkpt>
      <trkpt lat="48.01854" lon="6.81469">
        <ele>779.981934</ele>
        <time>2019-08-16T13:06:28Z</time>
      </trkpt>
      <trkpt lat="48.01852" lon="6.81471">
        <ele>780.216858</ele>
        <time>2019-08-16T13:06:29Z</time>
      </trkpt>
      <trkpt lat="48.0185" lon="6.81472">
        <ele>780.372498</ele>
        <time>2019-08-16T13:06:30Z</time>
      </trkpt>
      <trkpt lat="48.01848" lon="6.81473">
        <ele>780.526672</ele>
        <time>2019-08-16T13:06:31Z</time>
      </trkpt>
      <trkpt lat="48.01846" lon="6.81474">
        <ele>780.749512</ele>
        <time>2019-08-16T13:06:32Z</time>
      </trkpt>
      <trkpt lat="48.01843" lon="6.81476">
        <ele>780.890137</ele>
        <time>2019-08-16T13:06:33Z</time>
      </trkpt>
      <trkpt lat="48.01841" lon="6.81477">
        <ele>781.018799</ele>
        <time>2019-08-16T13:06:34Z</time>
      </trkpt>
      <trkpt lat="48.01839" lon="6.81479">
        <ele>781.191345</ele>
        <time>2019-08-16T13:06:35Z</time>
      </trkpt>
      <trkpt lat="48.01838" lon="6.8148">
        <ele>781.302246</ele>
        <time>2019-08-16T13:06:36Z</time>
      </trkpt>
      <trkpt lat="48.01836" lon="6.81481">
        <ele>781.41803</ele>
        <time>2019-08-16T13:06:37Z</time>
      </trkpt>
      <trkpt lat="48.01834" lon="6.81482">
        <ele>781.596985</ele>
        <time>2019-08-16T13:06:38Z</time>
      </trkpt>
      <trkpt lat="48.01832" lon="6.81483">
        <ele>781.716858</ele>
        <time>2019-08-16T13:06:39Z</time>
      </trkpt>
      <trkpt lat="48.01829" lon="6.81484">
        <ele>781.829895</ele>
        <time>2019-08-16T13:06:40Z</time>
      </trkpt>
      <trkpt lat="48.01827" lon="6.81486">
        <ele>781.976135</ele>
        <time>2019-08-16T13:06:41Z</time>
      </trkpt>
      <trkpt lat="48.01825" lon="6.81487">
        <ele>782.065918</ele>
        <time>2019-08-16T13:06:42Z</time>
      </trkpt>
      <trkpt lat="48.01822" lon="6.81488">
        <ele>782.211731</ele>
        <time>2019-08-16T13:06:43Z</time>
      </trkpt>
      <trkpt lat="48.01821" lon="6.8149">
        <ele>782.318054</ele>
        <time>2019-08-16T13:06:44Z</time>
      </trkpt>
      <trkpt lat="48.01819" lon="6.81491">
        <ele>782.431885</ele>
        <time>2019-08-16T13:06:45Z</time>
      </trkpt>
      <trkpt lat="48.01817" lon="6.81492">
        <ele>782.632996</ele>
        <time>2019-08-16T13:06:46Z</time>
      </trkpt>
      <trkpt lat="48.01815" lon="6.81493">
        <ele>782.787415</ele>
        <time>2019-08-16T13:06:47Z</time>
      </trkpt>
      <trkpt lat="48.01813" lon="6.81494">
        <ele>782.956543</ele>
        <time>2019-08-16T13:06:48Z</time>
      </trkpt>
      <trkpt lat="48.01811" lon="6.81494">
        <ele>783.221375</ele>
        <time>2019-08-16T13:06:49Z</time>
      </trkpt>
      <trkpt lat="48.01809" lon="6.81495">
        <ele>783.40625</ele>
        <time>2019-08-16T13:06:50Z</time>
      </trkpt>
      <trkpt lat="48.01806" lon="6.81495">
        <ele>783.592957</ele>
        <time>2019-08-16T13:06:51Z</time>
      </trkpt>
      <trkpt lat="48.01803" lon="6.81496">
        <ele>783.868713</ele>
        <time>2019-08-16T13:06:52Z</time>
      </trkpt>
      <trkpt lat="48.01801" lon="6.81496">
        <ele>783.957031</ele>
        <time>2019-08-16T13:06:53Z</time>
      </trkpt>
      <trkpt lat="48.01798" lon="6.81497">
        <ele>784.21582</ele>
        <time>2019-08-16T13:06:54Z</time>
      </trkpt>
      <trkpt lat="48.01796" lon="6.81497">
        <ele>784.377502</ele>
        <time>2019-08-16T13:06:55Z</time>
      </trkpt>
      <trkpt lat="48.01793" lon="6.81497">
        <ele>784.523743</ele>
        <time>2019-08-16T13:06:56Z</time>
      </trkpt>
      <trkpt lat="48.01791" lon="6.81496">
        <ele>784.713074</ele>
        <time>2019-08-16T13:06:57Z</time>
      </trkpt>
      <trkpt lat="48.01789" lon="6.81496">
        <ele>784.826355</ele>
        <time>2019-08-16T13:06:58Z</time>
      </trkpt>
      <trkpt lat="48.01786" lon="6.81495">
        <ele>784.933044</ele>
        <time>2019-08-16T13:06:59Z</time>
      </trkpt>
      <trkpt lat="48.01784" lon="6.81495">
        <ele>785.08783</ele>
        <time>2019-08-16T13:07:00Z</time>
      </trkpt>
      <trkpt lat="48.01782" lon="6.81495">
        <ele>785.190186</ele>
        <time>2019-08-16T13:07:01Z</time>
      </trkpt>
      <trkpt lat="48.0178" lon="6.81495">
        <ele>785.342773</ele>
        <time>2019-08-16T13:07:02Z</time>
      </trkpt>
      <trkpt lat="48.01778" lon="6.81494">
        <ele>785.439636</ele>
        <time>2019-08-16T13:07:03Z</time>
      </trkpt>
      <trkpt lat="48.01775" lon="6.81494">
        <ele>785.534729</ele>
        <time>2019-08-16T13:07:04Z</time>
      </trkpt>
      <trkpt lat="48.01773" lon="6.81494">
        <ele>785.679871</ele>
        <time>2019-08-16T13:07:05Z</time>
      </trkpt>
      <trkpt lat="48.0177" lon="6.81494">
        <ele>785.774841</ele>
        <time>2019-08-16T13:07:06Z</time>
      </trkpt>
      <trkpt lat="48.01769" lon="6.81494">
        <ele>785.86377</ele>
        <time>2019-08-16T13:07:07Z</time>
      </trkpt>
      <trkpt lat="48.01767" lon="6.81493">
        <ele>785.977783</ele>
        <time>2019-08-16T13:07:08Z</time>
      </trkpt>
      <trkpt lat="48.01765" lon="6.81493">
        <ele>786.041443</ele>
        <time>2019-08-16T13:07:09Z</time>
      </trkpt>
      <trkpt lat="48.01763" lon="6.81493">
        <ele>786.151855</ele>
        <time>2019-08-16T13:07:10Z</time>
      </trkpt>
      <trkpt lat="48.01761" lon="6.81493">
        <ele>786.237366</ele>
        <time>2019-08-16T13:07:11Z</time>
      </trkpt>
      <trkpt lat="48.01759" lon="6.81493">
        <ele>786.332458</ele>
        <time>2019-08-16T13:07:12Z</time>
      </trkpt>
      <trkpt lat="48.01757" lon="6.81494">
        <ele>786.490479</ele>
        <time>2019-08-16T13:07:13Z</time>
      </trkpt>
      <trkpt lat="48.01755" lon="6.81494">
        <ele>786.604797</ele>
        <time>2019-08-16T13:07:14Z</time>
      </trkpt>
      <trkpt lat="48.01754" lon="6.81493">
        <ele>786.726013</ele>
        <time>2019-08-16T13:07:15Z</time>
      </trkpt>
      <trkpt lat="48.01751" lon="6.81493">
        <ele>786.916565</ele>
        <time>2019-08-16T13:07:16Z</time>
      </trkpt>
      <trkpt lat="48.01749" lon="6.81493">
        <ele>787.044189</ele>
        <time>2019-08-16T13:07:17Z</time>
      </trkpt>
      <trkpt lat="48.01747" lon="6.81493">
        <ele>787.173523</ele>
        <time>2019-08-16T13:07:18Z</time>
      </trkpt>
      <trkpt lat="48.01745" lon="6.81493">
        <ele>787.384216</ele>
        <time>2019-08-16T13:07:19Z</time>
      </trkpt>
      <trkpt lat="48.01743" lon="6.81493">
        <ele>787.530029</ele>
        <time>2019-08-16T13:07:20Z</time>
      </trkpt>
      <trkpt lat="48.01741" lon="6.81494">
        <ele>787.674072</ele>
        <time>2019-08-16T13:07:21Z</time>
      </trkpt>
      <trkpt lat="48.01739" lon="6.81495">
        <ele>787.884827</ele>
        <time>2019-08-16T13:07:22Z</time>
      </trkpt>
      <trkpt lat="48.01737" lon="6.81496">
        <ele>788.024353</ele>
        <time>2019-08-16T13:07:23Z</time>
      </trkpt>
      <trkpt lat="48.01735" lon="6.81497">
        <ele>788.158142</ele>
        <time>2019-08-16T13:07:24Z</time>
      </trkpt>
      <trkpt lat="48.01733" lon="6.81498">
        <ele>788.349792</ele>
        <time>2019-08-16T13:07:25Z</time>
      </trkpt>
      <trkpt lat="48.0173" lon="6.81499">
        <ele>788.476746</ele>
        <time>2019-08-16T13:07:26Z</time>
      </trkpt>
      <trkpt lat="48.01728" lon="6.815">
        <ele>788.605225</ele>
        <time>2019-08-16T13:07:27Z</time>
      </trkpt>
      <trkpt lat="48.01726" lon="6.81501">
        <ele>788.795715</ele>
        <time>2019-08-16T13:07:28Z</time>
      </trkpt>
      <trkpt lat="48.01724" lon="6.81502">
        <ele>788.916504</ele>
        <time>2019-08-16T13:07:29Z</time>
      </trkpt>
      <trkpt lat="48.01721" lon="6.81503">
        <ele>789.030518</ele>
        <time>2019-08-16T13:07:30Z</time>
      </trkpt>
      <trkpt lat="48.01719" lon="6.81504">
        <ele>789.187195</ele>
        <time>2019-08-16T13:07:31Z</time>
      </trkpt>
      <trkpt lat="48.01717" lon="6.81505">
        <ele>789.279053</ele>
        <time>2019-08-16T13:07:32Z</time>
      </trkpt>
      <trkpt lat="48.01716" lon="6.81506">
        <ele>789.366638</ele>
        <time>2019-08-16T13:07:33Z</time>
      </trkpt>
      <trkpt lat="48.01714" lon="6.81508">
        <ele>789.518555</ele>
        <time>2019-08-16T13:07:34Z</time>
      </trkpt>
      <trkpt lat="48.01711" lon="6.81509">
        <ele>789.646545</ele>
        <time>2019-08-16T13:07:35Z</time>
      </trkpt>
      <trkpt lat="48.01709" lon="6.81511">
        <ele>789.792664</ele>
        <time>2019-08-16T13:07:36Z</time>
      </trkpt>
      <trkpt lat="48.01708" lon="6.81512">
        <ele>790.034668</ele>
        <time>2019-08-16T13:07:37Z</time>
      </trkpt>
      <trkpt lat="48.01706" lon="6.81514">
        <ele>790.203674</ele>
        <time>2019-08-16T13:07:38Z</time>
      </trkpt>
      <trkpt lat="48.01704" lon="6.81515">
        <ele>790.373779</ele>
        <time>2019-08-16T13:07:39Z</time>
      </trkpt>
      <trkpt lat="48.01702" lon="6.81517">
        <ele>790.619568</ele>
        <time>2019-08-16T13:07:40Z</time>
      </trkpt>
      <trkpt lat="48.017" lon="6.81519">
        <ele>790.770935</ele>
        <time>2019-08-16T13:07:41Z</time>
      </trkpt>
      <trkpt lat="48.01698" lon="6.81521">
        <ele>790.907288</ele>
        <time>2019-08-16T13:07:42Z</time>
      </trkpt>
      <trkpt lat="48.01696" lon="6.81522">
        <ele>791.026855</ele>
        <time>2019-08-16T13:07:43Z</time>
      </trkpt>
      <trkpt lat="48.01693" lon="6.81523">
        <ele>791.1875</ele>
        <time>2019-08-16T13:07:44Z</time>
      </trkpt>
      <trkpt lat="48.01691" lon="6.81525">
        <ele>791.298645</ele>
        <time>2019-08-16T13:07:45Z</time>
      </trkpt>
      <trkpt lat="48.01689" lon="6.81526">
        <ele>791.422913</ele>
        <time>2019-08-16T13:07:46Z</time>
      </trkpt>
      <trkpt lat="48.01688" lon="6.81527">
        <ele>791.631104</ele>
        <time>2019-08-16T13:07:47Z</time>
      </trkpt>
      <trkpt lat="48.01687" lon="6.81528">
        <ele>791.780518</ele>
        <time>2019-08-16T13:07:48Z</time>
      </trkpt>
      <trkpt lat="48.01685" lon="6.8153">
        <ele>791.937683</ele>
        <time>2019-08-16T13:07:49Z</time>
      </trkpt>
      <trkpt lat="48.01684" lon="6.81531">
        <ele>792.179504</ele>
        <time>2019-08-16T13:07:50Z</time>
      </trkpt>
      <trkpt lat="48.01682" lon="6.81533">
        <ele>792.326416</ele>
        <time>2019-08-16T13:07:51Z</time>
      </trkpt>
      <trkpt lat="48.0168" lon="6.81534">
        <ele>792.456604</ele>
        <time>2019-08-16T13:07:52Z</time>
      </trkpt>
      <trkpt lat="48.01679" lon="6.81535">
        <ele>792.515442</ele>
        <time>2019-08-16T13:07:53Z</time>
      </trkpt>
      <trkpt lat="48.01676" lon="6.81536">
        <ele>792.622253</ele>
        <time>2019-08-16T13:07:54Z</time>
      </trkpt>
      <trkpt lat="48.01674" lon="6.81537">
        <ele>792.777161</ele>
        <time>2019-08-16T13:07:55Z</time>
      </trkpt>
      <trkpt lat="48.01672" lon="6.81538">
        <ele>792.885925</ele>
        <time>2019-08-16T13:07:56Z</time>
      </trkpt>
      <trkpt lat="48.0167" lon="6.8154">
        <ele>793.063904</ele>
        <time>2019-08-16T13:07:57Z</time>
      </trkpt>
      <trkpt lat="48.01668" lon="6.81541">
        <ele>793.190735</ele>
        <time>2019-08-16T13:07:58Z</time>
      </trkpt>
      <trkpt lat="48.01666" lon="6.81542">
        <ele>793.325928</ele>
        <time>2019-08-16T13:07:59Z</time>
      </trkpt>
      <trkpt lat="48.01664" lon="6.81543">
        <ele>793.537659</ele>
        <time>2019-08-16T13:08:00Z</time>
      </trkpt>
      <trkpt lat="48.01662" lon="6.81544">
        <ele>793.679504</ele>
        <time>2019-08-16T13:08:01Z</time>
      </trkpt>
      <trkpt lat="48.01661" lon="6.81545">
        <ele>793.822754</ele>
        <time>2019-08-16T13:08:02Z</time>
      </trkpt>
      <trkpt lat="48.01659" lon="6.81546">
        <ele>794.04541</ele>
        <time>2019-08-16T13:08:03Z</time>
      </trkpt>
      <trkpt lat="48.01657" lon="6.81547">
        <ele>794.199524</ele>
        <time>2019-08-16T13:08:04Z</time>
      </trkpt>
      <trkpt lat="48.01654" lon="6.81549">
        <ele>794.35614</ele>
        <time>2019-08-16T13:08:05Z</time>
      </trkpt>
      <trkpt lat="48.01652" lon="6.8155">
        <ele>794.588074</ele>
        <time>2019-08-16T13:08:06Z</time>
      </trkpt>
      <trkpt lat="48.0165" lon="6.8155">
        <ele>794.732727</ele>
        <time>2019-08-16T13:08:07Z</time>
      </trkpt>
      <trkpt lat="48.01648" lon="6.81551">
        <ele>794.86084</ele>
        <time>2019-08-16T13:08:08Z</time>
      </trkpt>
      <trkpt lat="48.01646" lon="6.81553">
        <ele>795.025574</ele>
        <time>2019-08-16T13:08:09Z</time>
      </trkpt>
      <trkpt lat="48.01644" lon="6.81555">
        <ele>795.120789</ele>
        <time>2019-08-16T13:08:10Z</time>
      </trkpt>
      <trkpt lat="48.01642" lon="6.81557">
        <ele>795.21051</ele>
        <time>2019-08-16T13:08:11Z</time>
      </trkpt>
      <trkpt lat="48.0164" lon="6.81559">
        <ele>795.342712</ele>
        <time>2019-08-16T13:08:12Z</time>
      </trkpt>
      <trkpt lat="48.01639" lon="6.81562">
        <ele>795.432617</ele>
        <time>2019-08-16T13:08:13Z</time>
      </trkpt>
      <trkpt lat="48.01637" lon="6.81564">
        <ele>795.519104</ele>
        <time>2019-08-16T13:08:14Z</time>
      </trkpt>
      <trkpt lat="48.01636" lon="6.81567">
        <ele>795.600098</ele>
        <time>2019-08-16T13:08:15Z</time>
      </trkpt>
      <trkpt lat="48.01635" lon="6.8157">
        <ele>795.675537</ele>
        <time>2019-08-16T13:08:16Z</time>
      </trkpt>
      <trkpt lat="48.01634" lon="6.81572">
        <ele>795.745667</ele>
        <time>2019-08-16T13:08:17Z</time>
      </trkpt>
      <trkpt lat="48.01634" lon="6.81574">
        <ele>795.81012</ele>
        <time>2019-08-16T13:08:18Z</time>
      </trkpt>
      <trkpt lat="48.01633" lon="6.81576">
        <ele>795.872131</ele>
        <time>2019-08-16T13:08:19Z</time>
      </trkpt>
      <trkpt lat="48.01633" lon="6.81578">
        <ele>795.933777</ele>
        <time>2019-08-16T13:08:20Z</time>
      </trkpt>
      <trkpt lat="48.01634" lon="6.8158">
        <ele>796.023926</ele>
        <time>2019-08-16T13:08:21Z</time>
      </trkpt>
      <trkpt lat="48.01635" lon="6.81581">
        <ele>796.079163</ele>
        <time>2019-08-16T13:08:22Z</time>
      </trkpt>
      <trkpt lat="48.01636" lon="6.81583">
        <ele>796.130554</ele>
        <time>2019-08-16T13:08:23Z</time>
      </trkpt>
      <trkpt lat="48.01637" lon="6.81584">
        <ele>796.209961</ele>
        <time>2019-08-16T13:08:24Z</time>
      </trkpt>
      <trkpt lat="48.0164" lon="6.81587">
        <ele>796.273254</ele>
        <time>2019-08-16T13:08:25Z</time>
      </trkpt>
      <trkpt lat="48.01642" lon="6.81589">
        <ele>796.349548</ele>
        <time>2019-08-16T13:08:26Z</time>
      </trkpt>
      <trkpt lat="48.01643" lon="6.81591">
        <ele>796.435791</ele>
        <time>2019-08-16T13:08:27Z</time>
      </trkpt>
      <trkpt lat="48.01646" lon="6.81592">
        <ele>796.592346</ele>
        <time>2019-08-16T13:08:28Z</time>
      </trkpt>
      <trkpt lat="48.01648" lon="6.81594">
        <ele>796.709412</ele>
        <time>2019-08-16T13:08:29Z</time>
      </trkpt>
      <trkpt lat="48.01651" lon="6.81595">
        <ele>796.833252</ele>
        <time>2019-08-16T13:08:30Z</time>
      </trkpt>
      <trkpt lat="48.01654" lon="6.81596">
        <ele>797.030701</ele>
        <time>2019-08-16T13:08:31Z</time>
      </trkpt>
      <trkpt lat="48.01656" lon="6.81597">
        <ele>797.165283</ele>
        <time>2019-08-16T13:08:32Z</time>
      </trkpt>
      <trkpt lat="48.01659" lon="6.81598">
        <ele>797.287659</ele>
        <time>2019-08-16T13:08:33Z</time>
      </trkpt>
      <trkpt lat="48.0166" lon="6.81598">
        <ele>797.438293</ele>
        <time>2019-08-16T13:08:34Z</time>
      </trkpt>
      <trkpt lat="48.01662" lon="6.81598">
        <ele>797.521973</ele>
        <time>2019-08-16T13:08:35Z</time>
      </trkpt>
      <trkpt lat="48.01664" lon="6.81598">
        <ele>797.59845</ele>
        <time>2019-08-16T13:08:36Z</time>
      </trkpt>
      <trkpt lat="48.01666" lon="6.816">
        <ele>797.711121</ele>
        <time>2019-08-16T13:08:37Z</time>
      </trkpt>
      <trkpt lat="48.01669" lon="6.81601">
        <ele>797.779785</ele>
        <time>2019-08-16T13:08:38Z</time>
      </trkpt>
      <trkpt lat="48.01671" lon="6.81602">
        <ele>797.849365</ele>
        <time>2019-08-16T13:08:39Z</time>
      </trkpt>
      <trkpt lat="48.01673" lon="6.81602">
        <ele>797.963684</ele>
        <time>2019-08-16T13:08:40Z</time>
      </trkpt>
      <trkpt lat="48.01676" lon="6.81603">
        <ele>798.056458</ele>
        <time>2019-08-16T13:08:41Z</time>
      </trkpt>
      <trkpt lat="48.01679" lon="6.81605">
        <ele>798.204346</ele>
        <time>2019-08-16T13:08:42Z</time>
      </trkpt>
      <trkpt lat="48.01682" lon="6.81606">
        <ele>798.296448</ele>
        <time>2019-08-16T13:08:43Z</time>
      </trkpt>
      <trkpt lat="48.01685" lon="6.81606">
        <ele>798.37677</ele>
        <time>2019-08-16T13:08:44Z</time>
      </trkpt>
      <trkpt lat="48.01688" lon="6.81607">
        <ele>798.485046</ele>
        <time>2019-08-16T13:08:45Z</time>
      </trkpt>
      <trkpt lat="48.01691" lon="6.81608">
        <ele>798.551758</ele>
        <time>2019-08-16T13:08:46Z</time>
      </trkpt>
      <trkpt lat="48.01693" lon="6.8161">
        <ele>798.61499</ele>
        <time>2019-08-16T13:08:47Z</time>
      </trkpt>
      <trkpt lat="48.01696" lon="6.81612">
        <ele>798.713562</ele>
        <time>2019-08-16T13:08:48Z</time>
      </trkpt>
      <trkpt lat="48.01698" lon="6.81614">
        <ele>798.790222</ele>
        <time>2019-08-16T13:08:49Z</time>
      </trkpt>
      <trkpt lat="48.01701" lon="6.81616">
        <ele>798.879395</ele>
        <time>2019-08-16T13:08:50Z</time>
      </trkpt>
      <trkpt lat="48.01703" lon="6.81619">
        <ele>799.037292</ele>
        <time>2019-08-16T13:08:51Z</time>
      </trkpt>
      <trkpt lat="48.01704" lon="6.81622">
        <ele>799.153076</ele>
        <time>2019-08-16T13:08:52Z</time>
      </trkpt>
      <trkpt lat="48.01706" lon="6.81625">
        <ele>799.269348</ele>
        <time>2019-08-16T13:08:53Z</time>
      </trkpt>
      <trkpt lat="48.01709" lon="6.81632">
        <ele>799.326233</ele>
        <time>2019-08-16T13:08:55Z</time>
      </trkpt>
      <trkpt lat="48.0171" lon="6.81636">
        <ele>799.431335</ele>
        <time>2019-08-16T13:08:56Z</time>
      </trkpt>
      <trkpt lat="48.01711" lon="6.81639">
        <ele>799.586426</ele>
        <time>2019-08-16T13:08:57Z</time>
      </trkpt>
      <trkpt lat="48.01712" lon="6.81643">
        <ele>799.691345</ele>
        <time>2019-08-16T13:08:58Z</time>
      </trkpt>
      <trkpt lat="48.01714" lon="6.81647">
        <ele>799.799988</ele>
        <time>2019-08-16T13:08:59Z</time>
      </trkpt>
      <trkpt lat="48.01714" lon="6.81651">
        <ele>799.908264</ele>
        <time>2019-08-16T13:09:00Z</time>
      </trkpt>
      <trkpt lat="48.01716" lon="6.81655">
        <ele>800.017578</ele>
        <time>2019-08-16T13:09:01Z</time>
      </trkpt>
      <trkpt lat="48.01716" lon="6.8166">
        <ele>800.125671</ele>
        <time>2019-08-16T13:09:02Z</time>
      </trkpt>
      <trkpt lat="48.01717" lon="6.81665">
        <ele>800.226624</ele>
        <time>2019-08-16T13:09:03Z</time>
      </trkpt>
      <trkpt lat="48.01717" lon="6.81669">
        <ele>800.313232</ele>
        <time>2019-08-16T13:09:04Z</time>
      </trkpt>
      <trkpt lat="48.01718" lon="6.81672">
        <ele>800.382324</ele>
        <time>2019-08-16T13:09:05Z</time>
      </trkpt>
      <trkpt lat="48.0172" lon="6.81676">
        <ele>800.469482</ele>
        <time>2019-08-16T13:09:06Z</time>
      </trkpt>
      <trkpt lat="48.01721" lon="6.81679">
        <ele>800.524658</ele>
        <time>2019-08-16T13:09:07Z</time>
      </trkpt>
      <trkpt lat="48.01724" lon="6.81682">
        <ele>800.575989</ele>
        <time>2019-08-16T13:09:08Z</time>
      </trkpt>
      <trkpt lat="48.01725" lon="6.81685">
        <ele>800.655579</ele>
        <time>2019-08-16T13:09:09Z</time>
      </trkpt>
      <trkpt lat="48.01728" lon="6.81687">
        <ele>800.715393</ele>
        <time>2019-08-16T13:09:10Z</time>
      </trkpt>
      <trkpt lat="48.0173" lon="6.8169">
        <ele>800.783997</ele>
        <time>2019-08-16T13:09:11Z</time>
      </trkpt>
      <trkpt lat="48.01733" lon="6.81692">
        <ele>800.895325</ele>
        <time>2019-08-16T13:09:12Z</time>
      </trkpt>
      <trkpt lat="48.01736" lon="6.81695">
        <ele>800.961243</ele>
        <time>2019-08-16T13:09:13Z</time>
      </trkpt>
      <trkpt lat="48.01738" lon="6.81697">
        <ele>801.01709</ele>
        <time>2019-08-16T13:09:14Z</time>
      </trkpt>
      <trkpt lat="48.01741" lon="6.817">
        <ele>801.090759</ele>
        <time>2019-08-16T13:09:15Z</time>
      </trkpt>
      <trkpt lat="48.01743" lon="6.81703">
        <ele>801.135559</ele>
        <time>2019-08-16T13:09:16Z</time>
      </trkpt>
      <trkpt lat="48.01745" lon="6.81706">
        <ele>801.1828</ele>
        <time>2019-08-16T13:09:17Z</time>
      </trkpt>
      <trkpt lat="48.01747" lon="6.81709">
        <ele>801.236023</ele>
        <time>2019-08-16T13:09:18Z</time>
      </trkpt>
      <trkpt lat="48.01749" lon="6.81712">
        <ele>801.296692</ele>
        <time>2019-08-16T13:09:19Z</time>
      </trkpt>
      <trkpt lat="48.01751" lon="6.81715">
        <ele>801.393005</ele>
        <time>2019-08-16T13:09:20Z</time>
      </trkpt>
      <trkpt lat="48.01753" lon="6.81719">
        <ele>801.456787</ele>
        <time>2019-08-16T13:09:21Z</time>
      </trkpt>
      <trkpt lat="48.01755" lon="6.81722">
        <ele>801.520264</ele>
        <time>2019-08-16T13:09:22Z</time>
      </trkpt>
      <trkpt lat="48.01757" lon="6.81726">
        <ele>801.588074</ele>
        <time>2019-08-16T13:09:23Z</time>
      </trkpt>
      <trkpt lat="48.01759" lon="6.8173">
        <ele>801.660217</ele>
        <time>2019-08-16T13:09:24Z</time>
      </trkpt>
      <trkpt lat="48.01762" lon="6.81733">
        <ele>801.734192</ele>
        <time>2019-08-16T13:09:25Z</time>
      </trkpt>
      <trkpt lat="48.01764" lon="6.81736">
        <ele>801.843323</ele>
        <time>2019-08-16T13:09:26Z</time>
      </trkpt>
      <trkpt lat="48.01766" lon="6.8174">
        <ele>801.918945</ele>
        <time>2019-08-16T13:09:27Z</time>
      </trkpt>
      <trkpt lat="48.01768" lon="6.81744">
        <ele>801.993103</ele>
        <time>2019-08-16T13:09:28Z</time>
      </trkpt>
      <trkpt lat="48.0177" lon="6.81748">
        <ele>802.11322</ele>
        <time>2019-08-16T13:09:29Z</time>
      </trkpt>
      <trkpt lat="48.01772" lon="6.81752">
        <ele>802.199646</ele>
        <time>2019-08-16T13:09:30Z</time>
      </trkpt>
      <trkpt lat="48.01774" lon="6.81755">
        <ele>802.289551</ele>
        <time>2019-08-16T13:09:31Z</time>
      </trkpt>
      <trkpt lat="48.01775" lon="6.81759">
        <ele>802.370911</ele>
        <time>2019-08-16T13:09:32Z</time>
      </trkpt>
      <trkpt lat="48.01777" lon="6.81763">
        <ele>802.440125</ele>
        <time>2019-08-16T13:09:33Z</time>
      </trkpt>
      <trkpt lat="48.01779" lon="6.81766">
        <ele>802.525391</ele>
        <time>2019-08-16T13:09:34Z</time>
      </trkpt>
      <trkpt lat="48.0178" lon="6.81771">
        <ele>802.581726</ele>
        <time>2019-08-16T13:09:35Z</time>
      </trkpt>
      <trkpt lat="48.01782" lon="6.81775">
        <ele>802.636292</ele>
        <time>2019-08-16T13:09:36Z</time>
      </trkpt>
      <trkpt lat="48.01783" lon="6.81779">
        <ele>802.688171</ele>
        <time>2019-08-16T13:09:37Z</time>
      </trkpt>
      <trkpt lat="48.01784" lon="6.81783">
        <ele>802.735413</ele>
        <time>2019-08-16T13:09:38Z</time>
      </trkpt>
      <trkpt lat="48.01785" lon="6.81787">
        <ele>802.792969</ele>
        <time>2019-08-16T13:09:39Z</time>
      </trkpt>
      <trkpt lat="48.01786" lon="6.81791">
        <ele>802.868469</ele>
        <time>2019-08-16T13:09:40Z</time>
      </trkpt>
      <trkpt lat="48.01788" lon="6.81794">
        <ele>802.962158</ele>
        <time>2019-08-16T13:09:41Z</time>
      </trkpt>
      <trkpt lat="48.0179" lon="6.81798">
        <ele>803.072571</ele>
        <time>2019-08-16T13:09:42Z</time>
      </trkpt>
      <trkpt lat="48.01791" lon="6.81802">
        <ele>803.19458</ele>
        <time>2019-08-16T13:09:43Z</time>
      </trkpt>
      <trkpt lat="48.01793" lon="6.81805">
        <ele>803.323242</ele>
        <time>2019-08-16T13:09:44Z</time>
      </trkpt>
      <trkpt lat="48.01796" lon="6.81809">
        <ele>803.507813</ele>
        <time>2019-08-16T13:09:45Z</time>
      </trkpt>
      <trkpt lat="48.01798" lon="6.81812">
        <ele>803.613098</ele>
        <time>2019-08-16T13:09:46Z</time>
      </trkpt>
      <trkpt lat="48.018" lon="6.81815">
        <ele>803.700623</ele>
        <time>2019-08-16T13:09:47Z</time>
      </trkpt>
      <trkpt lat="48.01802" lon="6.81817">
        <ele>803.810059</ele>
        <time>2019-08-16T13:09:48Z</time>
      </trkpt>
      <trkpt lat="48.01805" lon="6.8182">
        <ele>803.870911</ele>
        <time>2019-08-16T13:09:49Z</time>
      </trkpt>
      <trkpt lat="48.01807" lon="6.81823">
        <ele>803.921875</ele>
        <time>2019-08-16T13:09:50Z</time>
      </trkpt>
      <trkpt lat="48.01809" lon="6.81825">
        <ele>803.991211</ele>
        <time>2019-08-16T13:09:51Z</time>
      </trkpt>
      <trkpt lat="48.01812" lon="6.81828">
        <ele>804.045166</ele>
        <time>2019-08-16T13:09:52Z</time>
      </trkpt>
      <trkpt lat="48.01814" lon="6.81831">
        <ele>804.107422</ele>
        <time>2019-08-16T13:09:53Z</time>
      </trkpt>
      <trkpt lat="48.01816" lon="6.81834">
        <ele>804.139709</ele>
        <time>2019-08-16T13:09:54Z</time>
      </trkpt>
      <trkpt lat="48.01818" lon="6.81836">
        <ele>804.204041</ele>
        <time>2019-08-16T13:09:55Z</time>
      </trkpt>
      <trkpt lat="48.0182" lon="6.81839">
        <ele>804.287659</ele>
        <time>2019-08-16T13:09:56Z</time>
      </trkpt>
      <trkpt lat="48.01822" lon="6.81842">
        <ele>804.335938</ele>
        <time>2019-08-16T13:09:57Z</time>
      </trkpt>
      <trkpt lat="48.01825" lon="6.81845">
        <ele>804.384521</ele>
        <time>2019-08-16T13:09:58Z</time>
      </trkpt>
      <trkpt lat="48.01827" lon="6.81848">
        <ele>804.434387</ele>
        <time>2019-08-16T13:09:59Z</time>
      </trkpt>
      <trkpt lat="48.01829" lon="6.81851">
        <ele>804.512756</ele>
        <time>2019-08-16T13:10:00Z</time>
      </trkpt>
      <trkpt lat="48.01831" lon="6.81854">
        <ele>804.573303</ele>
        <time>2019-08-16T13:10:01Z</time>
      </trkpt>
      <trkpt lat="48.01833" lon="6.81857">
        <ele>804.638855</ele>
        <time>2019-08-16T13:10:02Z</time>
      </trkpt>
      <trkpt lat="48.01835" lon="6.8186">
        <ele>804.709717</ele>
        <time>2019-08-16T13:10:03Z</time>
      </trkpt>
      <trkpt lat="48.01837" lon="6.81863">
        <ele>804.815674</ele>
        <time>2019-08-16T13:10:04Z</time>
      </trkpt>
      <trkpt lat="48.01839" lon="6.81866">
        <ele>804.885315</ele>
        <time>2019-08-16T13:10:05Z</time>
      </trkpt>
      <trkpt lat="48.01841" lon="6.8187">
        <ele>804.94043</ele>
        <time>2019-08-16T13:10:06Z</time>
      </trkpt>
      <trkpt lat="48.01844" lon="6.81873">
        <ele>804.981506</ele>
        <time>2019-08-16T13:10:07Z</time>
      </trkpt>
      <trkpt lat="48.01846" lon="6.81877">
        <ele>805.016907</ele>
        <time>2019-08-16T13:10:08Z</time>
      </trkpt>
      <trkpt lat="48.01848" lon="6.8188">
        <ele>805.037354</ele>
        <time>2019-08-16T13:10:09Z</time>
      </trkpt>
      <trkpt lat="48.01851" lon="6.81883">
        <ele>805.061707</ele>
        <time>2019-08-16T13:10:10Z</time>
      </trkpt>
      <trkpt lat="48.01854" lon="6.81885">
        <ele>805.11322</ele>
        <time>2019-08-16T13:10:11Z</time>
      </trkpt>
      <trkpt lat="48.01856" lon="6.81888">
        <ele>805.148193</ele>
        <time>2019-08-16T13:10:12Z</time>
      </trkpt>
      <trkpt lat="48.01859" lon="6.8189">
        <ele>805.189941</ele>
        <time>2019-08-16T13:10:13Z</time>
      </trkpt>
      <trkpt lat="48.01862" lon="6.81892">
        <ele>805.261475</ele>
        <time>2019-08-16T13:10:14Z</time>
      </trkpt>
      <trkpt lat="48.01865" lon="6.81894">
        <ele>805.321228</ele>
        <time>2019-08-16T13:10:15Z</time>
      </trkpt>
      <trkpt lat="48.01868" lon="6.81895">
        <ele>805.381042</ele>
        <time>2019-08-16T13:10:16Z</time>
      </trkpt>
      <trkpt lat="48.01871" lon="6.81896">
        <ele>805.482239</ele>
        <time>2019-08-16T13:10:17Z</time>
      </trkpt>
      <trkpt lat="48.01874" lon="6.81897">
        <ele>805.568298</ele>
        <time>2019-08-16T13:10:18Z</time>
      </trkpt>
      <trkpt lat="48.01877" lon="6.81899">
        <ele>805.67157</ele>
        <time>2019-08-16T13:10:19Z</time>
      </trkpt>
      <trkpt lat="48.0188" lon="6.819">
        <ele>805.833313</ele>
        <time>2019-08-16T13:10:20Z</time>
      </trkpt>
      <trkpt lat="48.01883" lon="6.81902">
        <ele>805.931946</ele>
        <time>2019-08-16T13:10:21Z</time>
      </trkpt>
      <trkpt lat="48.01885" lon="6.81903">
        <ele>806.020264</ele>
        <time>2019-08-16T13:10:22Z</time>
      </trkpt>
      <trkpt lat="48.01888" lon="6.81904">
        <ele>806.148254</ele>
        <time>2019-08-16T13:10:23Z</time>
      </trkpt>
      <trkpt lat="48.01891" lon="6.81905">
        <ele>806.235901</ele>
        <time>2019-08-16T13:10:24Z</time>
      </trkpt>
      <trkpt lat="48.01893" lon="6.81906">
        <ele>806.362</ele>
        <time>2019-08-16T13:10:25Z</time>
      </trkpt>
      <trkpt lat="48.01894" lon="6.81906">
        <ele>806.437683</ele>
        <time>2019-08-16T13:10:26Z</time>
      </trkpt>
      <trkpt lat="48.01896" lon="6.81906">
        <ele>806.542786</ele>
        <time>2019-08-16T13:10:27Z</time>
      </trkpt>
      <trkpt lat="48.01897" lon="6.81905">
        <ele>806.618469</ele>
        <time>2019-08-16T13:10:28Z</time>
      </trkpt>
      <trkpt lat="48.01901" lon="6.81905">
        <ele>806.701599</ele>
        <time>2019-08-16T13:10:29Z</time>
      </trkpt>
      <trkpt lat="48.01903" lon="6.81904">
        <ele>806.838196</ele>
        <time>2019-08-16T13:10:30Z</time>
      </trkpt>
      <trkpt lat="48.01906" lon="6.81904">
        <ele>806.921692</ele>
        <time>2019-08-16T13:10:31Z</time>
      </trkpt>
      <trkpt lat="48.0191" lon="6.81903">
        <ele>807.035828</ele>
        <time>2019-08-16T13:10:32Z</time>
      </trkpt>
      <trkpt lat="48.01913" lon="6.81902">
        <ele>807.117249</ele>
        <time>2019-08-16T13:10:33Z</time>
      </trkpt>
      <trkpt lat="48.01916" lon="6.81902">
        <ele>807.20929</ele>
        <time>2019-08-16T13:10:34Z</time>
      </trkpt>
      <trkpt lat="48.01918" lon="6.81902">
        <ele>807.367493</ele>
        <time>2019-08-16T13:10:35Z</time>
      </trkpt>
      <trkpt lat="48.01922" lon="6.81901">
        <ele>807.479431</ele>
        <time>2019-08-16T13:10:36Z</time>
      </trkpt>
      <trkpt lat="48.01925" lon="6.819">
        <ele>807.594177</ele>
        <time>2019-08-16T13:10:37Z</time>
      </trkpt>
      <trkpt lat="48.01928" lon="6.81899">
        <ele>807.768616</ele>
        <time>2019-08-16T13:10:38Z</time>
      </trkpt>
      <trkpt lat="48.01931" lon="6.81899">
        <ele>807.888855</ele>
        <time>2019-08-16T13:10:39Z</time>
      </trkpt>
      <trkpt lat="48.01934" lon="6.81899">
        <ele>808.007629</ele>
        <time>2019-08-16T13:10:40Z</time>
      </trkpt>
      <trkpt lat="48.01938" lon="6.81899">
        <ele>808.177795</ele>
        <time>2019-08-16T13:10:41Z</time>
      </trkpt>
      <trkpt lat="48.01941" lon="6.819">
        <ele>808.278992</ele>
        <time>2019-08-16T13:10:42Z</time>
      </trkpt>
      <trkpt lat="48.01945" lon="6.819">
        <ele>808.407532</ele>
        <time>2019-08-16T13:10:43Z</time>
      </trkpt>
      <trkpt lat="48.01949" lon="6.81901">
        <ele>808.485107</ele>
        <time>2019-08-16T13:10:44Z</time>
      </trkpt>
      <trkpt lat="48.01952" lon="6.81902">
        <ele>808.558533</ele>
        <time>2019-08-16T13:10:45Z</time>
      </trkpt>
      <trkpt lat="48.01956" lon="6.81903">
        <ele>808.650635</ele>
        <time>2019-08-16T13:10:46Z</time>
      </trkpt>
      <trkpt lat="48.01959" lon="6.81905">
        <ele>808.7005</ele>
        <time>2019-08-16T13:10:47Z</time>
      </trkpt>
      <trkpt lat="48.01962" lon="6.81906">
        <ele>808.743652</ele>
        <time>2019-08-16T13:10:48Z</time>
      </trkpt>
      <trkpt lat="48.01965" lon="6.81908">
        <ele>808.802307</ele>
        <time>2019-08-16T13:10:49Z</time>
      </trkpt>
      <trkpt lat="48.01969" lon="6.81911">
        <ele>808.8349</ele>
        <time>2019-08-16T13:10:50Z</time>
      </trkpt>
      <trkpt lat="48.01972" lon="6.81913">
        <ele>808.855469</ele>
        <time>2019-08-16T13:10:51Z</time>
      </trkpt>
      <trkpt lat="48.01976" lon="6.81916">
        <ele>808.863586</ele>
        <time>2019-08-16T13:10:52Z</time>
      </trkpt>
      <trkpt lat="48.01979" lon="6.81919">
        <ele>808.863586</ele>
        <time>2019-08-16T13:10:53Z</time>
      </trkpt>
      <trkpt lat="48.01982" lon="6.81923">
        <ele>808.853516</ele>
        <time>2019-08-16T13:10:54Z</time>
      </trkpt>
      <trkpt lat="48.01986" lon="6.81927">
        <ele>808.845032</ele>
        <time>2019-08-16T13:10:55Z</time>
      </trkpt>
      <trkpt lat="48.01989" lon="6.81931">
        <ele>808.801086</ele>
        <time>2019-08-16T13:10:56Z</time>
      </trkpt>
      <trkpt lat="48.01992" lon="6.81935">
        <ele>808.763489</ele>
        <time>2019-08-16T13:10:57Z</time>
      </trkpt>
      <trkpt lat="48.01996" lon="6.81939">
        <ele>808.721924</ele>
        <time>2019-08-16T13:10:58Z</time>
      </trkpt>
      <trkpt lat="48.01998" lon="6.81944">
        <ele>808.661926</ele>
        <time>2019-08-16T13:10:59Z</time>
      </trkpt>
      <trkpt lat="48.02001" lon="6.81947">
        <ele>808.620911</ele>
        <time>2019-08-16T13:11:00Z</time>
      </trkpt>
      <trkpt lat="48.02005" lon="6.81951">
        <ele>808.580322</ele>
        <time>2019-08-16T13:11:01Z</time>
      </trkpt>
      <trkpt lat="48.02008" lon="6.81955">
        <ele>808.538269</ele>
        <time>2019-08-16T13:11:02Z</time>
      </trkpt>
      <trkpt lat="48.02011" lon="6.81959">
        <ele>808.504089</ele>
        <time>2019-08-16T13:11:03Z</time>
      </trkpt>
      <trkpt lat="48.02014" lon="6.81963">
        <ele>808.487</ele>
        <time>2019-08-16T13:11:04Z</time>
      </trkpt>
      <trkpt lat="48.02016" lon="6.81967">
        <ele>808.484436</ele>
        <time>2019-08-16T13:11:05Z</time>
      </trkpt>
      <trkpt lat="48.02019" lon="6.8197">
        <ele>808.488342</ele>
        <time>2019-08-16T13:11:06Z</time>
      </trkpt>
      <trkpt lat="48.02022" lon="6.81974">
        <ele>808.496826</ele>
        <time>2019-08-16T13:11:07Z</time>
      </trkpt>
      <trkpt lat="48.02025" lon="6.81978">
        <ele>808.505066</ele>
        <time>2019-08-16T13:11:08Z</time>
      </trkpt>
      <trkpt lat="48.02028" lon="6.81982">
        <ele>808.509766</ele>
        <time>2019-08-16T13:11:09Z</time>
      </trkpt>
      <trkpt lat="48.0203" lon="6.81986">
        <ele>808.509766</ele>
        <time>2019-08-16T13:11:10Z</time>
      </trkpt>
      <trkpt lat="48.02033" lon="6.8199">
        <ele>808.491272</ele>
        <time>2019-08-16T13:11:11Z</time>
      </trkpt>
      <trkpt lat="48.02036" lon="6.81994">
        <ele>808.452698</ele>
        <time>2019-08-16T13:11:12Z</time>
      </trkpt>
      <trkpt lat="48.02037" lon="6.81998">
        <ele>808.398926</ele>
        <time>2019-08-16T13:11:13Z</time>
      </trkpt>
      <trkpt lat="48.0204" lon="6.82002">
        <ele>808.341797</ele>
        <time>2019-08-16T13:11:14Z</time>
      </trkpt>
      <trkpt lat="48.02043" lon="6.82006">
        <ele>808.286682</ele>
        <time>2019-08-16T13:11:15Z</time>
      </trkpt>
      <trkpt lat="48.02045" lon="6.82009">
        <ele>808.206238</ele>
        <time>2019-08-16T13:11:16Z</time>
      </trkpt>
      <trkpt lat="48.02048" lon="6.82012">
        <ele>808.161804</ele>
        <time>2019-08-16T13:11:17Z</time>
      </trkpt>
      <trkpt lat="48.0205" lon="6.82016">
        <ele>808.128967</ele>
        <time>2019-08-16T13:11:18Z</time>
      </trkpt>
      <trkpt lat="48.02053" lon="6.82019">
        <ele>808.100403</ele>
        <time>2019-08-16T13:11:19Z</time>
      </trkpt>
      <trkpt lat="48.02055" lon="6.82022">
        <ele>808.065247</ele>
        <time>2019-08-16T13:11:20Z</time>
      </trkpt>
      <trkpt lat="48.02057" lon="6.82026">
        <ele>808.040833</ele>
        <time>2019-08-16T13:11:21Z</time>
      </trkpt>
      <trkpt lat="48.02058" lon="6.82029">
        <ele>808.011719</ele>
        <time>2019-08-16T13:11:22Z</time>
      </trkpt>
      <trkpt lat="48.0206" lon="6.82032">
        <ele>807.950989</ele>
        <time>2019-08-16T13:11:23Z</time>
      </trkpt>
      <trkpt lat="48.02061" lon="6.82035">
        <ele>807.892822</ele>
        <time>2019-08-16T13:11:24Z</time>
      </trkpt>
      <trkpt lat="48.02062" lon="6.82037">
        <ele>807.833313</ele>
        <time>2019-08-16T13:11:25Z</time>
      </trkpt>
      <trkpt lat="48.02062" lon="6.8204">
        <ele>807.792053</ele>
        <time>2019-08-16T13:11:26Z</time>
      </trkpt>
      <trkpt lat="48.02062" lon="6.82042">
        <ele>807.779602</ele>
        <time>2019-08-16T13:11:27Z</time>
      </trkpt>
      <trkpt lat="48.02061" lon="6.82043">
        <ele>807.779602</ele>
        <time>2019-08-16T13:11:28Z</time>
      </trkpt>
      <trkpt lat="48.0206" lon="6.82042">
        <ele>807.80835</ele>
        <time>2019-08-16T13:11:29Z</time>
      </trkpt>
      <trkpt lat="48.02059" lon="6.82042">
        <ele>807.849548</ele>
        <time>2019-08-16T13:11:30Z</time>
      </trkpt>
      <trkpt lat="48.02057" lon="6.82041">
        <ele>807.903076</ele>
        <time>2019-08-16T13:11:31Z</time>
      </trkpt>
      <trkpt lat="48.02056" lon="6.82039">
        <ele>808.010925</ele>
        <time>2019-08-16T13:11:32Z</time>
      </trkpt>
      <trkpt lat="48.02055" lon="6.82038">
        <ele>808.10791</ele>
        <time>2019-08-16T13:11:33Z</time>
      </trkpt>
      <trkpt lat="48.02054" lon="6.82036">
        <ele>808.220215</ele>
        <time>2019-08-16T13:11:34Z</time>
      </trkpt>
      <trkpt lat="48.02052" lon="6.82035">
        <ele>808.396545</ele>
        <time>2019-08-16T13:11:35Z</time>
      </trkpt>
      <trkpt lat="48.0205" lon="6.82035">
        <ele>808.510437</ele>
        <time>2019-08-16T13:11:36Z</time>
      </trkpt>
      <trkpt lat="48.02049" lon="6.82035">
        <ele>808.626404</ele>
        <time>2019-08-16T13:11:37Z</time>
      </trkpt>
      <trkpt lat="48.02048" lon="6.82034">
        <ele>808.809021</ele>
        <time>2019-08-16T13:11:38Z</time>
      </trkpt>
      <trkpt lat="48.02047" lon="6.82032">
        <ele>808.934875</ele>
        <time>2019-08-16T13:11:39Z</time>
      </trkpt>
      <trkpt lat="48.02045" lon="6.82031">
        <ele>809.130554</ele>
        <time>2019-08-16T13:11:40Z</time>
      </trkpt>
      <trkpt lat="48.02044" lon="6.8203">
        <ele>809.276794</ele>
        <time>2019-08-16T13:11:41Z</time>
      </trkpt>
      <trkpt lat="48.02044" lon="6.82029">
        <ele>809.439758</ele>
        <time>2019-08-16T13:11:42Z</time>
      </trkpt>
      <trkpt lat="48.02043" lon="6.82028">
        <ele>809.701843</ele>
        <time>2019-08-16T13:11:43Z</time>
      </trkpt>
      <trkpt lat="48.02042" lon="6.82027">
        <ele>809.877136</ele>
        <time>2019-08-16T13:11:44Z</time>
      </trkpt>
      <trkpt lat="48.02041" lon="6.82025">
        <ele>810.050232</ele>
        <time>2019-08-16T13:11:45Z</time>
      </trkpt>
      <trkpt lat="48.0204" lon="6.82023">
        <ele>810.216614</ele>
        <time>2019-08-16T13:11:46Z</time>
      </trkpt>
      <trkpt lat="48.02039" lon="6.82023">
        <ele>810.591309</ele>
        <time>2019-08-16T13:11:47Z</time>
      </trkpt>
      <trkpt lat="48.02037" lon="6.82022">
        <ele>810.742493</ele>
        <time>2019-08-16T13:11:49Z</time>
      </trkpt>
      <trkpt lat="48.02036" lon="6.82022">
        <ele>810.988281</ele>
        <time>2019-08-16T13:11:50Z</time>
      </trkpt>
      <trkpt lat="48.02034" lon="6.82021">
        <ele>811.158447</ele>
        <time>2019-08-16T13:11:51Z</time>
      </trkpt>
      <trkpt lat="48.02034" lon="6.8202">
        <ele>811.332825</ele>
        <time>2019-08-16T13:11:52Z</time>
      </trkpt>
      <trkpt lat="48.02033" lon="6.82019">
        <ele>811.610046</ele>
        <time>2019-08-16T13:11:53Z</time>
      </trkpt>
      <trkpt lat="48.02031" lon="6.82018">
        <ele>811.795898</ele>
        <time>2019-08-16T13:11:54Z</time>
      </trkpt>
      <trkpt lat="48.0203" lon="6.82017">
        <ele>811.88678</ele>
        <time>2019-08-16T13:11:55Z</time>
      </trkpt>
      <trkpt lat="48.02029" lon="6.82017">
        <ele>811.974182</ele>
        <time>2019-08-16T13:11:56Z</time>
      </trkpt>
      <trkpt lat="48.02028" lon="6.82016">
        <ele>812.21759</ele>
        <time>2019-08-16T13:11:57Z</time>
      </trkpt>
      <trkpt lat="48.02026" lon="6.82015">
        <ele>812.371765</ele>
        <time>2019-08-16T13:11:58Z</time>
      </trkpt>
      <trkpt lat="48.02025" lon="6.82014">
        <ele>812.524902</ele>
        <time>2019-08-16T13:11:59Z</time>
      </trkpt>
      <trkpt lat="48.02024" lon="6.82012">
        <ele>812.754333</ele>
        <time>2019-08-16T13:12:00Z</time>
      </trkpt>
      <trkpt lat="48.02023" lon="6.82011">
        <ele>812.905212</ele>
        <time>2019-08-16T13:12:01Z</time>
      </trkpt>
      <trkpt lat="48.02023" lon="6.8201">
        <ele>813.054199</ele>
        <time>2019-08-16T13:12:02Z</time>
      </trkpt>
      <trkpt lat="48.02022" lon="6.82009">
        <ele>813.274414</ele>
        <time>2019-08-16T13:12:03Z</time>
      </trkpt>
      <trkpt lat="48.02021" lon="6.82007">
        <ele>813.425049</ele>
        <time>2019-08-16T13:12:04Z</time>
      </trkpt>
      <trkpt lat="48.0202" lon="6.82007">
        <ele>813.858948</ele>
        <time>2019-08-16T13:12:05Z</time>
      </trkpt>
      <trkpt lat="48.02019" lon="6.82005">
        <ele>814.060791</ele>
        <time>2019-08-16T13:12:07Z</time>
      </trkpt>
      <trkpt lat="48.02017" lon="6.82003">
        <ele>814.273438</ele>
        <time>2019-08-16T13:12:08Z</time>
      </trkpt>
      <trkpt lat="48.02016" lon="6.82002">
        <ele>814.604309</ele>
        <time>2019-08-16T13:12:09Z</time>
      </trkpt>
      <trkpt lat="48.02015" lon="6.82001">
        <ele>815.011902</ele>
        <time>2019-08-16T13:12:10Z</time>
      </trkpt>
      <trkpt lat="48.02013" lon="6.82">
        <ele>815.269836</ele>
        <time>2019-08-16T13:12:12Z</time>
      </trkpt>
      <trkpt lat="48.02012" lon="6.82">
        <ele>815.425354</ele>
        <time>2019-08-16T13:12:13Z</time>
      </trkpt>
      <trkpt lat="48.0201" lon="6.81998">
        <ele>815.567871</ele>
        <time>2019-08-16T13:12:14Z</time>
      </trkpt>
      <trkpt lat="48.02008" lon="6.81997">
        <ele>815.763184</ele>
        <time>2019-08-16T13:12:15Z</time>
      </trkpt>
      <trkpt lat="48.02007" lon="6.81995">
        <ele>815.892334</ele>
        <time>2019-08-16T13:12:16Z</time>
      </trkpt>
      <trkpt lat="48.02005" lon="6.81994">
        <ele>816.032654</ele>
        <time>2019-08-16T13:12:17Z</time>
      </trkpt>
      <trkpt lat="48.02005" lon="6.81993">
        <ele>816.262695</ele>
        <time>2019-08-16T13:12:18Z</time>
      </trkpt>
      <trkpt lat="48.02004" lon="6.81992">
        <ele>816.420227</ele>
        <time>2019-08-16T13:12:19Z</time>
      </trkpt>
      <trkpt lat="48.02002" lon="6.81991">
        <ele>816.57666</ele>
        <time>2019-08-16T13:12:20Z</time>
      </trkpt>
      <trkpt lat="48.02001" lon="6.8199">
        <ele>816.804626</ele>
        <time>2019-08-16T13:12:21Z</time>
      </trkpt>
      <trkpt lat="48.02" lon="6.81989">
        <ele>816.94751</ele>
        <time>2019-08-16T13:12:22Z</time>
      </trkpt>
      <trkpt lat="48.01998" lon="6.81988">
        <ele>817.082825</ele>
        <time>2019-08-16T13:12:23Z</time>
      </trkpt>
      <trkpt lat="48.01997" lon="6.81987">
        <ele>817.276367</ele>
        <time>2019-08-16T13:12:24Z</time>
      </trkpt>
      <trkpt lat="48.01995" lon="6.81986">
        <ele>817.398193</ele>
        <time>2019-08-16T13:12:25Z</time>
      </trkpt>
      <trkpt lat="48.01994" lon="6.81986">
        <ele>817.516357</ele>
        <time>2019-08-16T13:12:26Z</time>
      </trkpt>
      <trkpt lat="48.01992" lon="6.81985">
        <ele>817.699707</ele>
        <time>2019-08-16T13:12:27Z</time>
      </trkpt>
      <trkpt lat="48.01991" lon="6.81985">
        <ele>817.833923</ele>
        <time>2019-08-16T13:12:28Z</time>
      </trkpt>
      <trkpt lat="48.0199" lon="6.81985">
        <ele>817.97998</ele>
        <time>2019-08-16T13:12:29Z</time>
      </trkpt>
      <trkpt lat="48.01989" lon="6.81984">
        <ele>818.216553</ele>
        <time>2019-08-16T13:12:30Z</time>
      </trkpt>
      <trkpt lat="48.01988" lon="6.81983">
        <ele>818.377869</ele>
        <time>2019-08-16T13:12:31Z</time>
      </trkpt>
      <trkpt lat="48.01987" lon="6.81982">
        <ele>818.539734</ele>
        <time>2019-08-16T13:12:32Z</time>
      </trkpt>
      <trkpt lat="48.01986" lon="6.81982">
        <ele>818.950134</ele>
        <time>2019-08-16T13:12:33Z</time>
      </trkpt>
      <trkpt lat="48.01984" lon="6.81982">
        <ele>819.200928</ele>
        <time>2019-08-16T13:12:35Z</time>
      </trkpt>
      <trkpt lat="48.01983" lon="6.81982">
        <ele>819.373352</ele>
        <time>2019-08-16T13:12:36Z</time>
      </trkpt>
      <trkpt lat="48.01981" lon="6.81981">
        <ele>819.641541</ele>
        <time>2019-08-16T13:12:37Z</time>
      </trkpt>
      <trkpt lat="48.0198" lon="6.81981">
        <ele>819.823425</ele>
        <time>2019-08-16T13:12:38Z</time>
      </trkpt>
      <trkpt lat="48.01979" lon="6.81981">
        <ele>820.249451</ele>
        <time>2019-08-16T13:12:39Z</time>
      </trkpt>
      <trkpt lat="48.01978" lon="6.8198">
        <ele>820.407776</ele>
        <time>2019-08-16T13:12:41Z</time>
      </trkpt>
      <trkpt lat="48.01977" lon="6.8198">
        <ele>820.636963</ele>
        <time>2019-08-16T13:12:42Z</time>
      </trkpt>
      <trkpt lat="48.01975" lon="6.81979">
        <ele>820.785339</ele>
        <time>2019-08-16T13:12:43Z</time>
      </trkpt>
      <trkpt lat="48.01974" lon="6.81978">
        <ele>820.935608</ele>
        <time>2019-08-16T13:12:44Z</time>
      </trkpt>
      <trkpt lat="48.01972" lon="6.81978">
        <ele>821.171631</ele>
        <time>2019-08-16T13:12:45Z</time>
      </trkpt>
      <trkpt lat="48.01971" lon="6.81978">
        <ele>821.336487</ele>
        <time>2019-08-16T13:12:46Z</time>
      </trkpt>
      <trkpt lat="48.01969" lon="6.81977">
        <ele>821.503174</ele>
        <time>2019-08-16T13:12:47Z</time>
      </trkpt>
      <trkpt lat="48.01967" lon="6.81977">
        <ele>821.751465</ele>
        <time>2019-08-16T13:12:48Z</time>
      </trkpt>
      <trkpt lat="48.01966" lon="6.81977">
        <ele>821.910889</ele>
        <time>2019-08-16T13:12:49Z</time>
      </trkpt>
      <trkpt lat="48.01965" lon="6.81977">
        <ele>822.133972</ele>
        <time>2019-08-16T13:12:50Z</time>
      </trkpt>
      <trkpt lat="48.01963" lon="6.81977">
        <ele>822.268982</ele>
        <time>2019-08-16T13:12:51Z</time>
      </trkpt>
      <trkpt lat="48.01961" lon="6.81977">
        <ele>822.397278</ele>
        <time>2019-08-16T13:12:52Z</time>
      </trkpt>
      <trkpt lat="48.01959" lon="6.81977">
        <ele>822.583984</ele>
        <time>2019-08-16T13:12:53Z</time>
      </trkpt>
      <trkpt lat="48.01958" lon="6.81977">
        <ele>822.710144</ele>
        <time>2019-08-16T13:12:54Z</time>
      </trkpt>
      <trkpt lat="48.01957" lon="6.81977">
        <ele>822.838928</ele>
        <time>2019-08-16T13:12:55Z</time>
      </trkpt>
      <trkpt lat="48.01955" lon="6.81977">
        <ele>822.905579</ele>
        <time>2019-08-16T13:12:56Z</time>
      </trkpt>
      <trkpt lat="48.01954" lon="6.81977">
        <ele>823.188416</ele>
        <time>2019-08-16T13:12:57Z</time>
      </trkpt>
      <trkpt lat="48.01952" lon="6.81977">
        <ele>823.332947</ele>
        <time>2019-08-16T13:12:59Z</time>
      </trkpt>
      <trkpt lat="48.0195" lon="6.81978">
        <ele>823.542236</ele>
        <time>2019-08-16T13:13:00Z</time>
      </trkpt>
      <trkpt lat="48.01949" lon="6.81978">
        <ele>823.673157</ele>
        <time>2019-08-16T13:13:01Z</time>
      </trkpt>
      <trkpt lat="48.01947" lon="6.81978">
        <ele>823.80249</ele>
        <time>2019-08-16T13:13:02Z</time>
      </trkpt>
      <trkpt lat="48.01945" lon="6.81978">
        <ele>824.001404</ele>
        <time>2019-08-16T13:13:03Z</time>
      </trkpt>
      <trkpt lat="48.01944" lon="6.81978">
        <ele>824.272278</ele>
        <time>2019-08-16T13:13:04Z</time>
      </trkpt>
      <trkpt lat="48.01942" lon="6.81978">
        <ele>824.492676</ele>
        <time>2019-08-16T13:13:06Z</time>
      </trkpt>
      <trkpt lat="48.0194" lon="6.81978">
        <ele>824.654968</ele>
        <time>2019-08-16T13:13:07Z</time>
      </trkpt>
      <trkpt lat="48.01939" lon="6.81979">
        <ele>825.086243</ele>
        <time>2019-08-16T13:13:08Z</time>
      </trkpt>
      <trkpt lat="48.01938" lon="6.81979">
        <ele>825.492859</ele>
        <time>2019-08-16T13:13:10Z</time>
      </trkpt>
      <trkpt lat="48.01936" lon="6.81979">
        <ele>825.653076</ele>
        <time>2019-08-16T13:13:12Z</time>
      </trkpt>
      <trkpt lat="48.01934" lon="6.81979">
        <ele>825.807129</ele>
        <time>2019-08-16T13:13:13Z</time>
      </trkpt>
      <trkpt lat="48.01932" lon="6.81981">
        <ele>826.01947</ele>
        <time>2019-08-16T13:13:14Z</time>
      </trkpt>
      <trkpt lat="48.01931" lon="6.81982">
        <ele>826.158447</ele>
        <time>2019-08-16T13:13:15Z</time>
      </trkpt>
      <trkpt lat="48.01929" lon="6.81983">
        <ele>826.304871</ele>
        <time>2019-08-16T13:13:16Z</time>
      </trkpt>
      <trkpt lat="48.01926" lon="6.81984">
        <ele>826.53418</ele>
        <time>2019-08-16T13:13:17Z</time>
      </trkpt>
      <trkpt lat="48.01924" lon="6.81985">
        <ele>826.679749</ele>
        <time>2019-08-16T13:13:18Z</time>
      </trkpt>
      <trkpt lat="48.01922" lon="6.81985">
        <ele>826.819275</ele>
        <time>2019-08-16T13:13:19Z</time>
      </trkpt>
      <trkpt lat="48.0192" lon="6.81985">
        <ele>827.019043</ele>
        <time>2019-08-16T13:13:20Z</time>
      </trkpt>
      <trkpt lat="48.01918" lon="6.81985">
        <ele>827.144348</ele>
        <time>2019-08-16T13:13:21Z</time>
      </trkpt>
      <trkpt lat="48.01917" lon="6.81986">
        <ele>827.260437</ele>
        <time>2019-08-16T13:13:22Z</time>
      </trkpt>
      <trkpt lat="48.01915" lon="6.81987">
        <ele>827.415039</ele>
        <time>2019-08-16T13:13:23Z</time>
      </trkpt>
      <trkpt lat="48.01914" lon="6.81987">
        <ele>827.501709</ele>
        <time>2019-08-16T13:13:24Z</time>
      </trkpt>
      <trkpt lat="48.01912" lon="6.81987">
        <ele>827.614502</ele>
        <time>2019-08-16T13:13:25Z</time>
      </trkpt>
      <trkpt lat="48.0191" lon="6.81987">
        <ele>827.686462</ele>
        <time>2019-08-16T13:13:26Z</time>
      </trkpt>
      <trkpt lat="48.01909" lon="6.81987">
        <ele>827.765381</ele>
        <time>2019-08-16T13:13:27Z</time>
      </trkpt>
      <trkpt lat="48.01907" lon="6.81987">
        <ele>827.892822</ele>
        <time>2019-08-16T13:13:28Z</time>
      </trkpt>
      <trkpt lat="48.01904" lon="6.81988">
        <ele>827.98291</ele>
        <time>2019-08-16T13:13:29Z</time>
      </trkpt>
      <trkpt lat="48.01902" lon="6.81987">
        <ele>828.074768</ele>
        <time>2019-08-16T13:13:30Z</time>
      </trkpt>
      <trkpt lat="48.01901" lon="6.81987">
        <ele>828.217041</ele>
        <time>2019-08-16T13:13:31Z</time>
      </trkpt>
      <trkpt lat="48.019" lon="6.81987">
        <ele>828.308838</ele>
        <time>2019-08-16T13:13:32Z</time>
      </trkpt>
      <trkpt lat="48.01898" lon="6.81987">
        <ele>828.440369</ele>
        <time>2019-08-16T13:13:33Z</time>
      </trkpt>
      <trkpt lat="48.01897" lon="6.81987">
        <ele>828.528748</ele>
        <time>2019-08-16T13:13:34Z</time>
      </trkpt>
      <trkpt lat="48.01895" lon="6.81987">
        <ele>828.624512</ele>
        <time>2019-08-16T13:13:35Z</time>
      </trkpt>
      <trkpt lat="48.01893" lon="6.81987">
        <ele>828.784241</ele>
        <time>2019-08-16T13:13:36Z</time>
      </trkpt>
      <trkpt lat="48.01891" lon="6.81987">
        <ele>828.904785</ele>
        <time>2019-08-16T13:13:37Z</time>
      </trkpt>
      <trkpt lat="48.01889" lon="6.81987">
        <ele>829.105652</ele>
        <time>2019-08-16T13:13:38Z</time>
      </trkpt>
      <trkpt lat="48.01887" lon="6.81987">
        <ele>829.248108</ele>
        <time>2019-08-16T13:13:39Z</time>
      </trkpt>
      <trkpt lat="48.01886" lon="6.81987">
        <ele>829.396301</ele>
        <time>2019-08-16T13:13:40Z</time>
      </trkpt>
      <trkpt lat="48.01884" lon="6.81987">
        <ele>829.618103</ele>
        <time>2019-08-16T13:13:41Z</time>
      </trkpt>
      <trkpt lat="48.01881" lon="6.81987">
        <ele>829.757874</ele>
        <time>2019-08-16T13:13:42Z</time>
      </trkpt>
      <trkpt lat="48.01879" lon="6.81987">
        <ele>829.943665</ele>
        <time>2019-08-16T13:13:43Z</time>
      </trkpt>
      <trkpt lat="48.01877" lon="6.81987">
        <ele>830.049622</ele>
        <time>2019-08-16T13:13:44Z</time>
      </trkpt>
      <trkpt lat="48.01875" lon="6.81987">
        <ele>830.14209</ele>
        <time>2019-08-16T13:13:45Z</time>
      </trkpt>
      <trkpt lat="48.01873" lon="6.81987">
        <ele>830.266418</ele>
        <time>2019-08-16T13:13:46Z</time>
      </trkpt>
      <trkpt lat="48.01871" lon="6.81988">
        <ele>830.34082</ele>
        <time>2019-08-16T13:13:47Z</time>
      </trkpt>
      <trkpt lat="48.01869" lon="6.81988">
        <ele>830.44342</ele>
        <time>2019-08-16T13:13:48Z</time>
      </trkpt>
      <trkpt lat="48.01867" lon="6.81988">
        <ele>830.51416</ele>
        <time>2019-08-16T13:13:49Z</time>
      </trkpt>
      <trkpt lat="48.01865" lon="6.81988">
        <ele>830.595703</ele>
        <time>2019-08-16T13:13:50Z</time>
      </trkpt>
      <trkpt lat="48.01863" lon="6.81987">
        <ele>830.733704</ele>
        <time>2019-08-16T13:13:51Z</time>
      </trkpt>
      <trkpt lat="48.01861" lon="6.81987">
        <ele>830.827209</ele>
        <time>2019-08-16T13:13:52Z</time>
      </trkpt>
      <trkpt lat="48.01858" lon="6.81987">
        <ele>830.918152</ele>
        <time>2019-08-16T13:13:53Z</time>
      </trkpt>
      <trkpt lat="48.01856" lon="6.81986">
        <ele>831.060242</ele>
        <time>2019-08-16T13:13:54Z</time>
      </trkpt>
      <trkpt lat="48.01854" lon="6.81986">
        <ele>831.163025</ele>
        <time>2019-08-16T13:13:55Z</time>
      </trkpt>
      <trkpt lat="48.01852" lon="6.81985">
        <ele>831.216797</ele>
        <time>2019-08-16T13:13:56Z</time>
      </trkpt>
      <trkpt lat="48.01851" lon="6.81985">
        <ele>831.272766</ele>
        <time>2019-08-16T13:13:57Z</time>
      </trkpt>
      <trkpt lat="48.01849" lon="6.81984">
        <ele>831.440918</ele>
        <time>2019-08-16T13:13:58Z</time>
      </trkpt>
      <trkpt lat="48.01847" lon="6.81983">
        <ele>831.55365</ele>
        <time>2019-08-16T13:13:59Z</time>
      </trkpt>
      <trkpt lat="48.01845" lon="6.81982">
        <ele>831.722656</ele>
        <time>2019-08-16T13:14:00Z</time>
      </trkpt>
      <trkpt lat="48.01843" lon="6.81981">
        <ele>831.835205</ele>
        <time>2019-08-16T13:14:01Z</time>
      </trkpt>
      <trkpt lat="48.01841" lon="6.8198">
        <ele>831.958496</ele>
        <time>2019-08-16T13:14:02Z</time>
      </trkpt>
      <trkpt lat="48.01839" lon="6.81978">
        <ele>832.172363</ele>
        <time>2019-08-16T13:14:03Z</time>
      </trkpt>
      <trkpt lat="48.01838" lon="6.81977">
        <ele>832.340088</ele>
        <time>2019-08-16T13:14:04Z</time>
      </trkpt>
      <trkpt lat="48.01836" lon="6.81976">
        <ele>832.516846</ele>
        <time>2019-08-16T13:14:05Z</time>
      </trkpt>
      <trkpt lat="48.01834" lon="6.81974">
        <ele>832.787903</ele>
        <time>2019-08-16T13:14:06Z</time>
      </trkpt>
      <trkpt lat="48.01832" lon="6.81973">
        <ele>832.962708</ele>
        <time>2019-08-16T13:14:07Z</time>
      </trkpt>
      <trkpt lat="48.01831" lon="6.81971">
        <ele>833.13446</ele>
        <time>2019-08-16T13:14:08Z</time>
      </trkpt>
      <trkpt lat="48.01829" lon="6.8197">
        <ele>833.36322</ele>
        <time>2019-08-16T13:14:09Z</time>
      </trkpt>
      <trkpt lat="48.01828" lon="6.81969">
        <ele>833.49707</ele>
        <time>2019-08-16T13:14:10Z</time>
      </trkpt>
      <trkpt lat="48.01825" lon="6.81967">
        <ele>833.61261</ele>
        <time>2019-08-16T13:14:11Z</time>
      </trkpt>
      <trkpt lat="48.01824" lon="6.81965">
        <ele>833.765625</ele>
        <time>2019-08-16T13:14:12Z</time>
      </trkpt>
      <trkpt lat="48.01822" lon="6.81964">
        <ele>833.861389</ele>
        <time>2019-08-16T13:14:13Z</time>
      </trkpt>
      <trkpt lat="48.0182" lon="6.81963">
        <ele>833.960999</ele>
        <time>2019-08-16T13:14:14Z</time>
      </trkpt>
      <trkpt lat="48.01819" lon="6.81961">
        <ele>834.124207</ele>
        <time>2019-08-16T13:14:15Z</time>
      </trkpt>
      <trkpt lat="48.01817" lon="6.8196">
        <ele>834.246887</ele>
        <time>2019-08-16T13:14:16Z</time>
      </trkpt>
      <trkpt lat="48.01815" lon="6.81959">
        <ele>834.379456</ele>
        <time>2019-08-16T13:14:17Z</time>
      </trkpt>
      <trkpt lat="48.01812" lon="6.81958">
        <ele>834.59198</ele>
        <time>2019-08-16T13:14:18Z</time>
      </trkpt>
      <trkpt lat="48.01811" lon="6.81957">
        <ele>834.743164</ele>
        <time>2019-08-16T13:14:19Z</time>
      </trkpt>
      <trkpt lat="48.01809" lon="6.81956">
        <ele>834.895447</ele>
        <time>2019-08-16T13:14:20Z</time>
      </trkpt>
      <trkpt lat="48.01807" lon="6.81955">
        <ele>835.102966</ele>
        <time>2019-08-16T13:14:21Z</time>
      </trkpt>
      <trkpt lat="48.01805" lon="6.81955">
        <ele>835.219238</ele>
        <time>2019-08-16T13:14:22Z</time>
      </trkpt>
      <trkpt lat="48.01803" lon="6.81954">
        <ele>835.328552</ele>
        <time>2019-08-16T13:14:23Z</time>
      </trkpt>
      <trkpt lat="48.01801" lon="6.81953">
        <ele>835.498352</ele>
        <time>2019-08-16T13:14:24Z</time>
      </trkpt>
      <trkpt lat="48.01799" lon="6.81953">
        <ele>835.618469</ele>
        <time>2019-08-16T13:14:25Z</time>
      </trkpt>
      <trkpt lat="48.01798" lon="6.81952">
        <ele>835.742859</ele>
        <time>2019-08-16T13:14:26Z</time>
      </trkpt>
      <trkpt lat="48.01796" lon="6.81952">
        <ele>835.940918</ele>
        <time>2019-08-16T13:14:27Z</time>
      </trkpt>
      <trkpt lat="48.01793" lon="6.81952">
        <ele>836.073425</ele>
        <time>2019-08-16T13:14:28Z</time>
      </trkpt>
      <trkpt lat="48.01791" lon="6.81952">
        <ele>836.260254</ele>
        <time>2019-08-16T13:14:29Z</time>
      </trkpt>
      <trkpt lat="48.0179" lon="6.81951">
        <ele>836.373596</ele>
        <time>2019-08-16T13:14:30Z</time>
      </trkpt>
      <trkpt lat="48.01787" lon="6.81951">
        <ele>836.477234</ele>
        <time>2019-08-16T13:14:31Z</time>
      </trkpt>
      <trkpt lat="48.01786" lon="6.8195">
        <ele>836.630554</ele>
        <time>2019-08-16T13:14:32Z</time>
      </trkpt>
      <trkpt lat="48.01783" lon="6.8195">
        <ele>836.739075</ele>
        <time>2019-08-16T13:14:33Z</time>
      </trkpt>
      <trkpt lat="48.01782" lon="6.8195">
        <ele>836.917297</ele>
        <time>2019-08-16T13:14:34Z</time>
      </trkpt>
      <trkpt lat="48.0178" lon="6.81949">
        <ele>837.041199</ele>
        <time>2019-08-16T13:14:35Z</time>
      </trkpt>
      <trkpt lat="48.01777" lon="6.81949">
        <ele>837.162354</ele>
        <time>2019-08-16T13:14:36Z</time>
      </trkpt>
      <trkpt lat="48.01776" lon="6.81948">
        <ele>837.337891</ele>
        <time>2019-08-16T13:14:37Z</time>
      </trkpt>
      <trkpt lat="48.01774" lon="6.81948">
        <ele>837.445801</ele>
        <time>2019-08-16T13:14:38Z</time>
      </trkpt>
      <trkpt lat="48.01772" lon="6.81948">
        <ele>837.543274</ele>
        <time>2019-08-16T13:14:39Z</time>
      </trkpt>
      <trkpt lat="48.0177" lon="6.81948">
        <ele>837.673279</ele>
        <time>2019-08-16T13:14:40Z</time>
      </trkpt>
      <trkpt lat="48.01768" lon="6.81947">
        <ele>837.757263</ele>
        <time>2019-08-16T13:14:41Z</time>
      </trkpt>
      <trkpt lat="48.01766" lon="6.81947">
        <ele>837.836487</ele>
        <time>2019-08-16T13:14:42Z</time>
      </trkpt>
      <trkpt lat="48.01764" lon="6.81946">
        <ele>837.957214</ele>
        <time>2019-08-16T13:14:43Z</time>
      </trkpt>
      <trkpt lat="48.01762" lon="6.81945">
        <ele>838.049133</ele>
        <time>2019-08-16T13:14:44Z</time>
      </trkpt>
      <trkpt lat="48.01761" lon="6.81944">
        <ele>838.221008</ele>
        <time>2019-08-16T13:14:45Z</time>
      </trkpt>
      <trkpt lat="48.01759" lon="6.81944">
        <ele>838.344543</ele>
        <time>2019-08-16T13:14:46Z</time>
      </trkpt>
      <trkpt lat="48.01757" lon="6.81943">
        <ele>838.460693</ele>
        <time>2019-08-16T13:14:47Z</time>
      </trkpt>
      <trkpt lat="48.01755" lon="6.81943">
        <ele>838.608459</ele>
        <time>2019-08-16T13:14:48Z</time>
      </trkpt>
      <trkpt lat="48.01753" lon="6.81942">
        <ele>838.695068</ele>
        <time>2019-08-16T13:14:49Z</time>
      </trkpt>
      <trkpt lat="48.01751" lon="6.81942">
        <ele>838.782715</ele>
        <time>2019-08-16T13:14:50Z</time>
      </trkpt>
      <trkpt lat="48.01749" lon="6.81941">
        <ele>838.918762</ele>
        <time>2019-08-16T13:14:51Z</time>
      </trkpt>
      <trkpt lat="48.01747" lon="6.8194">
        <ele>839.017395</ele>
        <time>2019-08-16T13:14:52Z</time>
      </trkpt>
      <trkpt lat="48.01746" lon="6.8194">
        <ele>839.122864</ele>
        <time>2019-08-16T13:14:53Z</time>
      </trkpt>
      <trkpt lat="48.01743" lon="6.81939">
        <ele>839.300781</ele>
        <time>2019-08-16T13:14:54Z</time>
      </trkpt>
      <trkpt lat="48.01741" lon="6.81938">
        <ele>839.422852</ele>
        <time>2019-08-16T13:14:55Z</time>
      </trkpt>
      <trkpt lat="48.01739" lon="6.81937">
        <ele>839.542175</ele>
        <time>2019-08-16T13:14:56Z</time>
      </trkpt>
      <trkpt lat="48.01737" lon="6.81936">
        <ele>839.600769</ele>
        <time>2019-08-16T13:14:57Z</time>
      </trkpt>
      <trkpt lat="48.01735" lon="6.81936">
        <ele>839.774719</ele>
        <time>2019-08-16T13:14:58Z</time>
      </trkpt>
      <trkpt lat="48.01733" lon="6.81935">
        <ele>839.896301</ele>
        <time>2019-08-16T13:14:59Z</time>
      </trkpt>
      <trkpt lat="48.01731" lon="6.81934">
        <ele>840.026855</ele>
        <time>2019-08-16T13:15:00Z</time>
      </trkpt>
      <trkpt lat="48.01729" lon="6.81934">
        <ele>840.245911</ele>
        <time>2019-08-16T13:15:01Z</time>
      </trkpt>
      <trkpt lat="48.01728" lon="6.81933">
        <ele>840.40332</ele>
        <time>2019-08-16T13:15:02Z</time>
      </trkpt>
      <trkpt lat="48.01725" lon="6.81932">
        <ele>840.628662</ele>
        <time>2019-08-16T13:15:03Z</time>
      </trkpt>
      <trkpt lat="48.01724" lon="6.81932">
        <ele>840.763184</ele>
        <time>2019-08-16T13:15:04Z</time>
      </trkpt>
      <trkpt lat="48.01722" lon="6.81931">
        <ele>840.884705</ele>
        <time>2019-08-16T13:15:05Z</time>
      </trkpt>
      <trkpt lat="48.01721" lon="6.81931">
        <ele>841.040588</ele>
        <time>2019-08-16T13:15:06Z</time>
      </trkpt>
      <trkpt lat="48.01719" lon="6.81931">
        <ele>841.12085</ele>
        <time>2019-08-16T13:15:07Z</time>
      </trkpt>
      <trkpt lat="48.01717" lon="6.81931">
        <ele>841.219971</ele>
        <time>2019-08-16T13:15:08Z</time>
      </trkpt>
      <trkpt lat="48.01716" lon="6.81931">
        <ele>841.290833</ele>
        <time>2019-08-16T13:15:09Z</time>
      </trkpt>
      <trkpt lat="48.01714" lon="6.81931">
        <ele>841.384094</ele>
        <time>2019-08-16T13:15:10Z</time>
      </trkpt>
      <trkpt lat="48.01712" lon="6.8193">
        <ele>841.567078</ele>
        <time>2019-08-16T13:15:11Z</time>
      </trkpt>
      <trkpt lat="48.01711" lon="6.8193">
        <ele>841.706787</ele>
        <time>2019-08-16T13:15:12Z</time>
      </trkpt>
      <trkpt lat="48.01708" lon="6.81931">
        <ele>841.929382</ele>
        <time>2019-08-16T13:15:13Z</time>
      </trkpt>
      <trkpt lat="48.01707" lon="6.81931">
        <ele>842.08075</ele>
        <time>2019-08-16T13:15:14Z</time>
      </trkpt>
      <trkpt lat="48.01705" lon="6.81932">
        <ele>842.222961</ele>
        <time>2019-08-16T13:15:15Z</time>
      </trkpt>
      <trkpt lat="48.01703" lon="6.81932">
        <ele>842.414246</ele>
        <time>2019-08-16T13:15:16Z</time>
      </trkpt>
      <trkpt lat="48.01701" lon="6.81933">
        <ele>842.535889</ele>
        <time>2019-08-16T13:15:17Z</time>
      </trkpt>
      <trkpt lat="48.017" lon="6.81934">
        <ele>842.663818</ele>
        <time>2019-08-16T13:15:18Z</time>
      </trkpt>
      <trkpt lat="48.01698" lon="6.81935">
        <ele>842.876892</ele>
        <time>2019-08-16T13:15:19Z</time>
      </trkpt>
      <trkpt lat="48.01696" lon="6.81936">
        <ele>843.024719</ele>
        <time>2019-08-16T13:15:20Z</time>
      </trkpt>
      <trkpt lat="48.01694" lon="6.81937">
        <ele>843.168457</ele>
        <time>2019-08-16T13:15:21Z</time>
      </trkpt>
      <trkpt lat="48.01692" lon="6.81938">
        <ele>843.383301</ele>
        <time>2019-08-16T13:15:22Z</time>
      </trkpt>
      <trkpt lat="48.01691" lon="6.81939">
        <ele>843.541687</ele>
        <time>2019-08-16T13:15:23Z</time>
      </trkpt>
      <trkpt lat="48.01688" lon="6.8194">
        <ele>843.707703</ele>
        <time>2019-08-16T13:15:24Z</time>
      </trkpt>
      <trkpt lat="48.01687" lon="6.81941">
        <ele>843.94989</ele>
        <time>2019-08-16T13:15:25Z</time>
      </trkpt>
      <trkpt lat="48.01685" lon="6.81942">
        <ele>844.100342</ele>
        <time>2019-08-16T13:15:26Z</time>
      </trkpt>
      <trkpt lat="48.01683" lon="6.81944">
        <ele>844.249695</ele>
        <time>2019-08-16T13:15:27Z</time>
      </trkpt>
      <trkpt lat="48.01681" lon="6.81945">
        <ele>844.478271</ele>
        <time>2019-08-16T13:15:28Z</time>
      </trkpt>
      <trkpt lat="48.01679" lon="6.81946">
        <ele>844.625977</ele>
        <time>2019-08-16T13:15:29Z</time>
      </trkpt>
      <trkpt lat="48.01677" lon="6.81946">
        <ele>844.762024</ele>
        <time>2019-08-16T13:15:30Z</time>
      </trkpt>
      <trkpt lat="48.01675" lon="6.81947">
        <ele>844.953613</ele>
        <time>2019-08-16T13:15:31Z</time>
      </trkpt>
      <trkpt lat="48.01674" lon="6.81948">
        <ele>845.086487</ele>
        <time>2019-08-16T13:15:32Z</time>
      </trkpt>
      <trkpt lat="48.01672" lon="6.81948">
        <ele>845.222717</ele>
        <time>2019-08-16T13:15:33Z</time>
      </trkpt>
      <trkpt lat="48.01669" lon="6.8195">
        <ele>845.415344</ele>
        <time>2019-08-16T13:15:34Z</time>
      </trkpt>
      <trkpt lat="48.01668" lon="6.8195">
        <ele>845.532776</ele>
        <time>2019-08-16T13:15:35Z</time>
      </trkpt>
      <trkpt lat="48.01666" lon="6.81951">
        <ele>845.641357</ele>
        <time>2019-08-16T13:15:36Z</time>
      </trkpt>
      <trkpt lat="48.01664" lon="6.81952">
        <ele>845.800781</ele>
        <time>2019-08-16T13:15:37Z</time>
      </trkpt>
      <trkpt lat="48.01662" lon="6.81954">
        <ele>845.909912</ele>
        <time>2019-08-16T13:15:38Z</time>
      </trkpt>
      <trkpt lat="48.0166" lon="6.81955">
        <ele>846.023865</ele>
        <time>2019-08-16T13:15:39Z</time>
      </trkpt>
      <trkpt lat="48.01659" lon="6.81955">
        <ele>846.195374</ele>
        <time>2019-08-16T13:15:40Z</time>
      </trkpt>
      <trkpt lat="48.01658" lon="6.81956">
        <ele>846.308167</ele>
        <time>2019-08-16T13:15:41Z</time>
      </trkpt>
      <trkpt lat="48.01656" lon="6.81957">
        <ele>846.419495</ele>
        <time>2019-08-16T13:15:42Z</time>
      </trkpt>
      <trkpt lat="48.01654" lon="6.81957">
        <ele>846.581848</ele>
        <time>2019-08-16T13:15:43Z</time>
      </trkpt>
      <trkpt lat="48.01653" lon="6.81959">
        <ele>846.684326</ele>
        <time>2019-08-16T13:15:44Z</time>
      </trkpt>
      <trkpt lat="48.01651" lon="6.8196">
        <ele>846.786377</ele>
        <time>2019-08-16T13:15:45Z</time>
      </trkpt>
      <trkpt lat="48.01649" lon="6.81961">
        <ele>846.9505</ele>
        <time>2019-08-16T13:15:46Z</time>
      </trkpt>
      <trkpt lat="48.01647" lon="6.81962">
        <ele>847.07666</ele>
        <time>2019-08-16T13:15:47Z</time>
      </trkpt>
      <trkpt lat="48.01645" lon="6.81964">
        <ele>847.224304</ele>
        <time>2019-08-16T13:15:48Z</time>
      </trkpt>
      <trkpt lat="48.01643" lon="6.81965">
        <ele>847.472351</ele>
        <time>2019-08-16T13:15:49Z</time>
      </trkpt>
      <trkpt lat="48.01642" lon="6.81966">
        <ele>847.642578</ele>
        <time>2019-08-16T13:15:50Z</time>
      </trkpt>
      <trkpt lat="48.01639" lon="6.81967">
        <ele>847.894287</ele>
        <time>2019-08-16T13:15:51Z</time>
      </trkpt>
      <trkpt lat="48.01637" lon="6.81968">
        <ele>848.060364</ele>
        <time>2019-08-16T13:15:52Z</time>
      </trkpt>
      <trkpt lat="48.01635" lon="6.81969">
        <ele>848.217468</ele>
        <time>2019-08-16T13:15:53Z</time>
      </trkpt>
      <trkpt lat="48.01633" lon="6.8197">
        <ele>848.42334</ele>
        <time>2019-08-16T13:15:54Z</time>
      </trkpt>
      <trkpt lat="48.01631" lon="6.81971">
        <ele>848.534912</ele>
        <time>2019-08-16T13:15:55Z</time>
      </trkpt>
      <trkpt lat="48.01629" lon="6.81972">
        <ele>848.636475</ele>
        <time>2019-08-16T13:15:56Z</time>
      </trkpt>
      <trkpt lat="48.01627" lon="6.81973">
        <ele>848.735046</ele>
        <time>2019-08-16T13:15:57Z</time>
      </trkpt>
      <trkpt lat="48.01624" lon="6.81974">
        <ele>848.785095</ele>
        <time>2019-08-16T13:15:58Z</time>
      </trkpt>
      <trkpt lat="48.01622" lon="6.81975">
        <ele>848.83429</ele>
        <time>2019-08-16T13:15:59Z</time>
      </trkpt>
      <trkpt lat="48.01621" lon="6.81976">
        <ele>848.980957</ele>
        <time>2019-08-16T13:16:00Z</time>
      </trkpt>
      <trkpt lat="48.01618" lon="6.81976">
        <ele>849.08667</ele>
        <time>2019-08-16T13:16:01Z</time>
      </trkpt>
      <trkpt lat="48.01616" lon="6.81976">
        <ele>849.208008</ele>
        <time>2019-08-16T13:16:02Z</time>
      </trkpt>
      <trkpt lat="48.01614" lon="6.81976">
        <ele>849.40741</ele>
        <time>2019-08-16T13:16:03Z</time>
      </trkpt>
      <trkpt lat="48.01612" lon="6.81976">
        <ele>849.539978</ele>
        <time>2019-08-16T13:16:04Z</time>
      </trkpt>
      <trkpt lat="48.01611" lon="6.81977">
        <ele>849.729004</ele>
        <time>2019-08-16T13:16:05Z</time>
      </trkpt>
      <trkpt lat="48.0161" lon="6.81977">
        <ele>849.852295</ele>
        <time>2019-08-16T13:16:06Z</time>
      </trkpt>
      <trkpt lat="48.01607" lon="6.81977">
        <ele>850.076416</ele>
        <time>2019-08-16T13:16:07Z</time>
      </trkpt>
      <trkpt lat="48.01605" lon="6.81976">
        <ele>850.122131</ele>
        <time>2019-08-16T13:16:08Z</time>
      </trkpt>
      <trkpt lat="48.01604" lon="6.81976">
        <ele>850.275146</ele>
        <time>2019-08-16T13:16:09Z</time>
      </trkpt>
      <trkpt lat="48.01603" lon="6.81977">
        <ele>850.401611</ele>
        <time>2019-08-16T13:16:11Z</time>
      </trkpt>
      <trkpt lat="48.01601" lon="6.81976">
        <ele>850.501221</ele>
        <time>2019-08-16T13:16:12Z</time>
      </trkpt>
      <trkpt lat="48.01599" lon="6.81976">
        <ele>850.611511</ele>
        <time>2019-08-16T13:16:13Z</time>
      </trkpt>
      <trkpt lat="48.01597" lon="6.81975">
        <ele>850.802063</ele>
        <time>2019-08-16T13:16:14Z</time>
      </trkpt>
      <trkpt lat="48.01595" lon="6.81974">
        <ele>850.956543</ele>
        <time>2019-08-16T13:16:15Z</time>
      </trkpt>
      <trkpt lat="48.01593" lon="6.81974">
        <ele>851.133118</ele>
        <time>2019-08-16T13:16:16Z</time>
      </trkpt>
      <trkpt lat="48.01591" lon="6.81973">
        <ele>851.410645</ele>
        <time>2019-08-16T13:16:17Z</time>
      </trkpt>
      <trkpt lat="48.01589" lon="6.81973">
        <ele>851.587646</ele>
        <time>2019-08-16T13:16:18Z</time>
      </trkpt>
      <trkpt lat="48.01587" lon="6.81972">
        <ele>851.756409</ele>
        <time>2019-08-16T13:16:19Z</time>
      </trkpt>
      <trkpt lat="48.01585" lon="6.81971">
        <ele>851.985596</ele>
        <time>2019-08-16T13:16:20Z</time>
      </trkpt>
      <trkpt lat="48.01584" lon="6.8197">
        <ele>852.117371</ele>
        <time>2019-08-16T13:16:21Z</time>
      </trkpt>
      <trkpt lat="48.01582" lon="6.8197">
        <ele>852.227356</ele>
        <time>2019-08-16T13:16:22Z</time>
      </trkpt>
      <trkpt lat="48.0158" lon="6.8197">
        <ele>852.369324</ele>
        <time>2019-08-16T13:16:23Z</time>
      </trkpt>
      <trkpt lat="48.01577" lon="6.81969">
        <ele>852.464172</ele>
        <time>2019-08-16T13:16:24Z</time>
      </trkpt>
      <trkpt lat="48.01576" lon="6.81969">
        <ele>852.62915</ele>
        <time>2019-08-16T13:16:25Z</time>
      </trkpt>
      <trkpt lat="48.01574" lon="6.81968">
        <ele>852.747498</ele>
        <time>2019-08-16T13:16:26Z</time>
      </trkpt>
      <trkpt lat="48.01572" lon="6.81967">
        <ele>852.867676</ele>
        <time>2019-08-16T13:16:27Z</time>
      </trkpt>
      <trkpt lat="48.01569" lon="6.81966">
        <ele>853.047546</ele>
        <time>2019-08-16T13:16:28Z</time>
      </trkpt>
      <trkpt lat="48.01568" lon="6.81965">
        <ele>853.167786</ele>
        <time>2019-08-16T13:16:29Z</time>
      </trkpt>
      <trkpt lat="48.01565" lon="6.81965">
        <ele>853.340332</ele>
        <time>2019-08-16T13:16:30Z</time>
      </trkpt>
      <trkpt lat="48.01563" lon="6.81964">
        <ele>853.444336</ele>
        <time>2019-08-16T13:16:31Z</time>
      </trkpt>
      <trkpt lat="48.01561" lon="6.81964">
        <ele>853.534485</ele>
        <time>2019-08-16T13:16:32Z</time>
      </trkpt>
      <trkpt lat="48.01561" lon="6.81963">
        <ele>853.750732</ele>
        <time>2019-08-16T13:16:33Z</time>
      </trkpt>
      <trkpt lat="48.01559" lon="6.81962">
        <ele>853.914734</ele>
        <time>2019-08-16T13:16:35Z</time>
      </trkpt>
      <trkpt lat="48.01557" lon="6.81961">
        <ele>854.038574</ele>
        <time>2019-08-16T13:16:36Z</time>
      </trkpt>
      <trkpt lat="48.01555" lon="6.81961">
        <ele>854.168274</ele>
        <time>2019-08-16T13:16:37Z</time>
      </trkpt>
      <trkpt lat="48.01554" lon="6.81961">
        <ele>854.486389</ele>
        <time>2019-08-16T13:16:38Z</time>
      </trkpt>
      <trkpt lat="48.01552" lon="6.8196">
        <ele>854.601501</ele>
        <time>2019-08-16T13:16:40Z</time>
      </trkpt>
      <trkpt lat="48.0155" lon="6.8196">
        <ele>854.76532</ele>
        <time>2019-08-16T13:16:41Z</time>
      </trkpt>
      <trkpt lat="48.01548" lon="6.8196">
        <ele>854.87207</ele>
        <time>2019-08-16T13:16:42Z</time>
      </trkpt>
      <trkpt lat="48.01546" lon="6.81959">
        <ele>854.97168</ele>
        <time>2019-08-16T13:16:43Z</time>
      </trkpt>
      <trkpt lat="48.01543" lon="6.81959">
        <ele>855.107361</ele>
        <time>2019-08-16T13:16:44Z</time>
      </trkpt>
      <trkpt lat="48.01541" lon="6.81959">
        <ele>855.191711</ele>
        <time>2019-08-16T13:16:45Z</time>
      </trkpt>
      <trkpt lat="48.01539" lon="6.81959">
        <ele>855.319275</ele>
        <time>2019-08-16T13:16:46Z</time>
      </trkpt>
      <trkpt lat="48.01537" lon="6.81959">
        <ele>855.409912</ele>
        <time>2019-08-16T13:16:47Z</time>
      </trkpt>
      <trkpt lat="48.01535" lon="6.81959">
        <ele>855.500793</ele>
        <time>2019-08-16T13:16:48Z</time>
      </trkpt>
      <trkpt lat="48.01533" lon="6.81959">
        <ele>855.628662</ele>
        <time>2019-08-16T13:16:49Z</time>
      </trkpt>
      <trkpt lat="48.01531" lon="6.81958">
        <ele>855.709412</ele>
        <time>2019-08-16T13:16:50Z</time>
      </trkpt>
      <trkpt lat="48.01529" lon="6.81958">
        <ele>855.837891</ele>
        <time>2019-08-16T13:16:51Z</time>
      </trkpt>
      <trkpt lat="48.01527" lon="6.81958">
        <ele>855.936707</ele>
        <time>2019-08-16T13:16:52Z</time>
      </trkpt>
      <trkpt lat="48.01525" lon="6.81957">
        <ele>856.051025</ele>
        <time>2019-08-16T13:16:53Z</time>
      </trkpt>
      <trkpt lat="48.01522" lon="6.81957">
        <ele>856.247009</ele>
        <time>2019-08-16T13:16:54Z</time>
      </trkpt>
      <trkpt lat="48.01521" lon="6.81957">
        <ele>856.392273</ele>
        <time>2019-08-16T13:16:55Z</time>
      </trkpt>
      <trkpt lat="48.01519" lon="6.81958">
        <ele>856.610168</ele>
        <time>2019-08-16T13:16:56Z</time>
      </trkpt>
      <trkpt lat="48.01517" lon="6.81958">
        <ele>856.740723</ele>
        <time>2019-08-16T13:16:57Z</time>
      </trkpt>
      <trkpt lat="48.01514" lon="6.81959">
        <ele>856.858887</ele>
        <time>2019-08-16T13:16:58Z</time>
      </trkpt>
      <trkpt lat="48.01513" lon="6.81959">
        <ele>856.963684</ele>
        <time>2019-08-16T13:16:59Z</time>
      </trkpt>
      <trkpt lat="48.01511" lon="6.8196">
        <ele>857.101074</ele>
        <time>2019-08-16T13:17:01Z</time>
      </trkpt>
      <trkpt lat="48.01509" lon="6.8196">
        <ele>857.182922</ele>
        <time>2019-08-16T13:17:02Z</time>
      </trkpt>
      <trkpt lat="48.01507" lon="6.81961">
        <ele>857.266907</ele>
        <time>2019-08-16T13:17:03Z</time>
      </trkpt>
      <trkpt lat="48.01505" lon="6.81962">
        <ele>857.402283</ele>
        <time>2019-08-16T13:17:04Z</time>
      </trkpt>
      <trkpt lat="48.01503" lon="6.81963">
        <ele>857.498718</ele>
        <time>2019-08-16T13:17:05Z</time>
      </trkpt>
      <trkpt lat="48.01501" lon="6.81964">
        <ele>857.591309</ele>
        <time>2019-08-16T13:17:06Z</time>
      </trkpt>
      <trkpt lat="48.01498" lon="6.81965">
        <ele>857.72113</ele>
        <time>2019-08-16T13:17:07Z</time>
      </trkpt>
      <trkpt lat="48.01496" lon="6.81966">
        <ele>857.803284</ele>
        <time>2019-08-16T13:17:08Z</time>
      </trkpt>
      <trkpt lat="48.01495" lon="6.81966">
        <ele>857.878479</ele>
        <time>2019-08-16T13:17:09Z</time>
      </trkpt>
      <trkpt lat="48.01494" lon="6.81967">
        <ele>857.966553</ele>
        <time>2019-08-16T13:17:10Z</time>
      </trkpt>
      <trkpt lat="48.01493" lon="6.81967">
        <ele>858.016846</ele>
        <time>2019-08-16T13:17:11Z</time>
      </trkpt>
      <trkpt lat="48.01491" lon="6.81967">
        <ele>858.07074</ele>
        <time>2019-08-16T13:17:12Z</time>
      </trkpt>
      <trkpt lat="48.01489" lon="6.81967">
        <ele>858.169861</ele>
        <time>2019-08-16T13:17:13Z</time>
      </trkpt>
      <trkpt lat="48.01487" lon="6.81967">
        <ele>858.246887</ele>
        <time>2019-08-16T13:17:14Z</time>
      </trkpt>
      <trkpt lat="48.01484" lon="6.81966">
        <ele>858.333801</ele>
        <time>2019-08-16T13:17:15Z</time>
      </trkpt>
      <trkpt lat="48.01482" lon="6.81965">
        <ele>858.476501</ele>
        <time>2019-08-16T13:17:16Z</time>
      </trkpt>
      <trkpt lat="48.0148" lon="6.81965">
        <ele>858.577637</ele>
        <time>2019-08-16T13:17:17Z</time>
      </trkpt>
      <trkpt lat="48.01479" lon="6.81964">
        <ele>858.856995</ele>
        <time>2019-08-16T13:17:18Z</time>
      </trkpt>
      <trkpt lat="48.01477" lon="6.81963">
        <ele>858.974915</ele>
        <time>2019-08-16T13:17:20Z</time>
      </trkpt>
      <trkpt lat="48.01474" lon="6.81962">
        <ele>859.13678</ele>
        <time>2019-08-16T13:17:21Z</time>
      </trkpt>
      <trkpt lat="48.01473" lon="6.8196">
        <ele>859.234375</ele>
        <time>2019-08-16T13:17:22Z</time>
      </trkpt>
      <trkpt lat="48.01471" lon="6.81958">
        <ele>859.322998</ele>
        <time>2019-08-16T13:17:23Z</time>
      </trkpt>
      <trkpt lat="48.01469" lon="6.81956">
        <ele>859.449402</ele>
        <time>2019-08-16T13:17:24Z</time>
      </trkpt>
      <trkpt lat="48.01467" lon="6.81955">
        <ele>859.533997</ele>
        <time>2019-08-16T13:17:25Z</time>
      </trkpt>
      <trkpt lat="48.01465" lon="6.81953">
        <ele>859.62262</ele>
        <time>2019-08-16T13:17:26Z</time>
      </trkpt>
      <trkpt lat="48.01463" lon="6.81952">
        <ele>859.761902</ele>
        <time>2019-08-16T13:17:27Z</time>
      </trkpt>
      <trkpt lat="48.01461" lon="6.81951">
        <ele>859.864075</ele>
        <time>2019-08-16T13:17:28Z</time>
      </trkpt>
      <trkpt lat="48.01459" lon="6.8195">
        <ele>859.973328</ele>
        <time>2019-08-16T13:17:29Z</time>
      </trkpt>
      <trkpt lat="48.01457" lon="6.81948">
        <ele>860.137268</ele>
        <time>2019-08-16T13:17:30Z</time>
      </trkpt>
      <trkpt lat="48.01455" lon="6.81947">
        <ele>860.246765</ele>
        <time>2019-08-16T13:17:31Z</time>
      </trkpt>
      <trkpt lat="48.01453" lon="6.81946">
        <ele>860.365234</ele>
        <time>2019-08-16T13:17:32Z</time>
      </trkpt>
      <trkpt lat="48.0145" lon="6.81945">
        <ele>860.565247</ele>
        <time>2019-08-16T13:17:33Z</time>
      </trkpt>
      <trkpt lat="48.01448" lon="6.81944">
        <ele>860.700439</ele>
        <time>2019-08-16T13:17:34Z</time>
      </trkpt>
      <trkpt lat="48.01446" lon="6.81943">
        <ele>860.829895</ele>
        <time>2019-08-16T13:17:35Z</time>
      </trkpt>
      <trkpt lat="48.01444" lon="6.81943">
        <ele>861.01239</ele>
        <time>2019-08-16T13:17:36Z</time>
      </trkpt>
      <trkpt lat="48.01443" lon="6.81942">
        <ele>861.122864</ele>
        <time>2019-08-16T13:17:37Z</time>
      </trkpt>
      <trkpt lat="48.0144" lon="6.81941">
        <ele>861.218689</ele>
        <time>2019-08-16T13:17:38Z</time>
      </trkpt>
      <trkpt lat="48.01437" lon="6.8194">
        <ele>861.325012</ele>
        <time>2019-08-16T13:17:39Z</time>
      </trkpt>
      <trkpt lat="48.01435" lon="6.81939">
        <ele>861.377197</ele>
        <time>2019-08-16T13:17:40Z</time>
      </trkpt>
      <trkpt lat="48.01432" lon="6.81939">
        <ele>861.44635</ele>
        <time>2019-08-16T13:17:41Z</time>
      </trkpt>
      <trkpt lat="48.0143" lon="6.81939">
        <ele>861.486389</ele>
        <time>2019-08-16T13:17:42Z</time>
      </trkpt>
      <trkpt lat="48.01428" lon="6.81938">
        <ele>861.520691</ele>
        <time>2019-08-16T13:17:43Z</time>
      </trkpt>
      <trkpt lat="48.01425" lon="6.81937">
        <ele>861.570496</ele>
        <time>2019-08-16T13:17:44Z</time>
      </trkpt>
      <trkpt lat="48.01422" lon="6.81936">
        <ele>861.610168</ele>
        <time>2019-08-16T13:17:45Z</time>
      </trkpt>
      <trkpt lat="48.01419" lon="6.81936">
        <ele>861.658386</ele>
        <time>2019-08-16T13:17:46Z</time>
      </trkpt>
      <trkpt lat="48.01417" lon="6.81936">
        <ele>861.755676</ele>
        <time>2019-08-16T13:17:47Z</time>
      </trkpt>
      <trkpt lat="48.01415" lon="6.81936">
        <ele>861.843567</ele>
        <time>2019-08-16T13:17:48Z</time>
      </trkpt>
      <trkpt lat="48.01412" lon="6.81936">
        <ele>862.01709</ele>
        <time>2019-08-16T13:17:49Z</time>
      </trkpt>
      <trkpt lat="48.0141" lon="6.81936">
        <ele>862.14917</ele>
        <time>2019-08-16T13:17:50Z</time>
      </trkpt>
      <trkpt lat="48.01408" lon="6.81937">
        <ele>862.282227</ele>
        <time>2019-08-16T13:17:51Z</time>
      </trkpt>
      <trkpt lat="48.01405" lon="6.81937">
        <ele>862.475281</ele>
        <time>2019-08-16T13:17:52Z</time>
      </trkpt>
      <trkpt lat="48.01403" lon="6.81937">
        <ele>862.604675</ele>
        <time>2019-08-16T13:17:53Z</time>
      </trkpt>
      <trkpt lat="48.014" lon="6.81938">
        <ele>862.803955</ele>
        <time>2019-08-16T13:17:54Z</time>
      </trkpt>
      <trkpt lat="48.01398" lon="6.81939">
        <ele>862.932861</ele>
        <time>2019-08-16T13:17:55Z</time>
      </trkpt>
      <trkpt lat="48.01395" lon="6.81939">
        <ele>863.056335</ele>
        <time>2019-08-16T13:17:56Z</time>
      </trkpt>
      <trkpt lat="48.01393" lon="6.8194">
        <ele>863.234802</ele>
        <time>2019-08-16T13:17:57Z</time>
      </trkpt>
      <trkpt lat="48.0139" lon="6.81942">
        <ele>863.343262</ele>
        <time>2019-08-16T13:17:58Z</time>
      </trkpt>
      <trkpt lat="48.01387" lon="6.81943">
        <ele>863.391907</ele>
        <time>2019-08-16T13:17:59Z</time>
      </trkpt>
      <trkpt lat="48.01385" lon="6.81944">
        <ele>863.436951</ele>
        <time>2019-08-16T13:18:00Z</time>
      </trkpt>
      <trkpt lat="48.01382" lon="6.81946">
        <ele>863.563538</ele>
        <time>2019-08-16T13:18:01Z</time>
      </trkpt>
      <trkpt lat="48.01379" lon="6.81947">
        <ele>863.647461</ele>
        <time>2019-08-16T13:18:02Z</time>
      </trkpt>
      <trkpt lat="48.01377" lon="6.81948">
        <ele>863.734131</ele>
        <time>2019-08-16T13:18:03Z</time>
      </trkpt>
      <trkpt lat="48.01375" lon="6.8195">
        <ele>863.869446</ele>
        <time>2019-08-16T13:18:04Z</time>
      </trkpt>
      <trkpt lat="48.01373" lon="6.81951">
        <ele>863.967285</ele>
        <time>2019-08-16T13:18:05Z</time>
      </trkpt>
      <trkpt lat="48.01371" lon="6.81953">
        <ele>864.070984</ele>
        <time>2019-08-16T13:18:06Z</time>
      </trkpt>
      <trkpt lat="48.01369" lon="6.81955">
        <ele>864.225647</ele>
        <time>2019-08-16T13:18:07Z</time>
      </trkpt>
      <trkpt lat="48.01366" lon="6.81957">
        <ele>864.320984</ele>
        <time>2019-08-16T13:18:08Z</time>
      </trkpt>
      <trkpt lat="48.01365" lon="6.81959">
        <ele>864.414978</ele>
        <time>2019-08-16T13:18:09Z</time>
      </trkpt>
      <trkpt lat="48.01362" lon="6.81961">
        <ele>864.509705</ele>
        <time>2019-08-16T13:18:10Z</time>
      </trkpt>
      <trkpt lat="48.0136" lon="6.81963">
        <ele>864.653259</ele>
        <time>2019-08-16T13:18:11Z</time>
      </trkpt>
      <trkpt lat="48.01358" lon="6.81965">
        <ele>864.756348</ele>
        <time>2019-08-16T13:18:12Z</time>
      </trkpt>
      <trkpt lat="48.01355" lon="6.81966">
        <ele>864.872498</ele>
        <time>2019-08-16T13:18:13Z</time>
      </trkpt>
      <trkpt lat="48.01353" lon="6.81967">
        <ele>865.068665</ele>
        <time>2019-08-16T13:18:14Z</time>
      </trkpt>
      <trkpt lat="48.0135" lon="6.81969">
        <ele>865.210632</ele>
        <time>2019-08-16T13:18:15Z</time>
      </trkpt>
      <trkpt lat="48.01349" lon="6.81971">
        <ele>865.358704</ele>
        <time>2019-08-16T13:18:16Z</time>
      </trkpt>
      <trkpt lat="48.01347" lon="6.81972">
        <ele>865.585632</ele>
        <time>2019-08-16T13:18:17Z</time>
      </trkpt>
      <trkpt lat="48.01345" lon="6.81973">
        <ele>865.736145</ele>
        <time>2019-08-16T13:18:18Z</time>
      </trkpt>
      <trkpt lat="48.01344" lon="6.81975">
        <ele>865.882141</ele>
        <time>2019-08-16T13:18:19Z</time>
      </trkpt>
      <trkpt lat="48.01342" lon="6.81976">
        <ele>866.096191</ele>
        <time>2019-08-16T13:18:20Z</time>
      </trkpt>
      <trkpt lat="48.0134" lon="6.81977">
        <ele>866.231018</ele>
        <time>2019-08-16T13:18:21Z</time>
      </trkpt>
      <trkpt lat="48.01338" lon="6.81978">
        <ele>866.358459</ele>
        <time>2019-08-16T13:18:22Z</time>
      </trkpt>
      <trkpt lat="48.01336" lon="6.81979">
        <ele>866.540833</ele>
        <time>2019-08-16T13:18:23Z</time>
      </trkpt>
      <trkpt lat="48.01334" lon="6.81981">
        <ele>866.655945</ele>
        <time>2019-08-16T13:18:24Z</time>
      </trkpt>
      <trkpt lat="48.01331" lon="6.81983">
        <ele>866.762207</ele>
        <time>2019-08-16T13:18:25Z</time>
      </trkpt>
      <trkpt lat="48.01329" lon="6.81984">
        <ele>866.903625</ele>
        <time>2019-08-16T13:18:26Z</time>
      </trkpt>
      <trkpt lat="48.01327" lon="6.81985">
        <ele>866.995789</ele>
        <time>2019-08-16T13:18:27Z</time>
      </trkpt>
      <trkpt lat="48.01325" lon="6.81986">
        <ele>867.094482</ele>
        <time>2019-08-16T13:18:28Z</time>
      </trkpt>
      <trkpt lat="48.01323" lon="6.81987">
        <ele>867.243896</ele>
        <time>2019-08-16T13:18:29Z</time>
      </trkpt>
      <trkpt lat="48.0132" lon="6.81988">
        <ele>867.33252</ele>
        <time>2019-08-16T13:18:30Z</time>
      </trkpt>
      <trkpt lat="48.01318" lon="6.81989">
        <ele>867.413025</ele>
        <time>2019-08-16T13:18:31Z</time>
      </trkpt>
      <trkpt lat="48.01316" lon="6.81991">
        <ele>867.538269</ele>
        <time>2019-08-16T13:18:32Z</time>
      </trkpt>
      <trkpt lat="48.01313" lon="6.81992">
        <ele>867.631836</ele>
        <time>2019-08-16T13:18:33Z</time>
      </trkpt>
      <trkpt lat="48.01311" lon="6.81993">
        <ele>867.775085</ele>
        <time>2019-08-16T13:18:34Z</time>
      </trkpt>
      <trkpt lat="48.01309" lon="6.81994">
        <ele>867.870056</ele>
        <time>2019-08-16T13:18:35Z</time>
      </trkpt>
      <trkpt lat="48.01307" lon="6.81996">
        <ele>867.968445</ele>
        <time>2019-08-16T13:18:36Z</time>
      </trkpt>
      <trkpt lat="48.01304" lon="6.81997">
        <ele>868.128906</ele>
        <time>2019-08-16T13:18:37Z</time>
      </trkpt>
      <trkpt lat="48.01303" lon="6.81998">
        <ele>868.238342</ele>
        <time>2019-08-16T13:18:38Z</time>
      </trkpt>
      <trkpt lat="48.013" lon="6.81998">
        <ele>868.34552</ele>
        <time>2019-08-16T13:18:39Z</time>
      </trkpt>
      <trkpt lat="48.01298" lon="6.82">
        <ele>868.488586</ele>
        <time>2019-08-16T13:18:40Z</time>
      </trkpt>
      <trkpt lat="48.01296" lon="6.82001">
        <ele>868.575012</ele>
        <time>2019-08-16T13:18:41Z</time>
      </trkpt>
      <trkpt lat="48.01293" lon="6.82002">
        <ele>868.656067</ele>
        <time>2019-08-16T13:18:42Z</time>
      </trkpt>
      <trkpt lat="48.01291" lon="6.82003">
        <ele>868.769775</ele>
        <time>2019-08-16T13:18:43Z</time>
      </trkpt>
      <trkpt lat="48.01289" lon="6.82005">
        <ele>868.832764</ele>
        <time>2019-08-16T13:18:44Z</time>
      </trkpt>
      <trkpt lat="48.01288" lon="6.82006">
        <ele>868.891785</ele>
        <time>2019-08-16T13:18:45Z</time>
      </trkpt>
      <trkpt lat="48.01285" lon="6.82008">
        <ele>868.99054</ele>
        <time>2019-08-16T13:18:46Z</time>
      </trkpt>
      <trkpt lat="48.01283" lon="6.82009">
        <ele>869.069519</ele>
        <time>2019-08-16T13:18:47Z</time>
      </trkpt>
      <trkpt lat="48.01281" lon="6.8201">
        <ele>869.152832</ele>
        <time>2019-08-16T13:18:48Z</time>
      </trkpt>
      <trkpt lat="48.01279" lon="6.82011">
        <ele>869.279968</ele>
        <time>2019-08-16T13:18:49Z</time>
      </trkpt>
      <trkpt lat="48.01277" lon="6.82012">
        <ele>869.373535</ele>
        <time>2019-08-16T13:18:50Z</time>
      </trkpt>
      <trkpt lat="48.01275" lon="6.82013">
        <ele>869.477539</ele>
        <time>2019-08-16T13:18:51Z</time>
      </trkpt>
      <trkpt lat="48.01273" lon="6.82014">
        <ele>869.651062</ele>
        <time>2019-08-16T13:18:52Z</time>
      </trkpt>
      <trkpt lat="48.01271" lon="6.82015">
        <ele>869.767395</ele>
        <time>2019-08-16T13:18:53Z</time>
      </trkpt>
      <trkpt lat="48.01269" lon="6.82016">
        <ele>869.882813</ele>
        <time>2019-08-16T13:18:54Z</time>
      </trkpt>
      <trkpt lat="48.01267" lon="6.82017">
        <ele>870.049744</ele>
        <time>2019-08-16T13:18:55Z</time>
      </trkpt>
      <trkpt lat="48.01265" lon="6.82017">
        <ele>870.154541</ele>
        <time>2019-08-16T13:18:56Z</time>
      </trkpt>
      <trkpt lat="48.01262" lon="6.82018">
        <ele>870.251953</ele>
        <time>2019-08-16T13:18:57Z</time>
      </trkpt>
      <trkpt lat="48.0126" lon="6.82018">
        <ele>870.404724</ele>
        <time>2019-08-16T13:18:58Z</time>
      </trkpt>
      <trkpt lat="48.01258" lon="6.82019">
        <ele>870.461243</ele>
        <time>2019-08-16T13:18:59Z</time>
      </trkpt>
      <trkpt lat="48.01255" lon="6.82019">
        <ele>870.646423</ele>
        <time>2019-08-16T13:19:00Z</time>
      </trkpt>
      <trkpt lat="48.01253" lon="6.82019">
        <ele>870.776184</ele>
        <time>2019-08-16T13:19:01Z</time>
      </trkpt>
      <trkpt lat="48.01251" lon="6.82019">
        <ele>870.907898</ele>
        <time>2019-08-16T13:19:02Z</time>
      </trkpt>
      <trkpt lat="48.01249" lon="6.82018">
        <ele>871.101501</ele>
        <time>2019-08-16T13:19:03Z</time>
      </trkpt>
      <trkpt lat="48.01248" lon="6.82018">
        <ele>871.225403</ele>
        <time>2019-08-16T13:19:04Z</time>
      </trkpt>
      <trkpt lat="48.01247" lon="6.82017">
        <ele>871.344238</ele>
        <time>2019-08-16T13:19:05Z</time>
      </trkpt>
      <trkpt lat="48.01245" lon="6.82016">
        <ele>871.515442</ele>
        <time>2019-08-16T13:19:06Z</time>
      </trkpt>
      <trkpt lat="48.01242" lon="6.82016">
        <ele>871.622986</ele>
        <time>2019-08-16T13:19:07Z</time>
      </trkpt>
      <trkpt lat="48.01241" lon="6.82015">
        <ele>871.728577</ele>
        <time>2019-08-16T13:19:08Z</time>
      </trkpt>
      <trkpt lat="48.01239" lon="6.82014">
        <ele>871.896667</ele>
        <time>2019-08-16T13:19:09Z</time>
      </trkpt>
      <trkpt lat="48.01237" lon="6.82014">
        <ele>872.011902</ele>
        <time>2019-08-16T13:19:10Z</time>
      </trkpt>
      <trkpt lat="48.01235" lon="6.82013">
        <ele>872.126404</ele>
        <time>2019-08-16T13:19:11Z</time>
      </trkpt>
      <trkpt lat="48.01232" lon="6.82012">
        <ele>872.296814</ele>
        <time>2019-08-16T13:19:12Z</time>
      </trkpt>
      <trkpt lat="48.0123" lon="6.82012">
        <ele>872.410156</ele>
        <time>2019-08-16T13:19:13Z</time>
      </trkpt>
      <trkpt lat="48.01228" lon="6.82011">
        <ele>872.572754</ele>
        <time>2019-08-16T13:19:14Z</time>
      </trkpt>
      <trkpt lat="48.01225" lon="6.8201">
        <ele>872.658447</ele>
        <time>2019-08-16T13:19:15Z</time>
      </trkpt>
      <trkpt lat="48.01223" lon="6.8201">
        <ele>872.723328</ele>
        <time>2019-08-16T13:19:16Z</time>
      </trkpt>
      <trkpt lat="48.0122" lon="6.82009">
        <ele>872.815247</ele>
        <time>2019-08-16T13:19:17Z</time>
      </trkpt>
      <trkpt lat="48.01218" lon="6.82008">
        <ele>872.893494</ele>
        <time>2019-08-16T13:19:18Z</time>
      </trkpt>
      <trkpt lat="48.01215" lon="6.82008">
        <ele>873.025696</ele>
        <time>2019-08-16T13:19:19Z</time>
      </trkpt>
      <trkpt lat="48.01212" lon="6.82007">
        <ele>873.121094</ele>
        <time>2019-08-16T13:19:20Z</time>
      </trkpt>
      <trkpt lat="48.0121" lon="6.82006">
        <ele>873.228027</ele>
        <time>2019-08-16T13:19:21Z</time>
      </trkpt>
      <trkpt lat="48.01207" lon="6.82006">
        <ele>873.41803</ele>
        <time>2019-08-16T13:19:22Z</time>
      </trkpt>
      <trkpt lat="48.01205" lon="6.82005">
        <ele>873.55249</ele>
        <time>2019-08-16T13:19:23Z</time>
      </trkpt>
      <trkpt lat="48.01203" lon="6.82005">
        <ele>873.678223</ele>
        <time>2019-08-16T13:19:24Z</time>
      </trkpt>
      <trkpt lat="48.012" lon="6.82005">
        <ele>873.84137</ele>
        <time>2019-08-16T13:19:25Z</time>
      </trkpt>
      <trkpt lat="48.01198" lon="6.82004">
        <ele>873.939026</ele>
        <time>2019-08-16T13:19:26Z</time>
      </trkpt>
      <trkpt lat="48.01196" lon="6.82004">
        <ele>874.033203</ele>
        <time>2019-08-16T13:19:27Z</time>
      </trkpt>
      <trkpt lat="48.01193" lon="6.82004">
        <ele>874.169739</ele>
        <time>2019-08-16T13:19:28Z</time>
      </trkpt>
      <trkpt lat="48.01193" lon="6.82004">
        <ele>874.353333</ele>
        <time>2019-08-16T13:19:29Z</time>
      </trkpt>
      <trkpt lat="48.01191" lon="6.82003">
        <ele>874.512878</ele>
        <time>2019-08-16T13:19:31Z</time>
      </trkpt>
      <trkpt lat="48.01189" lon="6.82003">
        <ele>874.624756</ele>
        <time>2019-08-16T13:19:32Z</time>
      </trkpt>
      <trkpt lat="48.01186" lon="6.82003">
        <ele>874.78717</ele>
        <time>2019-08-16T13:19:33Z</time>
      </trkpt>
      <trkpt lat="48.01185" lon="6.82003">
        <ele>874.884277</ele>
        <time>2019-08-16T13:19:34Z</time>
      </trkpt>
      <trkpt lat="48.01183" lon="6.82002">
        <ele>874.967529</ele>
        <time>2019-08-16T13:19:35Z</time>
      </trkpt>
      <trkpt lat="48.0118" lon="6.82002">
        <ele>875.067566</ele>
        <time>2019-08-16T13:19:36Z</time>
      </trkpt>
      <trkpt lat="48.01179" lon="6.82001">
        <ele>875.125183</ele>
        <time>2019-08-16T13:19:37Z</time>
      </trkpt>
      <trkpt lat="48.01177" lon="6.82001">
        <ele>875.179504</ele>
        <time>2019-08-16T13:19:38Z</time>
      </trkpt>
      <trkpt lat="48.01176" lon="6.82001">
        <ele>875.252441</ele>
        <time>2019-08-16T13:19:39Z</time>
      </trkpt>
      <trkpt lat="48.01173" lon="6.82">
        <ele>875.301514</ele>
        <time>2019-08-16T13:19:40Z</time>
      </trkpt>
      <trkpt lat="48.01172" lon="6.82">
        <ele>875.46051</ele>
        <time>2019-08-16T13:19:41Z</time>
      </trkpt>
      <trkpt lat="48.0117" lon="6.81999">
        <ele>875.573914</ele>
        <time>2019-08-16T13:19:43Z</time>
      </trkpt>
      <trkpt lat="48.01167" lon="6.81999">
        <ele>875.660095</ele>
        <time>2019-08-16T13:19:44Z</time>
      </trkpt>
      <trkpt lat="48.01164" lon="6.81999">
        <ele>875.757324</ele>
        <time>2019-08-16T13:19:45Z</time>
      </trkpt>
      <trkpt lat="48.01162" lon="6.81998">
        <ele>875.860046</ele>
        <time>2019-08-16T13:19:46Z</time>
      </trkpt>
      <trkpt lat="48.01159" lon="6.81998">
        <ele>875.996826</ele>
        <time>2019-08-16T13:19:47Z</time>
      </trkpt>
      <trkpt lat="48.01157" lon="6.81998">
        <ele>876.083679</ele>
        <time>2019-08-16T13:19:48Z</time>
      </trkpt>
      <trkpt lat="48.01155" lon="6.81998">
        <ele>876.234924</ele>
        <time>2019-08-16T13:19:49Z</time>
      </trkpt>
      <trkpt lat="48.01152" lon="6.81998">
        <ele>876.349426</ele>
        <time>2019-08-16T13:19:50Z</time>
      </trkpt>
      <trkpt lat="48.0115" lon="6.81997">
        <ele>876.455383</ele>
        <time>2019-08-16T13:19:51Z</time>
      </trkpt>
      <trkpt lat="48.01148" lon="6.81997">
        <ele>876.597839</ele>
        <time>2019-08-16T13:19:52Z</time>
      </trkpt>
      <trkpt lat="48.01145" lon="6.81996">
        <ele>876.690247</ele>
        <time>2019-08-16T13:19:53Z</time>
      </trkpt>
      <trkpt lat="48.01143" lon="6.81996">
        <ele>876.831299</ele>
        <time>2019-08-16T13:19:54Z</time>
      </trkpt>
      <trkpt lat="48.01141" lon="6.81995">
        <ele>876.915588</ele>
        <time>2019-08-16T13:19:55Z</time>
      </trkpt>
      <trkpt lat="48.01138" lon="6.81994">
        <ele>876.995544</ele>
        <time>2019-08-16T13:19:56Z</time>
      </trkpt>
      <trkpt lat="48.01136" lon="6.81994">
        <ele>877.118652</ele>
        <time>2019-08-16T13:19:57Z</time>
      </trkpt>
      <trkpt lat="48.01135" lon="6.81994">
        <ele>877.313477</ele>
        <time>2019-08-16T13:19:58Z</time>
      </trkpt>
      <trkpt lat="48.0113" lon="6.8199">
        <ele>877.348694</ele>
        <time>2019-08-16T13:20:02Z</time>
      </trkpt>
      <trkpt lat="48.01128" lon="6.81988">
        <ele>877.416748</ele>
        <time>2019-08-16T13:20:03Z</time>
      </trkpt>
      <trkpt lat="48.01127" lon="6.81987">
        <ele>877.488464</ele>
        <time>2019-08-16T13:20:04Z</time>
      </trkpt>
      <trkpt lat="48.01127" lon="6.81987">
        <ele>877.599609</ele>
        <time>2019-08-16T13:20:05Z</time>
      </trkpt>
      <trkpt lat="48.01117" lon="6.81986">
        <ele>878.778503</ele>
        <time>2019-08-16T13:24:05Z</time>
      </trkpt>
      <trkpt lat="48.01115" lon="6.81984">
        <ele>878.785645</ele>
        <time>2019-08-16T13:24:07Z</time>
      </trkpt>
      <trkpt lat="48.01113" lon="6.81983">
        <ele>878.804138</ele>
        <time>2019-08-16T13:24:08Z</time>
      </trkpt>
      <trkpt lat="48.01111" lon="6.81982">
        <ele>878.856445</ele>
        <time>2019-08-16T13:24:09Z</time>
      </trkpt>
      <trkpt lat="48.01109" lon="6.81981">
        <ele>878.905334</ele>
        <time>2019-08-16T13:24:10Z</time>
      </trkpt>
      <trkpt lat="48.01106" lon="6.8198">
        <ele>878.955383</ele>
        <time>2019-08-16T13:24:11Z</time>
      </trkpt>
      <trkpt lat="48.01104" lon="6.81979">
        <ele>879.033508</ele>
        <time>2019-08-16T13:24:12Z</time>
      </trkpt>
      <trkpt lat="48.01102" lon="6.81978">
        <ele>879.097229</ele>
        <time>2019-08-16T13:24:13Z</time>
      </trkpt>
      <trkpt lat="48.011" lon="6.81976">
        <ele>879.17041</ele>
        <time>2019-08-16T13:24:14Z</time>
      </trkpt>
      <trkpt lat="48.01098" lon="6.81975">
        <ele>879.276123</ele>
        <time>2019-08-16T13:24:15Z</time>
      </trkpt>
      <trkpt lat="48.01095" lon="6.81974">
        <ele>879.338806</ele>
        <time>2019-08-16T13:24:16Z</time>
      </trkpt>
      <trkpt lat="48.01093" lon="6.81973">
        <ele>879.398926</ele>
        <time>2019-08-16T13:24:17Z</time>
      </trkpt>
      <trkpt lat="48.01091" lon="6.81971">
        <ele>879.490295</ele>
        <time>2019-08-16T13:24:18Z</time>
      </trkpt>
      <trkpt lat="48.01088" lon="6.81969">
        <ele>879.547363</ele>
        <time>2019-08-16T13:24:19Z</time>
      </trkpt>
      <trkpt lat="48.01086" lon="6.81968">
        <ele>879.602112</ele>
        <time>2019-08-16T13:24:20Z</time>
      </trkpt>
      <trkpt lat="48.01084" lon="6.81965">
        <ele>879.680908</ele>
        <time>2019-08-16T13:24:21Z</time>
      </trkpt>
      <trkpt lat="48.01082" lon="6.81963">
        <ele>879.73114</ele>
        <time>2019-08-16T13:24:22Z</time>
      </trkpt>
      <trkpt lat="48.0108" lon="6.8196">
        <ele>879.780029</ele>
        <time>2019-08-16T13:24:23Z</time>
      </trkpt>
      <trkpt lat="48.01078" lon="6.81958">
        <ele>879.827087</ele>
        <time>2019-08-16T13:24:24Z</time>
      </trkpt>
      <trkpt lat="48.01077" lon="6.81955">
        <ele>879.896545</ele>
        <time>2019-08-16T13:24:25Z</time>
      </trkpt>
      <trkpt lat="48.01075" lon="6.81952">
        <ele>879.938538</ele>
        <time>2019-08-16T13:24:26Z</time>
      </trkpt>
      <trkpt lat="48.01075" lon="6.81948">
        <ele>879.976135</ele>
        <time>2019-08-16T13:24:27Z</time>
      </trkpt>
      <trkpt lat="48.01074" lon="6.81945">
        <ele>880.01123</ele>
        <time>2019-08-16T13:24:28Z</time>
      </trkpt>
      <trkpt lat="48.01074" lon="6.81942">
        <ele>880.056396</ele>
        <time>2019-08-16T13:24:29Z</time>
      </trkpt>
      <trkpt lat="48.01073" lon="6.81939">
        <ele>880.124023</ele>
        <time>2019-08-16T13:24:30Z</time>
      </trkpt>
      <trkpt lat="48.01073" lon="6.81937">
        <ele>880.214783</ele>
        <time>2019-08-16T13:24:31Z</time>
      </trkpt>
      <trkpt lat="48.01073" lon="6.81934">
        <ele>880.325989</ele>
        <time>2019-08-16T13:24:32Z</time>
      </trkpt>
      <trkpt lat="48.01073" lon="6.81931">
        <ele>880.453796</ele>
        <time>2019-08-16T13:24:33Z</time>
      </trkpt>
      <trkpt lat="48.01073" lon="6.81928">
        <ele>880.604919</ele>
        <time>2019-08-16T13:24:34Z</time>
      </trkpt>
      <trkpt lat="48.01074" lon="6.81925">
        <ele>880.773926</ele>
        <time>2019-08-16T13:24:35Z</time>
      </trkpt>
      <trkpt lat="48.01074" lon="6.81923">
        <ele>880.946045</ele>
        <time>2019-08-16T13:24:36Z</time>
      </trkpt>
      <trkpt lat="48.01074" lon="6.8192">
        <ele>881.107483</ele>
        <time>2019-08-16T13:24:37Z</time>
      </trkpt>
      <trkpt lat="48.01074" lon="6.81916">
        <ele>881.255798</ele>
        <time>2019-08-16T13:24:38Z</time>
      </trkpt>
      <trkpt lat="48.01075" lon="6.81913">
        <ele>881.402649</ele>
        <time>2019-08-16T13:24:39Z</time>
      </trkpt>
      <trkpt lat="48.01074" lon="6.8191">
        <ele>881.557312</ele>
        <time>2019-08-16T13:24:40Z</time>
      </trkpt>
      <trkpt lat="48.01074" lon="6.81907">
        <ele>881.720276</ele>
        <time>2019-08-16T13:24:41Z</time>
      </trkpt>
      <trkpt lat="48.01075" lon="6.81904">
        <ele>881.886292</ele>
        <time>2019-08-16T13:24:42Z</time>
      </trkpt>
      <trkpt lat="48.01075" lon="6.81902">
        <ele>882.052246</ele>
        <time>2019-08-16T13:24:43Z</time>
      </trkpt>
      <trkpt lat="48.01075" lon="6.81899">
        <ele>882.211182</ele>
        <time>2019-08-16T13:24:44Z</time>
      </trkpt>
      <trkpt lat="48.01076" lon="6.81896">
        <ele>882.35675</ele>
        <time>2019-08-16T13:24:45Z</time>
      </trkpt>
      <trkpt lat="48.01076" lon="6.81893">
        <ele>882.486755</ele>
        <time>2019-08-16T13:24:46Z</time>
      </trkpt>
      <trkpt lat="48.01077" lon="6.8189">
        <ele>882.612854</ele>
        <time>2019-08-16T13:24:47Z</time>
      </trkpt>
      <trkpt lat="48.01077" lon="6.81887">
        <ele>882.737</ele>
        <time>2019-08-16T13:24:48Z</time>
      </trkpt>
      <trkpt lat="48.01078" lon="6.81884">
        <ele>882.860352</ele>
        <time>2019-08-16T13:24:49Z</time>
      </trkpt>
      <trkpt lat="48.01078" lon="6.81881">
        <ele>882.97998</ele>
        <time>2019-08-16T13:24:50Z</time>
      </trkpt>
      <trkpt lat="48.01079" lon="6.81879">
        <ele>883.101257</ele>
        <time>2019-08-16T13:24:51Z</time>
      </trkpt>
      <trkpt lat="48.0108" lon="6.81876">
        <ele>883.225281</ele>
        <time>2019-08-16T13:24:52Z</time>
      </trkpt>
      <trkpt lat="48.01081" lon="6.81873">
        <ele>883.353943</ele>
        <time>2019-08-16T13:24:53Z</time>
      </trkpt>
      <trkpt lat="48.01081" lon="6.8187">
        <ele>883.487</ele>
        <time>2019-08-16T13:24:54Z</time>
      </trkpt>
      <trkpt lat="48.01082" lon="6.81868">
        <ele>883.618591</ele>
        <time>2019-08-16T13:24:55Z</time>
      </trkpt>
      <trkpt lat="48.01083" lon="6.81866">
        <ele>883.743652</ele>
        <time>2019-08-16T13:24:56Z</time>
      </trkpt>
      <trkpt lat="48.01083" lon="6.81864">
        <ele>883.859314</ele>
        <time>2019-08-16T13:24:57Z</time>
      </trkpt>
      <trkpt lat="48.01083" lon="6.81862">
        <ele>883.96991</ele>
        <time>2019-08-16T13:24:58Z</time>
      </trkpt>
      <trkpt lat="48.01084" lon="6.8186">
        <ele>884.074402</ele>
        <time>2019-08-16T13:24:59Z</time>
      </trkpt>
      <trkpt lat="48.01085" lon="6.81857">
        <ele>884.175232</ele>
        <time>2019-08-16T13:25:00Z</time>
      </trkpt>
      <trkpt lat="48.01085" lon="6.81855">
        <ele>884.276062</ele>
        <time>2019-08-16T13:25:01Z</time>
      </trkpt>
      <trkpt lat="48.01085" lon="6.81852">
        <ele>884.328369</ele>
        <time>2019-08-16T13:25:02Z</time>
      </trkpt>
      <trkpt lat="48.01086" lon="6.8185">
        <ele>884.383301</ele>
        <time>2019-08-16T13:25:03Z</time>
      </trkpt>
      <trkpt lat="48.01087" lon="6.81848">
        <ele>884.507141</ele>
        <time>2019-08-16T13:25:04Z</time>
      </trkpt>
      <trkpt lat="48.01088" lon="6.81846">
        <ele>884.657227</ele>
        <time>2019-08-16T13:25:05Z</time>
      </trkpt>
      <trkpt lat="48.01089" lon="6.81844">
        <ele>884.832336</ele>
        <time>2019-08-16T13:25:06Z</time>
      </trkpt>
      <trkpt lat="48.0109" lon="6.81843">
        <ele>885.106873</ele>
        <time>2019-08-16T13:25:07Z</time>
      </trkpt>
      <trkpt lat="48.01091" lon="6.81841">
        <ele>885.276672</ele>
        <time>2019-08-16T13:25:08Z</time>
      </trkpt>
      <trkpt lat="48.01091" lon="6.81838">
        <ele>885.435791</ele>
        <time>2019-08-16T13:25:09Z</time>
      </trkpt>
      <trkpt lat="48.01092" lon="6.81836">
        <ele>885.589905</ele>
        <time>2019-08-16T13:25:10Z</time>
      </trkpt>
      <trkpt lat="48.01092" lon="6.81833">
        <ele>885.739502</ele>
        <time>2019-08-16T13:25:11Z</time>
      </trkpt>
      <trkpt lat="48.01093" lon="6.81831">
        <ele>885.875061</ele>
        <time>2019-08-16T13:25:12Z</time>
      </trkpt>
      <trkpt lat="48.01093" lon="6.81828">
        <ele>885.995178</ele>
        <time>2019-08-16T13:25:13Z</time>
      </trkpt>
      <trkpt lat="48.01093" lon="6.81826">
        <ele>886.103271</ele>
        <time>2019-08-16T13:25:14Z</time>
      </trkpt>
      <trkpt lat="48.01094" lon="6.81823">
        <ele>886.211731</ele>
        <time>2019-08-16T13:25:15Z</time>
      </trkpt>
      <trkpt lat="48.01094" lon="6.81821">
        <ele>886.325684</ele>
        <time>2019-08-16T13:25:16Z</time>
      </trkpt>
      <trkpt lat="48.01095" lon="6.81819">
        <ele>886.44751</ele>
        <time>2019-08-16T13:25:17Z</time>
      </trkpt>
      <trkpt lat="48.01095" lon="6.81817">
        <ele>886.572754</ele>
        <time>2019-08-16T13:25:18Z</time>
      </trkpt>
      <trkpt lat="48.01096" lon="6.81814">
        <ele>886.700745</ele>
        <time>2019-08-16T13:25:19Z</time>
      </trkpt>
      <trkpt lat="48.01096" lon="6.81811">
        <ele>886.826599</ele>
        <time>2019-08-16T13:25:20Z</time>
      </trkpt>
      <trkpt lat="48.01096" lon="6.81809">
        <ele>886.948547</ele>
        <time>2019-08-16T13:25:21Z</time>
      </trkpt>
      <trkpt lat="48.01097" lon="6.81806">
        <ele>887.064392</ele>
        <time>2019-08-16T13:25:22Z</time>
      </trkpt>
      <trkpt lat="48.01097" lon="6.81804">
        <ele>887.183655</ele>
        <time>2019-08-16T13:25:23Z</time>
      </trkpt>
      <trkpt lat="48.01098" lon="6.81802">
        <ele>887.314026</ele>
        <time>2019-08-16T13:25:24Z</time>
      </trkpt>
      <trkpt lat="48.01098" lon="6.81799">
        <ele>887.460449</ele>
        <time>2019-08-16T13:25:25Z</time>
      </trkpt>
      <trkpt lat="48.01098" lon="6.81797">
        <ele>887.617371</ele>
        <time>2019-08-16T13:25:26Z</time>
      </trkpt>
      <trkpt lat="48.01098" lon="6.81794">
        <ele>887.778748</ele>
        <time>2019-08-16T13:25:27Z</time>
      </trkpt>
      <trkpt lat="48.01099" lon="6.81792">
        <ele>887.942383</ele>
        <time>2019-08-16T13:25:28Z</time>
      </trkpt>
      <trkpt lat="48.01099" lon="6.8179">
        <ele>888.104553</ele>
        <time>2019-08-16T13:25:29Z</time>
      </trkpt>
      <trkpt lat="48.011" lon="6.81787">
        <ele>888.261719</ele>
        <time>2019-08-16T13:25:30Z</time>
      </trkpt>
      <trkpt lat="48.01101" lon="6.81785">
        <ele>888.401367</ele>
        <time>2019-08-16T13:25:31Z</time>
      </trkpt>
      <trkpt lat="48.01101" lon="6.81782">
        <ele>888.520996</ele>
        <time>2019-08-16T13:25:32Z</time>
      </trkpt>
      <trkpt lat="48.01101" lon="6.8178">
        <ele>888.62384</ele>
        <time>2019-08-16T13:25:33Z</time>
      </trkpt>
      <trkpt lat="48.01101" lon="6.81777">
        <ele>888.72467</ele>
        <time>2019-08-16T13:25:34Z</time>
      </trkpt>
      <trkpt lat="48.01102" lon="6.81775">
        <ele>888.83374</ele>
        <time>2019-08-16T13:25:35Z</time>
      </trkpt>
      <trkpt lat="48.01102" lon="6.81772">
        <ele>888.95752</ele>
        <time>2019-08-16T13:25:36Z</time>
      </trkpt>
      <trkpt lat="48.01102" lon="6.8177">
        <ele>889.092224</ele>
        <time>2019-08-16T13:25:37Z</time>
      </trkpt>
      <trkpt lat="48.01101" lon="6.81768">
        <ele>889.230896</ele>
        <time>2019-08-16T13:25:38Z</time>
      </trkpt>
      <trkpt lat="48.01102" lon="6.81765">
        <ele>889.363831</ele>
        <time>2019-08-16T13:25:39Z</time>
      </trkpt>
      <trkpt lat="48.01102" lon="6.81763">
        <ele>889.49115</ele>
        <time>2019-08-16T13:25:40Z</time>
      </trkpt>
      <trkpt lat="48.01102" lon="6.81761">
        <ele>889.615906</ele>
        <time>2019-08-16T13:25:41Z</time>
      </trkpt>
      <trkpt lat="48.01102" lon="6.81759">
        <ele>889.744324</ele>
        <time>2019-08-16T13:25:42Z</time>
      </trkpt>
      <trkpt lat="48.01103" lon="6.81756">
        <ele>889.882324</ele>
        <time>2019-08-16T13:25:43Z</time>
      </trkpt>
      <trkpt lat="48.01104" lon="6.81754">
        <ele>890.02655</ele>
        <time>2019-08-16T13:25:44Z</time>
      </trkpt>
      <trkpt lat="48.01104" lon="6.81752">
        <ele>890.176453</ele>
        <time>2019-08-16T13:25:45Z</time>
      </trkpt>
      <trkpt lat="48.01104" lon="6.81749">
        <ele>890.330627</ele>
        <time>2019-08-16T13:25:46Z</time>
      </trkpt>
      <trkpt lat="48.01104" lon="6.81747">
        <ele>890.500427</ele>
        <time>2019-08-16T13:25:47Z</time>
      </trkpt>
      <trkpt lat="48.01104" lon="6.81744">
        <ele>890.682373</ele>
        <time>2019-08-16T13:25:48Z</time>
      </trkpt>
      <trkpt lat="48.01105" lon="6.81742">
        <ele>890.874695</ele>
        <time>2019-08-16T13:25:49Z</time>
      </trkpt>
      <trkpt lat="48.01105" lon="6.8174">
        <ele>891.068665</ele>
        <time>2019-08-16T13:25:50Z</time>
      </trkpt>
      <trkpt lat="48.01105" lon="6.81738">
        <ele>891.256836</ele>
        <time>2019-08-16T13:25:51Z</time>
      </trkpt>
      <trkpt lat="48.01105" lon="6.81735">
        <ele>891.433533</ele>
        <time>2019-08-16T13:25:52Z</time>
      </trkpt>
      <trkpt lat="48.01105" lon="6.81733">
        <ele>891.59082</ele>
        <time>2019-08-16T13:25:53Z</time>
      </trkpt>
      <trkpt lat="48.01105" lon="6.81731">
        <ele>891.733398</ele>
        <time>2019-08-16T13:25:54Z</time>
      </trkpt>
      <trkpt lat="48.01105" lon="6.81728">
        <ele>891.859375</ele>
        <time>2019-08-16T13:25:55Z</time>
      </trkpt>
      <trkpt lat="48.01105" lon="6.81726">
        <ele>891.967957</ele>
        <time>2019-08-16T13:25:56Z</time>
      </trkpt>
      <trkpt lat="48.01105" lon="6.81723">
        <ele>892.05719</ele>
        <time>2019-08-16T13:25:57Z</time>
      </trkpt>
      <trkpt lat="48.01105" lon="6.81721">
        <ele>892.128235</ele>
        <time>2019-08-16T13:25:58Z</time>
      </trkpt>
      <trkpt lat="48.01106" lon="6.81718">
        <ele>892.194824</ele>
        <time>2019-08-16T13:25:59Z</time>
      </trkpt>
      <trkpt lat="48.01106" lon="6.81715">
        <ele>892.270081</ele>
        <time>2019-08-16T13:26:00Z</time>
      </trkpt>
      <trkpt lat="48.01106" lon="6.81713">
        <ele>892.362488</ele>
        <time>2019-08-16T13:26:01Z</time>
      </trkpt>
      <trkpt lat="48.01106" lon="6.81711">
        <ele>892.414063</ele>
        <time>2019-08-16T13:26:02Z</time>
      </trkpt>
      <trkpt lat="48.01107" lon="6.81708">
        <ele>892.468323</ele>
        <time>2019-08-16T13:26:03Z</time>
      </trkpt>
      <trkpt lat="48.01107" lon="6.81706">
        <ele>892.587708</ele>
        <time>2019-08-16T13:26:04Z</time>
      </trkpt>
      <trkpt lat="48.01108" lon="6.81704">
        <ele>892.726135</ele>
        <time>2019-08-16T13:26:05Z</time>
      </trkpt>
      <trkpt lat="48.01108" lon="6.81702">
        <ele>892.887451</ele>
        <time>2019-08-16T13:26:06Z</time>
      </trkpt>
      <trkpt lat="48.01108" lon="6.817">
        <ele>893.063171</ele>
        <time>2019-08-16T13:26:07Z</time>
      </trkpt>
      <trkpt lat="48.01109" lon="6.81698">
        <ele>893.234924</ele>
        <time>2019-08-16T13:26:08Z</time>
      </trkpt>
      <trkpt lat="48.0111" lon="6.81696">
        <ele>893.39093</ele>
        <time>2019-08-16T13:26:09Z</time>
      </trkpt>
      <trkpt lat="48.0111" lon="6.81693">
        <ele>893.536865</ele>
        <time>2019-08-16T13:26:10Z</time>
      </trkpt>
      <trkpt lat="48.01111" lon="6.81691">
        <ele>893.682861</ele>
        <time>2019-08-16T13:26:11Z</time>
      </trkpt>
      <trkpt lat="48.01112" lon="6.81689">
        <ele>893.831848</ele>
        <time>2019-08-16T13:26:12Z</time>
      </trkpt>
      <trkpt lat="48.01112" lon="6.81686">
        <ele>893.980042</ele>
        <time>2019-08-16T13:26:13Z</time>
      </trkpt>
      <trkpt lat="48.01114" lon="6.81684">
        <ele>894.117676</ele>
        <time>2019-08-16T13:26:14Z</time>
      </trkpt>
      <trkpt lat="48.01115" lon="6.81682">
        <ele>894.250977</ele>
        <time>2019-08-16T13:26:15Z</time>
      </trkpt>
      <trkpt lat="48.01115" lon="6.8168">
        <ele>894.385498</ele>
        <time>2019-08-16T13:26:16Z</time>
      </trkpt>
      <trkpt lat="48.01116" lon="6.81677">
        <ele>894.530273</ele>
        <time>2019-08-16T13:26:17Z</time>
      </trkpt>
      <trkpt lat="48.01117" lon="6.81675">
        <ele>894.684631</ele>
        <time>2019-08-16T13:26:18Z</time>
      </trkpt>
      <trkpt lat="48.01118" lon="6.81673">
        <ele>894.841003</ele>
        <time>2019-08-16T13:26:19Z</time>
      </trkpt>
      <trkpt lat="48.01119" lon="6.8167">
        <ele>895.070251</ele>
        <time>2019-08-16T13:26:20Z</time>
      </trkpt>
      <trkpt lat="48.0112" lon="6.81668">
        <ele>895.216003</ele>
        <time>2019-08-16T13:26:21Z</time>
      </trkpt>
      <trkpt lat="48.01121" lon="6.81666">
        <ele>895.355469</ele>
        <time>2019-08-16T13:26:22Z</time>
      </trkpt>
      <trkpt lat="48.01122" lon="6.81664">
        <ele>895.482727</ele>
        <time>2019-08-16T13:26:23Z</time>
      </trkpt>
      <trkpt lat="48.01123" lon="6.81662">
        <ele>895.594177</ele>
        <time>2019-08-16T13:26:24Z</time>
      </trkpt>
      <trkpt lat="48.01124" lon="6.8166">
        <ele>895.695251</ele>
        <time>2019-08-16T13:26:25Z</time>
      </trkpt>
      <trkpt lat="48.01125" lon="6.81658">
        <ele>895.850525</ele>
        <time>2019-08-16T13:26:26Z</time>
      </trkpt>
      <trkpt lat="48.01126" lon="6.81656">
        <ele>895.960144</ele>
        <time>2019-08-16T13:26:27Z</time>
      </trkpt>
      <trkpt lat="48.01127" lon="6.81653">
        <ele>896.070007</ele>
        <time>2019-08-16T13:26:28Z</time>
      </trkpt>
      <trkpt lat="48.01128" lon="6.81651">
        <ele>896.178894</ele>
        <time>2019-08-16T13:26:29Z</time>
      </trkpt>
      <trkpt lat="48.01128" lon="6.81649">
        <ele>896.2901</ele>
        <time>2019-08-16T13:26:30Z</time>
      </trkpt>
      <trkpt lat="48.01129" lon="6.81646">
        <ele>896.461365</ele>
        <time>2019-08-16T13:26:31Z</time>
      </trkpt>
      <trkpt lat="48.0113" lon="6.81644">
        <ele>896.569824</ele>
        <time>2019-08-16T13:26:32Z</time>
      </trkpt>
      <trkpt lat="48.01131" lon="6.81641">
        <ele>896.672913</ele>
        <time>2019-08-16T13:26:33Z</time>
      </trkpt>
      <trkpt lat="48.01131" lon="6.81639">
        <ele>896.772217</ele>
        <time>2019-08-16T13:26:34Z</time>
      </trkpt>
      <trkpt lat="48.01132" lon="6.81636">
        <ele>896.874084</ele>
        <time>2019-08-16T13:26:35Z</time>
      </trkpt>
      <trkpt lat="48.01133" lon="6.81633">
        <ele>896.984558</ele>
        <time>2019-08-16T13:26:36Z</time>
      </trkpt>
      <trkpt lat="48.01133" lon="6.81631">
        <ele>897.101013</ele>
        <time>2019-08-16T13:26:37Z</time>
      </trkpt>
      <trkpt lat="48.01134" lon="6.81628">
        <ele>897.217712</ele>
        <time>2019-08-16T13:26:38Z</time>
      </trkpt>
      <trkpt lat="48.01134" lon="6.81625">
        <ele>897.330627</ele>
        <time>2019-08-16T13:26:39Z</time>
      </trkpt>
      <trkpt lat="48.01134" lon="6.81622">
        <ele>897.440735</ele>
        <time>2019-08-16T13:26:40Z</time>
      </trkpt>
      <trkpt lat="48.01134" lon="6.8162">
        <ele>897.55365</ele>
        <time>2019-08-16T13:26:41Z</time>
      </trkpt>
      <trkpt lat="48.01134" lon="6.81617">
        <ele>897.670898</ele>
        <time>2019-08-16T13:26:42Z</time>
      </trkpt>
      <trkpt lat="48.01134" lon="6.81614">
        <ele>897.792297</ele>
        <time>2019-08-16T13:26:43Z</time>
      </trkpt>
      <trkpt lat="48.01135" lon="6.81612">
        <ele>897.9151</ele>
        <time>2019-08-16T13:26:44Z</time>
      </trkpt>
      <trkpt lat="48.01135" lon="6.81609">
        <ele>898.03418</ele>
        <time>2019-08-16T13:26:45Z</time>
      </trkpt>
      <trkpt lat="48.01135" lon="6.81606">
        <ele>898.151306</ele>
        <time>2019-08-16T13:26:46Z</time>
      </trkpt>
      <trkpt lat="48.01135" lon="6.81603">
        <ele>898.268494</ele>
        <time>2019-08-16T13:26:47Z</time>
      </trkpt>
      <trkpt lat="48.01135" lon="6.816">
        <ele>898.387695</ele>
        <time>2019-08-16T13:26:48Z</time>
      </trkpt>
      <trkpt lat="48.01135" lon="6.81598">
        <ele>898.565125</ele>
        <time>2019-08-16T13:26:49Z</time>
      </trkpt>
      <trkpt lat="48.01135" lon="6.81595">
        <ele>898.680664</ele>
        <time>2019-08-16T13:26:50Z</time>
      </trkpt>
      <trkpt lat="48.01135" lon="6.81592">
        <ele>898.793945</ele>
        <time>2019-08-16T13:26:51Z</time>
      </trkpt>
      <trkpt lat="48.01134" lon="6.81589">
        <ele>898.907288</ele>
        <time>2019-08-16T13:26:52Z</time>
      </trkpt>
      <trkpt lat="48.01134" lon="6.81587">
        <ele>899.020325</ele>
        <time>2019-08-16T13:26:53Z</time>
      </trkpt>
      <trkpt lat="48.01134" lon="6.81584">
        <ele>899.13385</ele>
        <time>2019-08-16T13:26:54Z</time>
      </trkpt>
      <trkpt lat="48.01134" lon="6.81582">
        <ele>899.243103</ele>
        <time>2019-08-16T13:26:55Z</time>
      </trkpt>
      <trkpt lat="48.01134" lon="6.81579">
        <ele>899.348145</ele>
        <time>2019-08-16T13:26:56Z</time>
      </trkpt>
      <trkpt lat="48.01134" lon="6.81576">
        <ele>899.452637</ele>
        <time>2019-08-16T13:26:57Z</time>
      </trkpt>
      <trkpt lat="48.01134" lon="6.81574">
        <ele>899.561951</ele>
        <time>2019-08-16T13:26:58Z</time>
      </trkpt>
      <trkpt lat="48.01134" lon="6.81571">
        <ele>899.678955</ele>
        <time>2019-08-16T13:26:59Z</time>
      </trkpt>
      <trkpt lat="48.01134" lon="6.81568">
        <ele>899.805908</ele>
        <time>2019-08-16T13:27:00Z</time>
      </trkpt>
      <trkpt lat="48.01135" lon="6.81565">
        <ele>899.945251</ele>
        <time>2019-08-16T13:27:01Z</time>
      </trkpt>
      <trkpt lat="48.01135" lon="6.8156">
        <ele>900.017883</ele>
        <time>2019-08-16T13:27:03Z</time>
      </trkpt>
      <trkpt lat="48.01135" lon="6.81557">
        <ele>900.09375</ele>
        <time>2019-08-16T13:27:04Z</time>
      </trkpt>
      <trkpt lat="48.01135" lon="6.81555">
        <ele>900.249939</ele>
        <time>2019-08-16T13:27:05Z</time>
      </trkpt>
      <trkpt lat="48.01135" lon="6.81552">
        <ele>900.412415</ele>
        <time>2019-08-16T13:27:06Z</time>
      </trkpt>
      <trkpt lat="48.01136" lon="6.8155">
        <ele>900.587097</ele>
        <time>2019-08-16T13:27:07Z</time>
      </trkpt>
      <trkpt lat="48.01136" lon="6.81547">
        <ele>900.777649</ele>
        <time>2019-08-16T13:27:08Z</time>
      </trkpt>
      <trkpt lat="48.01136" lon="6.81544">
        <ele>900.984863</ele>
        <time>2019-08-16T13:27:09Z</time>
      </trkpt>
      <trkpt lat="48.01136" lon="6.81542">
        <ele>901.20929</ele>
        <time>2019-08-16T13:27:10Z</time>
      </trkpt>
      <trkpt lat="48.01136" lon="6.8154">
        <ele>901.443665</ele>
        <time>2019-08-16T13:27:11Z</time>
      </trkpt>
      <trkpt lat="48.01137" lon="6.81537">
        <ele>901.678955</ele>
        <time>2019-08-16T13:27:12Z</time>
      </trkpt>
      <trkpt lat="48.01138" lon="6.81535">
        <ele>901.90033</ele>
        <time>2019-08-16T13:27:13Z</time>
      </trkpt>
      <trkpt lat="48.01138" lon="6.81532">
        <ele>902.101074</ele>
        <time>2019-08-16T13:27:14Z</time>
      </trkpt>
      <trkpt lat="48.01138" lon="6.8153">
        <ele>902.282043</ele>
        <time>2019-08-16T13:27:15Z</time>
      </trkpt>
      <trkpt lat="48.01139" lon="6.81527">
        <ele>902.444153</ele>
        <time>2019-08-16T13:27:16Z</time>
      </trkpt>
      <trkpt lat="48.0114" lon="6.81525">
        <ele>902.584167</ele>
        <time>2019-08-16T13:27:17Z</time>
      </trkpt>
      <trkpt lat="48.0114" lon="6.81522">
        <ele>902.700195</ele>
        <time>2019-08-16T13:27:18Z</time>
      </trkpt>
      <trkpt lat="48.01141" lon="6.8152">
        <ele>902.806152</ele>
        <time>2019-08-16T13:27:19Z</time>
      </trkpt>
      <trkpt lat="48.01141" lon="6.81518">
        <ele>902.911621</ele>
        <time>2019-08-16T13:27:20Z</time>
      </trkpt>
      <trkpt lat="48.01143" lon="6.81516">
        <ele>903.027283</ele>
        <time>2019-08-16T13:27:21Z</time>
      </trkpt>
      <trkpt lat="48.01143" lon="6.81513">
        <ele>903.155518</ele>
        <time>2019-08-16T13:27:22Z</time>
      </trkpt>
      <trkpt lat="48.01144" lon="6.81511">
        <ele>903.30304</ele>
        <time>2019-08-16T13:27:23Z</time>
      </trkpt>
      <trkpt lat="48.01144" lon="6.81509">
        <ele>903.466553</ele>
        <time>2019-08-16T13:27:24Z</time>
      </trkpt>
      <trkpt lat="48.01144" lon="6.81507">
        <ele>903.64093</ele>
        <time>2019-08-16T13:27:25Z</time>
      </trkpt>
      <trkpt lat="48.01144" lon="6.81505">
        <ele>903.819092</ele>
        <time>2019-08-16T13:27:26Z</time>
      </trkpt>
      <trkpt lat="48.01146" lon="6.81503">
        <ele>904.000061</ele>
        <time>2019-08-16T13:27:27Z</time>
      </trkpt>
      <trkpt lat="48.01146" lon="6.81501">
        <ele>904.181396</ele>
        <time>2019-08-16T13:27:28Z</time>
      </trkpt>
      <trkpt lat="48.01147" lon="6.81499">
        <ele>904.355469</ele>
        <time>2019-08-16T13:27:29Z</time>
      </trkpt>
      <trkpt lat="48.01148" lon="6.81496">
        <ele>904.511536</ele>
        <time>2019-08-16T13:27:30Z</time>
      </trkpt>
      <trkpt lat="48.01149" lon="6.81494">
        <ele>904.704163</ele>
        <time>2019-08-16T13:27:31Z</time>
      </trkpt>
      <trkpt lat="48.0115" lon="6.81492">
        <ele>904.826172</ele>
        <time>2019-08-16T13:27:32Z</time>
      </trkpt>
      <trkpt lat="48.01151" lon="6.8149">
        <ele>904.95874</ele>
        <time>2019-08-16T13:27:33Z</time>
      </trkpt>
      <trkpt lat="48.01151" lon="6.81488">
        <ele>905.098938</ele>
        <time>2019-08-16T13:27:34Z</time>
      </trkpt>
      <trkpt lat="48.01152" lon="6.81486">
        <ele>905.239685</ele>
        <time>2019-08-16T13:27:35Z</time>
      </trkpt>
      <trkpt lat="48.01154" lon="6.81484">
        <ele>905.458496</ele>
        <time>2019-08-16T13:27:36Z</time>
      </trkpt>
      <trkpt lat="48.01154" lon="6.81482">
        <ele>905.620117</ele>
        <time>2019-08-16T13:27:37Z</time>
      </trkpt>
      <trkpt lat="48.01156" lon="6.81479">
        <ele>905.79071</ele>
        <time>2019-08-16T13:27:38Z</time>
      </trkpt>
      <trkpt lat="48.01156" lon="6.81477">
        <ele>905.96051</ele>
        <time>2019-08-16T13:27:39Z</time>
      </trkpt>
      <trkpt lat="48.01157" lon="6.81474">
        <ele>906.11615</ele>
        <time>2019-08-16T13:27:40Z</time>
      </trkpt>
      <trkpt lat="48.01157" lon="6.81472">
        <ele>906.255798</ele>
        <time>2019-08-16T13:27:41Z</time>
      </trkpt>
      <trkpt lat="48.01159" lon="6.8147">
        <ele>906.380798</ele>
        <time>2019-08-16T13:27:42Z</time>
      </trkpt>
      <trkpt lat="48.0116" lon="6.81468">
        <ele>906.5625</ele>
        <time>2019-08-16T13:27:43Z</time>
      </trkpt>
      <trkpt lat="48.0116" lon="6.81466">
        <ele>906.683105</ele>
        <time>2019-08-16T13:27:44Z</time>
      </trkpt>
      <trkpt lat="48.01162" lon="6.81463">
        <ele>906.79425</ele>
        <time>2019-08-16T13:27:45Z</time>
      </trkpt>
      <trkpt lat="48.01162" lon="6.81461">
        <ele>906.888123</ele>
        <time>2019-08-16T13:27:46Z</time>
      </trkpt>
      <trkpt lat="48.01163" lon="6.81459">
        <ele>906.966797</ele>
        <time>2019-08-16T13:27:47Z</time>
      </trkpt>
      <trkpt lat="48.01164" lon="6.81456">
        <ele>907.033752</ele>
        <time>2019-08-16T13:27:48Z</time>
      </trkpt>
      <trkpt lat="48.01165" lon="6.81454">
        <ele>907.12207</ele>
        <time>2019-08-16T13:27:49Z</time>
      </trkpt>
      <trkpt lat="48.01165" lon="6.81452">
        <ele>907.173523</ele>
        <time>2019-08-16T13:27:50Z</time>
      </trkpt>
      <trkpt lat="48.01166" lon="6.81449">
        <ele>907.22998</ele>
        <time>2019-08-16T13:27:51Z</time>
      </trkpt>
      <trkpt lat="48.01166" lon="6.81446">
        <ele>907.292969</ele>
        <time>2019-08-16T13:27:52Z</time>
      </trkpt>
      <trkpt lat="48.01167" lon="6.81444">
        <ele>907.369812</ele>
        <time>2019-08-16T13:27:53Z</time>
      </trkpt>
      <trkpt lat="48.01167" lon="6.81441">
        <ele>907.460632</ele>
        <time>2019-08-16T13:27:54Z</time>
      </trkpt>
      <trkpt lat="48.01168" lon="6.81438">
        <ele>907.569153</ele>
        <time>2019-08-16T13:27:55Z</time>
      </trkpt>
      <trkpt lat="48.01168" lon="6.81436">
        <ele>907.694031</ele>
        <time>2019-08-16T13:27:56Z</time>
      </trkpt>
      <trkpt lat="48.01168" lon="6.81433">
        <ele>907.829285</ele>
        <time>2019-08-16T13:27:57Z</time>
      </trkpt>
      <trkpt lat="48.01169" lon="6.81431">
        <ele>907.971741</ele>
        <time>2019-08-16T13:27:58Z</time>
      </trkpt>
      <trkpt lat="48.0117" lon="6.81428">
        <ele>908.113464</ele>
        <time>2019-08-16T13:27:59Z</time>
      </trkpt>
      <trkpt lat="48.0117" lon="6.81426">
        <ele>908.248779</ele>
        <time>2019-08-16T13:28:00Z</time>
      </trkpt>
      <trkpt lat="48.01171" lon="6.81423">
        <ele>908.376221</ele>
        <time>2019-08-16T13:28:01Z</time>
      </trkpt>
      <trkpt lat="48.01172" lon="6.8142">
        <ele>908.438721</ele>
        <time>2019-08-16T13:28:02Z</time>
      </trkpt>
      <trkpt lat="48.01172" lon="6.81418">
        <ele>908.502686</ele>
        <time>2019-08-16T13:28:03Z</time>
      </trkpt>
      <trkpt lat="48.01172" lon="6.81415">
        <ele>908.63739</ele>
        <time>2019-08-16T13:28:04Z</time>
      </trkpt>
      <trkpt lat="48.01172" lon="6.81412">
        <ele>908.78241</ele>
        <time>2019-08-16T13:28:05Z</time>
      </trkpt>
      <trkpt lat="48.01173" lon="6.8141">
        <ele>908.934082</ele>
        <time>2019-08-16T13:28:06Z</time>
      </trkpt>
      <trkpt lat="48.01173" lon="6.81407">
        <ele>909.088379</ele>
        <time>2019-08-16T13:28:07Z</time>
      </trkpt>
      <trkpt lat="48.01174" lon="6.81405">
        <ele>909.247559</ele>
        <time>2019-08-16T13:28:08Z</time>
      </trkpt>
      <trkpt lat="48.01175" lon="6.81402">
        <ele>909.410095</ele>
        <time>2019-08-16T13:28:09Z</time>
      </trkpt>
      <trkpt lat="48.01176" lon="6.814">
        <ele>909.573547</ele>
        <time>2019-08-16T13:28:10Z</time>
      </trkpt>
      <trkpt lat="48.01177" lon="6.81398">
        <ele>909.799988</ele>
        <time>2019-08-16T13:28:11Z</time>
      </trkpt>
      <trkpt lat="48.01177" lon="6.81395">
        <ele>909.947937</ele>
        <time>2019-08-16T13:28:12Z</time>
      </trkpt>
      <trkpt lat="48.01178" lon="6.81392">
        <ele>910.097839</ele>
        <time>2019-08-16T13:28:13Z</time>
      </trkpt>
      <trkpt lat="48.01178" lon="6.8139">
        <ele>910.25238</ele>
        <time>2019-08-16T13:28:14Z</time>
      </trkpt>
      <trkpt lat="48.01179" lon="6.81388">
        <ele>910.402283</ele>
        <time>2019-08-16T13:28:15Z</time>
      </trkpt>
      <trkpt lat="48.0118" lon="6.81385">
        <ele>910.545837</ele>
        <time>2019-08-16T13:28:16Z</time>
      </trkpt>
      <trkpt lat="48.0118" lon="6.81383">
        <ele>910.687561</ele>
        <time>2019-08-16T13:28:17Z</time>
      </trkpt>
      <trkpt lat="48.01181" lon="6.8138">
        <ele>910.827942</ele>
        <time>2019-08-16T13:28:18Z</time>
      </trkpt>
      <trkpt lat="48.01181" lon="6.81378">
        <ele>910.970398</ele>
        <time>2019-08-16T13:28:19Z</time>
      </trkpt>
      <trkpt lat="48.01182" lon="6.81375">
        <ele>911.104309</ele>
        <time>2019-08-16T13:28:20Z</time>
      </trkpt>
      <trkpt lat="48.01183" lon="6.81372">
        <ele>911.229675</ele>
        <time>2019-08-16T13:28:21Z</time>
      </trkpt>
      <trkpt lat="48.01183" lon="6.8137">
        <ele>911.342102</ele>
        <time>2019-08-16T13:28:22Z</time>
      </trkpt>
      <trkpt lat="48.01185" lon="6.81367">
        <ele>911.44989</ele>
        <time>2019-08-16T13:28:23Z</time>
      </trkpt>
      <trkpt lat="48.01185" lon="6.81365">
        <ele>911.55957</ele>
        <time>2019-08-16T13:28:24Z</time>
      </trkpt>
      <trkpt lat="48.01186" lon="6.81362">
        <ele>911.670227</ele>
        <time>2019-08-16T13:28:25Z</time>
      </trkpt>
      <trkpt lat="48.01187" lon="6.81359">
        <ele>911.777344</ele>
        <time>2019-08-16T13:28:26Z</time>
      </trkpt>
      <trkpt lat="48.01188" lon="6.81356">
        <ele>911.878906</ele>
        <time>2019-08-16T13:28:27Z</time>
      </trkpt>
      <trkpt lat="48.01188" lon="6.81354">
        <ele>911.981689</ele>
        <time>2019-08-16T13:28:28Z</time>
      </trkpt>
      <trkpt lat="48.01189" lon="6.81352">
        <ele>912.088928</ele>
        <time>2019-08-16T13:28:29Z</time>
      </trkpt>
      <trkpt lat="48.0119" lon="6.81349">
        <ele>912.199036</ele>
        <time>2019-08-16T13:28:30Z</time>
      </trkpt>
      <trkpt lat="48.01191" lon="6.81347">
        <ele>912.311523</ele>
        <time>2019-08-16T13:28:31Z</time>
      </trkpt>
      <trkpt lat="48.01191" lon="6.81344">
        <ele>912.424011</ele>
        <time>2019-08-16T13:28:32Z</time>
      </trkpt>
      <trkpt lat="48.01191" lon="6.81342">
        <ele>912.541992</ele>
        <time>2019-08-16T13:28:33Z</time>
      </trkpt>
      <trkpt lat="48.01193" lon="6.81339">
        <ele>912.66803</ele>
        <time>2019-08-16T13:28:34Z</time>
      </trkpt>
      <trkpt lat="48.01194" lon="6.81337">
        <ele>912.815918</ele>
        <time>2019-08-16T13:28:35Z</time>
      </trkpt>
      <trkpt lat="48.01195" lon="6.81336">
        <ele>912.98877</ele>
        <time>2019-08-16T13:28:36Z</time>
      </trkpt>
      <trkpt lat="48.01196" lon="6.81334">
        <ele>913.282776</ele>
        <time>2019-08-16T13:28:37Z</time>
      </trkpt>
      <trkpt lat="48.01197" lon="6.81332">
        <ele>913.489685</ele>
        <time>2019-08-16T13:28:38Z</time>
      </trkpt>
      <trkpt lat="48.01199" lon="6.81331">
        <ele>913.694824</ele>
        <time>2019-08-16T13:28:39Z</time>
      </trkpt>
      <trkpt lat="48.01201" lon="6.81329">
        <ele>913.982727</ele>
        <time>2019-08-16T13:28:40Z</time>
      </trkpt>
      <trkpt lat="48.01202" lon="6.81327">
        <ele>914.150208</ele>
        <time>2019-08-16T13:28:41Z</time>
      </trkpt>
      <trkpt lat="48.01203" lon="6.81325">
        <ele>914.2995</ele>
        <time>2019-08-16T13:28:42Z</time>
      </trkpt>
      <trkpt lat="48.01204" lon="6.81323">
        <ele>914.431091</ele>
        <time>2019-08-16T13:28:43Z</time>
      </trkpt>
      <trkpt lat="48.01205" lon="6.81321">
        <ele>914.549255</ele>
        <time>2019-08-16T13:28:44Z</time>
      </trkpt>
      <trkpt lat="48.01206" lon="6.81319">
        <ele>914.706604</ele>
        <time>2019-08-16T13:28:45Z</time>
      </trkpt>
      <trkpt lat="48.01207" lon="6.81318">
        <ele>914.811707</ele>
        <time>2019-08-16T13:28:46Z</time>
      </trkpt>
      <trkpt lat="48.01209" lon="6.81316">
        <ele>914.930969</ele>
        <time>2019-08-16T13:28:47Z</time>
      </trkpt>
      <trkpt lat="48.0121" lon="6.81315">
        <ele>915.069824</ele>
        <time>2019-08-16T13:28:48Z</time>
      </trkpt>
      <trkpt lat="48.0121" lon="6.81314">
        <ele>915.438782</ele>
        <time>2019-08-16T13:28:49Z</time>
      </trkpt>
      <trkpt lat="48.01211" lon="6.81314">
        <ele>915.576965</ele>
        <time>2019-08-16T13:28:51Z</time>
      </trkpt>
      <trkpt lat="48.01212" lon="6.81312">
        <ele>915.712158</ele>
        <time>2019-08-16T13:28:52Z</time>
      </trkpt>
      <trkpt lat="48.01213" lon="6.8131">
        <ele>915.846741</ele>
        <time>2019-08-16T13:28:53Z</time>
      </trkpt>
      <trkpt lat="48.01214" lon="6.81309">
        <ele>916.220886</ele>
        <time>2019-08-16T13:28:54Z</time>
      </trkpt>
      <trkpt lat="48.01215" lon="6.81307">
        <ele>916.385742</ele>
        <time>2019-08-16T13:28:56Z</time>
      </trkpt>
      <trkpt lat="48.01217" lon="6.81305">
        <ele>916.639343</ele>
        <time>2019-08-16T13:28:57Z</time>
      </trkpt>
      <trkpt lat="48.01218" lon="6.81304">
        <ele>916.810974</ele>
        <time>2019-08-16T13:28:58Z</time>
      </trkpt>
      <trkpt lat="48.0122" lon="6.81303">
        <ele>916.981873</ele>
        <time>2019-08-16T13:28:59Z</time>
      </trkpt>
      <trkpt lat="48.01221" lon="6.813">
        <ele>917.145813</ele>
        <time>2019-08-16T13:29:00Z</time>
      </trkpt>
      <trkpt lat="48.01222" lon="6.81298">
        <ele>917.368469</ele>
        <time>2019-08-16T13:29:01Z</time>
      </trkpt>
      <trkpt lat="48.01223" lon="6.81297">
        <ele>917.437317</ele>
        <time>2019-08-16T13:29:02Z</time>
      </trkpt>
      <trkpt lat="48.01225" lon="6.81295">
        <ele>917.637878</ele>
        <time>2019-08-16T13:29:03Z</time>
      </trkpt>
      <trkpt lat="48.01226" lon="6.81294">
        <ele>917.766174</ele>
        <time>2019-08-16T13:29:04Z</time>
      </trkpt>
      <trkpt lat="48.01227" lon="6.81293">
        <ele>917.886475</ele>
        <time>2019-08-16T13:29:05Z</time>
      </trkpt>
      <trkpt lat="48.01228" lon="6.81291">
        <ele>918.054016</ele>
        <time>2019-08-16T13:29:06Z</time>
      </trkpt>
      <trkpt lat="48.01228" lon="6.8129">
        <ele>918.162598</ele>
        <time>2019-08-16T13:29:07Z</time>
      </trkpt>
      <trkpt lat="48.01229" lon="6.81289">
        <ele>918.269958</ele>
        <time>2019-08-16T13:29:08Z</time>
      </trkpt>
      <trkpt lat="48.0123" lon="6.81287">
        <ele>918.436523</ele>
        <time>2019-08-16T13:29:09Z</time>
      </trkpt>
      <trkpt lat="48.01231" lon="6.81285">
        <ele>918.545654</ele>
        <time>2019-08-16T13:29:10Z</time>
      </trkpt>
      <trkpt lat="48.01232" lon="6.81283">
        <ele>918.647766</ele>
        <time>2019-08-16T13:29:11Z</time>
      </trkpt>
      <trkpt lat="48.01233" lon="6.81281">
        <ele>918.73999</ele>
        <time>2019-08-16T13:29:12Z</time>
      </trkpt>
      <trkpt lat="48.01234" lon="6.81278">
        <ele>918.830139</ele>
        <time>2019-08-16T13:29:13Z</time>
      </trkpt>
      <trkpt lat="48.01236" lon="6.81277">
        <ele>918.976563</ele>
        <time>2019-08-16T13:29:14Z</time>
      </trkpt>
      <trkpt lat="48.01237" lon="6.81275">
        <ele>919.083801</ele>
        <time>2019-08-16T13:29:15Z</time>
      </trkpt>
      <trkpt lat="48.01239" lon="6.81273">
        <ele>919.197754</ele>
        <time>2019-08-16T13:29:16Z</time>
      </trkpt>
      <trkpt lat="48.0124" lon="6.81271">
        <ele>919.316223</ele>
        <time>2019-08-16T13:29:17Z</time>
      </trkpt>
      <trkpt lat="48.01241" lon="6.81269">
        <ele>919.515564</ele>
        <time>2019-08-16T13:29:18Z</time>
      </trkpt>
      <trkpt lat="48.01243" lon="6.81267">
        <ele>919.660339</ele>
        <time>2019-08-16T13:29:19Z</time>
      </trkpt>
      <trkpt lat="48.01244" lon="6.81265">
        <ele>919.815002</ele>
        <time>2019-08-16T13:29:20Z</time>
      </trkpt>
      <trkpt lat="48.01246" lon="6.81263">
        <ele>920.054749</ele>
        <time>2019-08-16T13:29:21Z</time>
      </trkpt>
      <trkpt lat="48.01247" lon="6.81261">
        <ele>920.219666</ele>
        <time>2019-08-16T13:29:22Z</time>
      </trkpt>
      <trkpt lat="48.01248" lon="6.81258">
        <ele>920.387512</ele>
        <time>2019-08-16T13:29:23Z</time>
      </trkpt>
      <trkpt lat="48.01249" lon="6.81257">
        <ele>920.791199</ele>
        <time>2019-08-16T13:29:24Z</time>
      </trkpt>
      <trkpt lat="48.01251" lon="6.81255">
        <ele>920.927551</ele>
        <time>2019-08-16T13:29:26Z</time>
      </trkpt>
      <trkpt lat="48.01252" lon="6.81253">
        <ele>921.051941</ele>
        <time>2019-08-16T13:29:27Z</time>
      </trkpt>
      <trkpt lat="48.01254" lon="6.81252">
        <ele>921.222473</ele>
        <time>2019-08-16T13:29:28Z</time>
      </trkpt>
      <trkpt lat="48.01255" lon="6.8125">
        <ele>921.3255</ele>
        <time>2019-08-16T13:29:29Z</time>
      </trkpt>
      <trkpt lat="48.01256" lon="6.81248">
        <ele>921.418762</ele>
        <time>2019-08-16T13:29:30Z</time>
      </trkpt>
      <trkpt lat="48.01257" lon="6.81247">
        <ele>921.543274</ele>
        <time>2019-08-16T13:29:31Z</time>
      </trkpt>
      <trkpt lat="48.01258" lon="6.81245">
        <ele>921.628845</ele>
        <time>2019-08-16T13:29:32Z</time>
      </trkpt>
      <trkpt lat="48.0126" lon="6.81244">
        <ele>921.727722</ele>
        <time>2019-08-16T13:29:33Z</time>
      </trkpt>
      <trkpt lat="48.01261" lon="6.81243">
        <ele>921.838867</ele>
        <time>2019-08-16T13:29:34Z</time>
      </trkpt>
      <trkpt lat="48.01262" lon="6.81241">
        <ele>921.952576</ele>
        <time>2019-08-16T13:29:35Z</time>
      </trkpt>
      <trkpt lat="48.01264" lon="6.81239">
        <ele>922.059631</ele>
        <time>2019-08-16T13:29:36Z</time>
      </trkpt>
      <trkpt lat="48.01266" lon="6.81237">
        <ele>922.165039</ele>
        <time>2019-08-16T13:29:37Z</time>
      </trkpt>
      <trkpt lat="48.01268" lon="6.81236">
        <ele>922.33905</ele>
        <time>2019-08-16T13:29:38Z</time>
      </trkpt>
      <trkpt lat="48.01269" lon="6.81234">
        <ele>922.468079</ele>
        <time>2019-08-16T13:29:39Z</time>
      </trkpt>
      <trkpt lat="48.01271" lon="6.81233">
        <ele>922.60553</ele>
        <time>2019-08-16T13:29:40Z</time>
      </trkpt>
      <trkpt lat="48.01273" lon="6.81231">
        <ele>922.822937</ele>
        <time>2019-08-16T13:29:41Z</time>
      </trkpt>
      <trkpt lat="48.01275" lon="6.8123">
        <ele>922.976624</ele>
        <time>2019-08-16T13:29:42Z</time>
      </trkpt>
      <trkpt lat="48.01276" lon="6.81229">
        <ele>923.131104</ele>
        <time>2019-08-16T13:29:43Z</time>
      </trkpt>
      <trkpt lat="48.01278" lon="6.81227">
        <ele>923.277771</ele>
        <time>2019-08-16T13:29:44Z</time>
      </trkpt>
      <trkpt lat="48.0128" lon="6.81225">
        <ele>923.479187</ele>
        <time>2019-08-16T13:29:45Z</time>
      </trkpt>
      <trkpt lat="48.01281" lon="6.81224">
        <ele>923.607178</ele>
        <time>2019-08-16T13:29:46Z</time>
      </trkpt>
      <trkpt lat="48.01281" lon="6.81223">
        <ele>923.733826</ele>
        <time>2019-08-16T13:29:47Z</time>
      </trkpt>
      <trkpt lat="48.01283" lon="6.81221">
        <ele>923.912415</ele>
        <time>2019-08-16T13:29:48Z</time>
      </trkpt>
      <trkpt lat="48.01284" lon="6.8122">
        <ele>924.295837</ele>
        <time>2019-08-16T13:29:50Z</time>
      </trkpt>
      <trkpt lat="48.01286" lon="6.81218">
        <ele>924.412842</ele>
        <time>2019-08-16T13:29:52Z</time>
      </trkpt>
      <trkpt lat="48.01288" lon="6.81216">
        <ele>924.592773</ele>
        <time>2019-08-16T13:29:53Z</time>
      </trkpt>
      <trkpt lat="48.01289" lon="6.81214">
        <ele>924.711975</ele>
        <time>2019-08-16T13:29:54Z</time>
      </trkpt>
      <trkpt lat="48.01291" lon="6.81213">
        <ele>924.824402</ele>
        <time>2019-08-16T13:29:55Z</time>
      </trkpt>
      <trkpt lat="48.01292" lon="6.81211">
        <ele>924.972168</ele>
        <time>2019-08-16T13:29:56Z</time>
      </trkpt>
      <trkpt lat="48.01294" lon="6.81209">
        <ele>925.059753</ele>
        <time>2019-08-16T13:29:57Z</time>
      </trkpt>
      <trkpt lat="48.01296" lon="6.81207">
        <ele>925.192383</ele>
        <time>2019-08-16T13:29:58Z</time>
      </trkpt>
      <trkpt lat="48.01297" lon="6.81206">
        <ele>925.283508</ele>
        <time>2019-08-16T13:29:59Z</time>
      </trkpt>
      <trkpt lat="48.01299" lon="6.81205">
        <ele>925.377625</ele>
        <time>2019-08-16T13:30:00Z</time>
      </trkpt>
      <trkpt lat="48.013" lon="6.81203">
        <ele>925.530029</ele>
        <time>2019-08-16T13:30:01Z</time>
      </trkpt>
      <trkpt lat="48.01302" lon="6.81202">
        <ele>925.648193</ele>
        <time>2019-08-16T13:30:02Z</time>
      </trkpt>
      <trkpt lat="48.01304" lon="6.812">
        <ele>925.711487</ele>
        <time>2019-08-16T13:30:03Z</time>
      </trkpt>
      <trkpt lat="48.01304" lon="6.81199">
        <ele>925.842834</ele>
        <time>2019-08-16T13:30:04Z</time>
      </trkpt>
      <trkpt lat="48.01306" lon="6.81198">
        <ele>925.970032</ele>
        <time>2019-08-16T13:30:06Z</time>
      </trkpt>
      <trkpt lat="48.01308" lon="6.81196">
        <ele>926.143982</ele>
        <time>2019-08-16T13:30:07Z</time>
      </trkpt>
      <trkpt lat="48.0131" lon="6.81195">
        <ele>926.254883</ele>
        <time>2019-08-16T13:30:08Z</time>
      </trkpt>
      <trkpt lat="48.01311" lon="6.81194">
        <ele>926.366394</ele>
        <time>2019-08-16T13:30:09Z</time>
      </trkpt>
      <trkpt lat="48.01312" lon="6.81193">
        <ele>926.541931</ele>
        <time>2019-08-16T13:30:10Z</time>
      </trkpt>
      <trkpt lat="48.01314" lon="6.81191">
        <ele>926.66217</ele>
        <time>2019-08-16T13:30:11Z</time>
      </trkpt>
      <trkpt lat="48.01315" lon="6.81189">
        <ele>926.788391</ele>
        <time>2019-08-16T13:30:12Z</time>
      </trkpt>
      <trkpt lat="48.01317" lon="6.81188">
        <ele>926.985168</ele>
        <time>2019-08-16T13:30:13Z</time>
      </trkpt>
      <trkpt lat="48.01318" lon="6.81186">
        <ele>927.120178</ele>
        <time>2019-08-16T13:30:14Z</time>
      </trkpt>
      <trkpt lat="48.0132" lon="6.81185">
        <ele>927.317627</ele>
        <time>2019-08-16T13:30:15Z</time>
      </trkpt>
      <trkpt lat="48.01321" lon="6.81182">
        <ele>927.441833</ele>
        <time>2019-08-16T13:30:16Z</time>
      </trkpt>
      <trkpt lat="48.01322" lon="6.81181">
        <ele>927.722595</ele>
        <time>2019-08-16T13:30:17Z</time>
      </trkpt>
      <trkpt lat="48.01323" lon="6.8118">
        <ele>927.830261</ele>
        <time>2019-08-16T13:30:19Z</time>
      </trkpt>
      <trkpt lat="48.01325" lon="6.81178">
        <ele>927.934631</ele>
        <time>2019-08-16T13:30:20Z</time>
      </trkpt>
      <trkpt lat="48.01326" lon="6.81177">
        <ele>928.035095</ele>
        <time>2019-08-16T13:30:21Z</time>
      </trkpt>
      <trkpt lat="48.01328" lon="6.81175">
        <ele>928.12915</ele>
        <time>2019-08-16T13:30:22Z</time>
      </trkpt>
      <trkpt lat="48.01329" lon="6.81173">
        <ele>928.268311</ele>
        <time>2019-08-16T13:30:23Z</time>
      </trkpt>
      <trkpt lat="48.01331" lon="6.81171">
        <ele>928.373291</ele>
        <time>2019-08-16T13:30:24Z</time>
      </trkpt>
      <trkpt lat="48.01333" lon="6.81169">
        <ele>928.489929</ele>
        <time>2019-08-16T13:30:25Z</time>
      </trkpt>
      <trkpt lat="48.01335" lon="6.81167">
        <ele>928.676453</ele>
        <time>2019-08-16T13:30:26Z</time>
      </trkpt>
      <trkpt lat="48.01336" lon="6.81165">
        <ele>928.801819</ele>
        <time>2019-08-16T13:30:27Z</time>
      </trkpt>
      <trkpt lat="48.01338" lon="6.81163">
        <ele>928.928406</ele>
        <time>2019-08-16T13:30:28Z</time>
      </trkpt>
      <trkpt lat="48.01339" lon="6.81162">
        <ele>929.120605</ele>
        <time>2019-08-16T13:30:29Z</time>
      </trkpt>
      <trkpt lat="48.0134" lon="6.8116">
        <ele>929.247375</ele>
        <time>2019-08-16T13:30:30Z</time>
      </trkpt>
      <trkpt lat="48.01342" lon="6.81158">
        <ele>929.368958</ele>
        <time>2019-08-16T13:30:31Z</time>
      </trkpt>
      <trkpt lat="48.01344" lon="6.81156">
        <ele>929.480774</ele>
        <time>2019-08-16T13:30:32Z</time>
      </trkpt>
      <trkpt lat="48.01345" lon="6.81155">
        <ele>929.58667</ele>
        <time>2019-08-16T13:30:33Z</time>
      </trkpt>
      <trkpt lat="48.01346" lon="6.81154">
        <ele>929.756836</ele>
        <time>2019-08-16T13:30:34Z</time>
      </trkpt>
      <trkpt lat="48.01348" lon="6.81152">
        <ele>929.887451</ele>
        <time>2019-08-16T13:30:35Z</time>
      </trkpt>
      <trkpt lat="48.01349" lon="6.8115">
        <ele>930.028137</ele>
        <time>2019-08-16T13:30:36Z</time>
      </trkpt>
      <trkpt lat="48.01351" lon="6.81148">
        <ele>930.239258</ele>
        <time>2019-08-16T13:30:37Z</time>
      </trkpt>
      <trkpt lat="48.01353" lon="6.81147">
        <ele>930.377136</ele>
        <time>2019-08-16T13:30:38Z</time>
      </trkpt>
      <trkpt lat="48.01354" lon="6.81145">
        <ele>930.514587</ele>
        <time>2019-08-16T13:30:39Z</time>
      </trkpt>
      <trkpt lat="48.01356" lon="6.81144">
        <ele>930.716003</ele>
        <time>2019-08-16T13:30:40Z</time>
      </trkpt>
      <trkpt lat="48.01357" lon="6.81142">
        <ele>930.841858</ele>
        <time>2019-08-16T13:30:41Z</time>
      </trkpt>
      <trkpt lat="48.01358" lon="6.81141">
        <ele>930.955872</ele>
        <time>2019-08-16T13:30:42Z</time>
      </trkpt>
      <trkpt lat="48.0136" lon="6.81138">
        <ele>931.101868</ele>
        <time>2019-08-16T13:30:43Z</time>
      </trkpt>
      <trkpt lat="48.01362" lon="6.81136">
        <ele>931.180664</ele>
        <time>2019-08-16T13:30:44Z</time>
      </trkpt>
      <trkpt lat="48.01363" lon="6.81134">
        <ele>931.251709</ele>
        <time>2019-08-16T13:30:45Z</time>
      </trkpt>
      <trkpt lat="48.01365" lon="6.81133">
        <ele>931.350647</ele>
        <time>2019-08-16T13:30:46Z</time>
      </trkpt>
      <trkpt lat="48.01366" lon="6.81131">
        <ele>931.425354</ele>
        <time>2019-08-16T13:30:47Z</time>
      </trkpt>
      <trkpt lat="48.01368" lon="6.8113">
        <ele>931.511047</ele>
        <time>2019-08-16T13:30:48Z</time>
      </trkpt>
      <trkpt lat="48.01369" lon="6.81128">
        <ele>931.669983</ele>
        <time>2019-08-16T13:30:49Z</time>
      </trkpt>
      <trkpt lat="48.0137" lon="6.81127">
        <ele>931.790771</ele>
        <time>2019-08-16T13:30:50Z</time>
      </trkpt>
      <trkpt lat="48.01371" lon="6.81126">
        <ele>931.916809</ele>
        <time>2019-08-16T13:30:51Z</time>
      </trkpt>
      <trkpt lat="48.01372" lon="6.81124">
        <ele>932.039795</ele>
        <time>2019-08-16T13:30:52Z</time>
      </trkpt>
      <trkpt lat="48.01373" lon="6.81122">
        <ele>932.157959</ele>
        <time>2019-08-16T13:30:53Z</time>
      </trkpt>
      <trkpt lat="48.01376" lon="6.8112">
        <ele>932.269226</ele>
        <time>2019-08-16T13:30:54Z</time>
      </trkpt>
      <trkpt lat="48.01378" lon="6.81118">
        <ele>932.430176</ele>
        <time>2019-08-16T13:30:55Z</time>
      </trkpt>
      <trkpt lat="48.01379" lon="6.81117">
        <ele>932.53595</ele>
        <time>2019-08-16T13:30:56Z</time>
      </trkpt>
      <trkpt lat="48.0138" lon="6.81116">
        <ele>932.643982</ele>
        <time>2019-08-16T13:30:57Z</time>
      </trkpt>
      <trkpt lat="48.01382" lon="6.81115">
        <ele>932.823792</ele>
        <time>2019-08-16T13:30:58Z</time>
      </trkpt>
      <trkpt lat="48.01383" lon="6.81113">
        <ele>932.954285</ele>
        <time>2019-08-16T13:30:59Z</time>
      </trkpt>
      <trkpt lat="48.01385" lon="6.81112">
        <ele>933.08783</ele>
        <time>2019-08-16T13:31:00Z</time>
      </trkpt>
      <trkpt lat="48.01386" lon="6.81111">
        <ele>933.390381</ele>
        <time>2019-08-16T13:31:01Z</time>
      </trkpt>
      <trkpt lat="48.01387" lon="6.8111">
        <ele>933.443359</ele>
        <time>2019-08-16T13:31:03Z</time>
      </trkpt>
      <trkpt lat="48.01389" lon="6.8111">
        <ele>933.598816</ele>
        <time>2019-08-16T13:31:04Z</time>
      </trkpt>
      <trkpt lat="48.0139" lon="6.81109">
        <ele>933.699707</ele>
        <time>2019-08-16T13:31:05Z</time>
      </trkpt>
      <trkpt lat="48.01391" lon="6.81108">
        <ele>933.800964</ele>
        <time>2019-08-16T13:31:06Z</time>
      </trkpt>
      <trkpt lat="48.01392" lon="6.81108">
        <ele>933.955322</ele>
        <time>2019-08-16T13:31:07Z</time>
      </trkpt>
      <trkpt lat="48.01394" lon="6.81106">
        <ele>934.065918</ele>
        <time>2019-08-16T13:31:08Z</time>
      </trkpt>
      <trkpt lat="48.01395" lon="6.81105">
        <ele>934.181335</ele>
        <time>2019-08-16T13:31:09Z</time>
      </trkpt>
      <trkpt lat="48.01396" lon="6.81103">
        <ele>934.354309</ele>
        <time>2019-08-16T13:31:10Z</time>
      </trkpt>
      <trkpt lat="48.01398" lon="6.81102">
        <ele>934.466553</ele>
        <time>2019-08-16T13:31:11Z</time>
      </trkpt>
      <trkpt lat="48.01399" lon="6.81101">
        <ele>934.583252</ele>
        <time>2019-08-16T13:31:12Z</time>
      </trkpt>
      <trkpt lat="48.014" lon="6.81099">
        <ele>934.781738</ele>
        <time>2019-08-16T13:31:13Z</time>
      </trkpt>
      <trkpt lat="48.01402" lon="6.81098">
        <ele>934.930603</ele>
        <time>2019-08-16T13:31:14Z</time>
      </trkpt>
      <trkpt lat="48.01403" lon="6.81097">
        <ele>935.085388</ele>
        <time>2019-08-16T13:31:15Z</time>
      </trkpt>
      <trkpt lat="48.01405" lon="6.81095">
        <ele>935.316589</ele>
        <time>2019-08-16T13:31:16Z</time>
      </trkpt>
      <trkpt lat="48.01408" lon="6.81093">
        <ele>935.467957</ele>
        <time>2019-08-16T13:31:17Z</time>
      </trkpt>
      <trkpt lat="48.01409" lon="6.81092">
        <ele>935.614075</ele>
        <time>2019-08-16T13:31:18Z</time>
      </trkpt>
      <trkpt lat="48.01411" lon="6.81091">
        <ele>935.812195</ele>
        <time>2019-08-16T13:31:19Z</time>
      </trkpt>
      <trkpt lat="48.01413" lon="6.8109">
        <ele>935.92572</ele>
        <time>2019-08-16T13:31:20Z</time>
      </trkpt>
      <trkpt lat="48.01415" lon="6.81088">
        <ele>936.029236</ele>
        <time>2019-08-16T13:31:21Z</time>
      </trkpt>
      <trkpt lat="48.01416" lon="6.81087">
        <ele>936.179688</ele>
        <time>2019-08-16T13:31:22Z</time>
      </trkpt>
      <trkpt lat="48.01418" lon="6.81087">
        <ele>936.282959</ele>
        <time>2019-08-16T13:31:23Z</time>
      </trkpt>
      <trkpt lat="48.01419" lon="6.81086">
        <ele>936.387878</ele>
        <time>2019-08-16T13:31:24Z</time>
      </trkpt>
      <trkpt lat="48.01421" lon="6.81085">
        <ele>936.562561</ele>
        <time>2019-08-16T13:31:25Z</time>
      </trkpt>
      <trkpt lat="48.01422" lon="6.81084">
        <ele>936.695496</ele>
        <time>2019-08-16T13:31:26Z</time>
      </trkpt>
      <trkpt lat="48.01424" lon="6.81084">
        <ele>936.905457</ele>
        <time>2019-08-16T13:31:27Z</time>
      </trkpt>
      <trkpt lat="48.01425" lon="6.81083">
        <ele>937.041809</ele>
        <time>2019-08-16T13:31:28Z</time>
      </trkpt>
      <trkpt lat="48.01427" lon="6.81082">
        <ele>937.167908</ele>
        <time>2019-08-16T13:31:29Z</time>
      </trkpt>
      <trkpt lat="48.01428" lon="6.81082">
        <ele>937.338196</ele>
        <time>2019-08-16T13:31:30Z</time>
      </trkpt>
      <trkpt lat="48.0143" lon="6.81081">
        <ele>937.437805</ele>
        <time>2019-08-16T13:31:31Z</time>
      </trkpt>
      <trkpt lat="48.01432" lon="6.8108">
        <ele>937.534729</ele>
        <time>2019-08-16T13:31:32Z</time>
      </trkpt>
      <trkpt lat="48.01433" lon="6.8108">
        <ele>937.687439</ele>
        <time>2019-08-16T13:31:33Z</time>
      </trkpt>
      <trkpt lat="48.01434" lon="6.8108">
        <ele>937.93042</ele>
        <time>2019-08-16T13:31:34Z</time>
      </trkpt>
      <trkpt lat="48.01436" lon="6.8108">
        <ele>938.133728</ele>
        <time>2019-08-16T13:31:36Z</time>
      </trkpt>
      <trkpt lat="48.01437" lon="6.81079">
        <ele>938.277588</ele>
        <time>2019-08-16T13:31:37Z</time>
      </trkpt>
      <trkpt lat="48.0144" lon="6.81079">
        <ele>938.430115</ele>
        <time>2019-08-16T13:31:38Z</time>
      </trkpt>
      <trkpt lat="48.01442" lon="6.81078">
        <ele>938.664734</ele>
        <time>2019-08-16T13:31:39Z</time>
      </trkpt>
      <trkpt lat="48.01444" lon="6.81078">
        <ele>938.817688</ele>
        <time>2019-08-16T13:31:40Z</time>
      </trkpt>
      <trkpt lat="48.01444" lon="6.81077">
        <ele>939.342712</ele>
        <time>2019-08-16T13:31:42Z</time>
      </trkpt>
      <trkpt lat="48.01447" lon="6.81077">
        <ele>939.483398</ele>
        <time>2019-08-16T13:31:44Z</time>
      </trkpt>
      <trkpt lat="48.01448" lon="6.81076">
        <ele>939.670227</ele>
        <time>2019-08-16T13:31:45Z</time>
      </trkpt>
      <trkpt lat="48.0145" lon="6.81075">
        <ele>939.775146</ele>
        <time>2019-08-16T13:31:46Z</time>
      </trkpt>
      <trkpt lat="48.01453" lon="6.81075">
        <ele>939.870911</ele>
        <time>2019-08-16T13:31:47Z</time>
      </trkpt>
      <trkpt lat="48.01455" lon="6.81075">
        <ele>940.010559</ele>
        <time>2019-08-16T13:31:48Z</time>
      </trkpt>
      <trkpt lat="48.01457" lon="6.81074">
        <ele>940.110535</ele>
        <time>2019-08-16T13:31:49Z</time>
      </trkpt>
      <trkpt lat="48.01459" lon="6.81073">
        <ele>940.216492</ele>
        <time>2019-08-16T13:31:50Z</time>
      </trkpt>
      <trkpt lat="48.01461" lon="6.81072">
        <ele>940.3797</ele>
        <time>2019-08-16T13:31:51Z</time>
      </trkpt>
      <trkpt lat="48.01463" lon="6.81072">
        <ele>940.491272</ele>
        <time>2019-08-16T13:31:52Z</time>
      </trkpt>
      <trkpt lat="48.01464" lon="6.81071">
        <ele>940.608643</ele>
        <time>2019-08-16T13:31:53Z</time>
      </trkpt>
      <trkpt lat="48.01466" lon="6.81071">
        <ele>940.794739</ele>
        <time>2019-08-16T13:31:54Z</time>
      </trkpt>
      <trkpt lat="48.01468" lon="6.8107">
        <ele>940.917786</ele>
        <time>2019-08-16T13:31:55Z</time>
      </trkpt>
      <trkpt lat="48.0147" lon="6.8107">
        <ele>941.087585</ele>
        <time>2019-08-16T13:31:56Z</time>
      </trkpt>
      <trkpt lat="48.01472" lon="6.81069">
        <ele>941.193665</ele>
        <time>2019-08-16T13:31:57Z</time>
      </trkpt>
      <trkpt lat="48.01474" lon="6.81068">
        <ele>941.347961</ele>
        <time>2019-08-16T13:31:58Z</time>
      </trkpt>
      <trkpt lat="48.01476" lon="6.81067">
        <ele>941.440735</ele>
        <time>2019-08-16T13:31:59Z</time>
      </trkpt>
      <trkpt lat="48.01478" lon="6.81067">
        <ele>941.515686</ele>
        <time>2019-08-16T13:32:00Z</time>
      </trkpt>
      <trkpt lat="48.0148" lon="6.81066">
        <ele>941.59491</ele>
        <time>2019-08-16T13:32:01Z</time>
      </trkpt>
      <trkpt lat="48.01481" lon="6.81065">
        <ele>941.719421</ele>
        <time>2019-08-16T13:32:02Z</time>
      </trkpt>
      <trkpt lat="48.01483" lon="6.81064">
        <ele>941.746765</ele>
        <time>2019-08-16T13:32:04Z</time>
      </trkpt>
      <trkpt lat="48.01484" lon="6.81063">
        <ele>941.825134</ele>
        <time>2019-08-16T13:32:05Z</time>
      </trkpt>
      <trkpt lat="48.01486" lon="6.81062">
        <ele>941.949036</ele>
        <time>2019-08-16T13:32:06Z</time>
      </trkpt>
      <trkpt lat="48.01488" lon="6.8106">
        <ele>942.077393</ele>
        <time>2019-08-16T13:32:08Z</time>
      </trkpt>
      <trkpt lat="48.01489" lon="6.81058">
        <ele>942.168701</ele>
        <time>2019-08-16T13:32:09Z</time>
      </trkpt>
      <trkpt lat="48.01491" lon="6.81056">
        <ele>942.262695</ele>
        <time>2019-08-16T13:32:10Z</time>
      </trkpt>
      <trkpt lat="48.01492" lon="6.81054">
        <ele>942.362976</ele>
        <time>2019-08-16T13:32:11Z</time>
      </trkpt>
      <trkpt lat="48.01493" lon="6.81051">
        <ele>942.476379</ele>
        <time>2019-08-16T13:32:12Z</time>
      </trkpt>
      <trkpt lat="48.01493" lon="6.81048">
        <ele>942.66925</ele>
        <time>2019-08-16T13:32:13Z</time>
      </trkpt>
      <trkpt lat="48.01494" lon="6.81045">
        <ele>942.807861</ele>
        <time>2019-08-16T13:32:14Z</time>
      </trkpt>
      <trkpt lat="48.01494" lon="6.81042">
        <ele>942.953857</ele>
        <time>2019-08-16T13:32:15Z</time>
      </trkpt>
      <trkpt lat="48.01493" lon="6.81039">
        <ele>943.103271</ele>
        <time>2019-08-16T13:32:16Z</time>
      </trkpt>
      <trkpt lat="48.01491" lon="6.81037">
        <ele>943.253479</ele>
        <time>2019-08-16T13:32:17Z</time>
      </trkpt>
      <trkpt lat="48.0149" lon="6.81035">
        <ele>943.400696</ele>
        <time>2019-08-16T13:32:18Z</time>
      </trkpt>
      <trkpt lat="48.01488" lon="6.81034">
        <ele>943.618835</ele>
        <time>2019-08-16T13:32:19Z</time>
      </trkpt>
      <trkpt lat="48.01486" lon="6.81033">
        <ele>943.755371</ele>
        <time>2019-08-16T13:32:20Z</time>
      </trkpt>
      <trkpt lat="48.01484" lon="6.81032">
        <ele>943.878418</ele>
        <time>2019-08-16T13:32:21Z</time>
      </trkpt>
      <trkpt lat="48.01483" lon="6.81032">
        <ele>944.035706</ele>
        <time>2019-08-16T13:32:22Z</time>
      </trkpt>
      <trkpt lat="48.0148" lon="6.81032">
        <ele>944.130188</ele>
        <time>2019-08-16T13:32:23Z</time>
      </trkpt>
      <trkpt lat="48.01478" lon="6.81033">
        <ele>944.219177</ele>
        <time>2019-08-16T13:32:24Z</time>
      </trkpt>
      <trkpt lat="48.01476" lon="6.81033">
        <ele>944.343506</ele>
        <time>2019-08-16T13:32:25Z</time>
      </trkpt>
      <trkpt lat="48.01474" lon="6.81033">
        <ele>944.416809</ele>
        <time>2019-08-16T13:32:26Z</time>
      </trkpt>
      <trkpt lat="48.01472" lon="6.81033">
        <ele>944.517639</ele>
        <time>2019-08-16T13:32:27Z</time>
      </trkpt>
      <trkpt lat="48.0147" lon="6.81033">
        <ele>944.592224</ele>
        <time>2019-08-16T13:32:28Z</time>
      </trkpt>
      <trkpt lat="48.01468" lon="6.81033">
        <ele>944.677429</ele>
        <time>2019-08-16T13:32:29Z</time>
      </trkpt>
      <trkpt lat="48.01466" lon="6.81033">
        <ele>944.815857</ele>
        <time>2019-08-16T13:32:30Z</time>
      </trkpt>
      <trkpt lat="48.01463" lon="6.81033">
        <ele>944.908508</ele>
        <time>2019-08-16T13:32:31Z</time>
      </trkpt>
      <trkpt lat="48.01461" lon="6.81033">
        <ele>945.053162</ele>
        <time>2019-08-16T13:32:32Z</time>
      </trkpt>
      <trkpt lat="48.01459" lon="6.81033">
        <ele>945.159607</ele>
        <time>2019-08-16T13:32:33Z</time>
      </trkpt>
      <trkpt lat="48.01457" lon="6.81033">
        <ele>945.26709</ele>
        <time>2019-08-16T13:32:34Z</time>
      </trkpt>
      <trkpt lat="48.01454" lon="6.81033">
        <ele>945.414307</ele>
        <time>2019-08-16T13:32:35Z</time>
      </trkpt>
      <trkpt lat="48.01452" lon="6.81033">
        <ele>945.495605</ele>
        <time>2019-08-16T13:32:36Z</time>
      </trkpt>
      <trkpt lat="48.0145" lon="6.81033">
        <ele>945.571594</ele>
        <time>2019-08-16T13:32:37Z</time>
      </trkpt>
      <trkpt lat="48.01449" lon="6.81033">
        <ele>945.673523</ele>
        <time>2019-08-16T13:32:38Z</time>
      </trkpt>
      <trkpt lat="48.01447" lon="6.81033">
        <ele>945.725525</ele>
        <time>2019-08-16T13:32:39Z</time>
      </trkpt>
      <trkpt lat="48.01447" lon="6.81033">
        <ele>945.786133</ele>
        <time>2019-08-16T13:32:40Z</time>
      </trkpt>
      <trkpt lat="48.01445" lon="6.81033">
        <ele>945.834961</ele>
        <time>2019-08-16T13:32:41Z</time>
      </trkpt>
      <trkpt lat="48.01443" lon="6.81033">
        <ele>945.896973</ele>
        <time>2019-08-16T13:32:42Z</time>
      </trkpt>
      <trkpt lat="48.0144" lon="6.81032">
        <ele>946.009521</ele>
        <time>2019-08-16T13:32:43Z</time>
      </trkpt>
      <trkpt lat="48.01438" lon="6.81032">
        <ele>946.088379</ele>
        <time>2019-08-16T13:32:44Z</time>
      </trkpt>
      <trkpt lat="48.01436" lon="6.81032">
        <ele>946.169373</ele>
        <time>2019-08-16T13:32:45Z</time>
      </trkpt>
      <trkpt lat="48.01433" lon="6.81031">
        <ele>946.289612</ele>
        <time>2019-08-16T13:32:46Z</time>
      </trkpt>
      <trkpt lat="48.01431" lon="6.81031">
        <ele>946.36554</ele>
        <time>2019-08-16T13:32:47Z</time>
      </trkpt>
      <trkpt lat="48.01428" lon="6.81031">
        <ele>946.431702</ele>
        <time>2019-08-16T13:32:48Z</time>
      </trkpt>
      <trkpt lat="48.01426" lon="6.81031">
        <ele>946.505798</ele>
        <time>2019-08-16T13:32:49Z</time>
      </trkpt>
      <trkpt lat="48.01423" lon="6.8103">
        <ele>946.54303</ele>
        <time>2019-08-16T13:32:50Z</time>
      </trkpt>
      <trkpt lat="48.0142" lon="6.8103">
        <ele>946.585205</ele>
        <time>2019-08-16T13:32:51Z</time>
      </trkpt>
      <trkpt lat="48.01418" lon="6.81029">
        <ele>946.661194</ele>
        <time>2019-08-16T13:32:52Z</time>
      </trkpt>
      <trkpt lat="48.01415" lon="6.81029">
        <ele>946.719971</ele>
        <time>2019-08-16T13:32:53Z</time>
      </trkpt>
      <trkpt lat="48.01413" lon="6.81029">
        <ele>946.775452</ele>
        <time>2019-08-16T13:32:54Z</time>
      </trkpt>
      <trkpt lat="48.01411" lon="6.81029">
        <ele>946.848816</ele>
        <time>2019-08-16T13:32:55Z</time>
      </trkpt>
      <trkpt lat="48.01408" lon="6.81029">
        <ele>946.893005</ele>
        <time>2019-08-16T13:32:56Z</time>
      </trkpt>
      <trkpt lat="48.01407" lon="6.81029">
        <ele>946.950256</ele>
        <time>2019-08-16T13:32:57Z</time>
      </trkpt>
      <trkpt lat="48.01404" lon="6.81029">
        <ele>946.975098</ele>
        <time>2019-08-16T13:32:58Z</time>
      </trkpt>
      <trkpt lat="48.01402" lon="6.81029">
        <ele>946.994324</ele>
        <time>2019-08-16T13:32:59Z</time>
      </trkpt>
      <trkpt lat="48.01399" lon="6.81029">
        <ele>947.031494</ele>
        <time>2019-08-16T13:33:00Z</time>
      </trkpt>
      <trkpt lat="48.01397" lon="6.81028">
        <ele>947.063721</ele>
        <time>2019-08-16T13:33:01Z</time>
      </trkpt>
      <trkpt lat="48.01395" lon="6.81028">
        <ele>947.106384</ele>
        <time>2019-08-16T13:33:02Z</time>
      </trkpt>
      <trkpt lat="48.01393" lon="6.81028">
        <ele>947.195984</ele>
        <time>2019-08-16T13:33:03Z</time>
      </trkpt>
      <trkpt lat="48.01391" lon="6.81028">
        <ele>947.270203</ele>
        <time>2019-08-16T13:33:04Z</time>
      </trkpt>
      <trkpt lat="48.01389" lon="6.81028">
        <ele>947.31012</ele>
        <time>2019-08-16T13:33:05Z</time>
      </trkpt>
      <trkpt lat="48.01387" lon="6.81028">
        <ele>947.31012</ele>
        <time>2019-08-16T13:33:06Z</time>
      </trkpt>
      <trkpt lat="48.01385" lon="6.81027">
        <ele>947.392334</ele>
        <time>2019-08-16T13:33:07Z</time>
      </trkpt>
      <trkpt lat="48.01382" lon="6.81028">
        <ele>947.514709</ele>
        <time>2019-08-16T13:33:08Z</time>
      </trkpt>
      <trkpt lat="48.01381" lon="6.81028">
        <ele>947.602295</ele>
        <time>2019-08-16T13:33:09Z</time>
      </trkpt>
      <trkpt lat="48.01379" lon="6.81029">
        <ele>947.701843</ele>
        <time>2019-08-16T13:33:10Z</time>
      </trkpt>
      <trkpt lat="48.01376" lon="6.81028">
        <ele>947.879944</ele>
        <time>2019-08-16T13:33:11Z</time>
      </trkpt>
      <trkpt lat="48.01373" lon="6.81028">
        <ele>948.008362</ele>
        <time>2019-08-16T13:33:12Z</time>
      </trkpt>
      <trkpt lat="48.0137" lon="6.81027">
        <ele>948.210144</ele>
        <time>2019-08-16T13:33:13Z</time>
      </trkpt>
      <trkpt lat="48.01368" lon="6.81027">
        <ele>948.341064</ele>
        <time>2019-08-16T13:33:14Z</time>
      </trkpt>
      <trkpt lat="48.01366" lon="6.81027">
        <ele>948.4599</ele>
        <time>2019-08-16T13:33:15Z</time>
      </trkpt>
      <trkpt lat="48.01362" lon="6.81026">
        <ele>948.605713</ele>
        <time>2019-08-16T13:33:16Z</time>
      </trkpt>
      <trkpt lat="48.0136" lon="6.81025">
        <ele>948.686035</ele>
        <time>2019-08-16T13:33:17Z</time>
      </trkpt>
      <trkpt lat="48.01357" lon="6.81024">
        <ele>948.789246</ele>
        <time>2019-08-16T13:33:18Z</time>
      </trkpt>
      <trkpt lat="48.01354" lon="6.81023">
        <ele>948.84906</ele>
        <time>2019-08-16T13:33:19Z</time>
      </trkpt>
      <trkpt lat="48.01352" lon="6.81022">
        <ele>948.902832</ele>
        <time>2019-08-16T13:33:20Z</time>
      </trkpt>
      <trkpt lat="48.01349" lon="6.81021">
        <ele>948.978455</ele>
        <time>2019-08-16T13:33:21Z</time>
      </trkpt>
      <trkpt lat="48.01346" lon="6.81021">
        <ele>949.027283</ele>
        <time>2019-08-16T13:33:22Z</time>
      </trkpt>
      <trkpt lat="48.01344" lon="6.8102">
        <ele>949.079102</ele>
        <time>2019-08-16T13:33:23Z</time>
      </trkpt>
      <trkpt lat="48.01341" lon="6.81019">
        <ele>949.161682</ele>
        <time>2019-08-16T13:33:24Z</time>
      </trkpt>
      <trkpt lat="48.01338" lon="6.81019">
        <ele>949.21759</ele>
        <time>2019-08-16T13:33:25Z</time>
      </trkpt>
      <trkpt lat="48.01335" lon="6.81018">
        <ele>949.275146</ele>
        <time>2019-08-16T13:33:26Z</time>
      </trkpt>
      <trkpt lat="48.01332" lon="6.81017">
        <ele>949.358948</ele>
        <time>2019-08-16T13:33:27Z</time>
      </trkpt>
      <trkpt lat="48.0133" lon="6.81017">
        <ele>949.4151</ele>
        <time>2019-08-16T13:33:28Z</time>
      </trkpt>
      <trkpt lat="48.01327" lon="6.81017">
        <ele>949.500916</ele>
        <time>2019-08-16T13:33:29Z</time>
      </trkpt>
      <trkpt lat="48.01324" lon="6.81017">
        <ele>949.549377</ele>
        <time>2019-08-16T13:33:30Z</time>
      </trkpt>
      <trkpt lat="48.01321" lon="6.81018">
        <ele>949.597839</ele>
        <time>2019-08-16T13:33:31Z</time>
      </trkpt>
      <trkpt lat="48.01318" lon="6.81018">
        <ele>949.677979</ele>
        <time>2019-08-16T13:33:32Z</time>
      </trkpt>
      <trkpt lat="48.01315" lon="6.81018">
        <ele>949.740479</ele>
        <time>2019-08-16T13:33:33Z</time>
      </trkpt>
      <trkpt lat="48.01312" lon="6.81019">
        <ele>949.804138</ele>
        <time>2019-08-16T13:33:34Z</time>
      </trkpt>
      <trkpt lat="48.0131" lon="6.8102">
        <ele>949.912598</ele>
        <time>2019-08-16T13:33:35Z</time>
      </trkpt>
      <trkpt lat="48.01308" lon="6.8102">
        <ele>949.998352</ele>
        <time>2019-08-16T13:33:36Z</time>
      </trkpt>
      <trkpt lat="48.01305" lon="6.81021">
        <ele>950.099365</ele>
        <time>2019-08-16T13:33:37Z</time>
      </trkpt>
      <trkpt lat="48.01303" lon="6.81022">
        <ele>950.241516</ele>
        <time>2019-08-16T13:33:38Z</time>
      </trkpt>
      <trkpt lat="48.013" lon="6.81023">
        <ele>950.321045</ele>
        <time>2019-08-16T13:33:39Z</time>
      </trkpt>
      <trkpt lat="48.01298" lon="6.81024">
        <ele>950.389404</ele>
        <time>2019-08-16T13:33:40Z</time>
      </trkpt>
      <trkpt lat="48.01296" lon="6.81024">
        <ele>950.49469</ele>
        <time>2019-08-16T13:33:41Z</time>
      </trkpt>
      <trkpt lat="48.01294" lon="6.81025">
        <ele>950.56366</ele>
        <time>2019-08-16T13:33:42Z</time>
      </trkpt>
      <trkpt lat="48.01291" lon="6.81025">
        <ele>950.622864</ele>
        <time>2019-08-16T13:33:43Z</time>
      </trkpt>
      <trkpt lat="48.01289" lon="6.81026">
        <ele>950.681335</ele>
        <time>2019-08-16T13:33:44Z</time>
      </trkpt>
      <trkpt lat="48.01286" lon="6.81027">
        <ele>950.713074</ele>
        <time>2019-08-16T13:33:45Z</time>
      </trkpt>
      <trkpt lat="48.01283" lon="6.81028">
        <ele>950.751038</ele>
        <time>2019-08-16T13:33:46Z</time>
      </trkpt>
      <trkpt lat="48.01281" lon="6.81029">
        <ele>950.83252</ele>
        <time>2019-08-16T13:33:47Z</time>
      </trkpt>
      <trkpt lat="48.01279" lon="6.81029">
        <ele>950.897644</ele>
        <time>2019-08-16T13:33:48Z</time>
      </trkpt>
      <trkpt lat="48.01277" lon="6.8103">
        <ele>950.999268</ele>
        <time>2019-08-16T13:33:49Z</time>
      </trkpt>
      <trkpt lat="48.01275" lon="6.8103">
        <ele>951.076965</ele>
        <time>2019-08-16T13:33:50Z</time>
      </trkpt>
      <trkpt lat="48.01272" lon="6.81031">
        <ele>951.170959</ele>
        <time>2019-08-16T13:33:51Z</time>
      </trkpt>
      <trkpt lat="48.0127" lon="6.81031">
        <ele>951.34491</ele>
        <time>2019-08-16T13:33:52Z</time>
      </trkpt>
      <trkpt lat="48.01268" lon="6.81031">
        <ele>951.469055</ele>
        <time>2019-08-16T13:33:53Z</time>
      </trkpt>
      <trkpt lat="48.01265" lon="6.81031">
        <ele>951.657715</ele>
        <time>2019-08-16T13:33:54Z</time>
      </trkpt>
      <trkpt lat="48.01263" lon="6.81032">
        <ele>951.786926</ele>
        <time>2019-08-16T13:33:55Z</time>
      </trkpt>
      <trkpt lat="48.01261" lon="6.81033">
        <ele>951.913269</ele>
        <time>2019-08-16T13:33:56Z</time>
      </trkpt>
      <trkpt lat="48.01258" lon="6.81034">
        <ele>952.092346</ele>
        <time>2019-08-16T13:33:57Z</time>
      </trkpt>
      <trkpt lat="48.01255" lon="6.81035">
        <ele>952.20282</ele>
        <time>2019-08-16T13:33:58Z</time>
      </trkpt>
      <trkpt lat="48.01253" lon="6.81036">
        <ele>952.302795</ele>
        <time>2019-08-16T13:33:59Z</time>
      </trkpt>
      <trkpt lat="48.01251" lon="6.81036">
        <ele>952.418701</ele>
        <time>2019-08-16T13:34:00Z</time>
      </trkpt>
      <trkpt lat="48.01248" lon="6.81037">
        <ele>952.478271</ele>
        <time>2019-08-16T13:34:01Z</time>
      </trkpt>
      <trkpt lat="48.01246" lon="6.81037">
        <ele>952.54657</ele>
        <time>2019-08-16T13:34:02Z</time>
      </trkpt>
      <trkpt lat="48.01244" lon="6.81039">
        <ele>952.583801</ele>
        <time>2019-08-16T13:34:03Z</time>
      </trkpt>
      <trkpt lat="48.01242" lon="6.8104">
        <ele>952.618347</ele>
        <time>2019-08-16T13:34:04Z</time>
      </trkpt>
      <trkpt lat="48.01239" lon="6.8104">
        <ele>952.675964</ele>
        <time>2019-08-16T13:34:05Z</time>
      </trkpt>
      <trkpt lat="48.01237" lon="6.81041">
        <ele>952.700684</ele>
        <time>2019-08-16T13:34:06Z</time>
      </trkpt>
      <trkpt lat="48.01234" lon="6.81041">
        <ele>952.729492</ele>
        <time>2019-08-16T13:34:07Z</time>
      </trkpt>
      <trkpt lat="48.01232" lon="6.81042">
        <ele>952.796326</ele>
        <time>2019-08-16T13:34:08Z</time>
      </trkpt>
      <trkpt lat="48.01229" lon="6.81043">
        <ele>952.915039</ele>
        <time>2019-08-16T13:34:09Z</time>
      </trkpt>
      <trkpt lat="48.01227" lon="6.81045">
        <ele>953.013611</ele>
        <time>2019-08-16T13:34:10Z</time>
      </trkpt>
      <trkpt lat="48.01225" lon="6.81045">
        <ele>953.131653</ele>
        <time>2019-08-16T13:34:11Z</time>
      </trkpt>
      <trkpt lat="48.01222" lon="6.81046">
        <ele>953.332336</ele>
        <time>2019-08-16T13:34:12Z</time>
      </trkpt>
      <trkpt lat="48.0122" lon="6.81047">
        <ele>953.472656</ele>
        <time>2019-08-16T13:34:13Z</time>
      </trkpt>
      <trkpt lat="48.01217" lon="6.81048">
        <ele>953.61792</ele>
        <time>2019-08-16T13:34:14Z</time>
      </trkpt>
      <trkpt lat="48.01215" lon="6.81049">
        <ele>953.845032</ele>
        <time>2019-08-16T13:34:15Z</time>
      </trkpt>
      <trkpt lat="48.01212" lon="6.8105">
        <ele>953.990723</ele>
        <time>2019-08-16T13:34:16Z</time>
      </trkpt>
      <trkpt lat="48.0121" lon="6.8105">
        <ele>954.114075</ele>
        <time>2019-08-16T13:34:17Z</time>
      </trkpt>
      <trkpt lat="48.01209" lon="6.81051">
        <ele>954.249023</ele>
        <time>2019-08-16T13:34:18Z</time>
      </trkpt>
      <trkpt lat="48.01206" lon="6.81052">
        <ele>954.320496</ele>
        <time>2019-08-16T13:34:19Z</time>
      </trkpt>
      <trkpt lat="48.01203" lon="6.81052">
        <ele>954.385498</ele>
        <time>2019-08-16T13:34:20Z</time>
      </trkpt>
      <trkpt lat="48.01201" lon="6.81053">
        <ele>954.462952</ele>
        <time>2019-08-16T13:34:21Z</time>
      </trkpt>
      <trkpt lat="48.01199" lon="6.81054">
        <ele>954.528259</ele>
        <time>2019-08-16T13:34:22Z</time>
      </trkpt>
      <trkpt lat="48.01197" lon="6.81054">
        <ele>954.573914</ele>
        <time>2019-08-16T13:34:24Z</time>
      </trkpt>
      <trkpt lat="48.01194" lon="6.81055">
        <ele>954.611816</ele>
        <time>2019-08-16T13:34:25Z</time>
      </trkpt>
      <trkpt lat="48.01192" lon="6.81056">
        <ele>954.680969</ele>
        <time>2019-08-16T13:34:26Z</time>
      </trkpt>
      <trkpt lat="48.01189" lon="6.81057">
        <ele>954.73407</ele>
        <time>2019-08-16T13:34:27Z</time>
      </trkpt>
      <trkpt lat="48.01186" lon="6.81058">
        <ele>954.798096</ele>
        <time>2019-08-16T13:34:28Z</time>
      </trkpt>
      <trkpt lat="48.01184" lon="6.81058">
        <ele>954.875793</ele>
        <time>2019-08-16T13:34:29Z</time>
      </trkpt>
      <trkpt lat="48.01182" lon="6.81059">
        <ele>955.023743</ele>
        <time>2019-08-16T13:34:30Z</time>
      </trkpt>
      <trkpt lat="48.01179" lon="6.81059">
        <ele>955.137634</ele>
        <time>2019-08-16T13:34:31Z</time>
      </trkpt>
      <trkpt lat="48.01177" lon="6.81059">
        <ele>955.325867</ele>
        <time>2019-08-16T13:34:32Z</time>
      </trkpt>
      <trkpt lat="48.01174" lon="6.8106">
        <ele>955.464661</ele>
        <time>2019-08-16T13:34:33Z</time>
      </trkpt>
      <trkpt lat="48.01171" lon="6.8106">
        <ele>955.610046</ele>
        <time>2019-08-16T13:34:34Z</time>
      </trkpt>
      <trkpt lat="48.01169" lon="6.81061">
        <ele>955.822754</ele>
        <time>2019-08-16T13:34:35Z</time>
      </trkpt>
      <trkpt lat="48.01167" lon="6.81061">
        <ele>955.954102</ele>
        <time>2019-08-16T13:34:36Z</time>
      </trkpt>
      <trkpt lat="48.01164" lon="6.81062">
        <ele>956.142578</ele>
        <time>2019-08-16T13:34:37Z</time>
      </trkpt>
      <trkpt lat="48.01162" lon="6.81062">
        <ele>956.259949</ele>
        <time>2019-08-16T13:34:38Z</time>
      </trkpt>
      <trkpt lat="48.0116" lon="6.81062">
        <ele>956.364075</ele>
        <time>2019-08-16T13:34:39Z</time>
      </trkpt>
      <trkpt lat="48.01157" lon="6.81062">
        <ele>956.487854</ele>
        <time>2019-08-16T13:34:40Z</time>
      </trkpt>
      <trkpt lat="48.01156" lon="6.81062">
        <ele>956.558105</ele>
        <time>2019-08-16T13:34:41Z</time>
      </trkpt>
      <trkpt lat="48.01154" lon="6.81062">
        <ele>956.628113</ele>
        <time>2019-08-16T13:34:42Z</time>
      </trkpt>
      <trkpt lat="48.01151" lon="6.81062">
        <ele>956.736084</ele>
        <time>2019-08-16T13:34:43Z</time>
      </trkpt>
      <trkpt lat="48.01148" lon="6.81062">
        <ele>956.811096</ele>
        <time>2019-08-16T13:34:44Z</time>
      </trkpt>
      <trkpt lat="48.01146" lon="6.81062">
        <ele>956.891907</ele>
        <time>2019-08-16T13:34:45Z</time>
      </trkpt>
      <trkpt lat="48.01143" lon="6.81063">
        <ele>957.028137</ele>
        <time>2019-08-16T13:34:46Z</time>
      </trkpt>
      <trkpt lat="48.01141" lon="6.81063">
        <ele>957.128235</ele>
        <time>2019-08-16T13:34:47Z</time>
      </trkpt>
      <trkpt lat="48.0114" lon="6.81063">
        <ele>957.23584</ele>
        <time>2019-08-16T13:34:48Z</time>
      </trkpt>
      <trkpt lat="48.01137" lon="6.81062">
        <ele>957.404846</ele>
        <time>2019-08-16T13:34:49Z</time>
      </trkpt>
      <trkpt lat="48.01135" lon="6.81062">
        <ele>957.515625</ele>
        <time>2019-08-16T13:34:50Z</time>
      </trkpt>
      <trkpt lat="48.01134" lon="6.81063">
        <ele>957.620911</ele>
        <time>2019-08-16T13:34:51Z</time>
      </trkpt>
      <trkpt lat="48.01131" lon="6.81062">
        <ele>957.769226</ele>
        <time>2019-08-16T13:34:52Z</time>
      </trkpt>
      <trkpt lat="48.0113" lon="6.81062">
        <ele>957.859924</ele>
        <time>2019-08-16T13:34:53Z</time>
      </trkpt>
      <trkpt lat="48.01127" lon="6.81062">
        <ele>957.94989</ele>
        <time>2019-08-16T13:34:54Z</time>
      </trkpt>
      <trkpt lat="48.01125" lon="6.81062">
        <ele>958.09082</ele>
        <time>2019-08-16T13:34:55Z</time>
      </trkpt>
      <trkpt lat="48.01122" lon="6.81062">
        <ele>958.197083</ele>
        <time>2019-08-16T13:34:56Z</time>
      </trkpt>
      <trkpt lat="48.01119" lon="6.81063">
        <ele>958.308289</ele>
        <time>2019-08-16T13:34:57Z</time>
      </trkpt>
      <trkpt lat="48.01116" lon="6.81064">
        <ele>958.46637</ele>
        <time>2019-08-16T13:34:58Z</time>
      </trkpt>
      <trkpt lat="48.01114" lon="6.81063">
        <ele>958.561462</ele>
        <time>2019-08-16T13:34:59Z</time>
      </trkpt>
      <trkpt lat="48.01112" lon="6.81063">
        <ele>958.658386</ele>
        <time>2019-08-16T13:35:00Z</time>
      </trkpt>
      <trkpt lat="48.01109" lon="6.81063">
        <ele>958.815247</ele>
        <time>2019-08-16T13:35:01Z</time>
      </trkpt>
      <trkpt lat="48.01107" lon="6.81063">
        <ele>958.922668</ele>
        <time>2019-08-16T13:35:02Z</time>
      </trkpt>
      <trkpt lat="48.01104" lon="6.81063">
        <ele>959.080627</ele>
        <time>2019-08-16T13:35:03Z</time>
      </trkpt>
      <trkpt lat="48.01102" lon="6.81062">
        <ele>959.191101</ele>
        <time>2019-08-16T13:35:04Z</time>
      </trkpt>
      <trkpt lat="48.011" lon="6.81062">
        <ele>959.306091</ele>
        <time>2019-08-16T13:35:05Z</time>
      </trkpt>
      <trkpt lat="48.01098" lon="6.81062">
        <ele>959.479309</ele>
        <time>2019-08-16T13:35:06Z</time>
      </trkpt>
      <trkpt lat="48.01096" lon="6.81062">
        <ele>959.533386</ele>
        <time>2019-08-16T13:35:07Z</time>
      </trkpt>
      <trkpt lat="48.01094" lon="6.81061">
        <ele>959.58429</ele>
        <time>2019-08-16T13:35:08Z</time>
      </trkpt>
      <trkpt lat="48.01092" lon="6.8106">
        <ele>959.72998</ele>
        <time>2019-08-16T13:35:09Z</time>
      </trkpt>
      <trkpt lat="48.01089" lon="6.81059">
        <ele>959.822998</ele>
        <time>2019-08-16T13:35:10Z</time>
      </trkpt>
      <trkpt lat="48.01088" lon="6.81059">
        <ele>959.918945</ele>
        <time>2019-08-16T13:35:11Z</time>
      </trkpt>
      <trkpt lat="48.01086" lon="6.81058">
        <ele>960.06012</ele>
        <time>2019-08-16T13:35:12Z</time>
      </trkpt>
      <trkpt lat="48.01084" lon="6.81057">
        <ele>960.145447</ele>
        <time>2019-08-16T13:35:13Z</time>
      </trkpt>
      <trkpt lat="48.01081" lon="6.81056">
        <ele>960.220642</ele>
        <time>2019-08-16T13:35:14Z</time>
      </trkpt>
      <trkpt lat="48.01079" lon="6.81055">
        <ele>960.335999</ele>
        <time>2019-08-16T13:35:15Z</time>
      </trkpt>
      <trkpt lat="48.01077" lon="6.81054">
        <ele>960.424805</ele>
        <time>2019-08-16T13:35:16Z</time>
      </trkpt>
      <trkpt lat="48.01075" lon="6.81053">
        <ele>960.520081</ele>
        <time>2019-08-16T13:35:17Z</time>
      </trkpt>
      <trkpt lat="48.01072" lon="6.81052">
        <ele>960.677246</ele>
        <time>2019-08-16T13:35:18Z</time>
      </trkpt>
      <trkpt lat="48.01069" lon="6.81052">
        <ele>960.796936</ele>
        <time>2019-08-16T13:35:19Z</time>
      </trkpt>
      <trkpt lat="48.01067" lon="6.81051">
        <ele>960.927673</ele>
        <time>2019-08-16T13:35:20Z</time>
      </trkpt>
      <trkpt lat="48.01065" lon="6.81051">
        <ele>961.12262</ele>
        <time>2019-08-16T13:35:21Z</time>
      </trkpt>
      <trkpt lat="48.01063" lon="6.81049">
        <ele>961.248779</ele>
        <time>2019-08-16T13:35:22Z</time>
      </trkpt>
      <trkpt lat="48.01061" lon="6.81048">
        <ele>961.371155</ele>
        <time>2019-08-16T13:35:23Z</time>
      </trkpt>
      <trkpt lat="48.01059" lon="6.81047">
        <ele>961.542175</ele>
        <time>2019-08-16T13:35:24Z</time>
      </trkpt>
      <trkpt lat="48.01056" lon="6.81046">
        <ele>961.643738</ele>
        <time>2019-08-16T13:35:25Z</time>
      </trkpt>
      <trkpt lat="48.01054" lon="6.81046">
        <ele>961.738037</ele>
        <time>2019-08-16T13:35:26Z</time>
      </trkpt>
      <trkpt lat="48.01052" lon="6.81045">
        <ele>961.878357</ele>
        <time>2019-08-16T13:35:27Z</time>
      </trkpt>
      <trkpt lat="48.0105" lon="6.81044">
        <ele>961.980164</ele>
        <time>2019-08-16T13:35:28Z</time>
      </trkpt>
      <trkpt lat="48.01048" lon="6.81043">
        <ele>962.090576</ele>
        <time>2019-08-16T13:35:29Z</time>
      </trkpt>
      <trkpt lat="48.01046" lon="6.81042">
        <ele>962.275085</ele>
        <time>2019-08-16T13:35:30Z</time>
      </trkpt>
      <trkpt lat="48.01043" lon="6.81041">
        <ele>962.40918</ele>
        <time>2019-08-16T13:35:31Z</time>
      </trkpt>
      <trkpt lat="48.0104" lon="6.81041">
        <ele>962.543152</ele>
        <time>2019-08-16T13:35:32Z</time>
      </trkpt>
      <trkpt lat="48.01038" lon="6.81041">
        <ele>962.749084</ele>
        <time>2019-08-16T13:35:33Z</time>
      </trkpt>
      <trkpt lat="48.01036" lon="6.8104">
        <ele>962.89209</ele>
        <time>2019-08-16T13:35:34Z</time>
      </trkpt>
      <trkpt lat="48.01033" lon="6.8104">
        <ele>963.038818</ele>
        <time>2019-08-16T13:35:35Z</time>
      </trkpt>
      <trkpt lat="48.01032" lon="6.81039">
        <ele>963.252014</ele>
        <time>2019-08-16T13:35:36Z</time>
      </trkpt>
      <trkpt lat="48.01029" lon="6.81038">
        <ele>963.387695</ele>
        <time>2019-08-16T13:35:37Z</time>
      </trkpt>
      <trkpt lat="48.01027" lon="6.81037">
        <ele>963.517883</ele>
        <time>2019-08-16T13:35:38Z</time>
      </trkpt>
      <trkpt lat="48.01026" lon="6.81037">
        <ele>963.707703</ele>
        <time>2019-08-16T13:35:39Z</time>
      </trkpt>
      <trkpt lat="48.01024" lon="6.81037">
        <ele>963.824036</ele>
        <time>2019-08-16T13:35:40Z</time>
      </trkpt>
      <trkpt lat="48.01021" lon="6.81037">
        <ele>963.979065</ele>
        <time>2019-08-16T13:35:41Z</time>
      </trkpt>
      <trkpt lat="48.01019" lon="6.81037">
        <ele>964.07196</ele>
        <time>2019-08-16T13:35:42Z</time>
      </trkpt>
      <trkpt lat="48.01017" lon="6.81036">
        <ele>964.162659</ele>
        <time>2019-08-16T13:35:43Z</time>
      </trkpt>
      <trkpt lat="48.01014" lon="6.81036">
        <ele>964.308899</ele>
        <time>2019-08-16T13:35:44Z</time>
      </trkpt>
      <trkpt lat="48.01012" lon="6.81036">
        <ele>964.412415</ele>
        <time>2019-08-16T13:35:45Z</time>
      </trkpt>
      <trkpt lat="48.0101" lon="6.81036">
        <ele>964.520264</ele>
        <time>2019-08-16T13:35:46Z</time>
      </trkpt>
      <trkpt lat="48.01008" lon="6.81036">
        <ele>964.691467</ele>
        <time>2019-08-16T13:35:47Z</time>
      </trkpt>
      <trkpt lat="48.01006" lon="6.81036">
        <ele>964.812744</ele>
        <time>2019-08-16T13:35:48Z</time>
      </trkpt>
      <trkpt lat="48.01004" lon="6.81036">
        <ele>964.936584</ele>
        <time>2019-08-16T13:35:49Z</time>
      </trkpt>
      <trkpt lat="48.01002" lon="6.81036">
        <ele>965.125671</ele>
        <time>2019-08-16T13:35:50Z</time>
      </trkpt>
      <trkpt lat="48.01" lon="6.81036">
        <ele>965.24707</ele>
        <time>2019-08-16T13:35:51Z</time>
      </trkpt>
      <trkpt lat="48.00998" lon="6.81036">
        <ele>965.36377</ele>
        <time>2019-08-16T13:35:52Z</time>
      </trkpt>
      <trkpt lat="48.00996" lon="6.81036">
        <ele>965.535645</ele>
        <time>2019-08-16T13:35:53Z</time>
      </trkpt>
      <trkpt lat="48.00993" lon="6.81036">
        <ele>965.644348</ele>
        <time>2019-08-16T13:35:54Z</time>
      </trkpt>
      <trkpt lat="48.00991" lon="6.81037">
        <ele>965.747253</ele>
        <time>2019-08-16T13:35:55Z</time>
      </trkpt>
      <trkpt lat="48.00989" lon="6.81037">
        <ele>965.883789</ele>
        <time>2019-08-16T13:35:56Z</time>
      </trkpt>
      <trkpt lat="48.00987" lon="6.81037">
        <ele>965.965576</ele>
        <time>2019-08-16T13:35:57Z</time>
      </trkpt>
      <trkpt lat="48.00985" lon="6.81036">
        <ele>966.042664</ele>
        <time>2019-08-16T13:35:58Z</time>
      </trkpt>
      <trkpt lat="48.00982" lon="6.81036">
        <ele>966.152893</ele>
        <time>2019-08-16T13:35:59Z</time>
      </trkpt>
      <trkpt lat="48.0098" lon="6.81036">
        <ele>966.23291</ele>
        <time>2019-08-16T13:36:00Z</time>
      </trkpt>
      <trkpt lat="48.00977" lon="6.81036">
        <ele>966.324951</ele>
        <time>2019-08-16T13:36:01Z</time>
      </trkpt>
      <trkpt lat="48.00975" lon="6.81036">
        <ele>966.476746</ele>
        <time>2019-08-16T13:36:02Z</time>
      </trkpt>
      <trkpt lat="48.00974" lon="6.81035">
        <ele>966.583252</ele>
        <time>2019-08-16T13:36:03Z</time>
      </trkpt>
      <trkpt lat="48.00973" lon="6.81034">
        <ele>966.697205</ele>
        <time>2019-08-16T13:36:04Z</time>
      </trkpt>
      <trkpt lat="48.00971" lon="6.81034">
        <ele>966.877014</ele>
        <time>2019-08-16T13:36:05Z</time>
      </trkpt>
      <trkpt lat="48.00969" lon="6.81033">
        <ele>966.99408</ele>
        <time>2019-08-16T13:36:06Z</time>
      </trkpt>
      <trkpt lat="48.00967" lon="6.81032">
        <ele>967.050049</ele>
        <time>2019-08-16T13:36:07Z</time>
      </trkpt>
      <trkpt lat="48.00964" lon="6.81031">
        <ele>967.103333</ele>
        <time>2019-08-16T13:36:08Z</time>
      </trkpt>
      <trkpt lat="48.00962" lon="6.8103">
        <ele>967.251221</ele>
        <time>2019-08-16T13:36:09Z</time>
      </trkpt>
      <trkpt lat="48.00961" lon="6.81029">
        <ele>967.346191</ele>
        <time>2019-08-16T13:36:10Z</time>
      </trkpt>
      <trkpt lat="48.00959" lon="6.81027">
        <ele>967.439514</ele>
        <time>2019-08-16T13:36:11Z</time>
      </trkpt>
      <trkpt lat="48.00957" lon="6.81026">
        <ele>967.571289</ele>
        <time>2019-08-16T13:36:12Z</time>
      </trkpt>
      <trkpt lat="48.00955" lon="6.81024">
        <ele>967.663818</ele>
        <time>2019-08-16T13:36:13Z</time>
      </trkpt>
      <trkpt lat="48.00953" lon="6.81023">
        <ele>967.772888</ele>
        <time>2019-08-16T13:36:14Z</time>
      </trkpt>
      <trkpt lat="48.0095" lon="6.81022">
        <ele>967.960449</ele>
        <time>2019-08-16T13:36:15Z</time>
      </trkpt>
      <trkpt lat="48.00948" lon="6.81021">
        <ele>968.08844</ele>
        <time>2019-08-16T13:36:16Z</time>
      </trkpt>
      <trkpt lat="48.00946" lon="6.81019">
        <ele>968.212952</ele>
        <time>2019-08-16T13:36:17Z</time>
      </trkpt>
      <trkpt lat="48.00943" lon="6.81018">
        <ele>968.387146</ele>
        <time>2019-08-16T13:36:18Z</time>
      </trkpt>
      <trkpt lat="48.00941" lon="6.81016">
        <ele>968.495911</ele>
        <time>2019-08-16T13:36:19Z</time>
      </trkpt>
      <trkpt lat="48.00938" lon="6.81015">
        <ele>968.596619</ele>
        <time>2019-08-16T13:36:20Z</time>
      </trkpt>
      <trkpt lat="48.00936" lon="6.81014">
        <ele>968.724304</ele>
        <time>2019-08-16T13:36:21Z</time>
      </trkpt>
      <trkpt lat="48.00934" lon="6.81013">
        <ele>968.792297</ele>
        <time>2019-08-16T13:36:22Z</time>
      </trkpt>
      <trkpt lat="48.00932" lon="6.81011">
        <ele>968.85675</ele>
        <time>2019-08-16T13:36:23Z</time>
      </trkpt>
      <trkpt lat="48.00929" lon="6.8101">
        <ele>968.953064</ele>
        <time>2019-08-16T13:36:24Z</time>
      </trkpt>
      <trkpt lat="48.00927" lon="6.81009">
        <ele>969.016663</ele>
        <time>2019-08-16T13:36:25Z</time>
      </trkpt>
      <trkpt lat="48.00925" lon="6.81007">
        <ele>969.074402</ele>
        <time>2019-08-16T13:36:26Z</time>
      </trkpt>
      <trkpt lat="48.00922" lon="6.81007">
        <ele>969.156433</ele>
        <time>2019-08-16T13:36:27Z</time>
      </trkpt>
      <trkpt lat="48.0092" lon="6.81006">
        <ele>969.212891</ele>
        <time>2019-08-16T13:36:28Z</time>
      </trkpt>
      <trkpt lat="48.00917" lon="6.81006">
        <ele>969.276062</ele>
        <time>2019-08-16T13:36:29Z</time>
      </trkpt>
      <trkpt lat="48.00913" lon="6.81005">
        <ele>969.419189</ele>
        <time>2019-08-16T13:36:31Z</time>
      </trkpt>
      <trkpt lat="48.00909" lon="6.81005">
        <ele>969.467346</ele>
        <time>2019-08-16T13:36:32Z</time>
      </trkpt>
      <trkpt lat="48.00907" lon="6.81005">
        <ele>969.545715</ele>
        <time>2019-08-16T13:36:33Z</time>
      </trkpt>
      <trkpt lat="48.00904" lon="6.81005">
        <ele>969.603699</ele>
        <time>2019-08-16T13:36:34Z</time>
      </trkpt>
      <trkpt lat="48.00902" lon="6.81005">
        <ele>969.687012</ele>
        <time>2019-08-16T13:36:35Z</time>
      </trkpt>
      <trkpt lat="48.009" lon="6.81006">
        <ele>969.742004</ele>
        <time>2019-08-16T13:36:36Z</time>
      </trkpt>
      <trkpt lat="48.00897" lon="6.81007">
        <ele>969.802734</ele>
        <time>2019-08-16T13:36:37Z</time>
      </trkpt>
      <trkpt lat="48.00895" lon="6.81008">
        <ele>969.914307</ele>
        <time>2019-08-16T13:36:38Z</time>
      </trkpt>
      <trkpt lat="48.00893" lon="6.81009">
        <ele>969.994568</ele>
        <time>2019-08-16T13:36:39Z</time>
      </trkpt>
      <trkpt lat="48.00892" lon="6.8101">
        <ele>970.075439</ele>
        <time>2019-08-16T13:36:40Z</time>
      </trkpt>
      <trkpt lat="48.00889" lon="6.81011">
        <ele>970.197754</ele>
        <time>2019-08-16T13:36:41Z</time>
      </trkpt>
      <trkpt lat="48.00887" lon="6.81012">
        <ele>970.276367</ele>
        <time>2019-08-16T13:36:42Z</time>
      </trkpt>
      <trkpt lat="48.00884" lon="6.81014">
        <ele>970.348328</ele>
        <time>2019-08-16T13:36:43Z</time>
      </trkpt>
      <trkpt lat="48.00881" lon="6.81015">
        <ele>970.458008</ele>
        <time>2019-08-16T13:36:44Z</time>
      </trkpt>
      <trkpt lat="48.00879" lon="6.81017">
        <ele>970.536926</ele>
        <time>2019-08-16T13:36:45Z</time>
      </trkpt>
      <trkpt lat="48.00876" lon="6.81019">
        <ele>970.61676</ele>
        <time>2019-08-16T13:36:46Z</time>
      </trkpt>
      <trkpt lat="48.00874" lon="6.81021">
        <ele>970.725159</ele>
        <time>2019-08-16T13:36:47Z</time>
      </trkpt>
      <trkpt lat="48.00872" lon="6.81023">
        <ele>970.794495</ele>
        <time>2019-08-16T13:36:48Z</time>
      </trkpt>
      <trkpt lat="48.00869" lon="6.81026">
        <ele>970.904724</ele>
        <time>2019-08-16T13:36:49Z</time>
      </trkpt>
      <trkpt lat="48.00867" lon="6.81029">
        <ele>970.979309</ele>
        <time>2019-08-16T13:36:50Z</time>
      </trkpt>
      <trkpt lat="48.00865" lon="6.81031">
        <ele>971.046875</ele>
        <time>2019-08-16T13:36:51Z</time>
      </trkpt>
      <trkpt lat="48.00863" lon="6.81033">
        <ele>971.108582</ele>
        <time>2019-08-16T13:36:52Z</time>
      </trkpt>
      <trkpt lat="48.00861" lon="6.81037">
        <ele>971.201477</ele>
        <time>2019-08-16T13:36:53Z</time>
      </trkpt>
      <trkpt lat="48.00859" lon="6.8104">
        <ele>971.270996</ele>
        <time>2019-08-16T13:36:54Z</time>
      </trkpt>
      <trkpt lat="48.00857" lon="6.81044">
        <ele>971.344788</ele>
        <time>2019-08-16T13:36:55Z</time>
      </trkpt>
      <trkpt lat="48.00856" lon="6.81047">
        <ele>971.424866</ele>
        <time>2019-08-16T13:36:56Z</time>
      </trkpt>
      <trkpt lat="48.00854" lon="6.8105">
        <ele>971.507996</ele>
        <time>2019-08-16T13:36:57Z</time>
      </trkpt>
      <trkpt lat="48.00853" lon="6.81054">
        <ele>971.638184</ele>
        <time>2019-08-16T13:36:58Z</time>
      </trkpt>
      <trkpt lat="48.00851" lon="6.81058">
        <ele>971.728455</ele>
        <time>2019-08-16T13:36:59Z</time>
      </trkpt>
      <trkpt lat="48.0085" lon="6.81062">
        <ele>971.825745</ele>
        <time>2019-08-16T13:37:00Z</time>
      </trkpt>
      <trkpt lat="48.00848" lon="6.81066">
        <ele>971.92749</ele>
        <time>2019-08-16T13:37:01Z</time>
      </trkpt>
      <trkpt lat="48.00847" lon="6.81071">
        <ele>972.029053</ele>
        <time>2019-08-16T13:37:02Z</time>
      </trkpt>
      <trkpt lat="48.00847" lon="6.81075">
        <ele>972.168701</ele>
        <time>2019-08-16T13:37:03Z</time>
      </trkpt>
      <trkpt lat="48.00847" lon="6.8108">
        <ele>972.257141</ele>
        <time>2019-08-16T13:37:04Z</time>
      </trkpt>
      <trkpt lat="48.00845" lon="6.81085">
        <ele>972.339172</ele>
        <time>2019-08-16T13:37:05Z</time>
      </trkpt>
      <trkpt lat="48.00844" lon="6.8109">
        <ele>972.410339</ele>
        <time>2019-08-16T13:37:06Z</time>
      </trkpt>
      <trkpt lat="48.00844" lon="6.81095">
        <ele>972.4646</ele>
        <time>2019-08-16T13:37:07Z</time>
      </trkpt>
      <trkpt lat="48.00843" lon="6.81099">
        <ele>972.483887</ele>
        <time>2019-08-16T13:37:08Z</time>
      </trkpt>
      <trkpt lat="48.00842" lon="6.81103">
        <ele>972.513672</ele>
        <time>2019-08-16T13:37:09Z</time>
      </trkpt>
      <trkpt lat="48.00841" lon="6.81107">
        <ele>972.533875</ele>
        <time>2019-08-16T13:37:10Z</time>
      </trkpt>
      <trkpt lat="48.00841" lon="6.81111">
        <ele>972.539856</ele>
        <time>2019-08-16T13:37:11Z</time>
      </trkpt>
      <trkpt lat="48.0084" lon="6.81116">
        <ele>972.539856</ele>
        <time>2019-08-16T13:37:12Z</time>
      </trkpt>
      <trkpt lat="48.00839" lon="6.81121">
        <ele>972.523743</ele>
        <time>2019-08-16T13:37:13Z</time>
      </trkpt>
      <trkpt lat="48.00838" lon="6.81126">
        <ele>972.500977</ele>
        <time>2019-08-16T13:37:14Z</time>
      </trkpt>
      <trkpt lat="48.00837" lon="6.81131">
        <ele>972.47998</ele>
        <time>2019-08-16T13:37:15Z</time>
      </trkpt>
      <trkpt lat="48.00836" lon="6.81136">
        <ele>972.456299</ele>
        <time>2019-08-16T13:37:16Z</time>
      </trkpt>
      <trkpt lat="48.00835" lon="6.8114">
        <ele>972.427979</ele>
        <time>2019-08-16T13:37:17Z</time>
      </trkpt>
      <trkpt lat="48.00834" lon="6.81145">
        <ele>972.395752</ele>
        <time>2019-08-16T13:37:18Z</time>
      </trkpt>
      <trkpt lat="48.00833" lon="6.81149">
        <ele>972.364441</ele>
        <time>2019-08-16T13:37:19Z</time>
      </trkpt>
      <trkpt lat="48.00832" lon="6.81154">
        <ele>972.343323</ele>
        <time>2019-08-16T13:37:20Z</time>
      </trkpt>
      <trkpt lat="48.00831" lon="6.81159">
        <ele>972.332581</ele>
        <time>2019-08-16T13:37:21Z</time>
      </trkpt>
      <trkpt lat="48.00831" lon="6.81163">
        <ele>972.332581</ele>
        <time>2019-08-16T13:37:22Z</time>
      </trkpt>
      <trkpt lat="48.00829" lon="6.81168">
        <ele>972.345764</ele>
        <time>2019-08-16T13:37:23Z</time>
      </trkpt>
      <trkpt lat="48.00828" lon="6.81173">
        <ele>972.379089</ele>
        <time>2019-08-16T13:37:24Z</time>
      </trkpt>
      <trkpt lat="48.00827" lon="6.81178">
        <ele>972.428955</ele>
        <time>2019-08-16T13:37:25Z</time>
      </trkpt>
      <trkpt lat="48.00826" lon="6.81183">
        <ele>972.47345</ele>
        <time>2019-08-16T13:37:26Z</time>
      </trkpt>
      <trkpt lat="48.00824" lon="6.81188">
        <ele>972.506165</ele>
        <time>2019-08-16T13:37:27Z</time>
      </trkpt>
      <trkpt lat="48.00824" lon="6.81192">
        <ele>972.54071</ele>
        <time>2019-08-16T13:37:28Z</time>
      </trkpt>
      <trkpt lat="48.00823" lon="6.81197">
        <ele>972.580322</ele>
        <time>2019-08-16T13:37:29Z</time>
      </trkpt>
      <trkpt lat="48.00822" lon="6.81202">
        <ele>972.623718</ele>
        <time>2019-08-16T13:37:30Z</time>
      </trkpt>
      <trkpt lat="48.00821" lon="6.81206">
        <ele>972.652649</ele>
        <time>2019-08-16T13:37:31Z</time>
      </trkpt>
      <trkpt lat="48.00821" lon="6.81211">
        <ele>972.672913</ele>
        <time>2019-08-16T13:37:32Z</time>
      </trkpt>
      <trkpt lat="48.0082" lon="6.81215">
        <ele>972.68988</ele>
        <time>2019-08-16T13:37:33Z</time>
      </trkpt>
      <trkpt lat="48.00819" lon="6.81219">
        <ele>972.705627</ele>
        <time>2019-08-16T13:37:34Z</time>
      </trkpt>
      <trkpt lat="48.00818" lon="6.81223">
        <ele>972.706726</ele>
        <time>2019-08-16T13:37:35Z</time>
      </trkpt>
      <trkpt lat="48.00817" lon="6.81227">
        <ele>972.700745</ele>
        <time>2019-08-16T13:37:36Z</time>
      </trkpt>
      <trkpt lat="48.00816" lon="6.81231">
        <ele>972.674011</ele>
        <time>2019-08-16T13:37:37Z</time>
      </trkpt>
      <trkpt lat="48.00815" lon="6.81235">
        <ele>972.630127</ele>
        <time>2019-08-16T13:37:38Z</time>
      </trkpt>
      <trkpt lat="48.00816" lon="6.81238">
        <ele>972.575684</ele>
        <time>2019-08-16T13:37:39Z</time>
      </trkpt>
      <trkpt lat="48.00817" lon="6.8124">
        <ele>972.504333</ele>
        <time>2019-08-16T13:37:40Z</time>
      </trkpt>
      <trkpt lat="48.00819" lon="6.81241">
        <ele>972.380371</ele>
        <time>2019-08-16T13:37:41Z</time>
      </trkpt>
      <trkpt lat="48.0082" lon="6.81242">
        <ele>972.311829</ele>
        <time>2019-08-16T13:37:42Z</time>
      </trkpt>
      <trkpt lat="48.00822" lon="6.81243">
        <ele>972.269958</ele>
        <time>2019-08-16T13:37:43Z</time>
      </trkpt>
      <trkpt lat="48.00823" lon="6.81245">
        <ele>972.251648</ele>
        <time>2019-08-16T13:37:44Z</time>
      </trkpt>
      <trkpt lat="48.00825" lon="6.81248">
        <ele>972.253601</ele>
        <time>2019-08-16T13:37:45Z</time>
      </trkpt>
      <trkpt lat="48.00827" lon="6.8125">
        <ele>972.276917</ele>
        <time>2019-08-16T13:37:46Z</time>
      </trkpt>
      <trkpt lat="48.00828" lon="6.81253">
        <ele>972.366394</ele>
        <time>2019-08-16T13:37:47Z</time>
      </trkpt>
      <trkpt lat="48.00829" lon="6.81256">
        <ele>972.463379</ele>
        <time>2019-08-16T13:37:48Z</time>
      </trkpt>
      <trkpt lat="48.0083" lon="6.8126">
        <ele>972.583984</ele>
        <time>2019-08-16T13:37:49Z</time>
      </trkpt>
      <trkpt lat="48.00831" lon="6.81263">
        <ele>972.716736</ele>
        <time>2019-08-16T13:37:50Z</time>
      </trkpt>
      <trkpt lat="48.00831" lon="6.81266">
        <ele>972.857849</ele>
        <time>2019-08-16T13:37:51Z</time>
      </trkpt>
      <trkpt lat="48.00832" lon="6.81268">
        <ele>973.007751</ele>
        <time>2019-08-16T13:37:52Z</time>
      </trkpt>
      <trkpt lat="48.00833" lon="6.81271">
        <ele>973.163086</ele>
        <time>2019-08-16T13:37:53Z</time>
      </trkpt>
      <trkpt lat="48.00834" lon="6.81273">
        <ele>973.319031</ele>
        <time>2019-08-16T13:37:54Z</time>
      </trkpt>
      <trkpt lat="48.00834" lon="6.81276">
        <ele>973.543152</ele>
        <time>2019-08-16T13:37:55Z</time>
      </trkpt>
      <trkpt lat="48.00835" lon="6.8128">
        <ele>973.670471</ele>
        <time>2019-08-16T13:37:56Z</time>
      </trkpt>
      <trkpt lat="48.00837" lon="6.81284">
        <ele>973.777893</ele>
        <time>2019-08-16T13:37:57Z</time>
      </trkpt>
      <trkpt lat="48.00837" lon="6.81287">
        <ele>973.871155</ele>
        <time>2019-08-16T13:37:58Z</time>
      </trkpt>
      <trkpt lat="48.00838" lon="6.81291">
        <ele>973.960205</ele>
        <time>2019-08-16T13:37:59Z</time>
      </trkpt>
      <trkpt lat="48.00839" lon="6.81294">
        <ele>974.046082</ele>
        <time>2019-08-16T13:38:00Z</time>
      </trkpt>
      <trkpt lat="48.0084" lon="6.81296">
        <ele>974.133301</ele>
        <time>2019-08-16T13:38:01Z</time>
      </trkpt>
      <trkpt lat="48.0084" lon="6.81299">
        <ele>974.221252</ele>
        <time>2019-08-16T13:38:02Z</time>
      </trkpt>
      <trkpt lat="48.00841" lon="6.81302">
        <ele>974.308533</ele>
        <time>2019-08-16T13:38:03Z</time>
      </trkpt>
      <trkpt lat="48.00842" lon="6.81305">
        <ele>974.395203</ele>
        <time>2019-08-16T13:38:04Z</time>
      </trkpt>
      <trkpt lat="48.00842" lon="6.81307">
        <ele>974.485107</ele>
        <time>2019-08-16T13:38:05Z</time>
      </trkpt>
      <trkpt lat="48.00843" lon="6.8131">
        <ele>974.575439</ele>
        <time>2019-08-16T13:38:06Z</time>
      </trkpt>
      <trkpt lat="48.00844" lon="6.81313">
        <ele>974.710449</ele>
        <time>2019-08-16T13:38:07Z</time>
      </trkpt>
      <trkpt lat="48.00845" lon="6.81316">
        <ele>974.753601</ele>
        <time>2019-08-16T13:38:08Z</time>
      </trkpt>
      <trkpt lat="48.00845" lon="6.81319">
        <ele>974.797302</ele>
        <time>2019-08-16T13:38:09Z</time>
      </trkpt>
      <trkpt lat="48.00846" lon="6.81322">
        <ele>974.883789</ele>
        <time>2019-08-16T13:38:10Z</time>
      </trkpt>
      <trkpt lat="48.00846" lon="6.81326">
        <ele>974.970032</ele>
        <time>2019-08-16T13:38:11Z</time>
      </trkpt>
      <trkpt lat="48.00847" lon="6.8133">
        <ele>975.061035</ele>
        <time>2019-08-16T13:38:12Z</time>
      </trkpt>
      <trkpt lat="48.00848" lon="6.81334">
        <ele>975.15741</ele>
        <time>2019-08-16T13:38:13Z</time>
      </trkpt>
      <trkpt lat="48.00848" lon="6.81337">
        <ele>975.256897</ele>
        <time>2019-08-16T13:38:14Z</time>
      </trkpt>
      <trkpt lat="48.00848" lon="6.8134">
        <ele>975.355469</ele>
        <time>2019-08-16T13:38:15Z</time>
      </trkpt>
      <trkpt lat="48.00848" lon="6.81344">
        <ele>975.447571</ele>
        <time>2019-08-16T13:38:16Z</time>
      </trkpt>
      <trkpt lat="48.00847" lon="6.81347">
        <ele>975.535095</ele>
        <time>2019-08-16T13:38:17Z</time>
      </trkpt>
      <trkpt lat="48.00847" lon="6.81351">
        <ele>975.620605</ele>
        <time>2019-08-16T13:38:18Z</time>
      </trkpt>
      <trkpt lat="48.00847" lon="6.81354">
        <ele>975.710144</ele>
        <time>2019-08-16T13:38:19Z</time>
      </trkpt>
      <trkpt lat="48.00846" lon="6.81358">
        <ele>975.802795</ele>
        <time>2019-08-16T13:38:20Z</time>
      </trkpt>
      <trkpt lat="48.00845" lon="6.81361">
        <ele>975.89447</ele>
        <time>2019-08-16T13:38:21Z</time>
      </trkpt>
      <trkpt lat="48.00845" lon="6.81365">
        <ele>975.98114</ele>
        <time>2019-08-16T13:38:22Z</time>
      </trkpt>
      <trkpt lat="48.00844" lon="6.81368">
        <ele>976.059265</ele>
        <time>2019-08-16T13:38:23Z</time>
      </trkpt>
      <trkpt lat="48.00843" lon="6.81372">
        <ele>976.129883</ele>
        <time>2019-08-16T13:38:24Z</time>
      </trkpt>
      <trkpt lat="48.00842" lon="6.81376">
        <ele>976.194824</ele>
        <time>2019-08-16T13:38:25Z</time>
      </trkpt>
      <trkpt lat="48.00841" lon="6.81381">
        <ele>976.288574</ele>
        <time>2019-08-16T13:38:26Z</time>
      </trkpt>
      <trkpt lat="48.0084" lon="6.81385">
        <ele>976.342285</ele>
        <time>2019-08-16T13:38:27Z</time>
      </trkpt>
      <trkpt lat="48.0084" lon="6.8139">
        <ele>976.386047</ele>
        <time>2019-08-16T13:38:28Z</time>
      </trkpt>
      <trkpt lat="48.00839" lon="6.81394">
        <ele>976.422546</ele>
        <time>2019-08-16T13:38:29Z</time>
      </trkpt>
      <trkpt lat="48.00838" lon="6.81399">
        <ele>976.457703</ele>
        <time>2019-08-16T13:38:30Z</time>
      </trkpt>
      <trkpt lat="48.00837" lon="6.81403">
        <ele>976.493958</ele>
        <time>2019-08-16T13:38:31Z</time>
      </trkpt>
      <trkpt lat="48.00837" lon="6.81408">
        <ele>976.525879</ele>
        <time>2019-08-16T13:38:32Z</time>
      </trkpt>
      <trkpt lat="48.00837" lon="6.81412">
        <ele>976.551453</ele>
        <time>2019-08-16T13:38:33Z</time>
      </trkpt>
      <trkpt lat="48.00837" lon="6.81416">
        <ele>976.570862</ele>
        <time>2019-08-16T13:38:34Z</time>
      </trkpt>
      <trkpt lat="48.00837" lon="6.81421">
        <ele>976.587402</ele>
        <time>2019-08-16T13:38:35Z</time>
      </trkpt>
      <trkpt lat="48.00837" lon="6.81425">
        <ele>976.605957</ele>
        <time>2019-08-16T13:38:36Z</time>
      </trkpt>
      <trkpt lat="48.00837" lon="6.8143">
        <ele>976.623718</ele>
        <time>2019-08-16T13:38:37Z</time>
      </trkpt>
      <trkpt lat="48.00836" lon="6.81434">
        <ele>976.639832</ele>
        <time>2019-08-16T13:38:38Z</time>
      </trkpt>
      <trkpt lat="48.00836" lon="6.81438">
        <ele>976.661072</ele>
        <time>2019-08-16T13:38:39Z</time>
      </trkpt>
      <trkpt lat="48.00835" lon="6.81442">
        <ele>976.695251</ele>
        <time>2019-08-16T13:38:40Z</time>
      </trkpt>
      <trkpt lat="48.00836" lon="6.81447">
        <ele>976.739441</ele>
        <time>2019-08-16T13:38:41Z</time>
      </trkpt>
      <trkpt lat="48.00836" lon="6.81452">
        <ele>976.801453</ele>
        <time>2019-08-16T13:38:42Z</time>
      </trkpt>
      <trkpt lat="48.00836" lon="6.81456">
        <ele>976.839172</ele>
        <time>2019-08-16T13:38:43Z</time>
      </trkpt>
      <trkpt lat="48.00837" lon="6.8146">
        <ele>976.887207</ele>
        <time>2019-08-16T13:38:44Z</time>
      </trkpt>
      <trkpt lat="48.00837" lon="6.81463">
        <ele>976.94458</ele>
        <time>2019-08-16T13:38:45Z</time>
      </trkpt>
      <trkpt lat="48.00837" lon="6.81466">
        <ele>977.028809</ele>
        <time>2019-08-16T13:38:46Z</time>
      </trkpt>
      <trkpt lat="48.00837" lon="6.81468">
        <ele>977.077698</ele>
        <time>2019-08-16T13:38:47Z</time>
      </trkpt>
      <trkpt lat="48.00837" lon="6.81471">
        <ele>977.138916</ele>
        <time>2019-08-16T13:38:48Z</time>
      </trkpt>
      <trkpt lat="48.00837" lon="6.81474">
        <ele>977.224854</ele>
        <time>2019-08-16T13:38:49Z</time>
      </trkpt>
      <trkpt lat="48.00837" lon="6.81477">
        <ele>977.406067</ele>
        <time>2019-08-16T13:38:50Z</time>
      </trkpt>
      <trkpt lat="48.00837" lon="6.81479">
        <ele>977.549622</ele>
        <time>2019-08-16T13:38:51Z</time>
      </trkpt>
      <trkpt lat="48.00837" lon="6.81482">
        <ele>977.707214</ele>
        <time>2019-08-16T13:38:52Z</time>
      </trkpt>
      <trkpt lat="48.00836" lon="6.81485">
        <ele>977.877625</ele>
        <time>2019-08-16T13:38:53Z</time>
      </trkpt>
      <trkpt lat="48.00836" lon="6.81487">
        <ele>978.061096</ele>
        <time>2019-08-16T13:38:54Z</time>
      </trkpt>
      <trkpt lat="48.00835" lon="6.8149">
        <ele>978.248352</ele>
        <time>2019-08-16T13:38:55Z</time>
      </trkpt>
      <trkpt lat="48.00835" lon="6.81492">
        <ele>978.433777</ele>
        <time>2019-08-16T13:38:56Z</time>
      </trkpt>
      <trkpt lat="48.00835" lon="6.81494">
        <ele>978.619812</ele>
        <time>2019-08-16T13:38:57Z</time>
      </trkpt>
      <trkpt lat="48.00834" lon="6.81497">
        <ele>978.811584</ele>
        <time>2019-08-16T13:38:58Z</time>
      </trkpt>
      <trkpt lat="48.00834" lon="6.81499">
        <ele>979.009216</ele>
        <time>2019-08-16T13:38:59Z</time>
      </trkpt>
      <trkpt lat="48.00834" lon="6.81501">
        <ele>979.204041</ele>
        <time>2019-08-16T13:39:00Z</time>
      </trkpt>
      <trkpt lat="48.00834" lon="6.81504">
        <ele>979.392822</ele>
        <time>2019-08-16T13:39:01Z</time>
      </trkpt>
      <trkpt lat="48.00834" lon="6.81505">
        <ele>979.574036</ele>
        <time>2019-08-16T13:39:02Z</time>
      </trkpt>
      <trkpt lat="48.00834" lon="6.81507">
        <ele>979.757874</ele>
        <time>2019-08-16T13:39:03Z</time>
      </trkpt>
      <trkpt lat="48.00834" lon="6.81509">
        <ele>979.950012</ele>
        <time>2019-08-16T13:39:04Z</time>
      </trkpt>
      <trkpt lat="48.00834" lon="6.81511">
        <ele>980.150574</ele>
        <time>2019-08-16T13:39:05Z</time>
      </trkpt>
      <trkpt lat="48.00833" lon="6.81513">
        <ele>980.356689</ele>
        <time>2019-08-16T13:39:06Z</time>
      </trkpt>
      <trkpt lat="48.00832" lon="6.81515">
        <ele>980.565857</ele>
        <time>2019-08-16T13:39:07Z</time>
      </trkpt>
      <trkpt lat="48.00831" lon="6.81517">
        <ele>980.891296</ele>
        <time>2019-08-16T13:39:08Z</time>
      </trkpt>
      <trkpt lat="48.00831" lon="6.81519">
        <ele>981.002686</ele>
        <time>2019-08-16T13:39:09Z</time>
      </trkpt>
      <trkpt lat="48.00831" lon="6.81521">
        <ele>981.227783</ele>
        <time>2019-08-16T13:39:10Z</time>
      </trkpt>
      <trkpt lat="48.0083" lon="6.81522">
        <ele>981.44873</ele>
        <time>2019-08-16T13:39:11Z</time>
      </trkpt>
      <trkpt lat="48.00829" lon="6.81524">
        <ele>981.659241</ele>
        <time>2019-08-16T13:39:12Z</time>
      </trkpt>
      <trkpt lat="48.00829" lon="6.81526">
        <ele>981.965881</ele>
        <time>2019-08-16T13:39:13Z</time>
      </trkpt>
      <trkpt lat="48.00828" lon="6.81528">
        <ele>982.177979</ele>
        <time>2019-08-16T13:39:14Z</time>
      </trkpt>
      <trkpt lat="48.00827" lon="6.8153">
        <ele>982.399658</ele>
        <time>2019-08-16T13:39:15Z</time>
      </trkpt>
      <trkpt lat="48.00826" lon="6.81532">
        <ele>982.629211</ele>
        <time>2019-08-16T13:39:16Z</time>
      </trkpt>
      <trkpt lat="48.00824" lon="6.81534">
        <ele>982.871826</ele>
        <time>2019-08-16T13:39:17Z</time>
      </trkpt>
      <trkpt lat="48.00824" lon="6.81536">
        <ele>983.134094</ele>
        <time>2019-08-16T13:39:18Z</time>
      </trkpt>
      <trkpt lat="48.00822" lon="6.81538">
        <ele>983.558167</ele>
        <time>2019-08-16T13:39:19Z</time>
      </trkpt>
      <trkpt lat="48.00821" lon="6.8154">
        <ele>983.837463</ele>
        <time>2019-08-16T13:39:20Z</time>
      </trkpt>
      <trkpt lat="48.0082" lon="6.81542">
        <ele>984.226501</ele>
        <time>2019-08-16T13:39:21Z</time>
      </trkpt>
      <trkpt lat="48.00819" lon="6.81543">
        <ele>984.465332</ele>
        <time>2019-08-16T13:39:22Z</time>
      </trkpt>
      <trkpt lat="48.00817" lon="6.81545">
        <ele>984.683838</ele>
        <time>2019-08-16T13:39:23Z</time>
      </trkpt>
      <trkpt lat="48.00816" lon="6.81547">
        <ele>984.971863</ele>
        <time>2019-08-16T13:39:24Z</time>
      </trkpt>
      <trkpt lat="48.00815" lon="6.81549">
        <ele>985.143982</ele>
        <time>2019-08-16T13:39:25Z</time>
      </trkpt>
      <trkpt lat="48.00814" lon="6.81551">
        <ele>985.397644</ele>
        <time>2019-08-16T13:39:26Z</time>
      </trkpt>
      <trkpt lat="48.00813" lon="6.81552">
        <ele>985.577148</ele>
        <time>2019-08-16T13:39:27Z</time>
      </trkpt>
      <trkpt lat="48.00812" lon="6.81554">
        <ele>985.771973</ele>
        <time>2019-08-16T13:39:28Z</time>
      </trkpt>
      <trkpt lat="48.00811" lon="6.81556">
        <ele>985.980469</ele>
        <time>2019-08-16T13:39:29Z</time>
      </trkpt>
      <trkpt lat="48.0081" lon="6.81557">
        <ele>986.202148</ele>
        <time>2019-08-16T13:39:30Z</time>
      </trkpt>
      <trkpt lat="48.00809" lon="6.81559">
        <ele>986.433777</ele>
        <time>2019-08-16T13:39:31Z</time>
      </trkpt>
      <trkpt lat="48.00808" lon="6.8156">
        <ele>986.795227</ele>
        <time>2019-08-16T13:39:32Z</time>
      </trkpt>
      <trkpt lat="48.00806" lon="6.81561">
        <ele>987.040283</ele>
        <time>2019-08-16T13:39:33Z</time>
      </trkpt>
      <trkpt lat="48.00805" lon="6.81562">
        <ele>987.288025</ele>
        <time>2019-08-16T13:39:34Z</time>
      </trkpt>
      <trkpt lat="48.00805" lon="6.81564">
        <ele>987.664612</ele>
        <time>2019-08-16T13:39:35Z</time>
      </trkpt>
      <trkpt lat="48.00804" lon="6.81564">
        <ele>988.179199</ele>
        <time>2019-08-16T13:39:36Z</time>
      </trkpt>
      <trkpt lat="48.00803" lon="6.81565">
        <ele>988.554199</ele>
        <time>2019-08-16T13:39:38Z</time>
      </trkpt>
      <trkpt lat="48.00802" lon="6.81566">
        <ele>988.781494</ele>
        <time>2019-08-16T13:39:39Z</time>
      </trkpt>
      <trkpt lat="48.00801" lon="6.81567">
        <ele>988.986145</ele>
        <time>2019-08-16T13:39:40Z</time>
      </trkpt>
      <trkpt lat="48.008" lon="6.81568">
        <ele>989.252258</ele>
        <time>2019-08-16T13:39:41Z</time>
      </trkpt>
      <trkpt lat="48.00799" lon="6.81569">
        <ele>989.40625</ele>
        <time>2019-08-16T13:39:42Z</time>
      </trkpt>
      <trkpt lat="48.00797" lon="6.8157">
        <ele>989.542908</ele>
        <time>2019-08-16T13:39:43Z</time>
      </trkpt>
      <trkpt lat="48.00796" lon="6.81572">
        <ele>989.666687</ele>
        <time>2019-08-16T13:39:44Z</time>
      </trkpt>
      <trkpt lat="48.00795" lon="6.81573">
        <ele>989.85083</ele>
        <time>2019-08-16T13:39:45Z</time>
      </trkpt>
      <trkpt lat="48.00794" lon="6.81574">
        <ele>989.989929</ele>
        <time>2019-08-16T13:39:46Z</time>
      </trkpt>
      <trkpt lat="48.00793" lon="6.81574">
        <ele>990.387512</ele>
        <time>2019-08-16T13:39:47Z</time>
      </trkpt>
      <trkpt lat="48.00792" lon="6.81575">
        <ele>990.554138</ele>
        <time>2019-08-16T13:39:49Z</time>
      </trkpt>
      <trkpt lat="48.0079" lon="6.81576">
        <ele>990.968933</ele>
        <time>2019-08-16T13:39:50Z</time>
      </trkpt>
      <trkpt lat="48.00789" lon="6.81576">
        <ele>991.131897</ele>
        <time>2019-08-16T13:39:52Z</time>
      </trkpt>
      <trkpt lat="48.00787" lon="6.81576">
        <ele>991.357239</ele>
        <time>2019-08-16T13:39:53Z</time>
      </trkpt>
      <trkpt lat="48.00786" lon="6.81576">
        <ele>991.487122</ele>
        <time>2019-08-16T13:39:54Z</time>
      </trkpt>
      <trkpt lat="48.00784" lon="6.81576">
        <ele>991.601074</ele>
        <time>2019-08-16T13:39:55Z</time>
      </trkpt>
      <trkpt lat="48.00782" lon="6.81576">
        <ele>991.757874</ele>
        <time>2019-08-16T13:39:56Z</time>
      </trkpt>
      <trkpt lat="48.00781" lon="6.81576">
        <ele>991.852844</ele>
        <time>2019-08-16T13:39:57Z</time>
      </trkpt>
      <trkpt lat="48.00779" lon="6.81576">
        <ele>991.976746</ele>
        <time>2019-08-16T13:39:58Z</time>
      </trkpt>
      <trkpt lat="48.00778" lon="6.81576">
        <ele>992.047791</ele>
        <time>2019-08-16T13:39:59Z</time>
      </trkpt>
      <trkpt lat="48.00776" lon="6.81576">
        <ele>992.116882</ele>
        <time>2019-08-16T13:40:00Z</time>
      </trkpt>
      <trkpt lat="48.00774" lon="6.81576">
        <ele>992.227966</ele>
        <time>2019-08-16T13:40:01Z</time>
      </trkpt>
      <trkpt lat="48.00773" lon="6.81576">
        <ele>992.298889</ele>
        <time>2019-08-16T13:40:02Z</time>
      </trkpt>
      <trkpt lat="48.00771" lon="6.81576">
        <ele>992.361755</ele>
        <time>2019-08-16T13:40:03Z</time>
      </trkpt>
      <trkpt lat="48.0077" lon="6.81575">
        <ele>992.459412</ele>
        <time>2019-08-16T13:40:04Z</time>
      </trkpt>
      <trkpt lat="48.00769" lon="6.81576">
        <ele>992.634277</ele>
        <time>2019-08-16T13:40:05Z</time>
      </trkpt>
      <trkpt lat="48.00768" lon="6.81576">
        <ele>992.812012</ele>
        <time>2019-08-16T13:40:07Z</time>
      </trkpt>
      <trkpt lat="48.00766" lon="6.81576">
        <ele>992.950256</ele>
        <time>2019-08-16T13:40:08Z</time>
      </trkpt>
      <trkpt lat="48.00764" lon="6.81577">
        <ele>993.093201</ele>
        <time>2019-08-16T13:40:09Z</time>
      </trkpt>
      <trkpt lat="48.00763" lon="6.81578">
        <ele>993.164307</ele>
        <time>2019-08-16T13:40:10Z</time>
      </trkpt>
      <trkpt lat="48.00761" lon="6.81578">
        <ele>993.407532</ele>
        <time>2019-08-16T13:40:11Z</time>
      </trkpt>
      <trkpt lat="48.00759" lon="6.81578">
        <ele>993.497559</ele>
        <time>2019-08-16T13:40:13Z</time>
      </trkpt>
      <trkpt lat="48.00757" lon="6.81578">
        <ele>993.566589</ele>
        <time>2019-08-16T13:40:14Z</time>
      </trkpt>
      <trkpt lat="48.00754" lon="6.81579">
        <ele>993.648682</ele>
        <time>2019-08-16T13:40:15Z</time>
      </trkpt>
      <trkpt lat="48.00752" lon="6.81579">
        <ele>993.694031</ele>
        <time>2019-08-16T13:40:16Z</time>
      </trkpt>
      <trkpt lat="48.0075" lon="6.81579">
        <ele>993.735657</ele>
        <time>2019-08-16T13:40:17Z</time>
      </trkpt>
      <trkpt lat="48.00747" lon="6.81579">
        <ele>993.793457</ele>
        <time>2019-08-16T13:40:18Z</time>
      </trkpt>
      <trkpt lat="48.00745" lon="6.81579">
        <ele>993.841003</ele>
        <time>2019-08-16T13:40:19Z</time>
      </trkpt>
      <trkpt lat="48.00743" lon="6.81579">
        <ele>993.8974</ele>
        <time>2019-08-16T13:40:20Z</time>
      </trkpt>
      <trkpt lat="48.0074" lon="6.81579">
        <ele>993.992615</ele>
        <time>2019-08-16T13:40:21Z</time>
      </trkpt>
      <trkpt lat="48.00739" lon="6.81579">
        <ele>994.053772</ele>
        <time>2019-08-16T13:40:22Z</time>
      </trkpt>
      <trkpt lat="48.00737" lon="6.81579">
        <ele>994.120117</ele>
        <time>2019-08-16T13:40:23Z</time>
      </trkpt>
      <trkpt lat="48.00734" lon="6.81579">
        <ele>994.24115</ele>
        <time>2019-08-16T13:40:24Z</time>
      </trkpt>
      <trkpt lat="48.00732" lon="6.81579">
        <ele>994.331116</ele>
        <time>2019-08-16T13:40:25Z</time>
      </trkpt>
      <trkpt lat="48.0073" lon="6.81578">
        <ele>994.414612</ele>
        <time>2019-08-16T13:40:26Z</time>
      </trkpt>
      <trkpt lat="48.00727" lon="6.81578">
        <ele>994.521912</ele>
        <time>2019-08-16T13:40:27Z</time>
      </trkpt>
      <trkpt lat="48.00725" lon="6.81578">
        <ele>994.583801</ele>
        <time>2019-08-16T13:40:28Z</time>
      </trkpt>
      <trkpt lat="48.00723" lon="6.81577">
        <ele>994.640381</ele>
        <time>2019-08-16T13:40:29Z</time>
      </trkpt>
      <trkpt lat="48.00721" lon="6.81577">
        <ele>994.717468</ele>
        <time>2019-08-16T13:40:30Z</time>
      </trkpt>
      <trkpt lat="48.00719" lon="6.81577">
        <ele>994.767395</ele>
        <time>2019-08-16T13:40:31Z</time>
      </trkpt>
      <trkpt lat="48.00717" lon="6.81576">
        <ele>994.819519</ele>
        <time>2019-08-16T13:40:32Z</time>
      </trkpt>
      <trkpt lat="48.00716" lon="6.81576">
        <ele>994.922424</ele>
        <time>2019-08-16T13:40:33Z</time>
      </trkpt>
      <trkpt lat="48.00715" lon="6.81575">
        <ele>995.006348</ele>
        <time>2019-08-16T13:40:34Z</time>
      </trkpt>
      <trkpt lat="48.00714" lon="6.81575">
        <ele>995.093079</ele>
        <time>2019-08-16T13:40:35Z</time>
      </trkpt>
      <trkpt lat="48.00713" lon="6.81574">
        <ele>995.208252</ele>
        <time>2019-08-16T13:40:36Z</time>
      </trkpt>
      <trkpt lat="48.00711" lon="6.81573">
        <ele>995.280029</ele>
        <time>2019-08-16T13:40:37Z</time>
      </trkpt>
      <trkpt lat="48.00709" lon="6.81573">
        <ele>995.405457</ele>
        <time>2019-08-16T13:40:38Z</time>
      </trkpt>
      <trkpt lat="48.00707" lon="6.81572">
        <ele>995.513367</ele>
        <time>2019-08-16T13:40:39Z</time>
      </trkpt>
      <trkpt lat="48.00706" lon="6.81572">
        <ele>995.63739</ele>
        <time>2019-08-16T13:40:40Z</time>
      </trkpt>
      <trkpt lat="48.00704" lon="6.81572">
        <ele>995.843994</ele>
        <time>2019-08-16T13:40:41Z</time>
      </trkpt>
      <trkpt lat="48.00702" lon="6.81572">
        <ele>995.994812</ele>
        <time>2019-08-16T13:40:42Z</time>
      </trkpt>
      <trkpt lat="48.007" lon="6.81572">
        <ele>996.232971</ele>
        <time>2019-08-16T13:40:43Z</time>
      </trkpt>
      <trkpt lat="48.00698" lon="6.81572">
        <ele>996.389465</ele>
        <time>2019-08-16T13:40:44Z</time>
      </trkpt>
      <trkpt lat="48.00696" lon="6.81572">
        <ele>996.536316</ele>
        <time>2019-08-16T13:40:45Z</time>
      </trkpt>
      <trkpt lat="48.00694" lon="6.81573">
        <ele>996.74115</ele>
        <time>2019-08-16T13:40:46Z</time>
      </trkpt>
      <trkpt lat="48.00691" lon="6.81573">
        <ele>996.867004</ele>
        <time>2019-08-16T13:40:47Z</time>
      </trkpt>
      <trkpt lat="48.00689" lon="6.81574">
        <ele>997.029724</ele>
        <time>2019-08-16T13:40:48Z</time>
      </trkpt>
      <trkpt lat="48.00687" lon="6.81575">
        <ele>997.117493</ele>
        <time>2019-08-16T13:40:49Z</time>
      </trkpt>
      <trkpt lat="48.00686" lon="6.81575">
        <ele>997.281433</ele>
        <time>2019-08-16T13:40:50Z</time>
      </trkpt>
      <trkpt lat="48.00684" lon="6.81576">
        <ele>997.335754</ele>
        <time>2019-08-16T13:40:52Z</time>
      </trkpt>
      <trkpt lat="48.00681" lon="6.81577">
        <ele>997.407043</ele>
        <time>2019-08-16T13:40:53Z</time>
      </trkpt>
      <trkpt lat="48.00679" lon="6.81579">
        <ele>997.445984</ele>
        <time>2019-08-16T13:40:54Z</time>
      </trkpt>
      <trkpt lat="48.00678" lon="6.81579">
        <ele>997.562744</ele>
        <time>2019-08-16T13:40:55Z</time>
      </trkpt>
      <trkpt lat="48.00677" lon="6.81581">
        <ele>997.623596</ele>
        <time>2019-08-16T13:40:57Z</time>
      </trkpt>
      <trkpt lat="48.00674" lon="6.81582">
        <ele>997.69043</ele>
        <time>2019-08-16T13:40:58Z</time>
      </trkpt>
      <trkpt lat="48.00672" lon="6.81584">
        <ele>997.791687</ele>
        <time>2019-08-16T13:40:59Z</time>
      </trkpt>
      <trkpt lat="48.0067" lon="6.81586">
        <ele>997.85907</ele>
        <time>2019-08-16T13:41:00Z</time>
      </trkpt>
      <trkpt lat="48.00668" lon="6.81588">
        <ele>997.928406</ele>
        <time>2019-08-16T13:41:01Z</time>
      </trkpt>
      <trkpt lat="48.00666" lon="6.81589">
        <ele>998.045593</ele>
        <time>2019-08-16T13:41:02Z</time>
      </trkpt>
      <trkpt lat="48.00664" lon="6.81591">
        <ele>998.139587</ele>
        <time>2019-08-16T13:41:03Z</time>
      </trkpt>
      <trkpt lat="48.00662" lon="6.81593">
        <ele>998.248474</ele>
        <time>2019-08-16T13:41:04Z</time>
      </trkpt>
      <trkpt lat="48.00661" lon="6.81595">
        <ele>998.421936</ele>
        <time>2019-08-16T13:41:05Z</time>
      </trkpt>
      <trkpt lat="48.00659" lon="6.81598">
        <ele>998.54071</ele>
        <time>2019-08-16T13:41:06Z</time>
      </trkpt>
      <trkpt lat="48.00658" lon="6.816">
        <ele>998.663635</ele>
        <time>2019-08-16T13:41:07Z</time>
      </trkpt>
      <trkpt lat="48.00657" lon="6.81603">
        <ele>998.790344</ele>
        <time>2019-08-16T13:41:08Z</time>
      </trkpt>
      <trkpt lat="48.00656" lon="6.81606">
        <ele>998.920898</ele>
        <time>2019-08-16T13:41:09Z</time>
      </trkpt>
      <trkpt lat="48.00655" lon="6.81608">
        <ele>999.056458</ele>
        <time>2019-08-16T13:41:10Z</time>
      </trkpt>
      <trkpt lat="48.00654" lon="6.81611">
        <ele>999.12616</ele>
        <time>2019-08-16T13:41:11Z</time>
      </trkpt>
      <trkpt lat="48.00653" lon="6.81613">
        <ele>999.195496</ele>
        <time>2019-08-16T13:41:12Z</time>
      </trkpt>
      <trkpt lat="48.00652" lon="6.81616">
        <ele>999.341309</ele>
        <time>2019-08-16T13:41:13Z</time>
      </trkpt>
      <trkpt lat="48.0065" lon="6.81619">
        <ele>999.496765</ele>
        <time>2019-08-16T13:41:14Z</time>
      </trkpt>
      <trkpt lat="48.00649" lon="6.81622">
        <ele>999.662781</ele>
        <time>2019-08-16T13:41:15Z</time>
      </trkpt>
      <trkpt lat="48.00649" lon="6.81625">
        <ele>999.83429</ele>
        <time>2019-08-16T13:41:16Z</time>
      </trkpt>
      <trkpt lat="48.00647" lon="6.81627">
        <ele>1000.01178</ele>
        <time>2019-08-16T13:41:17Z</time>
      </trkpt>
      <trkpt lat="48.00646" lon="6.8163">
        <ele>1000.196106</ele>
        <time>2019-08-16T13:41:18Z</time>
      </trkpt>
      <trkpt lat="48.00645" lon="6.81633">
        <ele>1000.481873</ele>
        <time>2019-08-16T13:41:19Z</time>
      </trkpt>
      <trkpt lat="48.00644" lon="6.81636">
        <ele>1000.669983</ele>
        <time>2019-08-16T13:41:20Z</time>
      </trkpt>
      <trkpt lat="48.00642" lon="6.81639">
        <ele>1000.84967</ele>
        <time>2019-08-16T13:41:21Z</time>
      </trkpt>
      <trkpt lat="48.00642" lon="6.81641">
        <ele>1001.014221</ele>
        <time>2019-08-16T13:41:22Z</time>
      </trkpt>
      <trkpt lat="48.00641" lon="6.81644">
        <ele>1001.228027</ele>
        <time>2019-08-16T13:41:23Z</time>
      </trkpt>
      <trkpt lat="48.00639" lon="6.81646">
        <ele>1001.354309</ele>
        <time>2019-08-16T13:41:24Z</time>
      </trkpt>
      <trkpt lat="48.00637" lon="6.81649">
        <ele>1001.47699</ele>
        <time>2019-08-16T13:41:25Z</time>
      </trkpt>
      <trkpt lat="48.00636" lon="6.81651">
        <ele>1001.67572</ele>
        <time>2019-08-16T13:41:26Z</time>
      </trkpt>
      <trkpt lat="48.00634" lon="6.81653">
        <ele>1001.820007</ele>
        <time>2019-08-16T13:41:27Z</time>
      </trkpt>
      <trkpt lat="48.00633" lon="6.81656">
        <ele>1001.968811</ele>
        <time>2019-08-16T13:41:28Z</time>
      </trkpt>
      <trkpt lat="48.00631" lon="6.81659">
        <ele>1002.116638</ele>
        <time>2019-08-16T13:41:29Z</time>
      </trkpt>
      <trkpt lat="48.00629" lon="6.81662">
        <ele>1002.264343</ele>
        <time>2019-08-16T13:41:30Z</time>
      </trkpt>
      <trkpt lat="48.00628" lon="6.81665">
        <ele>1002.404358</ele>
        <time>2019-08-16T13:41:31Z</time>
      </trkpt>
      <trkpt lat="48.00626" lon="6.81667">
        <ele>1002.586853</ele>
        <time>2019-08-16T13:41:32Z</time>
      </trkpt>
      <trkpt lat="48.00625" lon="6.81669">
        <ele>1002.686096</ele>
        <time>2019-08-16T13:41:33Z</time>
      </trkpt>
      <trkpt lat="48.00623" lon="6.81671">
        <ele>1002.771729</ele>
        <time>2019-08-16T13:41:34Z</time>
      </trkpt>
      <trkpt lat="48.00623" lon="6.81674">
        <ele>1002.890808</ele>
        <time>2019-08-16T13:41:35Z</time>
      </trkpt>
      <trkpt lat="48.00622" lon="6.81677">
        <ele>1002.972656</ele>
        <time>2019-08-16T13:41:36Z</time>
      </trkpt>
      <trkpt lat="48.0062" lon="6.8168">
        <ele>1003.058838</ele>
        <time>2019-08-16T13:41:37Z</time>
      </trkpt>
      <trkpt lat="48.00618" lon="6.81683">
        <ele>1003.188721</ele>
        <time>2019-08-16T13:41:38Z</time>
      </trkpt>
      <trkpt lat="48.00617" lon="6.81686">
        <ele>1003.277893</ele>
        <time>2019-08-16T13:41:39Z</time>
      </trkpt>
      <trkpt lat="48.00616" lon="6.81689">
        <ele>1003.367188</ele>
        <time>2019-08-16T13:41:40Z</time>
      </trkpt>
      <trkpt lat="48.00614" lon="6.81693">
        <ele>1003.500916</ele>
        <time>2019-08-16T13:41:41Z</time>
      </trkpt>
      <trkpt lat="48.00613" lon="6.81697">
        <ele>1003.586121</ele>
        <time>2019-08-16T13:41:42Z</time>
      </trkpt>
      <trkpt lat="48.00612" lon="6.817">
        <ele>1003.670471</ele>
        <time>2019-08-16T13:41:43Z</time>
      </trkpt>
      <trkpt lat="48.0061" lon="6.81704">
        <ele>1003.753906</ele>
        <time>2019-08-16T13:41:44Z</time>
      </trkpt>
      <trkpt lat="48.00609" lon="6.81707">
        <ele>1003.8349</ele>
        <time>2019-08-16T13:41:45Z</time>
      </trkpt>
      <trkpt lat="48.00608" lon="6.8171">
        <ele>1003.906555</ele>
        <time>2019-08-16T13:41:46Z</time>
      </trkpt>
      <trkpt lat="48.00607" lon="6.81713">
        <ele>1003.967285</ele>
        <time>2019-08-16T13:41:47Z</time>
      </trkpt>
      <trkpt lat="48.00606" lon="6.81716">
        <ele>1004.020996</ele>
        <time>2019-08-16T13:41:48Z</time>
      </trkpt>
      <trkpt lat="48.00604" lon="6.81719">
        <ele>1004.077698</ele>
        <time>2019-08-16T13:41:49Z</time>
      </trkpt>
      <trkpt lat="48.00603" lon="6.81722">
        <ele>1004.172363</ele>
        <time>2019-08-16T13:41:50Z</time>
      </trkpt>
      <trkpt lat="48.00601" lon="6.81725">
        <ele>1004.236511</ele>
        <time>2019-08-16T13:41:51Z</time>
      </trkpt>
      <trkpt lat="48.006" lon="6.81728">
        <ele>1004.300598</ele>
        <time>2019-08-16T13:41:52Z</time>
      </trkpt>
      <trkpt lat="48.00598" lon="6.81731">
        <ele>1004.368164</ele>
        <time>2019-08-16T13:41:53Z</time>
      </trkpt>
      <trkpt lat="48.00596" lon="6.81733">
        <ele>1004.481384</ele>
        <time>2019-08-16T13:41:54Z</time>
      </trkpt>
      <trkpt lat="48.00593" lon="6.81735">
        <ele>1004.563416</ele>
        <time>2019-08-16T13:41:55Z</time>
      </trkpt>
      <trkpt lat="48.00591" lon="6.81737">
        <ele>1004.64801</ele>
        <time>2019-08-16T13:41:56Z</time>
      </trkpt>
      <trkpt lat="48.00588" lon="6.81739">
        <ele>1004.773499</ele>
        <time>2019-08-16T13:41:57Z</time>
      </trkpt>
      <trkpt lat="48.00586" lon="6.81741">
        <ele>1004.84845</ele>
        <time>2019-08-16T13:41:58Z</time>
      </trkpt>
      <trkpt lat="48.00583" lon="6.81743">
        <ele>1004.914001</ele>
        <time>2019-08-16T13:41:59Z</time>
      </trkpt>
      <trkpt lat="48.00581" lon="6.81744">
        <ele>1004.971252</ele>
        <time>2019-08-16T13:42:00Z</time>
      </trkpt>
      <trkpt lat="48.00578" lon="6.81746">
        <ele>1005.048584</ele>
        <time>2019-08-16T13:42:01Z</time>
      </trkpt>
      <trkpt lat="48.00576" lon="6.81748">
        <ele>1005.096985</ele>
        <time>2019-08-16T13:42:02Z</time>
      </trkpt>
      <trkpt lat="48.00574" lon="6.8175">
        <ele>1005.145325</ele>
        <time>2019-08-16T13:42:03Z</time>
      </trkpt>
      <trkpt lat="48.00573" lon="6.81752">
        <ele>1005.224915</ele>
        <time>2019-08-16T13:42:04Z</time>
      </trkpt>
      <trkpt lat="48.00571" lon="6.81754">
        <ele>1005.290833</ele>
        <time>2019-08-16T13:42:05Z</time>
      </trkpt>
      <trkpt lat="48.00568" lon="6.81757">
        <ele>1005.363831</ele>
        <time>2019-08-16T13:42:06Z</time>
      </trkpt>
      <trkpt lat="48.00567" lon="6.8176">
        <ele>1005.479675</ele>
        <time>2019-08-16T13:42:07Z</time>
      </trkpt>
      <trkpt lat="48.00565" lon="6.81762">
        <ele>1005.566223</ele>
        <time>2019-08-16T13:42:08Z</time>
      </trkpt>
      <trkpt lat="48.00564" lon="6.81764">
        <ele>1005.664063</ele>
        <time>2019-08-16T13:42:09Z</time>
      </trkpt>
      <trkpt lat="48.00563" lon="6.81766">
        <ele>1005.766785</ele>
        <time>2019-08-16T13:42:10Z</time>
      </trkpt>
      <trkpt lat="48.00562" lon="6.81767">
        <ele>1005.868347</ele>
        <time>2019-08-16T13:42:11Z</time>
      </trkpt>
      <trkpt lat="48.00561" lon="6.81769">
        <ele>1005.917908</ele>
        <time>2019-08-16T13:42:12Z</time>
      </trkpt>
      <trkpt lat="48.0056" lon="6.8177">
        <ele>1005.966248</ele>
        <time>2019-08-16T13:42:13Z</time>
      </trkpt>
      <trkpt lat="48.0056" lon="6.81771">
        <ele>1006.055481</ele>
        <time>2019-08-16T13:42:14Z</time>
      </trkpt>
      <trkpt lat="48.00559" lon="6.81773">
        <ele>1006.130371</ele>
        <time>2019-08-16T13:42:15Z</time>
      </trkpt>
      <trkpt lat="48.00559" lon="6.81774">
        <ele>1006.186218</ele>
        <time>2019-08-16T13:42:16Z</time>
      </trkpt>
      <trkpt lat="48.00558" lon="6.81776">
        <ele>1006.234619</ele>
        <time>2019-08-16T13:42:17Z</time>
      </trkpt>
      <trkpt lat="48.00557" lon="6.81777">
        <ele>1006.244385</ele>
        <time>2019-08-16T13:42:18Z</time>
      </trkpt>
      <trkpt lat="48.00555" lon="6.81779">
        <ele>1006.244385</ele>
        <time>2019-08-16T13:42:19Z</time>
      </trkpt>
      <trkpt lat="48.00554" lon="6.81781">
        <ele>1006.240967</ele>
        <time>2019-08-16T13:42:20Z</time>
      </trkpt>
      <trkpt lat="48.00552" lon="6.81783">
        <ele>1006.239319</ele>
        <time>2019-08-16T13:42:21Z</time>
      </trkpt>
      <trkpt lat="48.00551" lon="6.81785">
        <ele>1006.240295</ele>
        <time>2019-08-16T13:42:22Z</time>
      </trkpt>
      <trkpt lat="48.0055" lon="6.81786">
        <ele>1006.268799</ele>
        <time>2019-08-16T13:42:23Z</time>
      </trkpt>
      <trkpt lat="48.00548" lon="6.81789">
        <ele>1006.298767</ele>
        <time>2019-08-16T13:42:24Z</time>
      </trkpt>
      <trkpt lat="48.00547" lon="6.81792">
        <ele>1006.325378</ele>
        <time>2019-08-16T13:42:25Z</time>
      </trkpt>
      <trkpt lat="48.00544" lon="6.81794">
        <ele>1006.344482</ele>
        <time>2019-08-16T13:42:26Z</time>
      </trkpt>
      <trkpt lat="48.00543" lon="6.81797">
        <ele>1006.370117</ele>
        <time>2019-08-16T13:42:27Z</time>
      </trkpt>
      <trkpt lat="48.00541" lon="6.818">
        <ele>1006.385559</ele>
        <time>2019-08-16T13:42:28Z</time>
      </trkpt>
      <trkpt lat="48.0054" lon="6.81803">
        <ele>1006.403564</ele>
        <time>2019-08-16T13:42:29Z</time>
      </trkpt>
      <trkpt lat="48.00538" lon="6.81806">
        <ele>1006.433594</ele>
        <time>2019-08-16T13:42:30Z</time>
      </trkpt>
      <trkpt lat="48.00535" lon="6.81808">
        <ele>1006.456726</ele>
        <time>2019-08-16T13:42:31Z</time>
      </trkpt>
      <trkpt lat="48.00533" lon="6.8181">
        <ele>1006.481934</ele>
        <time>2019-08-16T13:42:32Z</time>
      </trkpt>
      <trkpt lat="48.00531" lon="6.81812">
        <ele>1006.539001</ele>
        <time>2019-08-16T13:42:33Z</time>
      </trkpt>
      <trkpt lat="48.00529" lon="6.81815">
        <ele>1006.582581</ele>
        <time>2019-08-16T13:42:34Z</time>
      </trkpt>
      <trkpt lat="48.00527" lon="6.81818">
        <ele>1006.626221</ele>
        <time>2019-08-16T13:42:35Z</time>
      </trkpt>
      <trkpt lat="48.00525" lon="6.81821">
        <ele>1006.69635</ele>
        <time>2019-08-16T13:42:36Z</time>
      </trkpt>
      <trkpt lat="48.00523" lon="6.81823">
        <ele>1006.751465</ele>
        <time>2019-08-16T13:42:37Z</time>
      </trkpt>
      <trkpt lat="48.00521" lon="6.81826">
        <ele>1006.81134</ele>
        <time>2019-08-16T13:42:38Z</time>
      </trkpt>
      <trkpt lat="48.00519" lon="6.81829">
        <ele>1006.871582</ele>
        <time>2019-08-16T13:42:39Z</time>
      </trkpt>
      <trkpt lat="48.00517" lon="6.81832">
        <ele>1006.927307</ele>
        <time>2019-08-16T13:42:40Z</time>
      </trkpt>
      <trkpt lat="48.00514" lon="6.81836">
        <ele>1007.001709</ele>
        <time>2019-08-16T13:42:41Z</time>
      </trkpt>
      <trkpt lat="48.00513" lon="6.8184">
        <ele>1007.045715</ele>
        <time>2019-08-16T13:42:42Z</time>
      </trkpt>
      <trkpt lat="48.00511" lon="6.81844">
        <ele>1007.078369</ele>
        <time>2019-08-16T13:42:43Z</time>
      </trkpt>
      <trkpt lat="48.0051" lon="6.81847">
        <ele>1007.101868</ele>
        <time>2019-08-16T13:42:44Z</time>
      </trkpt>
      <trkpt lat="48.00508" lon="6.81851">
        <ele>1007.153748</ele>
        <time>2019-08-16T13:42:45Z</time>
      </trkpt>
      <trkpt lat="48.00506" lon="6.81854">
        <ele>1007.223145</ele>
        <time>2019-08-16T13:42:46Z</time>
      </trkpt>
      <trkpt lat="48.00504" lon="6.81857">
        <ele>1007.321045</ele>
        <time>2019-08-16T13:42:47Z</time>
      </trkpt>
      <trkpt lat="48.00502" lon="6.8186">
        <ele>1007.505615</ele>
        <time>2019-08-16T13:42:48Z</time>
      </trkpt>
      <trkpt lat="48.00501" lon="6.81864">
        <ele>1007.644348</ele>
        <time>2019-08-16T13:42:49Z</time>
      </trkpt>
      <trkpt lat="48.00499" lon="6.81867">
        <ele>1007.789612</ele>
        <time>2019-08-16T13:42:50Z</time>
      </trkpt>
      <trkpt lat="48.00497" lon="6.8187">
        <ele>1007.937744</ele>
        <time>2019-08-16T13:42:51Z</time>
      </trkpt>
      <trkpt lat="48.00496" lon="6.81873">
        <ele>1008.155762</ele>
        <time>2019-08-16T13:42:52Z</time>
      </trkpt>
      <trkpt lat="48.00493" lon="6.81875">
        <ele>1008.302063</ele>
        <time>2019-08-16T13:42:53Z</time>
      </trkpt>
      <trkpt lat="48.00491" lon="6.81878">
        <ele>1008.451843</ele>
        <time>2019-08-16T13:42:54Z</time>
      </trkpt>
      <trkpt lat="48.00489" lon="6.81881">
        <ele>1008.607178</ele>
        <time>2019-08-16T13:42:55Z</time>
      </trkpt>
      <trkpt lat="48.00486" lon="6.81885">
        <ele>1008.84552</ele>
        <time>2019-08-16T13:42:56Z</time>
      </trkpt>
      <trkpt lat="48.00483" lon="6.81887">
        <ele>1009.003967</ele>
        <time>2019-08-16T13:42:57Z</time>
      </trkpt>
      <trkpt lat="48.00481" lon="6.8189">
        <ele>1009.150879</ele>
        <time>2019-08-16T13:42:58Z</time>
      </trkpt>
      <trkpt lat="48.00479" lon="6.81893">
        <ele>1009.348206</ele>
        <time>2019-08-16T13:42:59Z</time>
      </trkpt>
      <trkpt lat="48.00477" lon="6.81896">
        <ele>1009.456848</ele>
        <time>2019-08-16T13:43:00Z</time>
      </trkpt>
      <trkpt lat="48.00475" lon="6.81899">
        <ele>1009.550293</ele>
        <time>2019-08-16T13:43:01Z</time>
      </trkpt>
      <trkpt lat="48.00472" lon="6.81902">
        <ele>1009.65332</ele>
        <time>2019-08-16T13:43:02Z</time>
      </trkpt>
      <trkpt lat="48.0047" lon="6.81905">
        <ele>1009.706726</ele>
        <time>2019-08-16T13:43:03Z</time>
      </trkpt>
      <trkpt lat="48.00468" lon="6.81908">
        <ele>1009.7547</ele>
        <time>2019-08-16T13:43:04Z</time>
      </trkpt>
      <trkpt lat="48.00466" lon="6.81911">
        <ele>1009.846741</ele>
        <time>2019-08-16T13:43:05Z</time>
      </trkpt>
      <trkpt lat="48.00464" lon="6.81914">
        <ele>1009.91333</ele>
        <time>2019-08-16T13:43:06Z</time>
      </trkpt>
      <trkpt lat="48.00462" lon="6.81917">
        <ele>1009.983887</ele>
        <time>2019-08-16T13:43:07Z</time>
      </trkpt>
      <trkpt lat="48.0046" lon="6.8192">
        <ele>1010.088684</ele>
        <time>2019-08-16T13:43:08Z</time>
      </trkpt>
      <trkpt lat="48.00458" lon="6.81923">
        <ele>1010.161194</ele>
        <time>2019-08-16T13:43:09Z</time>
      </trkpt>
      <trkpt lat="48.00456" lon="6.81926">
        <ele>1010.226013</ele>
        <time>2019-08-16T13:43:10Z</time>
      </trkpt>
      <trkpt lat="48.00455" lon="6.81929">
        <ele>1010.294922</ele>
        <time>2019-08-16T13:43:11Z</time>
      </trkpt>
      <trkpt lat="48.00451" lon="6.81935">
        <ele>1010.309143</ele>
        <time>2019-08-16T13:43:13Z</time>
      </trkpt>
      <trkpt lat="48.00449" lon="6.81938">
        <ele>1010.319641</ele>
        <time>2019-08-16T13:43:14Z</time>
      </trkpt>
      <trkpt lat="48.00448" lon="6.81941">
        <ele>1010.337158</ele>
        <time>2019-08-16T13:43:15Z</time>
      </trkpt>
      <trkpt lat="48.00446" lon="6.81944">
        <ele>1010.348877</ele>
        <time>2019-08-16T13:43:16Z</time>
      </trkpt>
      <trkpt lat="48.00444" lon="6.81947">
        <ele>1010.363342</ele>
        <time>2019-08-16T13:43:17Z</time>
      </trkpt>
      <trkpt lat="48.00443" lon="6.81951">
        <ele>1010.383972</ele>
        <time>2019-08-16T13:43:18Z</time>
      </trkpt>
      <trkpt lat="48.00441" lon="6.81955">
        <ele>1010.429504</ele>
        <time>2019-08-16T13:43:19Z</time>
      </trkpt>
      <trkpt lat="48.0044" lon="6.81959">
        <ele>1010.466736</ele>
        <time>2019-08-16T13:43:20Z</time>
      </trkpt>
      <trkpt lat="48.0044" lon="6.81963">
        <ele>1010.503357</ele>
        <time>2019-08-16T13:43:21Z</time>
      </trkpt>
      <trkpt lat="48.00438" lon="6.81967">
        <ele>1010.543945</ele>
        <time>2019-08-16T13:43:22Z</time>
      </trkpt>
      <trkpt lat="48.00437" lon="6.81971">
        <ele>1010.593201</ele>
        <time>2019-08-16T13:43:23Z</time>
      </trkpt>
      <trkpt lat="48.00436" lon="6.81976">
        <ele>1010.658203</ele>
        <time>2019-08-16T13:43:24Z</time>
      </trkpt>
      <trkpt lat="48.00435" lon="6.8198">
        <ele>1010.733337</ele>
        <time>2019-08-16T13:43:25Z</time>
      </trkpt>
      <trkpt lat="48.00434" lon="6.81984">
        <ele>1010.8125</ele>
        <time>2019-08-16T13:43:26Z</time>
      </trkpt>
      <trkpt lat="48.00433" lon="6.81988">
        <ele>1010.89502</ele>
        <time>2019-08-16T13:43:27Z</time>
      </trkpt>
      <trkpt lat="48.00432" lon="6.81992">
        <ele>1010.986816</ele>
        <time>2019-08-16T13:43:28Z</time>
      </trkpt>
      <trkpt lat="48.0043" lon="6.81996">
        <ele>1011.086426</ele>
        <time>2019-08-16T13:43:29Z</time>
      </trkpt>
      <trkpt lat="48.00428" lon="6.81999">
        <ele>1011.238525</ele>
        <time>2019-08-16T13:43:30Z</time>
      </trkpt>
      <trkpt lat="48.00427" lon="6.82001">
        <ele>1011.334656</ele>
        <time>2019-08-16T13:43:31Z</time>
      </trkpt>
      <trkpt lat="48.00424" lon="6.82004">
        <ele>1011.42865</ele>
        <time>2019-08-16T13:43:32Z</time>
      </trkpt>
      <trkpt lat="48.00423" lon="6.82008">
        <ele>1011.578308</ele>
        <time>2019-08-16T13:43:33Z</time>
      </trkpt>
      <trkpt lat="48.00422" lon="6.82012">
        <ele>1011.678955</ele>
        <time>2019-08-16T13:43:34Z</time>
      </trkpt>
      <trkpt lat="48.00422" lon="6.82014">
        <ele>1011.77002</ele>
        <time>2019-08-16T13:43:35Z</time>
      </trkpt>
      <trkpt lat="48.00423" lon="6.82029">
        <ele>1012.631104</ele>
        <time>2019-08-16T13:44:44Z</time>
      </trkpt>
      <trkpt lat="48.00423" lon="6.82032">
        <ele>1012.68927</ele>
        <time>2019-08-16T13:44:46Z</time>
      </trkpt>
      <trkpt lat="48.00422" lon="6.82035">
        <ele>1012.801331</ele>
        <time>2019-08-16T13:44:47Z</time>
      </trkpt>
      <trkpt lat="48.00421" lon="6.82039">
        <ele>1012.887451</ele>
        <time>2019-08-16T13:44:48Z</time>
      </trkpt>
      <trkpt lat="48.00421" lon="6.82042">
        <ele>1012.974854</ele>
        <time>2019-08-16T13:44:49Z</time>
      </trkpt>
      <trkpt lat="48.0042" lon="6.82046">
        <ele>1013.056335</ele>
        <time>2019-08-16T13:44:50Z</time>
      </trkpt>
      <trkpt lat="48.0042" lon="6.82049">
        <ele>1013.130676</ele>
        <time>2019-08-16T13:44:51Z</time>
      </trkpt>
      <trkpt lat="48.0042" lon="6.82052">
        <ele>1013.199768</ele>
        <time>2019-08-16T13:44:52Z</time>
      </trkpt>
      <trkpt lat="48.0042" lon="6.82056">
        <ele>1013.26947</ele>
        <time>2019-08-16T13:44:53Z</time>
      </trkpt>
      <trkpt lat="48.00421" lon="6.82059">
        <ele>1013.345459</ele>
        <time>2019-08-16T13:44:54Z</time>
      </trkpt>
      <trkpt lat="48.00422" lon="6.82063">
        <ele>1013.435242</ele>
        <time>2019-08-16T13:44:55Z</time>
      </trkpt>
      <trkpt lat="48.00423" lon="6.82067">
        <ele>1013.5354</ele>
        <time>2019-08-16T13:44:56Z</time>
      </trkpt>
      <trkpt lat="48.00423" lon="6.82071">
        <ele>1013.641174</ele>
        <time>2019-08-16T13:44:57Z</time>
      </trkpt>
      <trkpt lat="48.00425" lon="6.82074">
        <ele>1013.751709</ele>
        <time>2019-08-16T13:44:58Z</time>
      </trkpt>
      <trkpt lat="48.00426" lon="6.82078">
        <ele>1013.866882</ele>
        <time>2019-08-16T13:44:59Z</time>
      </trkpt>
      <trkpt lat="48.00427" lon="6.82081">
        <ele>1013.987793</ele>
        <time>2019-08-16T13:45:00Z</time>
      </trkpt>
      <trkpt lat="48.00428" lon="6.82084">
        <ele>1014.107849</ele>
        <time>2019-08-16T13:45:01Z</time>
      </trkpt>
      <trkpt lat="48.0043" lon="6.82087">
        <ele>1014.229187</ele>
        <time>2019-08-16T13:45:02Z</time>
      </trkpt>
      <trkpt lat="48.00431" lon="6.82091">
        <ele>1014.348389</ele>
        <time>2019-08-16T13:45:03Z</time>
      </trkpt>
      <trkpt lat="48.00431" lon="6.82095">
        <ele>1014.46698</ele>
        <time>2019-08-16T13:45:04Z</time>
      </trkpt>
      <trkpt lat="48.00433" lon="6.82098">
        <ele>1014.578369</ele>
        <time>2019-08-16T13:45:05Z</time>
      </trkpt>
      <trkpt lat="48.00433" lon="6.82102">
        <ele>1014.680969</ele>
        <time>2019-08-16T13:45:06Z</time>
      </trkpt>
      <trkpt lat="48.00433" lon="6.82106">
        <ele>1014.772766</ele>
        <time>2019-08-16T13:45:07Z</time>
      </trkpt>
      <trkpt lat="48.00434" lon="6.82109">
        <ele>1014.857605</ele>
        <time>2019-08-16T13:45:08Z</time>
      </trkpt>
      <trkpt lat="48.00435" lon="6.82113">
        <ele>1014.94165</ele>
        <time>2019-08-16T13:45:09Z</time>
      </trkpt>
      <trkpt lat="48.00436" lon="6.82117">
        <ele>1015.022156</ele>
        <time>2019-08-16T13:45:10Z</time>
      </trkpt>
      <trkpt lat="48.00437" lon="6.82121">
        <ele>1015.096924</ele>
        <time>2019-08-16T13:45:11Z</time>
      </trkpt>
      <trkpt lat="48.00438" lon="6.82125">
        <ele>1015.164734</ele>
        <time>2019-08-16T13:45:12Z</time>
      </trkpt>
      <trkpt lat="48.00439" lon="6.82128">
        <ele>1015.196472</ele>
        <time>2019-08-16T13:45:13Z</time>
      </trkpt>
      <trkpt lat="48.0044" lon="6.82132">
        <ele>1015.258118</ele>
        <time>2019-08-16T13:45:14Z</time>
      </trkpt>
      <trkpt lat="48.00441" lon="6.82135">
        <ele>1015.314758</ele>
        <time>2019-08-16T13:45:15Z</time>
      </trkpt>
      <trkpt lat="48.00443" lon="6.82139">
        <ele>1015.361755</ele>
        <time>2019-08-16T13:45:16Z</time>
      </trkpt>
      <trkpt lat="48.00444" lon="6.82142">
        <ele>1015.395325</ele>
        <time>2019-08-16T13:45:17Z</time>
      </trkpt>
      <trkpt lat="48.00446" lon="6.82146">
        <ele>1015.416748</ele>
        <time>2019-08-16T13:45:18Z</time>
      </trkpt>
      <trkpt lat="48.00447" lon="6.8215">
        <ele>1015.418396</ele>
        <time>2019-08-16T13:45:19Z</time>
      </trkpt>
      <trkpt lat="48.00449" lon="6.82154">
        <ele>1015.417664</ele>
        <time>2019-08-16T13:45:20Z</time>
      </trkpt>
      <trkpt lat="48.0045" lon="6.82158">
        <ele>1015.412537</ele>
        <time>2019-08-16T13:45:21Z</time>
      </trkpt>
      <trkpt lat="48.00452" lon="6.82162">
        <ele>1015.404053</ele>
        <time>2019-08-16T13:45:22Z</time>
      </trkpt>
      <trkpt lat="48.00454" lon="6.82166">
        <ele>1015.385437</ele>
        <time>2019-08-16T13:45:23Z</time>
      </trkpt>
      <trkpt lat="48.00456" lon="6.8217">
        <ele>1015.359131</ele>
        <time>2019-08-16T13:45:24Z</time>
      </trkpt>
      <trkpt lat="48.00457" lon="6.82174">
        <ele>1015.322083</ele>
        <time>2019-08-16T13:45:25Z</time>
      </trkpt>
      <trkpt lat="48.00459" lon="6.82178">
        <ele>1015.2771</ele>
        <time>2019-08-16T13:45:26Z</time>
      </trkpt>
      <trkpt lat="48.0046" lon="6.82182">
        <ele>1015.216309</ele>
        <time>2019-08-16T13:45:27Z</time>
      </trkpt>
      <trkpt lat="48.00461" lon="6.82187">
        <ele>1015.14032</ele>
        <time>2019-08-16T13:45:28Z</time>
      </trkpt>
      <trkpt lat="48.00463" lon="6.82192">
        <ele>1015.009033</ele>
        <time>2019-08-16T13:45:29Z</time>
      </trkpt>
      <trkpt lat="48.00465" lon="6.82196">
        <ele>1014.909119</ele>
        <time>2019-08-16T13:45:30Z</time>
      </trkpt>
      <trkpt lat="48.00467" lon="6.82201">
        <ele>1014.800781</ele>
        <time>2019-08-16T13:45:31Z</time>
      </trkpt>
      <trkpt lat="48.0047" lon="6.82205">
        <ele>1014.687012</ele>
        <time>2019-08-16T13:45:32Z</time>
      </trkpt>
      <trkpt lat="48.00473" lon="6.82209">
        <ele>1014.574158</ele>
        <time>2019-08-16T13:45:33Z</time>
      </trkpt>
      <trkpt lat="48.00476" lon="6.82214">
        <ele>1014.460754</ele>
        <time>2019-08-16T13:45:34Z</time>
      </trkpt>
      <trkpt lat="48.00479" lon="6.82218">
        <ele>1014.302246</ele>
        <time>2019-08-16T13:45:35Z</time>
      </trkpt>
      <trkpt lat="48.00482" lon="6.82223">
        <ele>1014.205994</ele>
        <time>2019-08-16T13:45:36Z</time>
      </trkpt>
      <trkpt lat="48.00485" lon="6.82227">
        <ele>1014.118164</ele>
        <time>2019-08-16T13:45:37Z</time>
      </trkpt>
      <trkpt lat="48.00489" lon="6.82231">
        <ele>1013.988708</ele>
        <time>2019-08-16T13:45:38Z</time>
      </trkpt>
      <trkpt lat="48.00492" lon="6.82234">
        <ele>1013.892761</ele>
        <time>2019-08-16T13:45:39Z</time>
      </trkpt>
      <trkpt lat="48.00495" lon="6.82238">
        <ele>1013.782227</ele>
        <time>2019-08-16T13:45:40Z</time>
      </trkpt>
      <trkpt lat="48.00497" lon="6.82241">
        <ele>1013.585205</ele>
        <time>2019-08-16T13:45:41Z</time>
      </trkpt>
      <trkpt lat="48.00501" lon="6.82246">
        <ele>1013.427429</ele>
        <time>2019-08-16T13:45:42Z</time>
      </trkpt>
      <trkpt lat="48.00502" lon="6.8225">
        <ele>1013.250671</ele>
        <time>2019-08-16T13:45:43Z</time>
      </trkpt>
      <trkpt lat="48.00505" lon="6.82255">
        <ele>1013.067932</ele>
        <time>2019-08-16T13:45:44Z</time>
      </trkpt>
      <trkpt lat="48.00507" lon="6.82261">
        <ele>1012.878723</ele>
        <time>2019-08-16T13:45:45Z</time>
      </trkpt>
      <trkpt lat="48.00509" lon="6.82266">
        <ele>1012.692322</ele>
        <time>2019-08-16T13:45:46Z</time>
      </trkpt>
      <trkpt lat="48.00511" lon="6.82271">
        <ele>1012.499329</ele>
        <time>2019-08-16T13:45:47Z</time>
      </trkpt>
      <trkpt lat="48.00512" lon="6.82277">
        <ele>1012.305115</ele>
        <time>2019-08-16T13:45:48Z</time>
      </trkpt>
      <trkpt lat="48.00512" lon="6.82283">
        <ele>1012.114319</ele>
        <time>2019-08-16T13:45:49Z</time>
      </trkpt>
      <trkpt lat="48.00514" lon="6.82289">
        <ele>1011.934265</ele>
        <time>2019-08-16T13:45:50Z</time>
      </trkpt>
      <trkpt lat="48.00514" lon="6.82294">
        <ele>1011.771973</ele>
        <time>2019-08-16T13:45:51Z</time>
      </trkpt>
      <trkpt lat="48.00514" lon="6.82298">
        <ele>1011.625671</ele>
        <time>2019-08-16T13:45:52Z</time>
      </trkpt>
      <trkpt lat="48.00513" lon="6.82303">
        <ele>1011.507568</ele>
        <time>2019-08-16T13:45:53Z</time>
      </trkpt>
      <trkpt lat="48.00512" lon="6.82308">
        <ele>1011.414551</ele>
        <time>2019-08-16T13:45:54Z</time>
      </trkpt>
      <trkpt lat="48.00512" lon="6.82314">
        <ele>1011.348083</ele>
        <time>2019-08-16T13:45:55Z</time>
      </trkpt>
      <trkpt lat="48.0051" lon="6.82319">
        <ele>1011.299622</ele>
        <time>2019-08-16T13:45:56Z</time>
      </trkpt>
      <trkpt lat="48.0051" lon="6.82325">
        <ele>1011.258728</ele>
        <time>2019-08-16T13:45:57Z</time>
      </trkpt>
      <trkpt lat="48.00509" lon="6.8233">
        <ele>1011.189209</ele>
        <time>2019-08-16T13:45:58Z</time>
      </trkpt>
      <trkpt lat="48.00508" lon="6.82335">
        <ele>1011.115051</ele>
        <time>2019-08-16T13:45:59Z</time>
      </trkpt>
      <trkpt lat="48.00507" lon="6.82341">
        <ele>1011.003906</ele>
        <time>2019-08-16T13:46:00Z</time>
      </trkpt>
      <trkpt lat="48.00506" lon="6.82346">
        <ele>1010.848145</ele>
        <time>2019-08-16T13:46:01Z</time>
      </trkpt>
      <trkpt lat="48.00505" lon="6.82351">
        <ele>1010.653381</ele>
        <time>2019-08-16T13:46:02Z</time>
      </trkpt>
      <trkpt lat="48.00505" lon="6.82355">
        <ele>1010.436768</ele>
        <time>2019-08-16T13:46:03Z</time>
      </trkpt>
      <trkpt lat="48.00505" lon="6.82359">
        <ele>1010.215149</ele>
        <time>2019-08-16T13:46:04Z</time>
      </trkpt>
      <trkpt lat="48.00505" lon="6.82364">
        <ele>1009.992126</ele>
        <time>2019-08-16T13:46:05Z</time>
      </trkpt>
      <trkpt lat="48.00505" lon="6.82369">
        <ele>1009.768494</ele>
        <time>2019-08-16T13:46:06Z</time>
      </trkpt>
      <trkpt lat="48.00504" lon="6.82374">
        <ele>1009.550293</ele>
        <time>2019-08-16T13:46:07Z</time>
      </trkpt>
      <trkpt lat="48.00504" lon="6.82379">
        <ele>1009.334778</ele>
        <time>2019-08-16T13:46:08Z</time>
      </trkpt>
      <trkpt lat="48.00504" lon="6.82383">
        <ele>1009.118896</ele>
        <time>2019-08-16T13:46:09Z</time>
      </trkpt>
      <trkpt lat="48.00504" lon="6.82386">
        <ele>1008.893616</ele>
        <time>2019-08-16T13:46:10Z</time>
      </trkpt>
      <trkpt lat="48.00504" lon="6.8239">
        <ele>1008.6651</ele>
        <time>2019-08-16T13:46:11Z</time>
      </trkpt>
      <trkpt lat="48.00504" lon="6.82392">
        <ele>1008.428284</ele>
        <time>2019-08-16T13:46:12Z</time>
      </trkpt>
      <trkpt lat="48.00504" lon="6.82394">
        <ele>1008.182312</ele>
        <time>2019-08-16T13:46:13Z</time>
      </trkpt>
      <trkpt lat="48.00505" lon="6.82396">
        <ele>1008.052734</ele>
        <time>2019-08-16T13:46:14Z</time>
      </trkpt>
      <trkpt lat="48.00512" lon="6.82406">
        <ele>1005.816345</ele>
        <time>2019-08-16T13:46:34Z</time>
      </trkpt>
      <trkpt lat="48.00513" lon="6.82409">
        <ele>1005.775879</ele>
        <time>2019-08-16T13:46:36Z</time>
      </trkpt>
      <trkpt lat="48.00515" lon="6.82412">
        <ele>1005.738281</ele>
        <time>2019-08-16T13:46:37Z</time>
      </trkpt>
      <trkpt lat="48.00516" lon="6.82416">
        <ele>1005.702576</ele>
        <time>2019-08-16T13:46:38Z</time>
      </trkpt>
      <trkpt lat="48.00517" lon="6.82419">
        <ele>1005.66217</ele>
        <time>2019-08-16T13:46:39Z</time>
      </trkpt>
      <trkpt lat="48.00518" lon="6.82422">
        <ele>1005.617004</ele>
        <time>2019-08-16T13:46:40Z</time>
      </trkpt>
      <trkpt lat="48.0052" lon="6.82425">
        <ele>1005.57373</ele>
        <time>2019-08-16T13:46:41Z</time>
      </trkpt>
      <trkpt lat="48.00521" lon="6.82428">
        <ele>1005.528015</ele>
        <time>2019-08-16T13:46:42Z</time>
      </trkpt>
      <trkpt lat="48.00523" lon="6.82432">
        <ele>1005.50946</ele>
        <time>2019-08-16T13:46:43Z</time>
      </trkpt>
      <trkpt lat="48.00525" lon="6.82435">
        <ele>1005.492004</ele>
        <time>2019-08-16T13:46:44Z</time>
      </trkpt>
      <trkpt lat="48.00526" lon="6.82439">
        <ele>1005.471741</ele>
        <time>2019-08-16T13:46:45Z</time>
      </trkpt>
      <trkpt lat="48.00528" lon="6.82442">
        <ele>1005.448792</ele>
        <time>2019-08-16T13:46:46Z</time>
      </trkpt>
      <trkpt lat="48.0053" lon="6.82445">
        <ele>1005.424988</ele>
        <time>2019-08-16T13:46:47Z</time>
      </trkpt>
      <trkpt lat="48.00532" lon="6.82449">
        <ele>1005.381531</ele>
        <time>2019-08-16T13:46:48Z</time>
      </trkpt>
      <trkpt lat="48.00534" lon="6.82453">
        <ele>1005.341858</ele>
        <time>2019-08-16T13:46:49Z</time>
      </trkpt>
      <trkpt lat="48.00536" lon="6.82457">
        <ele>1005.292297</ele>
        <time>2019-08-16T13:46:50Z</time>
      </trkpt>
      <trkpt lat="48.00538" lon="6.8246">
        <ele>1005.240234</ele>
        <time>2019-08-16T13:46:51Z</time>
      </trkpt>
      <trkpt lat="48.00539" lon="6.82464">
        <ele>1005.226379</ele>
        <time>2019-08-16T13:46:52Z</time>
      </trkpt>
      <trkpt lat="48.00541" lon="6.82468">
        <ele>1005.225281</ele>
        <time>2019-08-16T13:46:53Z</time>
      </trkpt>
      <trkpt lat="48.00542" lon="6.82472">
        <ele>1005.226501</ele>
        <time>2019-08-16T13:46:54Z</time>
      </trkpt>
      <trkpt lat="48.00544" lon="6.82475">
        <ele>1005.233948</ele>
        <time>2019-08-16T13:46:55Z</time>
      </trkpt>
      <trkpt lat="48.00545" lon="6.82479">
        <ele>1005.245667</ele>
        <time>2019-08-16T13:46:56Z</time>
      </trkpt>
      <trkpt lat="48.00547" lon="6.82482">
        <ele>1005.261414</ele>
        <time>2019-08-16T13:46:57Z</time>
      </trkpt>
      <trkpt lat="48.0055" lon="6.82486">
        <ele>1005.271545</ele>
        <time>2019-08-16T13:46:58Z</time>
      </trkpt>
      <trkpt lat="48.00551" lon="6.82489">
        <ele>1005.274597</ele>
        <time>2019-08-16T13:46:59Z</time>
      </trkpt>
      <trkpt lat="48.00554" lon="6.82493">
        <ele>1005.280701</ele>
        <time>2019-08-16T13:47:00Z</time>
      </trkpt>
      <trkpt lat="48.00555" lon="6.82497">
        <ele>1005.285645</ele>
        <time>2019-08-16T13:47:01Z</time>
      </trkpt>
      <trkpt lat="48.00557" lon="6.82501">
        <ele>1005.299377</ele>
        <time>2019-08-16T13:47:02Z</time>
      </trkpt>
      <trkpt lat="48.00559" lon="6.82505">
        <ele>1005.327454</ele>
        <time>2019-08-16T13:47:03Z</time>
      </trkpt>
      <trkpt lat="48.0056" lon="6.82509">
        <ele>1005.362</ele>
        <time>2019-08-16T13:47:04Z</time>
      </trkpt>
      <trkpt lat="48.00561" lon="6.82514">
        <ele>1005.426575</ele>
        <time>2019-08-16T13:47:05Z</time>
      </trkpt>
      <trkpt lat="48.00561" lon="6.82518">
        <ele>1005.472656</ele>
        <time>2019-08-16T13:47:06Z</time>
      </trkpt>
      <trkpt lat="48.0056" lon="6.82522">
        <ele>1005.518372</ele>
        <time>2019-08-16T13:47:07Z</time>
      </trkpt>
      <trkpt lat="48.00559" lon="6.82526">
        <ele>1005.570801</ele>
        <time>2019-08-16T13:47:08Z</time>
      </trkpt>
      <trkpt lat="48.00557" lon="6.82529">
        <ele>1005.643066</ele>
        <time>2019-08-16T13:47:09Z</time>
      </trkpt>
      <trkpt lat="48.00556" lon="6.82533">
        <ele>1005.747803</ele>
        <time>2019-08-16T13:47:10Z</time>
      </trkpt>
      <trkpt lat="48.00554" lon="6.82537">
        <ele>1005.968994</ele>
        <time>2019-08-16T13:47:11Z</time>
      </trkpt>
      <trkpt lat="48.00553" lon="6.8254">
        <ele>1006.149353</ele>
        <time>2019-08-16T13:47:12Z</time>
      </trkpt>
      <trkpt lat="48.00551" lon="6.82542">
        <ele>1006.344299</ele>
        <time>2019-08-16T13:47:13Z</time>
      </trkpt>
      <trkpt lat="48.0055" lon="6.82545">
        <ele>1006.649475</ele>
        <time>2019-08-16T13:47:14Z</time>
      </trkpt>
      <trkpt lat="48.00549" lon="6.82547">
        <ele>1006.744934</ele>
        <time>2019-08-16T13:47:15Z</time>
      </trkpt>
      <trkpt lat="48.00548" lon="6.82549">
        <ele>1006.834656</ele>
        <time>2019-08-16T13:47:16Z</time>
      </trkpt>
      <trkpt lat="48.00548" lon="6.82552">
        <ele>1006.989075</ele>
        <time>2019-08-16T13:47:17Z</time>
      </trkpt>
      <trkpt lat="48.00547" lon="6.82555">
        <ele>1007.155579</ele>
        <time>2019-08-16T13:47:18Z</time>
      </trkpt>
      <trkpt lat="48.00545" lon="6.82558">
        <ele>1007.22821</ele>
        <time>2019-08-16T13:47:19Z</time>
      </trkpt>
      <trkpt lat="48.00544" lon="6.82561">
        <ele>1007.27533</ele>
        <time>2019-08-16T13:47:20Z</time>
      </trkpt>
      <trkpt lat="48.00544" lon="6.82564">
        <ele>1007.299561</ele>
        <time>2019-08-16T13:47:21Z</time>
      </trkpt>
      <trkpt lat="48.00542" lon="6.82567">
        <ele>1007.302795</ele>
        <time>2019-08-16T13:47:22Z</time>
      </trkpt>
      <trkpt lat="48.00541" lon="6.8257">
        <ele>1007.295166</ele>
        <time>2019-08-16T13:47:23Z</time>
      </trkpt>
      <trkpt lat="48.0054" lon="6.82573">
        <ele>1007.267273</ele>
        <time>2019-08-16T13:47:24Z</time>
      </trkpt>
      <trkpt lat="48.00538" lon="6.82576">
        <ele>1007.224121</ele>
        <time>2019-08-16T13:47:25Z</time>
      </trkpt>
      <trkpt lat="48.00536" lon="6.82579">
        <ele>1007.167969</ele>
        <time>2019-08-16T13:47:26Z</time>
      </trkpt>
      <trkpt lat="48.00535" lon="6.82581">
        <ele>1007.103088</ele>
        <time>2019-08-16T13:47:27Z</time>
      </trkpt>
      <trkpt lat="48.00533" lon="6.82583">
        <ele>1007.03241</ele>
        <time>2019-08-16T13:47:28Z</time>
      </trkpt>
      <trkpt lat="48.00532" lon="6.82586">
        <ele>1006.922791</ele>
        <time>2019-08-16T13:47:29Z</time>
      </trkpt>
      <trkpt lat="48.00531" lon="6.82588">
        <ele>1006.853577</ele>
        <time>2019-08-16T13:47:30Z</time>
      </trkpt>
      <trkpt lat="48.0053" lon="6.82591">
        <ele>1006.790283</ele>
        <time>2019-08-16T13:47:31Z</time>
      </trkpt>
      <trkpt lat="48.00528" lon="6.82594">
        <ele>1006.736633</ele>
        <time>2019-08-16T13:47:32Z</time>
      </trkpt>
      <trkpt lat="48.00526" lon="6.82596">
        <ele>1006.691711</ele>
        <time>2019-08-16T13:47:33Z</time>
      </trkpt>
      <trkpt lat="48.00525" lon="6.82599">
        <ele>1006.655273</ele>
        <time>2019-08-16T13:47:34Z</time>
      </trkpt>
      <trkpt lat="48.00523" lon="6.82601">
        <ele>1006.622498</ele>
        <time>2019-08-16T13:47:35Z</time>
      </trkpt>
      <trkpt lat="48.00522" lon="6.82604">
        <ele>1006.590637</ele>
        <time>2019-08-16T13:47:36Z</time>
      </trkpt>
      <trkpt lat="48.0052" lon="6.82606">
        <ele>1006.55365</ele>
        <time>2019-08-16T13:47:37Z</time>
      </trkpt>
      <trkpt lat="48.00519" lon="6.82609">
        <ele>1006.483643</ele>
        <time>2019-08-16T13:47:38Z</time>
      </trkpt>
      <trkpt lat="48.00518" lon="6.8261">
        <ele>1006.423035</ele>
        <time>2019-08-16T13:47:39Z</time>
      </trkpt>
      <trkpt lat="48.00517" lon="6.82611">
        <ele>1006.360291</ele>
        <time>2019-08-16T13:47:40Z</time>
      </trkpt>
      <trkpt lat="48.00516" lon="6.82612">
        <ele>1006.302429</ele>
        <time>2019-08-16T13:47:41Z</time>
      </trkpt>
      <trkpt lat="48.00514" lon="6.82612">
        <ele>1006.240051</ele>
        <time>2019-08-16T13:47:42Z</time>
      </trkpt>
      <trkpt lat="48.00512" lon="6.82613">
        <ele>1006.211914</ele>
        <time>2019-08-16T13:47:43Z</time>
      </trkpt>
      <trkpt lat="48.00511" lon="6.82613">
        <ele>1006.2005</ele>
        <time>2019-08-16T13:47:44Z</time>
      </trkpt>
      <trkpt lat="48.00509" lon="6.82613">
        <ele>1006.20282</ele>
        <time>2019-08-16T13:47:45Z</time>
      </trkpt>
      <trkpt lat="48.00508" lon="6.82614">
        <ele>1006.219421</ele>
        <time>2019-08-16T13:47:46Z</time>
      </trkpt>
      <trkpt lat="48.00507" lon="6.82613">
        <ele>1006.309631</ele>
        <time>2019-08-16T13:47:48Z</time>
      </trkpt>
      <trkpt lat="48.00506" lon="6.82612">
        <ele>1006.330078</ele>
        <time>2019-08-16T13:47:50Z</time>
      </trkpt>
      <trkpt lat="48.00505" lon="6.82612">
        <ele>1006.346863</ele>
        <time>2019-08-16T13:47:51Z</time>
      </trkpt>
      <trkpt lat="48.00505" lon="6.82611">
        <ele>1006.366272</ele>
        <time>2019-08-16T13:47:52Z</time>
      </trkpt>
      <trkpt lat="48.00495" lon="6.82608">
        <ele>1006.79718</ele>
        <time>2019-08-16T13:49:32Z</time>
      </trkpt>
      <trkpt lat="48.00492" lon="6.82607">
        <ele>1006.859375</ele>
        <time>2019-08-16T13:49:34Z</time>
      </trkpt>
      <trkpt lat="48.00489" lon="6.82607">
        <ele>1006.939758</ele>
        <time>2019-08-16T13:49:35Z</time>
      </trkpt>
      <trkpt lat="48.00486" lon="6.82607">
        <ele>1007.090515</ele>
        <time>2019-08-16T13:49:36Z</time>
      </trkpt>
      <trkpt lat="48.00484" lon="6.82607">
        <ele>1007.204346</ele>
        <time>2019-08-16T13:49:37Z</time>
      </trkpt>
      <trkpt lat="48.00481" lon="6.82607">
        <ele>1007.322754</ele>
        <time>2019-08-16T13:49:38Z</time>
      </trkpt>
      <trkpt lat="48.00479" lon="6.82607">
        <ele>1007.50293</ele>
        <time>2019-08-16T13:49:39Z</time>
      </trkpt>
      <trkpt lat="48.00476" lon="6.82607">
        <ele>1007.619568</ele>
        <time>2019-08-16T13:49:40Z</time>
      </trkpt>
      <trkpt lat="48.00473" lon="6.82608">
        <ele>1007.725098</ele>
        <time>2019-08-16T13:49:41Z</time>
      </trkpt>
      <trkpt lat="48.0047" lon="6.82609">
        <ele>1007.859802</ele>
        <time>2019-08-16T13:49:42Z</time>
      </trkpt>
      <trkpt lat="48.00468" lon="6.82609">
        <ele>1007.938904</ele>
        <time>2019-08-16T13:49:43Z</time>
      </trkpt>
      <trkpt lat="48.00465" lon="6.82611">
        <ele>1008.017517</ele>
        <time>2019-08-16T13:49:44Z</time>
      </trkpt>
      <trkpt lat="48.00463" lon="6.82612">
        <ele>1008.135193</ele>
        <time>2019-08-16T13:49:45Z</time>
      </trkpt>
      <trkpt lat="48.0046" lon="6.82614">
        <ele>1008.213318</ele>
        <time>2019-08-16T13:49:46Z</time>
      </trkpt>
      <trkpt lat="48.00457" lon="6.82616">
        <ele>1008.286682</ele>
        <time>2019-08-16T13:49:47Z</time>
      </trkpt>
      <trkpt lat="48.00455" lon="6.82619">
        <ele>1008.39032</ele>
        <time>2019-08-16T13:49:48Z</time>
      </trkpt>
      <trkpt lat="48.00452" lon="6.82621">
        <ele>1008.454102</ele>
        <time>2019-08-16T13:49:49Z</time>
      </trkpt>
      <trkpt lat="48.00449" lon="6.82624">
        <ele>1008.508606</ele>
        <time>2019-08-16T13:49:50Z</time>
      </trkpt>
      <trkpt lat="48.00447" lon="6.82627">
        <ele>1008.54657</ele>
        <time>2019-08-16T13:49:51Z</time>
      </trkpt>
      <trkpt lat="48.00445" lon="6.8263">
        <ele>1008.572449</ele>
        <time>2019-08-16T13:49:52Z</time>
      </trkpt>
      <trkpt lat="48.00443" lon="6.82633">
        <ele>1008.577698</ele>
        <time>2019-08-16T13:49:53Z</time>
      </trkpt>
      <trkpt lat="48.00441" lon="6.82636">
        <ele>1008.581848</ele>
        <time>2019-08-16T13:49:54Z</time>
      </trkpt>
      <trkpt lat="48.00439" lon="6.82639">
        <ele>1008.585022</ele>
        <time>2019-08-16T13:49:55Z</time>
      </trkpt>
      <trkpt lat="48.00437" lon="6.82643">
        <ele>1008.588623</ele>
        <time>2019-08-16T13:49:56Z</time>
      </trkpt>
      <trkpt lat="48.00436" lon="6.82646">
        <ele>1008.596191</ele>
        <time>2019-08-16T13:49:57Z</time>
      </trkpt>
      <trkpt lat="48.00433" lon="6.82649">
        <ele>1008.612061</ele>
        <time>2019-08-16T13:49:58Z</time>
      </trkpt>
      <trkpt lat="48.00432" lon="6.82652">
        <ele>1008.638184</ele>
        <time>2019-08-16T13:49:59Z</time>
      </trkpt>
      <trkpt lat="48.0043" lon="6.82656">
        <ele>1008.666992</ele>
        <time>2019-08-16T13:50:00Z</time>
      </trkpt>
      <trkpt lat="48.00428" lon="6.8266">
        <ele>1008.693909</ele>
        <time>2019-08-16T13:50:01Z</time>
      </trkpt>
      <trkpt lat="48.00426" lon="6.82663">
        <ele>1008.721375</ele>
        <time>2019-08-16T13:50:02Z</time>
      </trkpt>
      <trkpt lat="48.00424" lon="6.82667">
        <ele>1008.772949</ele>
        <time>2019-08-16T13:50:03Z</time>
      </trkpt>
      <trkpt lat="48.00422" lon="6.8267">
        <ele>1008.816589</ele>
        <time>2019-08-16T13:50:04Z</time>
      </trkpt>
      <trkpt lat="48.0042" lon="6.82674">
        <ele>1008.868713</ele>
        <time>2019-08-16T13:50:05Z</time>
      </trkpt>
      <trkpt lat="48.00418" lon="6.82678">
        <ele>1008.933533</ele>
        <time>2019-08-16T13:50:06Z</time>
      </trkpt>
      <trkpt lat="48.00417" lon="6.82681">
        <ele>1009.054382</ele>
        <time>2019-08-16T13:50:07Z</time>
      </trkpt>
      <trkpt lat="48.00415" lon="6.82685">
        <ele>1009.143494</ele>
        <time>2019-08-16T13:50:08Z</time>
      </trkpt>
      <trkpt lat="48.00414" lon="6.8269">
        <ele>1009.227234</ele>
        <time>2019-08-16T13:50:09Z</time>
      </trkpt>
      <trkpt lat="48.00412" lon="6.82694">
        <ele>1009.305969</ele>
        <time>2019-08-16T13:50:10Z</time>
      </trkpt>
      <trkpt lat="48.00411" lon="6.82697">
        <ele>1009.381653</ele>
        <time>2019-08-16T13:50:11Z</time>
      </trkpt>
      <trkpt lat="48.00411" lon="6.827">
        <ele>1009.458069</ele>
        <time>2019-08-16T13:50:12Z</time>
      </trkpt>
      <trkpt lat="48.0041" lon="6.82705">
        <ele>1009.530334</ele>
        <time>2019-08-16T13:50:13Z</time>
      </trkpt>
      <trkpt lat="48.00409" lon="6.82709">
        <ele>1009.602051</ele>
        <time>2019-08-16T13:50:14Z</time>
      </trkpt>
      <trkpt lat="48.00409" lon="6.82713">
        <ele>1009.680115</ele>
        <time>2019-08-16T13:50:15Z</time>
      </trkpt>
      <trkpt lat="48.00409" lon="6.82718">
        <ele>1009.722351</ele>
        <time>2019-08-16T13:50:16Z</time>
      </trkpt>
      <trkpt lat="48.00409" lon="6.82722">
        <ele>1009.769104</ele>
        <time>2019-08-16T13:50:17Z</time>
      </trkpt>
      <trkpt lat="48.00409" lon="6.82726">
        <ele>1009.868713</ele>
        <time>2019-08-16T13:50:18Z</time>
      </trkpt>
      <trkpt lat="48.00408" lon="6.82731">
        <ele>1009.972961</ele>
        <time>2019-08-16T13:50:19Z</time>
      </trkpt>
      <trkpt lat="48.00408" lon="6.82735">
        <ele>1010.089661</ele>
        <time>2019-08-16T13:50:20Z</time>
      </trkpt>
      <trkpt lat="48.00408" lon="6.8274">
        <ele>1010.222412</ele>
        <time>2019-08-16T13:50:21Z</time>
      </trkpt>
      <trkpt lat="48.00408" lon="6.82744">
        <ele>1010.378357</ele>
        <time>2019-08-16T13:50:22Z</time>
      </trkpt>
      <trkpt lat="48.00407" lon="6.82749">
        <ele>1010.554504</ele>
        <time>2019-08-16T13:50:23Z</time>
      </trkpt>
      <trkpt lat="48.00407" lon="6.82753">
        <ele>1010.738953</ele>
        <time>2019-08-16T13:50:24Z</time>
      </trkpt>
      <trkpt lat="48.00407" lon="6.82757">
        <ele>1010.922424</ele>
        <time>2019-08-16T13:50:25Z</time>
      </trkpt>
      <trkpt lat="48.00407" lon="6.82761">
        <ele>1011.092957</ele>
        <time>2019-08-16T13:50:26Z</time>
      </trkpt>
      <trkpt lat="48.00406" lon="6.82765">
        <ele>1011.249695</ele>
        <time>2019-08-16T13:50:27Z</time>
      </trkpt>
      <trkpt lat="48.00406" lon="6.82769">
        <ele>1011.46405</ele>
        <time>2019-08-16T13:50:28Z</time>
      </trkpt>
      <trkpt lat="48.00405" lon="6.82773">
        <ele>1011.606018</ele>
        <time>2019-08-16T13:50:29Z</time>
      </trkpt>
      <trkpt lat="48.00405" lon="6.82776">
        <ele>1011.757324</ele>
        <time>2019-08-16T13:50:30Z</time>
      </trkpt>
      <trkpt lat="48.00405" lon="6.8278">
        <ele>1011.923096</ele>
        <time>2019-08-16T13:50:31Z</time>
      </trkpt>
      <trkpt lat="48.00404" lon="6.82783">
        <ele>1012.114441</ele>
        <time>2019-08-16T13:50:32Z</time>
      </trkpt>
      <trkpt lat="48.00404" lon="6.82787">
        <ele>1012.339111</ele>
        <time>2019-08-16T13:50:33Z</time>
      </trkpt>
      <trkpt lat="48.00404" lon="6.82791">
        <ele>1012.601807</ele>
        <time>2019-08-16T13:50:34Z</time>
      </trkpt>
      <trkpt lat="48.00404" lon="6.82795">
        <ele>1012.893311</ele>
        <time>2019-08-16T13:50:35Z</time>
      </trkpt>
      <trkpt lat="48.00404" lon="6.82798">
        <ele>1013.193115</ele>
        <time>2019-08-16T13:50:36Z</time>
      </trkpt>
      <trkpt lat="48.00404" lon="6.82802">
        <ele>1013.483887</ele>
        <time>2019-08-16T13:50:37Z</time>
      </trkpt>
      <trkpt lat="48.00404" lon="6.82805">
        <ele>1013.749756</ele>
        <time>2019-08-16T13:50:38Z</time>
      </trkpt>
      <trkpt lat="48.00404" lon="6.82809">
        <ele>1014.09082</ele>
        <time>2019-08-16T13:50:39Z</time>
      </trkpt>
      <trkpt lat="48.00404" lon="6.82813">
        <ele>1014.280457</ele>
        <time>2019-08-16T13:50:40Z</time>
      </trkpt>
      <trkpt lat="48.00404" lon="6.82817">
        <ele>1014.450378</ele>
        <time>2019-08-16T13:50:41Z</time>
      </trkpt>
      <trkpt lat="48.00405" lon="6.82821">
        <ele>1014.605774</ele>
        <time>2019-08-16T13:50:42Z</time>
      </trkpt>
      <trkpt lat="48.00405" lon="6.82824">
        <ele>1014.753906</ele>
        <time>2019-08-16T13:50:43Z</time>
      </trkpt>
      <trkpt lat="48.00406" lon="6.82827">
        <ele>1014.90094</ele>
        <time>2019-08-16T13:50:44Z</time>
      </trkpt>
      <trkpt lat="48.00406" lon="6.82831">
        <ele>1015.057312</ele>
        <time>2019-08-16T13:50:45Z</time>
      </trkpt>
      <trkpt lat="48.00405" lon="6.82834">
        <ele>1015.223938</ele>
        <time>2019-08-16T13:50:46Z</time>
      </trkpt>
      <trkpt lat="48.00405" lon="6.82838">
        <ele>1015.398743</ele>
        <time>2019-08-16T13:50:47Z</time>
      </trkpt>
      <trkpt lat="48.00405" lon="6.82842">
        <ele>1015.57489</ele>
        <time>2019-08-16T13:50:48Z</time>
      </trkpt>
      <trkpt lat="48.00405" lon="6.82846">
        <ele>1015.745789</ele>
        <time>2019-08-16T13:50:49Z</time>
      </trkpt>
      <trkpt lat="48.00404" lon="6.82849">
        <ele>1015.908875</ele>
        <time>2019-08-16T13:50:50Z</time>
      </trkpt>
      <trkpt lat="48.00404" lon="6.82852">
        <ele>1016.066467</ele>
        <time>2019-08-16T13:50:51Z</time>
      </trkpt>
      <trkpt lat="48.00404" lon="6.82856">
        <ele>1016.226074</ele>
        <time>2019-08-16T13:50:52Z</time>
      </trkpt>
      <trkpt lat="48.00404" lon="6.82859">
        <ele>1016.384583</ele>
        <time>2019-08-16T13:50:53Z</time>
      </trkpt>
      <trkpt lat="48.00404" lon="6.82863">
        <ele>1016.549805</ele>
        <time>2019-08-16T13:50:54Z</time>
      </trkpt>
      <trkpt lat="48.00404" lon="6.82867">
        <ele>1016.724426</ele>
        <time>2019-08-16T13:50:55Z</time>
      </trkpt>
      <trkpt lat="48.00403" lon="6.82871">
        <ele>1016.918152</ele>
        <time>2019-08-16T13:50:56Z</time>
      </trkpt>
      <trkpt lat="48.00403" lon="6.82874">
        <ele>1017.131592</ele>
        <time>2019-08-16T13:50:57Z</time>
      </trkpt>
      <trkpt lat="48.00404" lon="6.82877">
        <ele>1017.361755</ele>
        <time>2019-08-16T13:50:58Z</time>
      </trkpt>
      <trkpt lat="48.00403" lon="6.82881">
        <ele>1017.723633</ele>
        <time>2019-08-16T13:50:59Z</time>
      </trkpt>
      <trkpt lat="48.00403" lon="6.82885">
        <ele>1017.954529</ele>
        <time>2019-08-16T13:51:00Z</time>
      </trkpt>
      <trkpt lat="48.00403" lon="6.82889">
        <ele>1018.16626</ele>
        <time>2019-08-16T13:51:01Z</time>
      </trkpt>
      <trkpt lat="48.00402" lon="6.82892">
        <ele>1018.349365</ele>
        <time>2019-08-16T13:51:02Z</time>
      </trkpt>
      <trkpt lat="48.00401" lon="6.82896">
        <ele>1018.507813</ele>
        <time>2019-08-16T13:51:03Z</time>
      </trkpt>
      <trkpt lat="48.00401" lon="6.829">
        <ele>1018.645691</ele>
        <time>2019-08-16T13:51:04Z</time>
      </trkpt>
      <trkpt lat="48.004" lon="6.82904">
        <ele>1018.769226</ele>
        <time>2019-08-16T13:51:05Z</time>
      </trkpt>
      <trkpt lat="48.00399" lon="6.82907">
        <ele>1018.8797</ele>
        <time>2019-08-16T13:51:06Z</time>
      </trkpt>
      <trkpt lat="48.00399" lon="6.8291">
        <ele>1019.023499</ele>
        <time>2019-08-16T13:51:07Z</time>
      </trkpt>
      <trkpt lat="48.00398" lon="6.82914">
        <ele>1019.12085</ele>
        <time>2019-08-16T13:51:08Z</time>
      </trkpt>
      <trkpt lat="48.00397" lon="6.82917">
        <ele>1019.235291</ele>
        <time>2019-08-16T13:51:09Z</time>
      </trkpt>
      <trkpt lat="48.00396" lon="6.8292">
        <ele>1019.366211</ele>
        <time>2019-08-16T13:51:10Z</time>
      </trkpt>
      <trkpt lat="48.00395" lon="6.82923">
        <ele>1019.50531</ele>
        <time>2019-08-16T13:51:11Z</time>
      </trkpt>
      <trkpt lat="48.00394" lon="6.82926">
        <ele>1019.646423</ele>
        <time>2019-08-16T13:51:12Z</time>
      </trkpt>
      <trkpt lat="48.00393" lon="6.82929">
        <ele>1019.791016</ele>
        <time>2019-08-16T13:51:13Z</time>
      </trkpt>
      <trkpt lat="48.00392" lon="6.82931">
        <ele>1020.016113</ele>
        <time>2019-08-16T13:51:14Z</time>
      </trkpt>
      <trkpt lat="48.00391" lon="6.82933">
        <ele>1020.160706</ele>
        <time>2019-08-16T13:51:15Z</time>
      </trkpt>
      <trkpt lat="48.00391" lon="6.82935">
        <ele>1020.295166</ele>
        <time>2019-08-16T13:51:16Z</time>
      </trkpt>
      <trkpt lat="48.00389" lon="6.82938">
        <ele>1020.360535</ele>
        <time>2019-08-16T13:51:17Z</time>
      </trkpt>
      <trkpt lat="48.00388" lon="6.82941">
        <ele>1020.426025</ele>
        <time>2019-08-16T13:51:18Z</time>
      </trkpt>
      <trkpt lat="48.00386" lon="6.82944">
        <ele>1020.563721</ele>
        <time>2019-08-16T13:51:19Z</time>
      </trkpt>
      <trkpt lat="48.00384" lon="6.82947">
        <ele>1020.710022</ele>
        <time>2019-08-16T13:51:20Z</time>
      </trkpt>
      <trkpt lat="48.00382" lon="6.82949">
        <ele>1020.865051</ele>
        <time>2019-08-16T13:51:21Z</time>
      </trkpt>
      <trkpt lat="48.0038" lon="6.82952">
        <ele>1021.026855</ele>
        <time>2019-08-16T13:51:22Z</time>
      </trkpt>
      <trkpt lat="48.00378" lon="6.82954">
        <ele>1021.267639</ele>
        <time>2019-08-16T13:51:23Z</time>
      </trkpt>
      <trkpt lat="48.00375" lon="6.82957">
        <ele>1021.408936</ele>
        <time>2019-08-16T13:51:24Z</time>
      </trkpt>
      <trkpt lat="48.00372" lon="6.82959">
        <ele>1021.525391</ele>
        <time>2019-08-16T13:51:25Z</time>
      </trkpt>
      <trkpt lat="48.0037" lon="6.8296">
        <ele>1021.656311</ele>
        <time>2019-08-16T13:51:26Z</time>
      </trkpt>
      <trkpt lat="48.00368" lon="6.82962">
        <ele>1021.719299</ele>
        <time>2019-08-16T13:51:27Z</time>
      </trkpt>
      <trkpt lat="48.00366" lon="6.82964">
        <ele>1021.771545</ele>
        <time>2019-08-16T13:51:28Z</time>
      </trkpt>
      <trkpt lat="48.00364" lon="6.82967">
        <ele>1021.843201</ele>
        <time>2019-08-16T13:51:29Z</time>
      </trkpt>
      <trkpt lat="48.00362" lon="6.8297">
        <ele>1021.890137</ele>
        <time>2019-08-16T13:51:30Z</time>
      </trkpt>
      <trkpt lat="48.00361" lon="6.82973">
        <ele>1021.939392</ele>
        <time>2019-08-16T13:51:31Z</time>
      </trkpt>
      <trkpt lat="48.00358" lon="6.82976">
        <ele>1022.024841</ele>
        <time>2019-08-16T13:51:32Z</time>
      </trkpt>
      <trkpt lat="48.00355" lon="6.82978">
        <ele>1022.09668</ele>
        <time>2019-08-16T13:51:33Z</time>
      </trkpt>
      <trkpt lat="48.00353" lon="6.8298">
        <ele>1022.176453</ele>
        <time>2019-08-16T13:51:34Z</time>
      </trkpt>
      <trkpt lat="48.00351" lon="6.82982">
        <ele>1022.292297</ele>
        <time>2019-08-16T13:51:35Z</time>
      </trkpt>
      <trkpt lat="48.00349" lon="6.82985">
        <ele>1022.36322</ele>
        <time>2019-08-16T13:51:36Z</time>
      </trkpt>
      <trkpt lat="48.00346" lon="6.82988">
        <ele>1022.428162</ele>
        <time>2019-08-16T13:51:37Z</time>
      </trkpt>
      <trkpt lat="48.00344" lon="6.8299">
        <ele>1022.517761</ele>
        <time>2019-08-16T13:51:38Z</time>
      </trkpt>
      <trkpt lat="48.00342" lon="6.82993">
        <ele>1022.571594</ele>
        <time>2019-08-16T13:51:39Z</time>
      </trkpt>
      <trkpt lat="48.00341" lon="6.82994">
        <ele>1022.619934</ele>
        <time>2019-08-16T13:51:40Z</time>
      </trkpt>
      <trkpt lat="48.0034" lon="6.82996">
        <ele>1022.679688</ele>
        <time>2019-08-16T13:51:41Z</time>
      </trkpt>
      <trkpt lat="48.00338" lon="6.82998">
        <ele>1022.710449</ele>
        <time>2019-08-16T13:51:42Z</time>
      </trkpt>
      <trkpt lat="48.00335" lon="6.83">
        <ele>1022.729492</ele>
        <time>2019-08-16T13:51:43Z</time>
      </trkpt>
      <trkpt lat="48.00332" lon="6.83003">
        <ele>1022.744446</ele>
        <time>2019-08-16T13:51:44Z</time>
      </trkpt>
      <trkpt lat="48.00329" lon="6.83006">
        <ele>1022.753479</ele>
        <time>2019-08-16T13:51:45Z</time>
      </trkpt>
      <trkpt lat="48.00327" lon="6.83008">
        <ele>1022.764099</ele>
        <time>2019-08-16T13:51:46Z</time>
      </trkpt>
      <trkpt lat="48.00324" lon="6.8301">
        <ele>1022.767334</ele>
        <time>2019-08-16T13:51:47Z</time>
      </trkpt>
      <trkpt lat="48.00321" lon="6.83013">
        <ele>1022.764832</ele>
        <time>2019-08-16T13:51:48Z</time>
      </trkpt>
      <trkpt lat="48.00319" lon="6.83016">
        <ele>1022.753357</ele>
        <time>2019-08-16T13:51:49Z</time>
      </trkpt>
      <trkpt lat="48.00316" lon="6.83019">
        <ele>1022.72821</ele>
        <time>2019-08-16T13:51:50Z</time>
      </trkpt>
      <trkpt lat="48.00314" lon="6.83022">
        <ele>1022.705627</ele>
        <time>2019-08-16T13:51:51Z</time>
      </trkpt>
      <trkpt lat="48.00312" lon="6.83025">
        <ele>1022.678528</ele>
        <time>2019-08-16T13:51:52Z</time>
      </trkpt>
      <trkpt lat="48.00309" lon="6.83028">
        <ele>1022.634094</ele>
        <time>2019-08-16T13:51:53Z</time>
      </trkpt>
      <trkpt lat="48.00306" lon="6.83031">
        <ele>1022.610168</ele>
        <time>2019-08-16T13:51:54Z</time>
      </trkpt>
      <trkpt lat="48.00303" lon="6.83035">
        <ele>1022.586853</ele>
        <time>2019-08-16T13:51:55Z</time>
      </trkpt>
      <trkpt lat="48.003" lon="6.83038">
        <ele>1022.558167</ele>
        <time>2019-08-16T13:51:56Z</time>
      </trkpt>
      <trkpt lat="48.00297" lon="6.83041">
        <ele>1022.5224</ele>
        <time>2019-08-16T13:51:57Z</time>
      </trkpt>
      <trkpt lat="48.00294" lon="6.83044">
        <ele>1022.479797</ele>
        <time>2019-08-16T13:51:58Z</time>
      </trkpt>
      <trkpt lat="48.0029" lon="6.83046">
        <ele>1022.458679</ele>
        <time>2019-08-16T13:51:59Z</time>
      </trkpt>
      <trkpt lat="48.00287" lon="6.83049">
        <ele>1022.429016</ele>
        <time>2019-08-16T13:52:00Z</time>
      </trkpt>
      <trkpt lat="48.00283" lon="6.83052">
        <ele>1022.341797</ele>
        <time>2019-08-16T13:52:01Z</time>
      </trkpt>
      <trkpt lat="48.0028" lon="6.83055">
        <ele>1022.263733</ele>
        <time>2019-08-16T13:52:02Z</time>
      </trkpt>
      <trkpt lat="48.00275" lon="6.83059">
        <ele>1022.182068</ele>
        <time>2019-08-16T13:52:03Z</time>
      </trkpt>
      <trkpt lat="48.00271" lon="6.83062">
        <ele>1022.048584</ele>
        <time>2019-08-16T13:52:04Z</time>
      </trkpt>
      <trkpt lat="48.00267" lon="6.83064">
        <ele>1021.93634</ele>
        <time>2019-08-16T13:52:05Z</time>
      </trkpt>
      <trkpt lat="48.00263" lon="6.83065">
        <ele>1021.801208</ele>
        <time>2019-08-16T13:52:06Z</time>
      </trkpt>
      <trkpt lat="48.00259" lon="6.83067">
        <ele>1021.569092</ele>
        <time>2019-08-16T13:52:07Z</time>
      </trkpt>
      <trkpt lat="48.00255" lon="6.83069">
        <ele>1021.420959</ele>
        <time>2019-08-16T13:52:08Z</time>
      </trkpt>
      <trkpt lat="48.00251" lon="6.8307">
        <ele>1021.299622</ele>
        <time>2019-08-16T13:52:09Z</time>
      </trkpt>
      <trkpt lat="48.00249" lon="6.83072">
        <ele>1021.181213</ele>
        <time>2019-08-16T13:52:10Z</time>
      </trkpt>
      <trkpt lat="48.00246" lon="6.83074">
        <ele>1021.143127</ele>
        <time>2019-08-16T13:52:11Z</time>
      </trkpt>
      <trkpt lat="48.00243" lon="6.83075">
        <ele>1021.137756</ele>
        <time>2019-08-16T13:52:12Z</time>
      </trkpt>
      <trkpt lat="48.0024" lon="6.83076">
        <ele>1021.164246</ele>
        <time>2019-08-16T13:52:13Z</time>
      </trkpt>
      <trkpt lat="48.00236" lon="6.83078">
        <ele>1021.243469</ele>
        <time>2019-08-16T13:52:14Z</time>
      </trkpt>
      <trkpt lat="48.00232" lon="6.8308">
        <ele>1021.451111</ele>
        <time>2019-08-16T13:52:15Z</time>
      </trkpt>
      <trkpt lat="48.00229" lon="6.83081">
        <ele>1021.634827</ele>
        <time>2019-08-16T13:52:16Z</time>
      </trkpt>
      <trkpt lat="48.00225" lon="6.83081">
        <ele>1021.8526</ele>
        <time>2019-08-16T13:52:17Z</time>
      </trkpt>
      <trkpt lat="48.00222" lon="6.83082">
        <ele>1021.970764</ele>
        <time>2019-08-16T13:52:18Z</time>
      </trkpt>
      <trkpt lat="48.00218" lon="6.83083">
        <ele>1022.327637</ele>
        <time>2019-08-16T13:52:19Z</time>
      </trkpt>
      <trkpt lat="48.00215" lon="6.83083">
        <ele>1022.551453</ele>
        <time>2019-08-16T13:52:20Z</time>
      </trkpt>
      <trkpt lat="48.00211" lon="6.83084">
        <ele>1022.75824</ele>
        <time>2019-08-16T13:52:21Z</time>
      </trkpt>
      <trkpt lat="48.00206" lon="6.83085">
        <ele>1023.036865</ele>
        <time>2019-08-16T13:52:22Z</time>
      </trkpt>
      <trkpt lat="48.00203" lon="6.83087">
        <ele>1023.196838</ele>
        <time>2019-08-16T13:52:23Z</time>
      </trkpt>
      <trkpt lat="48.002" lon="6.83087">
        <ele>1023.399414</ele>
        <time>2019-08-16T13:52:24Z</time>
      </trkpt>
      <trkpt lat="48.00198" lon="6.83086">
        <ele>1023.524963</ele>
        <time>2019-08-16T13:52:25Z</time>
      </trkpt>
      <trkpt lat="48.00195" lon="6.83086">
        <ele>1023.654785</ele>
        <time>2019-08-16T13:52:26Z</time>
      </trkpt>
      <trkpt lat="48.00192" lon="6.83085">
        <ele>1023.848083</ele>
        <time>2019-08-16T13:52:27Z</time>
      </trkpt>
      <trkpt lat="48.00189" lon="6.83085">
        <ele>1023.967712</ele>
        <time>2019-08-16T13:52:28Z</time>
      </trkpt>
      <trkpt lat="48.00186" lon="6.83084">
        <ele>1024.081909</ele>
        <time>2019-08-16T13:52:29Z</time>
      </trkpt>
      <trkpt lat="48.00182" lon="6.83084">
        <ele>1024.23291</ele>
        <time>2019-08-16T13:52:30Z</time>
      </trkpt>
      <trkpt lat="48.00179" lon="6.83083">
        <ele>1024.308228</ele>
        <time>2019-08-16T13:52:31Z</time>
      </trkpt>
      <trkpt lat="48.00174" lon="6.83081">
        <ele>1024.348511</ele>
        <time>2019-08-16T13:52:32Z</time>
      </trkpt>
      <trkpt lat="48.0017" lon="6.8308">
        <ele>1024.355713</ele>
        <time>2019-08-16T13:52:33Z</time>
      </trkpt>
      <trkpt lat="48.00166" lon="6.83077">
        <ele>1024.334351</ele>
        <time>2019-08-16T13:52:34Z</time>
      </trkpt>
      <trkpt lat="48.0016" lon="6.83075">
        <ele>1024.207031</ele>
        <time>2019-08-16T13:52:35Z</time>
      </trkpt>
      <trkpt lat="48.00155" lon="6.83074">
        <ele>1024.064941</ele>
        <time>2019-08-16T13:52:36Z</time>
      </trkpt>
      <trkpt lat="48.0015" lon="6.83073">
        <ele>1023.890137</ele>
        <time>2019-08-16T13:52:37Z</time>
      </trkpt>
      <trkpt lat="48.00146" lon="6.83072">
        <ele>1023.58075</ele>
        <time>2019-08-16T13:52:38Z</time>
      </trkpt>
      <trkpt lat="48.00142" lon="6.83071">
        <ele>1023.346375</ele>
        <time>2019-08-16T13:52:39Z</time>
      </trkpt>
      <trkpt lat="48.00139" lon="6.83072">
        <ele>1023.092285</ele>
        <time>2019-08-16T13:52:40Z</time>
      </trkpt>
      <trkpt lat="48.00137" lon="6.83073">
        <ele>1022.701355</ele>
        <time>2019-08-16T13:52:41Z</time>
      </trkpt>
      <trkpt lat="48.00135" lon="6.83073">
        <ele>1022.460022</ele>
        <time>2019-08-16T13:52:42Z</time>
      </trkpt>
      <trkpt lat="48.00134" lon="6.83072">
        <ele>1022.242676</ele>
        <time>2019-08-16T13:52:43Z</time>
      </trkpt>
      <trkpt lat="48.00133" lon="6.83071">
        <ele>1021.953064</ele>
        <time>2019-08-16T13:52:44Z</time>
      </trkpt>
      <trkpt lat="48.00132" lon="6.83069">
        <ele>1021.782227</ele>
        <time>2019-08-16T13:52:45Z</time>
      </trkpt>
      <trkpt lat="48.0013" lon="6.83067">
        <ele>1021.62323</ele>
        <time>2019-08-16T13:52:46Z</time>
      </trkpt>
      <trkpt lat="48.00128" lon="6.83067">
        <ele>1021.478577</ele>
        <time>2019-08-16T13:52:47Z</time>
      </trkpt>
      <trkpt lat="48.00127" lon="6.83066">
        <ele>1021.291077</ele>
        <time>2019-08-16T13:52:48Z</time>
      </trkpt>
      <trkpt lat="48.00126" lon="6.83066">
        <ele>1021.176575</ele>
        <time>2019-08-16T13:52:49Z</time>
      </trkpt>
      <trkpt lat="48.00128" lon="6.8308">
        <ele>1020.298523</ele>
        <time>2019-08-16T13:53:53Z</time>
      </trkpt>
      <trkpt lat="48.0013" lon="6.83083">
        <ele>1020.223694</ele>
        <time>2019-08-16T13:53:55Z</time>
      </trkpt>
      <trkpt lat="48.00132" lon="6.83088">
        <ele>1020.105896</ele>
        <time>2019-08-16T13:53:56Z</time>
      </trkpt>
      <trkpt lat="48.00133" lon="6.83093">
        <ele>1020.022461</ele>
        <time>2019-08-16T13:53:57Z</time>
      </trkpt>
      <trkpt lat="48.00135" lon="6.83098">
        <ele>1019.937073</ele>
        <time>2019-08-16T13:53:58Z</time>
      </trkpt>
      <trkpt lat="48.00137" lon="6.83103">
        <ele>1019.853943</ele>
        <time>2019-08-16T13:53:59Z</time>
      </trkpt>
      <trkpt lat="48.00138" lon="6.83107">
        <ele>1019.787292</ele>
        <time>2019-08-16T13:54:00Z</time>
      </trkpt>
      <trkpt lat="48.0014" lon="6.83111">
        <ele>1019.766785</ele>
        <time>2019-08-16T13:54:01Z</time>
      </trkpt>
      <trkpt lat="48.00142" lon="6.83115">
        <ele>1019.777161</ele>
        <time>2019-08-16T13:54:02Z</time>
      </trkpt>
      <trkpt lat="48.00143" lon="6.83118">
        <ele>1019.843567</ele>
        <time>2019-08-16T13:54:03Z</time>
      </trkpt>
      <trkpt lat="48.00145" lon="6.83122">
        <ele>1020.022034</ele>
        <time>2019-08-16T13:54:04Z</time>
      </trkpt>
      <trkpt lat="48.00147" lon="6.83127">
        <ele>1020.165344</ele>
        <time>2019-08-16T13:54:05Z</time>
      </trkpt>
      <trkpt lat="48.00149" lon="6.83133">
        <ele>1020.305115</ele>
        <time>2019-08-16T13:54:06Z</time>
      </trkpt>
      <trkpt lat="48.0015" lon="6.83139">
        <ele>1020.42218</ele>
        <time>2019-08-16T13:54:07Z</time>
      </trkpt>
      <trkpt lat="48.00151" lon="6.83144">
        <ele>1020.514343</ele>
        <time>2019-08-16T13:54:08Z</time>
      </trkpt>
      <trkpt lat="48.00153" lon="6.83149">
        <ele>1020.581299</ele>
        <time>2019-08-16T13:54:09Z</time>
      </trkpt>
      <trkpt lat="48.00155" lon="6.83152">
        <ele>1020.636963</ele>
        <time>2019-08-16T13:54:10Z</time>
      </trkpt>
      <trkpt lat="48.00156" lon="6.83157">
        <ele>1020.704651</ele>
        <time>2019-08-16T13:54:11Z</time>
      </trkpt>
      <trkpt lat="48.00157" lon="6.83161">
        <ele>1020.746338</ele>
        <time>2019-08-16T13:54:12Z</time>
      </trkpt>
      <trkpt lat="48.00159" lon="6.83166">
        <ele>1020.787781</ele>
        <time>2019-08-16T13:54:13Z</time>
      </trkpt>
      <trkpt lat="48.0016" lon="6.8317">
        <ele>1020.833496</ele>
        <time>2019-08-16T13:54:14Z</time>
      </trkpt>
      <trkpt lat="48.00162" lon="6.83175">
        <ele>1020.878479</ele>
        <time>2019-08-16T13:54:15Z</time>
      </trkpt>
      <trkpt lat="48.00163" lon="6.8318">
        <ele>1020.912048</ele>
        <time>2019-08-16T13:54:16Z</time>
      </trkpt>
      <trkpt lat="48.00163" lon="6.83185">
        <ele>1020.925781</ele>
        <time>2019-08-16T13:54:17Z</time>
      </trkpt>
      <trkpt lat="48.00164" lon="6.8319">
        <ele>1020.925781</ele>
        <time>2019-08-16T13:54:18Z</time>
      </trkpt>
      <trkpt lat="48.00165" lon="6.83195">
        <ele>1020.922363</ele>
        <time>2019-08-16T13:54:19Z</time>
      </trkpt>
      <trkpt lat="48.00166" lon="6.83199">
        <ele>1020.914734</ele>
        <time>2019-08-16T13:54:20Z</time>
      </trkpt>
      <trkpt lat="48.00166" lon="6.83204">
        <ele>1020.891052</ele>
        <time>2019-08-16T13:54:21Z</time>
      </trkpt>
      <trkpt lat="48.00168" lon="6.83209">
        <ele>1020.867859</ele>
        <time>2019-08-16T13:54:22Z</time>
      </trkpt>
      <trkpt lat="48.00168" lon="6.83214">
        <ele>1020.852234</ele>
        <time>2019-08-16T13:54:23Z</time>
      </trkpt>
      <trkpt lat="48.00169" lon="6.83219">
        <ele>1020.845459</ele>
        <time>2019-08-16T13:54:24Z</time>
      </trkpt>
      <trkpt lat="48.0017" lon="6.83224">
        <ele>1020.84259</ele>
        <time>2019-08-16T13:54:25Z</time>
      </trkpt>
      <trkpt lat="48.00171" lon="6.83229">
        <ele>1020.842957</ele>
        <time>2019-08-16T13:54:26Z</time>
      </trkpt>
      <trkpt lat="48.00173" lon="6.83234">
        <ele>1020.855042</ele>
        <time>2019-08-16T13:54:27Z</time>
      </trkpt>
      <trkpt lat="48.00175" lon="6.83239">
        <ele>1020.872131</ele>
        <time>2019-08-16T13:54:28Z</time>
      </trkpt>
      <trkpt lat="48.00177" lon="6.83244">
        <ele>1020.875427</ele>
        <time>2019-08-16T13:54:29Z</time>
      </trkpt>
      <trkpt lat="48.00181" lon="6.83248">
        <ele>1020.864014</ele>
        <time>2019-08-16T13:54:30Z</time>
      </trkpt>
      <trkpt lat="48.00184" lon="6.83253">
        <ele>1020.821289</ele>
        <time>2019-08-16T13:54:31Z</time>
      </trkpt>
      <trkpt lat="48.00187" lon="6.83259">
        <ele>1020.757568</ele>
        <time>2019-08-16T13:54:32Z</time>
      </trkpt>
      <trkpt lat="48.0019" lon="6.83264">
        <ele>1020.60553</ele>
        <time>2019-08-16T13:54:33Z</time>
      </trkpt>
      <trkpt lat="48.00193" lon="6.83269">
        <ele>1020.435608</ele>
        <time>2019-08-16T13:54:34Z</time>
      </trkpt>
      <trkpt lat="48.00195" lon="6.83275">
        <ele>1020.198975</ele>
        <time>2019-08-16T13:54:35Z</time>
      </trkpt>
      <trkpt lat="48.00196" lon="6.83281">
        <ele>1019.917542</ele>
        <time>2019-08-16T13:54:36Z</time>
      </trkpt>
      <trkpt lat="48.00197" lon="6.83288">
        <ele>1019.61908</ele>
        <time>2019-08-16T13:54:37Z</time>
      </trkpt>
      <trkpt lat="48.00199" lon="6.83294">
        <ele>1019.318604</ele>
        <time>2019-08-16T13:54:38Z</time>
      </trkpt>
      <trkpt lat="48.00202" lon="6.83299">
        <ele>1019.008301</ele>
        <time>2019-08-16T13:54:39Z</time>
      </trkpt>
      <trkpt lat="48.00206" lon="6.83304">
        <ele>1018.679443</ele>
        <time>2019-08-16T13:54:40Z</time>
      </trkpt>
      <trkpt lat="48.00211" lon="6.83308">
        <ele>1018.156921</ele>
        <time>2019-08-16T13:54:41Z</time>
      </trkpt>
      <trkpt lat="48.00215" lon="6.83311">
        <ele>1017.803528</ele>
        <time>2019-08-16T13:54:42Z</time>
      </trkpt>
      <trkpt lat="48.00218" lon="6.83314">
        <ele>1017.442322</ele>
        <time>2019-08-16T13:54:43Z</time>
      </trkpt>
      <trkpt lat="48.00221" lon="6.83316">
        <ele>1016.87323</ele>
        <time>2019-08-16T13:54:44Z</time>
      </trkpt>
      <trkpt lat="48.00221" lon="6.83319">
        <ele>1016.492371</ele>
        <time>2019-08-16T13:54:45Z</time>
      </trkpt>
      <trkpt lat="48.00231" lon="6.83329">
        <ele>1014.176575</ele>
        <time>2019-08-16T13:55:11Z</time>
      </trkpt>
      <trkpt lat="48.00234" lon="6.83332">
        <ele>1014.178406</ele>
        <time>2019-08-16T13:55:13Z</time>
      </trkpt>
      <trkpt lat="48.00236" lon="6.83334">
        <ele>1014.178223</ele>
        <time>2019-08-16T13:55:14Z</time>
      </trkpt>
      <trkpt lat="48.00239" lon="6.83336">
        <ele>1014.175842</ele>
        <time>2019-08-16T13:55:15Z</time>
      </trkpt>
      <trkpt lat="48.00242" lon="6.83338">
        <ele>1014.172668</ele>
        <time>2019-08-16T13:55:16Z</time>
      </trkpt>
      <trkpt lat="48.00245" lon="6.8334">
        <ele>1014.158386</ele>
        <time>2019-08-16T13:55:17Z</time>
      </trkpt>
      <trkpt lat="48.00247" lon="6.83342">
        <ele>1014.107605</ele>
        <time>2019-08-16T13:55:18Z</time>
      </trkpt>
      <trkpt lat="48.0025" lon="6.83344">
        <ele>1014.08197</ele>
        <time>2019-08-16T13:55:19Z</time>
      </trkpt>
      <trkpt lat="48.00251" lon="6.83344">
        <ele>1013.98468</ele>
        <time>2019-08-16T13:55:20Z</time>
      </trkpt>
      <trkpt lat="48.00253" lon="6.83343">
        <ele>1013.907043</ele>
        <time>2019-08-16T13:55:21Z</time>
      </trkpt>
      <trkpt lat="48.00253" lon="6.83341">
        <ele>1013.826172</ele>
        <time>2019-08-16T13:55:22Z</time>
      </trkpt>
      <trkpt lat="48.00251" lon="6.8334">
        <ele>1013.747498</ele>
        <time>2019-08-16T13:55:23Z</time>
      </trkpt>
      <trkpt lat="48.0025" lon="6.83338">
        <ele>1013.663025</ele>
        <time>2019-08-16T13:55:24Z</time>
      </trkpt>
      <trkpt lat="48.00248" lon="6.83336">
        <ele>1013.65332</ele>
        <time>2019-08-16T13:55:25Z</time>
      </trkpt>
      <trkpt lat="48.00245" lon="6.83333">
        <ele>1013.655945</ele>
        <time>2019-08-16T13:55:26Z</time>
      </trkpt>
      <trkpt lat="48.00243" lon="6.8333">
        <ele>1013.741211</ele>
        <time>2019-08-16T13:55:27Z</time>
      </trkpt>
      <trkpt lat="48.00242" lon="6.83327">
        <ele>1013.852051</ele>
        <time>2019-08-16T13:55:28Z</time>
      </trkpt>
      <trkpt lat="48.00242" lon="6.83323">
        <ele>1014.000732</ele>
        <time>2019-08-16T13:55:29Z</time>
      </trkpt>
      <trkpt lat="48.00241" lon="6.8332">
        <ele>1014.176941</ele>
        <time>2019-08-16T13:55:30Z</time>
      </trkpt>
      <trkpt lat="48.00241" lon="6.83317">
        <ele>1014.46051</ele>
        <time>2019-08-16T13:55:31Z</time>
      </trkpt>
      <trkpt lat="48.00241" lon="6.83314">
        <ele>1014.646301</ele>
        <time>2019-08-16T13:55:32Z</time>
      </trkpt>
      <trkpt lat="48.00242" lon="6.83311">
        <ele>1014.824463</ele>
        <time>2019-08-16T13:55:33Z</time>
      </trkpt>
      <trkpt lat="48.00243" lon="6.83308">
        <ele>1014.989929</ele>
        <time>2019-08-16T13:55:34Z</time>
      </trkpt>
      <trkpt lat="48.00243" lon="6.83306">
        <ele>1015.211487</ele>
        <time>2019-08-16T13:55:35Z</time>
      </trkpt>
      <trkpt lat="48.00245" lon="6.83304">
        <ele>1015.332764</ele>
        <time>2019-08-16T13:55:36Z</time>
      </trkpt>
      <trkpt lat="48.00246" lon="6.83302">
        <ele>1015.431458</ele>
        <time>2019-08-16T13:55:37Z</time>
      </trkpt>
      <trkpt lat="48.00248" lon="6.833">
        <ele>1015.511536</ele>
        <time>2019-08-16T13:55:38Z</time>
      </trkpt>
      <trkpt lat="48.00249" lon="6.83298">
        <ele>1015.574951</ele>
        <time>2019-08-16T13:55:39Z</time>
      </trkpt>
      <trkpt lat="48.00251" lon="6.83297">
        <ele>1015.62793</ele>
        <time>2019-08-16T13:55:40Z</time>
      </trkpt>
      <trkpt lat="48.00252" lon="6.83295">
        <ele>1015.691895</ele>
        <time>2019-08-16T13:55:41Z</time>
      </trkpt>
      <trkpt lat="48.00253" lon="6.83293">
        <ele>1015.722412</ele>
        <time>2019-08-16T13:55:42Z</time>
      </trkpt>
      <trkpt lat="48.00255" lon="6.8329">
        <ele>1015.744324</ele>
        <time>2019-08-16T13:55:43Z</time>
      </trkpt>
      <trkpt lat="48.00257" lon="6.83287">
        <ele>1015.764343</ele>
        <time>2019-08-16T13:55:44Z</time>
      </trkpt>
      <trkpt lat="48.00259" lon="6.83283">
        <ele>1015.789856</ele>
        <time>2019-08-16T13:55:45Z</time>
      </trkpt>
      <trkpt lat="48.00261" lon="6.83281">
        <ele>1015.818298</ele>
        <time>2019-08-16T13:55:46Z</time>
      </trkpt>
      <trkpt lat="48.00264" lon="6.83278">
        <ele>1015.818298</ele>
        <time>2019-08-16T13:55:47Z</time>
      </trkpt>
      <trkpt lat="48.00266" lon="6.83275">
        <ele>1015.813477</ele>
        <time>2019-08-16T13:55:48Z</time>
      </trkpt>
      <trkpt lat="48.00268" lon="6.83272">
        <ele>1015.777283</ele>
        <time>2019-08-16T13:55:49Z</time>
      </trkpt>
      <trkpt lat="48.00271" lon="6.83268">
        <ele>1015.746643</ele>
        <time>2019-08-16T13:55:50Z</time>
      </trkpt>
      <trkpt lat="48.00273" lon="6.83265">
        <ele>1015.710205</ele>
        <time>2019-08-16T13:55:51Z</time>
      </trkpt>
      <trkpt lat="48.00275" lon="6.83262">
        <ele>1015.66333</ele>
        <time>2019-08-16T13:55:52Z</time>
      </trkpt>
      <trkpt lat="48.00277" lon="6.83259">
        <ele>1015.608459</ele>
        <time>2019-08-16T13:55:53Z</time>
      </trkpt>
      <trkpt lat="48.0028" lon="6.83256">
        <ele>1015.550049</ele>
        <time>2019-08-16T13:55:54Z</time>
      </trkpt>
      <trkpt lat="48.00283" lon="6.83253">
        <ele>1015.452148</ele>
        <time>2019-08-16T13:55:55Z</time>
      </trkpt>
      <trkpt lat="48.00285" lon="6.83249">
        <ele>1015.367981</ele>
        <time>2019-08-16T13:55:56Z</time>
      </trkpt>
      <trkpt lat="48.00288" lon="6.83245">
        <ele>1015.258972</ele>
        <time>2019-08-16T13:55:57Z</time>
      </trkpt>
      <trkpt lat="48.00291" lon="6.83241">
        <ele>1015.058289</ele>
        <time>2019-08-16T13:55:58Z</time>
      </trkpt>
      <trkpt lat="48.00294" lon="6.83236">
        <ele>1014.89679</ele>
        <time>2019-08-16T13:55:59Z</time>
      </trkpt>
      <trkpt lat="48.00297" lon="6.83232">
        <ele>1014.713562</ele>
        <time>2019-08-16T13:56:00Z</time>
      </trkpt>
      <trkpt lat="48.003" lon="6.83227">
        <ele>1014.407288</ele>
        <time>2019-08-16T13:56:01Z</time>
      </trkpt>
      <trkpt lat="48.00303" lon="6.83223">
        <ele>1014.196106</ele>
        <time>2019-08-16T13:56:02Z</time>
      </trkpt>
      <trkpt lat="48.00306" lon="6.83218">
        <ele>1013.978821</ele>
        <time>2019-08-16T13:56:03Z</time>
      </trkpt>
      <trkpt lat="48.00309" lon="6.83212">
        <ele>1013.641357</ele>
        <time>2019-08-16T13:56:04Z</time>
      </trkpt>
      <trkpt lat="48.00313" lon="6.83205">
        <ele>1013.407227</ele>
        <time>2019-08-16T13:56:05Z</time>
      </trkpt>
      <trkpt lat="48.00317" lon="6.83199">
        <ele>1013.167786</ele>
        <time>2019-08-16T13:56:06Z</time>
      </trkpt>
      <trkpt lat="48.00322" lon="6.83194">
        <ele>1012.918518</ele>
        <time>2019-08-16T13:56:07Z</time>
      </trkpt>
      <trkpt lat="48.00325" lon="6.83189">
        <ele>1012.652405</ele>
        <time>2019-08-16T13:56:08Z</time>
      </trkpt>
      <trkpt lat="48.00329" lon="6.83185">
        <ele>1012.233215</ele>
        <time>2019-08-16T13:56:09Z</time>
      </trkpt>
      <trkpt lat="48.00333" lon="6.83181">
        <ele>1011.973633</ele>
        <time>2019-08-16T13:56:10Z</time>
      </trkpt>
      <trkpt lat="48.00338" lon="6.83176">
        <ele>1011.737061</ele>
        <time>2019-08-16T13:56:11Z</time>
      </trkpt>
      <trkpt lat="48.00342" lon="6.8317">
        <ele>1011.392151</ele>
        <time>2019-08-16T13:56:12Z</time>
      </trkpt>
      <trkpt lat="48.00347" lon="6.83164">
        <ele>1011.158264</ele>
        <time>2019-08-16T13:56:13Z</time>
      </trkpt>
      <trkpt lat="48.00351" lon="6.83159">
        <ele>1010.930969</ele>
        <time>2019-08-16T13:56:14Z</time>
      </trkpt>
      <trkpt lat="48.00355" lon="6.83154">
        <ele>1010.725586</ele>
        <time>2019-08-16T13:56:15Z</time>
      </trkpt>
      <trkpt lat="48.00358" lon="6.83149">
        <ele>1010.544617</ele>
        <time>2019-08-16T13:56:16Z</time>
      </trkpt>
      <trkpt lat="48.00361" lon="6.83144">
        <ele>1010.289551</ele>
        <time>2019-08-16T13:56:17Z</time>
      </trkpt>
      <trkpt lat="48.00364" lon="6.8314">
        <ele>1010.127502</ele>
        <time>2019-08-16T13:56:18Z</time>
      </trkpt>
      <trkpt lat="48.00367" lon="6.83137">
        <ele>1009.992981</ele>
        <time>2019-08-16T13:56:19Z</time>
      </trkpt>
      <trkpt lat="48.00369" lon="6.83133">
        <ele>1009.948975</ele>
        <time>2019-08-16T13:56:20Z</time>
      </trkpt>
      <trkpt lat="48.00372" lon="6.8313">
        <ele>1009.922852</ele>
        <time>2019-08-16T13:56:21Z</time>
      </trkpt>
      <trkpt lat="48.00375" lon="6.83126">
        <ele>1009.914734</ele>
        <time>2019-08-16T13:56:22Z</time>
      </trkpt>
      <trkpt lat="48.00378" lon="6.83122">
        <ele>1009.923096</ele>
        <time>2019-08-16T13:56:23Z</time>
      </trkpt>
      <trkpt lat="48.00379" lon="6.83118">
        <ele>1009.985413</ele>
        <time>2019-08-16T13:56:24Z</time>
      </trkpt>
      <trkpt lat="48.00382" lon="6.83115">
        <ele>1010.149902</ele>
        <time>2019-08-16T13:56:25Z</time>
      </trkpt>
      <trkpt lat="48.00385" lon="6.83111">
        <ele>1010.298828</ele>
        <time>2019-08-16T13:56:26Z</time>
      </trkpt>
      <trkpt lat="48.00387" lon="6.83107">
        <ele>1010.474121</ele>
        <time>2019-08-16T13:56:27Z</time>
      </trkpt>
      <trkpt lat="48.0039" lon="6.83103">
        <ele>1010.658508</ele>
        <time>2019-08-16T13:56:28Z</time>
      </trkpt>
      <trkpt lat="48.00393" lon="6.83099">
        <ele>1010.829346</ele>
        <time>2019-08-16T13:56:29Z</time>
      </trkpt>
      <trkpt lat="48.00396" lon="6.83096">
        <ele>1010.975342</ele>
        <time>2019-08-16T13:56:30Z</time>
      </trkpt>
      <trkpt lat="48.00399" lon="6.83093">
        <ele>1011.102234</ele>
        <time>2019-08-16T13:56:31Z</time>
      </trkpt>
      <trkpt lat="48.00402" lon="6.83091">
        <ele>1011.275208</ele>
        <time>2019-08-16T13:56:32Z</time>
      </trkpt>
      <trkpt lat="48.00405" lon="6.83088">
        <ele>1011.38324</ele>
        <time>2019-08-16T13:56:33Z</time>
      </trkpt>
      <trkpt lat="48.00408" lon="6.83085">
        <ele>1011.486145</ele>
        <time>2019-08-16T13:56:34Z</time>
      </trkpt>
      <trkpt lat="48.00411" lon="6.83081">
        <ele>1011.615234</ele>
        <time>2019-08-16T13:56:35Z</time>
      </trkpt>
      <trkpt lat="48.00413" lon="6.83078">
        <ele>1011.690613</ele>
        <time>2019-08-16T13:56:36Z</time>
      </trkpt>
      <trkpt lat="48.00415" lon="6.83075">
        <ele>1011.765381</ele>
        <time>2019-08-16T13:56:37Z</time>
      </trkpt>
      <trkpt lat="48.00417" lon="6.83071">
        <ele>1011.838379</ele>
        <time>2019-08-16T13:56:38Z</time>
      </trkpt>
      <trkpt lat="48.00419" lon="6.83069">
        <ele>1011.9104</ele>
        <time>2019-08-16T13:56:39Z</time>
      </trkpt>
      <trkpt lat="48.0042" lon="6.83067">
        <ele>1011.975281</ele>
        <time>2019-08-16T13:56:40Z</time>
      </trkpt>
      <trkpt lat="48.00422" lon="6.83065">
        <ele>1012.02832</ele>
        <time>2019-08-16T13:56:41Z</time>
      </trkpt>
      <trkpt lat="48.00424" lon="6.83061">
        <ele>1012.081482</ele>
        <time>2019-08-16T13:56:42Z</time>
      </trkpt>
      <trkpt lat="48.00426" lon="6.83057">
        <ele>1012.106445</ele>
        <time>2019-08-16T13:56:43Z</time>
      </trkpt>
      <trkpt lat="48.00428" lon="6.83052">
        <ele>1012.132813</ele>
        <time>2019-08-16T13:56:44Z</time>
      </trkpt>
      <trkpt lat="48.0043" lon="6.83047">
        <ele>1012.155579</ele>
        <time>2019-08-16T13:56:45Z</time>
      </trkpt>
      <trkpt lat="48.00432" lon="6.83042">
        <ele>1012.17218</ele>
        <time>2019-08-16T13:56:46Z</time>
      </trkpt>
      <trkpt lat="48.00434" lon="6.83037">
        <ele>1012.175293</ele>
        <time>2019-08-16T13:56:47Z</time>
      </trkpt>
      <trkpt lat="48.00437" lon="6.83032">
        <ele>1012.172058</ele>
        <time>2019-08-16T13:56:48Z</time>
      </trkpt>
      <trkpt lat="48.0044" lon="6.83028">
        <ele>1012.156555</ele>
        <time>2019-08-16T13:56:49Z</time>
      </trkpt>
      <trkpt lat="48.00443" lon="6.83023">
        <ele>1012.125977</ele>
        <time>2019-08-16T13:56:50Z</time>
      </trkpt>
      <trkpt lat="48.00445" lon="6.83018">
        <ele>1012.083008</ele>
        <time>2019-08-16T13:56:51Z</time>
      </trkpt>
      <trkpt lat="48.00448" lon="6.83013">
        <ele>1012.023376</ele>
        <time>2019-08-16T13:56:52Z</time>
      </trkpt>
      <trkpt lat="48.00451" lon="6.83008">
        <ele>1011.927429</ele>
        <time>2019-08-16T13:56:53Z</time>
      </trkpt>
      <trkpt lat="48.00454" lon="6.83004">
        <ele>1011.869934</ele>
        <time>2019-08-16T13:56:54Z</time>
      </trkpt>
      <trkpt lat="48.00457" lon="6.83">
        <ele>1011.821106</ele>
        <time>2019-08-16T13:56:55Z</time>
      </trkpt>
      <trkpt lat="48.0046" lon="6.82996">
        <ele>1011.760559</ele>
        <time>2019-08-16T13:56:56Z</time>
      </trkpt>
      <trkpt lat="48.00464" lon="6.82992">
        <ele>1011.636902</ele>
        <time>2019-08-16T13:56:57Z</time>
      </trkpt>
      <trkpt lat="48.00466" lon="6.82987">
        <ele>1011.542664</ele>
        <time>2019-08-16T13:56:58Z</time>
      </trkpt>
      <trkpt lat="48.00468" lon="6.82983">
        <ele>1011.447266</ele>
        <time>2019-08-16T13:56:59Z</time>
      </trkpt>
      <trkpt lat="48.0047" lon="6.82979">
        <ele>1011.338684</ele>
        <time>2019-08-16T13:57:00Z</time>
      </trkpt>
      <trkpt lat="48.00472" lon="6.82975">
        <ele>1011.205261</ele>
        <time>2019-08-16T13:57:01Z</time>
      </trkpt>
      <trkpt lat="48.00475" lon="6.8297">
        <ele>1011.053162</ele>
        <time>2019-08-16T13:57:02Z</time>
      </trkpt>
      <trkpt lat="48.00477" lon="6.82965">
        <ele>1010.904297</ele>
        <time>2019-08-16T13:57:03Z</time>
      </trkpt>
      <trkpt lat="48.00479" lon="6.8296">
        <ele>1010.717712</ele>
        <time>2019-08-16T13:57:04Z</time>
      </trkpt>
      <trkpt lat="48.00482" lon="6.82955">
        <ele>1010.613342</ele>
        <time>2019-08-16T13:57:05Z</time>
      </trkpt>
      <trkpt lat="48.00483" lon="6.82951">
        <ele>1010.518616</ele>
        <time>2019-08-16T13:57:06Z</time>
      </trkpt>
      <trkpt lat="48.00485" lon="6.82945">
        <ele>1010.436035</ele>
        <time>2019-08-16T13:57:07Z</time>
      </trkpt>
      <trkpt lat="48.00486" lon="6.82939">
        <ele>1010.368225</ele>
        <time>2019-08-16T13:57:08Z</time>
      </trkpt>
      <trkpt lat="48.00485" lon="6.82933">
        <ele>1010.313477</ele>
        <time>2019-08-16T13:57:09Z</time>
      </trkpt>
      <trkpt lat="48.00483" lon="6.82926">
        <ele>1010.266418</ele>
        <time>2019-08-16T13:57:10Z</time>
      </trkpt>
      <trkpt lat="48.00479" lon="6.8292">
        <ele>1010.175598</ele>
        <time>2019-08-16T13:57:11Z</time>
      </trkpt>
      <trkpt lat="48.00474" lon="6.82915">
        <ele>1010.077148</ele>
        <time>2019-08-16T13:57:12Z</time>
      </trkpt>
      <trkpt lat="48.00469" lon="6.82909">
        <ele>1009.848328</ele>
        <time>2019-08-16T13:57:13Z</time>
      </trkpt>
      <trkpt lat="48.00465" lon="6.82903">
        <ele>1009.646179</ele>
        <time>2019-08-16T13:57:14Z</time>
      </trkpt>
      <trkpt lat="48.00463" lon="6.82897">
        <ele>1009.406311</ele>
        <time>2019-08-16T13:57:15Z</time>
      </trkpt>
      <trkpt lat="48.00463" lon="6.82891">
        <ele>1009.150452</ele>
        <time>2019-08-16T13:57:16Z</time>
      </trkpt>
      <trkpt lat="48.00463" lon="6.82886">
        <ele>1008.795837</ele>
        <time>2019-08-16T13:57:17Z</time>
      </trkpt>
      <trkpt lat="48.00464" lon="6.82881">
        <ele>1008.623291</ele>
        <time>2019-08-16T13:57:18Z</time>
      </trkpt>
      <trkpt lat="48.00466" lon="6.82875">
        <ele>1008.530701</ele>
        <time>2019-08-16T13:57:19Z</time>
      </trkpt>
      <trkpt lat="48.00468" lon="6.8287">
        <ele>1008.520264</ele>
        <time>2019-08-16T13:57:20Z</time>
      </trkpt>
      <trkpt lat="48.0047" lon="6.82865">
        <ele>1008.520264</ele>
        <time>2019-08-16T13:57:21Z</time>
      </trkpt>
      <trkpt lat="48.00472" lon="6.82859">
        <ele>1008.532166</ele>
        <time>2019-08-16T13:57:22Z</time>
      </trkpt>
      <trkpt lat="48.00475" lon="6.82855">
        <ele>1008.613464</ele>
        <time>2019-08-16T13:57:23Z</time>
      </trkpt>
      <trkpt lat="48.00477" lon="6.8285">
        <ele>1008.808289</ele>
        <time>2019-08-16T13:57:24Z</time>
      </trkpt>
      <trkpt lat="48.00479" lon="6.82847">
        <ele>1008.953125</ele>
        <time>2019-08-16T13:57:25Z</time>
      </trkpt>
      <trkpt lat="48.00481" lon="6.82843">
        <ele>1009.09552</ele>
        <time>2019-08-16T13:57:26Z</time>
      </trkpt>
      <trkpt lat="48.00484" lon="6.82839">
        <ele>1009.223572</ele>
        <time>2019-08-16T13:57:27Z</time>
      </trkpt>
      <trkpt lat="48.00486" lon="6.82836">
        <ele>1009.384705</ele>
        <time>2019-08-16T13:57:28Z</time>
      </trkpt>
      <trkpt lat="48.00489" lon="6.82831">
        <ele>1009.484375</ele>
        <time>2019-08-16T13:57:29Z</time>
      </trkpt>
      <trkpt lat="48.00491" lon="6.82827">
        <ele>1009.590271</ele>
        <time>2019-08-16T13:57:30Z</time>
      </trkpt>
      <trkpt lat="48.00494" lon="6.82824">
        <ele>1009.706604</ele>
        <time>2019-08-16T13:57:31Z</time>
      </trkpt>
      <trkpt lat="48.00496" lon="6.8282">
        <ele>1009.826355</ele>
        <time>2019-08-16T13:57:32Z</time>
      </trkpt>
      <trkpt lat="48.00499" lon="6.82817">
        <ele>1009.953186</ele>
        <time>2019-08-16T13:57:33Z</time>
      </trkpt>
      <trkpt lat="48.00502" lon="6.82813">
        <ele>1010.156189</ele>
        <time>2019-08-16T13:57:34Z</time>
      </trkpt>
      <trkpt lat="48.00505" lon="6.82809">
        <ele>1010.294434</ele>
        <time>2019-08-16T13:57:35Z</time>
      </trkpt>
      <trkpt lat="48.00507" lon="6.82805">
        <ele>1010.429626</ele>
        <time>2019-08-16T13:57:36Z</time>
      </trkpt>
      <trkpt lat="48.00509" lon="6.82802">
        <ele>1010.565613</ele>
        <time>2019-08-16T13:57:37Z</time>
      </trkpt>
      <trkpt lat="48.00511" lon="6.82798">
        <ele>1010.703125</ele>
        <time>2019-08-16T13:57:38Z</time>
      </trkpt>
      <trkpt lat="48.00512" lon="6.82793">
        <ele>1010.848694</ele>
        <time>2019-08-16T13:57:39Z</time>
      </trkpt>
      <trkpt lat="48.00515" lon="6.82787">
        <ele>1010.997375</ele>
        <time>2019-08-16T13:57:40Z</time>
      </trkpt>
      <trkpt lat="48.00519" lon="6.82782">
        <ele>1011.135315</ele>
        <time>2019-08-16T13:57:41Z</time>
      </trkpt>
      <trkpt lat="48.00522" lon="6.82775">
        <ele>1011.282227</ele>
        <time>2019-08-16T13:57:42Z</time>
      </trkpt>
      <trkpt lat="48.00525" lon="6.82769">
        <ele>1011.307922</ele>
        <time>2019-08-16T13:57:43Z</time>
      </trkpt>
      <trkpt lat="48.00528" lon="6.82763">
        <ele>1011.307922</ele>
        <time>2019-08-16T13:57:44Z</time>
      </trkpt>
      <trkpt lat="48.00531" lon="6.82757">
        <ele>1011.261719</ele>
        <time>2019-08-16T13:57:45Z</time>
      </trkpt>
      <trkpt lat="48.00534" lon="6.82751">
        <ele>1011.055603</ele>
        <time>2019-08-16T13:57:46Z</time>
      </trkpt>
      <trkpt lat="48.00537" lon="6.82746">
        <ele>1010.854492</ele>
        <time>2019-08-16T13:57:47Z</time>
      </trkpt>
      <trkpt lat="48.00539" lon="6.8274">
        <ele>1010.624695</ele>
        <time>2019-08-16T13:57:48Z</time>
      </trkpt>
      <trkpt lat="48.00542" lon="6.82733">
        <ele>1010.395996</ele>
        <time>2019-08-16T13:57:49Z</time>
      </trkpt>
      <trkpt lat="48.00545" lon="6.82726">
        <ele>1010.195618</ele>
        <time>2019-08-16T13:57:50Z</time>
      </trkpt>
      <trkpt lat="48.00547" lon="6.82718">
        <ele>1009.956055</ele>
        <time>2019-08-16T13:57:51Z</time>
      </trkpt>
      <trkpt lat="48.00548" lon="6.82711">
        <ele>1009.810974</ele>
        <time>2019-08-16T13:57:52Z</time>
      </trkpt>
      <trkpt lat="48.0055" lon="6.82703">
        <ele>1009.657776</ele>
        <time>2019-08-16T13:57:53Z</time>
      </trkpt>
      <trkpt lat="48.00551" lon="6.82696">
        <ele>1009.497559</ele>
        <time>2019-08-16T13:57:54Z</time>
      </trkpt>
      <trkpt lat="48.00552" lon="6.82688">
        <ele>1009.337463</ele>
        <time>2019-08-16T13:57:55Z</time>
      </trkpt>
      <trkpt lat="48.00554" lon="6.82681">
        <ele>1009.180176</ele>
        <time>2019-08-16T13:57:56Z</time>
      </trkpt>
      <trkpt lat="48.00555" lon="6.82674">
        <ele>1009.017761</ele>
        <time>2019-08-16T13:57:57Z</time>
      </trkpt>
      <trkpt lat="48.00557" lon="6.82666">
        <ele>1008.845215</ele>
        <time>2019-08-16T13:57:58Z</time>
      </trkpt>
      <trkpt lat="48.00558" lon="6.82659">
        <ele>1008.6604</ele>
        <time>2019-08-16T13:57:59Z</time>
      </trkpt>
      <trkpt lat="48.00559" lon="6.82651">
        <ele>1008.472168</ele>
        <time>2019-08-16T13:58:00Z</time>
      </trkpt>
      <trkpt lat="48.00559" lon="6.82643">
        <ele>1008.281677</ele>
        <time>2019-08-16T13:58:01Z</time>
      </trkpt>
      <trkpt lat="48.0056" lon="6.82635">
        <ele>1008.085449</ele>
        <time>2019-08-16T13:58:02Z</time>
      </trkpt>
      <trkpt lat="48.0056" lon="6.82628">
        <ele>1007.882629</ele>
        <time>2019-08-16T13:58:03Z</time>
      </trkpt>
      <trkpt lat="48.00561" lon="6.8262">
        <ele>1007.677734</ele>
        <time>2019-08-16T13:58:04Z</time>
      </trkpt>
      <trkpt lat="48.0056" lon="6.82612">
        <ele>1007.477539</ele>
        <time>2019-08-16T13:58:05Z</time>
      </trkpt>
      <trkpt lat="48.0056" lon="6.82604">
        <ele>1007.286133</ele>
        <time>2019-08-16T13:58:06Z</time>
      </trkpt>
      <trkpt lat="48.0056" lon="6.82596">
        <ele>1007.108215</ele>
        <time>2019-08-16T13:58:07Z</time>
      </trkpt>
      <trkpt lat="48.00559" lon="6.82588">
        <ele>1006.954041</ele>
        <time>2019-08-16T13:58:08Z</time>
      </trkpt>
      <trkpt lat="48.00559" lon="6.8258">
        <ele>1006.822571</ele>
        <time>2019-08-16T13:58:09Z</time>
      </trkpt>
      <trkpt lat="48.00558" lon="6.82572">
        <ele>1006.705078</ele>
        <time>2019-08-16T13:58:10Z</time>
      </trkpt>
      <trkpt lat="48.00558" lon="6.82564">
        <ele>1006.583801</ele>
        <time>2019-08-16T13:58:11Z</time>
      </trkpt>
      <trkpt lat="48.00558" lon="6.82556">
        <ele>1006.452637</ele>
        <time>2019-08-16T13:58:12Z</time>
      </trkpt>
      <trkpt lat="48.00559" lon="6.82549">
        <ele>1006.319641</ele>
        <time>2019-08-16T13:58:13Z</time>
      </trkpt>
      <trkpt lat="48.00559" lon="6.82542">
        <ele>1006.206543</ele>
        <time>2019-08-16T13:58:14Z</time>
      </trkpt>
      <trkpt lat="48.00561" lon="6.82535">
        <ele>1006.123535</ele>
        <time>2019-08-16T13:58:15Z</time>
      </trkpt>
      <trkpt lat="48.00563" lon="6.82528">
        <ele>1006.084534</ele>
        <time>2019-08-16T13:58:16Z</time>
      </trkpt>
      <trkpt lat="48.00564" lon="6.82521">
        <ele>1006.083496</ele>
        <time>2019-08-16T13:58:17Z</time>
      </trkpt>
      <trkpt lat="48.00562" lon="6.82514">
        <ele>1006.091858</ele>
        <time>2019-08-16T13:58:18Z</time>
      </trkpt>
      <trkpt lat="48.0056" lon="6.82507">
        <ele>1006.13623</ele>
        <time>2019-08-16T13:58:19Z</time>
      </trkpt>
      <trkpt lat="48.00556" lon="6.825">
        <ele>1006.187012</ele>
        <time>2019-08-16T13:58:20Z</time>
      </trkpt>
      <trkpt lat="48.00552" lon="6.82493">
        <ele>1006.199463</ele>
        <time>2019-08-16T13:58:21Z</time>
      </trkpt>
      <trkpt lat="48.00549" lon="6.82487">
        <ele>1006.199463</ele>
        <time>2019-08-16T13:58:22Z</time>
      </trkpt>
      <trkpt lat="48.00544" lon="6.82481">
        <ele>1006.19873</ele>
        <time>2019-08-16T13:58:23Z</time>
      </trkpt>
      <trkpt lat="48.00541" lon="6.82475">
        <ele>1006.151917</ele>
        <time>2019-08-16T13:58:24Z</time>
      </trkpt>
      <trkpt lat="48.00537" lon="6.82469">
        <ele>1006.040955</ele>
        <time>2019-08-16T13:58:25Z</time>
      </trkpt>
      <trkpt lat="48.00534" lon="6.82462">
        <ele>1005.772888</ele>
        <time>2019-08-16T13:58:26Z</time>
      </trkpt>
      <trkpt lat="48.00531" lon="6.82457">
        <ele>1005.55011</ele>
        <time>2019-08-16T13:58:27Z</time>
      </trkpt>
      <trkpt lat="48.00528" lon="6.82451">
        <ele>1005.327087</ele>
        <time>2019-08-16T13:58:28Z</time>
      </trkpt>
      <trkpt lat="48.00525" lon="6.82445">
        <ele>1005.126221</ele>
        <time>2019-08-16T13:58:29Z</time>
      </trkpt>
      <trkpt lat="48.00522" lon="6.82439">
        <ele>1004.956482</ele>
        <time>2019-08-16T13:58:30Z</time>
      </trkpt>
      <trkpt lat="48.00519" lon="6.82434">
        <ele>1004.812988</ele>
        <time>2019-08-16T13:58:31Z</time>
      </trkpt>
      <trkpt lat="48.00516" lon="6.82428">
        <ele>1004.696716</ele>
        <time>2019-08-16T13:58:32Z</time>
      </trkpt>
      <trkpt lat="48.00513" lon="6.82422">
        <ele>1004.599426</ele>
        <time>2019-08-16T13:58:33Z</time>
      </trkpt>
      <trkpt lat="48.00511" lon="6.82417">
        <ele>1004.520447</ele>
        <time>2019-08-16T13:58:34Z</time>
      </trkpt>
      <trkpt lat="48.0051" lon="6.82411">
        <ele>1004.456787</ele>
        <time>2019-08-16T13:58:35Z</time>
      </trkpt>
      <trkpt lat="48.00508" lon="6.82406">
        <ele>1004.373962</ele>
        <time>2019-08-16T13:58:36Z</time>
      </trkpt>
      <trkpt lat="48.00507" lon="6.82402">
        <ele>1004.318604</ele>
        <time>2019-08-16T13:58:37Z</time>
      </trkpt>
      <trkpt lat="48.00505" lon="6.82399">
        <ele>1004.274902</ele>
        <time>2019-08-16T13:58:38Z</time>
      </trkpt>
      <trkpt lat="48.00504" lon="6.82395">
        <ele>1004.261963</ele>
        <time>2019-08-16T13:58:39Z</time>
      </trkpt>
      <trkpt lat="48.00502" lon="6.82391">
        <ele>1004.269531</ele>
        <time>2019-08-16T13:58:40Z</time>
      </trkpt>
      <trkpt lat="48.00501" lon="6.82389">
        <ele>1004.310486</ele>
        <time>2019-08-16T13:58:41Z</time>
      </trkpt>
      <trkpt lat="48.00498" lon="6.82387">
        <ele>1004.371521</ele>
        <time>2019-08-16T13:58:42Z</time>
      </trkpt>
      <trkpt lat="48.00496" lon="6.82387">
        <ele>1004.468445</ele>
        <time>2019-08-16T13:58:43Z</time>
      </trkpt>
      <trkpt lat="48.00494" lon="6.82386">
        <ele>1004.53241</ele>
        <time>2019-08-16T13:58:44Z</time>
      </trkpt>
      <trkpt lat="48.00492" lon="6.82387">
        <ele>1004.620789</ele>
        <time>2019-08-16T13:58:45Z</time>
      </trkpt>
      <trkpt lat="48.00489" lon="6.82387">
        <ele>1004.675598</ele>
        <time>2019-08-16T13:58:46Z</time>
      </trkpt>
      <trkpt lat="48.00487" lon="6.82387">
        <ele>1004.739929</ele>
        <time>2019-08-16T13:58:47Z</time>
      </trkpt>
      <trkpt lat="48.00485" lon="6.82386">
        <ele>1004.857727</ele>
        <time>2019-08-16T13:58:48Z</time>
      </trkpt>
      <trkpt lat="48.00484" lon="6.82386">
        <ele>1004.943665</ele>
        <time>2019-08-16T13:58:49Z</time>
      </trkpt>
      <trkpt lat="48.00482" lon="6.82385">
        <ele>1005.033997</ele>
        <time>2019-08-16T13:58:50Z</time>
      </trkpt>
      <trkpt lat="48.0048" lon="6.82384">
        <ele>1005.132568</ele>
        <time>2019-08-16T13:58:51Z</time>
      </trkpt>
      <trkpt lat="48.00479" lon="6.82382">
        <ele>1005.309998</ele>
        <time>2019-08-16T13:58:52Z</time>
      </trkpt>
      <trkpt lat="48.00477" lon="6.82381">
        <ele>1005.447754</ele>
        <time>2019-08-16T13:58:53Z</time>
      </trkpt>
      <trkpt lat="48.00475" lon="6.82381">
        <ele>1005.590149</ele>
        <time>2019-08-16T13:58:54Z</time>
      </trkpt>
      <trkpt lat="48.00472" lon="6.8238">
        <ele>1005.800476</ele>
        <time>2019-08-16T13:58:55Z</time>
      </trkpt>
      <trkpt lat="48.0047" lon="6.82379">
        <ele>1005.947754</ele>
        <time>2019-08-16T13:58:56Z</time>
      </trkpt>
      <trkpt lat="48.00468" lon="6.82378">
        <ele>1006.106018</ele>
        <time>2019-08-16T13:58:57Z</time>
      </trkpt>
      <trkpt lat="48.00466" lon="6.82378">
        <ele>1006.353577</ele>
        <time>2019-08-16T13:58:58Z</time>
      </trkpt>
      <trkpt lat="48.00465" lon="6.82377">
        <ele>1006.515625</ele>
        <time>2019-08-16T13:58:59Z</time>
      </trkpt>
      <trkpt lat="48.00464" lon="6.82376">
        <ele>1006.679138</ele>
        <time>2019-08-16T13:59:00Z</time>
      </trkpt>
      <trkpt lat="48.00462" lon="6.82377">
        <ele>1006.940674</ele>
        <time>2019-08-16T13:59:01Z</time>
      </trkpt>
      <trkpt lat="48.0046" lon="6.82377">
        <ele>1007.124268</ele>
        <time>2019-08-16T13:59:02Z</time>
      </trkpt>
      <trkpt lat="48.00458" lon="6.82376">
        <ele>1007.304993</ele>
        <time>2019-08-16T13:59:03Z</time>
      </trkpt>
      <trkpt lat="48.00456" lon="6.82376">
        <ele>1007.557312</ele>
        <time>2019-08-16T13:59:04Z</time>
      </trkpt>
      <trkpt lat="48.00454" lon="6.82376">
        <ele>1007.710205</ele>
        <time>2019-08-16T13:59:05Z</time>
      </trkpt>
      <trkpt lat="48.00452" lon="6.82376">
        <ele>1007.850159</ele>
        <time>2019-08-16T13:59:06Z</time>
      </trkpt>
      <trkpt lat="48.0045" lon="6.82376">
        <ele>1008.032776</ele>
        <time>2019-08-16T13:59:07Z</time>
      </trkpt>
      <trkpt lat="48.00449" lon="6.82377">
        <ele>1008.306824</ele>
        <time>2019-08-16T13:59:08Z</time>
      </trkpt>
      <trkpt lat="48.00447" lon="6.82377">
        <ele>1008.41571</ele>
        <time>2019-08-16T13:59:10Z</time>
      </trkpt>
      <trkpt lat="48.00445" lon="6.82377">
        <ele>1008.523376</ele>
        <time>2019-08-16T13:59:11Z</time>
      </trkpt>
      <trkpt lat="48.00443" lon="6.82377">
        <ele>1008.683411</ele>
        <time>2019-08-16T13:59:12Z</time>
      </trkpt>
      <trkpt lat="48.00442" lon="6.82377">
        <ele>1009.114441</ele>
        <time>2019-08-16T13:59:14Z</time>
      </trkpt>
      <trkpt lat="48.00441" lon="6.82377">
        <ele>1009.254639</ele>
        <time>2019-08-16T13:59:16Z</time>
      </trkpt>
      <trkpt lat="48.0043" lon="6.82378">
        <ele>1010.334656</ele>
        <time>2019-08-16T13:59:22Z</time>
      </trkpt>
      <trkpt lat="48.00428" lon="6.82378">
        <ele>1010.500732</ele>
        <time>2019-08-16T13:59:24Z</time>
      </trkpt>
      <trkpt lat="48.00427" lon="6.82377">
        <ele>1010.739319</ele>
        <time>2019-08-16T13:59:25Z</time>
      </trkpt>
      <trkpt lat="48.00424" lon="6.82377">
        <ele>1010.895752</ele>
        <time>2019-08-16T13:59:26Z</time>
      </trkpt>
      <trkpt lat="48.00421" lon="6.82376">
        <ele>1011.044983</ele>
        <time>2019-08-16T13:59:27Z</time>
      </trkpt>
      <trkpt lat="48.00419" lon="6.82376">
        <ele>1011.23877</ele>
        <time>2019-08-16T13:59:28Z</time>
      </trkpt>
      <trkpt lat="48.00416" lon="6.82376">
        <ele>1011.345947</ele>
        <time>2019-08-16T13:59:29Z</time>
      </trkpt>
      <trkpt lat="48.00414" lon="6.82376">
        <ele>1011.489441</ele>
        <time>2019-08-16T13:59:30Z</time>
      </trkpt>
      <trkpt lat="48.00411" lon="6.82375">
        <ele>1011.575684</ele>
        <time>2019-08-16T13:59:31Z</time>
      </trkpt>
      <trkpt lat="48.00408" lon="6.82374">
        <ele>1011.645935</ele>
        <time>2019-08-16T13:59:32Z</time>
      </trkpt>
      <trkpt lat="48.00405" lon="6.82374">
        <ele>1011.70752</ele>
        <time>2019-08-16T13:59:33Z</time>
      </trkpt>
      <trkpt lat="48.00402" lon="6.82373">
        <ele>1011.722839</ele>
        <time>2019-08-16T13:59:34Z</time>
      </trkpt>
      <trkpt lat="48.00399" lon="6.82372">
        <ele>1011.730774</ele>
        <time>2019-08-16T13:59:35Z</time>
      </trkpt>
      <trkpt lat="48.00398" lon="6.82372">
        <ele>1011.74292</ele>
        <time>2019-08-16T13:59:36Z</time>
      </trkpt>
      <trkpt lat="48.00395" lon="6.82371">
        <ele>1011.753479</ele>
        <time>2019-08-16T13:59:37Z</time>
      </trkpt>
      <trkpt lat="48.00392" lon="6.8237">
        <ele>1011.766663</ele>
        <time>2019-08-16T13:59:38Z</time>
      </trkpt>
      <trkpt lat="48.0039" lon="6.8237">
        <ele>1011.79718</ele>
        <time>2019-08-16T13:59:39Z</time>
      </trkpt>
      <trkpt lat="48.00388" lon="6.82369">
        <ele>1011.833313</ele>
        <time>2019-08-16T13:59:40Z</time>
      </trkpt>
      <trkpt lat="48.00385" lon="6.82369">
        <ele>1011.912842</ele>
        <time>2019-08-16T13:59:41Z</time>
      </trkpt>
      <trkpt lat="48.00382" lon="6.8237">
        <ele>1011.972351</ele>
        <time>2019-08-16T13:59:42Z</time>
      </trkpt>
      <trkpt lat="48.00378" lon="6.8237">
        <ele>1012.029602</ele>
        <time>2019-08-16T13:59:43Z</time>
      </trkpt>
      <trkpt lat="48.00375" lon="6.82369">
        <ele>1012.098816</ele>
        <time>2019-08-16T13:59:44Z</time>
      </trkpt>
      <trkpt lat="48.00372" lon="6.82368">
        <ele>1012.137695</ele>
        <time>2019-08-16T13:59:45Z</time>
      </trkpt>
      <trkpt lat="48.00369" lon="6.82367">
        <ele>1012.175049</ele>
        <time>2019-08-16T13:59:46Z</time>
      </trkpt>
      <trkpt lat="48.00365" lon="6.82366">
        <ele>1012.232483</ele>
        <time>2019-08-16T13:59:47Z</time>
      </trkpt>
      <trkpt lat="48.00362" lon="6.82366">
        <ele>1012.26886</ele>
        <time>2019-08-16T13:59:48Z</time>
      </trkpt>
      <trkpt lat="48.00359" lon="6.82366">
        <ele>1012.337952</ele>
        <time>2019-08-16T13:59:49Z</time>
      </trkpt>
      <trkpt lat="48.00356" lon="6.82366">
        <ele>1012.400452</ele>
        <time>2019-08-16T13:59:50Z</time>
      </trkpt>
      <trkpt lat="48.00353" lon="6.82366">
        <ele>1012.471008</ele>
        <time>2019-08-16T13:59:51Z</time>
      </trkpt>
      <trkpt lat="48.0035" lon="6.82366">
        <ele>1012.569031</ele>
        <time>2019-08-16T13:59:52Z</time>
      </trkpt>
      <trkpt lat="48.00347" lon="6.82366">
        <ele>1012.628235</ele>
        <time>2019-08-16T13:59:53Z</time>
      </trkpt>
      <trkpt lat="48.00344" lon="6.82366">
        <ele>1012.686829</ele>
        <time>2019-08-16T13:59:54Z</time>
      </trkpt>
      <trkpt lat="48.0034" lon="6.82366">
        <ele>1012.770447</ele>
        <time>2019-08-16T13:59:55Z</time>
      </trkpt>
      <trkpt lat="48.00336" lon="6.82366">
        <ele>1012.818665</ele>
        <time>2019-08-16T13:59:56Z</time>
      </trkpt>
      <trkpt lat="48.00333" lon="6.82366">
        <ele>1012.861328</ele>
        <time>2019-08-16T13:59:57Z</time>
      </trkpt>
      <trkpt lat="48.00329" lon="6.82366">
        <ele>1012.947266</ele>
        <time>2019-08-16T13:59:58Z</time>
      </trkpt>
      <trkpt lat="48.00326" lon="6.82366">
        <ele>1013.030823</ele>
        <time>2019-08-16T13:59:59Z</time>
      </trkpt>
      <trkpt lat="48.00322" lon="6.82366">
        <ele>1013.134277</ele>
        <time>2019-08-16T14:00:00Z</time>
      </trkpt>
      <trkpt lat="48.00319" lon="6.82366">
        <ele>1013.301575</ele>
        <time>2019-08-16T14:00:01Z</time>
      </trkpt>
      <trkpt lat="48.00316" lon="6.82365">
        <ele>1013.418762</ele>
        <time>2019-08-16T14:00:02Z</time>
      </trkpt>
      <trkpt lat="48.00312" lon="6.82365">
        <ele>1013.537292</ele>
        <time>2019-08-16T14:00:03Z</time>
      </trkpt>
      <trkpt lat="48.00308" lon="6.82365">
        <ele>1013.715881</ele>
        <time>2019-08-16T14:00:04Z</time>
      </trkpt>
      <trkpt lat="48.00306" lon="6.82364">
        <ele>1013.822266</ele>
        <time>2019-08-16T14:00:05Z</time>
      </trkpt>
      <trkpt lat="48.00303" lon="6.82363">
        <ele>1013.914856</ele>
        <time>2019-08-16T14:00:06Z</time>
      </trkpt>
      <trkpt lat="48.00299" lon="6.82363">
        <ele>1014.02655</ele>
        <time>2019-08-16T14:00:07Z</time>
      </trkpt>
      <trkpt lat="48.00296" lon="6.82363">
        <ele>1014.09259</ele>
        <time>2019-08-16T14:00:08Z</time>
      </trkpt>
      <trkpt lat="48.00293" lon="6.82362">
        <ele>1014.152527</ele>
        <time>2019-08-16T14:00:09Z</time>
      </trkpt>
      <trkpt lat="48.0029" lon="6.82361">
        <ele>1014.232666</ele>
        <time>2019-08-16T14:00:10Z</time>
      </trkpt>
      <trkpt lat="48.00287" lon="6.8236">
        <ele>1014.281433</ele>
        <time>2019-08-16T14:00:11Z</time>
      </trkpt>
      <trkpt lat="48.00284" lon="6.82359">
        <ele>1014.331787</ele>
        <time>2019-08-16T14:00:12Z</time>
      </trkpt>
      <trkpt lat="48.0028" lon="6.82358">
        <ele>1014.424377</ele>
        <time>2019-08-16T14:00:13Z</time>
      </trkpt>
      <trkpt lat="48.00277" lon="6.82357">
        <ele>1014.499512</ele>
        <time>2019-08-16T14:00:14Z</time>
      </trkpt>
      <trkpt lat="48.00275" lon="6.82355">
        <ele>1014.590332</ele>
        <time>2019-08-16T14:00:15Z</time>
      </trkpt>
      <trkpt lat="48.00273" lon="6.82353">
        <ele>1014.765625</ele>
        <time>2019-08-16T14:00:16Z</time>
      </trkpt>
      <trkpt lat="48.00271" lon="6.82352">
        <ele>1014.899597</ele>
        <time>2019-08-16T14:00:17Z</time>
      </trkpt>
      <trkpt lat="48.00268" lon="6.82351">
        <ele>1015.042175</ele>
        <time>2019-08-16T14:00:18Z</time>
      </trkpt>
      <trkpt lat="48.00265" lon="6.82351">
        <ele>1015.2771</ele>
        <time>2019-08-16T14:00:19Z</time>
      </trkpt>
      <trkpt lat="48.00262" lon="6.8235">
        <ele>1015.444092</ele>
        <time>2019-08-16T14:00:20Z</time>
      </trkpt>
      <trkpt lat="48.00259" lon="6.82351">
        <ele>1015.698547</ele>
        <time>2019-08-16T14:00:21Z</time>
      </trkpt>
      <trkpt lat="48.00256" lon="6.8235">
        <ele>1015.783875</ele>
        <time>2019-08-16T14:00:22Z</time>
      </trkpt>
      <trkpt lat="48.00253" lon="6.8235">
        <ele>1015.783875</ele>
        <time>2019-08-16T14:00:23Z</time>
      </trkpt>
      <trkpt lat="48.0025" lon="6.8235">
        <ele>1015.955627</ele>
        <time>2019-08-16T14:00:24Z</time>
      </trkpt>
      <trkpt lat="48.00247" lon="6.8235">
        <ele>1016.227478</ele>
        <time>2019-08-16T14:00:25Z</time>
      </trkpt>
      <trkpt lat="48.00244" lon="6.8235">
        <ele>1016.417664</ele>
        <time>2019-08-16T14:00:26Z</time>
      </trkpt>
      <trkpt lat="48.00241" lon="6.8235">
        <ele>1016.703369</ele>
        <time>2019-08-16T14:00:27Z</time>
      </trkpt>
      <trkpt lat="48.00238" lon="6.82349">
        <ele>1016.888916</ele>
        <time>2019-08-16T14:00:28Z</time>
      </trkpt>
      <trkpt lat="48.00235" lon="6.8235">
        <ele>1017.069397</ele>
        <time>2019-08-16T14:00:29Z</time>
      </trkpt>
      <trkpt lat="48.00233" lon="6.8235">
        <ele>1017.319519</ele>
        <time>2019-08-16T14:00:30Z</time>
      </trkpt>
      <trkpt lat="48.00231" lon="6.82351">
        <ele>1017.464355</ele>
        <time>2019-08-16T14:00:31Z</time>
      </trkpt>
      <trkpt lat="48.00228" lon="6.82352">
        <ele>1017.592224</ele>
        <time>2019-08-16T14:00:32Z</time>
      </trkpt>
      <trkpt lat="48.00225" lon="6.82353">
        <ele>1017.757141</ele>
        <time>2019-08-16T14:00:33Z</time>
      </trkpt>
      <trkpt lat="48.00222" lon="6.82353">
        <ele>1018.019592</ele>
        <time>2019-08-16T14:00:35Z</time>
      </trkpt>
      <trkpt lat="48.00218" lon="6.82353">
        <ele>1018.059021</ele>
        <time>2019-08-16T14:00:37Z</time>
      </trkpt>
      <trkpt lat="48.00215" lon="6.82352">
        <ele>1018.075256</ele>
        <time>2019-08-16T14:00:38Z</time>
      </trkpt>
      <trkpt lat="48.00211" lon="6.82352">
        <ele>1018.075195</ele>
        <time>2019-08-16T14:00:39Z</time>
      </trkpt>
      <trkpt lat="48.00207" lon="6.82353">
        <ele>1018.061584</ele>
        <time>2019-08-16T14:00:40Z</time>
      </trkpt>
      <trkpt lat="48.00206" lon="6.82354">
        <ele>1017.911377</ele>
        <time>2019-08-16T14:00:41Z</time>
      </trkpt>
      <trkpt lat="48.00204" lon="6.82357">
        <ele>1017.832336</ele>
        <time>2019-08-16T14:00:43Z</time>
      </trkpt>
      <trkpt lat="48.00201" lon="6.8236">
        <ele>1017.765869</ele>
        <time>2019-08-16T14:00:44Z</time>
      </trkpt>
      <trkpt lat="48.00198" lon="6.82364">
        <ele>1017.695374</ele>
        <time>2019-08-16T14:00:45Z</time>
      </trkpt>
      <trkpt lat="48.00197" lon="6.82368">
        <ele>1017.673889</ele>
        <time>2019-08-16T14:00:46Z</time>
      </trkpt>
      <trkpt lat="48.00195" lon="6.82373">
        <ele>1017.673401</ele>
        <time>2019-08-16T14:00:47Z</time>
      </trkpt>
      <trkpt lat="48.00193" lon="6.82378">
        <ele>1017.679016</ele>
        <time>2019-08-16T14:00:48Z</time>
      </trkpt>
      <trkpt lat="48.00193" lon="6.82383">
        <ele>1017.706787</ele>
        <time>2019-08-16T14:00:49Z</time>
      </trkpt>
      <trkpt lat="48.00192" lon="6.82387">
        <ele>1017.746887</ele>
        <time>2019-08-16T14:00:50Z</time>
      </trkpt>
      <trkpt lat="48.0019" lon="6.82392">
        <ele>1017.833984</ele>
        <time>2019-08-16T14:00:51Z</time>
      </trkpt>
      <trkpt lat="48.0019" lon="6.82394">
        <ele>1017.904053</ele>
        <time>2019-08-16T14:00:52Z</time>
      </trkpt>
      <trkpt lat="48.00189" lon="6.82395">
        <ele>1017.977478</ele>
        <time>2019-08-16T14:00:53Z</time>
      </trkpt>
      <trkpt lat="48.00188" lon="6.82397">
        <ele>1018.055176</ele>
        <time>2019-08-16T14:00:54Z</time>
      </trkpt>
      <trkpt lat="48.00188" lon="6.82399">
        <ele>1018.144226</ele>
        <time>2019-08-16T14:00:55Z</time>
      </trkpt>
      <trkpt lat="48.00187" lon="6.82402">
        <ele>1018.249023</ele>
        <time>2019-08-16T14:00:56Z</time>
      </trkpt>
      <trkpt lat="48.00185" lon="6.82405">
        <ele>1018.363586</ele>
        <time>2019-08-16T14:00:57Z</time>
      </trkpt>
      <trkpt lat="48.00184" lon="6.82407">
        <ele>1018.543945</ele>
        <time>2019-08-16T14:00:58Z</time>
      </trkpt>
      <trkpt lat="48.00183" lon="6.82409">
        <ele>1018.668457</ele>
        <time>2019-08-16T14:00:59Z</time>
      </trkpt>
      <trkpt lat="48.00182" lon="6.82411">
        <ele>1018.806396</ele>
        <time>2019-08-16T14:01:00Z</time>
      </trkpt>
      <trkpt lat="48.00182" lon="6.82413">
        <ele>1019.050537</ele>
        <time>2019-08-16T14:01:01Z</time>
      </trkpt>
      <trkpt lat="48.00182" lon="6.82414">
        <ele>1019.44696</ele>
        <time>2019-08-16T14:01:02Z</time>
      </trkpt>
      <trkpt lat="48.0018" lon="6.82415">
        <ele>1019.678528</ele>
        <time>2019-08-16T14:01:04Z</time>
      </trkpt>
      <trkpt lat="48.00172" lon="6.82421">
        <ele>1023.49115</ele>
        <time>2019-08-16T14:01:19Z</time>
      </trkpt>
      <trkpt lat="48.00169" lon="6.82421">
        <ele>1023.739319</ele>
        <time>2019-08-16T14:01:21Z</time>
      </trkpt>
      <trkpt lat="48.00166" lon="6.82421">
        <ele>1024.154175</ele>
        <time>2019-08-16T14:01:22Z</time>
      </trkpt>
      <trkpt lat="48.00163" lon="6.8242">
        <ele>1024.304077</ele>
        <time>2019-08-16T14:01:23Z</time>
      </trkpt>
      <trkpt lat="48.00161" lon="6.82419">
        <ele>1024.772095</ele>
        <time>2019-08-16T14:01:24Z</time>
      </trkpt>
      <trkpt lat="48.00161" lon="6.82417">
        <ele>1025.073853</ele>
        <time>2019-08-16T14:01:25Z</time>
      </trkpt>
      <trkpt lat="48.0016" lon="6.82416">
        <ele>1025.347534</ele>
        <time>2019-08-16T14:01:26Z</time>
      </trkpt>
      <trkpt lat="48.00158" lon="6.82414">
        <ele>1025.598511</ele>
        <time>2019-08-16T14:01:27Z</time>
      </trkpt>
      <trkpt lat="48.00157" lon="6.82413">
        <ele>1025.943237</ele>
        <time>2019-08-16T14:01:28Z</time>
      </trkpt>
      <trkpt lat="48.00156" lon="6.82411">
        <ele>1026.149536</ele>
        <time>2019-08-16T14:01:29Z</time>
      </trkpt>
      <trkpt lat="48.00155" lon="6.82409">
        <ele>1026.331665</ele>
        <time>2019-08-16T14:01:30Z</time>
      </trkpt>
      <trkpt lat="48.00154" lon="6.82407">
        <ele>1026.496704</ele>
        <time>2019-08-16T14:01:31Z</time>
      </trkpt>
      <trkpt lat="48.00154" lon="6.82406">
        <ele>1026.650024</ele>
        <time>2019-08-16T14:01:32Z</time>
      </trkpt>
      <trkpt lat="48.00153" lon="6.82405">
        <ele>1026.868774</ele>
        <time>2019-08-16T14:01:33Z</time>
      </trkpt>
      <trkpt lat="48.00153" lon="6.82404">
        <ele>1027.162964</ele>
        <time>2019-08-16T14:01:34Z</time>
      </trkpt>
      <trkpt lat="48.00151" lon="6.82402">
        <ele>1027.316772</ele>
        <time>2019-08-16T14:01:36Z</time>
      </trkpt>
      <trkpt lat="48.0015" lon="6.82399">
        <ele>1027.472778</ele>
        <time>2019-08-16T14:01:37Z</time>
      </trkpt>
      <trkpt lat="48.0015" lon="6.82396">
        <ele>1027.627075</ele>
        <time>2019-08-16T14:01:38Z</time>
      </trkpt>
      <trkpt lat="48.0015" lon="6.82394">
        <ele>1027.779175</ele>
        <time>2019-08-16T14:01:39Z</time>
      </trkpt>
      <trkpt lat="48.00149" lon="6.82391">
        <ele>1027.926636</ele>
        <time>2019-08-16T14:01:40Z</time>
      </trkpt>
      <trkpt lat="48.00147" lon="6.82388">
        <ele>1028.137207</ele>
        <time>2019-08-16T14:01:41Z</time>
      </trkpt>
      <trkpt lat="48.00146" lon="6.82387">
        <ele>1028.27478</ele>
        <time>2019-08-16T14:01:42Z</time>
      </trkpt>
      <trkpt lat="48.00145" lon="6.82385">
        <ele>1028.412476</ele>
        <time>2019-08-16T14:01:43Z</time>
      </trkpt>
      <trkpt lat="48.00145" lon="6.82383">
        <ele>1028.553955</ele>
        <time>2019-08-16T14:01:44Z</time>
      </trkpt>
      <trkpt lat="48.00145" lon="6.8238">
        <ele>1028.701904</ele>
        <time>2019-08-16T14:01:45Z</time>
      </trkpt>
      <trkpt lat="48.00146" lon="6.82378">
        <ele>1028.858154</ele>
        <time>2019-08-16T14:01:46Z</time>
      </trkpt>
      <trkpt lat="48.00147" lon="6.82377">
        <ele>1029.021362</ele>
        <time>2019-08-16T14:01:47Z</time>
      </trkpt>
      <trkpt lat="48.00146" lon="6.82375">
        <ele>1029.189575</ele>
        <time>2019-08-16T14:01:48Z</time>
      </trkpt>
      <trkpt lat="48.00144" lon="6.82373">
        <ele>1029.362671</ele>
        <time>2019-08-16T14:01:49Z</time>
      </trkpt>
      <trkpt lat="48.00143" lon="6.8237">
        <ele>1029.53894</ele>
        <time>2019-08-16T14:01:50Z</time>
      </trkpt>
      <trkpt lat="48.00143" lon="6.82369">
        <ele>1029.886475</ele>
        <time>2019-08-16T14:01:51Z</time>
      </trkpt>
      <trkpt lat="48.00142" lon="6.82366">
        <ele>1030.053589</ele>
        <time>2019-08-16T14:01:53Z</time>
      </trkpt>
      <trkpt lat="48.00142" lon="6.82363">
        <ele>1030.207642</ele>
        <time>2019-08-16T14:01:54Z</time>
      </trkpt>
      <trkpt lat="48.00141" lon="6.8236">
        <ele>1030.342407</ele>
        <time>2019-08-16T14:01:55Z</time>
      </trkpt>
      <trkpt lat="48.0014" lon="6.82357">
        <ele>1030.453491</ele>
        <time>2019-08-16T14:01:56Z</time>
      </trkpt>
      <trkpt lat="48.00138" lon="6.82354">
        <ele>1030.545898</ele>
        <time>2019-08-16T14:01:57Z</time>
      </trkpt>
      <trkpt lat="48.00135" lon="6.82352">
        <ele>1030.667358</ele>
        <time>2019-08-16T14:01:58Z</time>
      </trkpt>
      <trkpt lat="48.00133" lon="6.8235">
        <ele>1030.74646</ele>
        <time>2019-08-16T14:01:59Z</time>
      </trkpt>
      <trkpt lat="48.00132" lon="6.82348">
        <ele>1030.822021</ele>
        <time>2019-08-16T14:02:00Z</time>
      </trkpt>
      <trkpt lat="48.00131" lon="6.82346">
        <ele>1030.893921</ele>
        <time>2019-08-16T14:02:01Z</time>
      </trkpt>
      <trkpt lat="48.0013" lon="6.82344">
        <ele>1031.018066</ele>
        <time>2019-08-16T14:02:02Z</time>
      </trkpt>
      <trkpt lat="48.00128" lon="6.82343">
        <ele>1031.126831</ele>
        <time>2019-08-16T14:02:03Z</time>
      </trkpt>
      <trkpt lat="48.00126" lon="6.82341">
        <ele>1031.250366</ele>
        <time>2019-08-16T14:02:04Z</time>
      </trkpt>
      <trkpt lat="48.00124" lon="6.8234">
        <ele>1031.436646</ele>
        <time>2019-08-16T14:02:05Z</time>
      </trkpt>
      <trkpt lat="48.00122" lon="6.82338">
        <ele>1031.558228</ele>
        <time>2019-08-16T14:02:06Z</time>
      </trkpt>
      <trkpt lat="48.0012" lon="6.82336">
        <ele>1031.674438</ele>
        <time>2019-08-16T14:02:07Z</time>
      </trkpt>
      <trkpt lat="48.00118" lon="6.82335">
        <ele>1031.827271</ele>
        <time>2019-08-16T14:02:08Z</time>
      </trkpt>
      <trkpt lat="48.00116" lon="6.82333">
        <ele>1031.909546</ele>
        <time>2019-08-16T14:02:09Z</time>
      </trkpt>
      <trkpt lat="48.00114" lon="6.82331">
        <ele>1031.977051</ele>
        <time>2019-08-16T14:02:10Z</time>
      </trkpt>
      <trkpt lat="48.00112" lon="6.82329">
        <ele>1032.063965</ele>
        <time>2019-08-16T14:02:11Z</time>
      </trkpt>
      <trkpt lat="48.0011" lon="6.82327">
        <ele>1032.121948</ele>
        <time>2019-08-16T14:02:12Z</time>
      </trkpt>
      <trkpt lat="48.00108" lon="6.82324">
        <ele>1032.189209</ele>
        <time>2019-08-16T14:02:13Z</time>
      </trkpt>
      <trkpt lat="48.00107" lon="6.8232">
        <ele>1032.312622</ele>
        <time>2019-08-16T14:02:14Z</time>
      </trkpt>
      <trkpt lat="48.00106" lon="6.82319">
        <ele>1032.403687</ele>
        <time>2019-08-16T14:02:15Z</time>
      </trkpt>
      <trkpt lat="48.00104" lon="6.82318">
        <ele>1032.491821</ele>
        <time>2019-08-16T14:02:16Z</time>
      </trkpt>
      <trkpt lat="48.00103" lon="6.82316">
        <ele>1032.581177</ele>
        <time>2019-08-16T14:02:17Z</time>
      </trkpt>
      <trkpt lat="48.00101" lon="6.82314">
        <ele>1032.747681</ele>
        <time>2019-08-16T14:02:18Z</time>
      </trkpt>
      <trkpt lat="48.00099" lon="6.82312">
        <ele>1032.884399</ele>
        <time>2019-08-16T14:02:19Z</time>
      </trkpt>
      <trkpt lat="48.00097" lon="6.82311">
        <ele>1033.026733</ele>
        <time>2019-08-16T14:02:20Z</time>
      </trkpt>
      <trkpt lat="48.00095" lon="6.8231">
        <ele>1033.166382</ele>
        <time>2019-08-16T14:02:21Z</time>
      </trkpt>
      <trkpt lat="48.00094" lon="6.82309">
        <ele>1033.369995</ele>
        <time>2019-08-16T14:02:22Z</time>
      </trkpt>
      <trkpt lat="48.00092" lon="6.82308">
        <ele>1033.436401</ele>
        <time>2019-08-16T14:02:23Z</time>
      </trkpt>
      <trkpt lat="48.0009" lon="6.82308">
        <ele>1033.500488</ele>
        <time>2019-08-16T14:02:24Z</time>
      </trkpt>
      <trkpt lat="48.00087" lon="6.82308">
        <ele>1033.621216</ele>
        <time>2019-08-16T14:02:25Z</time>
      </trkpt>
      <trkpt lat="48.00085" lon="6.82309">
        <ele>1033.778198</ele>
        <time>2019-08-16T14:02:26Z</time>
      </trkpt>
      <trkpt lat="48.00083" lon="6.8231">
        <ele>1033.876587</ele>
        <time>2019-08-16T14:02:27Z</time>
      </trkpt>
      <trkpt lat="48.00081" lon="6.82311">
        <ele>1033.976074</ele>
        <time>2019-08-16T14:02:28Z</time>
      </trkpt>
      <trkpt lat="48.0008" lon="6.82313">
        <ele>1034.079224</ele>
        <time>2019-08-16T14:02:29Z</time>
      </trkpt>
      <trkpt lat="48.00078" lon="6.82314">
        <ele>1034.250122</ele>
        <time>2019-08-16T14:02:30Z</time>
      </trkpt>
      <trkpt lat="48.00077" lon="6.82316">
        <ele>1034.381226</ele>
        <time>2019-08-16T14:02:31Z</time>
      </trkpt>
      <trkpt lat="48.00075" lon="6.82317">
        <ele>1034.523804</ele>
        <time>2019-08-16T14:02:32Z</time>
      </trkpt>
      <trkpt lat="48.00073" lon="6.82319">
        <ele>1034.681274</ele>
        <time>2019-08-16T14:02:33Z</time>
      </trkpt>
      <trkpt lat="48.00072" lon="6.82321">
        <ele>1034.856567</ele>
        <time>2019-08-16T14:02:34Z</time>
      </trkpt>
      <trkpt lat="48.00071" lon="6.82322">
        <ele>1035.05603</ele>
        <time>2019-08-16T14:02:35Z</time>
      </trkpt>
      <trkpt lat="48.00069" lon="6.82324">
        <ele>1035.278687</ele>
        <time>2019-08-16T14:02:36Z</time>
      </trkpt>
      <trkpt lat="48.00068" lon="6.82325">
        <ele>1035.872314</ele>
        <time>2019-08-16T14:02:37Z</time>
      </trkpt>
      <trkpt lat="48.00068" lon="6.82327">
        <ele>1036.101196</ele>
        <time>2019-08-16T14:02:39Z</time>
      </trkpt>
      <trkpt lat="48.00067" lon="6.82327">
        <ele>1036.585815</ele>
        <time>2019-08-16T14:02:40Z</time>
      </trkpt>
      <trkpt lat="48.00057" lon="6.82334">
        <ele>1037.0448</ele>
        <time>2019-08-16T14:02:46Z</time>
      </trkpt>
      <trkpt lat="48.00055" lon="6.82336">
        <ele>1037.055542</ele>
        <time>2019-08-16T14:02:48Z</time>
      </trkpt>
      <trkpt lat="48.00052" lon="6.82338">
        <ele>1037.109497</ele>
        <time>2019-08-16T14:02:49Z</time>
      </trkpt>
      <trkpt lat="48.00048" lon="6.82341">
        <ele>1037.177246</ele>
        <time>2019-08-16T14:02:51Z</time>
      </trkpt>
      <trkpt lat="48.00045" lon="6.82344">
        <ele>1037.228394</ele>
        <time>2019-08-16T14:02:52Z</time>
      </trkpt>
      <trkpt lat="48.00044" lon="6.82347">
        <ele>1037.283081</ele>
        <time>2019-08-16T14:02:53Z</time>
      </trkpt>
      <trkpt lat="48.00042" lon="6.82349">
        <ele>1037.33374</ele>
        <time>2019-08-16T14:02:54Z</time>
      </trkpt>
      <trkpt lat="48.00039" lon="6.82352">
        <ele>1037.388306</ele>
        <time>2019-08-16T14:02:55Z</time>
      </trkpt>
      <trkpt lat="48.00036" lon="6.82354">
        <ele>1037.407837</ele>
        <time>2019-08-16T14:02:56Z</time>
      </trkpt>
      <trkpt lat="48.00034" lon="6.82355">
        <ele>1037.42395</ele>
        <time>2019-08-16T14:02:57Z</time>
      </trkpt>
      <trkpt lat="48.00032" lon="6.82356">
        <ele>1037.453369</ele>
        <time>2019-08-16T14:02:58Z</time>
      </trkpt>
      <trkpt lat="48.00031" lon="6.82357">
        <ele>1037.502808</ele>
        <time>2019-08-16T14:02:59Z</time>
      </trkpt>
      <trkpt lat="48.00027" lon="6.82358">
        <ele>1037.540649</ele>
        <time>2019-08-16T14:03:01Z</time>
      </trkpt>
      <trkpt lat="48.00023" lon="6.82359">
        <ele>1037.561157</ele>
        <time>2019-08-16T14:03:02Z</time>
      </trkpt>
      <trkpt lat="48.00019" lon="6.8236">
        <ele>1037.565063</ele>
        <time>2019-08-16T14:03:03Z</time>
      </trkpt>
      <trkpt lat="48.00015" lon="6.8236">
        <ele>1037.5625</ele>
        <time>2019-08-16T14:03:04Z</time>
      </trkpt>
      <trkpt lat="48.00011" lon="6.8236">
        <ele>1037.513794</ele>
        <time>2019-08-16T14:03:05Z</time>
      </trkpt>
      <trkpt lat="48.00008" lon="6.82359">
        <ele>1037.44812</ele>
        <time>2019-08-16T14:03:06Z</time>
      </trkpt>
      <trkpt lat="48.00004" lon="6.82359">
        <ele>1037.372192</ele>
        <time>2019-08-16T14:03:07Z</time>
      </trkpt>
      <trkpt lat="48.00001" lon="6.82359">
        <ele>1037.2677</ele>
        <time>2019-08-16T14:03:08Z</time>
      </trkpt>
      <trkpt lat="47.99997" lon="6.82361">
        <ele>1037.220947</ele>
        <time>2019-08-16T14:03:09Z</time>
      </trkpt>
      <trkpt lat="47.99993" lon="6.82362">
        <ele>1037.197144</ele>
        <time>2019-08-16T14:03:10Z</time>
      </trkpt>
      <trkpt lat="47.99992" lon="6.82363">
        <ele>1037.238647</ele>
        <time>2019-08-16T14:03:12Z</time>
      </trkpt>
      <trkpt lat="47.99989" lon="6.82364">
        <ele>1037.270386</ele>
        <time>2019-08-16T14:03:14Z</time>
      </trkpt>
      <trkpt lat="47.99986" lon="6.82365">
        <ele>1037.271851</ele>
        <time>2019-08-16T14:03:16Z</time>
      </trkpt>
      <trkpt lat="47.99983" lon="6.82366">
        <ele>1037.265869</ele>
        <time>2019-08-16T14:03:17Z</time>
      </trkpt>
      <trkpt lat="47.99979" lon="6.82367">
        <ele>1037.260986</ele>
        <time>2019-08-16T14:03:18Z</time>
      </trkpt>
      <trkpt lat="47.99975" lon="6.82369">
        <ele>1037.257813</ele>
        <time>2019-08-16T14:03:19Z</time>
      </trkpt>
      <trkpt lat="47.99971" lon="6.8237">
        <ele>1037.258911</ele>
        <time>2019-08-16T14:03:20Z</time>
      </trkpt>
      <trkpt lat="47.99967" lon="6.8237">
        <ele>1037.270142</ele>
        <time>2019-08-16T14:03:21Z</time>
      </trkpt>
      <trkpt lat="47.99963" lon="6.82371">
        <ele>1037.285645</ele>
        <time>2019-08-16T14:03:22Z</time>
      </trkpt>
      <trkpt lat="47.9996" lon="6.82371">
        <ele>1037.307617</ele>
        <time>2019-08-16T14:03:23Z</time>
      </trkpt>
      <trkpt lat="47.99957" lon="6.82371">
        <ele>1037.322144</ele>
        <time>2019-08-16T14:03:24Z</time>
      </trkpt>
      <trkpt lat="47.99954" lon="6.82372">
        <ele>1037.34021</ele>
        <time>2019-08-16T14:03:25Z</time>
      </trkpt>
      <trkpt lat="47.99951" lon="6.82372">
        <ele>1037.390015</ele>
        <time>2019-08-16T14:03:26Z</time>
      </trkpt>
      <trkpt lat="47.99947" lon="6.82372">
        <ele>1037.51355</ele>
        <time>2019-08-16T14:03:27Z</time>
      </trkpt>
      <trkpt lat="47.99945" lon="6.82373">
        <ele>1037.630981</ele>
        <time>2019-08-16T14:03:28Z</time>
      </trkpt>
      <trkpt lat="47.99942" lon="6.82373">
        <ele>1037.774414</ele>
        <time>2019-08-16T14:03:29Z</time>
      </trkpt>
      <trkpt lat="47.9994" lon="6.82372">
        <ele>1038.042725</ele>
        <time>2019-08-16T14:03:30Z</time>
      </trkpt>
      <trkpt lat="47.99938" lon="6.82372">
        <ele>1038.255615</ele>
        <time>2019-08-16T14:03:31Z</time>
      </trkpt>
      <trkpt lat="47.99935" lon="6.82371">
        <ele>1038.490845</ele>
        <time>2019-08-16T14:03:32Z</time>
      </trkpt>
      <trkpt lat="47.99933" lon="6.82371">
        <ele>1038.872192</ele>
        <time>2019-08-16T14:03:33Z</time>
      </trkpt>
      <trkpt lat="47.99931" lon="6.82372">
        <ele>1039.141602</ele>
        <time>2019-08-16T14:03:34Z</time>
      </trkpt>
      <trkpt lat="47.99928" lon="6.82372">
        <ele>1039.418335</ele>
        <time>2019-08-16T14:03:35Z</time>
      </trkpt>
      <trkpt lat="47.99926" lon="6.82371">
        <ele>1039.825317</ele>
        <time>2019-08-16T14:03:36Z</time>
      </trkpt>
      <trkpt lat="47.99923" lon="6.82371">
        <ele>1040.07251</ele>
        <time>2019-08-16T14:03:37Z</time>
      </trkpt>
      <trkpt lat="47.99921" lon="6.82371">
        <ele>1040.291992</ele>
        <time>2019-08-16T14:03:38Z</time>
      </trkpt>
      <trkpt lat="47.99918" lon="6.82371">
        <ele>1040.57312</ele>
        <time>2019-08-16T14:03:39Z</time>
      </trkpt>
      <trkpt lat="47.99917" lon="6.82371">
        <ele>1040.733398</ele>
        <time>2019-08-16T14:03:40Z</time>
      </trkpt>
      <trkpt lat="47.99915" lon="6.82371">
        <ele>1040.875977</ele>
        <time>2019-08-16T14:03:41Z</time>
      </trkpt>
      <trkpt lat="47.99912" lon="6.82371">
        <ele>1041.060791</ele>
        <time>2019-08-16T14:03:42Z</time>
      </trkpt>
      <trkpt lat="47.99909" lon="6.82371">
        <ele>1041.168457</ele>
        <time>2019-08-16T14:03:43Z</time>
      </trkpt>
      <trkpt lat="47.99906" lon="6.82371">
        <ele>1041.274902</ele>
        <time>2019-08-16T14:03:44Z</time>
      </trkpt>
      <trkpt lat="47.99904" lon="6.82371">
        <ele>1041.445313</ele>
        <time>2019-08-16T14:03:45Z</time>
      </trkpt>
      <trkpt lat="47.99902" lon="6.82371">
        <ele>1041.560181</ele>
        <time>2019-08-16T14:03:46Z</time>
      </trkpt>
      <trkpt lat="47.999" lon="6.82371">
        <ele>1041.66687</ele>
        <time>2019-08-16T14:03:47Z</time>
      </trkpt>
      <trkpt lat="47.99897" lon="6.8237">
        <ele>1041.810059</ele>
        <time>2019-08-16T14:03:48Z</time>
      </trkpt>
      <trkpt lat="47.99895" lon="6.8237">
        <ele>1041.89856</ele>
        <time>2019-08-16T14:03:49Z</time>
      </trkpt>
      <trkpt lat="47.99892" lon="6.82369">
        <ele>1041.983521</ele>
        <time>2019-08-16T14:03:50Z</time>
      </trkpt>
      <trkpt lat="47.9989" lon="6.82368">
        <ele>1042.064087</ele>
        <time>2019-08-16T14:03:51Z</time>
      </trkpt>
      <trkpt lat="47.99889" lon="6.82368">
        <ele>1042.18811</ele>
        <time>2019-08-16T14:03:52Z</time>
      </trkpt>
      <trkpt lat="47.99886" lon="6.82367">
        <ele>1042.28418</ele>
        <time>2019-08-16T14:03:53Z</time>
      </trkpt>
      <trkpt lat="47.99884" lon="6.82366">
        <ele>1042.399292</ele>
        <time>2019-08-16T14:03:54Z</time>
      </trkpt>
      <trkpt lat="47.99883" lon="6.82367">
        <ele>1042.750488</ele>
        <time>2019-08-16T14:03:55Z</time>
      </trkpt>
      <trkpt lat="47.99881" lon="6.82368">
        <ele>1042.897827</ele>
        <time>2019-08-16T14:03:57Z</time>
      </trkpt>
      <trkpt lat="47.9988" lon="6.82369">
        <ele>1043.464233</ele>
        <time>2019-08-16T14:03:59Z</time>
      </trkpt>
      <trkpt lat="47.99878" lon="6.8237">
        <ele>1043.601929</ele>
        <time>2019-08-16T14:04:01Z</time>
      </trkpt>
      <trkpt lat="47.99869" lon="6.82374">
        <ele>1045.395142</ele>
        <time>2019-08-16T14:04:11Z</time>
      </trkpt>
      <trkpt lat="47.99868" lon="6.82375">
        <ele>1045.578247</ele>
        <time>2019-08-16T14:04:13Z</time>
      </trkpt>
      <trkpt lat="47.99866" lon="6.82377">
        <ele>1045.864502</ele>
        <time>2019-08-16T14:04:14Z</time>
      </trkpt>
      <trkpt lat="47.99864" lon="6.82379">
        <ele>1046.067993</ele>
        <time>2019-08-16T14:04:15Z</time>
      </trkpt>
      <trkpt lat="47.99862" lon="6.8238">
        <ele>1046.270264</ele>
        <time>2019-08-16T14:04:16Z</time>
      </trkpt>
      <trkpt lat="47.9986" lon="6.82381">
        <ele>1046.540527</ele>
        <time>2019-08-16T14:04:17Z</time>
      </trkpt>
      <trkpt lat="47.99859" lon="6.82382">
        <ele>1046.695068</ele>
        <time>2019-08-16T14:04:18Z</time>
      </trkpt>
      <trkpt lat="47.99857" lon="6.82383">
        <ele>1046.837524</ele>
        <time>2019-08-16T14:04:19Z</time>
      </trkpt>
      <trkpt lat="47.99855" lon="6.82384">
        <ele>1047.036255</ele>
        <time>2019-08-16T14:04:20Z</time>
      </trkpt>
      <trkpt lat="47.99854" lon="6.82386">
        <ele>1047.154297</ele>
        <time>2019-08-16T14:04:21Z</time>
      </trkpt>
      <trkpt lat="47.99853" lon="6.82387">
        <ele>1047.26416</ele>
        <time>2019-08-16T14:04:22Z</time>
      </trkpt>
      <trkpt lat="47.99852" lon="6.82388">
        <ele>1047.434937</ele>
        <time>2019-08-16T14:04:23Z</time>
      </trkpt>
      <trkpt lat="47.9985" lon="6.82389">
        <ele>1047.5</ele>
        <time>2019-08-16T14:04:24Z</time>
      </trkpt>
      <trkpt lat="47.99848" lon="6.8239">
        <ele>1047.569824</ele>
        <time>2019-08-16T14:04:25Z</time>
      </trkpt>
      <trkpt lat="47.99846" lon="6.82391">
        <ele>1047.720093</ele>
        <time>2019-08-16T14:04:26Z</time>
      </trkpt>
      <trkpt lat="47.99845" lon="6.82391">
        <ele>1047.956421</ele>
        <time>2019-08-16T14:04:27Z</time>
      </trkpt>
      <trkpt lat="47.99844" lon="6.82392">
        <ele>1048.119751</ele>
        <time>2019-08-16T14:04:28Z</time>
      </trkpt>
      <trkpt lat="47.99841" lon="6.82392">
        <ele>1048.290649</ele>
        <time>2019-08-16T14:04:29Z</time>
      </trkpt>
      <trkpt lat="47.99841" lon="6.82393">
        <ele>1048.724487</ele>
        <time>2019-08-16T14:04:30Z</time>
      </trkpt>
      <trkpt lat="47.99839" lon="6.82394">
        <ele>1048.886108</ele>
        <time>2019-08-16T14:04:32Z</time>
      </trkpt>
      <trkpt lat="47.99838" lon="6.82394">
        <ele>1049.111206</ele>
        <time>2019-08-16T14:04:33Z</time>
      </trkpt>
      <trkpt lat="47.99836" lon="6.82395">
        <ele>1049.255737</ele>
        <time>2019-08-16T14:04:34Z</time>
      </trkpt>
      <trkpt lat="47.99833" lon="6.82396">
        <ele>1049.392334</ele>
        <time>2019-08-16T14:04:35Z</time>
      </trkpt>
      <trkpt lat="47.99831" lon="6.82397">
        <ele>1049.574585</ele>
        <time>2019-08-16T14:04:36Z</time>
      </trkpt>
      <trkpt lat="47.9983" lon="6.82397">
        <ele>1049.679077</ele>
        <time>2019-08-16T14:04:37Z</time>
      </trkpt>
      <trkpt lat="47.99827" lon="6.82397">
        <ele>1049.773926</ele>
        <time>2019-08-16T14:04:38Z</time>
      </trkpt>
      <trkpt lat="47.99825" lon="6.82397">
        <ele>1049.906006</ele>
        <time>2019-08-16T14:04:39Z</time>
      </trkpt>
      <trkpt lat="47.99823" lon="6.82397">
        <ele>1049.987427</ele>
        <time>2019-08-16T14:04:40Z</time>
      </trkpt>
      <trkpt lat="47.99822" lon="6.82397">
        <ele>1050.069214</ele>
        <time>2019-08-16T14:04:41Z</time>
      </trkpt>
      <trkpt lat="47.9982" lon="6.82397">
        <ele>1050.225464</ele>
        <time>2019-08-16T14:04:42Z</time>
      </trkpt>
      <trkpt lat="47.99817" lon="6.82397">
        <ele>1050.366943</ele>
        <time>2019-08-16T14:04:43Z</time>
      </trkpt>
      <trkpt lat="47.99815" lon="6.82397">
        <ele>1050.536621</ele>
        <time>2019-08-16T14:04:44Z</time>
      </trkpt>
      <trkpt lat="47.99804" lon="6.824">
        <ele>1053.126587</ele>
        <time>2019-08-16T14:04:52Z</time>
      </trkpt>
      <trkpt lat="47.99802" lon="6.82401">
        <ele>1053.38147</ele>
        <time>2019-08-16T14:04:54Z</time>
      </trkpt>
      <trkpt lat="47.99801" lon="6.82401">
        <ele>1053.891602</ele>
        <time>2019-08-16T14:04:55Z</time>
      </trkpt>
      <trkpt lat="47.99801" lon="6.82401">
        <ele>1054.040405</ele>
        <time>2019-08-16T14:04:57Z</time>
      </trkpt>
      <trkpt lat="47.99799" lon="6.82401">
        <ele>1054.228271</ele>
        <time>2019-08-16T14:04:58Z</time>
      </trkpt>
      <trkpt lat="47.99791" lon="6.82404">
        <ele>1054.898926</ele>
        <time>2019-08-16T14:05:04Z</time>
      </trkpt>
      <trkpt lat="47.99788" lon="6.82405">
        <ele>1054.978516</ele>
        <time>2019-08-16T14:05:06Z</time>
      </trkpt>
      <trkpt lat="47.99786" lon="6.82407">
        <ele>1055.054565</ele>
        <time>2019-08-16T14:05:07Z</time>
      </trkpt>
      <trkpt lat="47.99785" lon="6.82409">
        <ele>1055.130981</ele>
        <time>2019-08-16T14:05:08Z</time>
      </trkpt>
      <trkpt lat="47.99781" lon="6.8241">
        <ele>1055.209106</ele>
        <time>2019-08-16T14:05:09Z</time>
      </trkpt>
      <trkpt lat="47.9978" lon="6.82411">
        <ele>1055.329468</ele>
        <time>2019-08-16T14:05:10Z</time>
      </trkpt>
      <trkpt lat="47.99778" lon="6.82413">
        <ele>1055.413452</ele>
        <time>2019-08-16T14:05:11Z</time>
      </trkpt>
      <trkpt lat="47.99778" lon="6.82414">
        <ele>1055.502808</ele>
        <time>2019-08-16T14:05:12Z</time>
      </trkpt>
      <trkpt lat="47.99777" lon="6.82415">
        <ele>1055.596558</ele>
        <time>2019-08-16T14:05:13Z</time>
      </trkpt>
      <trkpt lat="47.99775" lon="6.82416">
        <ele>1055.73938</ele>
        <time>2019-08-16T14:05:14Z</time>
      </trkpt>
      <trkpt lat="47.99773" lon="6.82418">
        <ele>1055.831665</ele>
        <time>2019-08-16T14:05:15Z</time>
      </trkpt>
      <trkpt lat="47.99771" lon="6.8242">
        <ele>1055.916992</ele>
        <time>2019-08-16T14:05:16Z</time>
      </trkpt>
      <trkpt lat="47.99769" lon="6.82423">
        <ele>1055.992554</ele>
        <time>2019-08-16T14:05:17Z</time>
      </trkpt>
      <trkpt lat="47.99767" lon="6.82425">
        <ele>1056.075562</ele>
        <time>2019-08-16T14:05:18Z</time>
      </trkpt>
      <trkpt lat="47.99765" lon="6.82428">
        <ele>1056.111328</ele>
        <time>2019-08-16T14:05:19Z</time>
      </trkpt>
      <trkpt lat="47.99762" lon="6.8243">
        <ele>1056.134277</ele>
        <time>2019-08-16T14:05:20Z</time>
      </trkpt>
      <trkpt lat="47.9976" lon="6.82433">
        <ele>1056.146484</ele>
        <time>2019-08-16T14:05:21Z</time>
      </trkpt>
      <trkpt lat="47.99759" lon="6.82435">
        <ele>1056.146484</ele>
        <time>2019-08-16T14:05:22Z</time>
      </trkpt>
      <trkpt lat="47.99758" lon="6.82437">
        <ele>1056.137695</ele>
        <time>2019-08-16T14:05:23Z</time>
      </trkpt>
      <trkpt lat="47.99756" lon="6.82438">
        <ele>1056.119751</ele>
        <time>2019-08-16T14:05:24Z</time>
      </trkpt>
      <trkpt lat="47.99754" lon="6.82439">
        <ele>1056.109741</ele>
        <time>2019-08-16T14:05:25Z</time>
      </trkpt>
      <trkpt lat="47.99752" lon="6.82441">
        <ele>1056.083862</ele>
        <time>2019-08-16T14:05:26Z</time>
      </trkpt>
      <trkpt lat="47.99751" lon="6.82441">
        <ele>1056.07605</ele>
        <time>2019-08-16T14:05:27Z</time>
      </trkpt>
      <trkpt lat="47.9975" lon="6.8244">
        <ele>1056.07605</ele>
        <time>2019-08-16T14:05:28Z</time>
      </trkpt>
      <trkpt lat="47.99749" lon="6.8244">
        <ele>1056.079712</ele>
        <time>2019-08-16T14:05:29Z</time>
      </trkpt>
      <trkpt lat="47.99747" lon="6.82439">
        <ele>1056.12207</ele>
        <time>2019-08-16T14:05:30Z</time>
      </trkpt>
      <trkpt lat="47.99745" lon="6.82438">
        <ele>1056.182495</ele>
        <time>2019-08-16T14:05:31Z</time>
      </trkpt>
      <trkpt lat="47.99744" lon="6.82438">
        <ele>1056.267212</ele>
        <time>2019-08-16T14:05:32Z</time>
      </trkpt>
      <trkpt lat="47.99742" lon="6.82438">
        <ele>1056.371338</ele>
        <time>2019-08-16T14:05:33Z</time>
      </trkpt>
      <trkpt lat="47.9974" lon="6.82438">
        <ele>1056.564331</ele>
        <time>2019-08-16T14:05:34Z</time>
      </trkpt>
      <trkpt lat="47.99738" lon="6.82438">
        <ele>1056.724731</ele>
        <time>2019-08-16T14:05:35Z</time>
      </trkpt>
      <trkpt lat="47.99736" lon="6.82438">
        <ele>1056.916382</ele>
        <time>2019-08-16T14:05:36Z</time>
      </trkpt>
      <trkpt lat="47.99735" lon="6.82438">
        <ele>1057.512817</ele>
        <time>2019-08-16T14:05:37Z</time>
      </trkpt>
      <trkpt lat="47.99734" lon="6.82438">
        <ele>1058.260376</ele>
        <time>2019-08-16T14:05:39Z</time>
      </trkpt>
      <trkpt lat="47.99733" lon="6.8244">
        <ele>1058.577515</ele>
        <time>2019-08-16T14:05:41Z</time>
      </trkpt>
      <trkpt lat="47.99732" lon="6.82442">
        <ele>1058.885864</ele>
        <time>2019-08-16T14:05:42Z</time>
      </trkpt>
      <trkpt lat="47.99731" lon="6.82444">
        <ele>1059.18335</ele>
        <time>2019-08-16T14:05:43Z</time>
      </trkpt>
      <trkpt lat="47.9973" lon="6.82444">
        <ele>1059.611816</ele>
        <time>2019-08-16T14:05:44Z</time>
      </trkpt>
      <trkpt lat="47.99721" lon="6.82439">
        <ele>1063.873413</ele>
        <time>2019-08-16T14:06:03Z</time>
      </trkpt>
      <trkpt lat="47.9972" lon="6.82439">
        <ele>1064.032715</ele>
        <time>2019-08-16T14:06:05Z</time>
      </trkpt>
      <trkpt lat="47.99713" lon="6.82429">
        <ele>1065.72937</ele>
        <time>2019-08-16T14:11:45Z</time>
      </trkpt>
      <trkpt lat="47.99706" lon="6.82417">
        <ele>1066.09436</ele>
        <time>2019-08-16T14:11:58Z</time>
      </trkpt>
      <trkpt lat="47.99703" lon="6.82413">
        <ele>1066.114136</ele>
        <time>2019-08-16T14:12:00Z</time>
      </trkpt>
      <trkpt lat="47.99702" lon="6.8241">
        <ele>1066.119507</ele>
        <time>2019-08-16T14:12:01Z</time>
      </trkpt>
      <trkpt lat="47.997" lon="6.82408">
        <ele>1066.119507</ele>
        <time>2019-08-16T14:12:02Z</time>
      </trkpt>
      <trkpt lat="47.99698" lon="6.82406">
        <ele>1066.105591</ele>
        <time>2019-08-16T14:12:03Z</time>
      </trkpt>
      <trkpt lat="47.99697" lon="6.82404">
        <ele>1066.077393</ele>
        <time>2019-08-16T14:12:04Z</time>
      </trkpt>
      <trkpt lat="47.99696" lon="6.82402">
        <ele>1066.013184</ele>
        <time>2019-08-16T14:12:05Z</time>
      </trkpt>
      <trkpt lat="47.99694" lon="6.82399">
        <ele>1065.955933</ele>
        <time>2019-08-16T14:12:06Z</time>
      </trkpt>
      <trkpt lat="47.99692" lon="6.82395">
        <ele>1065.894043</ele>
        <time>2019-08-16T14:12:07Z</time>
      </trkpt>
      <trkpt lat="47.99691" lon="6.82392">
        <ele>1065.845825</ele>
        <time>2019-08-16T14:12:08Z</time>
      </trkpt>
      <trkpt lat="47.9969" lon="6.82389">
        <ele>1065.816772</ele>
        <time>2019-08-16T14:12:09Z</time>
      </trkpt>
      <trkpt lat="47.99688" lon="6.82386">
        <ele>1065.811523</ele>
        <time>2019-08-16T14:12:10Z</time>
      </trkpt>
      <trkpt lat="47.99686" lon="6.82382">
        <ele>1065.812378</ele>
        <time>2019-08-16T14:12:11Z</time>
      </trkpt>
      <trkpt lat="47.99684" lon="6.82377">
        <ele>1065.816528</ele>
        <time>2019-08-16T14:12:12Z</time>
      </trkpt>
      <trkpt lat="47.99681" lon="6.82372">
        <ele>1065.816528</ele>
        <time>2019-08-16T14:12:13Z</time>
      </trkpt>
      <trkpt lat="47.99679" lon="6.82367">
        <ele>1065.806274</ele>
        <time>2019-08-16T14:12:14Z</time>
      </trkpt>
      <trkpt lat="47.99676" lon="6.82363">
        <ele>1065.717896</ele>
        <time>2019-08-16T14:12:15Z</time>
      </trkpt>
      <trkpt lat="47.99674" lon="6.82359">
        <ele>1065.596558</ele>
        <time>2019-08-16T14:12:16Z</time>
      </trkpt>
      <trkpt lat="47.99672" lon="6.82355">
        <ele>1065.407837</ele>
        <time>2019-08-16T14:12:17Z</time>
      </trkpt>
      <trkpt lat="47.9967" lon="6.82352">
        <ele>1065.147583</ele>
        <time>2019-08-16T14:12:18Z</time>
      </trkpt>
      <trkpt lat="47.99667" lon="6.8235">
        <ele>1064.634521</ele>
        <time>2019-08-16T14:12:19Z</time>
      </trkpt>
      <trkpt lat="47.99666" lon="6.82348">
        <ele>1064.244385</ele>
        <time>2019-08-16T14:12:20Z</time>
      </trkpt>
      <trkpt lat="47.99665" lon="6.82344">
        <ele>1063.831787</ele>
        <time>2019-08-16T14:12:21Z</time>
      </trkpt>
      <trkpt lat="47.99664" lon="6.82342">
        <ele>1063.396118</ele>
        <time>2019-08-16T14:12:22Z</time>
      </trkpt>
      <trkpt lat="47.99663" lon="6.82339">
        <ele>1062.936523</ele>
        <time>2019-08-16T14:12:23Z</time>
      </trkpt>
      <trkpt lat="47.99662" lon="6.82337">
        <ele>1062.235962</ele>
        <time>2019-08-16T14:12:24Z</time>
      </trkpt>
      <trkpt lat="47.99662" lon="6.82334">
        <ele>1061.778687</ele>
        <time>2019-08-16T14:12:25Z</time>
      </trkpt>
      <trkpt lat="47.99662" lon="6.8233">
        <ele>1061.333984</ele>
        <time>2019-08-16T14:12:26Z</time>
      </trkpt>
      <trkpt lat="47.99661" lon="6.82326">
        <ele>1060.7052</ele>
        <time>2019-08-16T14:12:27Z</time>
      </trkpt>
      <trkpt lat="47.99661" lon="6.82322">
        <ele>1060.510254</ele>
        <time>2019-08-16T14:12:28Z</time>
      </trkpt>
      <trkpt lat="47.99661" lon="6.82317">
        <ele>1060.322754</ele>
        <time>2019-08-16T14:12:29Z</time>
      </trkpt>
      <trkpt lat="47.99662" lon="6.82311">
        <ele>1059.969727</ele>
        <time>2019-08-16T14:12:30Z</time>
      </trkpt>
      <trkpt lat="47.99662" lon="6.82306">
        <ele>1059.642578</ele>
        <time>2019-08-16T14:12:31Z</time>
      </trkpt>
      <trkpt lat="47.99662" lon="6.82301">
        <ele>1059.331177</ele>
        <time>2019-08-16T14:12:32Z</time>
      </trkpt>
      <trkpt lat="47.99662" lon="6.82296">
        <ele>1059.03064</ele>
        <time>2019-08-16T14:12:33Z</time>
      </trkpt>
      <trkpt lat="47.99662" lon="6.8229">
        <ele>1058.731445</ele>
        <time>2019-08-16T14:12:34Z</time>
      </trkpt>
      <trkpt lat="47.99662" lon="6.82284">
        <ele>1058.428223</ele>
        <time>2019-08-16T14:12:35Z</time>
      </trkpt>
      <trkpt lat="47.99663" lon="6.82278">
        <ele>1058.120239</ele>
        <time>2019-08-16T14:12:36Z</time>
      </trkpt>
      <trkpt lat="47.99664" lon="6.82272">
        <ele>1057.80957</ele>
        <time>2019-08-16T14:12:37Z</time>
      </trkpt>
      <trkpt lat="47.99664" lon="6.82268">
        <ele>1057.341797</ele>
        <time>2019-08-16T14:12:38Z</time>
      </trkpt>
      <trkpt lat="47.99666" lon="6.82263">
        <ele>1057.033081</ele>
        <time>2019-08-16T14:12:39Z</time>
      </trkpt>
      <trkpt lat="47.99667" lon="6.82258">
        <ele>1056.727783</ele>
        <time>2019-08-16T14:12:40Z</time>
      </trkpt>
      <trkpt lat="47.99667" lon="6.82252">
        <ele>1056.428589</ele>
        <time>2019-08-16T14:12:41Z</time>
      </trkpt>
      <trkpt lat="47.99667" lon="6.82247">
        <ele>1056.143066</ele>
        <time>2019-08-16T14:12:42Z</time>
      </trkpt>
      <trkpt lat="47.99666" lon="6.82243">
        <ele>1055.87854</ele>
        <time>2019-08-16T14:12:43Z</time>
      </trkpt>
      <trkpt lat="47.99666" lon="6.8224">
        <ele>1055.651001</ele>
        <time>2019-08-16T14:12:44Z</time>
      </trkpt>
      <trkpt lat="47.99665" lon="6.82237">
        <ele>1055.450562</ele>
        <time>2019-08-16T14:12:45Z</time>
      </trkpt>
      <trkpt lat="47.99664" lon="6.82234">
        <ele>1055.268188</ele>
        <time>2019-08-16T14:12:46Z</time>
      </trkpt>
      <trkpt lat="47.99665" lon="6.82231">
        <ele>1055.089233</ele>
        <time>2019-08-16T14:12:47Z</time>
      </trkpt>
      <trkpt lat="47.99664" lon="6.82227">
        <ele>1054.839722</ele>
        <time>2019-08-16T14:12:48Z</time>
      </trkpt>
      <trkpt lat="47.99664" lon="6.82222">
        <ele>1054.685669</ele>
        <time>2019-08-16T14:12:49Z</time>
      </trkpt>
      <trkpt lat="47.99664" lon="6.82218">
        <ele>1054.540527</ele>
        <time>2019-08-16T14:12:50Z</time>
      </trkpt>
      <trkpt lat="47.99664" lon="6.82214">
        <ele>1054.399292</ele>
        <time>2019-08-16T14:12:51Z</time>
      </trkpt>
      <trkpt lat="47.99664" lon="6.8221">
        <ele>1054.262573</ele>
        <time>2019-08-16T14:12:52Z</time>
      </trkpt>
      <trkpt lat="47.99664" lon="6.82207">
        <ele>1054.135376</ele>
        <time>2019-08-16T14:12:53Z</time>
      </trkpt>
      <trkpt lat="47.99664" lon="6.82204">
        <ele>1054.024658</ele>
        <time>2019-08-16T14:12:54Z</time>
      </trkpt>
      <trkpt lat="47.99664" lon="6.82201">
        <ele>1053.93335</ele>
        <time>2019-08-16T14:12:55Z</time>
      </trkpt>
      <trkpt lat="47.99663" lon="6.82197">
        <ele>1053.856812</ele>
        <time>2019-08-16T14:12:56Z</time>
      </trkpt>
      <trkpt lat="47.99662" lon="6.82193">
        <ele>1053.798462</ele>
        <time>2019-08-16T14:12:57Z</time>
      </trkpt>
      <trkpt lat="47.99662" lon="6.82189">
        <ele>1053.759399</ele>
        <time>2019-08-16T14:12:58Z</time>
      </trkpt>
      <trkpt lat="47.99663" lon="6.82184">
        <ele>1053.733276</ele>
        <time>2019-08-16T14:12:59Z</time>
      </trkpt>
      <trkpt lat="47.99663" lon="6.82179">
        <ele>1053.706543</ele>
        <time>2019-08-16T14:13:00Z</time>
      </trkpt>
      <trkpt lat="47.99662" lon="6.82175">
        <ele>1053.672974</ele>
        <time>2019-08-16T14:13:01Z</time>
      </trkpt>
      <trkpt lat="47.99661" lon="6.82172">
        <ele>1053.635986</ele>
        <time>2019-08-16T14:13:02Z</time>
      </trkpt>
      <trkpt lat="47.99661" lon="6.82169">
        <ele>1053.600708</ele>
        <time>2019-08-16T14:13:03Z</time>
      </trkpt>
      <trkpt lat="47.99661" lon="6.82167">
        <ele>1053.569092</ele>
        <time>2019-08-16T14:13:04Z</time>
      </trkpt>
      <trkpt lat="47.9966" lon="6.82165">
        <ele>1053.535767</ele>
        <time>2019-08-16T14:13:05Z</time>
      </trkpt>
      <trkpt lat="47.9966" lon="6.82162">
        <ele>1053.499146</ele>
        <time>2019-08-16T14:13:06Z</time>
      </trkpt>
      <trkpt lat="47.99661" lon="6.8216">
        <ele>1053.461548</ele>
        <time>2019-08-16T14:13:07Z</time>
      </trkpt>
      <trkpt lat="47.99661" lon="6.82159">
        <ele>1053.425781</ele>
        <time>2019-08-16T14:13:08Z</time>
      </trkpt>
      <trkpt lat="47.99661" lon="6.82157">
        <ele>1053.393188</ele>
        <time>2019-08-16T14:13:09Z</time>
      </trkpt>
      <trkpt lat="47.99661" lon="6.82155">
        <ele>1053.358765</ele>
        <time>2019-08-16T14:13:10Z</time>
      </trkpt>
      <trkpt lat="47.99661" lon="6.82153">
        <ele>1053.300781</ele>
        <time>2019-08-16T14:13:11Z</time>
      </trkpt>
      <trkpt lat="47.9966" lon="6.8215">
        <ele>1053.260376</ele>
        <time>2019-08-16T14:13:12Z</time>
      </trkpt>
      <trkpt lat="47.99659" lon="6.82146">
        <ele>1053.223755</ele>
        <time>2019-08-16T14:13:13Z</time>
      </trkpt>
      <trkpt lat="47.99659" lon="6.82142">
        <ele>1053.200562</ele>
        <time>2019-08-16T14:13:14Z</time>
      </trkpt>
      <trkpt lat="47.99659" lon="6.82138">
        <ele>1053.19812</ele>
        <time>2019-08-16T14:13:15Z</time>
      </trkpt>
      <trkpt lat="47.99659" lon="6.82135">
        <ele>1053.202271</ele>
        <time>2019-08-16T14:13:16Z</time>
      </trkpt>
      <trkpt lat="47.99659" lon="6.82132">
        <ele>1053.232544</ele>
        <time>2019-08-16T14:13:17Z</time>
      </trkpt>
      <trkpt lat="47.99657" lon="6.82128">
        <ele>1053.31189</ele>
        <time>2019-08-16T14:13:18Z</time>
      </trkpt>
      <trkpt lat="47.99656" lon="6.82125">
        <ele>1053.372559</ele>
        <time>2019-08-16T14:13:19Z</time>
      </trkpt>
      <trkpt lat="47.99656" lon="6.82121">
        <ele>1053.436768</ele>
        <time>2019-08-16T14:13:20Z</time>
      </trkpt>
      <trkpt lat="47.99656" lon="6.82118">
        <ele>1053.505249</ele>
        <time>2019-08-16T14:13:21Z</time>
      </trkpt>
      <trkpt lat="47.99656" lon="6.82113">
        <ele>1053.577026</ele>
        <time>2019-08-16T14:13:22Z</time>
      </trkpt>
      <trkpt lat="47.99655" lon="6.82109">
        <ele>1053.646606</ele>
        <time>2019-08-16T14:13:23Z</time>
      </trkpt>
      <trkpt lat="47.99654" lon="6.82106">
        <ele>1053.714478</ele>
        <time>2019-08-16T14:13:24Z</time>
      </trkpt>
      <trkpt lat="47.99653" lon="6.82103">
        <ele>1053.777344</ele>
        <time>2019-08-16T14:13:25Z</time>
      </trkpt>
      <trkpt lat="47.99652" lon="6.821">
        <ele>1053.839966</ele>
        <time>2019-08-16T14:13:26Z</time>
      </trkpt>
      <trkpt lat="47.99651" lon="6.82097">
        <ele>1053.901245</ele>
        <time>2019-08-16T14:13:27Z</time>
      </trkpt>
      <trkpt lat="47.9965" lon="6.82093">
        <ele>1053.958862</ele>
        <time>2019-08-16T14:13:28Z</time>
      </trkpt>
      <trkpt lat="47.99649" lon="6.82089">
        <ele>1053.983276</ele>
        <time>2019-08-16T14:13:29Z</time>
      </trkpt>
      <trkpt lat="47.99648" lon="6.82085">
        <ele>1054.023315</ele>
        <time>2019-08-16T14:13:30Z</time>
      </trkpt>
      <trkpt lat="47.99647" lon="6.82082">
        <ele>1054.044556</ele>
        <time>2019-08-16T14:13:31Z</time>
      </trkpt>
      <trkpt lat="47.99646" lon="6.82079">
        <ele>1054.046265</ele>
        <time>2019-08-16T14:13:32Z</time>
      </trkpt>
      <trkpt lat="47.99645" lon="6.82076">
        <ele>1054.043457</ele>
        <time>2019-08-16T14:13:33Z</time>
      </trkpt>
      <trkpt lat="47.99642" lon="6.82072">
        <ele>1054.006958</ele>
        <time>2019-08-16T14:13:34Z</time>
      </trkpt>
      <trkpt lat="47.9964" lon="6.82068">
        <ele>1053.96936</ele>
        <time>2019-08-16T14:13:35Z</time>
      </trkpt>
      <trkpt lat="47.99638" lon="6.82064">
        <ele>1053.901855</ele>
        <time>2019-08-16T14:13:36Z</time>
      </trkpt>
      <trkpt lat="47.99636" lon="6.8206">
        <ele>1053.849609</ele>
        <time>2019-08-16T14:13:37Z</time>
      </trkpt>
      <trkpt lat="47.99634" lon="6.82056">
        <ele>1053.790894</ele>
        <time>2019-08-16T14:13:38Z</time>
      </trkpt>
      <trkpt lat="47.99633" lon="6.82051">
        <ele>1053.72937</ele>
        <time>2019-08-16T14:13:39Z</time>
      </trkpt>
      <trkpt lat="47.99631" lon="6.82047">
        <ele>1053.663574</ele>
        <time>2019-08-16T14:13:40Z</time>
      </trkpt>
      <trkpt lat="47.99629" lon="6.82042">
        <ele>1053.59375</ele>
        <time>2019-08-16T14:13:41Z</time>
      </trkpt>
      <trkpt lat="47.99627" lon="6.82038">
        <ele>1053.471069</ele>
        <time>2019-08-16T14:13:42Z</time>
      </trkpt>
      <trkpt lat="47.99624" lon="6.82034">
        <ele>1053.38147</ele>
        <time>2019-08-16T14:13:43Z</time>
      </trkpt>
      <trkpt lat="47.99622" lon="6.82029">
        <ele>1053.297485</ele>
        <time>2019-08-16T14:13:44Z</time>
      </trkpt>
      <trkpt lat="47.9962" lon="6.82024">
        <ele>1053.224731</ele>
        <time>2019-08-16T14:13:45Z</time>
      </trkpt>
      <trkpt lat="47.9962" lon="6.82018">
        <ele>1053.166016</ele>
        <time>2019-08-16T14:13:46Z</time>
      </trkpt>
      <trkpt lat="47.99619" lon="6.82013">
        <ele>1053.116333</ele>
        <time>2019-08-16T14:13:47Z</time>
      </trkpt>
      <trkpt lat="47.99619" lon="6.82008">
        <ele>1053.074829</ele>
        <time>2019-08-16T14:13:48Z</time>
      </trkpt>
      <trkpt lat="47.99617" lon="6.82003">
        <ele>1053.038696</ele>
        <time>2019-08-16T14:13:49Z</time>
      </trkpt>
      <trkpt lat="47.99615" lon="6.81998">
        <ele>1052.99353</ele>
        <time>2019-08-16T14:13:50Z</time>
      </trkpt>
      <trkpt lat="47.99612" lon="6.81993">
        <ele>1052.958008</ele>
        <time>2019-08-16T14:13:51Z</time>
      </trkpt>
      <trkpt lat="47.9961" lon="6.81989">
        <ele>1052.914063</ele>
        <time>2019-08-16T14:13:52Z</time>
      </trkpt>
      <trkpt lat="47.99608" lon="6.81985">
        <ele>1052.858398</ele>
        <time>2019-08-16T14:13:53Z</time>
      </trkpt>
      <trkpt lat="47.99605" lon="6.81981">
        <ele>1052.797241</ele>
        <time>2019-08-16T14:13:54Z</time>
      </trkpt>
      <trkpt lat="47.99602" lon="6.81977">
        <ele>1052.732666</ele>
        <time>2019-08-16T14:13:55Z</time>
      </trkpt>
      <trkpt lat="47.996" lon="6.81971">
        <ele>1052.636963</ele>
        <time>2019-08-16T14:13:56Z</time>
      </trkpt>
      <trkpt lat="47.99596" lon="6.81966">
        <ele>1052.573608</ele>
        <time>2019-08-16T14:13:57Z</time>
      </trkpt>
      <trkpt lat="47.99594" lon="6.81961">
        <ele>1052.506836</ele>
        <time>2019-08-16T14:13:58Z</time>
      </trkpt>
      <trkpt lat="47.99591" lon="6.81955">
        <ele>1052.436035</ele>
        <time>2019-08-16T14:13:59Z</time>
      </trkpt>
      <trkpt lat="47.99589" lon="6.81949">
        <ele>1052.356689</ele>
        <time>2019-08-16T14:14:00Z</time>
      </trkpt>
      <trkpt lat="47.99587" lon="6.81943">
        <ele>1052.268433</ele>
        <time>2019-08-16T14:14:01Z</time>
      </trkpt>
      <trkpt lat="47.99585" lon="6.81936">
        <ele>1052.161011</ele>
        <time>2019-08-16T14:14:02Z</time>
      </trkpt>
      <trkpt lat="47.99584" lon="6.81928">
        <ele>1051.958984</ele>
        <time>2019-08-16T14:14:03Z</time>
      </trkpt>
      <trkpt lat="47.99582" lon="6.8192">
        <ele>1051.787476</ele>
        <time>2019-08-16T14:14:04Z</time>
      </trkpt>
      <trkpt lat="47.99581" lon="6.81913">
        <ele>1051.584717</ele>
        <time>2019-08-16T14:14:05Z</time>
      </trkpt>
      <trkpt lat="47.9958" lon="6.81906">
        <ele>1051.341553</ele>
        <time>2019-08-16T14:14:06Z</time>
      </trkpt>
      <trkpt lat="47.99579" lon="6.81898">
        <ele>1051.064697</ele>
        <time>2019-08-16T14:14:07Z</time>
      </trkpt>
      <trkpt lat="47.99578" lon="6.81891">
        <ele>1050.767334</ele>
        <time>2019-08-16T14:14:08Z</time>
      </trkpt>
      <trkpt lat="47.99577" lon="6.81883">
        <ele>1050.469849</ele>
        <time>2019-08-16T14:14:09Z</time>
      </trkpt>
      <trkpt lat="47.99576" lon="6.81876">
        <ele>1050.035278</ele>
        <time>2019-08-16T14:14:10Z</time>
      </trkpt>
      <trkpt lat="47.99576" lon="6.81869">
        <ele>1049.748047</ele>
        <time>2019-08-16T14:14:11Z</time>
      </trkpt>
      <trkpt lat="47.99575" lon="6.81861">
        <ele>1049.476563</ele>
        <time>2019-08-16T14:14:12Z</time>
      </trkpt>
      <trkpt lat="47.99575" lon="6.81854">
        <ele>1049.227173</ele>
        <time>2019-08-16T14:14:13Z</time>
      </trkpt>
      <trkpt lat="47.99574" lon="6.81846">
        <ele>1048.994263</ele>
        <time>2019-08-16T14:14:14Z</time>
      </trkpt>
      <trkpt lat="47.99573" lon="6.81838">
        <ele>1048.760376</ele>
        <time>2019-08-16T14:14:15Z</time>
      </trkpt>
      <trkpt lat="47.99574" lon="6.8183">
        <ele>1048.520508</ele>
        <time>2019-08-16T14:14:16Z</time>
      </trkpt>
      <trkpt lat="47.99575" lon="6.81822">
        <ele>1048.27771</ele>
        <time>2019-08-16T14:14:17Z</time>
      </trkpt>
      <trkpt lat="47.99576" lon="6.81814">
        <ele>1048.033813</ele>
        <time>2019-08-16T14:14:18Z</time>
      </trkpt>
      <trkpt lat="47.99576" lon="6.81806">
        <ele>1047.783813</ele>
        <time>2019-08-16T14:14:19Z</time>
      </trkpt>
      <trkpt lat="47.99575" lon="6.81798">
        <ele>1047.525269</ele>
        <time>2019-08-16T14:14:20Z</time>
      </trkpt>
      <trkpt lat="47.99573" lon="6.8179">
        <ele>1047.265991</ele>
        <time>2019-08-16T14:14:21Z</time>
      </trkpt>
      <trkpt lat="47.99572" lon="6.81782">
        <ele>1047.012085</ele>
        <time>2019-08-16T14:14:22Z</time>
      </trkpt>
      <trkpt lat="47.99571" lon="6.81773">
        <ele>1046.641724</ele>
        <time>2019-08-16T14:14:23Z</time>
      </trkpt>
      <trkpt lat="47.99572" lon="6.81764">
        <ele>1046.411743</ele>
        <time>2019-08-16T14:14:24Z</time>
      </trkpt>
      <trkpt lat="47.99572" lon="6.81753">
        <ele>1046.202393</ele>
        <time>2019-08-16T14:14:25Z</time>
      </trkpt>
      <trkpt lat="47.99573" lon="6.81743">
        <ele>1046.005615</ele>
        <time>2019-08-16T14:14:26Z</time>
      </trkpt>
      <trkpt lat="47.99575" lon="6.81733">
        <ele>1045.798584</ele>
        <time>2019-08-16T14:14:27Z</time>
      </trkpt>
      <trkpt lat="47.99576" lon="6.81725">
        <ele>1045.567505</ele>
        <time>2019-08-16T14:14:28Z</time>
      </trkpt>
      <trkpt lat="47.99576" lon="6.8172">
        <ele>1045.313354</ele>
        <time>2019-08-16T14:14:29Z</time>
      </trkpt>
      <trkpt lat="47.99575" lon="6.81716">
        <ele>1045.178467</ele>
        <time>2019-08-16T14:14:30Z</time>
      </trkpt>
      <trkpt lat="47.99574" lon="6.81713">
        <ele>1045.037598</ele>
        <time>2019-08-16T14:14:31Z</time>
      </trkpt>
      <trkpt lat="47.99572" lon="6.8171">
        <ele>1044.738403</ele>
        <time>2019-08-16T14:14:32Z</time>
      </trkpt>
      <trkpt lat="47.99569" lon="6.81707">
        <ele>1044.214966</ele>
        <time>2019-08-16T14:14:33Z</time>
      </trkpt>
      <trkpt lat="47.99567" lon="6.81703">
        <ele>1043.831665</ele>
        <time>2019-08-16T14:14:34Z</time>
      </trkpt>
      <trkpt lat="47.99563" lon="6.817">
        <ele>1043.455078</ele>
        <time>2019-08-16T14:14:35Z</time>
      </trkpt>
      <trkpt lat="47.99559" lon="6.81696">
        <ele>1042.930054</ele>
        <time>2019-08-16T14:14:36Z</time>
      </trkpt>
      <trkpt lat="47.99554" lon="6.81693">
        <ele>1042.591431</ele>
        <time>2019-08-16T14:14:37Z</time>
      </trkpt>
      <trkpt lat="47.9955" lon="6.81689">
        <ele>1042.248657</ele>
        <time>2019-08-16T14:14:38Z</time>
      </trkpt>
      <trkpt lat="47.99546" lon="6.81687">
        <ele>1041.688477</ele>
        <time>2019-08-16T14:14:39Z</time>
      </trkpt>
      <trkpt lat="47.99543" lon="6.81685">
        <ele>1041.265991</ele>
        <time>2019-08-16T14:14:40Z</time>
      </trkpt>
      <trkpt lat="47.9954" lon="6.81683">
        <ele>1040.803223</ele>
        <time>2019-08-16T14:14:41Z</time>
      </trkpt>
      <trkpt lat="47.99535" lon="6.8168">
        <ele>1040.03833</ele>
        <time>2019-08-16T14:14:42Z</time>
      </trkpt>
      <trkpt lat="47.99531" lon="6.81678">
        <ele>1039.491821</ele>
        <time>2019-08-16T14:14:43Z</time>
      </trkpt>
      <trkpt lat="47.99528" lon="6.81675">
        <ele>1038.915039</ele>
        <time>2019-08-16T14:14:44Z</time>
      </trkpt>
      <trkpt lat="47.99526" lon="6.81674">
        <ele>1038.002563</ele>
        <time>2019-08-16T14:14:45Z</time>
      </trkpt>
      <trkpt lat="47.99522" lon="6.81672">
        <ele>1037.376587</ele>
        <time>2019-08-16T14:14:46Z</time>
      </trkpt>
      <trkpt lat="47.99521" lon="6.81669">
        <ele>1036.774048</ele>
        <time>2019-08-16T14:14:47Z</time>
      </trkpt>
      <trkpt lat="47.99519" lon="6.81667">
        <ele>1035.922485</ele>
        <time>2019-08-16T14:14:48Z</time>
      </trkpt>
      <trkpt lat="47.99518" lon="6.81665">
        <ele>1035.375854</ele>
        <time>2019-08-16T14:14:49Z</time>
      </trkpt>
      <trkpt lat="47.99516" lon="6.81662">
        <ele>1034.824707</ele>
        <time>2019-08-16T14:14:50Z</time>
      </trkpt>
      <trkpt lat="47.99514" lon="6.8166">
        <ele>1034.285156</ele>
        <time>2019-08-16T14:14:51Z</time>
      </trkpt>
      <trkpt lat="47.99511" lon="6.81659">
        <ele>1033.515747</ele>
        <time>2019-08-16T14:14:52Z</time>
      </trkpt>
      <trkpt lat="47.99507" lon="6.81658">
        <ele>1033.035034</ele>
        <time>2019-08-16T14:14:53Z</time>
      </trkpt>
      <trkpt lat="47.99503" lon="6.81658">
        <ele>1032.574829</ele>
        <time>2019-08-16T14:14:54Z</time>
      </trkpt>
      <trkpt lat="47.995" lon="6.81656">
        <ele>1031.904541</ele>
        <time>2019-08-16T14:14:55Z</time>
      </trkpt>
      <trkpt lat="47.99497" lon="6.81654">
        <ele>1031.463379</ele>
        <time>2019-08-16T14:14:56Z</time>
      </trkpt>
      <trkpt lat="47.99493" lon="6.81651">
        <ele>1031.027466</ele>
        <time>2019-08-16T14:14:57Z</time>
      </trkpt>
      <trkpt lat="47.9949" lon="6.81647">
        <ele>1030.37207</ele>
        <time>2019-08-16T14:14:58Z</time>
      </trkpt>
      <trkpt lat="47.99486" lon="6.81643">
        <ele>1029.92981</ele>
        <time>2019-08-16T14:14:59Z</time>
      </trkpt>
      <trkpt lat="47.99482" lon="6.8164">
        <ele>1029.467773</ele>
        <time>2019-08-16T14:15:00Z</time>
      </trkpt>
      <trkpt lat="47.99478" lon="6.81639">
        <ele>1028.69104</ele>
        <time>2019-08-16T14:15:01Z</time>
      </trkpt>
      <trkpt lat="47.99473" lon="6.81637">
        <ele>1028.089722</ele>
        <time>2019-08-16T14:15:02Z</time>
      </trkpt>
      <trkpt lat="47.99469" lon="6.81634">
        <ele>1027.42395</ele>
        <time>2019-08-16T14:15:03Z</time>
      </trkpt>
      <trkpt lat="47.99465" lon="6.81632">
        <ele>1026.307739</ele>
        <time>2019-08-16T14:15:04Z</time>
      </trkpt>
      <trkpt lat="47.99461" lon="6.8163">
        <ele>1025.489868</ele>
        <time>2019-08-16T14:15:05Z</time>
      </trkpt>
      <trkpt lat="47.99455" lon="6.81627">
        <ele>1024.630737</ele>
        <time>2019-08-16T14:15:06Z</time>
      </trkpt>
      <trkpt lat="47.9945" lon="6.81624">
        <ele>1023.303528</ele>
        <time>2019-08-16T14:15:07Z</time>
      </trkpt>
      <trkpt lat="47.99445" lon="6.81622">
        <ele>1022.412109</ele>
        <time>2019-08-16T14:15:08Z</time>
      </trkpt>
      <trkpt lat="47.9944" lon="6.81619">
        <ele>1021.525635</ele>
        <time>2019-08-16T14:15:09Z</time>
      </trkpt>
      <trkpt lat="47.99436" lon="6.81616">
        <ele>1020.224915</ele>
        <time>2019-08-16T14:15:10Z</time>
      </trkpt>
      <trkpt lat="47.99432" lon="6.81612">
        <ele>1019.390198</ele>
        <time>2019-08-16T14:15:11Z</time>
      </trkpt>
      <trkpt lat="47.99428" lon="6.81607">
        <ele>1018.59137</ele>
        <time>2019-08-16T14:15:12Z</time>
      </trkpt>
      <trkpt lat="47.99425" lon="6.81601">
        <ele>1017.836121</ele>
        <time>2019-08-16T14:15:13Z</time>
      </trkpt>
      <trkpt lat="47.99423" lon="6.81595">
        <ele>1016.792969</ele>
        <time>2019-08-16T14:15:14Z</time>
      </trkpt>
      <trkpt lat="47.9942" lon="6.81589">
        <ele>1016.143372</ele>
        <time>2019-08-16T14:15:15Z</time>
      </trkpt>
      <trkpt lat="47.99418" lon="6.81584">
        <ele>1015.520508</ele>
        <time>2019-08-16T14:15:16Z</time>
      </trkpt>
      <trkpt lat="47.99417" lon="6.8158">
        <ele>1014.908997</ele>
        <time>2019-08-16T14:15:17Z</time>
      </trkpt>
      <trkpt lat="47.99416" lon="6.81577">
        <ele>1014.295959</ele>
        <time>2019-08-16T14:15:18Z</time>
      </trkpt>
      <trkpt lat="47.99413" lon="6.81574">
        <ele>1013.009766</ele>
        <time>2019-08-16T14:15:19Z</time>
      </trkpt>
      <trkpt lat="47.9941" lon="6.81573">
        <ele>1012.028137</ele>
        <time>2019-08-16T14:15:20Z</time>
      </trkpt>
      <trkpt lat="47.99406" lon="6.81574">
        <ele>1011.40741</ele>
        <time>2019-08-16T14:15:21Z</time>
      </trkpt>
      <trkpt lat="47.99403" lon="6.81575">
        <ele>1011.40741</ele>
        <time>2019-08-16T14:15:22Z</time>
      </trkpt>
      <trkpt lat="47.994" lon="6.81577">
        <ele>1010.563293</ele>
        <time>2019-08-16T14:15:23Z</time>
      </trkpt>
      <trkpt lat="47.99397" lon="6.81578">
        <ele>1010.070801</ele>
        <time>2019-08-16T14:15:24Z</time>
      </trkpt>
      <trkpt lat="47.99394" lon="6.81579">
        <ele>1009.641907</ele>
        <time>2019-08-16T14:15:25Z</time>
      </trkpt>
      <trkpt lat="47.99391" lon="6.81582">
        <ele>1009.143066</ele>
        <time>2019-08-16T14:15:26Z</time>
      </trkpt>
      <trkpt lat="47.99388" lon="6.81585">
        <ele>1008.89801</ele>
        <time>2019-08-16T14:15:27Z</time>
      </trkpt>
      <trkpt lat="47.99386" lon="6.81589">
        <ele>1008.714172</ele>
        <time>2019-08-16T14:15:28Z</time>
      </trkpt>
      <trkpt lat="47.99383" lon="6.81592">
        <ele>1008.578125</ele>
        <time>2019-08-16T14:15:29Z</time>
      </trkpt>
      <trkpt lat="47.9938" lon="6.81596">
        <ele>1008.452637</ele>
        <time>2019-08-16T14:15:30Z</time>
      </trkpt>
      <trkpt lat="47.99378" lon="6.81599">
        <ele>1008.42627</ele>
        <time>2019-08-16T14:15:31Z</time>
      </trkpt>
      <trkpt lat="47.99376" lon="6.81602">
        <ele>1008.389587</ele>
        <time>2019-08-16T14:15:32Z</time>
      </trkpt>
      <trkpt lat="47.99374" lon="6.81606">
        <ele>1008.365295</ele>
        <time>2019-08-16T14:15:33Z</time>
      </trkpt>
      <trkpt lat="47.99372" lon="6.8161">
        <ele>1008.341553</ele>
        <time>2019-08-16T14:15:34Z</time>
      </trkpt>
      <trkpt lat="47.99371" lon="6.81613">
        <ele>1008.318359</ele>
        <time>2019-08-16T14:15:35Z</time>
      </trkpt>
      <trkpt lat="47.99369" lon="6.81617">
        <ele>1008.306946</ele>
        <time>2019-08-16T14:15:36Z</time>
      </trkpt>
      <trkpt lat="47.99367" lon="6.8162">
        <ele>1008.308838</ele>
        <time>2019-08-16T14:15:37Z</time>
      </trkpt>
      <trkpt lat="47.99365" lon="6.81622">
        <ele>1008.334534</ele>
        <time>2019-08-16T14:15:38Z</time>
      </trkpt>
      <trkpt lat="47.99363" lon="6.81623">
        <ele>1008.414734</ele>
        <time>2019-08-16T14:15:39Z</time>
      </trkpt>
      <trkpt lat="47.9936" lon="6.81622">
        <ele>1008.483154</ele>
        <time>2019-08-16T14:15:40Z</time>
      </trkpt>
      <trkpt lat="47.99357" lon="6.81619">
        <ele>1008.550598</ele>
        <time>2019-08-16T14:15:41Z</time>
      </trkpt>
      <trkpt lat="47.99352" lon="6.81617">
        <ele>1008.602966</ele>
        <time>2019-08-16T14:15:42Z</time>
      </trkpt>
      <trkpt lat="47.99348" lon="6.81615">
        <ele>1008.602966</ele>
        <time>2019-08-16T14:15:43Z</time>
      </trkpt>
      <trkpt lat="47.99344" lon="6.81615">
        <ele>1008.558838</ele>
        <time>2019-08-16T14:15:44Z</time>
      </trkpt>
      <trkpt lat="47.99341" lon="6.81615">
        <ele>1008.331238</ele>
        <time>2019-08-16T14:15:45Z</time>
      </trkpt>
      <trkpt lat="47.99339" lon="6.81615">
        <ele>1008.083191</ele>
        <time>2019-08-16T14:15:46Z</time>
      </trkpt>
      <trkpt lat="47.99336" lon="6.81614">
        <ele>1007.760193</ele>
        <time>2019-08-16T14:15:47Z</time>
      </trkpt>
      <trkpt lat="47.99333" lon="6.81613">
        <ele>1007.161133</ele>
        <time>2019-08-16T14:15:48Z</time>
      </trkpt>
      <trkpt lat="47.99329" lon="6.81614">
        <ele>1006.479065</ele>
        <time>2019-08-16T14:15:49Z</time>
      </trkpt>
      <trkpt lat="47.99326" lon="6.81616">
        <ele>1005.997742</ele>
        <time>2019-08-16T14:15:50Z</time>
      </trkpt>
      <trkpt lat="47.99323" lon="6.81619">
        <ele>1005.48584</ele>
        <time>2019-08-16T14:15:51Z</time>
      </trkpt>
      <trkpt lat="47.99318" lon="6.81624">
        <ele>1004.935059</ele>
        <time>2019-08-16T14:15:52Z</time>
      </trkpt>
      <trkpt lat="47.99315" lon="6.81628">
        <ele>1004.032288</ele>
        <time>2019-08-16T14:15:53Z</time>
      </trkpt>
      <trkpt lat="47.99312" lon="6.81631">
        <ele>1003.379639</ele>
        <time>2019-08-16T14:15:54Z</time>
      </trkpt>
      <trkpt lat="47.99308" lon="6.81634">
        <ele>1002.692688</ele>
        <time>2019-08-16T14:15:55Z</time>
      </trkpt>
      <trkpt lat="47.99305" lon="6.81637">
        <ele>1001.634033</ele>
        <time>2019-08-16T14:15:56Z</time>
      </trkpt>
      <trkpt lat="47.99302" lon="6.8164">
        <ele>1000.925598</ele>
        <time>2019-08-16T14:15:57Z</time>
      </trkpt>
      <trkpt lat="47.99299" lon="6.81644">
        <ele>1000.213196</ele>
        <time>2019-08-16T14:15:58Z</time>
      </trkpt>
      <trkpt lat="47.99297" lon="6.81648">
        <ele>999.5047</ele>
        <time>2019-08-16T14:15:59Z</time>
      </trkpt>
      <trkpt lat="47.99293" lon="6.81651">
        <ele>998.453857</ele>
        <time>2019-08-16T14:16:00Z</time>
      </trkpt>
      <trkpt lat="47.9929" lon="6.81652">
        <ele>997.753235</ele>
        <time>2019-08-16T14:16:01Z</time>
      </trkpt>
      <trkpt lat="47.99287" lon="6.81655">
        <ele>997.036926</ele>
        <time>2019-08-16T14:16:02Z</time>
      </trkpt>
      <trkpt lat="47.99284" lon="6.8166">
        <ele>995.943176</ele>
        <time>2019-08-16T14:16:03Z</time>
      </trkpt>
      <trkpt lat="47.99282" lon="6.81666">
        <ele>995.212341</ele>
        <time>2019-08-16T14:16:04Z</time>
      </trkpt>
      <trkpt lat="47.99279" lon="6.81672">
        <ele>994.478516</ele>
        <time>2019-08-16T14:16:05Z</time>
      </trkpt>
      <trkpt lat="47.99276" lon="6.81677">
        <ele>993.729431</ele>
        <time>2019-08-16T14:16:06Z</time>
      </trkpt>
      <trkpt lat="47.99274" lon="6.81681">
        <ele>992.970703</ele>
        <time>2019-08-16T14:16:07Z</time>
      </trkpt>
      <trkpt lat="47.99272" lon="6.81686">
        <ele>992.20874</ele>
        <time>2019-08-16T14:16:08Z</time>
      </trkpt>
      <trkpt lat="47.9927" lon="6.81692">
        <ele>991.059753</ele>
        <time>2019-08-16T14:16:09Z</time>
      </trkpt>
      <trkpt lat="47.99266" lon="6.81699">
        <ele>990.270569</ele>
        <time>2019-08-16T14:16:10Z</time>
      </trkpt>
      <trkpt lat="47.99264" lon="6.81707">
        <ele>989.466736</ele>
        <time>2019-08-16T14:16:11Z</time>
      </trkpt>
      <trkpt lat="47.99263" lon="6.81714">
        <ele>988.641174</ele>
        <time>2019-08-16T14:16:12Z</time>
      </trkpt>
      <trkpt lat="47.99261" lon="6.81721">
        <ele>987.793152</ele>
        <time>2019-08-16T14:16:13Z</time>
      </trkpt>
      <trkpt lat="47.99259" lon="6.81728">
        <ele>986.919983</ele>
        <time>2019-08-16T14:16:14Z</time>
      </trkpt>
      <trkpt lat="47.99257" lon="6.81734">
        <ele>986.038391</ele>
        <time>2019-08-16T14:16:15Z</time>
      </trkpt>
      <trkpt lat="47.99257" lon="6.8174">
        <ele>984.742981</ele>
        <time>2019-08-16T14:16:16Z</time>
      </trkpt>
      <trkpt lat="47.99257" lon="6.81745">
        <ele>983.910828</ele>
        <time>2019-08-16T14:16:17Z</time>
      </trkpt>
      <trkpt lat="47.99258" lon="6.81759">
        <ele>977.661682</ele>
        <time>2019-08-16T14:16:41Z</time>
      </trkpt>
      <trkpt lat="47.99257" lon="6.81764">
        <ele>977.552795</ele>
        <time>2019-08-16T14:16:43Z</time>
      </trkpt>
      <trkpt lat="47.99255" lon="6.81771">
        <ele>977.424744</ele>
        <time>2019-08-16T14:16:44Z</time>
      </trkpt>
      <trkpt lat="47.99253" lon="6.81778">
        <ele>977.26709</ele>
        <time>2019-08-16T14:16:45Z</time>
      </trkpt>
      <trkpt lat="47.99251" lon="6.81784">
        <ele>977.077087</ele>
        <time>2019-08-16T14:16:46Z</time>
      </trkpt>
      <trkpt lat="47.99248" lon="6.81788">
        <ele>976.84906</ele>
        <time>2019-08-16T14:16:47Z</time>
      </trkpt>
      <trkpt lat="47.99244" lon="6.81791">
        <ele>976.571777</ele>
        <time>2019-08-16T14:16:48Z</time>
      </trkpt>
      <trkpt lat="47.9924" lon="6.81792">
        <ele>976.031555</ele>
        <time>2019-08-16T14:16:49Z</time>
      </trkpt>
      <trkpt lat="47.99236" lon="6.81792">
        <ele>975.574524</ele>
        <time>2019-08-16T14:16:50Z</time>
      </trkpt>
      <trkpt lat="47.99233" lon="6.81788">
        <ele>975.045227</ele>
        <time>2019-08-16T14:16:51Z</time>
      </trkpt>
      <trkpt lat="47.9923" lon="6.81783">
        <ele>974.16095</ele>
        <time>2019-08-16T14:16:52Z</time>
      </trkpt>
      <trkpt lat="47.99227" lon="6.81777">
        <ele>973.54718</ele>
        <time>2019-08-16T14:16:53Z</time>
      </trkpt>
      <trkpt lat="47.99223" lon="6.81772">
        <ele>972.9151</ele>
        <time>2019-08-16T14:16:54Z</time>
      </trkpt>
      <trkpt lat="47.99219" lon="6.81769">
        <ele>972.266357</ele>
        <time>2019-08-16T14:16:55Z</time>
      </trkpt>
      <trkpt lat="47.99215" lon="6.81768">
        <ele>971.610352</ele>
        <time>2019-08-16T14:16:56Z</time>
      </trkpt>
      <trkpt lat="47.99213" lon="6.81766">
        <ele>970.622742</ele>
        <time>2019-08-16T14:16:57Z</time>
      </trkpt>
      <trkpt lat="47.9921" lon="6.81765">
        <ele>969.947754</ele>
        <time>2019-08-16T14:16:58Z</time>
      </trkpt>
      <trkpt lat="47.99206" lon="6.81767">
        <ele>969.255676</ele>
        <time>2019-08-16T14:16:59Z</time>
      </trkpt>
      <trkpt lat="47.99202" lon="6.81769">
        <ele>968.199158</ele>
        <time>2019-08-16T14:17:00Z</time>
      </trkpt>
      <trkpt lat="47.99198" lon="6.81771">
        <ele>967.468018</ele>
        <time>2019-08-16T14:17:01Z</time>
      </trkpt>
      <trkpt lat="47.99194" lon="6.81774">
        <ele>966.707092</ele>
        <time>2019-08-16T14:17:02Z</time>
      </trkpt>
      <trkpt lat="47.99191" lon="6.81781">
        <ele>965.489258</ele>
        <time>2019-08-16T14:17:03Z</time>
      </trkpt>
      <trkpt lat="47.99187" lon="6.81788">
        <ele>964.610657</ele>
        <time>2019-08-16T14:17:04Z</time>
      </trkpt>
      <trkpt lat="47.99183" lon="6.81797">
        <ele>963.659973</ele>
        <time>2019-08-16T14:17:05Z</time>
      </trkpt>
      <trkpt lat="47.99178" lon="6.81804">
        <ele>962.639465</ele>
        <time>2019-08-16T14:17:06Z</time>
      </trkpt>
      <trkpt lat="47.99173" lon="6.81811">
        <ele>961.049866</ele>
        <time>2019-08-16T14:17:07Z</time>
      </trkpt>
      <trkpt lat="47.99167" lon="6.81816">
        <ele>959.999512</ele>
        <time>2019-08-16T14:17:08Z</time>
      </trkpt>
      <trkpt lat="47.9916" lon="6.81821">
        <ele>958.970947</ele>
        <time>2019-08-16T14:17:09Z</time>
      </trkpt>
      <trkpt lat="47.99152" lon="6.81825">
        <ele>957.484619</ele>
        <time>2019-08-16T14:17:10Z</time>
      </trkpt>
      <trkpt lat="47.99146" lon="6.8183">
        <ele>956.52533</ele>
        <time>2019-08-16T14:17:11Z</time>
      </trkpt>
      <trkpt lat="47.99139" lon="6.81833">
        <ele>955.586914</ele>
        <time>2019-08-16T14:17:12Z</time>
      </trkpt>
      <trkpt lat="47.99131" lon="6.81837">
        <ele>954.20575</ele>
        <time>2019-08-16T14:17:13Z</time>
      </trkpt>
      <trkpt lat="47.99123" lon="6.81841">
        <ele>953.308899</ele>
        <time>2019-08-16T14:17:14Z</time>
      </trkpt>
      <trkpt lat="47.99117" lon="6.81844">
        <ele>952.445801</ele>
        <time>2019-08-16T14:17:15Z</time>
      </trkpt>
      <trkpt lat="47.99111" lon="6.81849">
        <ele>951.25946</ele>
        <time>2019-08-16T14:17:16Z</time>
      </trkpt>
      <trkpt lat="47.99107" lon="6.81855">
        <ele>950.559753</ele>
        <time>2019-08-16T14:17:17Z</time>
      </trkpt>
      <trkpt lat="47.99103" lon="6.81864">
        <ele>949.929626</ele>
        <time>2019-08-16T14:17:18Z</time>
      </trkpt>
      <trkpt lat="47.991" lon="6.81874">
        <ele>949.343689</ele>
        <time>2019-08-16T14:17:19Z</time>
      </trkpt>
      <trkpt lat="47.99097" lon="6.81883">
        <ele>948.785461</ele>
        <time>2019-08-16T14:17:20Z</time>
      </trkpt>
      <trkpt lat="47.99094" lon="6.81891">
        <ele>948.225891</ele>
        <time>2019-08-16T14:17:21Z</time>
      </trkpt>
      <trkpt lat="47.9909" lon="6.81898">
        <ele>947.651917</ele>
        <time>2019-08-16T14:17:22Z</time>
      </trkpt>
      <trkpt lat="47.99086" lon="6.81903">
        <ele>947.064697</ele>
        <time>2019-08-16T14:17:23Z</time>
      </trkpt>
      <trkpt lat="47.9908" lon="6.81905">
        <ele>946.465881</ele>
        <time>2019-08-16T14:17:24Z</time>
      </trkpt>
      <trkpt lat="47.99075" lon="6.81905">
        <ele>945.522644</ele>
        <time>2019-08-16T14:17:25Z</time>
      </trkpt>
      <trkpt lat="47.9907" lon="6.81904">
        <ele>944.864563</ele>
        <time>2019-08-16T14:17:26Z</time>
      </trkpt>
      <trkpt lat="47.99067" lon="6.81902">
        <ele>944.218811</ele>
        <time>2019-08-16T14:17:27Z</time>
      </trkpt>
      <trkpt lat="47.99064" lon="6.819">
        <ele>943.298096</ele>
        <time>2019-08-16T14:17:28Z</time>
      </trkpt>
      <trkpt lat="47.99062" lon="6.81897">
        <ele>942.701416</ele>
        <time>2019-08-16T14:17:29Z</time>
      </trkpt>
      <trkpt lat="47.9906" lon="6.81895">
        <ele>942.102295</ele>
        <time>2019-08-16T14:17:30Z</time>
      </trkpt>
      <trkpt lat="47.99059" lon="6.81891">
        <ele>941.237488</ele>
        <time>2019-08-16T14:17:31Z</time>
      </trkpt>
      <trkpt lat="47.99057" lon="6.81883">
        <ele>940.965332</ele>
        <time>2019-08-16T14:17:33Z</time>
      </trkpt>
      <trkpt lat="47.99056" lon="6.81877">
        <ele>940.442078</ele>
        <time>2019-08-16T14:17:34Z</time>
      </trkpt>
      <trkpt lat="47.99054" lon="6.81872">
        <ele>939.926758</ele>
        <time>2019-08-16T14:17:35Z</time>
      </trkpt>
      <trkpt lat="47.99053" lon="6.81865">
        <ele>939.406677</ele>
        <time>2019-08-16T14:17:36Z</time>
      </trkpt>
      <trkpt lat="47.99051" lon="6.81857">
        <ele>938.863464</ele>
        <time>2019-08-16T14:17:37Z</time>
      </trkpt>
      <trkpt lat="47.99049" lon="6.81848">
        <ele>938.291321</ele>
        <time>2019-08-16T14:17:38Z</time>
      </trkpt>
      <trkpt lat="47.99048" lon="6.81839">
        <ele>937.679199</ele>
        <time>2019-08-16T14:17:39Z</time>
      </trkpt>
      <trkpt lat="47.99044" lon="6.81831">
        <ele>936.653992</ele>
        <time>2019-08-16T14:17:40Z</time>
      </trkpt>
      <trkpt lat="47.99041" lon="6.81824">
        <ele>935.874329</ele>
        <time>2019-08-16T14:17:41Z</time>
      </trkpt>
      <trkpt lat="47.99036" lon="6.81818">
        <ele>935.044617</ele>
        <time>2019-08-16T14:17:42Z</time>
      </trkpt>
      <trkpt lat="47.99031" lon="6.81814">
        <ele>933.816406</ele>
        <time>2019-08-16T14:17:43Z</time>
      </trkpt>
      <trkpt lat="47.99027" lon="6.81811">
        <ele>933.042236</ele>
        <time>2019-08-16T14:17:44Z</time>
      </trkpt>
      <trkpt lat="47.99023" lon="6.81808">
        <ele>932.288269</ele>
        <time>2019-08-16T14:17:45Z</time>
      </trkpt>
      <trkpt lat="47.99021" lon="6.81806">
        <ele>931.207825</ele>
        <time>2019-08-16T14:17:46Z</time>
      </trkpt>
      <trkpt lat="47.99019" lon="6.81804">
        <ele>930.540283</ele>
        <time>2019-08-16T14:17:47Z</time>
      </trkpt>
      <trkpt lat="47.99017" lon="6.81802">
        <ele>929.915833</ele>
        <time>2019-08-16T14:17:48Z</time>
      </trkpt>
      <trkpt lat="47.99015" lon="6.818">
        <ele>929.011902</ele>
        <time>2019-08-16T14:17:49Z</time>
      </trkpt>
      <trkpt lat="47.99013" lon="6.81797">
        <ele>928.422058</ele>
        <time>2019-08-16T14:17:50Z</time>
      </trkpt>
      <trkpt lat="47.99011" lon="6.81796">
        <ele>927.86554</ele>
        <time>2019-08-16T14:17:51Z</time>
      </trkpt>
      <trkpt lat="47.99009" lon="6.81794">
        <ele>927.354187</ele>
        <time>2019-08-16T14:17:52Z</time>
      </trkpt>
      <trkpt lat="47.99009" lon="6.81793">
        <ele>926.887207</ele>
        <time>2019-08-16T14:17:53Z</time>
      </trkpt>
      <trkpt lat="47.99007" lon="6.81792">
        <ele>926.242249</ele>
        <time>2019-08-16T14:17:54Z</time>
      </trkpt>
      <trkpt lat="47.99006" lon="6.81792">
        <ele>925.838684</ele>
        <time>2019-08-16T14:17:55Z</time>
      </trkpt>
      <trkpt lat="47.98997" lon="6.81789">
        <ele>922.779236</ele>
        <time>2019-08-16T14:18:14Z</time>
      </trkpt>
      <trkpt lat="47.98996" lon="6.81789">
        <ele>922.748962</ele>
        <time>2019-08-16T14:18:16Z</time>
      </trkpt>
      <trkpt lat="47.98994" lon="6.8179">
        <ele>922.715637</ele>
        <time>2019-08-16T14:18:17Z</time>
      </trkpt>
      <trkpt lat="47.98992" lon="6.81791">
        <ele>922.66864</ele>
        <time>2019-08-16T14:18:18Z</time>
      </trkpt>
      <trkpt lat="47.98991" lon="6.81791">
        <ele>922.568359</ele>
        <time>2019-08-16T14:18:19Z</time>
      </trkpt>
      <trkpt lat="47.9899" lon="6.81793">
        <ele>922.484314</ele>
        <time>2019-08-16T14:18:20Z</time>
      </trkpt>
      <trkpt lat="47.98989" lon="6.81795">
        <ele>922.389404</ele>
        <time>2019-08-16T14:18:21Z</time>
      </trkpt>
      <trkpt lat="47.98988" lon="6.81797">
        <ele>922.239563</ele>
        <time>2019-08-16T14:18:22Z</time>
      </trkpt>
      <trkpt lat="47.98986" lon="6.81798">
        <ele>922.135559</ele>
        <time>2019-08-16T14:18:23Z</time>
      </trkpt>
      <trkpt lat="47.98985" lon="6.81799">
        <ele>922.032898</ele>
        <time>2019-08-16T14:18:24Z</time>
      </trkpt>
      <trkpt lat="47.98982" lon="6.81799">
        <ele>921.896912</ele>
        <time>2019-08-16T14:18:25Z</time>
      </trkpt>
      <trkpt lat="47.9898" lon="6.818">
        <ele>921.826416</ele>
        <time>2019-08-16T14:18:26Z</time>
      </trkpt>
      <trkpt lat="47.98978" lon="6.81801">
        <ele>921.76709</ele>
        <time>2019-08-16T14:18:27Z</time>
      </trkpt>
      <trkpt lat="47.98975" lon="6.81804">
        <ele>921.716553</ele>
        <time>2019-08-16T14:18:28Z</time>
      </trkpt>
      <trkpt lat="47.98973" lon="6.81806">
        <ele>921.647888</ele>
        <time>2019-08-16T14:18:29Z</time>
      </trkpt>
      <trkpt lat="47.98969" lon="6.81809">
        <ele>921.600647</ele>
        <time>2019-08-16T14:18:30Z</time>
      </trkpt>
      <trkpt lat="47.98964" lon="6.81813">
        <ele>921.496094</ele>
        <time>2019-08-16T14:18:31Z</time>
      </trkpt>
      <trkpt lat="47.9896" lon="6.81817">
        <ele>921.446472</ele>
        <time>2019-08-16T14:18:32Z</time>
      </trkpt>
      <trkpt lat="47.98955" lon="6.8182">
        <ele>921.318665</ele>
        <time>2019-08-16T14:18:33Z</time>
      </trkpt>
      <trkpt lat="47.98949" lon="6.81823">
        <ele>921.15155</ele>
        <time>2019-08-16T14:18:34Z</time>
      </trkpt>
      <trkpt lat="47.98942" lon="6.81825">
        <ele>920.946777</ele>
        <time>2019-08-16T14:18:35Z</time>
      </trkpt>
      <trkpt lat="47.98935" lon="6.81828">
        <ele>920.559326</ele>
        <time>2019-08-16T14:18:36Z</time>
      </trkpt>
      <trkpt lat="47.98927" lon="6.81831">
        <ele>920.07196</ele>
        <time>2019-08-16T14:18:37Z</time>
      </trkpt>
      <trkpt lat="47.9892" lon="6.81833">
        <ele>919.693115</ele>
        <time>2019-08-16T14:18:38Z</time>
      </trkpt>
      <trkpt lat="47.98912" lon="6.81835">
        <ele>919.262939</ele>
        <time>2019-08-16T14:18:39Z</time>
      </trkpt>
      <trkpt lat="47.98904" lon="6.81836">
        <ele>918.773743</ele>
        <time>2019-08-16T14:18:40Z</time>
      </trkpt>
      <trkpt lat="47.98897" lon="6.81838">
        <ele>917.930115</ele>
        <time>2019-08-16T14:18:41Z</time>
      </trkpt>
      <trkpt lat="47.9889" lon="6.81843">
        <ele>917.325012</ele>
        <time>2019-08-16T14:18:42Z</time>
      </trkpt>
      <trkpt lat="47.98883" lon="6.81849">
        <ele>916.71051</ele>
        <time>2019-08-16T14:18:43Z</time>
      </trkpt>
      <trkpt lat="47.98878" lon="6.81855">
        <ele>915.794128</ele>
        <time>2019-08-16T14:18:44Z</time>
      </trkpt>
      <trkpt lat="47.98872" lon="6.81861">
        <ele>915.216003</ele>
        <time>2019-08-16T14:18:45Z</time>
      </trkpt>
      <trkpt lat="47.98867" lon="6.81864">
        <ele>914.697083</ele>
        <time>2019-08-16T14:18:46Z</time>
      </trkpt>
      <trkpt lat="47.98862" lon="6.81863">
        <ele>914.085999</ele>
        <time>2019-08-16T14:18:47Z</time>
      </trkpt>
      <trkpt lat="47.98856" lon="6.8186">
        <ele>913.779602</ele>
        <time>2019-08-16T14:18:48Z</time>
      </trkpt>
      <trkpt lat="47.98851" lon="6.81854">
        <ele>913.513489</ele>
        <time>2019-08-16T14:18:49Z</time>
      </trkpt>
      <trkpt lat="47.98846" lon="6.81848">
        <ele>913.174011</ele>
        <time>2019-08-16T14:18:50Z</time>
      </trkpt>
      <trkpt lat="47.9884" lon="6.81841">
        <ele>912.971252</ele>
        <time>2019-08-16T14:18:51Z</time>
      </trkpt>
      <trkpt lat="47.98835" lon="6.81833">
        <ele>912.775391</ele>
        <time>2019-08-16T14:18:52Z</time>
      </trkpt>
      <trkpt lat="47.98829" lon="6.81826">
        <ele>912.556641</ele>
        <time>2019-08-16T14:18:53Z</time>
      </trkpt>
      <trkpt lat="47.98823" lon="6.81819">
        <ele>912.122498</ele>
        <time>2019-08-16T14:18:54Z</time>
      </trkpt>
      <trkpt lat="47.98817" lon="6.81813">
        <ele>911.746582</ele>
        <time>2019-08-16T14:18:55Z</time>
      </trkpt>
      <trkpt lat="47.98811" lon="6.81808">
        <ele>911.319031</ele>
        <time>2019-08-16T14:18:56Z</time>
      </trkpt>
      <trkpt lat="47.98805" lon="6.81804">
        <ele>910.615723</ele>
        <time>2019-08-16T14:18:57Z</time>
      </trkpt>
      <trkpt lat="47.988" lon="6.81801">
        <ele>910.130432</ele>
        <time>2019-08-16T14:18:58Z</time>
      </trkpt>
      <trkpt lat="47.98793" lon="6.81798">
        <ele>909.643555</ele>
        <time>2019-08-16T14:18:59Z</time>
      </trkpt>
      <trkpt lat="47.98787" lon="6.81795">
        <ele>908.929504</ele>
        <time>2019-08-16T14:19:00Z</time>
      </trkpt>
      <trkpt lat="47.9878" lon="6.8179">
        <ele>908.481689</ele>
        <time>2019-08-16T14:19:01Z</time>
      </trkpt>
      <trkpt lat="47.98773" lon="6.81783">
        <ele>908.055664</ele>
        <time>2019-08-16T14:19:02Z</time>
      </trkpt>
      <trkpt lat="47.98768" lon="6.81774">
        <ele>907.637634</ele>
        <time>2019-08-16T14:19:03Z</time>
      </trkpt>
      <trkpt lat="47.98763" lon="6.81763">
        <ele>906.998474</ele>
        <time>2019-08-16T14:19:04Z</time>
      </trkpt>
      <trkpt lat="47.98758" lon="6.8175">
        <ele>906.55365</ele>
        <time>2019-08-16T14:19:05Z</time>
      </trkpt>
      <trkpt lat="47.98755" lon="6.81736">
        <ele>906.080322</ele>
        <time>2019-08-16T14:19:06Z</time>
      </trkpt>
      <trkpt lat="47.98752" lon="6.81723">
        <ele>905.557678</ele>
        <time>2019-08-16T14:19:07Z</time>
      </trkpt>
      <trkpt lat="47.9875" lon="6.81713">
        <ele>904.972717</ele>
        <time>2019-08-16T14:19:08Z</time>
      </trkpt>
      <trkpt lat="47.98749" lon="6.81706">
        <ele>904.319153</ele>
        <time>2019-08-16T14:19:09Z</time>
      </trkpt>
      <trkpt lat="47.98748" lon="6.81702">
        <ele>903.600098</ele>
        <time>2019-08-16T14:19:10Z</time>
      </trkpt>
      <trkpt lat="47.98748" lon="6.817">
        <ele>902.830383</ele>
        <time>2019-08-16T14:19:11Z</time>
      </trkpt>
      <trkpt lat="47.98747" lon="6.81698">
        <ele>902.041199</ele>
        <time>2019-08-16T14:19:12Z</time>
      </trkpt>
      <trkpt lat="47.98747" lon="6.81695">
        <ele>901.264893</ele>
        <time>2019-08-16T14:19:13Z</time>
      </trkpt>
      <trkpt lat="47.98745" lon="6.81691">
        <ele>900.538025</ele>
        <time>2019-08-16T14:19:14Z</time>
      </trkpt>
      <trkpt lat="47.98743" lon="6.81687">
        <ele>899.59137</ele>
        <time>2019-08-16T14:19:15Z</time>
      </trkpt>
      <trkpt lat="47.98741" lon="6.81683">
        <ele>899.068359</ele>
        <time>2019-08-16T14:19:16Z</time>
      </trkpt>
      <trkpt lat="47.98738" lon="6.81681">
        <ele>898.624084</ele>
        <time>2019-08-16T14:19:17Z</time>
      </trkpt>
      <trkpt lat="47.98737" lon="6.81679">
        <ele>898.084961</ele>
        <time>2019-08-16T14:19:18Z</time>
      </trkpt>
      <trkpt lat="47.98735" lon="6.81677">
        <ele>897.800232</ele>
        <time>2019-08-16T14:19:19Z</time>
      </trkpt>
      <trkpt lat="47.98735" lon="6.81675">
        <ele>897.469238</ele>
        <time>2019-08-16T14:19:20Z</time>
      </trkpt>
      <trkpt lat="47.98734" lon="6.81673">
        <ele>897.294922</ele>
        <time>2019-08-16T14:19:21Z</time>
      </trkpt>
      <trkpt lat="47.98732" lon="6.8167">
        <ele>897.143372</ele>
        <time>2019-08-16T14:19:22Z</time>
      </trkpt>
      <trkpt lat="47.9873" lon="6.81667">
        <ele>897.007751</ele>
        <time>2019-08-16T14:19:23Z</time>
      </trkpt>
      <trkpt lat="47.98728" lon="6.81664">
        <ele>896.88501</ele>
        <time>2019-08-16T14:19:24Z</time>
      </trkpt>
      <trkpt lat="47.98726" lon="6.8166">
        <ele>896.714844</ele>
        <time>2019-08-16T14:19:25Z</time>
      </trkpt>
      <trkpt lat="47.98723" lon="6.81656">
        <ele>896.609863</ele>
        <time>2019-08-16T14:19:26Z</time>
      </trkpt>
      <trkpt lat="47.98721" lon="6.81651">
        <ele>896.508545</ele>
        <time>2019-08-16T14:19:27Z</time>
      </trkpt>
      <trkpt lat="47.98718" lon="6.81647">
        <ele>896.402832</ele>
        <time>2019-08-16T14:19:28Z</time>
      </trkpt>
      <trkpt lat="47.98715" lon="6.81642">
        <ele>896.27832</ele>
        <time>2019-08-16T14:19:29Z</time>
      </trkpt>
      <trkpt lat="47.98712" lon="6.81636">
        <ele>896.130066</ele>
        <time>2019-08-16T14:19:30Z</time>
      </trkpt>
      <trkpt lat="47.98708" lon="6.81631">
        <ele>895.952637</ele>
        <time>2019-08-16T14:19:31Z</time>
      </trkpt>
      <trkpt lat="47.98705" lon="6.81624">
        <ele>895.749329</ele>
        <time>2019-08-16T14:19:32Z</time>
      </trkpt>
      <trkpt lat="47.98701" lon="6.81617">
        <ele>895.637878</ele>
        <time>2019-08-16T14:19:33Z</time>
      </trkpt>
      <trkpt lat="47.98698" lon="6.8161">
        <ele>895.399109</ele>
        <time>2019-08-16T14:19:34Z</time>
      </trkpt>
      <trkpt lat="47.98694" lon="6.81602">
        <ele>895.137695</ele>
        <time>2019-08-16T14:19:35Z</time>
      </trkpt>
      <trkpt lat="47.9869" lon="6.81594">
        <ele>894.85907</ele>
        <time>2019-08-16T14:19:36Z</time>
      </trkpt>
      <trkpt lat="47.98686" lon="6.81586">
        <ele>894.426941</ele>
        <time>2019-08-16T14:19:37Z</time>
      </trkpt>
      <trkpt lat="47.98681" lon="6.81578">
        <ele>894.137207</ele>
        <time>2019-08-16T14:19:38Z</time>
      </trkpt>
      <trkpt lat="47.98675" lon="6.81571">
        <ele>893.846008</ele>
        <time>2019-08-16T14:19:39Z</time>
      </trkpt>
      <trkpt lat="47.98668" lon="6.81566">
        <ele>893.544373</ele>
        <time>2019-08-16T14:19:40Z</time>
      </trkpt>
      <trkpt lat="47.98661" lon="6.81562">
        <ele>893.220886</ele>
        <time>2019-08-16T14:19:41Z</time>
      </trkpt>
      <trkpt lat="47.98653" lon="6.81565">
        <ele>892.674011</ele>
        <time>2019-08-16T14:19:42Z</time>
      </trkpt>
      <trkpt lat="47.98646" lon="6.8157">
        <ele>892.270325</ele>
        <time>2019-08-16T14:19:43Z</time>
      </trkpt>
      <trkpt lat="47.98639" lon="6.81575">
        <ele>891.846863</ele>
        <time>2019-08-16T14:19:44Z</time>
      </trkpt>
      <trkpt lat="47.98631" lon="6.8158">
        <ele>891.185242</ele>
        <time>2019-08-16T14:19:45Z</time>
      </trkpt>
      <trkpt lat="47.98624" lon="6.81582">
        <ele>890.73291</ele>
        <time>2019-08-16T14:19:46Z</time>
      </trkpt>
      <trkpt lat="47.98616" lon="6.81586">
        <ele>890.280457</ele>
        <time>2019-08-16T14:19:47Z</time>
      </trkpt>
      <trkpt lat="47.98611" lon="6.8159">
        <ele>889.657776</ele>
        <time>2019-08-16T14:19:48Z</time>
      </trkpt>
      <trkpt lat="47.98607" lon="6.81593">
        <ele>889.30835</ele>
        <time>2019-08-16T14:19:49Z</time>
      </trkpt>
      <trkpt lat="47.98602" lon="6.81596">
        <ele>889.020508</ele>
        <time>2019-08-16T14:19:50Z</time>
      </trkpt>
      <trkpt lat="47.98597" lon="6.81598">
        <ele>888.705261</ele>
        <time>2019-08-16T14:19:51Z</time>
      </trkpt>
      <trkpt lat="47.98593" lon="6.816">
        <ele>888.573975</ele>
        <time>2019-08-16T14:19:52Z</time>
      </trkpt>
      <trkpt lat="47.98588" lon="6.81602">
        <ele>888.499512</ele>
        <time>2019-08-16T14:19:53Z</time>
      </trkpt>
      <trkpt lat="47.98585" lon="6.81603">
        <ele>888.44989</ele>
        <time>2019-08-16T14:19:54Z</time>
      </trkpt>
      <trkpt lat="47.98581" lon="6.81604">
        <ele>888.424011</ele>
        <time>2019-08-16T14:19:55Z</time>
      </trkpt>
      <trkpt lat="47.98578" lon="6.81605">
        <ele>888.390381</ele>
        <time>2019-08-16T14:19:56Z</time>
      </trkpt>
      <trkpt lat="47.98569" lon="6.81608">
        <ele>887.878113</ele>
        <time>2019-08-16T14:20:03Z</time>
      </trkpt>
      <trkpt lat="47.98565" lon="6.81609">
        <ele>887.820007</ele>
        <time>2019-08-16T14:20:05Z</time>
      </trkpt>
      <trkpt lat="47.98562" lon="6.8161">
        <ele>887.70929</ele>
        <time>2019-08-16T14:20:06Z</time>
      </trkpt>
      <trkpt lat="47.98558" lon="6.81612">
        <ele>887.609192</ele>
        <time>2019-08-16T14:20:07Z</time>
      </trkpt>
      <trkpt lat="47.98554" lon="6.81614">
        <ele>887.489746</ele>
        <time>2019-08-16T14:20:08Z</time>
      </trkpt>
      <trkpt lat="47.9855" lon="6.81617">
        <ele>887.307861</ele>
        <time>2019-08-16T14:20:09Z</time>
      </trkpt>
      <trkpt lat="47.98547" lon="6.81619">
        <ele>887.195496</ele>
        <time>2019-08-16T14:20:10Z</time>
      </trkpt>
      <trkpt lat="47.98542" lon="6.81621">
        <ele>887.097656</ele>
        <time>2019-08-16T14:20:11Z</time>
      </trkpt>
      <trkpt lat="47.98539" lon="6.81623">
        <ele>886.993835</ele>
        <time>2019-08-16T14:20:12Z</time>
      </trkpt>
      <trkpt lat="47.98536" lon="6.81624">
        <ele>886.96051</ele>
        <time>2019-08-16T14:20:13Z</time>
      </trkpt>
      <trkpt lat="47.98533" lon="6.81625">
        <ele>886.953369</ele>
        <time>2019-08-16T14:20:14Z</time>
      </trkpt>
      <trkpt lat="47.9853" lon="6.81626">
        <ele>886.958557</ele>
        <time>2019-08-16T14:20:15Z</time>
      </trkpt>
      <trkpt lat="47.98528" lon="6.81627">
        <ele>886.98407</ele>
        <time>2019-08-16T14:20:16Z</time>
      </trkpt>
      <trkpt lat="47.98526" lon="6.81627">
        <ele>887.021973</ele>
        <time>2019-08-16T14:20:17Z</time>
      </trkpt>
      <trkpt lat="47.98524" lon="6.81628">
        <ele>887.096191</ele>
        <time>2019-08-16T14:20:18Z</time>
      </trkpt>
      <trkpt lat="47.98521" lon="6.81628">
        <ele>887.152832</ele>
        <time>2019-08-16T14:20:19Z</time>
      </trkpt>
      <trkpt lat="47.9852" lon="6.81629">
        <ele>887.21875</ele>
        <time>2019-08-16T14:20:20Z</time>
      </trkpt>
      <trkpt lat="47.98517" lon="6.8163">
        <ele>887.348145</ele>
        <time>2019-08-16T14:20:21Z</time>
      </trkpt>
      <trkpt lat="47.98515" lon="6.81631">
        <ele>887.461853</ele>
        <time>2019-08-16T14:20:22Z</time>
      </trkpt>
      <trkpt lat="47.98513" lon="6.81631">
        <ele>887.601746</ele>
        <time>2019-08-16T14:20:23Z</time>
      </trkpt>
      <trkpt lat="47.98511" lon="6.81632">
        <ele>887.840637</ele>
        <time>2019-08-16T14:20:24Z</time>
      </trkpt>
      <trkpt lat="47.9851" lon="6.81633">
        <ele>888.001221</ele>
        <time>2019-08-16T14:20:25Z</time>
      </trkpt>
      <trkpt lat="47.98508" lon="6.81635">
        <ele>888.158447</ele>
        <time>2019-08-16T14:20:26Z</time>
      </trkpt>
      <trkpt lat="47.98506" lon="6.81636">
        <ele>888.397949</ele>
        <time>2019-08-16T14:20:27Z</time>
      </trkpt>
      <trkpt lat="47.98504" lon="6.81638">
        <ele>888.5625</ele>
        <time>2019-08-16T14:20:28Z</time>
      </trkpt>
      <trkpt lat="47.98502" lon="6.81638">
        <ele>888.719666</ele>
        <time>2019-08-16T14:20:29Z</time>
      </trkpt>
      <trkpt lat="47.985" lon="6.81639">
        <ele>888.930664</ele>
        <time>2019-08-16T14:20:30Z</time>
      </trkpt>
      <trkpt lat="47.98499" lon="6.8164">
        <ele>889.062927</ele>
        <time>2019-08-16T14:20:31Z</time>
      </trkpt>
      <trkpt lat="47.98497" lon="6.81641">
        <ele>889.205139</ele>
        <time>2019-08-16T14:20:32Z</time>
      </trkpt>
      <trkpt lat="47.98496" lon="6.81643">
        <ele>889.281067</ele>
        <time>2019-08-16T14:20:33Z</time>
      </trkpt>
      <trkpt lat="47.98495" lon="6.81643">
        <ele>889.281067</ele>
        <time>2019-08-16T14:20:34Z</time>
      </trkpt>
      <trkpt lat="47.98494" lon="6.81644">
        <ele>889.441895</ele>
        <time>2019-08-16T14:20:35Z</time>
      </trkpt>
      <trkpt lat="47.98493" lon="6.81644">
        <ele>889.600281</ele>
        <time>2019-08-16T14:20:36Z</time>
      </trkpt>
      <trkpt lat="47.98492" lon="6.81645">
        <ele>889.745117</ele>
        <time>2019-08-16T14:20:37Z</time>
      </trkpt>
      <trkpt lat="47.9849" lon="6.81646">
        <ele>889.935059</ele>
        <time>2019-08-16T14:20:38Z</time>
      </trkpt>
      <trkpt lat="47.98488" lon="6.81647">
        <ele>890.054871</ele>
        <time>2019-08-16T14:20:39Z</time>
      </trkpt>
      <trkpt lat="47.98487" lon="6.81647">
        <ele>890.185303</ele>
        <time>2019-08-16T14:20:40Z</time>
      </trkpt>
      <trkpt lat="47.98486" lon="6.81648">
        <ele>890.401611</ele>
        <time>2019-08-16T14:20:41Z</time>
      </trkpt>
      <trkpt lat="47.98484" lon="6.81649">
        <ele>890.559998</ele>
        <time>2019-08-16T14:20:42Z</time>
      </trkpt>
      <trkpt lat="47.98483" lon="6.81649">
        <ele>890.729797</ele>
        <time>2019-08-16T14:20:43Z</time>
      </trkpt>
      <trkpt lat="47.98482" lon="6.8165">
        <ele>891.016907</ele>
        <time>2019-08-16T14:20:44Z</time>
      </trkpt>
      <trkpt lat="47.98481" lon="6.8165">
        <ele>891.227539</ele>
        <time>2019-08-16T14:20:45Z</time>
      </trkpt>
      <trkpt lat="47.9848" lon="6.8165">
        <ele>891.554504</ele>
        <time>2019-08-16T14:20:46Z</time>
      </trkpt>
      <trkpt lat="47.98478" lon="6.8165">
        <ele>891.760193</ele>
        <time>2019-08-16T14:20:47Z</time>
      </trkpt>
      <trkpt lat="47.98477" lon="6.8165">
        <ele>891.946777</ele>
        <time>2019-08-16T14:20:48Z</time>
      </trkpt>
      <trkpt lat="47.98476" lon="6.8165">
        <ele>892.19165</ele>
        <time>2019-08-16T14:20:49Z</time>
      </trkpt>
      <trkpt lat="47.98474" lon="6.81651">
        <ele>892.343079</ele>
        <time>2019-08-16T14:20:50Z</time>
      </trkpt>
      <trkpt lat="47.98472" lon="6.81652">
        <ele>892.49292</ele>
        <time>2019-08-16T14:20:51Z</time>
      </trkpt>
      <trkpt lat="47.98471" lon="6.81652">
        <ele>892.722656</ele>
        <time>2019-08-16T14:20:52Z</time>
      </trkpt>
      <trkpt lat="47.9847" lon="6.81653">
        <ele>892.880371</ele>
        <time>2019-08-16T14:20:53Z</time>
      </trkpt>
      <trkpt lat="47.98468" lon="6.81653">
        <ele>893.04364</ele>
        <time>2019-08-16T14:20:54Z</time>
      </trkpt>
      <trkpt lat="47.98467" lon="6.81653">
        <ele>893.296326</ele>
        <time>2019-08-16T14:20:55Z</time>
      </trkpt>
      <trkpt lat="47.98466" lon="6.81654">
        <ele>893.466003</ele>
        <time>2019-08-16T14:20:56Z</time>
      </trkpt>
      <trkpt lat="47.98464" lon="6.81655">
        <ele>893.623108</ele>
        <time>2019-08-16T14:20:57Z</time>
      </trkpt>
      <trkpt lat="47.98463" lon="6.81655">
        <ele>893.822205</ele>
        <time>2019-08-16T14:20:58Z</time>
      </trkpt>
      <trkpt lat="47.98462" lon="6.81656">
        <ele>893.940247</ele>
        <time>2019-08-16T14:20:59Z</time>
      </trkpt>
      <trkpt lat="47.98461" lon="6.81657">
        <ele>894.056213</ele>
        <time>2019-08-16T14:21:00Z</time>
      </trkpt>
      <trkpt lat="47.9846" lon="6.81657">
        <ele>894.218567</ele>
        <time>2019-08-16T14:21:01Z</time>
      </trkpt>
      <trkpt lat="47.98459" lon="6.81658">
        <ele>894.316589</ele>
        <time>2019-08-16T14:21:02Z</time>
      </trkpt>
      <trkpt lat="47.98458" lon="6.81659">
        <ele>894.411377</ele>
        <time>2019-08-16T14:21:03Z</time>
      </trkpt>
      <trkpt lat="47.98449" lon="6.81667">
        <ele>896.528809</ele>
        <time>2019-08-16T14:21:14Z</time>
      </trkpt>
      <trkpt lat="47.98448" lon="6.81669">
        <ele>896.754944</ele>
        <time>2019-08-16T14:21:16Z</time>
      </trkpt>
      <trkpt lat="47.98447" lon="6.8167">
        <ele>896.898132</ele>
        <time>2019-08-16T14:21:17Z</time>
      </trkpt>
      <trkpt lat="47.98446" lon="6.81671">
        <ele>897.03656</ele>
        <time>2019-08-16T14:21:18Z</time>
      </trkpt>
      <trkpt lat="47.98445" lon="6.81672">
        <ele>897.236511</ele>
        <time>2019-08-16T14:21:19Z</time>
      </trkpt>
      <trkpt lat="47.98444" lon="6.81673">
        <ele>897.373596</ele>
        <time>2019-08-16T14:21:20Z</time>
      </trkpt>
      <trkpt lat="47.98443" lon="6.81674">
        <ele>897.755432</ele>
        <time>2019-08-16T14:21:21Z</time>
      </trkpt>
      <trkpt lat="47.98435" lon="6.8168">
        <ele>899.228516</ele>
        <time>2019-08-16T14:21:29Z</time>
      </trkpt>
      <trkpt lat="47.98433" lon="6.8168">
        <ele>899.399719</ele>
        <time>2019-08-16T14:21:31Z</time>
      </trkpt>
      <trkpt lat="47.98433" lon="6.8168">
        <ele>899.66571</ele>
        <time>2019-08-16T14:21:32Z</time>
      </trkpt>
      <trkpt lat="47.98432" lon="6.81681">
        <ele>900.030762</ele>
        <time>2019-08-16T14:21:33Z</time>
      </trkpt>
      <trkpt lat="47.98431" lon="6.81682">
        <ele>900.217712</ele>
        <time>2019-08-16T14:21:35Z</time>
      </trkpt>
      <trkpt lat="47.9843" lon="6.81682">
        <ele>900.407654</ele>
        <time>2019-08-16T14:21:36Z</time>
      </trkpt>
      <trkpt lat="47.98428" lon="6.81683">
        <ele>900.680664</ele>
        <time>2019-08-16T14:21:37Z</time>
      </trkpt>
      <trkpt lat="47.98428" lon="6.81684">
        <ele>900.990479</ele>
        <time>2019-08-16T14:21:38Z</time>
      </trkpt>
      <trkpt lat="47.98426" lon="6.81685">
        <ele>901.133362</ele>
        <time>2019-08-16T14:21:40Z</time>
      </trkpt>
      <trkpt lat="47.98424" lon="6.81686">
        <ele>901.343445</ele>
        <time>2019-08-16T14:21:41Z</time>
      </trkpt>
      <trkpt lat="47.98422" lon="6.81687">
        <ele>901.472595</ele>
        <time>2019-08-16T14:21:42Z</time>
      </trkpt>
      <trkpt lat="47.98421" lon="6.81688">
        <ele>901.592957</ele>
        <time>2019-08-16T14:21:43Z</time>
      </trkpt>
      <trkpt lat="47.9842" lon="6.81688">
        <ele>901.906982</ele>
        <time>2019-08-16T14:21:44Z</time>
      </trkpt>
      <trkpt lat="47.98419" lon="6.81689">
        <ele>902.04364</ele>
        <time>2019-08-16T14:21:46Z</time>
      </trkpt>
      <trkpt lat="47.98418" lon="6.8169">
        <ele>902.250427</ele>
        <time>2019-08-16T14:21:47Z</time>
      </trkpt>
      <trkpt lat="47.98416" lon="6.81691">
        <ele>902.391418</ele>
        <time>2019-08-16T14:21:48Z</time>
      </trkpt>
      <trkpt lat="47.98414" lon="6.81691">
        <ele>902.53949</ele>
        <time>2019-08-16T14:21:49Z</time>
      </trkpt>
      <trkpt lat="47.98412" lon="6.81692">
        <ele>902.779724</ele>
        <time>2019-08-16T14:21:50Z</time>
      </trkpt>
      <trkpt lat="47.98411" lon="6.81693">
        <ele>902.947571</ele>
        <time>2019-08-16T14:21:51Z</time>
      </trkpt>
      <trkpt lat="47.98409" lon="6.81695">
        <ele>903.121643</ele>
        <time>2019-08-16T14:21:52Z</time>
      </trkpt>
      <trkpt lat="47.98408" lon="6.81696">
        <ele>903.299133</ele>
        <time>2019-08-16T14:21:53Z</time>
      </trkpt>
      <trkpt lat="47.98407" lon="6.81696">
        <ele>903.73999</ele>
        <time>2019-08-16T14:21:54Z</time>
      </trkpt>
      <trkpt lat="47.98406" lon="6.81697">
        <ele>903.908142</ele>
        <time>2019-08-16T14:21:56Z</time>
      </trkpt>
      <trkpt lat="47.98404" lon="6.81698">
        <ele>904.163086</ele>
        <time>2019-08-16T14:21:57Z</time>
      </trkpt>
      <trkpt lat="47.98402" lon="6.81698">
        <ele>904.34198</ele>
        <time>2019-08-16T14:21:58Z</time>
      </trkpt>
      <trkpt lat="47.984" lon="6.81698">
        <ele>904.527344</ele>
        <time>2019-08-16T14:21:59Z</time>
      </trkpt>
      <trkpt lat="47.98399" lon="6.81699">
        <ele>904.818115</ele>
        <time>2019-08-16T14:22:00Z</time>
      </trkpt>
      <trkpt lat="47.98397" lon="6.81699">
        <ele>905.012695</ele>
        <time>2019-08-16T14:22:01Z</time>
      </trkpt>
      <trkpt lat="47.98396" lon="6.81698">
        <ele>905.19696</ele>
        <time>2019-08-16T14:22:02Z</time>
      </trkpt>
      <trkpt lat="47.98393" lon="6.81698">
        <ele>905.441711</ele>
        <time>2019-08-16T14:22:03Z</time>
      </trkpt>
      <trkpt lat="47.98392" lon="6.81698">
        <ele>905.5896</ele>
        <time>2019-08-16T14:22:04Z</time>
      </trkpt>
      <trkpt lat="47.98389" lon="6.81698">
        <ele>905.727783</ele>
        <time>2019-08-16T14:22:05Z</time>
      </trkpt>
      <trkpt lat="47.98387" lon="6.81698">
        <ele>905.925537</ele>
        <time>2019-08-16T14:22:06Z</time>
      </trkpt>
      <trkpt lat="47.98386" lon="6.81698">
        <ele>906.054749</ele>
        <time>2019-08-16T14:22:07Z</time>
      </trkpt>
      <trkpt lat="47.98384" lon="6.81698">
        <ele>906.2547</ele>
        <time>2019-08-16T14:22:08Z</time>
      </trkpt>
      <trkpt lat="47.98383" lon="6.81698">
        <ele>906.401123</ele>
        <time>2019-08-16T14:22:09Z</time>
      </trkpt>
      <trkpt lat="47.98381" lon="6.81698">
        <ele>906.561829</ele>
        <time>2019-08-16T14:22:10Z</time>
      </trkpt>
      <trkpt lat="47.98379" lon="6.81697">
        <ele>906.820801</ele>
        <time>2019-08-16T14:22:11Z</time>
      </trkpt>
      <trkpt lat="47.98377" lon="6.81696">
        <ele>907.001953</ele>
        <time>2019-08-16T14:22:12Z</time>
      </trkpt>
      <trkpt lat="47.98375" lon="6.81695">
        <ele>907.29071</ele>
        <time>2019-08-16T14:22:13Z</time>
      </trkpt>
      <trkpt lat="47.98373" lon="6.81694">
        <ele>907.483215</ele>
        <time>2019-08-16T14:22:14Z</time>
      </trkpt>
      <trkpt lat="47.98372" lon="6.81694">
        <ele>907.666992</ele>
        <time>2019-08-16T14:22:15Z</time>
      </trkpt>
      <trkpt lat="47.9837" lon="6.81693">
        <ele>907.917419</ele>
        <time>2019-08-16T14:22:16Z</time>
      </trkpt>
      <trkpt lat="47.98369" lon="6.81693">
        <ele>908.063293</ele>
        <time>2019-08-16T14:22:17Z</time>
      </trkpt>
      <trkpt lat="47.98367" lon="6.81692">
        <ele>908.193848</ele>
        <time>2019-08-16T14:22:18Z</time>
      </trkpt>
      <trkpt lat="47.98366" lon="6.81692">
        <ele>908.369446</ele>
        <time>2019-08-16T14:22:19Z</time>
      </trkpt>
      <trkpt lat="47.98365" lon="6.81691">
        <ele>908.473938</ele>
        <time>2019-08-16T14:22:20Z</time>
      </trkpt>
      <trkpt lat="47.98364" lon="6.8169">
        <ele>908.574707</ele>
        <time>2019-08-16T14:22:21Z</time>
      </trkpt>
      <trkpt lat="47.98363" lon="6.81688">
        <ele>908.728821</ele>
        <time>2019-08-16T14:22:22Z</time>
      </trkpt>
      <trkpt lat="47.98362" lon="6.81687">
        <ele>908.83075</ele>
        <time>2019-08-16T14:22:23Z</time>
      </trkpt>
      <trkpt lat="47.9836" lon="6.81686">
        <ele>908.93042</ele>
        <time>2019-08-16T14:22:24Z</time>
      </trkpt>
      <trkpt lat="47.9836" lon="6.81684">
        <ele>909.08429</ele>
        <time>2019-08-16T14:22:25Z</time>
      </trkpt>
      <trkpt lat="47.98359" lon="6.81683">
        <ele>909.190247</ele>
        <time>2019-08-16T14:22:26Z</time>
      </trkpt>
      <trkpt lat="47.98358" lon="6.81682">
        <ele>909.301575</ele>
        <time>2019-08-16T14:22:27Z</time>
      </trkpt>
      <trkpt lat="47.98357" lon="6.8168">
        <ele>909.476868</ele>
        <time>2019-08-16T14:22:28Z</time>
      </trkpt>
      <trkpt lat="47.98356" lon="6.81679">
        <ele>909.605774</ele>
        <time>2019-08-16T14:22:29Z</time>
      </trkpt>
      <trkpt lat="47.98355" lon="6.81677">
        <ele>909.744141</ele>
        <time>2019-08-16T14:22:30Z</time>
      </trkpt>
      <trkpt lat="47.98354" lon="6.81676">
        <ele>909.883789</ele>
        <time>2019-08-16T14:22:31Z</time>
      </trkpt>
      <trkpt lat="47.98353" lon="6.81674">
        <ele>910.018066</ele>
        <time>2019-08-16T14:22:32Z</time>
      </trkpt>
      <trkpt lat="47.98352" lon="6.81673">
        <ele>910.146301</ele>
        <time>2019-08-16T14:22:33Z</time>
      </trkpt>
      <trkpt lat="47.98351" lon="6.81672">
        <ele>910.211243</ele>
        <time>2019-08-16T14:22:34Z</time>
      </trkpt>
      <trkpt lat="47.98351" lon="6.8167">
        <ele>910.276367</ele>
        <time>2019-08-16T14:22:35Z</time>
      </trkpt>
      <trkpt lat="47.98349" lon="6.81669">
        <ele>910.409363</ele>
        <time>2019-08-16T14:22:36Z</time>
      </trkpt>
      <trkpt lat="47.98348" lon="6.81668">
        <ele>910.544922</ele>
        <time>2019-08-16T14:22:37Z</time>
      </trkpt>
      <trkpt lat="47.98347" lon="6.81667">
        <ele>910.735413</ele>
        <time>2019-08-16T14:22:38Z</time>
      </trkpt>
      <trkpt lat="47.98345" lon="6.81665">
        <ele>910.861267</ele>
        <time>2019-08-16T14:22:39Z</time>
      </trkpt>
      <trkpt lat="47.98344" lon="6.81664">
        <ele>910.996094</ele>
        <time>2019-08-16T14:22:40Z</time>
      </trkpt>
      <trkpt lat="47.98344" lon="6.81662">
        <ele>911.142761</ele>
        <time>2019-08-16T14:22:41Z</time>
      </trkpt>
      <trkpt lat="47.98343" lon="6.8166">
        <ele>911.292786</ele>
        <time>2019-08-16T14:22:42Z</time>
      </trkpt>
      <trkpt lat="47.98343" lon="6.81658">
        <ele>911.440125</ele>
        <time>2019-08-16T14:22:43Z</time>
      </trkpt>
      <trkpt lat="47.98341" lon="6.81656">
        <ele>911.586609</ele>
        <time>2019-08-16T14:22:44Z</time>
      </trkpt>
      <trkpt lat="47.9834" lon="6.81654">
        <ele>911.734192</ele>
        <time>2019-08-16T14:22:45Z</time>
      </trkpt>
      <trkpt lat="47.9834" lon="6.81653">
        <ele>911.884521</ele>
        <time>2019-08-16T14:22:46Z</time>
      </trkpt>
      <trkpt lat="47.98338" lon="6.81651">
        <ele>912.030945</ele>
        <time>2019-08-16T14:22:47Z</time>
      </trkpt>
      <trkpt lat="47.98337" lon="6.81649">
        <ele>912.234863</ele>
        <time>2019-08-16T14:22:48Z</time>
      </trkpt>
      <trkpt lat="47.98336" lon="6.81647">
        <ele>912.360107</ele>
        <time>2019-08-16T14:22:49Z</time>
      </trkpt>
      <trkpt lat="47.98336" lon="6.81644">
        <ele>912.47998</ele>
        <time>2019-08-16T14:22:50Z</time>
      </trkpt>
      <trkpt lat="47.98335" lon="6.81643">
        <ele>912.590881</ele>
        <time>2019-08-16T14:22:51Z</time>
      </trkpt>
      <trkpt lat="47.98334" lon="6.81641">
        <ele>912.742859</ele>
        <time>2019-08-16T14:22:52Z</time>
      </trkpt>
      <trkpt lat="47.98333" lon="6.8164">
        <ele>912.839539</ele>
        <time>2019-08-16T14:22:53Z</time>
      </trkpt>
      <trkpt lat="47.98332" lon="6.81638">
        <ele>912.940979</ele>
        <time>2019-08-16T14:22:54Z</time>
      </trkpt>
      <trkpt lat="47.98331" lon="6.81636">
        <ele>913.049805</ele>
        <time>2019-08-16T14:22:55Z</time>
      </trkpt>
      <trkpt lat="47.9833" lon="6.81634">
        <ele>913.229492</ele>
        <time>2019-08-16T14:22:56Z</time>
      </trkpt>
      <trkpt lat="47.98329" lon="6.81632">
        <ele>913.354065</ele>
        <time>2019-08-16T14:22:57Z</time>
      </trkpt>
      <trkpt lat="47.98328" lon="6.81631">
        <ele>913.485779</ele>
        <time>2019-08-16T14:22:58Z</time>
      </trkpt>
      <trkpt lat="47.98327" lon="6.8163">
        <ele>913.620605</ele>
        <time>2019-08-16T14:22:59Z</time>
      </trkpt>
      <trkpt lat="47.98327" lon="6.81629">
        <ele>913.82843</ele>
        <time>2019-08-16T14:23:00Z</time>
      </trkpt>
      <trkpt lat="47.98325" lon="6.81626">
        <ele>913.965515</ele>
        <time>2019-08-16T14:23:01Z</time>
      </trkpt>
      <trkpt lat="47.98324" lon="6.81624">
        <ele>914.101379</ele>
        <time>2019-08-16T14:23:02Z</time>
      </trkpt>
      <trkpt lat="47.98324" lon="6.81622">
        <ele>914.237061</ele>
        <time>2019-08-16T14:23:03Z</time>
      </trkpt>
      <trkpt lat="47.98323" lon="6.8162">
        <ele>914.372986</ele>
        <time>2019-08-16T14:23:04Z</time>
      </trkpt>
      <trkpt lat="47.98322" lon="6.81618">
        <ele>914.503845</ele>
        <time>2019-08-16T14:23:05Z</time>
      </trkpt>
      <trkpt lat="47.98321" lon="6.81616">
        <ele>914.63031</ele>
        <time>2019-08-16T14:23:06Z</time>
      </trkpt>
      <trkpt lat="47.9832" lon="6.81614">
        <ele>914.750916</ele>
        <time>2019-08-16T14:23:07Z</time>
      </trkpt>
      <trkpt lat="47.98319" lon="6.81613">
        <ele>914.873535</ele>
        <time>2019-08-16T14:23:08Z</time>
      </trkpt>
      <trkpt lat="47.98318" lon="6.81611">
        <ele>914.997986</ele>
        <time>2019-08-16T14:23:09Z</time>
      </trkpt>
      <trkpt lat="47.98317" lon="6.81609">
        <ele>915.116455</ele>
        <time>2019-08-16T14:23:10Z</time>
      </trkpt>
      <trkpt lat="47.98317" lon="6.81607">
        <ele>915.225159</ele>
        <time>2019-08-16T14:23:11Z</time>
      </trkpt>
      <trkpt lat="47.98316" lon="6.81605">
        <ele>915.325989</ele>
        <time>2019-08-16T14:23:12Z</time>
      </trkpt>
      <trkpt lat="47.98315" lon="6.81603">
        <ele>915.427795</ele>
        <time>2019-08-16T14:23:13Z</time>
      </trkpt>
      <trkpt lat="47.98315" lon="6.81601">
        <ele>915.534424</ele>
        <time>2019-08-16T14:23:14Z</time>
      </trkpt>
      <trkpt lat="47.98314" lon="6.81599">
        <ele>915.650574</ele>
        <time>2019-08-16T14:23:15Z</time>
      </trkpt>
      <trkpt lat="47.98314" lon="6.81597">
        <ele>915.847717</ele>
        <time>2019-08-16T14:23:16Z</time>
      </trkpt>
      <trkpt lat="47.98313" lon="6.81595">
        <ele>915.994568</ele>
        <time>2019-08-16T14:23:17Z</time>
      </trkpt>
      <trkpt lat="47.98312" lon="6.81594">
        <ele>916.158203</ele>
        <time>2019-08-16T14:23:18Z</time>
      </trkpt>
      <trkpt lat="47.98311" lon="6.81591">
        <ele>916.336853</ele>
        <time>2019-08-16T14:23:19Z</time>
      </trkpt>
      <trkpt lat="47.9831" lon="6.81589">
        <ele>916.522217</ele>
        <time>2019-08-16T14:23:20Z</time>
      </trkpt>
      <trkpt lat="47.98309" lon="6.81587">
        <ele>916.700134</ele>
        <time>2019-08-16T14:23:21Z</time>
      </trkpt>
      <trkpt lat="47.98309" lon="6.81584">
        <ele>916.864929</ele>
        <time>2019-08-16T14:23:22Z</time>
      </trkpt>
      <trkpt lat="47.98308" lon="6.81581">
        <ele>917.016052</ele>
        <time>2019-08-16T14:23:23Z</time>
      </trkpt>
      <trkpt lat="47.98308" lon="6.81579">
        <ele>917.217834</ele>
        <time>2019-08-16T14:23:24Z</time>
      </trkpt>
      <trkpt lat="47.98307" lon="6.81577">
        <ele>917.332092</ele>
        <time>2019-08-16T14:23:25Z</time>
      </trkpt>
      <trkpt lat="47.98306" lon="6.81575">
        <ele>917.430908</ele>
        <time>2019-08-16T14:23:26Z</time>
      </trkpt>
      <trkpt lat="47.98304" lon="6.81573">
        <ele>917.519226</ele>
        <time>2019-08-16T14:23:27Z</time>
      </trkpt>
      <trkpt lat="47.98304" lon="6.8157">
        <ele>917.603088</ele>
        <time>2019-08-16T14:23:28Z</time>
      </trkpt>
      <trkpt lat="47.98303" lon="6.81566">
        <ele>917.68219</ele>
        <time>2019-08-16T14:23:29Z</time>
      </trkpt>
      <trkpt lat="47.98302" lon="6.81564">
        <ele>917.758728</ele>
        <time>2019-08-16T14:23:30Z</time>
      </trkpt>
      <trkpt lat="47.98301" lon="6.81561">
        <ele>917.834412</ele>
        <time>2019-08-16T14:23:31Z</time>
      </trkpt>
      <trkpt lat="47.983" lon="6.81558">
        <ele>917.912781</ele>
        <time>2019-08-16T14:23:32Z</time>
      </trkpt>
      <trkpt lat="47.98298" lon="6.81555">
        <ele>917.990173</ele>
        <time>2019-08-16T14:23:33Z</time>
      </trkpt>
      <trkpt lat="47.98297" lon="6.81551">
        <ele>918.062744</ele>
        <time>2019-08-16T14:23:34Z</time>
      </trkpt>
      <trkpt lat="47.98296" lon="6.81548">
        <ele>918.096863</ele>
        <time>2019-08-16T14:23:35Z</time>
      </trkpt>
      <trkpt lat="47.98294" lon="6.81546">
        <ele>918.16156</ele>
        <time>2019-08-16T14:23:36Z</time>
      </trkpt>
      <trkpt lat="47.98293" lon="6.81543">
        <ele>918.225647</ele>
        <time>2019-08-16T14:23:37Z</time>
      </trkpt>
      <trkpt lat="47.98292" lon="6.8154">
        <ele>918.291992</ele>
        <time>2019-08-16T14:23:38Z</time>
      </trkpt>
      <trkpt lat="47.98291" lon="6.81537">
        <ele>918.360657</ele>
        <time>2019-08-16T14:23:39Z</time>
      </trkpt>
      <trkpt lat="47.9829" lon="6.81534">
        <ele>918.468811</ele>
        <time>2019-08-16T14:23:40Z</time>
      </trkpt>
      <trkpt lat="47.98289" lon="6.81532">
        <ele>918.542908</ele>
        <time>2019-08-16T14:23:41Z</time>
      </trkpt>
      <trkpt lat="47.98288" lon="6.81529">
        <ele>918.618469</ele>
        <time>2019-08-16T14:23:42Z</time>
      </trkpt>
      <trkpt lat="47.98286" lon="6.81526">
        <ele>918.697449</ele>
        <time>2019-08-16T14:23:43Z</time>
      </trkpt>
      <trkpt lat="47.98284" lon="6.81524">
        <ele>918.78302</ele>
        <time>2019-08-16T14:23:44Z</time>
      </trkpt>
      <trkpt lat="47.98282" lon="6.81521">
        <ele>918.872253</ele>
        <time>2019-08-16T14:23:45Z</time>
      </trkpt>
      <trkpt lat="47.98281" lon="6.81519">
        <ele>918.956726</ele>
        <time>2019-08-16T14:23:46Z</time>
      </trkpt>
      <trkpt lat="47.98279" lon="6.81515">
        <ele>919.030579</ele>
        <time>2019-08-16T14:23:47Z</time>
      </trkpt>
      <trkpt lat="47.98277" lon="6.81512">
        <ele>919.093201</ele>
        <time>2019-08-16T14:23:48Z</time>
      </trkpt>
      <trkpt lat="47.98275" lon="6.81509">
        <ele>919.168762</ele>
        <time>2019-08-16T14:23:49Z</time>
      </trkpt>
      <trkpt lat="47.98274" lon="6.81505">
        <ele>919.200989</ele>
        <time>2019-08-16T14:23:50Z</time>
      </trkpt>
      <trkpt lat="47.98272" lon="6.81501">
        <ele>919.208984</ele>
        <time>2019-08-16T14:23:51Z</time>
      </trkpt>
      <trkpt lat="47.9827" lon="6.81497">
        <ele>919.208984</ele>
        <time>2019-08-16T14:23:52Z</time>
      </trkpt>
      <trkpt lat="47.98268" lon="6.81492">
        <ele>919.198914</ele>
        <time>2019-08-16T14:23:53Z</time>
      </trkpt>
      <trkpt lat="47.98266" lon="6.81488">
        <ele>919.174744</ele>
        <time>2019-08-16T14:23:54Z</time>
      </trkpt>
      <trkpt lat="47.98264" lon="6.81485">
        <ele>919.126892</ele>
        <time>2019-08-16T14:23:55Z</time>
      </trkpt>
      <trkpt lat="47.98262" lon="6.8148">
        <ele>919.08374</ele>
        <time>2019-08-16T14:23:56Z</time>
      </trkpt>
      <trkpt lat="47.9826" lon="6.81476">
        <ele>919.037781</ele>
        <time>2019-08-16T14:23:57Z</time>
      </trkpt>
      <trkpt lat="47.98258" lon="6.81472">
        <ele>918.996399</ele>
        <time>2019-08-16T14:23:58Z</time>
      </trkpt>
      <trkpt lat="47.98256" lon="6.81469">
        <ele>918.959412</ele>
        <time>2019-08-16T14:23:59Z</time>
      </trkpt>
      <trkpt lat="47.98254" lon="6.81464">
        <ele>918.952637</ele>
        <time>2019-08-16T14:24:00Z</time>
      </trkpt>
      <trkpt lat="47.98252" lon="6.8146">
        <ele>918.952698</ele>
        <time>2019-08-16T14:24:01Z</time>
      </trkpt>
      <trkpt lat="47.9825" lon="6.81456">
        <ele>918.975647</ele>
        <time>2019-08-16T14:24:02Z</time>
      </trkpt>
      <trkpt lat="47.98248" lon="6.81452">
        <ele>919.010986</ele>
        <time>2019-08-16T14:24:03Z</time>
      </trkpt>
      <trkpt lat="47.98245" lon="6.81449">
        <ele>919.049316</ele>
        <time>2019-08-16T14:24:04Z</time>
      </trkpt>
      <trkpt lat="47.98243" lon="6.81446">
        <ele>919.100342</ele>
        <time>2019-08-16T14:24:05Z</time>
      </trkpt>
      <trkpt lat="47.9824" lon="6.81443">
        <ele>919.12085</ele>
        <time>2019-08-16T14:24:06Z</time>
      </trkpt>
      <trkpt lat="47.98237" lon="6.8144">
        <ele>919.132324</ele>
        <time>2019-08-16T14:24:07Z</time>
      </trkpt>
      <trkpt lat="47.98235" lon="6.81437">
        <ele>919.144775</ele>
        <time>2019-08-16T14:24:08Z</time>
      </trkpt>
      <trkpt lat="47.98233" lon="6.81435">
        <ele>919.169739</ele>
        <time>2019-08-16T14:24:09Z</time>
      </trkpt>
      <trkpt lat="47.9823" lon="6.81433">
        <ele>919.209473</ele>
        <time>2019-08-16T14:24:10Z</time>
      </trkpt>
      <trkpt lat="47.98227" lon="6.81431">
        <ele>919.284119</ele>
        <time>2019-08-16T14:24:11Z</time>
      </trkpt>
      <trkpt lat="47.98223" lon="6.81429">
        <ele>919.331116</ele>
        <time>2019-08-16T14:24:12Z</time>
      </trkpt>
      <trkpt lat="47.98219" lon="6.81427">
        <ele>919.36554</ele>
        <time>2019-08-16T14:24:13Z</time>
      </trkpt>
      <trkpt lat="47.98215" lon="6.81424">
        <ele>919.373596</ele>
        <time>2019-08-16T14:24:14Z</time>
      </trkpt>
      <trkpt lat="47.98211" lon="6.81421">
        <ele>919.358582</ele>
        <time>2019-08-16T14:24:15Z</time>
      </trkpt>
      <trkpt lat="47.98206" lon="6.81417">
        <ele>919.287537</ele>
        <time>2019-08-16T14:24:16Z</time>
      </trkpt>
      <trkpt lat="47.98201" lon="6.81413">
        <ele>919.068359</ele>
        <time>2019-08-16T14:24:17Z</time>
      </trkpt>
      <trkpt lat="47.98197" lon="6.81409">
        <ele>918.866211</ele>
        <time>2019-08-16T14:24:18Z</time>
      </trkpt>
      <trkpt lat="47.98192" lon="6.81405">
        <ele>918.646179</ele>
        <time>2019-08-16T14:24:19Z</time>
      </trkpt>
      <trkpt lat="47.98187" lon="6.81401">
        <ele>918.422302</ele>
        <time>2019-08-16T14:24:20Z</time>
      </trkpt>
      <trkpt lat="47.98182" lon="6.81397">
        <ele>918.09082</ele>
        <time>2019-08-16T14:24:21Z</time>
      </trkpt>
      <trkpt lat="47.98176" lon="6.81393">
        <ele>917.85675</ele>
        <time>2019-08-16T14:24:22Z</time>
      </trkpt>
      <trkpt lat="47.98171" lon="6.8139">
        <ele>917.615417</ele>
        <time>2019-08-16T14:24:23Z</time>
      </trkpt>
      <trkpt lat="47.98166" lon="6.81387">
        <ele>917.263855</ele>
        <time>2019-08-16T14:24:24Z</time>
      </trkpt>
      <trkpt lat="47.98161" lon="6.81384">
        <ele>917.051941</ele>
        <time>2019-08-16T14:24:25Z</time>
      </trkpt>
      <trkpt lat="47.98155" lon="6.81381">
        <ele>916.86377</ele>
        <time>2019-08-16T14:24:26Z</time>
      </trkpt>
      <trkpt lat="47.98151" lon="6.81378">
        <ele>916.647766</ele>
        <time>2019-08-16T14:24:27Z</time>
      </trkpt>
      <trkpt lat="47.98146" lon="6.81376">
        <ele>916.578613</ele>
        <time>2019-08-16T14:24:28Z</time>
      </trkpt>
      <trkpt lat="47.98141" lon="6.81372">
        <ele>916.561218</ele>
        <time>2019-08-16T14:24:29Z</time>
      </trkpt>
      <trkpt lat="47.98136" lon="6.81369">
        <ele>916.562012</ele>
        <time>2019-08-16T14:24:30Z</time>
      </trkpt>
      <trkpt lat="47.9813" lon="6.81365">
        <ele>916.570251</ele>
        <time>2019-08-16T14:24:31Z</time>
      </trkpt>
      <trkpt lat="47.98125" lon="6.81362">
        <ele>916.570251</ele>
        <time>2019-08-16T14:24:32Z</time>
      </trkpt>
      <trkpt lat="47.9812" lon="6.8136">
        <ele>916.53949</ele>
        <time>2019-08-16T14:24:33Z</time>
      </trkpt>
      <trkpt lat="47.98115" lon="6.81357">
        <ele>916.480774</ele>
        <time>2019-08-16T14:24:34Z</time>
      </trkpt>
      <trkpt lat="47.9811" lon="6.81354">
        <ele>916.439209</ele>
        <time>2019-08-16T14:24:35Z</time>
      </trkpt>
      <trkpt lat="47.98106" lon="6.81351">
        <ele>916.390137</ele>
        <time>2019-08-16T14:24:36Z</time>
      </trkpt>
      <trkpt lat="47.981" lon="6.8135">
        <ele>916.197815</ele>
        <time>2019-08-16T14:24:37Z</time>
      </trkpt>
      <trkpt lat="47.98094" lon="6.81352">
        <ele>916.042725</ele>
        <time>2019-08-16T14:24:38Z</time>
      </trkpt>
      <trkpt lat="47.98088" lon="6.81355">
        <ele>915.878357</ele>
        <time>2019-08-16T14:24:39Z</time>
      </trkpt>
      <trkpt lat="47.98082" lon="6.81358">
        <ele>915.648376</ele>
        <time>2019-08-16T14:24:40Z</time>
      </trkpt>
      <trkpt lat="47.98076" lon="6.8136">
        <ele>915.507324</ele>
        <time>2019-08-16T14:24:41Z</time>
      </trkpt>
      <trkpt lat="47.9807" lon="6.81362">
        <ele>915.365417</ele>
        <time>2019-08-16T14:24:42Z</time>
      </trkpt>
      <trkpt lat="47.98064" lon="6.81364">
        <ele>915.104248</ele>
        <time>2019-08-16T14:24:43Z</time>
      </trkpt>
      <trkpt lat="47.9806" lon="6.81365">
        <ele>914.914551</ele>
        <time>2019-08-16T14:24:44Z</time>
      </trkpt>
      <trkpt lat="47.98055" lon="6.81364">
        <ele>914.730652</ele>
        <time>2019-08-16T14:24:45Z</time>
      </trkpt>
      <trkpt lat="47.9805" lon="6.81362">
        <ele>914.479675</ele>
        <time>2019-08-16T14:24:46Z</time>
      </trkpt>
      <trkpt lat="47.98046" lon="6.81359">
        <ele>914.330078</ele>
        <time>2019-08-16T14:24:47Z</time>
      </trkpt>
      <trkpt lat="47.98042" lon="6.81356">
        <ele>914.195557</ele>
        <time>2019-08-16T14:24:48Z</time>
      </trkpt>
      <trkpt lat="47.98037" lon="6.81354">
        <ele>914.012268</ele>
        <time>2019-08-16T14:24:49Z</time>
      </trkpt>
      <trkpt lat="47.98032" lon="6.81352">
        <ele>913.900879</ele>
        <time>2019-08-16T14:24:50Z</time>
      </trkpt>
      <trkpt lat="47.98027" lon="6.81351">
        <ele>913.799988</ele>
        <time>2019-08-16T14:24:51Z</time>
      </trkpt>
      <trkpt lat="47.98023" lon="6.8135">
        <ele>913.646729</ele>
        <time>2019-08-16T14:24:52Z</time>
      </trkpt>
      <trkpt lat="47.98018" lon="6.81349">
        <ele>913.531921</ele>
        <time>2019-08-16T14:24:53Z</time>
      </trkpt>
      <trkpt lat="47.98012" lon="6.81348">
        <ele>913.401917</ele>
        <time>2019-08-16T14:24:54Z</time>
      </trkpt>
      <trkpt lat="47.98007" lon="6.81346">
        <ele>913.206848</ele>
        <time>2019-08-16T14:24:55Z</time>
      </trkpt>
      <trkpt lat="47.98001" lon="6.81344">
        <ele>913.081726</ele>
        <time>2019-08-16T14:24:56Z</time>
      </trkpt>
      <trkpt lat="47.97995" lon="6.81343">
        <ele>912.955505</ele>
        <time>2019-08-16T14:24:57Z</time>
      </trkpt>
      <trkpt lat="47.97988" lon="6.81341">
        <ele>912.728943</ele>
        <time>2019-08-16T14:24:58Z</time>
      </trkpt>
      <trkpt lat="47.97982" lon="6.81339">
        <ele>912.554932</ele>
        <time>2019-08-16T14:24:59Z</time>
      </trkpt>
      <trkpt lat="47.97975" lon="6.81338">
        <ele>912.238525</ele>
        <time>2019-08-16T14:25:00Z</time>
      </trkpt>
      <trkpt lat="47.97969" lon="6.81335">
        <ele>911.960754</ele>
        <time>2019-08-16T14:25:01Z</time>
      </trkpt>
      <trkpt lat="47.97963" lon="6.81334">
        <ele>911.615723</ele>
        <time>2019-08-16T14:25:02Z</time>
      </trkpt>
      <trkpt lat="47.97957" lon="6.81333">
        <ele>911.047424</ele>
        <time>2019-08-16T14:25:03Z</time>
      </trkpt>
      <trkpt lat="47.97952" lon="6.81332">
        <ele>910.680908</ele>
        <time>2019-08-16T14:25:04Z</time>
      </trkpt>
      <trkpt lat="47.97948" lon="6.81332">
        <ele>910.159851</ele>
        <time>2019-08-16T14:25:05Z</time>
      </trkpt>
      <trkpt lat="47.97944" lon="6.81332">
        <ele>909.818359</ele>
        <time>2019-08-16T14:25:06Z</time>
      </trkpt>
      <trkpt lat="47.9794" lon="6.81333">
        <ele>909.492004</ele>
        <time>2019-08-16T14:25:07Z</time>
      </trkpt>
      <trkpt lat="47.97938" lon="6.81333">
        <ele>909.046875</ele>
        <time>2019-08-16T14:25:08Z</time>
      </trkpt>
      <trkpt lat="47.97936" lon="6.81333">
        <ele>908.772644</ele>
        <time>2019-08-16T14:25:09Z</time>
      </trkpt>
      <trkpt lat="47.97933" lon="6.81333">
        <ele>908.492859</ele>
        <time>2019-08-16T14:25:10Z</time>
      </trkpt>
      <trkpt lat="47.97931" lon="6.81331">
        <ele>908.06134</ele>
        <time>2019-08-16T14:25:11Z</time>
      </trkpt>
      <trkpt lat="47.97928" lon="6.81331">
        <ele>907.768372</ele>
        <time>2019-08-16T14:25:12Z</time>
      </trkpt>
      <trkpt lat="47.97926" lon="6.8133">
        <ele>907.473633</ele>
        <time>2019-08-16T14:25:13Z</time>
      </trkpt>
      <trkpt lat="47.97923" lon="6.81331">
        <ele>907.021301</ele>
        <time>2019-08-16T14:25:14Z</time>
      </trkpt>
      <trkpt lat="47.9792" lon="6.8133">
        <ele>906.711121</ele>
        <time>2019-08-16T14:25:15Z</time>
      </trkpt>
      <trkpt lat="47.97916" lon="6.8133">
        <ele>906.39624</ele>
        <time>2019-08-16T14:25:16Z</time>
      </trkpt>
      <trkpt lat="47.97913" lon="6.8133">
        <ele>905.896667</ele>
        <time>2019-08-16T14:25:17Z</time>
      </trkpt>
      <trkpt lat="47.9791" lon="6.81329">
        <ele>905.534363</ele>
        <time>2019-08-16T14:25:18Z</time>
      </trkpt>
      <trkpt lat="47.97907" lon="6.81328">
        <ele>905.150879</ele>
        <time>2019-08-16T14:25:19Z</time>
      </trkpt>
      <trkpt lat="47.97903" lon="6.81327">
        <ele>904.553284</ele>
        <time>2019-08-16T14:25:20Z</time>
      </trkpt>
      <trkpt lat="47.97902" lon="6.81325">
        <ele>904.150452</ele>
        <time>2019-08-16T14:25:21Z</time>
      </trkpt>
      <trkpt lat="47.97899" lon="6.81324">
        <ele>903.748962</ele>
        <time>2019-08-16T14:25:22Z</time>
      </trkpt>
      <trkpt lat="47.97897" lon="6.81322">
        <ele>903.361084</ele>
        <time>2019-08-16T14:25:23Z</time>
      </trkpt>
      <trkpt lat="47.97894" lon="6.81321">
        <ele>902.814941</ele>
        <time>2019-08-16T14:25:24Z</time>
      </trkpt>
      <trkpt lat="47.97892" lon="6.8132">
        <ele>902.479736</ele>
        <time>2019-08-16T14:25:25Z</time>
      </trkpt>
      <trkpt lat="47.97888" lon="6.81318">
        <ele>902.160583</ele>
        <time>2019-08-16T14:25:26Z</time>
      </trkpt>
      <trkpt lat="47.97885" lon="6.81317">
        <ele>901.693542</ele>
        <time>2019-08-16T14:25:27Z</time>
      </trkpt>
      <trkpt lat="47.97881" lon="6.81316">
        <ele>901.382813</ele>
        <time>2019-08-16T14:25:28Z</time>
      </trkpt>
      <trkpt lat="47.97878" lon="6.81316">
        <ele>900.91803</ele>
        <time>2019-08-16T14:25:29Z</time>
      </trkpt>
      <trkpt lat="47.97876" lon="6.81317">
        <ele>900.590515</ele>
        <time>2019-08-16T14:25:30Z</time>
      </trkpt>
      <trkpt lat="47.97873" lon="6.81316">
        <ele>900.245789</ele>
        <time>2019-08-16T14:25:31Z</time>
      </trkpt>
      <trkpt lat="47.97869" lon="6.81316">
        <ele>899.695251</ele>
        <time>2019-08-16T14:25:32Z</time>
      </trkpt>
      <trkpt lat="47.97865" lon="6.81317">
        <ele>899.306946</ele>
        <time>2019-08-16T14:25:33Z</time>
      </trkpt>
      <trkpt lat="47.97862" lon="6.81318">
        <ele>898.897461</ele>
        <time>2019-08-16T14:25:34Z</time>
      </trkpt>
      <trkpt lat="47.97858" lon="6.8132">
        <ele>898.242737</ele>
        <time>2019-08-16T14:25:35Z</time>
      </trkpt>
      <trkpt lat="47.97853" lon="6.81321">
        <ele>898.017578</ele>
        <time>2019-08-16T14:25:36Z</time>
      </trkpt>
      <trkpt lat="47.97849" lon="6.81323">
        <ele>897.788269</ele>
        <time>2019-08-16T14:25:37Z</time>
      </trkpt>
      <trkpt lat="47.97844" lon="6.81326">
        <ele>897.316711</ele>
        <time>2019-08-16T14:25:38Z</time>
      </trkpt>
      <trkpt lat="47.97841" lon="6.81329">
        <ele>896.540527</ele>
        <time>2019-08-16T14:25:39Z</time>
      </trkpt>
      <trkpt lat="47.97837" lon="6.81332">
        <ele>895.940002</ele>
        <time>2019-08-16T14:25:40Z</time>
      </trkpt>
      <trkpt lat="47.97834" lon="6.81334">
        <ele>895.262695</ele>
        <time>2019-08-16T14:25:41Z</time>
      </trkpt>
      <trkpt lat="47.97829" lon="6.81337">
        <ele>894.128174</ele>
        <time>2019-08-16T14:25:42Z</time>
      </trkpt>
      <trkpt lat="47.97825" lon="6.8134">
        <ele>893.30835</ele>
        <time>2019-08-16T14:25:43Z</time>
      </trkpt>
      <trkpt lat="47.97821" lon="6.81343">
        <ele>892.453552</ele>
        <time>2019-08-16T14:25:44Z</time>
      </trkpt>
      <trkpt lat="47.97817" lon="6.81345">
        <ele>891.171448</ele>
        <time>2019-08-16T14:25:45Z</time>
      </trkpt>
      <trkpt lat="47.97814" lon="6.81348">
        <ele>890.34967</ele>
        <time>2019-08-16T14:25:46Z</time>
      </trkpt>
      <trkpt lat="47.97811" lon="6.81349">
        <ele>889.563904</ele>
        <time>2019-08-16T14:25:47Z</time>
      </trkpt>
      <trkpt lat="47.97807" lon="6.8135">
        <ele>888.437317</ele>
        <time>2019-08-16T14:25:48Z</time>
      </trkpt>
      <trkpt lat="47.97805" lon="6.81352">
        <ele>887.726501</ele>
        <time>2019-08-16T14:25:49Z</time>
      </trkpt>
      <trkpt lat="47.97802" lon="6.81353">
        <ele>887.054993</ele>
        <time>2019-08-16T14:25:50Z</time>
      </trkpt>
      <trkpt lat="47.97797" lon="6.81355">
        <ele>886.114441</ele>
        <time>2019-08-16T14:25:51Z</time>
      </trkpt>
      <trkpt lat="47.97794" lon="6.81358">
        <ele>885.513977</ele>
        <time>2019-08-16T14:25:52Z</time>
      </trkpt>
      <trkpt lat="47.9779" lon="6.81361">
        <ele>884.909851</ele>
        <time>2019-08-16T14:25:53Z</time>
      </trkpt>
      <trkpt lat="47.97787" lon="6.81363">
        <ele>884.292664</ele>
        <time>2019-08-16T14:25:54Z</time>
      </trkpt>
      <trkpt lat="47.97783" lon="6.81366">
        <ele>883.329102</ele>
        <time>2019-08-16T14:25:55Z</time>
      </trkpt>
      <trkpt lat="47.9778" lon="6.81368">
        <ele>882.654785</ele>
        <time>2019-08-16T14:25:56Z</time>
      </trkpt>
      <trkpt lat="47.97775" lon="6.81371">
        <ele>881.95166</ele>
        <time>2019-08-16T14:25:57Z</time>
      </trkpt>
      <trkpt lat="47.97772" lon="6.81373">
        <ele>880.873352</ele>
        <time>2019-08-16T14:25:58Z</time>
      </trkpt>
      <trkpt lat="47.97768" lon="6.81375">
        <ele>880.165039</ele>
        <time>2019-08-16T14:25:59Z</time>
      </trkpt>
      <trkpt lat="47.97764" lon="6.81378">
        <ele>879.474915</ele>
        <time>2019-08-16T14:26:00Z</time>
      </trkpt>
      <trkpt lat="47.9776" lon="6.81381">
        <ele>878.487793</ele>
        <time>2019-08-16T14:26:01Z</time>
      </trkpt>
      <trkpt lat="47.97757" lon="6.81383">
        <ele>877.867859</ele>
        <time>2019-08-16T14:26:02Z</time>
      </trkpt>
      <trkpt lat="47.97753" lon="6.81386">
        <ele>877.282715</ele>
        <time>2019-08-16T14:26:03Z</time>
      </trkpt>
      <trkpt lat="47.9775" lon="6.81388">
        <ele>876.481995</ele>
        <time>2019-08-16T14:26:04Z</time>
      </trkpt>
      <trkpt lat="47.97747" lon="6.81389">
        <ele>875.989441</ele>
        <time>2019-08-16T14:26:05Z</time>
      </trkpt>
      <trkpt lat="47.97745" lon="6.81391">
        <ele>875.519226</ele>
        <time>2019-08-16T14:26:06Z</time>
      </trkpt>
      <trkpt lat="47.97743" lon="6.81393">
        <ele>874.835022</ele>
        <time>2019-08-16T14:26:07Z</time>
      </trkpt>
      <trkpt lat="47.97741" lon="6.81395">
        <ele>874.378479</ele>
        <time>2019-08-16T14:26:08Z</time>
      </trkpt>
      <trkpt lat="47.97739" lon="6.81397">
        <ele>873.908142</ele>
        <time>2019-08-16T14:26:09Z</time>
      </trkpt>
      <trkpt lat="47.97737" lon="6.81398">
        <ele>872.721985</ele>
        <time>2019-08-16T14:26:10Z</time>
      </trkpt>
      <trkpt lat="47.97735" lon="6.814">
        <ele>872.258484</ele>
        <time>2019-08-16T14:26:12Z</time>
      </trkpt>
      <trkpt lat="47.97732" lon="6.81402">
        <ele>871.57843</ele>
        <time>2019-08-16T14:26:13Z</time>
      </trkpt>
      <trkpt lat="47.9773" lon="6.81405">
        <ele>871.130676</ele>
        <time>2019-08-16T14:26:14Z</time>
      </trkpt>
      <trkpt lat="47.97727" lon="6.81407">
        <ele>870.683655</ele>
        <time>2019-08-16T14:26:15Z</time>
      </trkpt>
      <trkpt lat="47.97725" lon="6.81408">
        <ele>870.013611</ele>
        <time>2019-08-16T14:26:16Z</time>
      </trkpt>
      <trkpt lat="47.97723" lon="6.81409">
        <ele>869.569641</ele>
        <time>2019-08-16T14:26:17Z</time>
      </trkpt>
      <trkpt lat="47.9772" lon="6.81412">
        <ele>869.142883</ele>
        <time>2019-08-16T14:26:18Z</time>
      </trkpt>
      <trkpt lat="47.97718" lon="6.81415">
        <ele>868.735535</ele>
        <time>2019-08-16T14:26:19Z</time>
      </trkpt>
      <trkpt lat="47.97715" lon="6.81418">
        <ele>868.163147</ele>
        <time>2019-08-16T14:26:20Z</time>
      </trkpt>
      <trkpt lat="47.97713" lon="6.8142">
        <ele>867.790588</ele>
        <time>2019-08-16T14:26:21Z</time>
      </trkpt>
      <trkpt lat="47.97711" lon="6.81422">
        <ele>867.418457</ele>
        <time>2019-08-16T14:26:22Z</time>
      </trkpt>
      <trkpt lat="47.97708" lon="6.81425">
        <ele>867.045898</ele>
        <time>2019-08-16T14:26:23Z</time>
      </trkpt>
      <trkpt lat="47.97706" lon="6.81427">
        <ele>866.498535</ele>
        <time>2019-08-16T14:26:24Z</time>
      </trkpt>
      <trkpt lat="47.97704" lon="6.81429">
        <ele>866.125183</ele>
        <time>2019-08-16T14:26:25Z</time>
      </trkpt>
      <trkpt lat="47.97701" lon="6.8143">
        <ele>865.747864</ele>
        <time>2019-08-16T14:26:26Z</time>
      </trkpt>
      <trkpt lat="47.97698" lon="6.81432">
        <ele>865.196472</ele>
        <time>2019-08-16T14:26:27Z</time>
      </trkpt>
      <trkpt lat="47.97696" lon="6.81435">
        <ele>864.854004</ele>
        <time>2019-08-16T14:26:28Z</time>
      </trkpt>
      <trkpt lat="47.97693" lon="6.81438">
        <ele>864.524414</ele>
        <time>2019-08-16T14:26:29Z</time>
      </trkpt>
      <trkpt lat="47.97689" lon="6.8144">
        <ele>864.026917</ele>
        <time>2019-08-16T14:26:30Z</time>
      </trkpt>
      <trkpt lat="47.97686" lon="6.81443">
        <ele>863.684998</ele>
        <time>2019-08-16T14:26:31Z</time>
      </trkpt>
      <trkpt lat="47.97681" lon="6.81445">
        <ele>863.338867</ele>
        <time>2019-08-16T14:26:32Z</time>
      </trkpt>
      <trkpt lat="47.97676" lon="6.81449">
        <ele>862.81665</ele>
        <time>2019-08-16T14:26:33Z</time>
      </trkpt>
      <trkpt lat="47.97672" lon="6.81451">
        <ele>862.470215</ele>
        <time>2019-08-16T14:26:34Z</time>
      </trkpt>
      <trkpt lat="47.97669" lon="6.81453">
        <ele>862.13324</ele>
        <time>2019-08-16T14:26:35Z</time>
      </trkpt>
      <trkpt lat="47.97665" lon="6.81455">
        <ele>861.667175</ele>
        <time>2019-08-16T14:26:36Z</time>
      </trkpt>
      <trkpt lat="47.97662" lon="6.81458">
        <ele>861.521729</ele>
        <time>2019-08-16T14:26:37Z</time>
      </trkpt>
      <trkpt lat="47.97658" lon="6.8146">
        <ele>861.104675</ele>
        <time>2019-08-16T14:26:38Z</time>
      </trkpt>
      <trkpt lat="47.97653" lon="6.81464">
        <ele>860.834534</ele>
        <time>2019-08-16T14:26:39Z</time>
      </trkpt>
      <trkpt lat="47.97649" lon="6.81467">
        <ele>860.567322</ele>
        <time>2019-08-16T14:26:40Z</time>
      </trkpt>
      <trkpt lat="47.97645" lon="6.8147">
        <ele>860.166321</ele>
        <time>2019-08-16T14:26:41Z</time>
      </trkpt>
      <trkpt lat="47.97641" lon="6.81471">
        <ele>859.88623</ele>
        <time>2019-08-16T14:26:42Z</time>
      </trkpt>
      <trkpt lat="47.97637" lon="6.81474">
        <ele>859.589294</ele>
        <time>2019-08-16T14:26:43Z</time>
      </trkpt>
      <trkpt lat="47.97634" lon="6.81477">
        <ele>859.123291</ele>
        <time>2019-08-16T14:26:44Z</time>
      </trkpt>
      <trkpt lat="47.9763" lon="6.81481">
        <ele>858.810303</ele>
        <time>2019-08-16T14:26:45Z</time>
      </trkpt>
      <trkpt lat="47.97627" lon="6.81486">
        <ele>858.498474</ele>
        <time>2019-08-16T14:26:46Z</time>
      </trkpt>
      <trkpt lat="47.97621" lon="6.81496">
        <ele>857.799072</ele>
        <time>2019-08-16T14:26:48Z</time>
      </trkpt>
      <trkpt lat="47.97618" lon="6.815">
        <ele>857.564697</ele>
        <time>2019-08-16T14:26:49Z</time>
      </trkpt>
      <trkpt lat="47.97615" lon="6.81504">
        <ele>857.358826</ele>
        <time>2019-08-16T14:26:50Z</time>
      </trkpt>
      <trkpt lat="47.97612" lon="6.81508">
        <ele>857.118347</ele>
        <time>2019-08-16T14:26:51Z</time>
      </trkpt>
      <trkpt lat="47.97609" lon="6.81512">
        <ele>857.022034</ele>
        <time>2019-08-16T14:26:52Z</time>
      </trkpt>
      <trkpt lat="47.97607" lon="6.81517">
        <ele>856.989075</ele>
        <time>2019-08-16T14:26:53Z</time>
      </trkpt>
      <trkpt lat="47.97604" lon="6.81521">
        <ele>856.989075</ele>
        <time>2019-08-16T14:26:54Z</time>
      </trkpt>
      <trkpt lat="47.97603" lon="6.81524">
        <ele>857.02002</ele>
        <time>2019-08-16T14:26:55Z</time>
      </trkpt>
      <trkpt lat="47.97601" lon="6.81529">
        <ele>857.105652</ele>
        <time>2019-08-16T14:26:56Z</time>
      </trkpt>
      <trkpt lat="47.97599" lon="6.81533">
        <ele>857.225098</ele>
        <time>2019-08-16T14:26:57Z</time>
      </trkpt>
      <trkpt lat="47.97597" lon="6.81538">
        <ele>857.368347</ele>
        <time>2019-08-16T14:26:58Z</time>
      </trkpt>
      <trkpt lat="47.97595" lon="6.81542">
        <ele>857.53241</ele>
        <time>2019-08-16T14:26:59Z</time>
      </trkpt>
      <trkpt lat="47.97593" lon="6.81546">
        <ele>857.714111</ele>
        <time>2019-08-16T14:27:00Z</time>
      </trkpt>
      <trkpt lat="47.97592" lon="6.8155">
        <ele>857.913269</ele>
        <time>2019-08-16T14:27:01Z</time>
      </trkpt>
      <trkpt lat="47.9759" lon="6.81554">
        <ele>858.123535</ele>
        <time>2019-08-16T14:27:02Z</time>
      </trkpt>
      <trkpt lat="47.97589" lon="6.81557">
        <ele>858.342773</ele>
        <time>2019-08-16T14:27:03Z</time>
      </trkpt>
      <trkpt lat="47.97587" lon="6.81561">
        <ele>858.57666</ele>
        <time>2019-08-16T14:27:04Z</time>
      </trkpt>
      <trkpt lat="47.97586" lon="6.81564">
        <ele>858.948792</ele>
        <time>2019-08-16T14:27:05Z</time>
      </trkpt>
      <trkpt lat="47.97585" lon="6.81567">
        <ele>859.207092</ele>
        <time>2019-08-16T14:27:06Z</time>
      </trkpt>
      <trkpt lat="47.97584" lon="6.8157">
        <ele>859.467041</ele>
        <time>2019-08-16T14:27:07Z</time>
      </trkpt>
      <trkpt lat="47.97582" lon="6.81573">
        <ele>859.727478</ele>
        <time>2019-08-16T14:27:08Z</time>
      </trkpt>
      <trkpt lat="47.97581" lon="6.81576">
        <ele>859.987732</ele>
        <time>2019-08-16T14:27:09Z</time>
      </trkpt>
      <trkpt lat="47.9758" lon="6.81579">
        <ele>860.247986</ele>
        <time>2019-08-16T14:27:10Z</time>
      </trkpt>
      <trkpt lat="47.97579" lon="6.81583">
        <ele>860.501282</ele>
        <time>2019-08-16T14:27:11Z</time>
      </trkpt>
      <trkpt lat="47.97578" lon="6.81586">
        <ele>860.740662</ele>
        <time>2019-08-16T14:27:12Z</time>
      </trkpt>
      <trkpt lat="47.97576" lon="6.8159">
        <ele>861.073792</ele>
        <time>2019-08-16T14:27:13Z</time>
      </trkpt>
      <trkpt lat="47.97575" lon="6.81593">
        <ele>861.282654</ele>
        <time>2019-08-16T14:27:14Z</time>
      </trkpt>
      <trkpt lat="47.97574" lon="6.81596">
        <ele>861.472656</ele>
        <time>2019-08-16T14:27:15Z</time>
      </trkpt>
      <trkpt lat="47.97573" lon="6.816">
        <ele>861.643311</ele>
        <time>2019-08-16T14:27:16Z</time>
      </trkpt>
      <trkpt lat="47.97571" lon="6.81603">
        <ele>861.794861</ele>
        <time>2019-08-16T14:27:17Z</time>
      </trkpt>
      <trkpt lat="47.9757" lon="6.81606">
        <ele>861.934753</ele>
        <time>2019-08-16T14:27:18Z</time>
      </trkpt>
      <trkpt lat="47.97569" lon="6.81608">
        <ele>862.076843</ele>
        <time>2019-08-16T14:27:19Z</time>
      </trkpt>
      <trkpt lat="47.97569" lon="6.8161">
        <ele>862.226746</ele>
        <time>2019-08-16T14:27:20Z</time>
      </trkpt>
      <trkpt lat="47.97568" lon="6.81613">
        <ele>862.384338</ele>
        <time>2019-08-16T14:27:21Z</time>
      </trkpt>
      <trkpt lat="47.97567" lon="6.81614">
        <ele>862.548096</ele>
        <time>2019-08-16T14:27:22Z</time>
      </trkpt>
      <trkpt lat="47.97566" lon="6.81616">
        <ele>862.720703</ele>
        <time>2019-08-16T14:27:23Z</time>
      </trkpt>
      <trkpt lat="47.97565" lon="6.81619">
        <ele>862.900696</ele>
        <time>2019-08-16T14:27:24Z</time>
      </trkpt>
      <trkpt lat="47.97565" lon="6.81621">
        <ele>863.081543</ele>
        <time>2019-08-16T14:27:25Z</time>
      </trkpt>
      <trkpt lat="47.97564" lon="6.81624">
        <ele>863.257568</ele>
        <time>2019-08-16T14:27:26Z</time>
      </trkpt>
      <trkpt lat="47.97564" lon="6.81626">
        <ele>863.419861</ele>
        <time>2019-08-16T14:27:27Z</time>
      </trkpt>
      <trkpt lat="47.97565" lon="6.81628">
        <ele>863.564026</ele>
        <time>2019-08-16T14:27:28Z</time>
      </trkpt>
      <trkpt lat="47.97566" lon="6.8163">
        <ele>863.693542</ele>
        <time>2019-08-16T14:27:29Z</time>
      </trkpt>
      <trkpt lat="47.97568" lon="6.81632">
        <ele>864.173645</ele>
        <time>2019-08-16T14:27:31Z</time>
      </trkpt>
      <trkpt lat="47.97569" lon="6.81634">
        <ele>864.432434</ele>
        <time>2019-08-16T14:27:33Z</time>
      </trkpt>
      <trkpt lat="47.97569" lon="6.81636">
        <ele>864.628174</ele>
        <time>2019-08-16T14:27:34Z</time>
      </trkpt>
      <trkpt lat="47.9757" lon="6.81638">
        <ele>864.837158</ele>
        <time>2019-08-16T14:27:35Z</time>
      </trkpt>
      <trkpt lat="47.97572" lon="6.8164">
        <ele>865.046814</ele>
        <time>2019-08-16T14:27:36Z</time>
      </trkpt>
      <trkpt lat="47.97573" lon="6.81642">
        <ele>865.334229</ele>
        <time>2019-08-16T14:27:37Z</time>
      </trkpt>
      <trkpt lat="47.97574" lon="6.81643">
        <ele>865.417297</ele>
        <time>2019-08-16T14:27:38Z</time>
      </trkpt>
      <trkpt lat="47.97576" lon="6.81645">
        <ele>865.493652</ele>
        <time>2019-08-16T14:27:39Z</time>
      </trkpt>
      <trkpt lat="47.97578" lon="6.81646">
        <ele>865.622742</ele>
        <time>2019-08-16T14:27:40Z</time>
      </trkpt>
      <trkpt lat="47.97579" lon="6.81648">
        <ele>865.722168</ele>
        <time>2019-08-16T14:27:41Z</time>
      </trkpt>
      <trkpt lat="47.9758" lon="6.81649">
        <ele>865.791016</ele>
        <time>2019-08-16T14:27:42Z</time>
      </trkpt>
      <trkpt lat="47.97581" lon="6.81651">
        <ele>865.820984</ele>
        <time>2019-08-16T14:27:43Z</time>
      </trkpt>
      <trkpt lat="47.97582" lon="6.81653">
        <ele>865.820984</ele>
        <time>2019-08-16T14:27:44Z</time>
      </trkpt>
      <trkpt lat="47.97582" lon="6.81654">
        <ele>865.796692</ele>
        <time>2019-08-16T14:27:45Z</time>
      </trkpt>
      <trkpt lat="47.97577" lon="6.81643">
        <ele>865.377136</ele>
        <time>2019-08-16T14:30:49Z</time>
      </trkpt>
      <trkpt lat="47.97576" lon="6.81641">
        <ele>865.42804</ele>
        <time>2019-08-16T14:30:51Z</time>
      </trkpt>
      <trkpt lat="47.97575" lon="6.81638">
        <ele>865.488098</ele>
        <time>2019-08-16T14:30:52Z</time>
      </trkpt>
      <trkpt lat="47.97575" lon="6.81636">
        <ele>865.548889</ele>
        <time>2019-08-16T14:30:53Z</time>
      </trkpt>
      <trkpt lat="47.97574" lon="6.81634">
        <ele>865.609619</ele>
        <time>2019-08-16T14:30:54Z</time>
      </trkpt>
      <trkpt lat="47.97573" lon="6.81632">
        <ele>865.699402</ele>
        <time>2019-08-16T14:30:55Z</time>
      </trkpt>
      <trkpt lat="47.97572" lon="6.8163">
        <ele>865.762878</ele>
        <time>2019-08-16T14:30:56Z</time>
      </trkpt>
      <trkpt lat="47.97571" lon="6.81628">
        <ele>865.82074</ele>
        <time>2019-08-16T14:30:57Z</time>
      </trkpt>
      <trkpt lat="47.9757" lon="6.81626">
        <ele>865.864502</ele>
        <time>2019-08-16T14:30:58Z</time>
      </trkpt>
      <trkpt lat="47.97569" lon="6.81624">
        <ele>865.886292</ele>
        <time>2019-08-16T14:30:59Z</time>
      </trkpt>
      <trkpt lat="47.97566" lon="6.81621">
        <ele>865.889648</ele>
        <time>2019-08-16T14:31:00Z</time>
      </trkpt>
      <trkpt lat="47.97561" lon="6.81618">
        <ele>865.888855</ele>
        <time>2019-08-16T14:31:01Z</time>
      </trkpt>
      <trkpt lat="47.97557" lon="6.81616">
        <ele>865.848328</ele>
        <time>2019-08-16T14:31:02Z</time>
      </trkpt>
      <trkpt lat="47.97551" lon="6.81614">
        <ele>865.775818</ele>
        <time>2019-08-16T14:31:03Z</time>
      </trkpt>
      <trkpt lat="47.97548" lon="6.81612">
        <ele>865.658875</ele>
        <time>2019-08-16T14:31:04Z</time>
      </trkpt>
      <trkpt lat="47.97544" lon="6.81611">
        <ele>865.409485</ele>
        <time>2019-08-16T14:31:05Z</time>
      </trkpt>
      <trkpt lat="47.97541" lon="6.81609">
        <ele>865.220398</ele>
        <time>2019-08-16T14:31:06Z</time>
      </trkpt>
      <trkpt lat="47.97539" lon="6.81608">
        <ele>864.944824</ele>
        <time>2019-08-16T14:31:07Z</time>
      </trkpt>
      <trkpt lat="47.97538" lon="6.81606">
        <ele>864.790039</ele>
        <time>2019-08-16T14:31:08Z</time>
      </trkpt>
      <trkpt lat="47.97536" lon="6.81605">
        <ele>864.673767</ele>
        <time>2019-08-16T14:31:09Z</time>
      </trkpt>
      <trkpt lat="47.97534" lon="6.81604">
        <ele>864.615051</ele>
        <time>2019-08-16T14:31:10Z</time>
      </trkpt>
      <trkpt lat="47.97532" lon="6.81602">
        <ele>864.615051</ele>
        <time>2019-08-16T14:31:11Z</time>
      </trkpt>
      <trkpt lat="47.97531" lon="6.816">
        <ele>864.668274</ele>
        <time>2019-08-16T14:31:12Z</time>
      </trkpt>
      <trkpt lat="47.9753" lon="6.81599">
        <ele>864.864014</ele>
        <time>2019-08-16T14:31:13Z</time>
      </trkpt>
      <trkpt lat="47.97528" lon="6.81597">
        <ele>865.032532</ele>
        <time>2019-08-16T14:31:14Z</time>
      </trkpt>
      <trkpt lat="47.97527" lon="6.81596">
        <ele>865.213318</ele>
        <time>2019-08-16T14:31:15Z</time>
      </trkpt>
      <trkpt lat="47.97525" lon="6.81594">
        <ele>865.508545</ele>
        <time>2019-08-16T14:31:16Z</time>
      </trkpt>
      <trkpt lat="47.97524" lon="6.81592">
        <ele>865.723633</ele>
        <time>2019-08-16T14:31:17Z</time>
      </trkpt>
      <trkpt lat="47.97523" lon="6.81591">
        <ele>865.942139</ele>
        <time>2019-08-16T14:31:18Z</time>
      </trkpt>
      <trkpt lat="47.97521" lon="6.81589">
        <ele>866.24707</ele>
        <time>2019-08-16T14:31:19Z</time>
      </trkpt>
      <trkpt lat="47.97519" lon="6.81588">
        <ele>866.432312</ele>
        <time>2019-08-16T14:31:20Z</time>
      </trkpt>
      <trkpt lat="47.97518" lon="6.81587">
        <ele>866.615173</ele>
        <time>2019-08-16T14:31:21Z</time>
      </trkpt>
      <trkpt lat="47.97516" lon="6.81585">
        <ele>866.803772</ele>
        <time>2019-08-16T14:31:22Z</time>
      </trkpt>
      <trkpt lat="47.97515" lon="6.81584">
        <ele>866.99292</ele>
        <time>2019-08-16T14:31:23Z</time>
      </trkpt>
      <trkpt lat="47.97513" lon="6.81583">
        <ele>867.252502</ele>
        <time>2019-08-16T14:31:24Z</time>
      </trkpt>
      <trkpt lat="47.97512" lon="6.81581">
        <ele>867.411682</ele>
        <time>2019-08-16T14:31:25Z</time>
      </trkpt>
      <trkpt lat="47.9751" lon="6.8158">
        <ele>867.57135</ele>
        <time>2019-08-16T14:31:26Z</time>
      </trkpt>
      <trkpt lat="47.97509" lon="6.81578">
        <ele>867.801697</ele>
        <time>2019-08-16T14:31:27Z</time>
      </trkpt>
      <trkpt lat="47.97507" lon="6.81577">
        <ele>867.943848</ele>
        <time>2019-08-16T14:31:28Z</time>
      </trkpt>
      <trkpt lat="47.97506" lon="6.81575">
        <ele>868.075195</ele>
        <time>2019-08-16T14:31:29Z</time>
      </trkpt>
      <trkpt lat="47.97504" lon="6.81574">
        <ele>868.255554</ele>
        <time>2019-08-16T14:31:30Z</time>
      </trkpt>
      <trkpt lat="47.97503" lon="6.81572">
        <ele>868.363281</ele>
        <time>2019-08-16T14:31:31Z</time>
      </trkpt>
      <trkpt lat="47.97501" lon="6.81571">
        <ele>868.464111</ele>
        <time>2019-08-16T14:31:32Z</time>
      </trkpt>
      <trkpt lat="47.975" lon="6.8157">
        <ele>868.604797</ele>
        <time>2019-08-16T14:31:33Z</time>
      </trkpt>
      <trkpt lat="47.97499" lon="6.81569">
        <ele>868.697327</ele>
        <time>2019-08-16T14:31:34Z</time>
      </trkpt>
      <trkpt lat="47.97497" lon="6.81568">
        <ele>868.789734</ele>
        <time>2019-08-16T14:31:35Z</time>
      </trkpt>
      <trkpt lat="47.97497" lon="6.81566">
        <ele>868.932617</ele>
        <time>2019-08-16T14:31:36Z</time>
      </trkpt>
      <trkpt lat="47.97496" lon="6.81565">
        <ele>869.219421</ele>
        <time>2019-08-16T14:31:38Z</time>
      </trkpt>
      <trkpt lat="47.97495" lon="6.81563">
        <ele>869.429626</ele>
        <time>2019-08-16T14:31:40Z</time>
      </trkpt>
      <trkpt lat="47.97495" lon="6.81562">
        <ele>869.579651</ele>
        <time>2019-08-16T14:31:41Z</time>
      </trkpt>
      <trkpt lat="47.97494" lon="6.8156">
        <ele>869.736084</ele>
        <time>2019-08-16T14:31:42Z</time>
      </trkpt>
      <trkpt lat="47.97493" lon="6.81559">
        <ele>869.899658</ele>
        <time>2019-08-16T14:31:43Z</time>
      </trkpt>
      <trkpt lat="47.97492" lon="6.81558">
        <ele>870.075195</ele>
        <time>2019-08-16T14:31:44Z</time>
      </trkpt>
      <trkpt lat="47.97492" lon="6.81556">
        <ele>870.259827</ele>
        <time>2019-08-16T14:31:45Z</time>
      </trkpt>
      <trkpt lat="47.97491" lon="6.81554">
        <ele>870.540466</ele>
        <time>2019-08-16T14:31:46Z</time>
      </trkpt>
      <trkpt lat="47.9749" lon="6.81552">
        <ele>870.721375</ele>
        <time>2019-08-16T14:31:47Z</time>
      </trkpt>
      <trkpt lat="47.9749" lon="6.8155">
        <ele>870.895813</ele>
        <time>2019-08-16T14:31:48Z</time>
      </trkpt>
      <trkpt lat="47.97489" lon="6.81548">
        <ele>871.061768</ele>
        <time>2019-08-16T14:31:49Z</time>
      </trkpt>
      <trkpt lat="47.97488" lon="6.81546">
        <ele>871.21875</ele>
        <time>2019-08-16T14:31:50Z</time>
      </trkpt>
      <trkpt lat="47.97487" lon="6.81544">
        <ele>871.364197</ele>
        <time>2019-08-16T14:31:51Z</time>
      </trkpt>
      <trkpt lat="47.97487" lon="6.81542">
        <ele>871.498352</ele>
        <time>2019-08-16T14:31:52Z</time>
      </trkpt>
      <trkpt lat="47.97487" lon="6.8154">
        <ele>871.627197</ele>
        <time>2019-08-16T14:31:53Z</time>
      </trkpt>
      <trkpt lat="47.97486" lon="6.81539">
        <ele>871.757141</ele>
        <time>2019-08-16T14:31:54Z</time>
      </trkpt>
      <trkpt lat="47.97486" lon="6.81537">
        <ele>871.895264</ele>
        <time>2019-08-16T14:31:55Z</time>
      </trkpt>
      <trkpt lat="47.97486" lon="6.81536">
        <ele>872.044678</ele>
        <time>2019-08-16T14:31:56Z</time>
      </trkpt>
      <trkpt lat="47.97485" lon="6.81534">
        <ele>872.288879</ele>
        <time>2019-08-16T14:31:57Z</time>
      </trkpt>
      <trkpt lat="47.97483" lon="6.81532">
        <ele>872.464905</ele>
        <time>2019-08-16T14:31:58Z</time>
      </trkpt>
      <trkpt lat="47.97483" lon="6.81531">
        <ele>872.655945</ele>
        <time>2019-08-16T14:31:59Z</time>
      </trkpt>
      <trkpt lat="47.97483" lon="6.81529">
        <ele>872.862488</ele>
        <time>2019-08-16T14:32:00Z</time>
      </trkpt>
      <trkpt lat="47.97482" lon="6.81527">
        <ele>873.08136</ele>
        <time>2019-08-16T14:32:01Z</time>
      </trkpt>
      <trkpt lat="47.97482" lon="6.81525">
        <ele>873.420715</ele>
        <time>2019-08-16T14:32:02Z</time>
      </trkpt>
      <trkpt lat="47.97482" lon="6.81523">
        <ele>873.643005</ele>
        <time>2019-08-16T14:32:03Z</time>
      </trkpt>
      <trkpt lat="47.9748" lon="6.81521">
        <ele>873.859192</ele>
        <time>2019-08-16T14:32:04Z</time>
      </trkpt>
      <trkpt lat="47.9748" lon="6.81519">
        <ele>874.073547</ele>
        <time>2019-08-16T14:32:05Z</time>
      </trkpt>
      <trkpt lat="47.97479" lon="6.81517">
        <ele>874.289734</ele>
        <time>2019-08-16T14:32:06Z</time>
      </trkpt>
      <trkpt lat="47.97478" lon="6.81515">
        <ele>874.505188</ele>
        <time>2019-08-16T14:32:07Z</time>
      </trkpt>
      <trkpt lat="47.97478" lon="6.81514">
        <ele>874.839539</ele>
        <time>2019-08-16T14:32:08Z</time>
      </trkpt>
      <trkpt lat="47.97477" lon="6.81512">
        <ele>875.070068</ele>
        <time>2019-08-16T14:32:09Z</time>
      </trkpt>
      <trkpt lat="47.97476" lon="6.8151">
        <ele>875.300232</ele>
        <time>2019-08-16T14:32:10Z</time>
      </trkpt>
      <trkpt lat="47.97475" lon="6.81508">
        <ele>875.524414</ele>
        <time>2019-08-16T14:32:11Z</time>
      </trkpt>
      <trkpt lat="47.97474" lon="6.81506">
        <ele>875.741211</ele>
        <time>2019-08-16T14:32:12Z</time>
      </trkpt>
      <trkpt lat="47.97473" lon="6.81505">
        <ele>875.951233</ele>
        <time>2019-08-16T14:32:13Z</time>
      </trkpt>
      <trkpt lat="47.97472" lon="6.81503">
        <ele>876.152039</ele>
        <time>2019-08-16T14:32:14Z</time>
      </trkpt>
      <trkpt lat="47.97471" lon="6.81502">
        <ele>876.342224</ele>
        <time>2019-08-16T14:32:15Z</time>
      </trkpt>
      <trkpt lat="47.9747" lon="6.815">
        <ele>876.590393</ele>
        <time>2019-08-16T14:32:16Z</time>
      </trkpt>
      <trkpt lat="47.97469" lon="6.81498">
        <ele>876.727722</ele>
        <time>2019-08-16T14:32:17Z</time>
      </trkpt>
      <trkpt lat="47.97468" lon="6.81498">
        <ele>876.845642</ele>
        <time>2019-08-16T14:32:18Z</time>
      </trkpt>
      <trkpt lat="47.97467" lon="6.81496">
        <ele>876.957336</ele>
        <time>2019-08-16T14:32:19Z</time>
      </trkpt>
      <trkpt lat="47.97467" lon="6.81495">
        <ele>877.074036</ele>
        <time>2019-08-16T14:32:20Z</time>
      </trkpt>
      <trkpt lat="47.97466" lon="6.81494">
        <ele>877.203918</ele>
        <time>2019-08-16T14:32:21Z</time>
      </trkpt>
      <trkpt lat="47.97465" lon="6.81492">
        <ele>877.342712</ele>
        <time>2019-08-16T14:32:22Z</time>
      </trkpt>
      <trkpt lat="47.97464" lon="6.8149">
        <ele>877.486328</ele>
        <time>2019-08-16T14:32:23Z</time>
      </trkpt>
      <trkpt lat="47.97464" lon="6.81489">
        <ele>877.630371</ele>
        <time>2019-08-16T14:32:24Z</time>
      </trkpt>
      <trkpt lat="47.97463" lon="6.81487">
        <ele>877.773132</ele>
        <time>2019-08-16T14:32:25Z</time>
      </trkpt>
      <trkpt lat="47.97462" lon="6.81485">
        <ele>877.913757</ele>
        <time>2019-08-16T14:32:26Z</time>
      </trkpt>
      <trkpt lat="47.97461" lon="6.81484">
        <ele>878.050049</ele>
        <time>2019-08-16T14:32:27Z</time>
      </trkpt>
      <trkpt lat="47.9746" lon="6.81483">
        <ele>878.18042</ele>
        <time>2019-08-16T14:32:28Z</time>
      </trkpt>
      <trkpt lat="47.97459" lon="6.81482">
        <ele>878.305481</ele>
        <time>2019-08-16T14:32:29Z</time>
      </trkpt>
      <trkpt lat="47.97458" lon="6.8148">
        <ele>878.497864</ele>
        <time>2019-08-16T14:32:30Z</time>
      </trkpt>
      <trkpt lat="47.97457" lon="6.81478">
        <ele>878.638123</ele>
        <time>2019-08-16T14:32:31Z</time>
      </trkpt>
      <trkpt lat="47.97456" lon="6.81476">
        <ele>878.78656</ele>
        <time>2019-08-16T14:32:32Z</time>
      </trkpt>
      <trkpt lat="47.97455" lon="6.81474">
        <ele>878.937439</ele>
        <time>2019-08-16T14:32:33Z</time>
      </trkpt>
      <trkpt lat="47.97453" lon="6.81473">
        <ele>879.159973</ele>
        <time>2019-08-16T14:32:34Z</time>
      </trkpt>
      <trkpt lat="47.97453" lon="6.81471">
        <ele>879.299561</ele>
        <time>2019-08-16T14:32:35Z</time>
      </trkpt>
      <trkpt lat="47.97452" lon="6.8147">
        <ele>879.433777</ele>
        <time>2019-08-16T14:32:36Z</time>
      </trkpt>
      <trkpt lat="47.9745" lon="6.81469">
        <ele>879.563477</ele>
        <time>2019-08-16T14:32:37Z</time>
      </trkpt>
      <trkpt lat="47.9745" lon="6.81467">
        <ele>879.694031</ele>
        <time>2019-08-16T14:32:38Z</time>
      </trkpt>
      <trkpt lat="47.97448" lon="6.81466">
        <ele>879.825623</ele>
        <time>2019-08-16T14:32:39Z</time>
      </trkpt>
      <trkpt lat="47.97448" lon="6.81464">
        <ele>879.891602</ele>
        <time>2019-08-16T14:32:40Z</time>
      </trkpt>
      <trkpt lat="47.97447" lon="6.81463">
        <ele>880.022278</ele>
        <time>2019-08-16T14:32:41Z</time>
      </trkpt>
      <trkpt lat="47.97446" lon="6.81461">
        <ele>880.14801</ele>
        <time>2019-08-16T14:32:42Z</time>
      </trkpt>
      <trkpt lat="47.97445" lon="6.81459">
        <ele>880.271973</ele>
        <time>2019-08-16T14:32:43Z</time>
      </trkpt>
      <trkpt lat="47.97444" lon="6.81456">
        <ele>880.458496</ele>
        <time>2019-08-16T14:32:44Z</time>
      </trkpt>
      <trkpt lat="47.97442" lon="6.81454">
        <ele>880.586487</ele>
        <time>2019-08-16T14:32:45Z</time>
      </trkpt>
      <trkpt lat="47.97442" lon="6.81452">
        <ele>880.712646</ele>
        <time>2019-08-16T14:32:46Z</time>
      </trkpt>
      <trkpt lat="47.9744" lon="6.8145">
        <ele>880.842529</ele>
        <time>2019-08-16T14:32:47Z</time>
      </trkpt>
      <trkpt lat="47.9744" lon="6.81448">
        <ele>880.975403</ele>
        <time>2019-08-16T14:32:48Z</time>
      </trkpt>
      <trkpt lat="47.97438" lon="6.81445">
        <ele>881.110413</ele>
        <time>2019-08-16T14:32:49Z</time>
      </trkpt>
      <trkpt lat="47.97437" lon="6.81444">
        <ele>881.239563</ele>
        <time>2019-08-16T14:32:50Z</time>
      </trkpt>
      <trkpt lat="47.97435" lon="6.81442">
        <ele>881.404236</ele>
        <time>2019-08-16T14:32:51Z</time>
      </trkpt>
      <trkpt lat="47.97434" lon="6.81441">
        <ele>881.496582</ele>
        <time>2019-08-16T14:32:52Z</time>
      </trkpt>
      <trkpt lat="47.97433" lon="6.81439">
        <ele>881.582825</ele>
        <time>2019-08-16T14:32:53Z</time>
      </trkpt>
      <trkpt lat="47.97431" lon="6.81438">
        <ele>881.708313</ele>
        <time>2019-08-16T14:32:54Z</time>
      </trkpt>
      <trkpt lat="47.9743" lon="6.81436">
        <ele>881.780762</ele>
        <time>2019-08-16T14:32:55Z</time>
      </trkpt>
      <trkpt lat="47.97428" lon="6.81434">
        <ele>881.856873</ele>
        <time>2019-08-16T14:32:56Z</time>
      </trkpt>
      <trkpt lat="47.97427" lon="6.81432">
        <ele>881.888367</ele>
        <time>2019-08-16T14:32:57Z</time>
      </trkpt>
      <trkpt lat="47.97426" lon="6.8143">
        <ele>881.913269</ele>
        <time>2019-08-16T14:32:58Z</time>
      </trkpt>
      <trkpt lat="47.97424" lon="6.81429">
        <ele>881.937195</ele>
        <time>2019-08-16T14:32:59Z</time>
      </trkpt>
      <trkpt lat="47.97423" lon="6.81426">
        <ele>881.958496</ele>
        <time>2019-08-16T14:33:00Z</time>
      </trkpt>
      <trkpt lat="47.97422" lon="6.81425">
        <ele>881.977051</ele>
        <time>2019-08-16T14:33:01Z</time>
      </trkpt>
      <trkpt lat="47.97421" lon="6.81423">
        <ele>881.996155</ele>
        <time>2019-08-16T14:33:02Z</time>
      </trkpt>
      <trkpt lat="47.97419" lon="6.81421">
        <ele>882.027771</ele>
        <time>2019-08-16T14:33:03Z</time>
      </trkpt>
      <trkpt lat="47.97418" lon="6.81419">
        <ele>882.101379</ele>
        <time>2019-08-16T14:33:04Z</time>
      </trkpt>
      <trkpt lat="47.97417" lon="6.81417">
        <ele>882.161621</ele>
        <time>2019-08-16T14:33:05Z</time>
      </trkpt>
      <trkpt lat="47.97416" lon="6.81416">
        <ele>882.225586</ele>
        <time>2019-08-16T14:33:06Z</time>
      </trkpt>
      <trkpt lat="47.97415" lon="6.81414">
        <ele>882.292969</ele>
        <time>2019-08-16T14:33:07Z</time>
      </trkpt>
      <trkpt lat="47.97414" lon="6.81412">
        <ele>882.394958</ele>
        <time>2019-08-16T14:33:08Z</time>
      </trkpt>
      <trkpt lat="47.97413" lon="6.8141">
        <ele>882.465027</ele>
        <time>2019-08-16T14:33:09Z</time>
      </trkpt>
      <trkpt lat="47.97411" lon="6.81408">
        <ele>882.544128</ele>
        <time>2019-08-16T14:33:10Z</time>
      </trkpt>
      <trkpt lat="47.9741" lon="6.81406">
        <ele>882.636169</ele>
        <time>2019-08-16T14:33:11Z</time>
      </trkpt>
      <trkpt lat="47.97409" lon="6.81404">
        <ele>882.735596</ele>
        <time>2019-08-16T14:33:12Z</time>
      </trkpt>
      <trkpt lat="47.97408" lon="6.81402">
        <ele>882.891846</ele>
        <time>2019-08-16T14:33:13Z</time>
      </trkpt>
      <trkpt lat="47.97407" lon="6.814">
        <ele>883.003235</ele>
        <time>2019-08-16T14:33:14Z</time>
      </trkpt>
      <trkpt lat="47.97406" lon="6.81398">
        <ele>883.125305</ele>
        <time>2019-08-16T14:33:15Z</time>
      </trkpt>
      <trkpt lat="47.97405" lon="6.81396">
        <ele>883.250977</ele>
        <time>2019-08-16T14:33:16Z</time>
      </trkpt>
      <trkpt lat="47.97404" lon="6.81394">
        <ele>883.370911</ele>
        <time>2019-08-16T14:33:17Z</time>
      </trkpt>
      <trkpt lat="47.97403" lon="6.81391">
        <ele>883.484436</ele>
        <time>2019-08-16T14:33:18Z</time>
      </trkpt>
      <trkpt lat="47.97403" lon="6.81389">
        <ele>883.6026</ele>
        <time>2019-08-16T14:33:19Z</time>
      </trkpt>
      <trkpt lat="47.97402" lon="6.81387">
        <ele>883.736145</ele>
        <time>2019-08-16T14:33:20Z</time>
      </trkpt>
      <trkpt lat="47.97401" lon="6.81386">
        <ele>883.88678</ele>
        <time>2019-08-16T14:33:21Z</time>
      </trkpt>
      <trkpt lat="47.97401" lon="6.81384">
        <ele>884.05127</ele>
        <time>2019-08-16T14:33:22Z</time>
      </trkpt>
      <trkpt lat="47.974" lon="6.81382">
        <ele>884.228577</ele>
        <time>2019-08-16T14:33:23Z</time>
      </trkpt>
      <trkpt lat="47.974" lon="6.8138">
        <ele>884.417969</ele>
        <time>2019-08-16T14:33:24Z</time>
      </trkpt>
      <trkpt lat="47.97399" lon="6.81379">
        <ele>884.615051</ele>
        <time>2019-08-16T14:33:25Z</time>
      </trkpt>
      <trkpt lat="47.97398" lon="6.81377">
        <ele>884.820313</ele>
        <time>2019-08-16T14:33:26Z</time>
      </trkpt>
      <trkpt lat="47.97398" lon="6.81374">
        <ele>885.030579</ele>
        <time>2019-08-16T14:33:27Z</time>
      </trkpt>
      <trkpt lat="47.97398" lon="6.81372">
        <ele>885.246277</ele>
        <time>2019-08-16T14:33:28Z</time>
      </trkpt>
      <trkpt lat="47.97397" lon="6.8137">
        <ele>885.460388</ele>
        <time>2019-08-16T14:33:29Z</time>
      </trkpt>
      <trkpt lat="47.97396" lon="6.81368">
        <ele>885.675293</ele>
        <time>2019-08-16T14:33:30Z</time>
      </trkpt>
      <trkpt lat="47.97395" lon="6.81366">
        <ele>885.89093</ele>
        <time>2019-08-16T14:33:31Z</time>
      </trkpt>
      <trkpt lat="47.97395" lon="6.81364">
        <ele>886.111023</ele>
        <time>2019-08-16T14:33:32Z</time>
      </trkpt>
      <trkpt lat="47.97395" lon="6.81363">
        <ele>886.332336</ele>
        <time>2019-08-16T14:33:33Z</time>
      </trkpt>
      <trkpt lat="47.97395" lon="6.81361">
        <ele>886.552673</ele>
        <time>2019-08-16T14:33:34Z</time>
      </trkpt>
      <trkpt lat="47.97393" lon="6.81359">
        <ele>886.771667</ele>
        <time>2019-08-16T14:33:35Z</time>
      </trkpt>
      <trkpt lat="47.97393" lon="6.81357">
        <ele>886.986816</ele>
        <time>2019-08-16T14:33:36Z</time>
      </trkpt>
      <trkpt lat="47.97392" lon="6.81356">
        <ele>887.2005</ele>
        <time>2019-08-16T14:33:37Z</time>
      </trkpt>
      <trkpt lat="47.97391" lon="6.81354">
        <ele>887.407715</ele>
        <time>2019-08-16T14:33:38Z</time>
      </trkpt>
      <trkpt lat="47.9739" lon="6.81353">
        <ele>887.7099</ele>
        <time>2019-08-16T14:33:39Z</time>
      </trkpt>
      <trkpt lat="47.97389" lon="6.81351">
        <ele>887.808655</ele>
        <time>2019-08-16T14:33:40Z</time>
      </trkpt>
      <trkpt lat="47.97389" lon="6.81349">
        <ele>887.909119</ele>
        <time>2019-08-16T14:33:41Z</time>
      </trkpt>
      <trkpt lat="47.97389" lon="6.81347">
        <ele>888.119202</ele>
        <time>2019-08-16T14:33:42Z</time>
      </trkpt>
      <trkpt lat="47.97387" lon="6.81346">
        <ele>888.342224</ele>
        <time>2019-08-16T14:33:43Z</time>
      </trkpt>
      <trkpt lat="47.97387" lon="6.81344">
        <ele>888.576843</ele>
        <time>2019-08-16T14:33:44Z</time>
      </trkpt>
      <trkpt lat="47.97386" lon="6.81342">
        <ele>888.812744</ele>
        <time>2019-08-16T14:33:45Z</time>
      </trkpt>
      <trkpt lat="47.97385" lon="6.81341">
        <ele>889.052917</ele>
        <time>2019-08-16T14:33:46Z</time>
      </trkpt>
      <trkpt lat="47.97385" lon="6.81339">
        <ele>889.418701</ele>
        <time>2019-08-16T14:33:47Z</time>
      </trkpt>
      <trkpt lat="47.97384" lon="6.81338">
        <ele>889.666931</ele>
        <time>2019-08-16T14:33:48Z</time>
      </trkpt>
      <trkpt lat="47.97384" lon="6.81336">
        <ele>889.909851</ele>
        <time>2019-08-16T14:33:49Z</time>
      </trkpt>
      <trkpt lat="47.97383" lon="6.81334">
        <ele>890.1474</ele>
        <time>2019-08-16T14:33:50Z</time>
      </trkpt>
      <trkpt lat="47.97382" lon="6.81332">
        <ele>890.375427</ele>
        <time>2019-08-16T14:33:51Z</time>
      </trkpt>
      <trkpt lat="47.97382" lon="6.8133">
        <ele>890.596985</ele>
        <time>2019-08-16T14:33:52Z</time>
      </trkpt>
      <trkpt lat="47.9738" lon="6.81329">
        <ele>890.814697</ele>
        <time>2019-08-16T14:33:53Z</time>
      </trkpt>
      <trkpt lat="47.97379" lon="6.81327">
        <ele>891.032227</ele>
        <time>2019-08-16T14:33:54Z</time>
      </trkpt>
      <trkpt lat="47.97379" lon="6.81325">
        <ele>891.255676</ele>
        <time>2019-08-16T14:33:55Z</time>
      </trkpt>
      <trkpt lat="47.97378" lon="6.81323">
        <ele>891.481628</ele>
        <time>2019-08-16T14:33:56Z</time>
      </trkpt>
      <trkpt lat="47.97377" lon="6.81322">
        <ele>891.810059</ele>
        <time>2019-08-16T14:33:57Z</time>
      </trkpt>
      <trkpt lat="47.97376" lon="6.8132">
        <ele>892.01416</ele>
        <time>2019-08-16T14:33:58Z</time>
      </trkpt>
      <trkpt lat="47.97375" lon="6.81318">
        <ele>892.210266</ele>
        <time>2019-08-16T14:33:59Z</time>
      </trkpt>
      <trkpt lat="47.97374" lon="6.81316">
        <ele>892.402527</ele>
        <time>2019-08-16T14:34:00Z</time>
      </trkpt>
      <trkpt lat="47.97373" lon="6.81314">
        <ele>892.678711</ele>
        <time>2019-08-16T14:34:01Z</time>
      </trkpt>
      <trkpt lat="47.97372" lon="6.81312">
        <ele>892.841614</ele>
        <time>2019-08-16T14:34:02Z</time>
      </trkpt>
      <trkpt lat="47.97371" lon="6.81311">
        <ele>892.983887</ele>
        <time>2019-08-16T14:34:03Z</time>
      </trkpt>
      <trkpt lat="47.97369" lon="6.81309">
        <ele>893.112305</ele>
        <time>2019-08-16T14:34:04Z</time>
      </trkpt>
      <trkpt lat="47.97368" lon="6.81307">
        <ele>893.233826</ele>
        <time>2019-08-16T14:34:05Z</time>
      </trkpt>
      <trkpt lat="47.97366" lon="6.81306">
        <ele>893.348938</ele>
        <time>2019-08-16T14:34:06Z</time>
      </trkpt>
      <trkpt lat="47.97365" lon="6.81304">
        <ele>893.455811</ele>
        <time>2019-08-16T14:34:07Z</time>
      </trkpt>
      <trkpt lat="47.97364" lon="6.81302">
        <ele>893.553894</ele>
        <time>2019-08-16T14:34:08Z</time>
      </trkpt>
      <trkpt lat="47.97363" lon="6.813">
        <ele>893.695251</ele>
        <time>2019-08-16T14:34:09Z</time>
      </trkpt>
      <trkpt lat="47.97362" lon="6.81299">
        <ele>893.791443</ele>
        <time>2019-08-16T14:34:10Z</time>
      </trkpt>
      <trkpt lat="47.97362" lon="6.81298">
        <ele>893.883789</ele>
        <time>2019-08-16T14:34:11Z</time>
      </trkpt>
      <trkpt lat="47.97361" lon="6.81296">
        <ele>893.969666</ele>
        <time>2019-08-16T14:34:12Z</time>
      </trkpt>
      <trkpt lat="47.97359" lon="6.81293">
        <ele>894.046326</ele>
        <time>2019-08-16T14:34:13Z</time>
      </trkpt>
      <trkpt lat="47.97358" lon="6.81291">
        <ele>894.157166</ele>
        <time>2019-08-16T14:34:14Z</time>
      </trkpt>
      <trkpt lat="47.97356" lon="6.81289">
        <ele>894.231201</ele>
        <time>2019-08-16T14:34:15Z</time>
      </trkpt>
      <trkpt lat="47.97356" lon="6.81287">
        <ele>894.308777</ele>
        <time>2019-08-16T14:34:16Z</time>
      </trkpt>
      <trkpt lat="47.97355" lon="6.81285">
        <ele>894.392151</ele>
        <time>2019-08-16T14:34:17Z</time>
      </trkpt>
      <trkpt lat="47.97354" lon="6.81282">
        <ele>894.486328</ele>
        <time>2019-08-16T14:34:18Z</time>
      </trkpt>
      <trkpt lat="47.97353" lon="6.81279">
        <ele>894.592529</ele>
        <time>2019-08-16T14:34:19Z</time>
      </trkpt>
      <trkpt lat="47.97352" lon="6.81277">
        <ele>894.712463</ele>
        <time>2019-08-16T14:34:20Z</time>
      </trkpt>
      <trkpt lat="47.97351" lon="6.81274">
        <ele>894.837585</ele>
        <time>2019-08-16T14:34:21Z</time>
      </trkpt>
      <trkpt lat="47.9735" lon="6.81272">
        <ele>894.965881</ele>
        <time>2019-08-16T14:34:22Z</time>
      </trkpt>
      <trkpt lat="47.97349" lon="6.81269">
        <ele>895.092529</ele>
        <time>2019-08-16T14:34:23Z</time>
      </trkpt>
      <trkpt lat="47.97347" lon="6.81266">
        <ele>895.214783</ele>
        <time>2019-08-16T14:34:24Z</time>
      </trkpt>
      <trkpt lat="47.97346" lon="6.81263">
        <ele>895.323975</ele>
        <time>2019-08-16T14:34:25Z</time>
      </trkpt>
      <trkpt lat="47.97345" lon="6.8126">
        <ele>895.414307</ele>
        <time>2019-08-16T14:34:26Z</time>
      </trkpt>
      <trkpt lat="47.97343" lon="6.81258">
        <ele>895.517578</ele>
        <time>2019-08-16T14:34:27Z</time>
      </trkpt>
      <trkpt lat="47.97342" lon="6.81256">
        <ele>895.568665</ele>
        <time>2019-08-16T14:34:28Z</time>
      </trkpt>
      <trkpt lat="47.97341" lon="6.81254">
        <ele>895.609375</ele>
        <time>2019-08-16T14:34:29Z</time>
      </trkpt>
      <trkpt lat="47.97339" lon="6.81252">
        <ele>895.651794</ele>
        <time>2019-08-16T14:34:30Z</time>
      </trkpt>
      <trkpt lat="47.97337" lon="6.8125">
        <ele>895.676025</ele>
        <time>2019-08-16T14:34:31Z</time>
      </trkpt>
      <trkpt lat="47.97336" lon="6.81248">
        <ele>895.712341</ele>
        <time>2019-08-16T14:34:32Z</time>
      </trkpt>
      <trkpt lat="47.97334" lon="6.81246">
        <ele>895.805847</ele>
        <time>2019-08-16T14:34:33Z</time>
      </trkpt>
      <trkpt lat="47.97333" lon="6.81244">
        <ele>895.89209</ele>
        <time>2019-08-16T14:34:34Z</time>
      </trkpt>
      <trkpt lat="47.97331" lon="6.81242">
        <ele>895.987366</ele>
        <time>2019-08-16T14:34:35Z</time>
      </trkpt>
      <trkpt lat="47.97329" lon="6.8124">
        <ele>896.083191</ele>
        <time>2019-08-16T14:34:36Z</time>
      </trkpt>
      <trkpt lat="47.97327" lon="6.81238">
        <ele>896.219971</ele>
        <time>2019-08-16T14:34:37Z</time>
      </trkpt>
      <trkpt lat="47.97326" lon="6.81236">
        <ele>896.304932</ele>
        <time>2019-08-16T14:34:38Z</time>
      </trkpt>
      <trkpt lat="47.97324" lon="6.81234">
        <ele>896.378357</ele>
        <time>2019-08-16T14:34:39Z</time>
      </trkpt>
      <trkpt lat="47.97322" lon="6.81232">
        <ele>896.462463</ele>
        <time>2019-08-16T14:34:40Z</time>
      </trkpt>
      <trkpt lat="47.97321" lon="6.81229">
        <ele>896.486084</ele>
        <time>2019-08-16T14:34:41Z</time>
      </trkpt>
      <trkpt lat="47.9732" lon="6.81227">
        <ele>896.511047</ele>
        <time>2019-08-16T14:34:42Z</time>
      </trkpt>
      <trkpt lat="47.97318" lon="6.81224">
        <ele>896.5672</ele>
        <time>2019-08-16T14:34:43Z</time>
      </trkpt>
      <trkpt lat="47.97317" lon="6.81222">
        <ele>896.675232</ele>
        <time>2019-08-16T14:34:44Z</time>
      </trkpt>
      <trkpt lat="47.97315" lon="6.8122">
        <ele>896.76123</ele>
        <time>2019-08-16T14:34:45Z</time>
      </trkpt>
      <trkpt lat="47.97314" lon="6.81218">
        <ele>896.857666</ele>
        <time>2019-08-16T14:34:46Z</time>
      </trkpt>
      <trkpt lat="47.97313" lon="6.81216">
        <ele>897.013855</ele>
        <time>2019-08-16T14:34:47Z</time>
      </trkpt>
      <trkpt lat="47.97313" lon="6.81212">
        <ele>897.125305</ele>
        <time>2019-08-16T14:34:48Z</time>
      </trkpt>
      <trkpt lat="47.97312" lon="6.81209">
        <ele>897.248718</ele>
        <time>2019-08-16T14:34:49Z</time>
      </trkpt>
      <trkpt lat="47.97311" lon="6.81206">
        <ele>897.383484</ele>
        <time>2019-08-16T14:34:50Z</time>
      </trkpt>
      <trkpt lat="47.9731" lon="6.81204">
        <ele>897.529236</ele>
        <time>2019-08-16T14:34:51Z</time>
      </trkpt>
      <trkpt lat="47.97309" lon="6.81202">
        <ele>897.684082</ele>
        <time>2019-08-16T14:34:52Z</time>
      </trkpt>
      <trkpt lat="47.97308" lon="6.81199">
        <ele>897.844788</ele>
        <time>2019-08-16T14:34:53Z</time>
      </trkpt>
      <trkpt lat="47.97307" lon="6.81197">
        <ele>898.003967</ele>
        <time>2019-08-16T14:34:54Z</time>
      </trkpt>
      <trkpt lat="47.97306" lon="6.81194">
        <ele>898.227844</ele>
        <time>2019-08-16T14:34:55Z</time>
      </trkpt>
      <trkpt lat="47.97305" lon="6.8119">
        <ele>898.362122</ele>
        <time>2019-08-16T14:34:56Z</time>
      </trkpt>
      <trkpt lat="47.97303" lon="6.81187">
        <ele>898.480774</ele>
        <time>2019-08-16T14:34:57Z</time>
      </trkpt>
      <trkpt lat="47.97302" lon="6.81184">
        <ele>898.629639</ele>
        <time>2019-08-16T14:34:58Z</time>
      </trkpt>
      <trkpt lat="47.97301" lon="6.81181">
        <ele>898.713074</ele>
        <time>2019-08-16T14:34:59Z</time>
      </trkpt>
      <trkpt lat="47.973" lon="6.81178">
        <ele>898.7854</ele>
        <time>2019-08-16T14:35:00Z</time>
      </trkpt>
      <trkpt lat="47.97298" lon="6.81175">
        <ele>898.858215</ele>
        <time>2019-08-16T14:35:01Z</time>
      </trkpt>
      <trkpt lat="47.97297" lon="6.81173">
        <ele>898.936523</ele>
        <time>2019-08-16T14:35:02Z</time>
      </trkpt>
      <trkpt lat="47.97295" lon="6.8117">
        <ele>899.072449</ele>
        <time>2019-08-16T14:35:03Z</time>
      </trkpt>
      <trkpt lat="47.97294" lon="6.81166">
        <ele>899.177917</ele>
        <time>2019-08-16T14:35:04Z</time>
      </trkpt>
      <trkpt lat="47.97294" lon="6.81163">
        <ele>899.293274</ele>
        <time>2019-08-16T14:35:05Z</time>
      </trkpt>
      <trkpt lat="47.97293" lon="6.81159">
        <ele>899.410828</ele>
        <time>2019-08-16T14:35:06Z</time>
      </trkpt>
      <trkpt lat="47.97292" lon="6.81154">
        <ele>899.575378</ele>
        <time>2019-08-16T14:35:07Z</time>
      </trkpt>
      <trkpt lat="47.9729" lon="6.81149">
        <ele>899.664246</ele>
        <time>2019-08-16T14:35:08Z</time>
      </trkpt>
      <trkpt lat="47.97289" lon="6.81144">
        <ele>899.730957</ele>
        <time>2019-08-16T14:35:09Z</time>
      </trkpt>
      <trkpt lat="47.97287" lon="6.8114">
        <ele>899.760742</ele>
        <time>2019-08-16T14:35:10Z</time>
      </trkpt>
      <trkpt lat="47.97284" lon="6.81136">
        <ele>899.760742</ele>
        <time>2019-08-16T14:35:11Z</time>
      </trkpt>
      <trkpt lat="47.9728" lon="6.81132">
        <ele>899.723816</ele>
        <time>2019-08-16T14:35:12Z</time>
      </trkpt>
      <trkpt lat="47.97277" lon="6.81128">
        <ele>899.646484</ele>
        <time>2019-08-16T14:35:13Z</time>
      </trkpt>
      <trkpt lat="47.97274" lon="6.81124">
        <ele>899.54425</ele>
        <time>2019-08-16T14:35:14Z</time>
      </trkpt>
      <trkpt lat="47.97271" lon="6.8112">
        <ele>899.42749</ele>
        <time>2019-08-16T14:35:15Z</time>
      </trkpt>
      <trkpt lat="47.97269" lon="6.81117">
        <ele>899.245117</ele>
        <time>2019-08-16T14:35:16Z</time>
      </trkpt>
      <trkpt lat="47.97266" lon="6.81113">
        <ele>899.126465</ele>
        <time>2019-08-16T14:35:17Z</time>
      </trkpt>
      <trkpt lat="47.97264" lon="6.8111">
        <ele>899.017151</ele>
        <time>2019-08-16T14:35:18Z</time>
      </trkpt>
      <trkpt lat="47.97261" lon="6.81107">
        <ele>898.926941</ele>
        <time>2019-08-16T14:35:19Z</time>
      </trkpt>
      <trkpt lat="47.97258" lon="6.81104">
        <ele>898.84552</ele>
        <time>2019-08-16T14:35:20Z</time>
      </trkpt>
      <trkpt lat="47.97255" lon="6.81102">
        <ele>898.830872</ele>
        <time>2019-08-16T14:35:21Z</time>
      </trkpt>
      <trkpt lat="47.97253" lon="6.811">
        <ele>898.830872</ele>
        <time>2019-08-16T14:35:22Z</time>
      </trkpt>
      <trkpt lat="47.97251" lon="6.81097">
        <ele>898.860413</ele>
        <time>2019-08-16T14:35:23Z</time>
      </trkpt>
      <trkpt lat="47.97249" lon="6.81094">
        <ele>898.905579</ele>
        <time>2019-08-16T14:35:24Z</time>
      </trkpt>
      <trkpt lat="47.97247" lon="6.8109">
        <ele>898.963135</ele>
        <time>2019-08-16T14:35:25Z</time>
      </trkpt>
      <trkpt lat="47.97245" lon="6.81086">
        <ele>899.03418</ele>
        <time>2019-08-16T14:35:26Z</time>
      </trkpt>
      <trkpt lat="47.97244" lon="6.81083">
        <ele>899.11261</ele>
        <time>2019-08-16T14:35:27Z</time>
      </trkpt>
      <trkpt lat="47.97243" lon="6.81079">
        <ele>899.206726</ele>
        <time>2019-08-16T14:35:28Z</time>
      </trkpt>
      <trkpt lat="47.97242" lon="6.81076">
        <ele>899.316406</ele>
        <time>2019-08-16T14:35:29Z</time>
      </trkpt>
      <trkpt lat="47.97241" lon="6.81072">
        <ele>899.511963</ele>
        <time>2019-08-16T14:35:30Z</time>
      </trkpt>
      <trkpt lat="47.9724" lon="6.81069">
        <ele>899.658264</ele>
        <time>2019-08-16T14:35:31Z</time>
      </trkpt>
      <trkpt lat="47.97239" lon="6.81066">
        <ele>899.807068</ele>
        <time>2019-08-16T14:35:32Z</time>
      </trkpt>
      <trkpt lat="47.97238" lon="6.81064">
        <ele>899.949463</ele>
        <time>2019-08-16T14:35:33Z</time>
      </trkpt>
      <trkpt lat="47.97237" lon="6.81061">
        <ele>900.084473</ele>
        <time>2019-08-16T14:35:34Z</time>
      </trkpt>
      <trkpt lat="47.97236" lon="6.81058">
        <ele>900.281067</ele>
        <time>2019-08-16T14:35:35Z</time>
      </trkpt>
      <trkpt lat="47.97235" lon="6.81054">
        <ele>900.409485</ele>
        <time>2019-08-16T14:35:36Z</time>
      </trkpt>
      <trkpt lat="47.97234" lon="6.8105">
        <ele>900.537109</ele>
        <time>2019-08-16T14:35:37Z</time>
      </trkpt>
      <trkpt lat="47.97233" lon="6.81046">
        <ele>900.667664</ele>
        <time>2019-08-16T14:35:38Z</time>
      </trkpt>
      <trkpt lat="47.97232" lon="6.81043">
        <ele>900.798584</ele>
        <time>2019-08-16T14:35:39Z</time>
      </trkpt>
      <trkpt lat="47.97231" lon="6.8104">
        <ele>900.931946</ele>
        <time>2019-08-16T14:35:40Z</time>
      </trkpt>
      <trkpt lat="47.97229" lon="6.81036">
        <ele>901.072937</ele>
        <time>2019-08-16T14:35:41Z</time>
      </trkpt>
      <trkpt lat="47.97229" lon="6.81033">
        <ele>901.148682</ele>
        <time>2019-08-16T14:35:42Z</time>
      </trkpt>
      <trkpt lat="47.97227" lon="6.8103">
        <ele>901.227844</ele>
        <time>2019-08-16T14:35:43Z</time>
      </trkpt>
      <trkpt lat="47.97226" lon="6.81027">
        <ele>901.395691</ele>
        <time>2019-08-16T14:35:44Z</time>
      </trkpt>
      <trkpt lat="47.97225" lon="6.81024">
        <ele>901.579102</ele>
        <time>2019-08-16T14:35:45Z</time>
      </trkpt>
      <trkpt lat="47.97224" lon="6.81021">
        <ele>901.883606</ele>
        <time>2019-08-16T14:35:46Z</time>
      </trkpt>
      <trkpt lat="47.97222" lon="6.81017">
        <ele>902.103027</ele>
        <time>2019-08-16T14:35:47Z</time>
      </trkpt>
      <trkpt lat="47.97221" lon="6.81014">
        <ele>902.324402</ele>
        <time>2019-08-16T14:35:48Z</time>
      </trkpt>
      <trkpt lat="47.9722" lon="6.81011">
        <ele>902.641174</ele>
        <time>2019-08-16T14:35:49Z</time>
      </trkpt>
      <trkpt lat="47.97219" lon="6.81008">
        <ele>902.84082</ele>
        <time>2019-08-16T14:35:50Z</time>
      </trkpt>
      <trkpt lat="47.97217" lon="6.81004">
        <ele>903.036926</ele>
        <time>2019-08-16T14:35:51Z</time>
      </trkpt>
      <trkpt lat="47.97216" lon="6.81001">
        <ele>903.230408</ele>
        <time>2019-08-16T14:35:52Z</time>
      </trkpt>
      <trkpt lat="47.97214" lon="6.80999">
        <ele>903.413269</ele>
        <time>2019-08-16T14:35:53Z</time>
      </trkpt>
      <trkpt lat="47.97212" lon="6.80996">
        <ele>903.582581</ele>
        <time>2019-08-16T14:35:54Z</time>
      </trkpt>
      <trkpt lat="47.9721" lon="6.80993">
        <ele>903.740051</ele>
        <time>2019-08-16T14:35:55Z</time>
      </trkpt>
      <trkpt lat="47.97209" lon="6.8099">
        <ele>903.884583</ele>
        <time>2019-08-16T14:35:56Z</time>
      </trkpt>
      <trkpt lat="47.97208" lon="6.80988">
        <ele>904.011658</ele>
        <time>2019-08-16T14:35:57Z</time>
      </trkpt>
      <trkpt lat="47.97206" lon="6.80985">
        <ele>904.119629</ele>
        <time>2019-08-16T14:35:58Z</time>
      </trkpt>
      <trkpt lat="47.97205" lon="6.80982">
        <ele>904.264587</ele>
        <time>2019-08-16T14:35:59Z</time>
      </trkpt>
      <trkpt lat="47.97203" lon="6.80979">
        <ele>904.364258</ele>
        <time>2019-08-16T14:36:00Z</time>
      </trkpt>
      <trkpt lat="47.97202" lon="6.80976">
        <ele>904.465149</ele>
        <time>2019-08-16T14:36:01Z</time>
      </trkpt>
      <trkpt lat="47.972" lon="6.80973">
        <ele>904.60675</ele>
        <time>2019-08-16T14:36:02Z</time>
      </trkpt>
      <trkpt lat="47.97199" lon="6.8097">
        <ele>904.703308</ele>
        <time>2019-08-16T14:36:03Z</time>
      </trkpt>
      <trkpt lat="47.97198" lon="6.80966">
        <ele>904.811462</ele>
        <time>2019-08-16T14:36:04Z</time>
      </trkpt>
      <trkpt lat="47.97197" lon="6.80962">
        <ele>904.922119</ele>
        <time>2019-08-16T14:36:05Z</time>
      </trkpt>
      <trkpt lat="47.97196" lon="6.80956">
        <ele>905.017883</ele>
        <time>2019-08-16T14:36:06Z</time>
      </trkpt>
      <trkpt lat="47.97196" lon="6.8095">
        <ele>905.104675</ele>
        <time>2019-08-16T14:36:07Z</time>
      </trkpt>
      <trkpt lat="47.97196" lon="6.80943">
        <ele>905.11969</ele>
        <time>2019-08-16T14:36:08Z</time>
      </trkpt>
      <trkpt lat="47.97195" lon="6.80938">
        <ele>905.11969</ele>
        <time>2019-08-16T14:36:09Z</time>
      </trkpt>
      <trkpt lat="47.97195" lon="6.80932">
        <ele>905.102112</ele>
        <time>2019-08-16T14:36:10Z</time>
      </trkpt>
      <trkpt lat="47.97195" lon="6.80926">
        <ele>905.041748</ele>
        <time>2019-08-16T14:36:11Z</time>
      </trkpt>
      <trkpt lat="47.97193" lon="6.80922">
        <ele>904.9422</ele>
        <time>2019-08-16T14:36:12Z</time>
      </trkpt>
      <trkpt lat="47.9719" lon="6.80918">
        <ele>904.809265</ele>
        <time>2019-08-16T14:36:13Z</time>
      </trkpt>
      <trkpt lat="47.97189" lon="6.80914">
        <ele>904.665466</ele>
        <time>2019-08-16T14:36:14Z</time>
      </trkpt>
      <trkpt lat="47.97187" lon="6.80909">
        <ele>904.448914</ele>
        <time>2019-08-16T14:36:15Z</time>
      </trkpt>
      <trkpt lat="47.97187" lon="6.80904">
        <ele>904.322571</ele>
        <time>2019-08-16T14:36:16Z</time>
      </trkpt>
      <trkpt lat="47.97188" lon="6.809">
        <ele>904.208313</ele>
        <time>2019-08-16T14:36:17Z</time>
      </trkpt>
      <trkpt lat="47.97189" lon="6.80896">
        <ele>904.107117</ele>
        <time>2019-08-16T14:36:18Z</time>
      </trkpt>
      <trkpt lat="47.97189" lon="6.80891">
        <ele>904.01532</ele>
        <time>2019-08-16T14:36:19Z</time>
      </trkpt>
      <trkpt lat="47.97189" lon="6.80886">
        <ele>903.941406</ele>
        <time>2019-08-16T14:36:20Z</time>
      </trkpt>
      <trkpt lat="47.97189" lon="6.80881">
        <ele>903.881836</ele>
        <time>2019-08-16T14:36:21Z</time>
      </trkpt>
      <trkpt lat="47.97188" lon="6.80875">
        <ele>903.837219</ele>
        <time>2019-08-16T14:36:22Z</time>
      </trkpt>
      <trkpt lat="47.97186" lon="6.8087">
        <ele>903.805176</ele>
        <time>2019-08-16T14:36:23Z</time>
      </trkpt>
      <trkpt lat="47.97184" lon="6.80864">
        <ele>903.779114</ele>
        <time>2019-08-16T14:36:24Z</time>
      </trkpt>
      <trkpt lat="47.97181" lon="6.80858">
        <ele>903.747253</ele>
        <time>2019-08-16T14:36:25Z</time>
      </trkpt>
      <trkpt lat="47.97178" lon="6.80854">
        <ele>903.702881</ele>
        <time>2019-08-16T14:36:26Z</time>
      </trkpt>
      <trkpt lat="47.97175" lon="6.8085">
        <ele>903.611877</ele>
        <time>2019-08-16T14:36:27Z</time>
      </trkpt>
      <trkpt lat="47.97171" lon="6.80847">
        <ele>903.537048</ele>
        <time>2019-08-16T14:36:28Z</time>
      </trkpt>
      <trkpt lat="47.97168" lon="6.80845">
        <ele>903.451477</ele>
        <time>2019-08-16T14:36:29Z</time>
      </trkpt>
      <trkpt lat="47.97166" lon="6.80843">
        <ele>903.353333</ele>
        <time>2019-08-16T14:36:30Z</time>
      </trkpt>
      <trkpt lat="47.97163" lon="6.80841">
        <ele>903.196228</ele>
        <time>2019-08-16T14:36:31Z</time>
      </trkpt>
      <trkpt lat="47.97161" lon="6.8084">
        <ele>903.096924</ele>
        <time>2019-08-16T14:36:32Z</time>
      </trkpt>
      <trkpt lat="47.97158" lon="6.80838">
        <ele>903.011658</ele>
        <time>2019-08-16T14:36:33Z</time>
      </trkpt>
      <trkpt lat="47.97156" lon="6.80837">
        <ele>902.913025</ele>
        <time>2019-08-16T14:36:34Z</time>
      </trkpt>
      <trkpt lat="47.97154" lon="6.80836">
        <ele>902.868164</ele>
        <time>2019-08-16T14:36:35Z</time>
      </trkpt>
      <trkpt lat="47.97153" lon="6.80835">
        <ele>902.843933</ele>
        <time>2019-08-16T14:36:36Z</time>
      </trkpt>
      <trkpt lat="47.97151" lon="6.80834">
        <ele>902.843262</ele>
        <time>2019-08-16T14:36:37Z</time>
      </trkpt>
      <trkpt lat="47.9715" lon="6.80832">
        <ele>902.858093</ele>
        <time>2019-08-16T14:36:38Z</time>
      </trkpt>
      <trkpt lat="47.97149" lon="6.8083">
        <ele>902.887939</ele>
        <time>2019-08-16T14:36:39Z</time>
      </trkpt>
      <trkpt lat="47.97147" lon="6.80828">
        <ele>902.914246</ele>
        <time>2019-08-16T14:36:40Z</time>
      </trkpt>
      <trkpt lat="47.97146" lon="6.80826">
        <ele>902.946228</ele>
        <time>2019-08-16T14:36:41Z</time>
      </trkpt>
      <trkpt lat="47.97144" lon="6.80824">
        <ele>902.95752</ele>
        <time>2019-08-16T14:36:42Z</time>
      </trkpt>
      <trkpt lat="47.97142" lon="6.80822">
        <ele>902.989746</ele>
        <time>2019-08-16T14:36:43Z</time>
      </trkpt>
      <trkpt lat="47.97141" lon="6.80821">
        <ele>903.031494</ele>
        <time>2019-08-16T14:36:44Z</time>
      </trkpt>
      <trkpt lat="47.97139" lon="6.80819">
        <ele>903.085205</ele>
        <time>2019-08-16T14:36:45Z</time>
      </trkpt>
      <trkpt lat="47.97146" lon="6.80807">
        <ele>903.538818</ele>
        <time>2019-08-16T14:38:10Z</time>
      </trkpt>
      <trkpt lat="47.97147" lon="6.80802">
        <ele>903.501465</ele>
        <time>2019-08-16T14:38:12Z</time>
      </trkpt>
      <trkpt lat="47.97149" lon="6.80797">
        <ele>903.463928</ele>
        <time>2019-08-16T14:38:13Z</time>
      </trkpt>
      <trkpt lat="47.9715" lon="6.80792">
        <ele>903.415466</ele>
        <time>2019-08-16T14:38:14Z</time>
      </trkpt>
      <trkpt lat="47.97151" lon="6.80786">
        <ele>903.34552</ele>
        <time>2019-08-16T14:38:15Z</time>
      </trkpt>
      <trkpt lat="47.97152" lon="6.8078">
        <ele>903.245789</ele>
        <time>2019-08-16T14:38:16Z</time>
      </trkpt>
      <trkpt lat="47.97154" lon="6.80774">
        <ele>903.114563</ele>
        <time>2019-08-16T14:38:17Z</time>
      </trkpt>
      <trkpt lat="47.97157" lon="6.80767">
        <ele>902.958984</ele>
        <time>2019-08-16T14:38:18Z</time>
      </trkpt>
      <trkpt lat="47.97159" lon="6.80759">
        <ele>902.784668</ele>
        <time>2019-08-16T14:38:19Z</time>
      </trkpt>
      <trkpt lat="47.97162" lon="6.80752">
        <ele>902.592712</ele>
        <time>2019-08-16T14:38:20Z</time>
      </trkpt>
      <trkpt lat="47.97166" lon="6.80744">
        <ele>902.261719</ele>
        <time>2019-08-16T14:38:21Z</time>
      </trkpt>
      <trkpt lat="47.97171" lon="6.80738">
        <ele>902.008545</ele>
        <time>2019-08-16T14:38:22Z</time>
      </trkpt>
      <trkpt lat="47.97178" lon="6.80731">
        <ele>901.728027</ele>
        <time>2019-08-16T14:38:23Z</time>
      </trkpt>
      <trkpt lat="47.97184" lon="6.80725">
        <ele>901.263489</ele>
        <time>2019-08-16T14:38:24Z</time>
      </trkpt>
      <trkpt lat="47.97191" lon="6.8072">
        <ele>900.917664</ele>
        <time>2019-08-16T14:38:25Z</time>
      </trkpt>
      <trkpt lat="47.97199" lon="6.80717">
        <ele>900.530273</ele>
        <time>2019-08-16T14:38:26Z</time>
      </trkpt>
      <trkpt lat="47.97207" lon="6.80713">
        <ele>899.864075</ele>
        <time>2019-08-16T14:38:27Z</time>
      </trkpt>
      <trkpt lat="47.97215" lon="6.8071">
        <ele>899.356445</ele>
        <time>2019-08-16T14:38:28Z</time>
      </trkpt>
      <trkpt lat="47.97222" lon="6.80706">
        <ele>898.798767</ele>
        <time>2019-08-16T14:38:29Z</time>
      </trkpt>
      <trkpt lat="47.97229" lon="6.80702">
        <ele>897.870911</ele>
        <time>2019-08-16T14:38:30Z</time>
      </trkpt>
      <trkpt lat="47.97236" lon="6.80699">
        <ele>897.204041</ele>
        <time>2019-08-16T14:38:31Z</time>
      </trkpt>
      <trkpt lat="47.97242" lon="6.80696">
        <ele>896.517334</ele>
        <time>2019-08-16T14:38:32Z</time>
      </trkpt>
      <trkpt lat="47.97249" lon="6.80693">
        <ele>895.499573</ele>
        <time>2019-08-16T14:38:33Z</time>
      </trkpt>
      <trkpt lat="47.97255" lon="6.80692">
        <ele>894.849854</ele>
        <time>2019-08-16T14:38:34Z</time>
      </trkpt>
      <trkpt lat="47.97261" lon="6.8069">
        <ele>894.221436</ele>
        <time>2019-08-16T14:38:35Z</time>
      </trkpt>
      <trkpt lat="47.97268" lon="6.80687">
        <ele>893.317078</ele>
        <time>2019-08-16T14:38:36Z</time>
      </trkpt>
      <trkpt lat="47.97274" lon="6.80684">
        <ele>892.745667</ele>
        <time>2019-08-16T14:38:37Z</time>
      </trkpt>
      <trkpt lat="47.9728" lon="6.80682">
        <ele>892.199646</ele>
        <time>2019-08-16T14:38:38Z</time>
      </trkpt>
      <trkpt lat="47.97286" lon="6.80679">
        <ele>891.395996</ele>
        <time>2019-08-16T14:38:39Z</time>
      </trkpt>
      <trkpt lat="47.97292" lon="6.80676">
        <ele>890.857971</ele>
        <time>2019-08-16T14:38:40Z</time>
      </trkpt>
      <trkpt lat="47.97298" lon="6.80673">
        <ele>890.319336</ele>
        <time>2019-08-16T14:38:41Z</time>
      </trkpt>
      <trkpt lat="47.97303" lon="6.8067">
        <ele>889.514648</ele>
        <time>2019-08-16T14:38:42Z</time>
      </trkpt>
      <trkpt lat="47.97309" lon="6.80668">
        <ele>889.248718</ele>
        <time>2019-08-16T14:38:43Z</time>
      </trkpt>
      <trkpt lat="47.97315" lon="6.80664">
        <ele>888.983398</ele>
        <time>2019-08-16T14:38:44Z</time>
      </trkpt>
      <trkpt lat="47.9732" lon="6.80659">
        <ele>888.462585</ele>
        <time>2019-08-16T14:38:45Z</time>
      </trkpt>
      <trkpt lat="47.97325" lon="6.80653">
        <ele>887.725281</ele>
        <time>2019-08-16T14:38:46Z</time>
      </trkpt>
      <trkpt lat="47.97328" lon="6.80645">
        <ele>887.283875</ele>
        <time>2019-08-16T14:38:47Z</time>
      </trkpt>
      <trkpt lat="47.97331" lon="6.80637">
        <ele>886.890808</ele>
        <time>2019-08-16T14:38:48Z</time>
      </trkpt>
      <trkpt lat="47.97331" lon="6.80627">
        <ele>886.544373</ele>
        <time>2019-08-16T14:38:49Z</time>
      </trkpt>
      <trkpt lat="47.97331" lon="6.80617">
        <ele>886.22876</ele>
        <time>2019-08-16T14:38:50Z</time>
      </trkpt>
      <trkpt lat="47.97331" lon="6.80608">
        <ele>885.923157</ele>
        <time>2019-08-16T14:38:51Z</time>
      </trkpt>
      <trkpt lat="47.97331" lon="6.80597">
        <ele>885.607117</ele>
        <time>2019-08-16T14:38:52Z</time>
      </trkpt>
      <trkpt lat="47.97331" lon="6.80587">
        <ele>885.273743</ele>
        <time>2019-08-16T14:38:53Z</time>
      </trkpt>
      <trkpt lat="47.97331" lon="6.80576">
        <ele>884.922119</ele>
        <time>2019-08-16T14:38:54Z</time>
      </trkpt>
      <trkpt lat="47.97331" lon="6.80565">
        <ele>884.545227</ele>
        <time>2019-08-16T14:38:55Z</time>
      </trkpt>
      <trkpt lat="47.97331" lon="6.80554">
        <ele>884.138245</ele>
        <time>2019-08-16T14:38:56Z</time>
      </trkpt>
      <trkpt lat="47.97331" lon="6.80543">
        <ele>883.708984</ele>
        <time>2019-08-16T14:38:57Z</time>
      </trkpt>
      <trkpt lat="47.97331" lon="6.80531">
        <ele>883.271057</ele>
        <time>2019-08-16T14:38:58Z</time>
      </trkpt>
      <trkpt lat="47.97331" lon="6.8052">
        <ele>882.826355</ele>
        <time>2019-08-16T14:38:59Z</time>
      </trkpt>
      <trkpt lat="47.97331" lon="6.80508">
        <ele>882.364746</ele>
        <time>2019-08-16T14:39:00Z</time>
      </trkpt>
      <trkpt lat="47.97331" lon="6.80496">
        <ele>881.884705</ele>
        <time>2019-08-16T14:39:01Z</time>
      </trkpt>
      <trkpt lat="47.97331" lon="6.80484">
        <ele>881.395447</ele>
        <time>2019-08-16T14:39:02Z</time>
      </trkpt>
      <trkpt lat="47.97331" lon="6.80472">
        <ele>880.905945</ele>
        <time>2019-08-16T14:39:03Z</time>
      </trkpt>
      <trkpt lat="47.9733" lon="6.8046">
        <ele>880.423157</ele>
        <time>2019-08-16T14:39:04Z</time>
      </trkpt>
      <trkpt lat="47.9733" lon="6.80447">
        <ele>879.944824</ele>
        <time>2019-08-16T14:39:05Z</time>
      </trkpt>
      <trkpt lat="47.97329" lon="6.80435">
        <ele>879.474426</ele>
        <time>2019-08-16T14:39:06Z</time>
      </trkpt>
      <trkpt lat="47.97327" lon="6.80423">
        <ele>879.02002</ele>
        <time>2019-08-16T14:39:07Z</time>
      </trkpt>
      <trkpt lat="47.97326" lon="6.8041">
        <ele>878.581055</ele>
        <time>2019-08-16T14:39:08Z</time>
      </trkpt>
      <trkpt lat="47.97326" lon="6.80397">
        <ele>878.148438</ele>
        <time>2019-08-16T14:39:09Z</time>
      </trkpt>
      <trkpt lat="47.97324" lon="6.80384">
        <ele>877.706299</ele>
        <time>2019-08-16T14:39:10Z</time>
      </trkpt>
      <trkpt lat="47.97324" lon="6.80371">
        <ele>877.244324</ele>
        <time>2019-08-16T14:39:11Z</time>
      </trkpt>
      <trkpt lat="47.97323" lon="6.80358">
        <ele>876.75708</ele>
        <time>2019-08-16T14:39:12Z</time>
      </trkpt>
      <trkpt lat="47.97323" lon="6.80346">
        <ele>876.235413</ele>
        <time>2019-08-16T14:39:13Z</time>
      </trkpt>
      <trkpt lat="47.97321" lon="6.80335">
        <ele>875.674316</ele>
        <time>2019-08-16T14:39:14Z</time>
      </trkpt>
      <trkpt lat="47.9732" lon="6.80325">
        <ele>875.074463</ele>
        <time>2019-08-16T14:39:15Z</time>
      </trkpt>
      <trkpt lat="47.9732" lon="6.80314">
        <ele>874.442566</ele>
        <time>2019-08-16T14:39:16Z</time>
      </trkpt>
      <trkpt lat="47.97319" lon="6.80303">
        <ele>873.787354</ele>
        <time>2019-08-16T14:39:17Z</time>
      </trkpt>
      <trkpt lat="47.97319" lon="6.80292">
        <ele>873.118591</ele>
        <time>2019-08-16T14:39:18Z</time>
      </trkpt>
      <trkpt lat="47.97319" lon="6.8028">
        <ele>872.446716</ele>
        <time>2019-08-16T14:39:19Z</time>
      </trkpt>
      <trkpt lat="47.97319" lon="6.80268">
        <ele>871.77887</ele>
        <time>2019-08-16T14:39:20Z</time>
      </trkpt>
      <trkpt lat="47.9732" lon="6.80256">
        <ele>871.116638</ele>
        <time>2019-08-16T14:39:21Z</time>
      </trkpt>
      <trkpt lat="47.97321" lon="6.80244">
        <ele>870.453857</ele>
        <time>2019-08-16T14:39:22Z</time>
      </trkpt>
      <trkpt lat="47.97322" lon="6.80231">
        <ele>869.783508</ele>
        <time>2019-08-16T14:39:23Z</time>
      </trkpt>
      <trkpt lat="47.97324" lon="6.80219">
        <ele>869.105408</ele>
        <time>2019-08-16T14:39:24Z</time>
      </trkpt>
      <trkpt lat="47.97327" lon="6.80206">
        <ele>868.415039</ele>
        <time>2019-08-16T14:39:25Z</time>
      </trkpt>
      <trkpt lat="47.97329" lon="6.80193">
        <ele>867.711121</ele>
        <time>2019-08-16T14:39:26Z</time>
      </trkpt>
      <trkpt lat="47.97332" lon="6.8018">
        <ele>866.989197</ele>
        <time>2019-08-16T14:39:27Z</time>
      </trkpt>
      <trkpt lat="47.97335" lon="6.80167">
        <ele>866.254333</ele>
        <time>2019-08-16T14:39:28Z</time>
      </trkpt>
      <trkpt lat="47.97337" lon="6.80154">
        <ele>865.514404</ele>
        <time>2019-08-16T14:39:29Z</time>
      </trkpt>
      <trkpt lat="47.97339" lon="6.8014">
        <ele>864.768616</ele>
        <time>2019-08-16T14:39:30Z</time>
      </trkpt>
      <trkpt lat="47.97339" lon="6.80127">
        <ele>864.018555</ele>
        <time>2019-08-16T14:39:31Z</time>
      </trkpt>
      <trkpt lat="47.97339" lon="6.80113">
        <ele>863.267273</ele>
        <time>2019-08-16T14:39:32Z</time>
      </trkpt>
      <trkpt lat="47.97337" lon="6.80099">
        <ele>862.521973</ele>
        <time>2019-08-16T14:39:33Z</time>
      </trkpt>
      <trkpt lat="47.97336" lon="6.80086">
        <ele>861.783203</ele>
        <time>2019-08-16T14:39:34Z</time>
      </trkpt>
      <trkpt lat="47.97334" lon="6.80072">
        <ele>861.044922</ele>
        <time>2019-08-16T14:39:35Z</time>
      </trkpt>
      <trkpt lat="47.97333" lon="6.80057">
        <ele>860.301331</ele>
        <time>2019-08-16T14:39:36Z</time>
      </trkpt>
      <trkpt lat="47.97331" lon="6.80043">
        <ele>859.553223</ele>
        <time>2019-08-16T14:39:37Z</time>
      </trkpt>
      <trkpt lat="47.9733" lon="6.8003">
        <ele>858.795898</ele>
        <time>2019-08-16T14:39:38Z</time>
      </trkpt>
      <trkpt lat="47.97329" lon="6.80016">
        <ele>858.027588</ele>
        <time>2019-08-16T14:39:39Z</time>
      </trkpt>
      <trkpt lat="47.97329" lon="6.80003">
        <ele>857.25177</ele>
        <time>2019-08-16T14:39:40Z</time>
      </trkpt>
      <trkpt lat="47.97328" lon="6.79992">
        <ele>856.483643</ele>
        <time>2019-08-16T14:39:41Z</time>
      </trkpt>
      <trkpt lat="47.97328" lon="6.79982">
        <ele>855.723816</ele>
        <time>2019-08-16T14:39:42Z</time>
      </trkpt>
      <trkpt lat="47.97328" lon="6.79972">
        <ele>854.96875</ele>
        <time>2019-08-16T14:39:43Z</time>
      </trkpt>
      <trkpt lat="47.97329" lon="6.79962">
        <ele>854.595459</ele>
        <time>2019-08-16T14:39:44Z</time>
      </trkpt>
      <trkpt lat="47.97331" lon="6.79952">
        <ele>853.863281</ele>
        <time>2019-08-16T14:39:45Z</time>
      </trkpt>
      <trkpt lat="47.97333" lon="6.79941">
        <ele>853.152588</ele>
        <time>2019-08-16T14:39:46Z</time>
      </trkpt>
      <trkpt lat="47.97334" lon="6.7993">
        <ele>852.451843</ele>
        <time>2019-08-16T14:39:47Z</time>
      </trkpt>
      <trkpt lat="47.97334" lon="6.79918">
        <ele>851.740906</ele>
        <time>2019-08-16T14:39:48Z</time>
      </trkpt>
      <trkpt lat="47.97335" lon="6.79906">
        <ele>851.00415</ele>
        <time>2019-08-16T14:39:49Z</time>
      </trkpt>
      <trkpt lat="47.97335" lon="6.79896">
        <ele>850.231873</ele>
        <time>2019-08-16T14:39:50Z</time>
      </trkpt>
      <trkpt lat="47.97335" lon="6.79887">
        <ele>849.419861</ele>
        <time>2019-08-16T14:39:51Z</time>
      </trkpt>
      <trkpt lat="47.97335" lon="6.79879">
        <ele>848.575012</ele>
        <time>2019-08-16T14:39:52Z</time>
      </trkpt>
      <trkpt lat="47.97335" lon="6.79872">
        <ele>847.71875</ele>
        <time>2019-08-16T14:39:53Z</time>
      </trkpt>
      <trkpt lat="47.97334" lon="6.79866">
        <ele>846.869812</ele>
        <time>2019-08-16T14:39:54Z</time>
      </trkpt>
      <trkpt lat="47.97334" lon="6.79859">
        <ele>846.050781</ele>
        <time>2019-08-16T14:39:55Z</time>
      </trkpt>
      <trkpt lat="47.97334" lon="6.79852">
        <ele>845.275574</ele>
        <time>2019-08-16T14:39:56Z</time>
      </trkpt>
      <trkpt lat="47.97334" lon="6.79846">
        <ele>844.552307</ele>
        <time>2019-08-16T14:39:57Z</time>
      </trkpt>
      <trkpt lat="47.97333" lon="6.79842">
        <ele>843.881104</ele>
        <time>2019-08-16T14:39:58Z</time>
      </trkpt>
      <trkpt lat="47.97331" lon="6.79842">
        <ele>842.958557</ele>
        <time>2019-08-16T14:39:59Z</time>
      </trkpt>
      <trkpt lat="47.9733" lon="6.79843">
        <ele>842.407959</ele>
        <time>2019-08-16T14:40:00Z</time>
      </trkpt>
      <trkpt lat="47.97329" lon="6.79846">
        <ele>841.910828</ele>
        <time>2019-08-16T14:40:01Z</time>
      </trkpt>
      <trkpt lat="47.97329" lon="6.7985">
        <ele>841.459656</ele>
        <time>2019-08-16T14:40:02Z</time>
      </trkpt>
      <trkpt lat="47.9733" lon="6.79853">
        <ele>841.051575</ele>
        <time>2019-08-16T14:40:03Z</time>
      </trkpt>
      <trkpt lat="47.97332" lon="6.79855">
        <ele>840.699036</ele>
        <time>2019-08-16T14:40:04Z</time>
      </trkpt>
      <trkpt lat="47.97333" lon="6.79858">
        <ele>840.314514</ele>
        <time>2019-08-16T14:40:05Z</time>
      </trkpt>
      <trkpt lat="47.97333" lon="6.79861">
        <ele>840.161072</ele>
        <time>2019-08-16T14:40:06Z</time>
      </trkpt>
      <trkpt lat="47.97333" lon="6.79864">
        <ele>840.101379</ele>
        <time>2019-08-16T14:40:07Z</time>
      </trkpt>
      <trkpt lat="47.97333" lon="6.79866">
        <ele>840.101379</ele>
        <time>2019-08-16T14:40:08Z</time>
      </trkpt>
      <trkpt lat="47.97333" lon="6.7987">
        <ele>840.129333</ele>
        <time>2019-08-16T14:40:09Z</time>
      </trkpt>
      <trkpt lat="47.97333" lon="6.79873">
        <ele>840.291321</ele>
        <time>2019-08-16T14:40:10Z</time>
      </trkpt>
      <trkpt lat="47.97333" lon="6.79877">
        <ele>840.432678</ele>
        <time>2019-08-16T14:40:11Z</time>
      </trkpt>
      <trkpt lat="47.97333" lon="6.7988">
        <ele>840.585266</ele>
        <time>2019-08-16T14:40:12Z</time>
      </trkpt>
      <trkpt lat="47.97334" lon="6.79883">
        <ele>840.744568</ele>
        <time>2019-08-16T14:40:13Z</time>
      </trkpt>
      <trkpt lat="47.97334" lon="6.79885">
        <ele>840.909607</ele>
        <time>2019-08-16T14:40:14Z</time>
      </trkpt>
      <trkpt lat="47.97335" lon="6.79886">
        <ele>841.078796</ele>
        <time>2019-08-16T14:40:15Z</time>
      </trkpt>
      <trkpt lat="47.97336" lon="6.79885">
        <ele>841.250244</ele>
        <time>2019-08-16T14:40:16Z</time>
      </trkpt>
      <trkpt lat="47.97338" lon="6.79884">
        <ele>841.508118</ele>
        <time>2019-08-16T14:40:17Z</time>
      </trkpt>
      <trkpt lat="47.9734" lon="6.79883">
        <ele>841.686096</ele>
        <time>2019-08-16T14:40:18Z</time>
      </trkpt>
      <trkpt lat="47.97342" lon="6.79882">
        <ele>841.869141</ele>
        <time>2019-08-16T14:40:19Z</time>
      </trkpt>
      <trkpt lat="47.97343" lon="6.79881">
        <ele>842.049072</ele>
        <time>2019-08-16T14:40:20Z</time>
      </trkpt>
      <trkpt lat="47.97344" lon="6.79879">
        <ele>842.307617</ele>
        <time>2019-08-16T14:40:21Z</time>
      </trkpt>
      <trkpt lat="47.97345" lon="6.79878">
        <ele>842.486572</ele>
        <time>2019-08-16T14:40:22Z</time>
      </trkpt>
      <trkpt lat="47.97346" lon="6.79877">
        <ele>842.676758</ele>
        <time>2019-08-16T14:40:23Z</time>
      </trkpt>
      <trkpt lat="47.97347" lon="6.79876">
        <ele>842.984192</ele>
        <time>2019-08-16T14:40:24Z</time>
      </trkpt>
      <trkpt lat="47.97348" lon="6.79874">
        <ele>843.19989</ele>
        <time>2019-08-16T14:40:25Z</time>
      </trkpt>
      <trkpt lat="47.97349" lon="6.79873">
        <ele>843.424377</ele>
        <time>2019-08-16T14:40:26Z</time>
      </trkpt>
      <trkpt lat="47.9735" lon="6.79872">
        <ele>843.657715</ele>
        <time>2019-08-16T14:40:27Z</time>
      </trkpt>
      <trkpt lat="47.97351" lon="6.79871">
        <ele>843.905212</ele>
        <time>2019-08-16T14:40:28Z</time>
      </trkpt>
      <trkpt lat="47.97352" lon="6.79869">
        <ele>844.158203</ele>
        <time>2019-08-16T14:40:29Z</time>
      </trkpt>
      <trkpt lat="47.97352" lon="6.79867">
        <ele>844.536804</ele>
        <time>2019-08-16T14:40:30Z</time>
      </trkpt>
      <trkpt lat="47.97353" lon="6.79865">
        <ele>844.786316</ele>
        <time>2019-08-16T14:40:31Z</time>
      </trkpt>
      <trkpt lat="47.97354" lon="6.79864">
        <ele>845.040527</ele>
        <time>2019-08-16T14:40:32Z</time>
      </trkpt>
      <trkpt lat="47.97355" lon="6.79862">
        <ele>845.299255</ele>
        <time>2019-08-16T14:40:33Z</time>
      </trkpt>
      <trkpt lat="47.97356" lon="6.79861">
        <ele>845.568115</ele>
        <time>2019-08-16T14:40:34Z</time>
      </trkpt>
      <trkpt lat="47.97356" lon="6.79859">
        <ele>845.843994</ele>
        <time>2019-08-16T14:40:35Z</time>
      </trkpt>
      <trkpt lat="47.97356" lon="6.79858">
        <ele>846.123962</ele>
        <time>2019-08-16T14:40:36Z</time>
      </trkpt>
      <trkpt lat="47.97357" lon="6.79857">
        <ele>846.829346</ele>
        <time>2019-08-16T14:40:37Z</time>
      </trkpt>
      <trkpt lat="47.97358" lon="6.79856">
        <ele>847.104065</ele>
        <time>2019-08-16T14:40:39Z</time>
      </trkpt>
      <trkpt lat="47.97358" lon="6.79854">
        <ele>847.371521</ele>
        <time>2019-08-16T14:40:40Z</time>
      </trkpt>
      <trkpt lat="47.97359" lon="6.79853">
        <ele>847.635559</ele>
        <time>2019-08-16T14:40:41Z</time>
      </trkpt>
      <trkpt lat="47.9736" lon="6.79851">
        <ele>848.029114</ele>
        <time>2019-08-16T14:40:42Z</time>
      </trkpt>
      <trkpt lat="47.97361" lon="6.7985">
        <ele>848.283386</ele>
        <time>2019-08-16T14:40:43Z</time>
      </trkpt>
      <trkpt lat="47.97362" lon="6.79849">
        <ele>848.407715</ele>
        <time>2019-08-16T14:40:44Z</time>
      </trkpt>
      <trkpt lat="47.97363" lon="6.79848">
        <ele>848.777527</ele>
        <time>2019-08-16T14:40:45Z</time>
      </trkpt>
      <trkpt lat="47.97363" lon="6.79846">
        <ele>849.029236</ele>
        <time>2019-08-16T14:40:46Z</time>
      </trkpt>
      <trkpt lat="47.97364" lon="6.79844">
        <ele>849.287048</ele>
        <time>2019-08-16T14:40:47Z</time>
      </trkpt>
      <trkpt lat="47.97365" lon="6.79842">
        <ele>849.545654</ele>
        <time>2019-08-16T14:40:48Z</time>
      </trkpt>
      <trkpt lat="47.97366" lon="6.79841">
        <ele>849.924622</ele>
        <time>2019-08-16T14:40:49Z</time>
      </trkpt>
      <trkpt lat="47.97367" lon="6.7984">
        <ele>850.167725</ele>
        <time>2019-08-16T14:40:50Z</time>
      </trkpt>
      <trkpt lat="47.97368" lon="6.79838">
        <ele>850.405701</ele>
        <time>2019-08-16T14:40:51Z</time>
      </trkpt>
      <trkpt lat="47.97368" lon="6.79836">
        <ele>850.642029</ele>
        <time>2019-08-16T14:40:52Z</time>
      </trkpt>
      <trkpt lat="47.97368" lon="6.79834">
        <ele>850.879456</ele>
        <time>2019-08-16T14:40:53Z</time>
      </trkpt>
      <trkpt lat="47.97369" lon="6.79832">
        <ele>851.116455</ele>
        <time>2019-08-16T14:40:54Z</time>
      </trkpt>
      <trkpt lat="47.97369" lon="6.7983">
        <ele>851.353271</ele>
        <time>2019-08-16T14:40:55Z</time>
      </trkpt>
      <trkpt lat="47.9737" lon="6.79827">
        <ele>851.592712</ele>
        <time>2019-08-16T14:40:56Z</time>
      </trkpt>
      <trkpt lat="47.97371" lon="6.79825">
        <ele>851.837341</ele>
        <time>2019-08-16T14:40:57Z</time>
      </trkpt>
      <trkpt lat="47.97372" lon="6.79824">
        <ele>852.086731</ele>
        <time>2019-08-16T14:40:58Z</time>
      </trkpt>
      <trkpt lat="47.97372" lon="6.79824">
        <ele>852.732605</ele>
        <time>2019-08-16T14:40:59Z</time>
      </trkpt>
      <trkpt lat="47.97373" lon="6.79822">
        <ele>852.983948</ele>
        <time>2019-08-16T14:41:01Z</time>
      </trkpt>
      <trkpt lat="47.97373" lon="6.7982">
        <ele>853.212097</ele>
        <time>2019-08-16T14:41:02Z</time>
      </trkpt>
      <trkpt lat="47.97373" lon="6.79817">
        <ele>853.409241</ele>
        <time>2019-08-16T14:41:03Z</time>
      </trkpt>
      <trkpt lat="47.97374" lon="6.79815">
        <ele>853.578918</ele>
        <time>2019-08-16T14:41:04Z</time>
      </trkpt>
      <trkpt lat="47.97374" lon="6.79813">
        <ele>853.729187</ele>
        <time>2019-08-16T14:41:05Z</time>
      </trkpt>
      <trkpt lat="47.97374" lon="6.79811">
        <ele>853.859375</ele>
        <time>2019-08-16T14:41:06Z</time>
      </trkpt>
      <trkpt lat="47.97375" lon="6.79809">
        <ele>853.968323</ele>
        <time>2019-08-16T14:41:07Z</time>
      </trkpt>
      <trkpt lat="47.97376" lon="6.79808">
        <ele>854.057861</ele>
        <time>2019-08-16T14:41:08Z</time>
      </trkpt>
      <trkpt lat="47.97376" lon="6.79807">
        <ele>854.134705</ele>
        <time>2019-08-16T14:41:09Z</time>
      </trkpt>
      <trkpt lat="47.97377" lon="6.79805">
        <ele>854.204773</ele>
        <time>2019-08-16T14:41:10Z</time>
      </trkpt>
      <trkpt lat="47.97379" lon="6.79804">
        <ele>854.266296</ele>
        <time>2019-08-16T14:41:11Z</time>
      </trkpt>
      <trkpt lat="47.9738" lon="6.79802">
        <ele>854.322266</ele>
        <time>2019-08-16T14:41:12Z</time>
      </trkpt>
      <trkpt lat="47.97382" lon="6.79801">
        <ele>854.399597</ele>
        <time>2019-08-16T14:41:13Z</time>
      </trkpt>
      <trkpt lat="47.97383" lon="6.798">
        <ele>854.445007</ele>
        <time>2019-08-16T14:41:14Z</time>
      </trkpt>
      <trkpt lat="47.97385" lon="6.79799">
        <ele>854.471985</ele>
        <time>2019-08-16T14:41:15Z</time>
      </trkpt>
      <trkpt lat="47.97386" lon="6.79798">
        <ele>854.477051</ele>
        <time>2019-08-16T14:41:16Z</time>
      </trkpt>
      <trkpt lat="47.97388" lon="6.79796">
        <ele>854.472656</ele>
        <time>2019-08-16T14:41:17Z</time>
      </trkpt>
      <trkpt lat="47.9739" lon="6.79795">
        <ele>854.456238</ele>
        <time>2019-08-16T14:41:18Z</time>
      </trkpt>
      <trkpt lat="47.97392" lon="6.79793">
        <ele>854.4104</ele>
        <time>2019-08-16T14:41:19Z</time>
      </trkpt>
      <trkpt lat="47.97394" lon="6.79792">
        <ele>854.355652</ele>
        <time>2019-08-16T14:41:20Z</time>
      </trkpt>
      <trkpt lat="47.97397" lon="6.7979">
        <ele>854.289978</ele>
        <time>2019-08-16T14:41:21Z</time>
      </trkpt>
      <trkpt lat="47.97399" lon="6.79788">
        <ele>854.196777</ele>
        <time>2019-08-16T14:41:22Z</time>
      </trkpt>
      <trkpt lat="47.97401" lon="6.79787">
        <ele>854.144592</ele>
        <time>2019-08-16T14:41:23Z</time>
      </trkpt>
      <trkpt lat="47.97405" lon="6.79786">
        <ele>854.092957</ele>
        <time>2019-08-16T14:41:24Z</time>
      </trkpt>
      <trkpt lat="47.97407" lon="6.79784">
        <ele>854.006775</ele>
        <time>2019-08-16T14:41:25Z</time>
      </trkpt>
      <trkpt lat="47.97411" lon="6.79782">
        <ele>853.939697</ele>
        <time>2019-08-16T14:41:26Z</time>
      </trkpt>
      <trkpt lat="47.97414" lon="6.7978">
        <ele>853.86084</ele>
        <time>2019-08-16T14:41:27Z</time>
      </trkpt>
      <trkpt lat="47.97417" lon="6.79778">
        <ele>853.724121</ele>
        <time>2019-08-16T14:41:28Z</time>
      </trkpt>
      <trkpt lat="47.97419" lon="6.79776">
        <ele>853.622131</ele>
        <time>2019-08-16T14:41:29Z</time>
      </trkpt>
      <trkpt lat="47.97422" lon="6.79775">
        <ele>853.519348</ele>
        <time>2019-08-16T14:41:30Z</time>
      </trkpt>
      <trkpt lat="47.97425" lon="6.79773">
        <ele>853.355286</ele>
        <time>2019-08-16T14:41:31Z</time>
      </trkpt>
      <trkpt lat="47.97427" lon="6.79772">
        <ele>853.245544</ele>
        <time>2019-08-16T14:41:32Z</time>
      </trkpt>
      <trkpt lat="47.9743" lon="6.79771">
        <ele>853.143127</ele>
        <time>2019-08-16T14:41:33Z</time>
      </trkpt>
      <trkpt lat="47.97432" lon="6.7977">
        <ele>853.028259</ele>
        <time>2019-08-16T14:41:34Z</time>
      </trkpt>
      <trkpt lat="47.97434" lon="6.7977">
        <ele>852.979553</ele>
        <time>2019-08-16T14:41:35Z</time>
      </trkpt>
      <trkpt lat="47.97437" lon="6.79769">
        <ele>852.94989</ele>
        <time>2019-08-16T14:41:36Z</time>
      </trkpt>
      <trkpt lat="47.97439" lon="6.79769">
        <ele>852.93042</ele>
        <time>2019-08-16T14:41:37Z</time>
      </trkpt>
      <trkpt lat="47.97441" lon="6.79768">
        <ele>852.93042</ele>
        <time>2019-08-16T14:41:38Z</time>
      </trkpt>
      <trkpt lat="47.97444" lon="6.79768">
        <ele>852.9375</ele>
        <time>2019-08-16T14:41:39Z</time>
      </trkpt>
      <trkpt lat="47.97446" lon="6.79768">
        <ele>852.971436</ele>
        <time>2019-08-16T14:41:40Z</time>
      </trkpt>
      <trkpt lat="47.97449" lon="6.79767">
        <ele>852.992432</ele>
        <time>2019-08-16T14:41:41Z</time>
      </trkpt>
      <trkpt lat="47.97451" lon="6.79767">
        <ele>853.00885</ele>
        <time>2019-08-16T14:41:42Z</time>
      </trkpt>
      <trkpt lat="47.97454" lon="6.79767">
        <ele>853.011475</ele>
        <time>2019-08-16T14:41:43Z</time>
      </trkpt>
      <trkpt lat="47.97457" lon="6.79767">
        <ele>853.010925</ele>
        <time>2019-08-16T14:41:44Z</time>
      </trkpt>
      <trkpt lat="47.9746" lon="6.79767">
        <ele>853.007874</ele>
        <time>2019-08-16T14:41:45Z</time>
      </trkpt>
      <trkpt lat="47.97463" lon="6.79767">
        <ele>853.007874</ele>
        <time>2019-08-16T14:41:46Z</time>
      </trkpt>
      <trkpt lat="47.97465" lon="6.79767">
        <ele>852.994324</ele>
        <time>2019-08-16T14:41:47Z</time>
      </trkpt>
      <trkpt lat="47.97467" lon="6.79767">
        <ele>852.975586</ele>
        <time>2019-08-16T14:41:48Z</time>
      </trkpt>
      <trkpt lat="47.9747" lon="6.79767">
        <ele>852.947754</ele>
        <time>2019-08-16T14:41:49Z</time>
      </trkpt>
      <trkpt lat="47.97473" lon="6.79767">
        <ele>852.930115</ele>
        <time>2019-08-16T14:41:50Z</time>
      </trkpt>
      <trkpt lat="47.97475" lon="6.79768">
        <ele>852.90625</ele>
        <time>2019-08-16T14:41:51Z</time>
      </trkpt>
      <trkpt lat="47.97479" lon="6.79768">
        <ele>852.851746</ele>
        <time>2019-08-16T14:41:52Z</time>
      </trkpt>
      <trkpt lat="47.97482" lon="6.79768">
        <ele>852.804749</ele>
        <time>2019-08-16T14:41:53Z</time>
      </trkpt>
      <trkpt lat="47.97485" lon="6.79769">
        <ele>852.754639</ele>
        <time>2019-08-16T14:41:54Z</time>
      </trkpt>
      <trkpt lat="47.97488" lon="6.79769">
        <ele>852.659485</ele>
        <time>2019-08-16T14:41:55Z</time>
      </trkpt>
      <trkpt lat="47.9749" lon="6.79769">
        <ele>852.580994</ele>
        <time>2019-08-16T14:41:56Z</time>
      </trkpt>
      <trkpt lat="47.97493" lon="6.79769">
        <ele>852.499939</ele>
        <time>2019-08-16T14:41:57Z</time>
      </trkpt>
      <trkpt lat="47.97496" lon="6.79769">
        <ele>852.38739</ele>
        <time>2019-08-16T14:41:58Z</time>
      </trkpt>
      <trkpt lat="47.97499" lon="6.79769">
        <ele>852.313721</ele>
        <time>2019-08-16T14:41:59Z</time>
      </trkpt>
      <trkpt lat="47.97501" lon="6.79769">
        <ele>852.246399</ele>
        <time>2019-08-16T14:42:00Z</time>
      </trkpt>
      <trkpt lat="47.97504" lon="6.79769">
        <ele>852.169617</ele>
        <time>2019-08-16T14:42:01Z</time>
      </trkpt>
      <trkpt lat="47.97506" lon="6.79768">
        <ele>852.144043</ele>
        <time>2019-08-16T14:42:02Z</time>
      </trkpt>
      <trkpt lat="47.97509" lon="6.79768">
        <ele>852.131409</ele>
        <time>2019-08-16T14:42:03Z</time>
      </trkpt>
      <trkpt lat="47.97511" lon="6.79767">
        <ele>852.125977</ele>
        <time>2019-08-16T14:42:04Z</time>
      </trkpt>
      <trkpt lat="47.97514" lon="6.79767">
        <ele>852.125793</ele>
        <time>2019-08-16T14:42:05Z</time>
      </trkpt>
      <trkpt lat="47.97517" lon="6.79766">
        <ele>852.12616</ele>
        <time>2019-08-16T14:42:06Z</time>
      </trkpt>
      <trkpt lat="47.9752" lon="6.79766">
        <ele>852.137268</ele>
        <time>2019-08-16T14:42:07Z</time>
      </trkpt>
      <trkpt lat="47.97523" lon="6.79766">
        <ele>852.140442</ele>
        <time>2019-08-16T14:42:08Z</time>
      </trkpt>
      <trkpt lat="47.97525" lon="6.79765">
        <ele>852.14032</ele>
        <time>2019-08-16T14:42:09Z</time>
      </trkpt>
      <trkpt lat="47.97529" lon="6.79764">
        <ele>852.105713</ele>
        <time>2019-08-16T14:42:10Z</time>
      </trkpt>
      <trkpt lat="47.97531" lon="6.79763">
        <ele>852.0578</ele>
        <time>2019-08-16T14:42:11Z</time>
      </trkpt>
      <trkpt lat="47.97534" lon="6.79762">
        <ele>852.000671</ele>
        <time>2019-08-16T14:42:12Z</time>
      </trkpt>
      <trkpt lat="47.97537" lon="6.79761">
        <ele>851.906006</ele>
        <time>2019-08-16T14:42:13Z</time>
      </trkpt>
      <trkpt lat="47.9754" lon="6.7976">
        <ele>851.82843</ele>
        <time>2019-08-16T14:42:14Z</time>
      </trkpt>
      <trkpt lat="47.97543" lon="6.79759">
        <ele>851.737976</ele>
        <time>2019-08-16T14:42:15Z</time>
      </trkpt>
      <trkpt lat="47.97547" lon="6.79759">
        <ele>851.590515</ele>
        <time>2019-08-16T14:42:16Z</time>
      </trkpt>
      <trkpt lat="47.9755" lon="6.79758">
        <ele>851.49823</ele>
        <time>2019-08-16T14:42:17Z</time>
      </trkpt>
      <trkpt lat="47.97554" lon="6.79757">
        <ele>851.410156</ele>
        <time>2019-08-16T14:42:18Z</time>
      </trkpt>
      <trkpt lat="47.97557" lon="6.79757">
        <ele>851.276367</ele>
        <time>2019-08-16T14:42:19Z</time>
      </trkpt>
      <trkpt lat="47.97561" lon="6.79757">
        <ele>851.185364</ele>
        <time>2019-08-16T14:42:20Z</time>
      </trkpt>
      <trkpt lat="47.97564" lon="6.79757">
        <ele>851.092468</ele>
        <time>2019-08-16T14:42:21Z</time>
      </trkpt>
      <trkpt lat="47.97567" lon="6.79756">
        <ele>850.94696</ele>
        <time>2019-08-16T14:42:22Z</time>
      </trkpt>
      <trkpt lat="47.9757" lon="6.79755">
        <ele>850.836426</ele>
        <time>2019-08-16T14:42:23Z</time>
      </trkpt>
      <trkpt lat="47.97572" lon="6.79753">
        <ele>850.714172</ele>
        <time>2019-08-16T14:42:24Z</time>
      </trkpt>
      <trkpt lat="47.97575" lon="6.79751">
        <ele>850.507019</ele>
        <time>2019-08-16T14:42:25Z</time>
      </trkpt>
      <trkpt lat="47.97577" lon="6.79749">
        <ele>850.357727</ele>
        <time>2019-08-16T14:42:26Z</time>
      </trkpt>
      <trkpt lat="47.97579" lon="6.79746">
        <ele>850.200684</ele>
        <time>2019-08-16T14:42:27Z</time>
      </trkpt>
      <trkpt lat="47.97582" lon="6.79744">
        <ele>850.050964</ele>
        <time>2019-08-16T14:42:28Z</time>
      </trkpt>
      <trkpt lat="47.97584" lon="6.79741">
        <ele>849.842468</ele>
        <time>2019-08-16T14:42:29Z</time>
      </trkpt>
      <trkpt lat="47.97587" lon="6.79738">
        <ele>849.716614</ele>
        <time>2019-08-16T14:42:30Z</time>
      </trkpt>
      <trkpt lat="47.97591" lon="6.79738">
        <ele>849.597473</ele>
        <time>2019-08-16T14:42:31Z</time>
      </trkpt>
      <trkpt lat="47.97595" lon="6.79739">
        <ele>849.423157</ele>
        <time>2019-08-16T14:42:32Z</time>
      </trkpt>
      <trkpt lat="47.97599" lon="6.7974">
        <ele>849.29248</ele>
        <time>2019-08-16T14:42:33Z</time>
      </trkpt>
      <trkpt lat="47.97604" lon="6.7974">
        <ele>849.140076</ele>
        <time>2019-08-16T14:42:34Z</time>
      </trkpt>
      <trkpt lat="47.97607" lon="6.79737">
        <ele>848.852783</ele>
        <time>2019-08-16T14:42:35Z</time>
      </trkpt>
      <trkpt lat="47.97609" lon="6.79732">
        <ele>848.625244</ele>
        <time>2019-08-16T14:42:36Z</time>
      </trkpt>
      <trkpt lat="47.97611" lon="6.79727">
        <ele>848.362305</ele>
        <time>2019-08-16T14:42:37Z</time>
      </trkpt>
      <trkpt lat="47.97613" lon="6.79722">
        <ele>847.905457</ele>
        <time>2019-08-16T14:42:38Z</time>
      </trkpt>
      <trkpt lat="47.97617" lon="6.79718">
        <ele>847.573669</ele>
        <time>2019-08-16T14:42:39Z</time>
      </trkpt>
      <trkpt lat="47.9762" lon="6.79716">
        <ele>847.241638</ele>
        <time>2019-08-16T14:42:40Z</time>
      </trkpt>
      <trkpt lat="47.97623" lon="6.79716">
        <ele>846.920166</ele>
        <time>2019-08-16T14:42:41Z</time>
      </trkpt>
      <trkpt lat="47.97626" lon="6.79718">
        <ele>846.464783</ele>
        <time>2019-08-16T14:42:42Z</time>
      </trkpt>
      <trkpt lat="47.97629" lon="6.7972">
        <ele>846.17627</ele>
        <time>2019-08-16T14:42:43Z</time>
      </trkpt>
      <trkpt lat="47.97631" lon="6.79722">
        <ele>845.90741</ele>
        <time>2019-08-16T14:42:44Z</time>
      </trkpt>
      <trkpt lat="47.97633" lon="6.79724">
        <ele>845.569824</ele>
        <time>2019-08-16T14:42:45Z</time>
      </trkpt>
      <trkpt lat="47.97635" lon="6.79725">
        <ele>845.48175</ele>
        <time>2019-08-16T14:42:46Z</time>
      </trkpt>
      <trkpt lat="47.97638" lon="6.79726">
        <ele>845.343506</ele>
        <time>2019-08-16T14:42:47Z</time>
      </trkpt>
      <trkpt lat="47.97641" lon="6.79726">
        <ele>845.24054</ele>
        <time>2019-08-16T14:42:48Z</time>
      </trkpt>
      <trkpt lat="47.97644" lon="6.79726">
        <ele>845.235596</ele>
        <time>2019-08-16T14:42:49Z</time>
      </trkpt>
      <trkpt lat="47.97646" lon="6.79726">
        <ele>845.245056</ele>
        <time>2019-08-16T14:42:50Z</time>
      </trkpt>
      <trkpt lat="47.97649" lon="6.79726">
        <ele>845.343079</ele>
        <time>2019-08-16T14:42:51Z</time>
      </trkpt>
      <trkpt lat="47.97652" lon="6.79725">
        <ele>845.441406</ele>
        <time>2019-08-16T14:42:52Z</time>
      </trkpt>
      <trkpt lat="47.97655" lon="6.79725">
        <ele>845.555359</ele>
        <time>2019-08-16T14:42:53Z</time>
      </trkpt>
      <trkpt lat="47.97657" lon="6.79724">
        <ele>845.743591</ele>
        <time>2019-08-16T14:42:54Z</time>
      </trkpt>
      <trkpt lat="47.97659" lon="6.79725">
        <ele>845.871277</ele>
        <time>2019-08-16T14:42:55Z</time>
      </trkpt>
      <trkpt lat="47.97661" lon="6.79726">
        <ele>845.996765</ele>
        <time>2019-08-16T14:42:56Z</time>
      </trkpt>
      <trkpt lat="47.97663" lon="6.79727">
        <ele>846.180115</ele>
        <time>2019-08-16T14:42:57Z</time>
      </trkpt>
      <trkpt lat="47.97665" lon="6.79729">
        <ele>846.299805</ele>
        <time>2019-08-16T14:42:58Z</time>
      </trkpt>
      <trkpt lat="47.97667" lon="6.79732">
        <ele>846.421692</ele>
        <time>2019-08-16T14:42:59Z</time>
      </trkpt>
      <trkpt lat="47.97669" lon="6.79734">
        <ele>846.616516</ele>
        <time>2019-08-16T14:43:00Z</time>
      </trkpt>
      <trkpt lat="47.9767" lon="6.79736">
        <ele>846.757568</ele>
        <time>2019-08-16T14:43:01Z</time>
      </trkpt>
      <trkpt lat="47.97672" lon="6.79738">
        <ele>846.906982</ele>
        <time>2019-08-16T14:43:02Z</time>
      </trkpt>
      <trkpt lat="47.97674" lon="6.7974">
        <ele>847.066895</ele>
        <time>2019-08-16T14:43:03Z</time>
      </trkpt>
      <trkpt lat="47.97675" lon="6.79742">
        <ele>847.238586</ele>
        <time>2019-08-16T14:43:04Z</time>
      </trkpt>
      <trkpt lat="47.97677" lon="6.79744">
        <ele>847.415466</ele>
        <time>2019-08-16T14:43:05Z</time>
      </trkpt>
      <trkpt lat="47.97678" lon="6.79746">
        <ele>847.588074</ele>
        <time>2019-08-16T14:43:06Z</time>
      </trkpt>
      <trkpt lat="47.97681" lon="6.79748">
        <ele>847.821716</ele>
        <time>2019-08-16T14:43:07Z</time>
      </trkpt>
      <trkpt lat="47.97683" lon="6.79751">
        <ele>847.958801</ele>
        <time>2019-08-16T14:43:08Z</time>
      </trkpt>
      <trkpt lat="47.97684" lon="6.79753">
        <ele>848.082703</ele>
        <time>2019-08-16T14:43:09Z</time>
      </trkpt>
      <trkpt lat="47.97686" lon="6.79755">
        <ele>848.250671</ele>
        <time>2019-08-16T14:43:10Z</time>
      </trkpt>
      <trkpt lat="47.97688" lon="6.79757">
        <ele>848.355957</ele>
        <time>2019-08-16T14:43:11Z</time>
      </trkpt>
      <trkpt lat="47.97689" lon="6.79759">
        <ele>848.462219</ele>
        <time>2019-08-16T14:43:12Z</time>
      </trkpt>
      <trkpt lat="47.97691" lon="6.79761">
        <ele>848.575012</ele>
        <time>2019-08-16T14:43:13Z</time>
      </trkpt>
      <trkpt lat="47.97694" lon="6.79763">
        <ele>848.76416</ele>
        <time>2019-08-16T14:43:14Z</time>
      </trkpt>
      <trkpt lat="47.97696" lon="6.79765">
        <ele>848.903259</ele>
        <time>2019-08-16T14:43:15Z</time>
      </trkpt>
      <trkpt lat="47.97697" lon="6.79767">
        <ele>849.04657</ele>
        <time>2019-08-16T14:43:16Z</time>
      </trkpt>
      <trkpt lat="47.97699" lon="6.79768">
        <ele>849.267761</ele>
        <time>2019-08-16T14:43:17Z</time>
      </trkpt>
      <trkpt lat="47.97701" lon="6.79769">
        <ele>849.420898</ele>
        <time>2019-08-16T14:43:18Z</time>
      </trkpt>
      <trkpt lat="47.97704" lon="6.79771">
        <ele>849.572815</ele>
        <time>2019-08-16T14:43:19Z</time>
      </trkpt>
      <trkpt lat="47.97705" lon="6.79773">
        <ele>849.784119</ele>
        <time>2019-08-16T14:43:20Z</time>
      </trkpt>
      <trkpt lat="47.97707" lon="6.79774">
        <ele>849.914978</ele>
        <time>2019-08-16T14:43:21Z</time>
      </trkpt>
      <trkpt lat="47.97709" lon="6.79776">
        <ele>850.042664</ele>
        <time>2019-08-16T14:43:22Z</time>
      </trkpt>
      <trkpt lat="47.97711" lon="6.79777">
        <ele>850.241394</ele>
        <time>2019-08-16T14:43:23Z</time>
      </trkpt>
      <trkpt lat="47.97712" lon="6.79778">
        <ele>850.383606</ele>
        <time>2019-08-16T14:43:24Z</time>
      </trkpt>
      <trkpt lat="47.97714" lon="6.79779">
        <ele>850.53009</ele>
        <time>2019-08-16T14:43:25Z</time>
      </trkpt>
      <trkpt lat="47.97716" lon="6.7978">
        <ele>850.752625</ele>
        <time>2019-08-16T14:43:26Z</time>
      </trkpt>
      <trkpt lat="47.97718" lon="6.79781">
        <ele>850.907227</ele>
        <time>2019-08-16T14:43:27Z</time>
      </trkpt>
      <trkpt lat="47.97719" lon="6.79782">
        <ele>851.069397</ele>
        <time>2019-08-16T14:43:28Z</time>
      </trkpt>
      <trkpt lat="47.97721" lon="6.79782">
        <ele>851.329163</ele>
        <time>2019-08-16T14:43:29Z</time>
      </trkpt>
      <trkpt lat="47.97723" lon="6.79783">
        <ele>851.510742</ele>
        <time>2019-08-16T14:43:30Z</time>
      </trkpt>
      <trkpt lat="47.97725" lon="6.79784">
        <ele>851.694275</ele>
        <time>2019-08-16T14:43:31Z</time>
      </trkpt>
      <trkpt lat="47.97727" lon="6.79784">
        <ele>851.969177</ele>
        <time>2019-08-16T14:43:32Z</time>
      </trkpt>
      <trkpt lat="47.97729" lon="6.79785">
        <ele>852.150574</ele>
        <time>2019-08-16T14:43:33Z</time>
      </trkpt>
      <trkpt lat="47.97731" lon="6.79786">
        <ele>852.32373</ele>
        <time>2019-08-16T14:43:34Z</time>
      </trkpt>
      <trkpt lat="47.97733" lon="6.79787">
        <ele>852.558533</ele>
        <time>2019-08-16T14:43:35Z</time>
      </trkpt>
      <trkpt lat="47.97734" lon="6.79788">
        <ele>852.697998</ele>
        <time>2019-08-16T14:43:36Z</time>
      </trkpt>
      <trkpt lat="47.97736" lon="6.79789">
        <ele>852.827148</ele>
        <time>2019-08-16T14:43:37Z</time>
      </trkpt>
      <trkpt lat="47.97738" lon="6.79789">
        <ele>853.012207</ele>
        <time>2019-08-16T14:43:38Z</time>
      </trkpt>
      <trkpt lat="47.9774" lon="6.7979">
        <ele>853.141418</ele>
        <time>2019-08-16T14:43:39Z</time>
      </trkpt>
      <trkpt lat="47.97741" lon="6.7979">
        <ele>853.286682</ele>
        <time>2019-08-16T14:43:40Z</time>
      </trkpt>
      <trkpt lat="47.97743" lon="6.79791">
        <ele>853.538147</ele>
        <time>2019-08-16T14:43:41Z</time>
      </trkpt>
      <trkpt lat="47.97745" lon="6.79791">
        <ele>853.715332</ele>
        <time>2019-08-16T14:43:42Z</time>
      </trkpt>
      <trkpt lat="47.97746" lon="6.79791">
        <ele>853.890442</ele>
        <time>2019-08-16T14:43:43Z</time>
      </trkpt>
      <trkpt lat="47.97748" lon="6.7979">
        <ele>854.145752</ele>
        <time>2019-08-16T14:43:44Z</time>
      </trkpt>
      <trkpt lat="47.9775" lon="6.79789">
        <ele>854.309143</ele>
        <time>2019-08-16T14:43:45Z</time>
      </trkpt>
      <trkpt lat="47.97752" lon="6.79788">
        <ele>854.464661</ele>
        <time>2019-08-16T14:43:46Z</time>
      </trkpt>
      <trkpt lat="47.97753" lon="6.79787">
        <ele>854.539063</ele>
        <time>2019-08-16T14:43:47Z</time>
      </trkpt>
      <trkpt lat="47.97755" lon="6.79785">
        <ele>854.613037</ele>
        <time>2019-08-16T14:43:48Z</time>
      </trkpt>
      <trkpt lat="47.97757" lon="6.79784">
        <ele>854.764221</ele>
        <time>2019-08-16T14:43:49Z</time>
      </trkpt>
      <trkpt lat="47.97758" lon="6.79782">
        <ele>854.932556</ele>
        <time>2019-08-16T14:43:50Z</time>
      </trkpt>
      <trkpt lat="47.97759" lon="6.79779">
        <ele>855.126526</ele>
        <time>2019-08-16T14:43:51Z</time>
      </trkpt>
      <trkpt lat="47.9776" lon="6.79776">
        <ele>855.349426</ele>
        <time>2019-08-16T14:43:52Z</time>
      </trkpt>
      <trkpt lat="47.97759" lon="6.79773">
        <ele>855.596619</ele>
        <time>2019-08-16T14:43:53Z</time>
      </trkpt>
      <trkpt lat="47.97759" lon="6.79769">
        <ele>855.854919</ele>
        <time>2019-08-16T14:43:54Z</time>
      </trkpt>
      <trkpt lat="47.97759" lon="6.79765">
        <ele>856.104004</ele>
        <time>2019-08-16T14:43:55Z</time>
      </trkpt>
      <trkpt lat="47.97757" lon="6.7976">
        <ele>856.322754</ele>
        <time>2019-08-16T14:43:56Z</time>
      </trkpt>
      <trkpt lat="47.97757" lon="6.79754">
        <ele>856.500549</ele>
        <time>2019-08-16T14:43:57Z</time>
      </trkpt>
      <trkpt lat="47.97757" lon="6.79748">
        <ele>856.629944</ele>
        <time>2019-08-16T14:43:58Z</time>
      </trkpt>
      <trkpt lat="47.97758" lon="6.79743">
        <ele>856.699463</ele>
        <time>2019-08-16T14:43:59Z</time>
      </trkpt>
      <trkpt lat="47.9776" lon="6.79737">
        <ele>856.707031</ele>
        <time>2019-08-16T14:44:00Z</time>
      </trkpt>
      <trkpt lat="47.97762" lon="6.79732">
        <ele>856.696533</ele>
        <time>2019-08-16T14:44:01Z</time>
      </trkpt>
      <trkpt lat="47.97763" lon="6.79726">
        <ele>856.62915</ele>
        <time>2019-08-16T14:44:02Z</time>
      </trkpt>
      <trkpt lat="47.97765" lon="6.79721">
        <ele>856.455078</ele>
        <time>2019-08-16T14:44:03Z</time>
      </trkpt>
      <trkpt lat="47.97767" lon="6.79716">
        <ele>856.327942</ele>
        <time>2019-08-16T14:44:04Z</time>
      </trkpt>
      <trkpt lat="47.97769" lon="6.7971">
        <ele>856.206116</ele>
        <time>2019-08-16T14:44:05Z</time>
      </trkpt>
      <trkpt lat="47.97772" lon="6.79705">
        <ele>856.10083</ele>
        <time>2019-08-16T14:44:06Z</time>
      </trkpt>
      <trkpt lat="47.97775" lon="6.797">
        <ele>856.005615</ele>
        <time>2019-08-16T14:44:07Z</time>
      </trkpt>
      <trkpt lat="47.97778" lon="6.79694">
        <ele>855.913391</ele>
        <time>2019-08-16T14:44:08Z</time>
      </trkpt>
      <trkpt lat="47.97781" lon="6.79688">
        <ele>855.76825</ele>
        <time>2019-08-16T14:44:09Z</time>
      </trkpt>
      <trkpt lat="47.97785" lon="6.79681">
        <ele>855.667053</ele>
        <time>2019-08-16T14:44:10Z</time>
      </trkpt>
      <trkpt lat="47.97788" lon="6.79674">
        <ele>855.554993</ele>
        <time>2019-08-16T14:44:11Z</time>
      </trkpt>
      <trkpt lat="47.97792" lon="6.79666">
        <ele>855.427551</ele>
        <time>2019-08-16T14:44:12Z</time>
      </trkpt>
      <trkpt lat="47.97796" lon="6.79659">
        <ele>855.190857</ele>
        <time>2019-08-16T14:44:13Z</time>
      </trkpt>
      <trkpt lat="47.978" lon="6.79652">
        <ele>854.989441</ele>
        <time>2019-08-16T14:44:14Z</time>
      </trkpt>
      <trkpt lat="47.97805" lon="6.79646">
        <ele>854.740417</ele>
        <time>2019-08-16T14:44:15Z</time>
      </trkpt>
      <trkpt lat="47.97809" lon="6.79639">
        <ele>854.262268</ele>
        <time>2019-08-16T14:44:16Z</time>
      </trkpt>
      <trkpt lat="47.97813" lon="6.79634">
        <ele>853.883789</ele>
        <time>2019-08-16T14:44:17Z</time>
      </trkpt>
      <trkpt lat="47.97817" lon="6.79629">
        <ele>853.473938</ele>
        <time>2019-08-16T14:44:18Z</time>
      </trkpt>
      <trkpt lat="47.97821" lon="6.79623">
        <ele>853.050781</ele>
        <time>2019-08-16T14:44:19Z</time>
      </trkpt>
      <trkpt lat="47.97825" lon="6.79616">
        <ele>852.628113</ele>
        <time>2019-08-16T14:44:20Z</time>
      </trkpt>
      <trkpt lat="47.97828" lon="6.79608">
        <ele>852.218018</ele>
        <time>2019-08-16T14:44:21Z</time>
      </trkpt>
      <trkpt lat="47.97833" lon="6.796">
        <ele>851.631897</ele>
        <time>2019-08-16T14:44:22Z</time>
      </trkpt>
      <trkpt lat="47.97837" lon="6.79593">
        <ele>851.248291</ele>
        <time>2019-08-16T14:44:23Z</time>
      </trkpt>
      <trkpt lat="47.97842" lon="6.79586">
        <ele>850.862854</ele>
        <time>2019-08-16T14:44:24Z</time>
      </trkpt>
      <trkpt lat="47.97846" lon="6.79579">
        <ele>850.458252</ele>
        <time>2019-08-16T14:44:25Z</time>
      </trkpt>
      <trkpt lat="47.9785" lon="6.79573">
        <ele>850.018127</ele>
        <time>2019-08-16T14:44:26Z</time>
      </trkpt>
      <trkpt lat="47.97855" lon="6.79567">
        <ele>849.530518</ele>
        <time>2019-08-16T14:44:27Z</time>
      </trkpt>
      <trkpt lat="47.97859" lon="6.7956">
        <ele>848.749756</ele>
        <time>2019-08-16T14:44:28Z</time>
      </trkpt>
      <trkpt lat="47.97862" lon="6.79553">
        <ele>848.243164</ele>
        <time>2019-08-16T14:44:29Z</time>
      </trkpt>
      <trkpt lat="47.97866" lon="6.79546">
        <ele>847.770325</ele>
        <time>2019-08-16T14:44:30Z</time>
      </trkpt>
      <trkpt lat="47.9787" lon="6.79539">
        <ele>847.337219</ele>
        <time>2019-08-16T14:44:31Z</time>
      </trkpt>
      <trkpt lat="47.97873" lon="6.79533">
        <ele>846.937439</ele>
        <time>2019-08-16T14:44:32Z</time>
      </trkpt>
      <trkpt lat="47.97876" lon="6.79526">
        <ele>846.406311</ele>
        <time>2019-08-16T14:44:33Z</time>
      </trkpt>
      <trkpt lat="47.97879" lon="6.79519">
        <ele>846.095032</ele>
        <time>2019-08-16T14:44:34Z</time>
      </trkpt>
      <trkpt lat="47.97881" lon="6.79511">
        <ele>845.791687</ele>
        <time>2019-08-16T14:44:35Z</time>
      </trkpt>
      <trkpt lat="47.97884" lon="6.79503">
        <ele>845.480286</ele>
        <time>2019-08-16T14:44:36Z</time>
      </trkpt>
      <trkpt lat="47.97886" lon="6.79495">
        <ele>845.152527</ele>
        <time>2019-08-16T14:44:37Z</time>
      </trkpt>
      <trkpt lat="47.97887" lon="6.79486">
        <ele>844.819519</ele>
        <time>2019-08-16T14:44:38Z</time>
      </trkpt>
      <trkpt lat="47.97887" lon="6.79476">
        <ele>844.479675</ele>
        <time>2019-08-16T14:44:39Z</time>
      </trkpt>
      <trkpt lat="47.97887" lon="6.79468">
        <ele>844.119324</ele>
        <time>2019-08-16T14:44:40Z</time>
      </trkpt>
      <trkpt lat="47.97887" lon="6.7946">
        <ele>843.721497</ele>
        <time>2019-08-16T14:44:41Z</time>
      </trkpt>
      <trkpt lat="47.97888" lon="6.79452">
        <ele>843.283936</ele>
        <time>2019-08-16T14:44:42Z</time>
      </trkpt>
      <trkpt lat="47.97888" lon="6.79445">
        <ele>842.802551</ele>
        <time>2019-08-16T14:44:43Z</time>
      </trkpt>
      <trkpt lat="47.97887" lon="6.79438">
        <ele>842.279846</ele>
        <time>2019-08-16T14:44:44Z</time>
      </trkpt>
      <trkpt lat="47.97886" lon="6.7943">
        <ele>841.723816</ele>
        <time>2019-08-16T14:44:45Z</time>
      </trkpt>
      <trkpt lat="47.97886" lon="6.79423">
        <ele>841.142029</ele>
        <time>2019-08-16T14:44:46Z</time>
      </trkpt>
      <trkpt lat="47.97886" lon="6.79417">
        <ele>840.562012</ele>
        <time>2019-08-16T14:44:47Z</time>
      </trkpt>
      <trkpt lat="47.97887" lon="6.79412">
        <ele>840.281921</ele>
        <time>2019-08-16T14:44:48Z</time>
      </trkpt>
      <trkpt lat="47.97889" lon="6.79408">
        <ele>840.013611</ele>
        <time>2019-08-16T14:44:49Z</time>
      </trkpt>
      <trkpt lat="47.97891" lon="6.79404">
        <ele>839.523621</ele>
        <time>2019-08-16T14:44:50Z</time>
      </trkpt>
      <trkpt lat="47.97892" lon="6.79401">
        <ele>839.102356</ele>
        <time>2019-08-16T14:44:51Z</time>
      </trkpt>
      <trkpt lat="47.97892" lon="6.79398">
        <ele>838.74762</ele>
        <time>2019-08-16T14:44:52Z</time>
      </trkpt>
      <trkpt lat="47.97892" lon="6.79394">
        <ele>838.466309</ele>
        <time>2019-08-16T14:44:53Z</time>
      </trkpt>
      <trkpt lat="47.97893" lon="6.79391">
        <ele>838.263428</ele>
        <time>2019-08-16T14:44:54Z</time>
      </trkpt>
      <trkpt lat="47.97892" lon="6.79387">
        <ele>838.165222</ele>
        <time>2019-08-16T14:44:55Z</time>
      </trkpt>
      <trkpt lat="47.97891" lon="6.79384">
        <ele>838.157166</ele>
        <time>2019-08-16T14:44:56Z</time>
      </trkpt>
      <trkpt lat="47.97891" lon="6.79381">
        <ele>838.175293</ele>
        <time>2019-08-16T14:44:57Z</time>
      </trkpt>
      <trkpt lat="47.97891" lon="6.79378">
        <ele>838.278748</ele>
        <time>2019-08-16T14:44:58Z</time>
      </trkpt>
      <trkpt lat="47.97891" lon="6.79375">
        <ele>838.430725</ele>
        <time>2019-08-16T14:44:59Z</time>
      </trkpt>
      <trkpt lat="47.97891" lon="6.79372">
        <ele>838.607971</ele>
        <time>2019-08-16T14:45:00Z</time>
      </trkpt>
      <trkpt lat="47.9789" lon="6.79369">
        <ele>838.801208</ele>
        <time>2019-08-16T14:45:01Z</time>
      </trkpt>
      <trkpt lat="47.97889" lon="6.79366">
        <ele>839.003113</ele>
        <time>2019-08-16T14:45:02Z</time>
      </trkpt>
      <trkpt lat="47.97888" lon="6.79363">
        <ele>839.212402</ele>
        <time>2019-08-16T14:45:03Z</time>
      </trkpt>
      <trkpt lat="47.97887" lon="6.7936">
        <ele>839.531067</ele>
        <time>2019-08-16T14:45:04Z</time>
      </trkpt>
      <trkpt lat="47.97887" lon="6.79358">
        <ele>839.740784</ele>
        <time>2019-08-16T14:45:05Z</time>
      </trkpt>
      <trkpt lat="47.97887" lon="6.79355">
        <ele>839.944824</ele>
        <time>2019-08-16T14:45:06Z</time>
      </trkpt>
      <trkpt lat="47.97887" lon="6.79352">
        <ele>840.139648</ele>
        <time>2019-08-16T14:45:07Z</time>
      </trkpt>
      <trkpt lat="47.97886" lon="6.79349">
        <ele>840.321106</ele>
        <time>2019-08-16T14:45:08Z</time>
      </trkpt>
      <trkpt lat="47.97886" lon="6.79346">
        <ele>840.489563</ele>
        <time>2019-08-16T14:45:09Z</time>
      </trkpt>
      <trkpt lat="47.97886" lon="6.79344">
        <ele>840.650452</ele>
        <time>2019-08-16T14:45:10Z</time>
      </trkpt>
      <trkpt lat="47.97885" lon="6.79341">
        <ele>840.8125</ele>
        <time>2019-08-16T14:45:11Z</time>
      </trkpt>
      <trkpt lat="47.97886" lon="6.79338">
        <ele>840.981018</ele>
        <time>2019-08-16T14:45:12Z</time>
      </trkpt>
      <trkpt lat="47.97886" lon="6.79336">
        <ele>841.163269</ele>
        <time>2019-08-16T14:45:13Z</time>
      </trkpt>
      <trkpt lat="47.97886" lon="6.79333">
        <ele>841.359924</ele>
        <time>2019-08-16T14:45:14Z</time>
      </trkpt>
      <trkpt lat="47.97886" lon="6.7933">
        <ele>841.67804</ele>
        <time>2019-08-16T14:45:15Z</time>
      </trkpt>
      <trkpt lat="47.97886" lon="6.79328">
        <ele>841.900085</ele>
        <time>2019-08-16T14:45:16Z</time>
      </trkpt>
      <trkpt lat="47.97887" lon="6.79325">
        <ele>842.120911</ele>
        <time>2019-08-16T14:45:17Z</time>
      </trkpt>
      <trkpt lat="47.97887" lon="6.79322">
        <ele>842.431152</ele>
        <time>2019-08-16T14:45:18Z</time>
      </trkpt>
      <trkpt lat="47.97887" lon="6.7932">
        <ele>842.621887</ele>
        <time>2019-08-16T14:45:19Z</time>
      </trkpt>
      <trkpt lat="47.97887" lon="6.79317">
        <ele>842.806946</ele>
        <time>2019-08-16T14:45:20Z</time>
      </trkpt>
      <trkpt lat="47.97888" lon="6.79314">
        <ele>842.995605</ele>
        <time>2019-08-16T14:45:21Z</time>
      </trkpt>
      <trkpt lat="47.97888" lon="6.79311">
        <ele>843.185852</ele>
        <time>2019-08-16T14:45:22Z</time>
      </trkpt>
      <trkpt lat="47.97889" lon="6.79308">
        <ele>843.370911</ele>
        <time>2019-08-16T14:45:23Z</time>
      </trkpt>
      <trkpt lat="47.9789" lon="6.79305">
        <ele>843.546692</ele>
        <time>2019-08-16T14:45:24Z</time>
      </trkpt>
      <trkpt lat="47.97891" lon="6.79302">
        <ele>843.713196</ele>
        <time>2019-08-16T14:45:25Z</time>
      </trkpt>
      <trkpt lat="47.97891" lon="6.793">
        <ele>843.875244</ele>
        <time>2019-08-16T14:45:26Z</time>
      </trkpt>
      <trkpt lat="47.97892" lon="6.79297">
        <ele>844.036621</ele>
        <time>2019-08-16T14:45:27Z</time>
      </trkpt>
      <trkpt lat="47.97893" lon="6.79294">
        <ele>844.199463</ele>
        <time>2019-08-16T14:45:28Z</time>
      </trkpt>
      <trkpt lat="47.97894" lon="6.79292">
        <ele>844.365417</ele>
        <time>2019-08-16T14:45:29Z</time>
      </trkpt>
      <trkpt lat="47.97895" lon="6.7929">
        <ele>844.533936</ele>
        <time>2019-08-16T14:45:30Z</time>
      </trkpt>
      <trkpt lat="47.97897" lon="6.79288">
        <ele>844.796936</ele>
        <time>2019-08-16T14:45:31Z</time>
      </trkpt>
      <trkpt lat="47.97898" lon="6.79285">
        <ele>844.974426</ele>
        <time>2019-08-16T14:45:32Z</time>
      </trkpt>
      <trkpt lat="47.979" lon="6.79283">
        <ele>845.151184</ele>
        <time>2019-08-16T14:45:33Z</time>
      </trkpt>
      <trkpt lat="47.97901" lon="6.79282">
        <ele>845.323425</ele>
        <time>2019-08-16T14:45:34Z</time>
      </trkpt>
      <trkpt lat="47.97903" lon="6.7928">
        <ele>845.494202</ele>
        <time>2019-08-16T14:45:35Z</time>
      </trkpt>
      <trkpt lat="47.97904" lon="6.79278">
        <ele>845.749023</ele>
        <time>2019-08-16T14:45:36Z</time>
      </trkpt>
      <trkpt lat="47.97905" lon="6.79276">
        <ele>845.923645</ele>
        <time>2019-08-16T14:45:37Z</time>
      </trkpt>
      <trkpt lat="47.97906" lon="6.79275">
        <ele>846.105164</ele>
        <time>2019-08-16T14:45:38Z</time>
      </trkpt>
      <trkpt lat="47.97907" lon="6.79274">
        <ele>846.291992</ele>
        <time>2019-08-16T14:45:39Z</time>
      </trkpt>
      <trkpt lat="47.97907" lon="6.79273">
        <ele>846.475342</ele>
        <time>2019-08-16T14:45:40Z</time>
      </trkpt>
      <trkpt lat="47.97907" lon="6.79271">
        <ele>846.722168</ele>
        <time>2019-08-16T14:45:41Z</time>
      </trkpt>
      <trkpt lat="47.97907" lon="6.7927">
        <ele>846.866028</ele>
        <time>2019-08-16T14:45:42Z</time>
      </trkpt>
      <trkpt lat="47.97906" lon="6.79268">
        <ele>846.991882</ele>
        <time>2019-08-16T14:45:43Z</time>
      </trkpt>
      <trkpt lat="47.97905" lon="6.79267">
        <ele>847.096436</ele>
        <time>2019-08-16T14:45:44Z</time>
      </trkpt>
      <trkpt lat="47.97903" lon="6.79254">
        <ele>847.476746</ele>
        <time>2019-08-16T14:47:27Z</time>
      </trkpt>
      <trkpt lat="47.97902" lon="6.7925">
        <ele>847.468079</ele>
        <time>2019-08-16T14:47:29Z</time>
      </trkpt>
      <trkpt lat="47.97902" lon="6.79246">
        <ele>847.466797</ele>
        <time>2019-08-16T14:47:30Z</time>
      </trkpt>
      <trkpt lat="47.97901" lon="6.79243">
        <ele>847.470215</ele>
        <time>2019-08-16T14:47:31Z</time>
      </trkpt>
      <trkpt lat="47.979" lon="6.79239">
        <ele>847.492188</ele>
        <time>2019-08-16T14:47:32Z</time>
      </trkpt>
      <trkpt lat="47.979" lon="6.79235">
        <ele>847.52832</ele>
        <time>2019-08-16T14:47:33Z</time>
      </trkpt>
      <trkpt lat="47.979" lon="6.79231">
        <ele>847.57074</ele>
        <time>2019-08-16T14:47:34Z</time>
      </trkpt>
      <trkpt lat="47.97899" lon="6.79228">
        <ele>847.614319</ele>
        <time>2019-08-16T14:47:35Z</time>
      </trkpt>
      <trkpt lat="47.97899" lon="6.79224">
        <ele>847.658752</ele>
        <time>2019-08-16T14:47:36Z</time>
      </trkpt>
      <trkpt lat="47.97898" lon="6.7922">
        <ele>847.713806</ele>
        <time>2019-08-16T14:47:37Z</time>
      </trkpt>
      <trkpt lat="47.97897" lon="6.79217">
        <ele>847.785156</ele>
        <time>2019-08-16T14:47:38Z</time>
      </trkpt>
      <trkpt lat="47.97897" lon="6.79214">
        <ele>847.870667</ele>
        <time>2019-08-16T14:47:39Z</time>
      </trkpt>
      <trkpt lat="47.97897" lon="6.79211">
        <ele>847.962341</ele>
        <time>2019-08-16T14:47:40Z</time>
      </trkpt>
      <trkpt lat="47.97896" lon="6.79208">
        <ele>848.054016</ele>
        <time>2019-08-16T14:47:41Z</time>
      </trkpt>
      <trkpt lat="47.97895" lon="6.79205">
        <ele>848.147217</ele>
        <time>2019-08-16T14:47:42Z</time>
      </trkpt>
      <trkpt lat="47.97894" lon="6.79203">
        <ele>848.239685</ele>
        <time>2019-08-16T14:47:43Z</time>
      </trkpt>
      <trkpt lat="47.97894" lon="6.79201">
        <ele>848.334717</ele>
        <time>2019-08-16T14:47:44Z</time>
      </trkpt>
      <trkpt lat="47.97893" lon="6.79198">
        <ele>848.430725</ele>
        <time>2019-08-16T14:47:45Z</time>
      </trkpt>
      <trkpt lat="47.97892" lon="6.79195">
        <ele>848.533875</ele>
        <time>2019-08-16T14:47:46Z</time>
      </trkpt>
      <trkpt lat="47.97891" lon="6.79192">
        <ele>848.652588</ele>
        <time>2019-08-16T14:47:47Z</time>
      </trkpt>
      <trkpt lat="47.97891" lon="6.7919">
        <ele>848.791443</ele>
        <time>2019-08-16T14:47:48Z</time>
      </trkpt>
      <trkpt lat="47.97889" lon="6.79187">
        <ele>848.867859</ele>
        <time>2019-08-16T14:47:49Z</time>
      </trkpt>
      <trkpt lat="47.97888" lon="6.79185">
        <ele>848.948975</ele>
        <time>2019-08-16T14:47:50Z</time>
      </trkpt>
      <trkpt lat="47.97887" lon="6.79182">
        <ele>849.0354</ele>
        <time>2019-08-16T14:47:51Z</time>
      </trkpt>
      <trkpt lat="47.97886" lon="6.79179">
        <ele>849.226807</ele>
        <time>2019-08-16T14:47:52Z</time>
      </trkpt>
      <trkpt lat="47.97885" lon="6.79177">
        <ele>849.567566</ele>
        <time>2019-08-16T14:47:53Z</time>
      </trkpt>
      <trkpt lat="47.97885" lon="6.79174">
        <ele>849.828552</ele>
        <time>2019-08-16T14:47:54Z</time>
      </trkpt>
      <trkpt lat="47.97884" lon="6.79171">
        <ele>850.112549</ele>
        <time>2019-08-16T14:47:55Z</time>
      </trkpt>
      <trkpt lat="47.97883" lon="6.79169">
        <ele>850.576599</ele>
        <time>2019-08-16T14:47:56Z</time>
      </trkpt>
      <trkpt lat="47.97881" lon="6.79168">
        <ele>850.901367</ele>
        <time>2019-08-16T14:47:57Z</time>
      </trkpt>
      <trkpt lat="47.97879" lon="6.79166">
        <ele>851.224365</ele>
        <time>2019-08-16T14:47:58Z</time>
      </trkpt>
      <trkpt lat="47.97878" lon="6.79165">
        <ele>851.701355</ele>
        <time>2019-08-16T14:47:59Z</time>
      </trkpt>
      <trkpt lat="47.97878" lon="6.79163">
        <ele>852.012878</ele>
        <time>2019-08-16T14:48:00Z</time>
      </trkpt>
      <trkpt lat="47.97877" lon="6.7916">
        <ele>852.316956</ele>
        <time>2019-08-16T14:48:01Z</time>
      </trkpt>
      <trkpt lat="47.97876" lon="6.79158">
        <ele>852.612122</ele>
        <time>2019-08-16T14:48:02Z</time>
      </trkpt>
      <trkpt lat="47.97875" lon="6.79156">
        <ele>853.029297</ele>
        <time>2019-08-16T14:48:03Z</time>
      </trkpt>
      <trkpt lat="47.97874" lon="6.79153">
        <ele>853.277161</ele>
        <time>2019-08-16T14:48:04Z</time>
      </trkpt>
      <trkpt lat="47.97874" lon="6.79151">
        <ele>853.488831</ele>
        <time>2019-08-16T14:48:05Z</time>
      </trkpt>
      <trkpt lat="47.97873" lon="6.79148">
        <ele>853.66156</ele>
        <time>2019-08-16T14:48:06Z</time>
      </trkpt>
      <trkpt lat="47.97872" lon="6.79145">
        <ele>853.80249</ele>
        <time>2019-08-16T14:48:07Z</time>
      </trkpt>
      <trkpt lat="47.97871" lon="6.79143">
        <ele>853.915955</ele>
        <time>2019-08-16T14:48:08Z</time>
      </trkpt>
      <trkpt lat="47.97871" lon="6.7914">
        <ele>854.003845</ele>
        <time>2019-08-16T14:48:09Z</time>
      </trkpt>
      <trkpt lat="47.9787" lon="6.79138">
        <ele>854.066162</ele>
        <time>2019-08-16T14:48:10Z</time>
      </trkpt>
      <trkpt lat="47.9787" lon="6.79135">
        <ele>854.129578</ele>
        <time>2019-08-16T14:48:11Z</time>
      </trkpt>
      <trkpt lat="47.97869" lon="6.79133">
        <ele>854.169617</ele>
        <time>2019-08-16T14:48:12Z</time>
      </trkpt>
      <trkpt lat="47.97868" lon="6.79131">
        <ele>854.216248</ele>
        <time>2019-08-16T14:48:13Z</time>
      </trkpt>
      <trkpt lat="47.97867" lon="6.79129">
        <ele>854.273132</ele>
        <time>2019-08-16T14:48:14Z</time>
      </trkpt>
      <trkpt lat="47.97866" lon="6.79126">
        <ele>854.340088</ele>
        <time>2019-08-16T14:48:15Z</time>
      </trkpt>
      <trkpt lat="47.97865" lon="6.79124">
        <ele>854.465881</ele>
        <time>2019-08-16T14:48:16Z</time>
      </trkpt>
      <trkpt lat="47.97864" lon="6.79122">
        <ele>854.565125</ele>
        <time>2019-08-16T14:48:17Z</time>
      </trkpt>
      <trkpt lat="47.97864" lon="6.7912">
        <ele>854.677551</ele>
        <time>2019-08-16T14:48:18Z</time>
      </trkpt>
      <trkpt lat="47.97863" lon="6.79117">
        <ele>854.796448</ele>
        <time>2019-08-16T14:48:19Z</time>
      </trkpt>
      <trkpt lat="47.97862" lon="6.79115">
        <ele>854.921143</ele>
        <time>2019-08-16T14:48:20Z</time>
      </trkpt>
      <trkpt lat="47.97861" lon="6.79113">
        <ele>855.117188</ele>
        <time>2019-08-16T14:48:21Z</time>
      </trkpt>
      <trkpt lat="47.9786" lon="6.79111">
        <ele>855.257996</ele>
        <time>2019-08-16T14:48:22Z</time>
      </trkpt>
      <trkpt lat="47.97858" lon="6.79109">
        <ele>855.401062</ele>
        <time>2019-08-16T14:48:23Z</time>
      </trkpt>
      <trkpt lat="47.97858" lon="6.79107">
        <ele>855.54834</ele>
        <time>2019-08-16T14:48:24Z</time>
      </trkpt>
      <trkpt lat="47.97857" lon="6.79105">
        <ele>855.776062</ele>
        <time>2019-08-16T14:48:25Z</time>
      </trkpt>
      <trkpt lat="47.97856" lon="6.79103">
        <ele>855.933044</ele>
        <time>2019-08-16T14:48:26Z</time>
      </trkpt>
      <trkpt lat="47.97855" lon="6.791">
        <ele>856.09613</ele>
        <time>2019-08-16T14:48:27Z</time>
      </trkpt>
      <trkpt lat="47.97855" lon="6.79098">
        <ele>856.359192</ele>
        <time>2019-08-16T14:48:28Z</time>
      </trkpt>
      <trkpt lat="47.97854" lon="6.79096">
        <ele>856.547424</ele>
        <time>2019-08-16T14:48:29Z</time>
      </trkpt>
      <trkpt lat="47.97853" lon="6.79094">
        <ele>856.744202</ele>
        <time>2019-08-16T14:48:30Z</time>
      </trkpt>
      <trkpt lat="47.97852" lon="6.79091">
        <ele>856.94635</ele>
        <time>2019-08-16T14:48:31Z</time>
      </trkpt>
      <trkpt lat="47.97851" lon="6.79089">
        <ele>857.137634</ele>
        <time>2019-08-16T14:48:32Z</time>
      </trkpt>
      <trkpt lat="47.9785" lon="6.79087">
        <ele>857.308838</ele>
        <time>2019-08-16T14:48:33Z</time>
      </trkpt>
      <trkpt lat="47.97849" lon="6.79084">
        <ele>857.455261</ele>
        <time>2019-08-16T14:48:34Z</time>
      </trkpt>
      <trkpt lat="47.97849" lon="6.79082">
        <ele>857.585388</ele>
        <time>2019-08-16T14:48:35Z</time>
      </trkpt>
      <trkpt lat="47.97848" lon="6.7908">
        <ele>857.755554</ele>
        <time>2019-08-16T14:48:36Z</time>
      </trkpt>
      <trkpt lat="47.97847" lon="6.79077">
        <ele>857.851624</ele>
        <time>2019-08-16T14:48:37Z</time>
      </trkpt>
      <trkpt lat="47.97847" lon="6.79075">
        <ele>857.936584</ele>
        <time>2019-08-16T14:48:38Z</time>
      </trkpt>
      <trkpt lat="47.97846" lon="6.79073">
        <ele>858.017578</ele>
        <time>2019-08-16T14:48:39Z</time>
      </trkpt>
      <trkpt lat="47.97846" lon="6.79071">
        <ele>858.099304</ele>
        <time>2019-08-16T14:48:40Z</time>
      </trkpt>
      <trkpt lat="47.97845" lon="6.79069">
        <ele>858.190369</ele>
        <time>2019-08-16T14:48:41Z</time>
      </trkpt>
      <trkpt lat="47.97845" lon="6.79067">
        <ele>858.290527</ele>
        <time>2019-08-16T14:48:42Z</time>
      </trkpt>
      <trkpt lat="47.97845" lon="6.79064">
        <ele>858.403137</ele>
        <time>2019-08-16T14:48:43Z</time>
      </trkpt>
      <trkpt lat="47.97845" lon="6.79062">
        <ele>858.524414</ele>
        <time>2019-08-16T14:48:44Z</time>
      </trkpt>
      <trkpt lat="47.97845" lon="6.7906">
        <ele>858.662598</ele>
        <time>2019-08-16T14:48:45Z</time>
      </trkpt>
      <trkpt lat="47.97846" lon="6.79058">
        <ele>858.819275</ele>
        <time>2019-08-16T14:48:46Z</time>
      </trkpt>
      <trkpt lat="47.97845" lon="6.79056">
        <ele>858.99762</ele>
        <time>2019-08-16T14:48:47Z</time>
      </trkpt>
      <trkpt lat="47.97845" lon="6.79054">
        <ele>859.192322</ele>
        <time>2019-08-16T14:48:48Z</time>
      </trkpt>
      <trkpt lat="47.97845" lon="6.79052">
        <ele>859.293884</ele>
        <time>2019-08-16T14:48:49Z</time>
      </trkpt>
      <trkpt lat="47.97845" lon="6.7905">
        <ele>859.397949</ele>
        <time>2019-08-16T14:48:50Z</time>
      </trkpt>
      <trkpt lat="47.97845" lon="6.79048">
        <ele>859.616394</ele>
        <time>2019-08-16T14:48:51Z</time>
      </trkpt>
      <trkpt lat="47.97845" lon="6.79045">
        <ele>859.84906</ele>
        <time>2019-08-16T14:48:52Z</time>
      </trkpt>
      <trkpt lat="47.97845" lon="6.79043">
        <ele>860.092102</ele>
        <time>2019-08-16T14:48:53Z</time>
      </trkpt>
      <trkpt lat="47.97844" lon="6.79041">
        <ele>860.333984</ele>
        <time>2019-08-16T14:48:54Z</time>
      </trkpt>
      <trkpt lat="47.97844" lon="6.79038">
        <ele>860.571289</ele>
        <time>2019-08-16T14:48:55Z</time>
      </trkpt>
      <trkpt lat="47.97844" lon="6.79036">
        <ele>860.812805</ele>
        <time>2019-08-16T14:48:56Z</time>
      </trkpt>
      <trkpt lat="47.97844" lon="6.79035">
        <ele>861.066956</ele>
        <time>2019-08-16T14:48:57Z</time>
      </trkpt>
      <trkpt lat="47.97844" lon="6.79033">
        <ele>861.328125</ele>
        <time>2019-08-16T14:48:58Z</time>
      </trkpt>
      <trkpt lat="47.97844" lon="6.79031">
        <ele>861.585022</ele>
        <time>2019-08-16T14:48:59Z</time>
      </trkpt>
      <trkpt lat="47.97844" lon="6.79029">
        <ele>861.834045</ele>
        <time>2019-08-16T14:49:00Z</time>
      </trkpt>
      <trkpt lat="47.97844" lon="6.79027">
        <ele>862.075867</ele>
        <time>2019-08-16T14:49:01Z</time>
      </trkpt>
      <trkpt lat="47.97843" lon="6.79027">
        <ele>862.653809</ele>
        <time>2019-08-16T14:49:02Z</time>
      </trkpt>
      <trkpt lat="47.97843" lon="6.79025">
        <ele>862.868591</ele>
        <time>2019-08-16T14:49:04Z</time>
      </trkpt>
      <trkpt lat="47.97843" lon="6.79023">
        <ele>863.073486</ele>
        <time>2019-08-16T14:49:05Z</time>
      </trkpt>
      <trkpt lat="47.97842" lon="6.79021">
        <ele>863.276794</ele>
        <time>2019-08-16T14:49:06Z</time>
      </trkpt>
      <trkpt lat="47.97842" lon="6.79018">
        <ele>863.483582</ele>
        <time>2019-08-16T14:49:07Z</time>
      </trkpt>
      <trkpt lat="47.97841" lon="6.79016">
        <ele>863.694824</ele>
        <time>2019-08-16T14:49:08Z</time>
      </trkpt>
      <trkpt lat="47.97841" lon="6.79014">
        <ele>863.905212</ele>
        <time>2019-08-16T14:49:09Z</time>
      </trkpt>
      <trkpt lat="47.97841" lon="6.79012">
        <ele>864.114197</ele>
        <time>2019-08-16T14:49:10Z</time>
      </trkpt>
      <trkpt lat="47.9784" lon="6.7901">
        <ele>864.324402</ele>
        <time>2019-08-16T14:49:11Z</time>
      </trkpt>
      <trkpt lat="47.97839" lon="6.79009">
        <ele>864.533447</ele>
        <time>2019-08-16T14:49:12Z</time>
      </trkpt>
      <trkpt lat="47.97838" lon="6.79007">
        <ele>864.743408</ele>
        <time>2019-08-16T14:49:13Z</time>
      </trkpt>
      <trkpt lat="47.97837" lon="6.79004">
        <ele>865.051758</ele>
        <time>2019-08-16T14:49:14Z</time>
      </trkpt>
      <trkpt lat="47.97837" lon="6.79002">
        <ele>865.250977</ele>
        <time>2019-08-16T14:49:15Z</time>
      </trkpt>
      <trkpt lat="47.97836" lon="6.78999">
        <ele>865.445007</ele>
        <time>2019-08-16T14:49:16Z</time>
      </trkpt>
      <trkpt lat="47.97835" lon="6.78996">
        <ele>865.632019</ele>
        <time>2019-08-16T14:49:17Z</time>
      </trkpt>
      <trkpt lat="47.97834" lon="6.78993">
        <ele>865.802673</ele>
        <time>2019-08-16T14:49:18Z</time>
      </trkpt>
      <trkpt lat="47.97833" lon="6.7899">
        <ele>865.946533</ele>
        <time>2019-08-16T14:49:19Z</time>
      </trkpt>
      <trkpt lat="47.97832" lon="6.78987">
        <ele>866.112</ele>
        <time>2019-08-16T14:49:20Z</time>
      </trkpt>
      <trkpt lat="47.97831" lon="6.78984">
        <ele>866.191223</ele>
        <time>2019-08-16T14:49:21Z</time>
      </trkpt>
      <trkpt lat="47.9783" lon="6.7898">
        <ele>866.243347</ele>
        <time>2019-08-16T14:49:22Z</time>
      </trkpt>
      <trkpt lat="47.97829" lon="6.78977">
        <ele>866.260681</ele>
        <time>2019-08-16T14:49:23Z</time>
      </trkpt>
      <trkpt lat="47.97828" lon="6.78975">
        <ele>866.257629</ele>
        <time>2019-08-16T14:49:24Z</time>
      </trkpt>
      <trkpt lat="47.97827" lon="6.78972">
        <ele>866.23114</ele>
        <time>2019-08-16T14:49:25Z</time>
      </trkpt>
      <trkpt lat="47.97826" lon="6.78969">
        <ele>866.196716</ele>
        <time>2019-08-16T14:49:26Z</time>
      </trkpt>
      <trkpt lat="47.97826" lon="6.78966">
        <ele>866.161072</ele>
        <time>2019-08-16T14:49:27Z</time>
      </trkpt>
      <trkpt lat="47.97825" lon="6.78964">
        <ele>866.12616</ele>
        <time>2019-08-16T14:49:28Z</time>
      </trkpt>
      <trkpt lat="47.97824" lon="6.78961">
        <ele>866.092957</ele>
        <time>2019-08-16T14:49:29Z</time>
      </trkpt>
      <trkpt lat="47.97823" lon="6.78958">
        <ele>866.075928</ele>
        <time>2019-08-16T14:49:30Z</time>
      </trkpt>
      <trkpt lat="47.97822" lon="6.78956">
        <ele>866.076355</ele>
        <time>2019-08-16T14:49:31Z</time>
      </trkpt>
      <trkpt lat="47.97822" lon="6.78953">
        <ele>866.096985</ele>
        <time>2019-08-16T14:49:32Z</time>
      </trkpt>
      <trkpt lat="47.97821" lon="6.7895">
        <ele>866.143372</ele>
        <time>2019-08-16T14:49:33Z</time>
      </trkpt>
      <trkpt lat="47.9782" lon="6.78948">
        <ele>866.204346</ele>
        <time>2019-08-16T14:49:34Z</time>
      </trkpt>
      <trkpt lat="47.9782" lon="6.78945">
        <ele>866.276306</ele>
        <time>2019-08-16T14:49:35Z</time>
      </trkpt>
      <trkpt lat="47.9782" lon="6.78942">
        <ele>866.360168</ele>
        <time>2019-08-16T14:49:36Z</time>
      </trkpt>
      <trkpt lat="47.97819" lon="6.7894">
        <ele>866.457092</ele>
        <time>2019-08-16T14:49:37Z</time>
      </trkpt>
      <trkpt lat="47.97819" lon="6.78937">
        <ele>866.565735</ele>
        <time>2019-08-16T14:49:38Z</time>
      </trkpt>
      <trkpt lat="47.97819" lon="6.78935">
        <ele>866.687561</ele>
        <time>2019-08-16T14:49:39Z</time>
      </trkpt>
      <trkpt lat="47.97819" lon="6.78933">
        <ele>866.822449</ele>
        <time>2019-08-16T14:49:40Z</time>
      </trkpt>
      <trkpt lat="47.97819" lon="6.7893">
        <ele>866.97467</ele>
        <time>2019-08-16T14:49:41Z</time>
      </trkpt>
      <trkpt lat="47.9782" lon="6.78928">
        <ele>867.139465</ele>
        <time>2019-08-16T14:49:42Z</time>
      </trkpt>
      <trkpt lat="47.97821" lon="6.78926">
        <ele>867.319824</ele>
        <time>2019-08-16T14:49:43Z</time>
      </trkpt>
      <trkpt lat="47.97822" lon="6.78925">
        <ele>867.515869</ele>
        <time>2019-08-16T14:49:44Z</time>
      </trkpt>
      <trkpt lat="47.97823" lon="6.78923">
        <ele>867.725037</ele>
        <time>2019-08-16T14:49:45Z</time>
      </trkpt>
      <trkpt lat="47.97824" lon="6.78922">
        <ele>867.93866</ele>
        <time>2019-08-16T14:49:46Z</time>
      </trkpt>
      <trkpt lat="47.97825" lon="6.78921">
        <ele>868.151184</ele>
        <time>2019-08-16T14:49:47Z</time>
      </trkpt>
      <trkpt lat="47.97825" lon="6.78919">
        <ele>868.362732</ele>
        <time>2019-08-16T14:49:48Z</time>
      </trkpt>
      <trkpt lat="47.97827" lon="6.78918">
        <ele>868.469482</ele>
        <time>2019-08-16T14:49:49Z</time>
      </trkpt>
      <trkpt lat="47.97828" lon="6.78917">
        <ele>868.578064</ele>
        <time>2019-08-16T14:49:50Z</time>
      </trkpt>
      <trkpt lat="47.97829" lon="6.78915">
        <ele>868.805176</ele>
        <time>2019-08-16T14:49:51Z</time>
      </trkpt>
      <trkpt lat="47.9783" lon="6.78914">
        <ele>869.051331</ele>
        <time>2019-08-16T14:49:52Z</time>
      </trkpt>
      <trkpt lat="47.97831" lon="6.78913">
        <ele>869.448425</ele>
        <time>2019-08-16T14:49:53Z</time>
      </trkpt>
      <trkpt lat="47.97832" lon="6.78912">
        <ele>869.722717</ele>
        <time>2019-08-16T14:49:54Z</time>
      </trkpt>
      <trkpt lat="47.97834" lon="6.7891">
        <ele>869.99884</ele>
        <time>2019-08-16T14:49:55Z</time>
      </trkpt>
      <trkpt lat="47.97835" lon="6.78909">
        <ele>870.265442</ele>
        <time>2019-08-16T14:49:56Z</time>
      </trkpt>
      <trkpt lat="47.97836" lon="6.78908">
        <ele>870.512024</ele>
        <time>2019-08-16T14:49:57Z</time>
      </trkpt>
      <trkpt lat="47.97837" lon="6.78906">
        <ele>870.733704</ele>
        <time>2019-08-16T14:49:58Z</time>
      </trkpt>
      <trkpt lat="47.97838" lon="6.78904">
        <ele>871.030823</ele>
        <time>2019-08-16T14:49:59Z</time>
      </trkpt>
      <trkpt lat="47.97839" lon="6.78903">
        <ele>871.211609</ele>
        <time>2019-08-16T14:50:00Z</time>
      </trkpt>
      <trkpt lat="47.9784" lon="6.78901">
        <ele>871.380371</ele>
        <time>2019-08-16T14:50:01Z</time>
      </trkpt>
      <trkpt lat="47.97841" lon="6.78899">
        <ele>871.61377</ele>
        <time>2019-08-16T14:50:02Z</time>
      </trkpt>
      <trkpt lat="47.97841" lon="6.78898">
        <ele>871.76532</ele>
        <time>2019-08-16T14:50:03Z</time>
      </trkpt>
      <trkpt lat="47.97842" lon="6.78896">
        <ele>871.92218</ele>
        <time>2019-08-16T14:50:04Z</time>
      </trkpt>
      <trkpt lat="47.97842" lon="6.78894">
        <ele>872.086426</ele>
        <time>2019-08-16T14:50:05Z</time>
      </trkpt>
      <trkpt lat="47.97843" lon="6.78892">
        <ele>872.338379</ele>
        <time>2019-08-16T14:50:06Z</time>
      </trkpt>
      <trkpt lat="47.97844" lon="6.7889">
        <ele>872.51416</ele>
        <time>2019-08-16T14:50:07Z</time>
      </trkpt>
      <trkpt lat="47.97844" lon="6.78889">
        <ele>872.700989</ele>
        <time>2019-08-16T14:50:08Z</time>
      </trkpt>
      <trkpt lat="47.97844" lon="6.78887">
        <ele>872.898499</ele>
        <time>2019-08-16T14:50:09Z</time>
      </trkpt>
      <trkpt lat="47.97844" lon="6.78885">
        <ele>873.097717</ele>
        <time>2019-08-16T14:50:10Z</time>
      </trkpt>
      <trkpt lat="47.97844" lon="6.78884">
        <ele>873.297668</ele>
        <time>2019-08-16T14:50:11Z</time>
      </trkpt>
      <trkpt lat="47.97845" lon="6.78882">
        <ele>873.501282</ele>
        <time>2019-08-16T14:50:12Z</time>
      </trkpt>
      <trkpt lat="47.97845" lon="6.78881">
        <ele>873.710205</ele>
        <time>2019-08-16T14:50:13Z</time>
      </trkpt>
      <trkpt lat="47.97846" lon="6.78879">
        <ele>873.920715</ele>
        <time>2019-08-16T14:50:14Z</time>
      </trkpt>
      <trkpt lat="47.97846" lon="6.78878">
        <ele>874.12793</ele>
        <time>2019-08-16T14:50:15Z</time>
      </trkpt>
      <trkpt lat="47.97846" lon="6.78876">
        <ele>874.336121</ele>
        <time>2019-08-16T14:50:16Z</time>
      </trkpt>
      <trkpt lat="47.97845" lon="6.78874">
        <ele>874.549744</ele>
        <time>2019-08-16T14:50:17Z</time>
      </trkpt>
      <trkpt lat="47.97845" lon="6.78872">
        <ele>874.764343</ele>
        <time>2019-08-16T14:50:18Z</time>
      </trkpt>
      <trkpt lat="47.97846" lon="6.7887">
        <ele>874.967529</ele>
        <time>2019-08-16T14:50:19Z</time>
      </trkpt>
      <trkpt lat="47.97846" lon="6.78868">
        <ele>875.158997</ele>
        <time>2019-08-16T14:50:20Z</time>
      </trkpt>
      <trkpt lat="47.97846" lon="6.78865">
        <ele>875.34967</ele>
        <time>2019-08-16T14:50:21Z</time>
      </trkpt>
      <trkpt lat="47.97846" lon="6.78864">
        <ele>875.554016</ele>
        <time>2019-08-16T14:50:22Z</time>
      </trkpt>
      <trkpt lat="47.97846" lon="6.78862">
        <ele>875.772278</ele>
        <time>2019-08-16T14:50:23Z</time>
      </trkpt>
      <trkpt lat="47.97846" lon="6.7886">
        <ele>876.001953</ele>
        <time>2019-08-16T14:50:24Z</time>
      </trkpt>
      <trkpt lat="47.97846" lon="6.78857">
        <ele>876.237854</ele>
        <time>2019-08-16T14:50:25Z</time>
      </trkpt>
      <trkpt lat="47.97846" lon="6.78854">
        <ele>876.476624</ele>
        <time>2019-08-16T14:50:26Z</time>
      </trkpt>
      <trkpt lat="47.97847" lon="6.78851">
        <ele>876.714661</ele>
        <time>2019-08-16T14:50:27Z</time>
      </trkpt>
      <trkpt lat="47.97848" lon="6.78848">
        <ele>876.95282</ele>
        <time>2019-08-16T14:50:28Z</time>
      </trkpt>
      <trkpt lat="47.97848" lon="6.78845">
        <ele>877.194824</ele>
        <time>2019-08-16T14:50:29Z</time>
      </trkpt>
      <trkpt lat="47.97849" lon="6.78843">
        <ele>877.443115</ele>
        <time>2019-08-16T14:50:30Z</time>
      </trkpt>
      <trkpt lat="47.9785" lon="6.78841">
        <ele>877.695984</ele>
        <time>2019-08-16T14:50:31Z</time>
      </trkpt>
      <trkpt lat="47.9785" lon="6.78839">
        <ele>877.951965</ele>
        <time>2019-08-16T14:50:32Z</time>
      </trkpt>
      <trkpt lat="47.9785" lon="6.78837">
        <ele>878.214355</ele>
        <time>2019-08-16T14:50:33Z</time>
      </trkpt>
      <trkpt lat="47.9785" lon="6.78834">
        <ele>878.479919</ele>
        <time>2019-08-16T14:50:34Z</time>
      </trkpt>
      <trkpt lat="47.9785" lon="6.78832">
        <ele>878.740173</ele>
        <time>2019-08-16T14:50:35Z</time>
      </trkpt>
      <trkpt lat="47.9785" lon="6.7883">
        <ele>878.984375</ele>
        <time>2019-08-16T14:50:36Z</time>
      </trkpt>
      <trkpt lat="47.9785" lon="6.78827">
        <ele>879.210876</ele>
        <time>2019-08-16T14:50:37Z</time>
      </trkpt>
      <trkpt lat="47.9785" lon="6.78825">
        <ele>879.426453</ele>
        <time>2019-08-16T14:50:38Z</time>
      </trkpt>
      <trkpt lat="47.9785" lon="6.78823">
        <ele>879.633362</ele>
        <time>2019-08-16T14:50:39Z</time>
      </trkpt>
      <trkpt lat="47.9785" lon="6.78821">
        <ele>879.922546</ele>
        <time>2019-08-16T14:50:40Z</time>
      </trkpt>
      <trkpt lat="47.97849" lon="6.78818">
        <ele>880.1026</ele>
        <time>2019-08-16T14:50:41Z</time>
      </trkpt>
      <trkpt lat="47.97849" lon="6.78816">
        <ele>880.276917</ele>
        <time>2019-08-16T14:50:42Z</time>
      </trkpt>
      <trkpt lat="47.97849" lon="6.78813">
        <ele>880.44635</ele>
        <time>2019-08-16T14:50:43Z</time>
      </trkpt>
      <trkpt lat="47.97849" lon="6.78811">
        <ele>880.608337</ele>
        <time>2019-08-16T14:50:44Z</time>
      </trkpt>
      <trkpt lat="47.97849" lon="6.78808">
        <ele>880.761658</ele>
        <time>2019-08-16T14:50:45Z</time>
      </trkpt>
      <trkpt lat="47.97849" lon="6.78806">
        <ele>880.907166</ele>
        <time>2019-08-16T14:50:46Z</time>
      </trkpt>
      <trkpt lat="47.97849" lon="6.78803">
        <ele>881.045593</ele>
        <time>2019-08-16T14:50:47Z</time>
      </trkpt>
      <trkpt lat="47.97849" lon="6.788">
        <ele>881.177551</ele>
        <time>2019-08-16T14:50:48Z</time>
      </trkpt>
      <trkpt lat="47.97849" lon="6.78796">
        <ele>881.239929</ele>
        <time>2019-08-16T14:50:49Z</time>
      </trkpt>
      <trkpt lat="47.97849" lon="6.78794">
        <ele>881.357727</ele>
        <time>2019-08-16T14:50:50Z</time>
      </trkpt>
      <trkpt lat="47.97849" lon="6.78791">
        <ele>881.466553</ele>
        <time>2019-08-16T14:50:51Z</time>
      </trkpt>
      <trkpt lat="47.97848" lon="6.78789">
        <ele>881.572754</ele>
        <time>2019-08-16T14:50:52Z</time>
      </trkpt>
      <trkpt lat="47.97848" lon="6.78787">
        <ele>881.680603</ele>
        <time>2019-08-16T14:50:53Z</time>
      </trkpt>
      <trkpt lat="47.97847" lon="6.78785">
        <ele>881.793213</ele>
        <time>2019-08-16T14:50:54Z</time>
      </trkpt>
      <trkpt lat="47.97847" lon="6.78783">
        <ele>881.915955</ele>
        <time>2019-08-16T14:50:55Z</time>
      </trkpt>
      <trkpt lat="47.97847" lon="6.78781">
        <ele>882.045227</ele>
        <time>2019-08-16T14:50:56Z</time>
      </trkpt>
      <trkpt lat="47.97841" lon="6.78763">
        <ele>882.95874</ele>
        <time>2019-08-16T14:51:07Z</time>
      </trkpt>
      <trkpt lat="47.9784" lon="6.78758">
        <ele>882.933044</ele>
        <time>2019-08-16T14:51:09Z</time>
      </trkpt>
      <trkpt lat="47.97837" lon="6.78752">
        <ele>882.849854</ele>
        <time>2019-08-16T14:51:10Z</time>
      </trkpt>
      <trkpt lat="47.97835" lon="6.78746">
        <ele>882.689392</ele>
        <time>2019-08-16T14:51:11Z</time>
      </trkpt>
      <trkpt lat="47.97832" lon="6.78741">
        <ele>882.443359</ele>
        <time>2019-08-16T14:51:12Z</time>
      </trkpt>
      <trkpt lat="47.97829" lon="6.78736">
        <ele>882.11554</ele>
        <time>2019-08-16T14:51:13Z</time>
      </trkpt>
      <trkpt lat="47.97825" lon="6.78731">
        <ele>881.716492</ele>
        <time>2019-08-16T14:51:14Z</time>
      </trkpt>
      <trkpt lat="47.97822" lon="6.78727">
        <ele>881.260193</ele>
        <time>2019-08-16T14:51:15Z</time>
      </trkpt>
      <trkpt lat="47.97818" lon="6.78723">
        <ele>880.501465</ele>
        <time>2019-08-16T14:51:16Z</time>
      </trkpt>
      <trkpt lat="47.97814" lon="6.7872">
        <ele>879.970154</ele>
        <time>2019-08-16T14:51:17Z</time>
      </trkpt>
      <trkpt lat="47.97811" lon="6.78716">
        <ele>879.42926</ele>
        <time>2019-08-16T14:51:18Z</time>
      </trkpt>
      <trkpt lat="47.97807" lon="6.78715">
        <ele>878.630066</ele>
        <time>2019-08-16T14:51:19Z</time>
      </trkpt>
      <trkpt lat="47.97804" lon="6.78713">
        <ele>878.126953</ele>
        <time>2019-08-16T14:51:20Z</time>
      </trkpt>
      <trkpt lat="47.97802" lon="6.78709">
        <ele>877.661377</ele>
        <time>2019-08-16T14:51:21Z</time>
      </trkpt>
      <trkpt lat="47.97799" lon="6.78703">
        <ele>877.022766</ele>
        <time>2019-08-16T14:51:22Z</time>
      </trkpt>
      <trkpt lat="47.97798" lon="6.78697">
        <ele>876.631592</ele>
        <time>2019-08-16T14:51:23Z</time>
      </trkpt>
      <trkpt lat="47.97797" lon="6.7869">
        <ele>876.257813</ele>
        <time>2019-08-16T14:51:24Z</time>
      </trkpt>
      <trkpt lat="47.97796" lon="6.78684">
        <ele>875.899963</ele>
        <time>2019-08-16T14:51:25Z</time>
      </trkpt>
      <trkpt lat="47.97795" lon="6.78679">
        <ele>875.540833</ele>
        <time>2019-08-16T14:51:26Z</time>
      </trkpt>
      <trkpt lat="47.97794" lon="6.78675">
        <ele>875.169434</ele>
        <time>2019-08-16T14:51:27Z</time>
      </trkpt>
      <trkpt lat="47.97793" lon="6.78672">
        <ele>874.772278</ele>
        <time>2019-08-16T14:51:28Z</time>
      </trkpt>
      <trkpt lat="47.97792" lon="6.78668">
        <ele>874.12793</ele>
        <time>2019-08-16T14:51:29Z</time>
      </trkpt>
      <trkpt lat="47.97792" lon="6.78665">
        <ele>873.691467</ele>
        <time>2019-08-16T14:51:30Z</time>
      </trkpt>
      <trkpt lat="47.97791" lon="6.78662">
        <ele>873.270081</ele>
        <time>2019-08-16T14:51:31Z</time>
      </trkpt>
      <trkpt lat="47.97791" lon="6.7866">
        <ele>872.870911</ele>
        <time>2019-08-16T14:51:32Z</time>
      </trkpt>
      <trkpt lat="47.97791" lon="6.78659">
        <ele>872.311035</ele>
        <time>2019-08-16T14:51:33Z</time>
      </trkpt>
      <trkpt lat="47.97791" lon="6.78658">
        <ele>871.970398</ele>
        <time>2019-08-16T14:51:34Z</time>
      </trkpt>
      <trkpt lat="47.9779" lon="6.78657">
        <ele>871.66449</ele>
        <time>2019-08-16T14:51:35Z</time>
      </trkpt>
      <trkpt lat="47.97789" lon="6.78655">
        <ele>871.404541</ele>
        <time>2019-08-16T14:51:36Z</time>
      </trkpt>
      <trkpt lat="47.97789" lon="6.78652">
        <ele>871.196777</ele>
        <time>2019-08-16T14:51:37Z</time>
      </trkpt>
      <trkpt lat="47.97788" lon="6.78648">
        <ele>871.040527</ele>
        <time>2019-08-16T14:51:38Z</time>
      </trkpt>
      <trkpt lat="47.97786" lon="6.78645">
        <ele>870.922852</ele>
        <time>2019-08-16T14:51:39Z</time>
      </trkpt>
      <trkpt lat="47.97786" lon="6.78641">
        <ele>870.833923</ele>
        <time>2019-08-16T14:51:40Z</time>
      </trkpt>
      <trkpt lat="47.97785" lon="6.78638">
        <ele>870.764343</ele>
        <time>2019-08-16T14:51:41Z</time>
      </trkpt>
      <trkpt lat="47.97783" lon="6.78634">
        <ele>870.713074</ele>
        <time>2019-08-16T14:51:42Z</time>
      </trkpt>
      <trkpt lat="47.97783" lon="6.7863">
        <ele>870.679504</ele>
        <time>2019-08-16T14:51:43Z</time>
      </trkpt>
      <trkpt lat="47.97781" lon="6.78627">
        <ele>870.667175</ele>
        <time>2019-08-16T14:51:44Z</time>
      </trkpt>
      <trkpt lat="47.9778" lon="6.78623">
        <ele>870.667175</ele>
        <time>2019-08-16T14:51:45Z</time>
      </trkpt>
      <trkpt lat="47.97778" lon="6.78619">
        <ele>870.680969</ele>
        <time>2019-08-16T14:51:46Z</time>
      </trkpt>
      <trkpt lat="47.97776" lon="6.78615">
        <ele>870.718994</ele>
        <time>2019-08-16T14:51:47Z</time>
      </trkpt>
      <trkpt lat="47.97776" lon="6.78611">
        <ele>870.773621</ele>
        <time>2019-08-16T14:51:48Z</time>
      </trkpt>
      <trkpt lat="47.97774" lon="6.78605">
        <ele>870.854797</ele>
        <time>2019-08-16T14:51:49Z</time>
      </trkpt>
      <trkpt lat="47.97771" lon="6.78594">
        <ele>870.873535</ele>
        <time>2019-08-16T14:51:51Z</time>
      </trkpt>
      <trkpt lat="47.97768" lon="6.78588">
        <ele>870.889587</ele>
        <time>2019-08-16T14:51:52Z</time>
      </trkpt>
      <trkpt lat="47.97765" lon="6.78583">
        <ele>870.889587</ele>
        <time>2019-08-16T14:51:53Z</time>
      </trkpt>
      <trkpt lat="47.97762" lon="6.78579">
        <ele>870.835938</ele>
        <time>2019-08-16T14:51:54Z</time>
      </trkpt>
      <trkpt lat="47.97758" lon="6.78575">
        <ele>870.745605</ele>
        <time>2019-08-16T14:51:55Z</time>
      </trkpt>
      <trkpt lat="47.97754" lon="6.78572">
        <ele>870.623474</ele>
        <time>2019-08-16T14:51:56Z</time>
      </trkpt>
      <trkpt lat="47.9775" lon="6.78569">
        <ele>870.38446</ele>
        <time>2019-08-16T14:51:57Z</time>
      </trkpt>
      <trkpt lat="47.97747" lon="6.78565">
        <ele>870.185303</ele>
        <time>2019-08-16T14:51:58Z</time>
      </trkpt>
      <trkpt lat="47.97744" lon="6.78562">
        <ele>869.957825</ele>
        <time>2019-08-16T14:51:59Z</time>
      </trkpt>
      <trkpt lat="47.9774" lon="6.7856">
        <ele>869.568359</ele>
        <time>2019-08-16T14:52:00Z</time>
      </trkpt>
      <trkpt lat="47.97737" lon="6.78557">
        <ele>869.274475</ele>
        <time>2019-08-16T14:52:01Z</time>
      </trkpt>
      <trkpt lat="47.97734" lon="6.78555">
        <ele>868.953857</ele>
        <time>2019-08-16T14:52:02Z</time>
      </trkpt>
      <trkpt lat="47.97731" lon="6.78553">
        <ele>868.604797</ele>
        <time>2019-08-16T14:52:03Z</time>
      </trkpt>
      <trkpt lat="47.97728" lon="6.7855">
        <ele>868.053223</ele>
        <time>2019-08-16T14:52:04Z</time>
      </trkpt>
      <trkpt lat="47.97725" lon="6.78547">
        <ele>867.673157</ele>
        <time>2019-08-16T14:52:05Z</time>
      </trkpt>
      <trkpt lat="47.97722" lon="6.78545">
        <ele>867.289612</ele>
        <time>2019-08-16T14:52:06Z</time>
      </trkpt>
      <trkpt lat="47.97718" lon="6.78544">
        <ele>866.727356</ele>
        <time>2019-08-16T14:52:07Z</time>
      </trkpt>
      <trkpt lat="47.97714" lon="6.78542">
        <ele>866.371643</ele>
        <time>2019-08-16T14:52:08Z</time>
      </trkpt>
      <trkpt lat="47.97708" lon="6.78541">
        <ele>866.025635</ele>
        <time>2019-08-16T14:52:09Z</time>
      </trkpt>
      <trkpt lat="47.97704" lon="6.78539">
        <ele>865.523743</ele>
        <time>2019-08-16T14:52:10Z</time>
      </trkpt>
      <trkpt lat="47.97698" lon="6.78539">
        <ele>865.215881</ele>
        <time>2019-08-16T14:52:11Z</time>
      </trkpt>
      <trkpt lat="47.97694" lon="6.78539">
        <ele>864.94989</ele>
        <time>2019-08-16T14:52:12Z</time>
      </trkpt>
      <trkpt lat="47.97689" lon="6.78539">
        <ele>864.598816</ele>
        <time>2019-08-16T14:52:13Z</time>
      </trkpt>
      <trkpt lat="47.97685" lon="6.7854">
        <ele>864.374512</ele>
        <time>2019-08-16T14:52:14Z</time>
      </trkpt>
      <trkpt lat="47.97681" lon="6.78539">
        <ele>864.150085</ele>
        <time>2019-08-16T14:52:15Z</time>
      </trkpt>
      <trkpt lat="47.97678" lon="6.78539">
        <ele>863.845276</ele>
        <time>2019-08-16T14:52:16Z</time>
      </trkpt>
      <trkpt lat="47.97675" lon="6.78538">
        <ele>863.676941</ele>
        <time>2019-08-16T14:52:17Z</time>
      </trkpt>
      <trkpt lat="47.97672" lon="6.78537">
        <ele>863.545959</ele>
        <time>2019-08-16T14:52:18Z</time>
      </trkpt>
      <trkpt lat="47.97668" lon="6.78536">
        <ele>863.409119</ele>
        <time>2019-08-16T14:52:19Z</time>
      </trkpt>
      <trkpt lat="47.97665" lon="6.78535">
        <ele>863.353271</ele>
        <time>2019-08-16T14:52:20Z</time>
      </trkpt>
      <trkpt lat="47.97662" lon="6.78533">
        <ele>863.32489</ele>
        <time>2019-08-16T14:52:21Z</time>
      </trkpt>
      <trkpt lat="47.97659" lon="6.78532">
        <ele>863.319519</ele>
        <time>2019-08-16T14:52:22Z</time>
      </trkpt>
      <trkpt lat="47.97656" lon="6.7853">
        <ele>863.322937</ele>
        <time>2019-08-16T14:52:23Z</time>
      </trkpt>
      <trkpt lat="47.97656" lon="6.78528">
        <ele>863.334778</ele>
        <time>2019-08-16T14:52:24Z</time>
      </trkpt>
      <trkpt lat="47.97654" lon="6.78526">
        <ele>863.361755</ele>
        <time>2019-08-16T14:52:25Z</time>
      </trkpt>
      <trkpt lat="47.97652" lon="6.78524">
        <ele>863.380066</ele>
        <time>2019-08-16T14:52:26Z</time>
      </trkpt>
      <trkpt lat="47.97651" lon="6.78522">
        <ele>863.390137</ele>
        <time>2019-08-16T14:52:27Z</time>
      </trkpt>
      <trkpt lat="47.97649" lon="6.78519">
        <ele>863.39325</ele>
        <time>2019-08-16T14:52:28Z</time>
      </trkpt>
      <trkpt lat="47.97648" lon="6.78515">
        <ele>863.392395</ele>
        <time>2019-08-16T14:52:29Z</time>
      </trkpt>
      <trkpt lat="47.97646" lon="6.78511">
        <ele>863.388855</ele>
        <time>2019-08-16T14:52:30Z</time>
      </trkpt>
      <trkpt lat="47.97645" lon="6.78507">
        <ele>863.382813</ele>
        <time>2019-08-16T14:52:31Z</time>
      </trkpt>
      <trkpt lat="47.97644" lon="6.78504">
        <ele>863.381897</ele>
        <time>2019-08-16T14:52:32Z</time>
      </trkpt>
      <trkpt lat="47.97643" lon="6.78501">
        <ele>863.384766</ele>
        <time>2019-08-16T14:52:33Z</time>
      </trkpt>
      <trkpt lat="47.97641" lon="6.78498">
        <ele>863.397888</ele>
        <time>2019-08-16T14:52:34Z</time>
      </trkpt>
      <trkpt lat="47.9764" lon="6.78495">
        <ele>863.409973</ele>
        <time>2019-08-16T14:52:35Z</time>
      </trkpt>
      <trkpt lat="47.97637" lon="6.78491">
        <ele>863.413635</ele>
        <time>2019-08-16T14:52:36Z</time>
      </trkpt>
      <trkpt lat="47.97635" lon="6.78489">
        <ele>863.413635</ele>
        <time>2019-08-16T14:52:37Z</time>
      </trkpt>
      <trkpt lat="47.97633" lon="6.78486">
        <ele>863.405945</ele>
        <time>2019-08-16T14:52:38Z</time>
      </trkpt>
      <trkpt lat="47.9763" lon="6.78485">
        <ele>863.391052</ele>
        <time>2019-08-16T14:52:39Z</time>
      </trkpt>
      <trkpt lat="47.97627" lon="6.78484">
        <ele>863.354309</ele>
        <time>2019-08-16T14:52:40Z</time>
      </trkpt>
      <trkpt lat="47.97624" lon="6.78483">
        <ele>863.324402</ele>
        <time>2019-08-16T14:52:41Z</time>
      </trkpt>
      <trkpt lat="47.97621" lon="6.78483">
        <ele>863.300598</ele>
        <time>2019-08-16T14:52:42Z</time>
      </trkpt>
      <trkpt lat="47.97618" lon="6.78484">
        <ele>863.293701</ele>
        <time>2019-08-16T14:52:43Z</time>
      </trkpt>
      <trkpt lat="47.97614" lon="6.78485">
        <ele>863.296631</ele>
        <time>2019-08-16T14:52:44Z</time>
      </trkpt>
      <trkpt lat="47.97611" lon="6.78486">
        <ele>863.314514</ele>
        <time>2019-08-16T14:52:45Z</time>
      </trkpt>
      <trkpt lat="47.97607" lon="6.78487">
        <ele>863.358582</ele>
        <time>2019-08-16T14:52:46Z</time>
      </trkpt>
      <trkpt lat="47.97604" lon="6.78487">
        <ele>863.39325</ele>
        <time>2019-08-16T14:52:47Z</time>
      </trkpt>
      <trkpt lat="47.97601" lon="6.78487">
        <ele>863.428528</ele>
        <time>2019-08-16T14:52:48Z</time>
      </trkpt>
      <trkpt lat="47.97598" lon="6.78486">
        <ele>863.472412</ele>
        <time>2019-08-16T14:52:49Z</time>
      </trkpt>
      <trkpt lat="47.97594" lon="6.78486">
        <ele>863.499268</ele>
        <time>2019-08-16T14:52:50Z</time>
      </trkpt>
      <trkpt lat="47.97591" lon="6.78485">
        <ele>863.513855</ele>
        <time>2019-08-16T14:52:51Z</time>
      </trkpt>
      <trkpt lat="47.97588" lon="6.78484">
        <ele>863.576355</ele>
        <time>2019-08-16T14:52:52Z</time>
      </trkpt>
      <trkpt lat="47.97585" lon="6.78483">
        <ele>863.633118</ele>
        <time>2019-08-16T14:52:53Z</time>
      </trkpt>
      <trkpt lat="47.97581" lon="6.78481">
        <ele>863.702148</ele>
        <time>2019-08-16T14:52:54Z</time>
      </trkpt>
      <trkpt lat="47.97578" lon="6.7848">
        <ele>863.816833</ele>
        <time>2019-08-16T14:52:55Z</time>
      </trkpt>
      <trkpt lat="47.97574" lon="6.78478">
        <ele>863.886963</ele>
        <time>2019-08-16T14:52:56Z</time>
      </trkpt>
      <trkpt lat="47.97571" lon="6.78476">
        <ele>863.947937</ele>
        <time>2019-08-16T14:52:57Z</time>
      </trkpt>
      <trkpt lat="47.97567" lon="6.78474">
        <ele>864.026184</ele>
        <time>2019-08-16T14:52:58Z</time>
      </trkpt>
      <trkpt lat="47.97564" lon="6.78472">
        <ele>864.072205</ele>
        <time>2019-08-16T14:52:59Z</time>
      </trkpt>
      <trkpt lat="47.9756" lon="6.78469">
        <ele>864.104004</ele>
        <time>2019-08-16T14:53:00Z</time>
      </trkpt>
      <trkpt lat="47.97556" lon="6.78466">
        <ele>864.115051</ele>
        <time>2019-08-16T14:53:01Z</time>
      </trkpt>
      <trkpt lat="47.97553" lon="6.78463">
        <ele>864.115051</ele>
        <time>2019-08-16T14:53:02Z</time>
      </trkpt>
      <trkpt lat="47.97549" lon="6.78459">
        <ele>864.106262</ele>
        <time>2019-08-16T14:53:03Z</time>
      </trkpt>
      <trkpt lat="47.97546" lon="6.78455">
        <ele>864.092346</ele>
        <time>2019-08-16T14:53:04Z</time>
      </trkpt>
      <trkpt lat="47.97543" lon="6.7845">
        <ele>864.046204</ele>
        <time>2019-08-16T14:53:05Z</time>
      </trkpt>
      <trkpt lat="47.97539" lon="6.78445">
        <ele>863.98877</ele>
        <time>2019-08-16T14:53:06Z</time>
      </trkpt>
      <trkpt lat="47.97535" lon="6.78439">
        <ele>863.907898</ele>
        <time>2019-08-16T14:53:07Z</time>
      </trkpt>
      <trkpt lat="47.97532" lon="6.78434">
        <ele>863.806824</ele>
        <time>2019-08-16T14:53:08Z</time>
      </trkpt>
      <trkpt lat="47.97527" lon="6.78428">
        <ele>863.606689</ele>
        <time>2019-08-16T14:53:09Z</time>
      </trkpt>
      <trkpt lat="47.97522" lon="6.78421">
        <ele>863.42218</ele>
        <time>2019-08-16T14:53:10Z</time>
      </trkpt>
      <trkpt lat="47.97518" lon="6.78413">
        <ele>863.186707</ele>
        <time>2019-08-16T14:53:11Z</time>
      </trkpt>
      <trkpt lat="47.97514" lon="6.78405">
        <ele>862.760559</ele>
        <time>2019-08-16T14:53:12Z</time>
      </trkpt>
      <trkpt lat="47.9751" lon="6.78397">
        <ele>862.428772</ele>
        <time>2019-08-16T14:53:13Z</time>
      </trkpt>
      <trkpt lat="47.97506" lon="6.78389">
        <ele>862.054626</ele>
        <time>2019-08-16T14:53:14Z</time>
      </trkpt>
      <trkpt lat="47.97503" lon="6.78381">
        <ele>861.431458</ele>
        <time>2019-08-16T14:53:15Z</time>
      </trkpt>
      <trkpt lat="47.97499" lon="6.78373">
        <ele>861.028992</ele>
        <time>2019-08-16T14:53:16Z</time>
      </trkpt>
      <trkpt lat="47.97496" lon="6.78366">
        <ele>860.666504</ele>
        <time>2019-08-16T14:53:17Z</time>
      </trkpt>
      <trkpt lat="47.97492" lon="6.7836">
        <ele>860.330261</ele>
        <time>2019-08-16T14:53:18Z</time>
      </trkpt>
      <trkpt lat="47.97487" lon="6.78353">
        <ele>859.993835</ele>
        <time>2019-08-16T14:53:19Z</time>
      </trkpt>
      <trkpt lat="47.97483" lon="6.78347">
        <ele>859.478333</ele>
        <time>2019-08-16T14:53:20Z</time>
      </trkpt>
      <trkpt lat="47.97479" lon="6.78342">
        <ele>859.153503</ele>
        <time>2019-08-16T14:53:21Z</time>
      </trkpt>
      <trkpt lat="47.97475" lon="6.78337">
        <ele>858.868896</ele>
        <time>2019-08-16T14:53:22Z</time>
      </trkpt>
      <trkpt lat="47.97471" lon="6.78332">
        <ele>858.525696</ele>
        <time>2019-08-16T14:53:23Z</time>
      </trkpt>
      <trkpt lat="47.97468" lon="6.78329">
        <ele>858.361633</ele>
        <time>2019-08-16T14:53:24Z</time>
      </trkpt>
      <trkpt lat="47.97465" lon="6.78326">
        <ele>858.267822</ele>
        <time>2019-08-16T14:53:25Z</time>
      </trkpt>
      <trkpt lat="47.97462" lon="6.78323">
        <ele>858.254578</ele>
        <time>2019-08-16T14:53:26Z</time>
      </trkpt>
      <trkpt lat="47.9746" lon="6.78318">
        <ele>858.284973</ele>
        <time>2019-08-16T14:53:27Z</time>
      </trkpt>
      <trkpt lat="47.97457" lon="6.78312">
        <ele>858.373474</ele>
        <time>2019-08-16T14:53:28Z</time>
      </trkpt>
      <trkpt lat="47.97455" lon="6.78307">
        <ele>858.490295</ele>
        <time>2019-08-16T14:53:29Z</time>
      </trkpt>
      <trkpt lat="47.97452" lon="6.78302">
        <ele>858.621033</ele>
        <time>2019-08-16T14:53:30Z</time>
      </trkpt>
      <trkpt lat="47.97449" lon="6.78297">
        <ele>858.749939</ele>
        <time>2019-08-16T14:53:31Z</time>
      </trkpt>
      <trkpt lat="47.97445" lon="6.78292">
        <ele>858.862488</ele>
        <time>2019-08-16T14:53:32Z</time>
      </trkpt>
      <trkpt lat="47.97442" lon="6.78288">
        <ele>858.997375</ele>
        <time>2019-08-16T14:53:33Z</time>
      </trkpt>
      <trkpt lat="47.97438" lon="6.78285">
        <ele>859.067078</ele>
        <time>2019-08-16T14:53:34Z</time>
      </trkpt>
      <trkpt lat="47.97435" lon="6.78281">
        <ele>859.122131</ele>
        <time>2019-08-16T14:53:35Z</time>
      </trkpt>
      <trkpt lat="47.97431" lon="6.78278">
        <ele>859.170227</ele>
        <time>2019-08-16T14:53:36Z</time>
      </trkpt>
      <trkpt lat="47.97428" lon="6.78276">
        <ele>859.186584</ele>
        <time>2019-08-16T14:53:37Z</time>
      </trkpt>
      <trkpt lat="47.97425" lon="6.78272">
        <ele>859.200134</ele>
        <time>2019-08-16T14:53:38Z</time>
      </trkpt>
      <trkpt lat="47.97422" lon="6.78268">
        <ele>859.222839</ele>
        <time>2019-08-16T14:53:39Z</time>
      </trkpt>
      <trkpt lat="47.97419" lon="6.78263">
        <ele>859.277893</ele>
        <time>2019-08-16T14:53:40Z</time>
      </trkpt>
      <trkpt lat="47.97417" lon="6.78258">
        <ele>859.330872</ele>
        <time>2019-08-16T14:53:41Z</time>
      </trkpt>
      <trkpt lat="47.97415" lon="6.78252">
        <ele>859.399841</ele>
        <time>2019-08-16T14:53:42Z</time>
      </trkpt>
      <trkpt lat="47.97412" lon="6.78246">
        <ele>859.477783</ele>
        <time>2019-08-16T14:53:43Z</time>
      </trkpt>
      <trkpt lat="47.97411" lon="6.7824">
        <ele>859.593445</ele>
        <time>2019-08-16T14:53:44Z</time>
      </trkpt>
      <trkpt lat="47.97409" lon="6.78234">
        <ele>859.662354</ele>
        <time>2019-08-16T14:53:45Z</time>
      </trkpt>
      <trkpt lat="47.97407" lon="6.78227">
        <ele>859.720642</ele>
        <time>2019-08-16T14:53:46Z</time>
      </trkpt>
      <trkpt lat="47.97406" lon="6.78222">
        <ele>859.766357</ele>
        <time>2019-08-16T14:53:47Z</time>
      </trkpt>
      <trkpt lat="47.97405" lon="6.78216">
        <ele>859.79541</ele>
        <time>2019-08-16T14:53:48Z</time>
      </trkpt>
      <trkpt lat="47.97403" lon="6.7821">
        <ele>859.812561</ele>
        <time>2019-08-16T14:53:49Z</time>
      </trkpt>
      <trkpt lat="47.97401" lon="6.78205">
        <ele>859.822449</ele>
        <time>2019-08-16T14:53:50Z</time>
      </trkpt>
      <trkpt lat="47.97398" lon="6.782">
        <ele>859.835205</ele>
        <time>2019-08-16T14:53:51Z</time>
      </trkpt>
      <trkpt lat="47.97396" lon="6.78195">
        <ele>859.840576</ele>
        <time>2019-08-16T14:53:52Z</time>
      </trkpt>
      <trkpt lat="47.97393" lon="6.7819">
        <ele>859.8526</ele>
        <time>2019-08-16T14:53:53Z</time>
      </trkpt>
      <trkpt lat="47.9739" lon="6.78186">
        <ele>859.875671</ele>
        <time>2019-08-16T14:53:54Z</time>
      </trkpt>
      <trkpt lat="47.97387" lon="6.78182">
        <ele>859.942139</ele>
        <time>2019-08-16T14:53:55Z</time>
      </trkpt>
      <trkpt lat="47.97384" lon="6.78178">
        <ele>860.014221</ele>
        <time>2019-08-16T14:53:56Z</time>
      </trkpt>
      <trkpt lat="47.97382" lon="6.78174">
        <ele>860.105042</ele>
        <time>2019-08-16T14:53:57Z</time>
      </trkpt>
      <trkpt lat="47.97379" lon="6.78171">
        <ele>860.211609</ele>
        <time>2019-08-16T14:53:58Z</time>
      </trkpt>
      <trkpt lat="47.97376" lon="6.78167">
        <ele>860.377136</ele>
        <time>2019-08-16T14:53:59Z</time>
      </trkpt>
      <trkpt lat="47.97373" lon="6.78162">
        <ele>860.485107</ele>
        <time>2019-08-16T14:54:00Z</time>
      </trkpt>
      <trkpt lat="47.9737" lon="6.78157">
        <ele>860.598328</ele>
        <time>2019-08-16T14:54:01Z</time>
      </trkpt>
      <trkpt lat="47.97367" lon="6.78152">
        <ele>860.723083</ele>
        <time>2019-08-16T14:54:02Z</time>
      </trkpt>
      <trkpt lat="47.97365" lon="6.78148">
        <ele>860.859375</ele>
        <time>2019-08-16T14:54:03Z</time>
      </trkpt>
      <trkpt lat="47.97362" lon="6.78143">
        <ele>861.00531</ele>
        <time>2019-08-16T14:54:04Z</time>
      </trkpt>
      <trkpt lat="47.9736" lon="6.78138">
        <ele>861.16095</ele>
        <time>2019-08-16T14:54:05Z</time>
      </trkpt>
      <trkpt lat="47.97357" lon="6.78132">
        <ele>861.325684</ele>
        <time>2019-08-16T14:54:06Z</time>
      </trkpt>
      <trkpt lat="47.97356" lon="6.78127">
        <ele>861.600281</ele>
        <time>2019-08-16T14:54:07Z</time>
      </trkpt>
      <trkpt lat="47.97354" lon="6.78122">
        <ele>861.811035</ele>
        <time>2019-08-16T14:54:08Z</time>
      </trkpt>
      <trkpt lat="47.97353" lon="6.78118">
        <ele>862.047302</ele>
        <time>2019-08-16T14:54:09Z</time>
      </trkpt>
      <trkpt lat="47.97353" lon="6.78114">
        <ele>862.298523</ele>
        <time>2019-08-16T14:54:10Z</time>
      </trkpt>
      <trkpt lat="47.97352" lon="6.7811">
        <ele>862.562561</ele>
        <time>2019-08-16T14:54:11Z</time>
      </trkpt>
      <trkpt lat="47.97352" lon="6.78107">
        <ele>862.837402</ele>
        <time>2019-08-16T14:54:12Z</time>
      </trkpt>
      <trkpt lat="47.97351" lon="6.78102">
        <ele>863.116882</ele>
        <time>2019-08-16T14:54:13Z</time>
      </trkpt>
      <trkpt lat="47.9735" lon="6.78098">
        <ele>863.388855</ele>
        <time>2019-08-16T14:54:14Z</time>
      </trkpt>
      <trkpt lat="47.97348" lon="6.78095">
        <ele>863.631592</ele>
        <time>2019-08-16T14:54:15Z</time>
      </trkpt>
      <trkpt lat="47.97346" lon="6.78093">
        <ele>863.837341</ele>
        <time>2019-08-16T14:54:16Z</time>
      </trkpt>
      <trkpt lat="47.97344" lon="6.7809">
        <ele>864</ele>
        <time>2019-08-16T14:54:17Z</time>
      </trkpt>
      <trkpt lat="47.97342" lon="6.78088">
        <ele>864.183105</ele>
        <time>2019-08-16T14:54:18Z</time>
      </trkpt>
      <trkpt lat="47.97339" lon="6.78086">
        <ele>864.271423</ele>
        <time>2019-08-16T14:54:19Z</time>
      </trkpt>
      <trkpt lat="47.97337" lon="6.78085">
        <ele>864.345764</ele>
        <time>2019-08-16T14:54:20Z</time>
      </trkpt>
      <trkpt lat="47.97336" lon="6.78084">
        <ele>864.513428</ele>
        <time>2019-08-16T14:54:21Z</time>
      </trkpt>
      <trkpt lat="47.97335" lon="6.78083">
        <ele>864.593506</ele>
        <time>2019-08-16T14:54:23Z</time>
      </trkpt>
      <trkpt lat="47.97334" lon="6.78082">
        <ele>864.738831</ele>
        <time>2019-08-16T14:54:24Z</time>
      </trkpt>
      <trkpt lat="47.97332" lon="6.78081">
        <ele>864.84375</ele>
        <time>2019-08-16T14:54:25Z</time>
      </trkpt>
      <trkpt lat="47.97331" lon="6.78079">
        <ele>864.944275</ele>
        <time>2019-08-16T14:54:26Z</time>
      </trkpt>
      <trkpt lat="47.97329" lon="6.78078">
        <ele>865.070557</ele>
        <time>2019-08-16T14:54:27Z</time>
      </trkpt>
      <trkpt lat="47.97319" lon="6.7807">
        <ele>865.394592</ele>
        <time>2019-08-16T14:54:40Z</time>
      </trkpt>
      <trkpt lat="47.97316" lon="6.78068">
        <ele>865.413025</ele>
        <time>2019-08-16T14:54:42Z</time>
      </trkpt>
      <trkpt lat="47.97313" lon="6.78067">
        <ele>865.464539</ele>
        <time>2019-08-16T14:54:43Z</time>
      </trkpt>
      <trkpt lat="47.9731" lon="6.78066">
        <ele>865.51825</ele>
        <time>2019-08-16T14:54:44Z</time>
      </trkpt>
      <trkpt lat="47.97306" lon="6.78065">
        <ele>865.585632</ele>
        <time>2019-08-16T14:54:45Z</time>
      </trkpt>
      <trkpt lat="47.97303" lon="6.78064">
        <ele>865.694031</ele>
        <time>2019-08-16T14:54:46Z</time>
      </trkpt>
      <trkpt lat="47.973" lon="6.78062">
        <ele>865.765137</ele>
        <time>2019-08-16T14:54:47Z</time>
      </trkpt>
      <trkpt lat="47.97297" lon="6.7806">
        <ele>865.82782</ele>
        <time>2019-08-16T14:54:48Z</time>
      </trkpt>
      <trkpt lat="47.97294" lon="6.78058">
        <ele>865.897522</ele>
        <time>2019-08-16T14:54:49Z</time>
      </trkpt>
      <trkpt lat="47.97291" lon="6.78055">
        <ele>865.920471</ele>
        <time>2019-08-16T14:54:50Z</time>
      </trkpt>
      <trkpt lat="47.97289" lon="6.78053">
        <ele>865.929626</ele>
        <time>2019-08-16T14:54:51Z</time>
      </trkpt>
      <trkpt lat="47.97286" lon="6.7805">
        <ele>865.934814</ele>
        <time>2019-08-16T14:54:52Z</time>
      </trkpt>
      <trkpt lat="47.97281" lon="6.78045">
        <ele>865.936584</ele>
        <time>2019-08-16T14:54:54Z</time>
      </trkpt>
      <trkpt lat="47.97279" lon="6.78042">
        <ele>865.941162</ele>
        <time>2019-08-16T14:54:55Z</time>
      </trkpt>
      <trkpt lat="47.97277" lon="6.7804">
        <ele>865.961121</ele>
        <time>2019-08-16T14:54:56Z</time>
      </trkpt>
      <trkpt lat="47.97274" lon="6.78038">
        <ele>865.999023</ele>
        <time>2019-08-16T14:54:57Z</time>
      </trkpt>
      <trkpt lat="47.97273" lon="6.78036">
        <ele>866.044922</ele>
        <time>2019-08-16T14:54:58Z</time>
      </trkpt>
      <trkpt lat="47.97271" lon="6.78034">
        <ele>866.119873</ele>
        <time>2019-08-16T14:54:59Z</time>
      </trkpt>
      <trkpt lat="47.97268" lon="6.78032">
        <ele>866.171814</ele>
        <time>2019-08-16T14:55:00Z</time>
      </trkpt>
      <trkpt lat="47.97265" lon="6.7803">
        <ele>866.220764</ele>
        <time>2019-08-16T14:55:01Z</time>
      </trkpt>
      <trkpt lat="47.97263" lon="6.78027">
        <ele>866.286377</ele>
        <time>2019-08-16T14:55:02Z</time>
      </trkpt>
      <trkpt lat="47.97261" lon="6.78025">
        <ele>866.329895</ele>
        <time>2019-08-16T14:55:03Z</time>
      </trkpt>
      <trkpt lat="47.97259" lon="6.78022">
        <ele>866.376953</ele>
        <time>2019-08-16T14:55:04Z</time>
      </trkpt>
      <trkpt lat="47.97257" lon="6.7802">
        <ele>866.444824</ele>
        <time>2019-08-16T14:55:05Z</time>
      </trkpt>
      <trkpt lat="47.97254" lon="6.78018">
        <ele>866.490906</ele>
        <time>2019-08-16T14:55:06Z</time>
      </trkpt>
      <trkpt lat="47.97252" lon="6.78015">
        <ele>866.545166</ele>
        <time>2019-08-16T14:55:07Z</time>
      </trkpt>
      <trkpt lat="47.9725" lon="6.78013">
        <ele>866.645447</ele>
        <time>2019-08-16T14:55:08Z</time>
      </trkpt>
      <trkpt lat="47.97247" lon="6.78011">
        <ele>866.715881</ele>
        <time>2019-08-16T14:55:09Z</time>
      </trkpt>
      <trkpt lat="47.97245" lon="6.78008">
        <ele>866.783997</ele>
        <time>2019-08-16T14:55:10Z</time>
      </trkpt>
      <trkpt lat="47.97244" lon="6.78006">
        <ele>866.891052</ele>
        <time>2019-08-16T14:55:11Z</time>
      </trkpt>
      <trkpt lat="47.97242" lon="6.78004">
        <ele>866.981506</ele>
        <time>2019-08-16T14:55:12Z</time>
      </trkpt>
      <trkpt lat="47.9724" lon="6.78002">
        <ele>867.087463</ele>
        <time>2019-08-16T14:55:13Z</time>
      </trkpt>
      <trkpt lat="47.97239" lon="6.78001">
        <ele>867.253418</ele>
        <time>2019-08-16T14:55:14Z</time>
      </trkpt>
      <trkpt lat="47.97237" lon="6.77999">
        <ele>867.35907</ele>
        <time>2019-08-16T14:55:15Z</time>
      </trkpt>
      <trkpt lat="47.97235" lon="6.77999">
        <ele>867.465515</ele>
        <time>2019-08-16T14:55:16Z</time>
      </trkpt>
      <trkpt lat="47.97234" lon="6.77998">
        <ele>867.623596</ele>
        <time>2019-08-16T14:55:17Z</time>
      </trkpt>
      <trkpt lat="47.97232" lon="6.77998">
        <ele>867.725037</ele>
        <time>2019-08-16T14:55:18Z</time>
      </trkpt>
      <trkpt lat="47.97232" lon="6.77997">
        <ele>867.818298</ele>
        <time>2019-08-16T14:55:19Z</time>
      </trkpt>
      <trkpt lat="47.97223" lon="6.77986">
        <ele>868.060791</ele>
        <time>2019-08-16T14:57:34Z</time>
      </trkpt>
      <trkpt lat="47.97223" lon="6.77983">
        <ele>868.058167</ele>
        <time>2019-08-16T14:57:36Z</time>
      </trkpt>
      <trkpt lat="47.97223" lon="6.7798">
        <ele>868.058167</ele>
        <time>2019-08-16T14:57:37Z</time>
      </trkpt>
      <trkpt lat="47.97224" lon="6.77977">
        <ele>868.061951</ele>
        <time>2019-08-16T14:57:38Z</time>
      </trkpt>
      <trkpt lat="47.97224" lon="6.77974">
        <ele>868.082275</ele>
        <time>2019-08-16T14:57:39Z</time>
      </trkpt>
      <trkpt lat="47.97225" lon="6.7797">
        <ele>868.126038</ele>
        <time>2019-08-16T14:57:40Z</time>
      </trkpt>
      <trkpt lat="47.97225" lon="6.77967">
        <ele>868.188904</ele>
        <time>2019-08-16T14:57:41Z</time>
      </trkpt>
      <trkpt lat="47.97226" lon="6.77964">
        <ele>868.269958</ele>
        <time>2019-08-16T14:57:42Z</time>
      </trkpt>
      <trkpt lat="47.97226" lon="6.7796">
        <ele>868.364929</ele>
        <time>2019-08-16T14:57:43Z</time>
      </trkpt>
      <trkpt lat="47.97227" lon="6.77956">
        <ele>868.466614</ele>
        <time>2019-08-16T14:57:44Z</time>
      </trkpt>
      <trkpt lat="47.97227" lon="6.77953">
        <ele>868.572266</ele>
        <time>2019-08-16T14:57:45Z</time>
      </trkpt>
      <trkpt lat="47.97227" lon="6.77949">
        <ele>868.680847</ele>
        <time>2019-08-16T14:57:46Z</time>
      </trkpt>
      <trkpt lat="47.97227" lon="6.77945">
        <ele>868.793701</ele>
        <time>2019-08-16T14:57:47Z</time>
      </trkpt>
      <trkpt lat="47.97227" lon="6.77941">
        <ele>868.914978</ele>
        <time>2019-08-16T14:57:48Z</time>
      </trkpt>
      <trkpt lat="47.97227" lon="6.77937">
        <ele>869.039856</ele>
        <time>2019-08-16T14:57:49Z</time>
      </trkpt>
      <trkpt lat="47.97227" lon="6.77933">
        <ele>869.161865</ele>
        <time>2019-08-16T14:57:50Z</time>
      </trkpt>
      <trkpt lat="47.97227" lon="6.77929">
        <ele>869.280273</ele>
        <time>2019-08-16T14:57:51Z</time>
      </trkpt>
      <trkpt lat="47.97226" lon="6.77925">
        <ele>869.400818</ele>
        <time>2019-08-16T14:57:52Z</time>
      </trkpt>
      <trkpt lat="47.97226" lon="6.77921">
        <ele>869.527649</ele>
        <time>2019-08-16T14:57:53Z</time>
      </trkpt>
      <trkpt lat="47.97226" lon="6.77917">
        <ele>869.589905</ele>
        <time>2019-08-16T14:57:54Z</time>
      </trkpt>
      <trkpt lat="47.97227" lon="6.77912">
        <ele>869.649719</ele>
        <time>2019-08-16T14:57:55Z</time>
      </trkpt>
      <trkpt lat="47.97227" lon="6.77908">
        <ele>869.759338</ele>
        <time>2019-08-16T14:57:56Z</time>
      </trkpt>
      <trkpt lat="47.97228" lon="6.77904">
        <ele>869.851868</ele>
        <time>2019-08-16T14:57:57Z</time>
      </trkpt>
      <trkpt lat="47.97228" lon="6.779">
        <ele>869.938721</ele>
        <time>2019-08-16T14:57:58Z</time>
      </trkpt>
      <trkpt lat="47.97229" lon="6.77896">
        <ele>870.024414</ele>
        <time>2019-08-16T14:57:59Z</time>
      </trkpt>
      <trkpt lat="47.97229" lon="6.77892">
        <ele>870.114502</ele>
        <time>2019-08-16T14:58:00Z</time>
      </trkpt>
      <trkpt lat="47.9723" lon="6.77887">
        <ele>870.205811</ele>
        <time>2019-08-16T14:58:01Z</time>
      </trkpt>
      <trkpt lat="47.9723" lon="6.77882">
        <ele>870.29364</ele>
        <time>2019-08-16T14:58:02Z</time>
      </trkpt>
      <trkpt lat="47.97231" lon="6.77877">
        <ele>870.384216</ele>
        <time>2019-08-16T14:58:03Z</time>
      </trkpt>
      <trkpt lat="47.97231" lon="6.77872">
        <ele>870.476746</ele>
        <time>2019-08-16T14:58:04Z</time>
      </trkpt>
      <trkpt lat="47.97232" lon="6.77867">
        <ele>870.572021</ele>
        <time>2019-08-16T14:58:05Z</time>
      </trkpt>
      <trkpt lat="47.97233" lon="6.77862">
        <ele>870.664368</ele>
        <time>2019-08-16T14:58:06Z</time>
      </trkpt>
      <trkpt lat="47.97234" lon="6.77858">
        <ele>870.755798</ele>
        <time>2019-08-16T14:58:07Z</time>
      </trkpt>
      <trkpt lat="47.97235" lon="6.77853">
        <ele>870.849548</ele>
        <time>2019-08-16T14:58:08Z</time>
      </trkpt>
      <trkpt lat="47.97236" lon="6.77847">
        <ele>870.9422</ele>
        <time>2019-08-16T14:58:09Z</time>
      </trkpt>
      <trkpt lat="47.97238" lon="6.77842">
        <ele>871.029541</ele>
        <time>2019-08-16T14:58:10Z</time>
      </trkpt>
      <trkpt lat="47.97239" lon="6.77836">
        <ele>871.103577</ele>
        <time>2019-08-16T14:58:11Z</time>
      </trkpt>
      <trkpt lat="47.97241" lon="6.7783">
        <ele>871.165771</ele>
        <time>2019-08-16T14:58:12Z</time>
      </trkpt>
      <trkpt lat="47.97242" lon="6.77824">
        <ele>871.215149</ele>
        <time>2019-08-16T14:58:13Z</time>
      </trkpt>
      <trkpt lat="47.97244" lon="6.77818">
        <ele>871.244629</ele>
        <time>2019-08-16T14:58:14Z</time>
      </trkpt>
      <trkpt lat="47.97245" lon="6.77812">
        <ele>871.245605</ele>
        <time>2019-08-16T14:58:15Z</time>
      </trkpt>
      <trkpt lat="47.97247" lon="6.77805">
        <ele>871.236023</ele>
        <time>2019-08-16T14:58:16Z</time>
      </trkpt>
      <trkpt lat="47.97248" lon="6.77798">
        <ele>871.182617</ele>
        <time>2019-08-16T14:58:17Z</time>
      </trkpt>
      <trkpt lat="47.97249" lon="6.77792">
        <ele>871.096985</ele>
        <time>2019-08-16T14:58:18Z</time>
      </trkpt>
      <trkpt lat="47.9725" lon="6.77785">
        <ele>870.993835</ele>
        <time>2019-08-16T14:58:19Z</time>
      </trkpt>
      <trkpt lat="47.97252" lon="6.77779">
        <ele>870.875977</ele>
        <time>2019-08-16T14:58:20Z</time>
      </trkpt>
      <trkpt lat="47.97252" lon="6.77772">
        <ele>870.741028</ele>
        <time>2019-08-16T14:58:21Z</time>
      </trkpt>
      <trkpt lat="47.97253" lon="6.77766">
        <ele>870.585999</ele>
        <time>2019-08-16T14:58:22Z</time>
      </trkpt>
      <trkpt lat="47.97254" lon="6.77759">
        <ele>870.417053</ele>
        <time>2019-08-16T14:58:23Z</time>
      </trkpt>
      <trkpt lat="47.97255" lon="6.77752">
        <ele>870.239441</ele>
        <time>2019-08-16T14:58:24Z</time>
      </trkpt>
      <trkpt lat="47.97256" lon="6.77746">
        <ele>870.058411</ele>
        <time>2019-08-16T14:58:25Z</time>
      </trkpt>
      <trkpt lat="47.97257" lon="6.77738">
        <ele>869.882507</ele>
        <time>2019-08-16T14:58:26Z</time>
      </trkpt>
      <trkpt lat="47.97257" lon="6.7773">
        <ele>869.62085</ele>
        <time>2019-08-16T14:58:27Z</time>
      </trkpt>
      <trkpt lat="47.97257" lon="6.77722">
        <ele>869.438293</ele>
        <time>2019-08-16T14:58:28Z</time>
      </trkpt>
      <trkpt lat="47.97257" lon="6.77714">
        <ele>869.250793</ele>
        <time>2019-08-16T14:58:29Z</time>
      </trkpt>
      <trkpt lat="47.97256" lon="6.77707">
        <ele>869.068909</ele>
        <time>2019-08-16T14:58:30Z</time>
      </trkpt>
      <trkpt lat="47.97255" lon="6.777">
        <ele>868.884766</ele>
        <time>2019-08-16T14:58:31Z</time>
      </trkpt>
      <trkpt lat="47.97256" lon="6.77694">
        <ele>868.687988</ele>
        <time>2019-08-16T14:58:32Z</time>
      </trkpt>
      <trkpt lat="47.97257" lon="6.77691">
        <ele>868.46991</ele>
        <time>2019-08-16T14:58:33Z</time>
      </trkpt>
      <trkpt lat="47.9725" lon="6.77682">
        <ele>867.204102</ele>
        <time>2019-08-16T14:59:23Z</time>
      </trkpt>
      <trkpt lat="47.97249" lon="6.77676">
        <ele>867.132751</ele>
        <time>2019-08-16T14:59:25Z</time>
      </trkpt>
      <trkpt lat="47.97249" lon="6.7767">
        <ele>866.995117</ele>
        <time>2019-08-16T14:59:26Z</time>
      </trkpt>
      <trkpt lat="47.97248" lon="6.77665">
        <ele>866.888855</ele>
        <time>2019-08-16T14:59:27Z</time>
      </trkpt>
      <trkpt lat="47.97247" lon="6.7766">
        <ele>866.713562</ele>
        <time>2019-08-16T14:59:28Z</time>
      </trkpt>
      <trkpt lat="47.97245" lon="6.77656">
        <ele>866.58429</ele>
        <time>2019-08-16T14:59:29Z</time>
      </trkpt>
      <trkpt lat="47.97245" lon="6.7765">
        <ele>866.367676</ele>
        <time>2019-08-16T14:59:30Z</time>
      </trkpt>
      <trkpt lat="47.97245" lon="6.77644">
        <ele>866.214355</ele>
        <time>2019-08-16T14:59:31Z</time>
      </trkpt>
      <trkpt lat="47.97245" lon="6.77638">
        <ele>865.98053</ele>
        <time>2019-08-16T14:59:32Z</time>
      </trkpt>
      <trkpt lat="47.97246" lon="6.77631">
        <ele>865.825012</ele>
        <time>2019-08-16T14:59:33Z</time>
      </trkpt>
      <trkpt lat="47.97247" lon="6.77624">
        <ele>865.655334</ele>
        <time>2019-08-16T14:59:34Z</time>
      </trkpt>
      <trkpt lat="47.97246" lon="6.77617">
        <ele>865.371582</ele>
        <time>2019-08-16T14:59:35Z</time>
      </trkpt>
      <trkpt lat="47.97246" lon="6.7761">
        <ele>865.167969</ele>
        <time>2019-08-16T14:59:36Z</time>
      </trkpt>
      <trkpt lat="47.97245" lon="6.77603">
        <ele>864.88446</ele>
        <time>2019-08-16T14:59:37Z</time>
      </trkpt>
      <trkpt lat="47.97244" lon="6.77595">
        <ele>864.745117</ele>
        <time>2019-08-16T14:59:38Z</time>
      </trkpt>
      <trkpt lat="47.97242" lon="6.77588">
        <ele>864.602722</ele>
        <time>2019-08-16T14:59:39Z</time>
      </trkpt>
      <trkpt lat="47.9724" lon="6.77579">
        <ele>864.515137</ele>
        <time>2019-08-16T14:59:40Z</time>
      </trkpt>
      <trkpt lat="47.97239" lon="6.77571">
        <ele>864.360779</ele>
        <time>2019-08-16T14:59:41Z</time>
      </trkpt>
      <trkpt lat="47.97238" lon="6.77562">
        <ele>864.243103</ele>
        <time>2019-08-16T14:59:42Z</time>
      </trkpt>
      <trkpt lat="47.97237" lon="6.77554">
        <ele>864.041199</ele>
        <time>2019-08-16T14:59:43Z</time>
      </trkpt>
      <trkpt lat="47.97237" lon="6.77545">
        <ele>863.874268</ele>
        <time>2019-08-16T14:59:44Z</time>
      </trkpt>
      <trkpt lat="47.97238" lon="6.77537">
        <ele>863.674133</ele>
        <time>2019-08-16T14:59:45Z</time>
      </trkpt>
      <trkpt lat="47.97239" lon="6.77529">
        <ele>863.358337</ele>
        <time>2019-08-16T14:59:46Z</time>
      </trkpt>
      <trkpt lat="47.97239" lon="6.7752">
        <ele>863.180481</ele>
        <time>2019-08-16T14:59:47Z</time>
      </trkpt>
      <trkpt lat="47.97239" lon="6.77512">
        <ele>862.985657</ele>
        <time>2019-08-16T14:59:48Z</time>
      </trkpt>
      <trkpt lat="47.97239" lon="6.77504">
        <ele>862.903137</ele>
        <time>2019-08-16T14:59:49Z</time>
      </trkpt>
      <trkpt lat="47.97238" lon="6.77495">
        <ele>862.874207</ele>
        <time>2019-08-16T14:59:50Z</time>
      </trkpt>
      <trkpt lat="47.97238" lon="6.77486">
        <ele>862.878235</ele>
        <time>2019-08-16T14:59:51Z</time>
      </trkpt>
      <trkpt lat="47.97238" lon="6.77478">
        <ele>862.940002</ele>
        <time>2019-08-16T14:59:52Z</time>
      </trkpt>
      <trkpt lat="47.97238" lon="6.7747">
        <ele>862.989685</ele>
        <time>2019-08-16T14:59:53Z</time>
      </trkpt>
      <trkpt lat="47.97238" lon="6.77463">
        <ele>863.069519</ele>
        <time>2019-08-16T14:59:54Z</time>
      </trkpt>
      <trkpt lat="47.97238" lon="6.77456">
        <ele>863.096863</ele>
        <time>2019-08-16T14:59:55Z</time>
      </trkpt>
      <trkpt lat="47.97238" lon="6.77448">
        <ele>863.124451</ele>
        <time>2019-08-16T14:59:56Z</time>
      </trkpt>
      <trkpt lat="47.97238" lon="6.77439">
        <ele>863.190002</ele>
        <time>2019-08-16T14:59:57Z</time>
      </trkpt>
      <trkpt lat="47.97237" lon="6.7743">
        <ele>863.211487</ele>
        <time>2019-08-16T14:59:58Z</time>
      </trkpt>
      <trkpt lat="47.97236" lon="6.77421">
        <ele>863.231201</ele>
        <time>2019-08-16T14:59:59Z</time>
      </trkpt>
      <trkpt lat="47.97235" lon="6.77414">
        <ele>863.257019</ele>
        <time>2019-08-16T15:00:00Z</time>
      </trkpt>
      <trkpt lat="47.97234" lon="6.77407">
        <ele>863.296875</ele>
        <time>2019-08-16T15:00:01Z</time>
      </trkpt>
      <trkpt lat="47.97233" lon="6.774">
        <ele>863.318542</ele>
        <time>2019-08-16T15:00:02Z</time>
      </trkpt>
      <trkpt lat="47.97232" lon="6.77393">
        <ele>863.381104</ele>
        <time>2019-08-16T15:00:03Z</time>
      </trkpt>
      <trkpt lat="47.97233" lon="6.77385">
        <ele>863.451416</ele>
        <time>2019-08-16T15:00:04Z</time>
      </trkpt>
      <trkpt lat="47.97233" lon="6.77377">
        <ele>863.571838</ele>
        <time>2019-08-16T15:00:05Z</time>
      </trkpt>
      <trkpt lat="47.97233" lon="6.77368">
        <ele>863.641174</ele>
        <time>2019-08-16T15:00:06Z</time>
      </trkpt>
      <trkpt lat="47.97234" lon="6.77359">
        <ele>863.696106</ele>
        <time>2019-08-16T15:00:07Z</time>
      </trkpt>
      <trkpt lat="47.97234" lon="6.7735">
        <ele>863.736328</ele>
        <time>2019-08-16T15:00:08Z</time>
      </trkpt>
      <trkpt lat="47.97234" lon="6.7734">
        <ele>863.736328</ele>
        <time>2019-08-16T15:00:09Z</time>
      </trkpt>
      <trkpt lat="47.97235" lon="6.77331">
        <ele>863.684265</ele>
        <time>2019-08-16T15:00:10Z</time>
      </trkpt>
      <trkpt lat="47.97235" lon="6.77322">
        <ele>863.594238</ele>
        <time>2019-08-16T15:00:11Z</time>
      </trkpt>
      <trkpt lat="47.97236" lon="6.77312">
        <ele>863.41925</ele>
        <time>2019-08-16T15:00:12Z</time>
      </trkpt>
      <trkpt lat="47.97237" lon="6.77303">
        <ele>863.290283</ele>
        <time>2019-08-16T15:00:13Z</time>
      </trkpt>
      <trkpt lat="47.97237" lon="6.77294">
        <ele>863.10498</ele>
        <time>2019-08-16T15:00:14Z</time>
      </trkpt>
      <trkpt lat="47.97237" lon="6.77285">
        <ele>862.996521</ele>
        <time>2019-08-16T15:00:15Z</time>
      </trkpt>
      <trkpt lat="47.97237" lon="6.77276">
        <ele>862.865051</ele>
        <time>2019-08-16T15:00:16Z</time>
      </trkpt>
      <trkpt lat="47.97237" lon="6.77267">
        <ele>862.806091</ele>
        <time>2019-08-16T15:00:17Z</time>
      </trkpt>
      <trkpt lat="47.97238" lon="6.77258">
        <ele>862.780945</ele>
        <time>2019-08-16T15:00:18Z</time>
      </trkpt>
      <trkpt lat="47.97238" lon="6.77251">
        <ele>862.77887</ele>
        <time>2019-08-16T15:00:19Z</time>
      </trkpt>
      <trkpt lat="47.97238" lon="6.77243">
        <ele>862.788879</ele>
        <time>2019-08-16T15:00:20Z</time>
      </trkpt>
      <trkpt lat="47.97239" lon="6.77235">
        <ele>862.817627</ele>
        <time>2019-08-16T15:00:21Z</time>
      </trkpt>
      <trkpt lat="47.9724" lon="6.77227">
        <ele>862.83783</ele>
        <time>2019-08-16T15:00:22Z</time>
      </trkpt>
      <trkpt lat="47.97241" lon="6.77218">
        <ele>862.862366</ele>
        <time>2019-08-16T15:00:23Z</time>
      </trkpt>
      <trkpt lat="47.97242" lon="6.7721">
        <ele>862.86908</ele>
        <time>2019-08-16T15:00:24Z</time>
      </trkpt>
      <trkpt lat="47.97244" lon="6.77202">
        <ele>862.866272</ele>
        <time>2019-08-16T15:00:25Z</time>
      </trkpt>
      <trkpt lat="47.97245" lon="6.77195">
        <ele>862.849182</ele>
        <time>2019-08-16T15:00:26Z</time>
      </trkpt>
      <trkpt lat="47.97247" lon="6.77187">
        <ele>862.793213</ele>
        <time>2019-08-16T15:00:27Z</time>
      </trkpt>
      <trkpt lat="47.97249" lon="6.7718">
        <ele>862.745056</ele>
        <time>2019-08-16T15:00:28Z</time>
      </trkpt>
      <trkpt lat="47.97252" lon="6.77172">
        <ele>862.686768</ele>
        <time>2019-08-16T15:00:29Z</time>
      </trkpt>
      <trkpt lat="47.97254" lon="6.77165">
        <ele>862.57489</ele>
        <time>2019-08-16T15:00:30Z</time>
      </trkpt>
      <trkpt lat="47.97258" lon="6.77158">
        <ele>862.47876</ele>
        <time>2019-08-16T15:00:31Z</time>
      </trkpt>
      <trkpt lat="47.97261" lon="6.77151">
        <ele>862.292786</ele>
        <time>2019-08-16T15:00:32Z</time>
      </trkpt>
      <trkpt lat="47.97265" lon="6.77144">
        <ele>862.14209</ele>
        <time>2019-08-16T15:00:33Z</time>
      </trkpt>
      <trkpt lat="47.97268" lon="6.77137">
        <ele>861.903809</ele>
        <time>2019-08-16T15:00:34Z</time>
      </trkpt>
      <trkpt lat="47.97273" lon="6.77132">
        <ele>861.745605</ele>
        <time>2019-08-16T15:00:35Z</time>
      </trkpt>
      <trkpt lat="47.97278" lon="6.77126">
        <ele>861.510681</ele>
        <time>2019-08-16T15:00:36Z</time>
      </trkpt>
      <trkpt lat="47.97281" lon="6.77121">
        <ele>861.363586</ele>
        <time>2019-08-16T15:00:37Z</time>
      </trkpt>
      <trkpt lat="47.97285" lon="6.77116">
        <ele>861.236755</ele>
        <time>2019-08-16T15:00:38Z</time>
      </trkpt>
      <trkpt lat="47.97289" lon="6.77111">
        <ele>861.083557</ele>
        <time>2019-08-16T15:00:39Z</time>
      </trkpt>
      <trkpt lat="47.97294" lon="6.77106">
        <ele>860.99884</ele>
        <time>2019-08-16T15:00:40Z</time>
      </trkpt>
      <trkpt lat="47.97297" lon="6.77101">
        <ele>860.907227</ele>
        <time>2019-08-16T15:00:41Z</time>
      </trkpt>
      <trkpt lat="47.973" lon="6.77095">
        <ele>860.87207</ele>
        <time>2019-08-16T15:00:42Z</time>
      </trkpt>
      <trkpt lat="47.97304" lon="6.77089">
        <ele>860.840027</ele>
        <time>2019-08-16T15:00:43Z</time>
      </trkpt>
      <trkpt lat="47.97308" lon="6.77083">
        <ele>860.815735</ele>
        <time>2019-08-16T15:00:44Z</time>
      </trkpt>
      <trkpt lat="47.97311" lon="6.77077">
        <ele>860.765869</ele>
        <time>2019-08-16T15:00:45Z</time>
      </trkpt>
      <trkpt lat="47.97315" lon="6.77072">
        <ele>860.726318</ele>
        <time>2019-08-16T15:00:46Z</time>
      </trkpt>
      <trkpt lat="47.97318" lon="6.77066">
        <ele>860.687256</ele>
        <time>2019-08-16T15:00:47Z</time>
      </trkpt>
      <trkpt lat="47.97322" lon="6.77061">
        <ele>860.622253</ele>
        <time>2019-08-16T15:00:48Z</time>
      </trkpt>
      <trkpt lat="47.97326" lon="6.77057">
        <ele>860.580627</ele>
        <time>2019-08-16T15:00:49Z</time>
      </trkpt>
      <trkpt lat="47.97331" lon="6.77053">
        <ele>860.54834</ele>
        <time>2019-08-16T15:00:50Z</time>
      </trkpt>
      <trkpt lat="47.97335" lon="6.77049">
        <ele>860.545654</ele>
        <time>2019-08-16T15:00:51Z</time>
      </trkpt>
      <trkpt lat="47.97339" lon="6.77045">
        <ele>860.552795</ele>
        <time>2019-08-16T15:00:52Z</time>
      </trkpt>
      <trkpt lat="47.97344" lon="6.77041">
        <ele>860.563538</ele>
        <time>2019-08-16T15:00:53Z</time>
      </trkpt>
      <trkpt lat="47.97349" lon="6.77037">
        <ele>860.5979</ele>
        <time>2019-08-16T15:00:54Z</time>
      </trkpt>
      <trkpt lat="47.97353" lon="6.77033">
        <ele>860.635803</ele>
        <time>2019-08-16T15:00:55Z</time>
      </trkpt>
      <trkpt lat="47.97358" lon="6.77029">
        <ele>860.682922</ele>
        <time>2019-08-16T15:00:56Z</time>
      </trkpt>
      <trkpt lat="47.97363" lon="6.77024">
        <ele>860.725403</ele>
        <time>2019-08-16T15:00:57Z</time>
      </trkpt>
      <trkpt lat="47.97368" lon="6.7702">
        <ele>860.760681</ele>
        <time>2019-08-16T15:00:58Z</time>
      </trkpt>
      <trkpt lat="47.97372" lon="6.77016">
        <ele>860.802185</ele>
        <time>2019-08-16T15:00:59Z</time>
      </trkpt>
      <trkpt lat="47.97377" lon="6.77013">
        <ele>860.827942</ele>
        <time>2019-08-16T15:01:00Z</time>
      </trkpt>
      <trkpt lat="47.97383" lon="6.7701">
        <ele>860.865662</ele>
        <time>2019-08-16T15:01:01Z</time>
      </trkpt>
      <trkpt lat="47.97388" lon="6.77007">
        <ele>860.89447</ele>
        <time>2019-08-16T15:01:02Z</time>
      </trkpt>
      <trkpt lat="47.97393" lon="6.77004">
        <ele>860.943604</ele>
        <time>2019-08-16T15:01:03Z</time>
      </trkpt>
      <trkpt lat="47.97398" lon="6.77001">
        <ele>860.991272</ele>
        <time>2019-08-16T15:01:04Z</time>
      </trkpt>
      <trkpt lat="47.97403" lon="6.76999">
        <ele>861.111511</ele>
        <time>2019-08-16T15:01:05Z</time>
      </trkpt>
      <trkpt lat="47.97408" lon="6.76996">
        <ele>861.228271</ele>
        <time>2019-08-16T15:01:06Z</time>
      </trkpt>
      <trkpt lat="47.97412" lon="6.76994">
        <ele>861.45343</ele>
        <time>2019-08-16T15:01:07Z</time>
      </trkpt>
      <trkpt lat="47.97416" lon="6.76991">
        <ele>861.625793</ele>
        <time>2019-08-16T15:01:08Z</time>
      </trkpt>
      <trkpt lat="47.97421" lon="6.76989">
        <ele>861.800842</ele>
        <time>2019-08-16T15:01:09Z</time>
      </trkpt>
      <trkpt lat="47.97426" lon="6.76987">
        <ele>862.034973</ele>
        <time>2019-08-16T15:01:10Z</time>
      </trkpt>
      <trkpt lat="47.97431" lon="6.76986">
        <ele>862.156494</ele>
        <time>2019-08-16T15:01:11Z</time>
      </trkpt>
      <trkpt lat="47.97436" lon="6.76985">
        <ele>862.286133</ele>
        <time>2019-08-16T15:01:12Z</time>
      </trkpt>
      <trkpt lat="47.9744" lon="6.76986">
        <ele>862.342773</ele>
        <time>2019-08-16T15:01:13Z</time>
      </trkpt>
      <trkpt lat="47.97445" lon="6.76987">
        <ele>862.38446</ele>
        <time>2019-08-16T15:01:14Z</time>
      </trkpt>
      <trkpt lat="47.9745" lon="6.76988">
        <ele>862.389404</ele>
        <time>2019-08-16T15:01:15Z</time>
      </trkpt>
      <trkpt lat="47.97455" lon="6.76989">
        <ele>862.392273</ele>
        <time>2019-08-16T15:01:16Z</time>
      </trkpt>
      <trkpt lat="47.97459" lon="6.7699">
        <ele>862.400879</ele>
        <time>2019-08-16T15:01:17Z</time>
      </trkpt>
      <trkpt lat="47.97464" lon="6.76992">
        <ele>862.421448</ele>
        <time>2019-08-16T15:01:18Z</time>
      </trkpt>
      <trkpt lat="47.97469" lon="6.76993">
        <ele>862.466309</ele>
        <time>2019-08-16T15:01:19Z</time>
      </trkpt>
      <trkpt lat="47.97472" lon="6.76996">
        <ele>862.499268</ele>
        <time>2019-08-16T15:01:20Z</time>
      </trkpt>
      <trkpt lat="47.97475" lon="6.76998">
        <ele>862.556702</ele>
        <time>2019-08-16T15:01:21Z</time>
      </trkpt>
      <trkpt lat="47.97478" lon="6.77001">
        <ele>862.609558</ele>
        <time>2019-08-16T15:01:22Z</time>
      </trkpt>
      <trkpt lat="47.9748" lon="6.77002">
        <ele>862.714844</ele>
        <time>2019-08-16T15:01:23Z</time>
      </trkpt>
      <trkpt lat="47.97483" lon="6.77003">
        <ele>862.812012</ele>
        <time>2019-08-16T15:01:24Z</time>
      </trkpt>
      <trkpt lat="47.97486" lon="6.77005">
        <ele>863.006836</ele>
        <time>2019-08-16T15:01:25Z</time>
      </trkpt>
      <trkpt lat="47.97489" lon="6.77007">
        <ele>863.165771</ele>
        <time>2019-08-16T15:01:26Z</time>
      </trkpt>
      <trkpt lat="47.97492" lon="6.77009">
        <ele>863.409912</ele>
        <time>2019-08-16T15:01:27Z</time>
      </trkpt>
      <trkpt lat="47.97495" lon="6.7701">
        <ele>863.563416</ele>
        <time>2019-08-16T15:01:28Z</time>
      </trkpt>
      <trkpt lat="47.97498" lon="6.77012">
        <ele>863.710388</ele>
        <time>2019-08-16T15:01:29Z</time>
      </trkpt>
      <trkpt lat="47.97501" lon="6.77013">
        <ele>863.915283</ele>
        <time>2019-08-16T15:01:30Z</time>
      </trkpt>
      <trkpt lat="47.97503" lon="6.77015">
        <ele>864.036621</ele>
        <time>2019-08-16T15:01:31Z</time>
      </trkpt>
      <trkpt lat="47.97506" lon="6.77016">
        <ele>864.197205</ele>
        <time>2019-08-16T15:01:32Z</time>
      </trkpt>
      <trkpt lat="47.97509" lon="6.77018">
        <ele>864.296448</ele>
        <time>2019-08-16T15:01:33Z</time>
      </trkpt>
      <trkpt lat="47.97511" lon="6.7702">
        <ele>864.458679</ele>
        <time>2019-08-16T15:01:34Z</time>
      </trkpt>
      <trkpt lat="47.97514" lon="6.77022">
        <ele>864.580627</ele>
        <time>2019-08-16T15:01:35Z</time>
      </trkpt>
      <trkpt lat="47.97517" lon="6.77025">
        <ele>864.773376</ele>
        <time>2019-08-16T15:01:36Z</time>
      </trkpt>
      <trkpt lat="47.9752" lon="6.77028">
        <ele>864.89386</ele>
        <time>2019-08-16T15:01:37Z</time>
      </trkpt>
      <trkpt lat="47.97523" lon="6.7703">
        <ele>865.05426</ele>
        <time>2019-08-16T15:01:38Z</time>
      </trkpt>
      <trkpt lat="47.97527" lon="6.77032">
        <ele>865.141663</ele>
        <time>2019-08-16T15:01:39Z</time>
      </trkpt>
      <trkpt lat="47.97531" lon="6.77033">
        <ele>865.210754</ele>
        <time>2019-08-16T15:01:40Z</time>
      </trkpt>
      <trkpt lat="47.97535" lon="6.77033">
        <ele>865.269226</ele>
        <time>2019-08-16T15:01:41Z</time>
      </trkpt>
      <trkpt lat="47.97538" lon="6.77033">
        <ele>865.278381</ele>
        <time>2019-08-16T15:01:42Z</time>
      </trkpt>
      <trkpt lat="47.97542" lon="6.77033">
        <ele>865.283752</ele>
        <time>2019-08-16T15:01:43Z</time>
      </trkpt>
      <trkpt lat="47.97545" lon="6.77032">
        <ele>865.289612</ele>
        <time>2019-08-16T15:01:44Z</time>
      </trkpt>
      <trkpt lat="47.97549" lon="6.77032">
        <ele>865.328796</ele>
        <time>2019-08-16T15:01:45Z</time>
      </trkpt>
      <trkpt lat="47.97553" lon="6.77031">
        <ele>865.377869</ele>
        <time>2019-08-16T15:01:46Z</time>
      </trkpt>
      <trkpt lat="47.97556" lon="6.7703">
        <ele>865.47052</ele>
        <time>2019-08-16T15:01:47Z</time>
      </trkpt>
      <trkpt lat="47.97559" lon="6.77027">
        <ele>865.539795</ele>
        <time>2019-08-16T15:01:48Z</time>
      </trkpt>
      <trkpt lat="47.97561" lon="6.77023">
        <ele>865.650146</ele>
        <time>2019-08-16T15:01:49Z</time>
      </trkpt>
      <trkpt lat="47.97564" lon="6.77019">
        <ele>865.715149</ele>
        <time>2019-08-16T15:01:50Z</time>
      </trkpt>
      <trkpt lat="47.97567" lon="6.77015">
        <ele>865.764465</ele>
        <time>2019-08-16T15:01:51Z</time>
      </trkpt>
      <trkpt lat="47.97569" lon="6.77011">
        <ele>865.818298</ele>
        <time>2019-08-16T15:01:52Z</time>
      </trkpt>
      <trkpt lat="47.97572" lon="6.77006">
        <ele>865.857727</ele>
        <time>2019-08-16T15:01:53Z</time>
      </trkpt>
      <trkpt lat="47.97575" lon="6.77002">
        <ele>865.931641</ele>
        <time>2019-08-16T15:01:54Z</time>
      </trkpt>
      <trkpt lat="47.97578" lon="6.76998">
        <ele>865.973083</ele>
        <time>2019-08-16T15:01:55Z</time>
      </trkpt>
      <trkpt lat="47.97581" lon="6.76996">
        <ele>866.010254</ele>
        <time>2019-08-16T15:01:56Z</time>
      </trkpt>
      <trkpt lat="47.97584" lon="6.76994">
        <ele>866.020508</ele>
        <time>2019-08-16T15:01:57Z</time>
      </trkpt>
      <trkpt lat="47.97586" lon="6.76994">
        <ele>866.031494</ele>
        <time>2019-08-16T15:01:58Z</time>
      </trkpt>
      <trkpt lat="47.97588" lon="6.76993">
        <ele>866.100281</ele>
        <time>2019-08-16T15:01:59Z</time>
      </trkpt>
      <trkpt lat="47.9759" lon="6.76992">
        <ele>866.184143</ele>
        <time>2019-08-16T15:02:00Z</time>
      </trkpt>
      <trkpt lat="47.97591" lon="6.76991">
        <ele>866.370117</ele>
        <time>2019-08-16T15:02:01Z</time>
      </trkpt>
      <trkpt lat="47.97592" lon="6.7699">
        <ele>866.540039</ele>
        <time>2019-08-16T15:02:02Z</time>
      </trkpt>
      <trkpt lat="47.97593" lon="6.76989">
        <ele>867.385986</ele>
        <time>2019-08-16T15:02:04Z</time>
      </trkpt>
      <trkpt lat="47.97594" lon="6.76988">
        <ele>867.764648</ele>
        <time>2019-08-16T15:02:06Z</time>
      </trkpt>
      <trkpt lat="47.97595" lon="6.76987">
        <ele>868.000732</ele>
        <time>2019-08-16T15:02:07Z</time>
      </trkpt>
      <trkpt lat="47.97596" lon="6.76985">
        <ele>868.331787</ele>
        <time>2019-08-16T15:02:08Z</time>
      </trkpt>
      <trkpt lat="47.97597" lon="6.76983">
        <ele>868.541687</ele>
        <time>2019-08-16T15:02:09Z</time>
      </trkpt>
      <trkpt lat="47.97598" lon="6.7698">
        <ele>868.840149</ele>
        <time>2019-08-16T15:02:10Z</time>
      </trkpt>
      <trkpt lat="47.97599" lon="6.76977">
        <ele>869.031067</ele>
        <time>2019-08-16T15:02:11Z</time>
      </trkpt>
      <trkpt lat="47.97599" lon="6.76973">
        <ele>869.302551</ele>
        <time>2019-08-16T15:02:12Z</time>
      </trkpt>
      <trkpt lat="47.976" lon="6.7697">
        <ele>869.47467</ele>
        <time>2019-08-16T15:02:13Z</time>
      </trkpt>
      <trkpt lat="47.976" lon="6.76967">
        <ele>869.634766</ele>
        <time>2019-08-16T15:02:14Z</time>
      </trkpt>
      <trkpt lat="47.97601" lon="6.76963">
        <ele>869.847229</ele>
        <time>2019-08-16T15:02:15Z</time>
      </trkpt>
      <trkpt lat="47.97603" lon="6.76959">
        <ele>869.97168</ele>
        <time>2019-08-16T15:02:16Z</time>
      </trkpt>
      <trkpt lat="47.97603" lon="6.76955">
        <ele>870.127625</ele>
        <time>2019-08-16T15:02:17Z</time>
      </trkpt>
      <trkpt lat="47.97604" lon="6.7695">
        <ele>870.211365</ele>
        <time>2019-08-16T15:02:18Z</time>
      </trkpt>
      <trkpt lat="47.97605" lon="6.76945">
        <ele>870.301086</ele>
        <time>2019-08-16T15:02:19Z</time>
      </trkpt>
      <trkpt lat="47.97606" lon="6.76939">
        <ele>870.32074</ele>
        <time>2019-08-16T15:02:20Z</time>
      </trkpt>
      <trkpt lat="47.97607" lon="6.76932">
        <ele>870.317688</ele>
        <time>2019-08-16T15:02:21Z</time>
      </trkpt>
      <trkpt lat="47.97607" lon="6.76927">
        <ele>870.283508</ele>
        <time>2019-08-16T15:02:22Z</time>
      </trkpt>
      <trkpt lat="47.97609" lon="6.76922">
        <ele>870.181091</ele>
        <time>2019-08-16T15:02:23Z</time>
      </trkpt>
      <trkpt lat="47.97609" lon="6.76917">
        <ele>870.085144</ele>
        <time>2019-08-16T15:02:24Z</time>
      </trkpt>
      <trkpt lat="47.9761" lon="6.76914">
        <ele>869.928223</ele>
        <time>2019-08-16T15:02:25Z</time>
      </trkpt>
      <trkpt lat="47.9761" lon="6.76911">
        <ele>869.841614</ele>
        <time>2019-08-16T15:02:26Z</time>
      </trkpt>
      <trkpt lat="47.97611" lon="6.76907">
        <ele>869.788757</ele>
        <time>2019-08-16T15:02:27Z</time>
      </trkpt>
      <trkpt lat="47.97613" lon="6.769">
        <ele>869.748596</ele>
        <time>2019-08-16T15:02:28Z</time>
      </trkpt>
      <trkpt lat="47.97616" lon="6.76893">
        <ele>869.72699</ele>
        <time>2019-08-16T15:02:29Z</time>
      </trkpt>
      <trkpt lat="47.9762" lon="6.76887">
        <ele>869.676208</ele>
        <time>2019-08-16T15:02:30Z</time>
      </trkpt>
      <trkpt lat="47.97623" lon="6.76883">
        <ele>869.616943</ele>
        <time>2019-08-16T15:02:31Z</time>
      </trkpt>
      <trkpt lat="47.97625" lon="6.76879">
        <ele>869.468262</ele>
        <time>2019-08-16T15:02:32Z</time>
      </trkpt>
      <trkpt lat="47.97626" lon="6.76875">
        <ele>869.342834</ele>
        <time>2019-08-16T15:02:33Z</time>
      </trkpt>
      <trkpt lat="47.97625" lon="6.76872">
        <ele>869.161133</ele>
        <time>2019-08-16T15:02:34Z</time>
      </trkpt>
      <trkpt lat="47.97624" lon="6.7687">
        <ele>869.089294</ele>
        <time>2019-08-16T15:02:35Z</time>
      </trkpt>
      <trkpt lat="47.97624" lon="6.76867">
        <ele>869.076904</ele>
        <time>2019-08-16T15:02:36Z</time>
      </trkpt>
      <trkpt lat="47.97625" lon="6.76862">
        <ele>869.099915</ele>
        <time>2019-08-16T15:02:37Z</time>
      </trkpt>
      <trkpt lat="47.97627" lon="6.76857">
        <ele>869.176697</ele>
        <time>2019-08-16T15:02:38Z</time>
      </trkpt>
      <trkpt lat="47.97629" lon="6.7685">
        <ele>869.299866</ele>
        <time>2019-08-16T15:02:39Z</time>
      </trkpt>
      <trkpt lat="47.97632" lon="6.76843">
        <ele>869.34082</ele>
        <time>2019-08-16T15:02:40Z</time>
      </trkpt>
      <trkpt lat="47.97634" lon="6.76836">
        <ele>869.335693</ele>
        <time>2019-08-16T15:02:41Z</time>
      </trkpt>
      <trkpt lat="47.97636" lon="6.76829">
        <ele>869.259705</ele>
        <time>2019-08-16T15:02:42Z</time>
      </trkpt>
      <trkpt lat="47.97639" lon="6.76823">
        <ele>868.969299</ele>
        <time>2019-08-16T15:02:43Z</time>
      </trkpt>
      <trkpt lat="47.9764" lon="6.76816">
        <ele>868.670715</ele>
        <time>2019-08-16T15:02:44Z</time>
      </trkpt>
      <trkpt lat="47.97642" lon="6.76809">
        <ele>868.08197</ele>
        <time>2019-08-16T15:02:45Z</time>
      </trkpt>
      <trkpt lat="47.97644" lon="6.76801">
        <ele>867.618103</ele>
        <time>2019-08-16T15:02:46Z</time>
      </trkpt>
      <trkpt lat="47.97646" lon="6.76793">
        <ele>866.873352</ele>
        <time>2019-08-16T15:02:47Z</time>
      </trkpt>
      <trkpt lat="47.97646" lon="6.76785">
        <ele>866.354919</ele>
        <time>2019-08-16T15:02:48Z</time>
      </trkpt>
      <trkpt lat="47.97646" lon="6.76778">
        <ele>865.820862</ele>
        <time>2019-08-16T15:02:49Z</time>
      </trkpt>
      <trkpt lat="47.97646" lon="6.7677">
        <ele>864.998047</ele>
        <time>2019-08-16T15:02:50Z</time>
      </trkpt>
      <trkpt lat="47.97646" lon="6.76763">
        <ele>864.446716</ele>
        <time>2019-08-16T15:02:51Z</time>
      </trkpt>
      <trkpt lat="47.97646" lon="6.76754">
        <ele>863.629822</ele>
        <time>2019-08-16T15:02:52Z</time>
      </trkpt>
      <trkpt lat="47.97646" lon="6.76745">
        <ele>863.098572</ele>
        <time>2019-08-16T15:02:53Z</time>
      </trkpt>
      <trkpt lat="47.97646" lon="6.76736">
        <ele>862.316833</ele>
        <time>2019-08-16T15:02:54Z</time>
      </trkpt>
      <trkpt lat="47.97646" lon="6.76727">
        <ele>861.808533</ele>
        <time>2019-08-16T15:02:55Z</time>
      </trkpt>
      <trkpt lat="47.97647" lon="6.7672">
        <ele>861.071594</ele>
        <time>2019-08-16T15:02:56Z</time>
      </trkpt>
      <trkpt lat="47.97649" lon="6.76715">
        <ele>860.839172</ele>
        <time>2019-08-16T15:02:57Z</time>
      </trkpt>
      <trkpt lat="47.97651" lon="6.7671">
        <ele>860.615723</ele>
        <time>2019-08-16T15:02:58Z</time>
      </trkpt>
      <trkpt lat="47.97653" lon="6.76704">
        <ele>859.981628</ele>
        <time>2019-08-16T15:02:59Z</time>
      </trkpt>
      <trkpt lat="47.97654" lon="6.76698">
        <ele>859.575623</ele>
        <time>2019-08-16T15:03:00Z</time>
      </trkpt>
      <trkpt lat="47.97655" lon="6.76692">
        <ele>859.00293</ele>
        <time>2019-08-16T15:03:01Z</time>
      </trkpt>
      <trkpt lat="47.97656" lon="6.76686">
        <ele>858.692871</ele>
        <time>2019-08-16T15:03:02Z</time>
      </trkpt>
      <trkpt lat="47.97655" lon="6.7668">
        <ele>858.392761</ele>
        <time>2019-08-16T15:03:03Z</time>
      </trkpt>
      <trkpt lat="47.97656" lon="6.76674">
        <ele>858.285645</ele>
        <time>2019-08-16T15:03:04Z</time>
      </trkpt>
      <trkpt lat="47.97656" lon="6.76668">
        <ele>858.222168</ele>
        <time>2019-08-16T15:03:05Z</time>
      </trkpt>
      <trkpt lat="47.97656" lon="6.76661">
        <ele>858.222168</ele>
        <time>2019-08-16T15:03:06Z</time>
      </trkpt>
      <trkpt lat="47.97657" lon="6.76653">
        <ele>858.26123</ele>
        <time>2019-08-16T15:03:07Z</time>
      </trkpt>
      <trkpt lat="47.97658" lon="6.76645">
        <ele>858.322571</ele>
        <time>2019-08-16T15:03:08Z</time>
      </trkpt>
      <trkpt lat="47.97659" lon="6.76635">
        <ele>858.370117</ele>
        <time>2019-08-16T15:03:09Z</time>
      </trkpt>
      <trkpt lat="47.9766" lon="6.76625">
        <ele>858.381165</ele>
        <time>2019-08-16T15:03:10Z</time>
      </trkpt>
      <trkpt lat="47.9766" lon="6.76615">
        <ele>858.369324</ele>
        <time>2019-08-16T15:03:11Z</time>
      </trkpt>
      <trkpt lat="47.97662" lon="6.76605">
        <ele>858.244202</ele>
        <time>2019-08-16T15:03:12Z</time>
      </trkpt>
      <trkpt lat="47.97662" lon="6.76594">
        <ele>858.077637</ele>
        <time>2019-08-16T15:03:13Z</time>
      </trkpt>
      <trkpt lat="47.97664" lon="6.76583">
        <ele>857.669739</ele>
        <time>2019-08-16T15:03:14Z</time>
      </trkpt>
      <trkpt lat="47.97665" lon="6.76573">
        <ele>857.303162</ele>
        <time>2019-08-16T15:03:15Z</time>
      </trkpt>
      <trkpt lat="47.97667" lon="6.76564">
        <ele>856.651917</ele>
        <time>2019-08-16T15:03:16Z</time>
      </trkpt>
      <trkpt lat="47.97666" lon="6.76555">
        <ele>856.193054</ele>
        <time>2019-08-16T15:03:17Z</time>
      </trkpt>
      <trkpt lat="47.97665" lon="6.76548">
        <ele>855.513672</ele>
        <time>2019-08-16T15:03:18Z</time>
      </trkpt>
      <trkpt lat="47.97665" lon="6.7654">
        <ele>855.078064</ele>
        <time>2019-08-16T15:03:19Z</time>
      </trkpt>
      <trkpt lat="47.97664" lon="6.76531">
        <ele>854.662598</ele>
        <time>2019-08-16T15:03:20Z</time>
      </trkpt>
      <trkpt lat="47.97663" lon="6.76522">
        <ele>854.064453</ele>
        <time>2019-08-16T15:03:21Z</time>
      </trkpt>
      <trkpt lat="47.97661" lon="6.76514">
        <ele>853.68219</ele>
        <time>2019-08-16T15:03:22Z</time>
      </trkpt>
      <trkpt lat="47.97659" lon="6.76506">
        <ele>853.102051</ele>
        <time>2019-08-16T15:03:23Z</time>
      </trkpt>
      <trkpt lat="47.97656" lon="6.76498">
        <ele>852.67627</ele>
        <time>2019-08-16T15:03:24Z</time>
      </trkpt>
      <trkpt lat="47.97656" lon="6.76492">
        <ele>851.978516</ele>
        <time>2019-08-16T15:03:25Z</time>
      </trkpt>
      <trkpt lat="47.97656" lon="6.76485">
        <ele>851.505188</ele>
        <time>2019-08-16T15:03:26Z</time>
      </trkpt>
      <trkpt lat="47.97657" lon="6.76477">
        <ele>850.854919</ele>
        <time>2019-08-16T15:03:27Z</time>
      </trkpt>
      <trkpt lat="47.97658" lon="6.7647">
        <ele>850.477722</ele>
        <time>2019-08-16T15:03:28Z</time>
      </trkpt>
      <trkpt lat="47.97659" lon="6.76462">
        <ele>849.991516</ele>
        <time>2019-08-16T15:03:29Z</time>
      </trkpt>
      <trkpt lat="47.97659" lon="6.76455">
        <ele>849.728333</ele>
        <time>2019-08-16T15:03:30Z</time>
      </trkpt>
      <trkpt lat="47.97659" lon="6.76448">
        <ele>849.528625</ele>
        <time>2019-08-16T15:03:31Z</time>
      </trkpt>
      <trkpt lat="47.97659" lon="6.76441">
        <ele>849.33905</ele>
        <time>2019-08-16T15:03:32Z</time>
      </trkpt>
      <trkpt lat="47.97659" lon="6.76434">
        <ele>849.251953</ele>
        <time>2019-08-16T15:03:33Z</time>
      </trkpt>
      <trkpt lat="47.97659" lon="6.76426">
        <ele>849.117737</ele>
        <time>2019-08-16T15:03:34Z</time>
      </trkpt>
      <trkpt lat="47.9766" lon="6.7642">
        <ele>849.016663</ele>
        <time>2019-08-16T15:03:35Z</time>
      </trkpt>
      <trkpt lat="47.97659" lon="6.76413">
        <ele>848.875488</ele>
        <time>2019-08-16T15:03:36Z</time>
      </trkpt>
      <trkpt lat="47.9766" lon="6.76406">
        <ele>848.802917</ele>
        <time>2019-08-16T15:03:37Z</time>
      </trkpt>
      <trkpt lat="47.97659" lon="6.76399">
        <ele>848.712708</ele>
        <time>2019-08-16T15:03:38Z</time>
      </trkpt>
      <trkpt lat="47.97659" lon="6.76392">
        <ele>848.655273</ele>
        <time>2019-08-16T15:03:39Z</time>
      </trkpt>
      <trkpt lat="47.97659" lon="6.76384">
        <ele>848.607361</ele>
        <time>2019-08-16T15:03:40Z</time>
      </trkpt>
      <trkpt lat="47.97659" lon="6.76377">
        <ele>848.570496</ele>
        <time>2019-08-16T15:03:41Z</time>
      </trkpt>
      <trkpt lat="47.97659" lon="6.7637">
        <ele>848.561218</ele>
        <time>2019-08-16T15:03:42Z</time>
      </trkpt>
      <trkpt lat="47.97659" lon="6.76362">
        <ele>848.529968</ele>
        <time>2019-08-16T15:03:43Z</time>
      </trkpt>
      <trkpt lat="47.97659" lon="6.76355">
        <ele>848.487122</ele>
        <time>2019-08-16T15:03:44Z</time>
      </trkpt>
      <trkpt lat="47.97659" lon="6.76347">
        <ele>848.416687</ele>
        <time>2019-08-16T15:03:45Z</time>
      </trkpt>
      <trkpt lat="47.97659" lon="6.7634">
        <ele>848.376892</ele>
        <time>2019-08-16T15:03:46Z</time>
      </trkpt>
      <trkpt lat="47.97658" lon="6.76332">
        <ele>848.322266</ele>
        <time>2019-08-16T15:03:47Z</time>
      </trkpt>
      <trkpt lat="47.97658" lon="6.76325">
        <ele>848.289978</ele>
        <time>2019-08-16T15:03:48Z</time>
      </trkpt>
      <trkpt lat="47.97657" lon="6.76317">
        <ele>848.264404</ele>
        <time>2019-08-16T15:03:49Z</time>
      </trkpt>
      <trkpt lat="47.97656" lon="6.76309">
        <ele>848.259094</ele>
        <time>2019-08-16T15:03:50Z</time>
      </trkpt>
      <trkpt lat="47.97655" lon="6.763">
        <ele>848.236755</ele>
        <time>2019-08-16T15:03:51Z</time>
      </trkpt>
      <trkpt lat="47.97654" lon="6.76291">
        <ele>848.198425</ele>
        <time>2019-08-16T15:03:52Z</time>
      </trkpt>
      <trkpt lat="47.97654" lon="6.76282">
        <ele>848.135681</ele>
        <time>2019-08-16T15:03:53Z</time>
      </trkpt>
      <trkpt lat="47.97653" lon="6.76274">
        <ele>847.994141</ele>
        <time>2019-08-16T15:03:54Z</time>
      </trkpt>
      <trkpt lat="47.97652" lon="6.76266">
        <ele>847.874939</ele>
        <time>2019-08-16T15:03:55Z</time>
      </trkpt>
      <trkpt lat="47.97651" lon="6.76258">
        <ele>847.680481</ele>
        <time>2019-08-16T15:03:56Z</time>
      </trkpt>
      <trkpt lat="47.97649" lon="6.7625">
        <ele>847.539734</ele>
        <time>2019-08-16T15:03:57Z</time>
      </trkpt>
      <trkpt lat="47.97648" lon="6.76243">
        <ele>847.396423</ele>
        <time>2019-08-16T15:03:58Z</time>
      </trkpt>
      <trkpt lat="47.97646" lon="6.76235">
        <ele>847.262207</ele>
        <time>2019-08-16T15:03:59Z</time>
      </trkpt>
      <trkpt lat="47.97646" lon="6.76228">
        <ele>847.11261</ele>
        <time>2019-08-16T15:04:00Z</time>
      </trkpt>
      <trkpt lat="47.97645" lon="6.7622">
        <ele>847.052429</ele>
        <time>2019-08-16T15:04:01Z</time>
      </trkpt>
      <trkpt lat="47.97644" lon="6.76212">
        <ele>847.006653</ele>
        <time>2019-08-16T15:04:02Z</time>
      </trkpt>
      <trkpt lat="47.97643" lon="6.76205">
        <ele>846.941895</ele>
        <time>2019-08-16T15:04:03Z</time>
      </trkpt>
      <trkpt lat="47.97643" lon="6.76198">
        <ele>846.922668</ele>
        <time>2019-08-16T15:04:04Z</time>
      </trkpt>
      <trkpt lat="47.97642" lon="6.76192">
        <ele>846.925293</ele>
        <time>2019-08-16T15:04:05Z</time>
      </trkpt>
      <trkpt lat="47.97641" lon="6.76185">
        <ele>846.954102</ele>
        <time>2019-08-16T15:04:06Z</time>
      </trkpt>
      <trkpt lat="47.9764" lon="6.76179">
        <ele>847.015869</ele>
        <time>2019-08-16T15:04:07Z</time>
      </trkpt>
      <trkpt lat="47.9764" lon="6.76173">
        <ele>847.045715</ele>
        <time>2019-08-16T15:04:08Z</time>
      </trkpt>
      <trkpt lat="47.97639" lon="6.76168">
        <ele>847.082581</ele>
        <time>2019-08-16T15:04:09Z</time>
      </trkpt>
      <trkpt lat="47.97638" lon="6.76162">
        <ele>847.108398</ele>
        <time>2019-08-16T15:04:10Z</time>
      </trkpt>
      <trkpt lat="47.97636" lon="6.76156">
        <ele>847.134583</ele>
        <time>2019-08-16T15:04:11Z</time>
      </trkpt>
      <trkpt lat="47.97635" lon="6.76148">
        <ele>847.134583</ele>
        <time>2019-08-16T15:04:12Z</time>
      </trkpt>
      <trkpt lat="47.97633" lon="6.76139">
        <ele>847.127686</ele>
        <time>2019-08-16T15:04:13Z</time>
      </trkpt>
      <trkpt lat="47.97632" lon="6.76129">
        <ele>847.063782</ele>
        <time>2019-08-16T15:04:14Z</time>
      </trkpt>
      <trkpt lat="47.9763" lon="6.7612">
        <ele>846.972839</ele>
        <time>2019-08-16T15:04:15Z</time>
      </trkpt>
      <trkpt lat="47.97628" lon="6.76111">
        <ele>846.712463</ele>
        <time>2019-08-16T15:04:16Z</time>
      </trkpt>
      <trkpt lat="47.97626" lon="6.76104">
        <ele>846.4505</ele>
        <time>2019-08-16T15:04:17Z</time>
      </trkpt>
      <trkpt lat="47.97625" lon="6.76098">
        <ele>845.981201</ele>
        <time>2019-08-16T15:04:18Z</time>
      </trkpt>
      <trkpt lat="47.97624" lon="6.76093">
        <ele>845.688721</ele>
        <time>2019-08-16T15:04:19Z</time>
      </trkpt>
      <trkpt lat="47.97625" lon="6.76089">
        <ele>845.39325</ele>
        <time>2019-08-16T15:04:20Z</time>
      </trkpt>
      <trkpt lat="47.97625" lon="6.76084">
        <ele>845.318115</ele>
        <time>2019-08-16T15:04:21Z</time>
      </trkpt>
      <trkpt lat="47.97626" lon="6.7608">
        <ele>845.308655</ele>
        <time>2019-08-16T15:04:22Z</time>
      </trkpt>
      <trkpt lat="47.97627" lon="6.76075">
        <ele>845.334534</ele>
        <time>2019-08-16T15:04:23Z</time>
      </trkpt>
      <trkpt lat="47.97629" lon="6.76071">
        <ele>845.383545</ele>
        <time>2019-08-16T15:04:24Z</time>
      </trkpt>
      <trkpt lat="47.9763" lon="6.76066">
        <ele>845.435791</ele>
        <time>2019-08-16T15:04:25Z</time>
      </trkpt>
      <trkpt lat="47.97632" lon="6.7606">
        <ele>845.437744</ele>
        <time>2019-08-16T15:04:26Z</time>
      </trkpt>
      <trkpt lat="47.97633" lon="6.76055">
        <ele>845.413147</ele>
        <time>2019-08-16T15:04:27Z</time>
      </trkpt>
      <trkpt lat="47.97635" lon="6.76049">
        <ele>845.348389</ele>
        <time>2019-08-16T15:04:28Z</time>
      </trkpt>
      <trkpt lat="47.97635" lon="6.76044">
        <ele>845.19696</ele>
        <time>2019-08-16T15:04:29Z</time>
      </trkpt>
      <trkpt lat="47.97636" lon="6.76039">
        <ele>845.05957</ele>
        <time>2019-08-16T15:04:30Z</time>
      </trkpt>
      <trkpt lat="47.97636" lon="6.76033">
        <ele>844.81427</ele>
        <time>2019-08-16T15:04:31Z</time>
      </trkpt>
      <trkpt lat="47.97637" lon="6.76027">
        <ele>844.64032</ele>
        <time>2019-08-16T15:04:32Z</time>
      </trkpt>
      <trkpt lat="47.97638" lon="6.76022">
        <ele>844.46405</ele>
        <time>2019-08-16T15:04:33Z</time>
      </trkpt>
      <trkpt lat="47.9764" lon="6.76017">
        <ele>844.203613</ele>
        <time>2019-08-16T15:04:34Z</time>
      </trkpt>
      <trkpt lat="47.97641" lon="6.76008">
        <ele>844.034485</ele>
        <time>2019-08-16T15:04:35Z</time>
      </trkpt>
      <trkpt lat="47.97641" lon="6.76">
        <ele>843.760254</ele>
        <time>2019-08-16T15:04:36Z</time>
      </trkpt>
      <trkpt lat="47.9764" lon="6.75993">
        <ele>843.513</ele>
        <time>2019-08-16T15:04:37Z</time>
      </trkpt>
      <trkpt lat="47.97639" lon="6.75986">
        <ele>843.009216</ele>
        <time>2019-08-16T15:04:38Z</time>
      </trkpt>
      <trkpt lat="47.97639" lon="6.75981">
        <ele>842.61084</ele>
        <time>2019-08-16T15:04:39Z</time>
      </trkpt>
      <trkpt lat="47.97639" lon="6.75979">
        <ele>842.033142</ele>
        <time>2019-08-16T15:04:40Z</time>
      </trkpt>
      <trkpt lat="47.97639" lon="6.75977">
        <ele>841.719177</ele>
        <time>2019-08-16T15:04:41Z</time>
      </trkpt>
      <trkpt lat="47.97637" lon="6.75973">
        <ele>841.436829</ele>
        <time>2019-08-16T15:04:42Z</time>
      </trkpt>
      <trkpt lat="47.97636" lon="6.75969">
        <ele>841.395081</ele>
        <time>2019-08-16T15:04:43Z</time>
      </trkpt>
      <trkpt lat="47.97634" lon="6.75964">
        <ele>841.395081</ele>
        <time>2019-08-16T15:04:44Z</time>
      </trkpt>
      <trkpt lat="47.97633" lon="6.75958">
        <ele>841.470947</ele>
        <time>2019-08-16T15:04:45Z</time>
      </trkpt>
      <trkpt lat="47.97632" lon="6.75952">
        <ele>841.536377</ele>
        <time>2019-08-16T15:04:46Z</time>
      </trkpt>
      <trkpt lat="47.9763" lon="6.75947">
        <ele>841.580017</ele>
        <time>2019-08-16T15:04:47Z</time>
      </trkpt>
      <trkpt lat="47.9763" lon="6.75943">
        <ele>841.580017</ele>
        <time>2019-08-16T15:04:48Z</time>
      </trkpt>
      <trkpt lat="47.97629" lon="6.7594">
        <ele>841.528137</ele>
        <time>2019-08-16T15:04:49Z</time>
      </trkpt>
      <trkpt lat="47.97629" lon="6.75937">
        <ele>841.447571</ele>
        <time>2019-08-16T15:04:50Z</time>
      </trkpt>
      <trkpt lat="47.97629" lon="6.75934">
        <ele>841.272949</ele>
        <time>2019-08-16T15:04:51Z</time>
      </trkpt>
      <trkpt lat="47.97629" lon="6.7593">
        <ele>841.120667</ele>
        <time>2019-08-16T15:04:52Z</time>
      </trkpt>
      <trkpt lat="47.97629" lon="6.75926">
        <ele>840.818787</ele>
        <time>2019-08-16T15:04:53Z</time>
      </trkpt>
      <trkpt lat="47.97629" lon="6.75923">
        <ele>840.544678</ele>
        <time>2019-08-16T15:04:54Z</time>
      </trkpt>
      <trkpt lat="47.97628" lon="6.75919">
        <ele>840.186768</ele>
        <time>2019-08-16T15:04:55Z</time>
      </trkpt>
      <trkpt lat="47.97628" lon="6.75915">
        <ele>839.493347</ele>
        <time>2019-08-16T15:04:56Z</time>
      </trkpt>
      <trkpt lat="47.97628" lon="6.7591">
        <ele>838.937744</ele>
        <time>2019-08-16T15:04:57Z</time>
      </trkpt>
      <trkpt lat="47.97627" lon="6.75903">
        <ele>838.636902</ele>
        <time>2019-08-16T15:04:58Z</time>
      </trkpt>
      <trkpt lat="47.97628" lon="6.75896">
        <ele>838.636902</ele>
        <time>2019-08-16T15:04:59Z</time>
      </trkpt>
      <trkpt lat="47.97628" lon="6.75889">
        <ele>837.658936</ele>
        <time>2019-08-16T15:05:00Z</time>
      </trkpt>
      <trkpt lat="47.97629" lon="6.75882">
        <ele>836.95929</ele>
        <time>2019-08-16T15:05:01Z</time>
      </trkpt>
      <trkpt lat="47.97628" lon="6.75876">
        <ele>835.868652</ele>
        <time>2019-08-16T15:05:02Z</time>
      </trkpt>
      <trkpt lat="47.97626" lon="6.75871">
        <ele>835.135193</ele>
        <time>2019-08-16T15:05:03Z</time>
      </trkpt>
      <trkpt lat="47.97624" lon="6.75866">
        <ele>834.419983</ele>
        <time>2019-08-16T15:05:04Z</time>
      </trkpt>
      <trkpt lat="47.97622" lon="6.7586">
        <ele>833.389648</ele>
        <time>2019-08-16T15:05:05Z</time>
      </trkpt>
      <trkpt lat="47.9762" lon="6.75854">
        <ele>832.745544</ele>
        <time>2019-08-16T15:05:06Z</time>
      </trkpt>
      <trkpt lat="47.9762" lon="6.75848">
        <ele>831.868469</ele>
        <time>2019-08-16T15:05:07Z</time>
      </trkpt>
      <trkpt lat="47.97621" lon="6.75841">
        <ele>831.342285</ele>
        <time>2019-08-16T15:05:08Z</time>
      </trkpt>
      <trkpt lat="47.97623" lon="6.75833">
        <ele>830.608887</ele>
        <time>2019-08-16T15:05:09Z</time>
      </trkpt>
      <trkpt lat="47.97624" lon="6.75826">
        <ele>830.130066</ele>
        <time>2019-08-16T15:05:10Z</time>
      </trkpt>
      <trkpt lat="47.97623" lon="6.7582">
        <ele>829.390381</ele>
        <time>2019-08-16T15:05:11Z</time>
      </trkpt>
      <trkpt lat="47.97623" lon="6.75815">
        <ele>828.866882</ele>
        <time>2019-08-16T15:05:12Z</time>
      </trkpt>
      <trkpt lat="47.97623" lon="6.75812">
        <ele>828.033508</ele>
        <time>2019-08-16T15:05:13Z</time>
      </trkpt>
      <trkpt lat="47.97623" lon="6.75808">
        <ele>827.45752</ele>
        <time>2019-08-16T15:05:14Z</time>
      </trkpt>
      <trkpt lat="47.97623" lon="6.75805">
        <ele>826.873535</ele>
        <time>2019-08-16T15:05:15Z</time>
      </trkpt>
      <trkpt lat="47.97623" lon="6.75801">
        <ele>825.986328</ele>
        <time>2019-08-16T15:05:16Z</time>
      </trkpt>
      <trkpt lat="47.97623" lon="6.75797">
        <ele>825.396912</ele>
        <time>2019-08-16T15:05:17Z</time>
      </trkpt>
      <trkpt lat="47.97623" lon="6.75794">
        <ele>824.547791</ele>
        <time>2019-08-16T15:05:18Z</time>
      </trkpt>
      <trkpt lat="47.97623" lon="6.75792">
        <ele>824.00592</ele>
        <time>2019-08-16T15:05:19Z</time>
      </trkpt>
      <trkpt lat="47.97624" lon="6.75789">
        <ele>823.231934</ele>
        <time>2019-08-16T15:05:20Z</time>
      </trkpt>
      <trkpt lat="47.97624" lon="6.75786">
        <ele>822.748352</ele>
        <time>2019-08-16T15:05:21Z</time>
      </trkpt>
      <trkpt lat="47.97623" lon="6.75784">
        <ele>822.088806</ele>
        <time>2019-08-16T15:05:22Z</time>
      </trkpt>
      <trkpt lat="47.97622" lon="6.75781">
        <ele>821.693665</ele>
        <time>2019-08-16T15:05:23Z</time>
      </trkpt>
      <trkpt lat="47.97621" lon="6.75778">
        <ele>821.139832</ele>
        <time>2019-08-16T15:05:24Z</time>
      </trkpt>
      <trkpt lat="47.97621" lon="6.75775">
        <ele>820.772034</ele>
        <time>2019-08-16T15:05:25Z</time>
      </trkpt>
      <trkpt lat="47.97622" lon="6.75773">
        <ele>820.387512</ele>
        <time>2019-08-16T15:05:26Z</time>
      </trkpt>
      <trkpt lat="47.97622" lon="6.75769">
        <ele>819.760437</ele>
        <time>2019-08-16T15:05:27Z</time>
      </trkpt>
      <trkpt lat="47.97622" lon="6.75765">
        <ele>819.305725</ele>
        <time>2019-08-16T15:05:28Z</time>
      </trkpt>
      <trkpt lat="47.9762" lon="6.75762">
        <ele>818.599121</ele>
        <time>2019-08-16T15:05:29Z</time>
      </trkpt>
      <trkpt lat="47.97619" lon="6.75758">
        <ele>818.135925</ele>
        <time>2019-08-16T15:05:30Z</time>
      </trkpt>
      <trkpt lat="47.9762" lon="6.75754">
        <ele>817.462708</ele>
        <time>2019-08-16T15:05:31Z</time>
      </trkpt>
      <trkpt lat="47.97622" lon="6.75751">
        <ele>817.022766</ele>
        <time>2019-08-16T15:05:32Z</time>
      </trkpt>
      <trkpt lat="47.97623" lon="6.75749">
        <ele>816.342285</ele>
        <time>2019-08-16T15:05:33Z</time>
      </trkpt>
      <trkpt lat="47.97624" lon="6.75745">
        <ele>815.867981</ele>
        <time>2019-08-16T15:05:34Z</time>
      </trkpt>
      <trkpt lat="47.97625" lon="6.75743">
        <ele>815.133972</ele>
        <time>2019-08-16T15:05:35Z</time>
      </trkpt>
      <trkpt lat="47.97627" lon="6.75739">
        <ele>814.635925</ele>
        <time>2019-08-16T15:05:36Z</time>
      </trkpt>
      <trkpt lat="47.97627" lon="6.75734">
        <ele>814.13446</ele>
        <time>2019-08-16T15:05:37Z</time>
      </trkpt>
      <trkpt lat="47.97627" lon="6.75727">
        <ele>813.405945</ele>
        <time>2019-08-16T15:05:38Z</time>
      </trkpt>
      <trkpt lat="47.97626" lon="6.75719">
        <ele>812.937561</ele>
        <time>2019-08-16T15:05:39Z</time>
      </trkpt>
      <trkpt lat="47.97626" lon="6.7571">
        <ele>812.226563</ele>
        <time>2019-08-16T15:05:40Z</time>
      </trkpt>
      <trkpt lat="47.97625" lon="6.75703">
        <ele>811.717102</ele>
        <time>2019-08-16T15:05:41Z</time>
      </trkpt>
      <trkpt lat="47.97623" lon="6.75698">
        <ele>810.903015</ele>
        <time>2019-08-16T15:05:42Z</time>
      </trkpt>
      <trkpt lat="47.97623" lon="6.75693">
        <ele>810.340149</ele>
        <time>2019-08-16T15:05:43Z</time>
      </trkpt>
      <trkpt lat="47.97622" lon="6.75688">
        <ele>809.500793</ele>
        <time>2019-08-16T15:05:44Z</time>
      </trkpt>
      <trkpt lat="47.97621" lon="6.75683">
        <ele>808.975647</ele>
        <time>2019-08-16T15:05:45Z</time>
      </trkpt>
      <trkpt lat="47.9762" lon="6.75679">
        <ele>808.516357</ele>
        <time>2019-08-16T15:05:46Z</time>
      </trkpt>
      <trkpt lat="47.9762" lon="6.75674">
        <ele>807.953613</ele>
        <time>2019-08-16T15:05:47Z</time>
      </trkpt>
      <trkpt lat="47.9762" lon="6.75671">
        <ele>807.644714</ele>
        <time>2019-08-16T15:05:48Z</time>
      </trkpt>
      <trkpt lat="47.97622" lon="6.75669">
        <ele>807.245117</ele>
        <time>2019-08-16T15:05:49Z</time>
      </trkpt>
      <trkpt lat="47.97623" lon="6.75666">
        <ele>807.01709</ele>
        <time>2019-08-16T15:05:50Z</time>
      </trkpt>
      <trkpt lat="47.97624" lon="6.75663">
        <ele>806.708496</ele>
        <time>2019-08-16T15:05:51Z</time>
      </trkpt>
      <trkpt lat="47.97625" lon="6.75661">
        <ele>806.504395</ele>
        <time>2019-08-16T15:05:52Z</time>
      </trkpt>
      <trkpt lat="47.97627" lon="6.7566">
        <ele>806.194153</ele>
        <time>2019-08-16T15:05:53Z</time>
      </trkpt>
      <trkpt lat="47.97628" lon="6.75658">
        <ele>806.002502</ele>
        <time>2019-08-16T15:05:54Z</time>
      </trkpt>
      <trkpt lat="47.97627" lon="6.75656">
        <ele>805.766052</ele>
        <time>2019-08-16T15:05:55Z</time>
      </trkpt>
      <trkpt lat="47.9762" lon="6.75644">
        <ele>804.826599</ele>
        <time>2019-08-16T15:08:01Z</time>
      </trkpt>
      <trkpt lat="47.97618" lon="6.75639">
        <ele>804.823486</ele>
        <time>2019-08-16T15:08:03Z</time>
      </trkpt>
      <trkpt lat="47.97616" lon="6.75634">
        <ele>804.805481</ele>
        <time>2019-08-16T15:08:04Z</time>
      </trkpt>
      <trkpt lat="47.97615" lon="6.75629">
        <ele>804.760986</ele>
        <time>2019-08-16T15:08:05Z</time>
      </trkpt>
      <trkpt lat="47.97614" lon="6.75625">
        <ele>804.614258</ele>
        <time>2019-08-16T15:08:06Z</time>
      </trkpt>
      <trkpt lat="47.97611" lon="6.7562">
        <ele>804.45343</ele>
        <time>2019-08-16T15:08:07Z</time>
      </trkpt>
      <trkpt lat="47.97607" lon="6.75618">
        <ele>804.248474</ele>
        <time>2019-08-16T15:08:08Z</time>
      </trkpt>
      <trkpt lat="47.97604" lon="6.75619">
        <ele>803.878967</ele>
        <time>2019-08-16T15:08:09Z</time>
      </trkpt>
      <trkpt lat="47.976" lon="6.75623">
        <ele>803.596252</ele>
        <time>2019-08-16T15:08:10Z</time>
      </trkpt>
      <trkpt lat="47.97599" lon="6.7563">
        <ele>803.302551</ele>
        <time>2019-08-16T15:08:11Z</time>
      </trkpt>
      <trkpt lat="47.97598" lon="6.75636">
        <ele>803.003967</ele>
        <time>2019-08-16T15:08:12Z</time>
      </trkpt>
      <trkpt lat="47.97597" lon="6.75642">
        <ele>802.707031</ele>
        <time>2019-08-16T15:08:13Z</time>
      </trkpt>
      <trkpt lat="47.97596" lon="6.75647">
        <ele>802.395813</ele>
        <time>2019-08-16T15:08:14Z</time>
      </trkpt>
      <trkpt lat="47.97596" lon="6.75653">
        <ele>802.069397</ele>
        <time>2019-08-16T15:08:15Z</time>
      </trkpt>
      <trkpt lat="47.97595" lon="6.7566">
        <ele>801.571716</ele>
        <time>2019-08-16T15:08:16Z</time>
      </trkpt>
      <trkpt lat="47.97594" lon="6.75667">
        <ele>801.25238</ele>
        <time>2019-08-16T15:08:17Z</time>
      </trkpt>
      <trkpt lat="47.97593" lon="6.75674">
        <ele>800.951477</ele>
        <time>2019-08-16T15:08:18Z</time>
      </trkpt>
      <trkpt lat="47.97592" lon="6.75681">
        <ele>800.680176</ele>
        <time>2019-08-16T15:08:19Z</time>
      </trkpt>
      <trkpt lat="47.9759" lon="6.75688">
        <ele>800.444763</ele>
        <time>2019-08-16T15:08:20Z</time>
      </trkpt>
      <trkpt lat="47.97589" lon="6.75695">
        <ele>800.229187</ele>
        <time>2019-08-16T15:08:21Z</time>
      </trkpt>
      <trkpt lat="47.97587" lon="6.75702">
        <ele>800.015442</ele>
        <time>2019-08-16T15:08:22Z</time>
      </trkpt>
      <trkpt lat="47.97585" lon="6.75709">
        <ele>799.794434</ele>
        <time>2019-08-16T15:08:23Z</time>
      </trkpt>
      <trkpt lat="47.97583" lon="6.75716">
        <ele>799.570557</ele>
        <time>2019-08-16T15:08:24Z</time>
      </trkpt>
      <trkpt lat="47.97579" lon="6.75723">
        <ele>799.224182</ele>
        <time>2019-08-16T15:08:25Z</time>
      </trkpt>
      <trkpt lat="47.97577" lon="6.75731">
        <ele>798.992493</ele>
        <time>2019-08-16T15:08:26Z</time>
      </trkpt>
      <trkpt lat="47.97574" lon="6.75738">
        <ele>798.760254</ele>
        <time>2019-08-16T15:08:27Z</time>
      </trkpt>
      <trkpt lat="47.97571" lon="6.75746">
        <ele>798.524475</ele>
        <time>2019-08-16T15:08:28Z</time>
      </trkpt>
      <trkpt lat="47.97568" lon="6.75753">
        <ele>798.269714</ele>
        <time>2019-08-16T15:08:29Z</time>
      </trkpt>
      <trkpt lat="47.97565" lon="6.75761">
        <ele>797.995117</ele>
        <time>2019-08-16T15:08:30Z</time>
      </trkpt>
      <trkpt lat="47.97563" lon="6.75769">
        <ele>797.705566</ele>
        <time>2019-08-16T15:08:31Z</time>
      </trkpt>
      <trkpt lat="47.9756" lon="6.75777">
        <ele>797.406067</ele>
        <time>2019-08-16T15:08:32Z</time>
      </trkpt>
      <trkpt lat="47.97558" lon="6.75785">
        <ele>797.110596</ele>
        <time>2019-08-16T15:08:33Z</time>
      </trkpt>
      <trkpt lat="47.97555" lon="6.75793">
        <ele>796.826843</ele>
        <time>2019-08-16T15:08:34Z</time>
      </trkpt>
      <trkpt lat="47.97552" lon="6.75802">
        <ele>796.563232</ele>
        <time>2019-08-16T15:08:35Z</time>
      </trkpt>
      <trkpt lat="47.97549" lon="6.75811">
        <ele>796.310791</ele>
        <time>2019-08-16T15:08:36Z</time>
      </trkpt>
      <trkpt lat="47.97546" lon="6.7582">
        <ele>795.964661</ele>
        <time>2019-08-16T15:08:37Z</time>
      </trkpt>
      <trkpt lat="47.97543" lon="6.75829">
        <ele>795.752991</ele>
        <time>2019-08-16T15:08:38Z</time>
      </trkpt>
      <trkpt lat="47.9754" lon="6.75838">
        <ele>795.546936</ele>
        <time>2019-08-16T15:08:39Z</time>
      </trkpt>
      <trkpt lat="47.97537" lon="6.75847">
        <ele>795.343567</ele>
        <time>2019-08-16T15:08:40Z</time>
      </trkpt>
      <trkpt lat="47.97534" lon="6.75856">
        <ele>795.145996</ele>
        <time>2019-08-16T15:08:41Z</time>
      </trkpt>
      <trkpt lat="47.97531" lon="6.75864">
        <ele>794.931641</ele>
        <time>2019-08-16T15:08:42Z</time>
      </trkpt>
      <trkpt lat="47.97528" lon="6.75872">
        <ele>794.688232</ele>
        <time>2019-08-16T15:08:43Z</time>
      </trkpt>
      <trkpt lat="47.97525" lon="6.75881">
        <ele>794.412048</ele>
        <time>2019-08-16T15:08:44Z</time>
      </trkpt>
      <trkpt lat="47.97522" lon="6.75888">
        <ele>794.138733</ele>
        <time>2019-08-16T15:08:45Z</time>
      </trkpt>
      <trkpt lat="47.97519" lon="6.75894">
        <ele>793.888367</ele>
        <time>2019-08-16T15:08:46Z</time>
      </trkpt>
      <trkpt lat="47.97516" lon="6.75901">
        <ele>793.563965</ele>
        <time>2019-08-16T15:08:47Z</time>
      </trkpt>
      <trkpt lat="47.97512" lon="6.75906">
        <ele>793.386963</ele>
        <time>2019-08-16T15:08:48Z</time>
      </trkpt>
      <trkpt lat="47.97508" lon="6.75912">
        <ele>793.260498</ele>
        <time>2019-08-16T15:08:49Z</time>
      </trkpt>
      <trkpt lat="47.97505" lon="6.75918">
        <ele>793.190125</ele>
        <time>2019-08-16T15:08:50Z</time>
      </trkpt>
      <trkpt lat="47.97503" lon="6.75925">
        <ele>793.155029</ele>
        <time>2019-08-16T15:08:51Z</time>
      </trkpt>
      <trkpt lat="47.975" lon="6.75932">
        <ele>793.131287</ele>
        <time>2019-08-16T15:08:52Z</time>
      </trkpt>
      <trkpt lat="47.97499" lon="6.75939">
        <ele>793.11554</ele>
        <time>2019-08-16T15:08:53Z</time>
      </trkpt>
      <trkpt lat="47.97497" lon="6.75946">
        <ele>793.113098</ele>
        <time>2019-08-16T15:08:54Z</time>
      </trkpt>
      <trkpt lat="47.97495" lon="6.75954">
        <ele>793.114807</ele>
        <time>2019-08-16T15:08:55Z</time>
      </trkpt>
      <trkpt lat="47.97493" lon="6.75961">
        <ele>793.131287</ele>
        <time>2019-08-16T15:08:56Z</time>
      </trkpt>
      <trkpt lat="47.97492" lon="6.75968">
        <ele>793.166321</ele>
        <time>2019-08-16T15:08:57Z</time>
      </trkpt>
      <trkpt lat="47.97492" lon="6.75975">
        <ele>793.21698</ele>
        <time>2019-08-16T15:08:58Z</time>
      </trkpt>
      <trkpt lat="47.97491" lon="6.75981">
        <ele>793.298035</ele>
        <time>2019-08-16T15:08:59Z</time>
      </trkpt>
      <trkpt lat="47.97491" lon="6.75988">
        <ele>793.351746</ele>
        <time>2019-08-16T15:09:00Z</time>
      </trkpt>
      <trkpt lat="47.97491" lon="6.75995">
        <ele>793.493713</ele>
        <time>2019-08-16T15:09:01Z</time>
      </trkpt>
      <trkpt lat="47.97491" lon="6.76002">
        <ele>793.795349</ele>
        <time>2019-08-16T15:09:02Z</time>
      </trkpt>
      <trkpt lat="47.97491" lon="6.76009">
        <ele>794.046387</ele>
        <time>2019-08-16T15:09:03Z</time>
      </trkpt>
      <trkpt lat="47.97491" lon="6.76015">
        <ele>794.320374</ele>
        <time>2019-08-16T15:09:04Z</time>
      </trkpt>
      <trkpt lat="47.9749" lon="6.76022">
        <ele>794.60968</ele>
        <time>2019-08-16T15:09:05Z</time>
      </trkpt>
      <trkpt lat="47.9749" lon="6.76029">
        <ele>794.903381</ele>
        <time>2019-08-16T15:09:06Z</time>
      </trkpt>
      <trkpt lat="47.9749" lon="6.76036">
        <ele>795.187317</ele>
        <time>2019-08-16T15:09:07Z</time>
      </trkpt>
      <trkpt lat="47.9749" lon="6.76043">
        <ele>795.440369</ele>
        <time>2019-08-16T15:09:08Z</time>
      </trkpt>
      <trkpt lat="47.9749" lon="6.76051">
        <ele>795.643982</ele>
        <time>2019-08-16T15:09:09Z</time>
      </trkpt>
      <trkpt lat="47.97489" lon="6.76058">
        <ele>795.791199</ele>
        <time>2019-08-16T15:09:10Z</time>
      </trkpt>
      <trkpt lat="47.97488" lon="6.76066">
        <ele>795.873352</ele>
        <time>2019-08-16T15:09:11Z</time>
      </trkpt>
      <trkpt lat="47.97488" lon="6.76076">
        <ele>795.883118</ele>
        <time>2019-08-16T15:09:12Z</time>
      </trkpt>
      <trkpt lat="47.97488" lon="6.76086">
        <ele>795.868896</ele>
        <time>2019-08-16T15:09:13Z</time>
      </trkpt>
      <trkpt lat="47.97488" lon="6.76096">
        <ele>795.757385</ele>
        <time>2019-08-16T15:09:14Z</time>
      </trkpt>
      <trkpt lat="47.97488" lon="6.76105">
        <ele>795.544678</ele>
        <time>2019-08-16T15:09:15Z</time>
      </trkpt>
      <trkpt lat="47.97486" lon="6.76112">
        <ele>795.257141</ele>
        <time>2019-08-16T15:09:16Z</time>
      </trkpt>
      <trkpt lat="47.97483" lon="6.76118">
        <ele>794.929871</ele>
        <time>2019-08-16T15:09:17Z</time>
      </trkpt>
      <trkpt lat="47.9748" lon="6.76123">
        <ele>794.578674</ele>
        <time>2019-08-16T15:09:18Z</time>
      </trkpt>
      <trkpt lat="47.97477" lon="6.76124">
        <ele>793.998291</ele>
        <time>2019-08-16T15:09:19Z</time>
      </trkpt>
      <trkpt lat="47.97475" lon="6.76122">
        <ele>793.565735</ele>
        <time>2019-08-16T15:09:20Z</time>
      </trkpt>
      <trkpt lat="47.97473" lon="6.76119">
        <ele>793.104675</ele>
        <time>2019-08-16T15:09:21Z</time>
      </trkpt>
      <trkpt lat="47.97472" lon="6.76117">
        <ele>792.397461</ele>
        <time>2019-08-16T15:09:22Z</time>
      </trkpt>
      <trkpt lat="47.97465" lon="6.76104">
        <ele>787.761902</ele>
        <time>2019-08-16T15:09:35Z</time>
      </trkpt>
      <trkpt lat="47.97463" lon="6.761">
        <ele>787.600769</ele>
        <time>2019-08-16T15:09:37Z</time>
      </trkpt>
      <trkpt lat="47.9746" lon="6.76096">
        <ele>787.468323</ele>
        <time>2019-08-16T15:09:38Z</time>
      </trkpt>
      <trkpt lat="47.97457" lon="6.76091">
        <ele>787.293762</ele>
        <time>2019-08-16T15:09:39Z</time>
      </trkpt>
      <trkpt lat="47.97452" lon="6.76085">
        <ele>787.060791</ele>
        <time>2019-08-16T15:09:40Z</time>
      </trkpt>
      <trkpt lat="47.97447" lon="6.76079">
        <ele>786.579773</ele>
        <time>2019-08-16T15:09:41Z</time>
      </trkpt>
      <trkpt lat="47.97443" lon="6.76071">
        <ele>786.165833</ele>
        <time>2019-08-16T15:09:42Z</time>
      </trkpt>
      <trkpt lat="47.97438" lon="6.76063">
        <ele>785.67572</ele>
        <time>2019-08-16T15:09:43Z</time>
      </trkpt>
      <trkpt lat="47.97434" lon="6.76055">
        <ele>785.109619</ele>
        <time>2019-08-16T15:09:44Z</time>
      </trkpt>
      <trkpt lat="47.97431" lon="6.76047">
        <ele>784.467224</ele>
        <time>2019-08-16T15:09:45Z</time>
      </trkpt>
      <trkpt lat="47.97428" lon="6.76038">
        <ele>783.752625</ele>
        <time>2019-08-16T15:09:46Z</time>
      </trkpt>
      <trkpt lat="47.97424" lon="6.76027">
        <ele>782.9599</ele>
        <time>2019-08-16T15:09:47Z</time>
      </trkpt>
      <trkpt lat="47.97421" lon="6.76016">
        <ele>781.636902</ele>
        <time>2019-08-16T15:09:48Z</time>
      </trkpt>
      <trkpt lat="47.97417" lon="6.76004">
        <ele>780.68219</ele>
        <time>2019-08-16T15:09:49Z</time>
      </trkpt>
      <trkpt lat="47.97415" lon="6.75994">
        <ele>779.669189</ele>
        <time>2019-08-16T15:09:50Z</time>
      </trkpt>
      <trkpt lat="47.97414" lon="6.75984">
        <ele>778.034973</ele>
        <time>2019-08-16T15:09:51Z</time>
      </trkpt>
      <trkpt lat="47.97414" lon="6.75975">
        <ele>776.877441</ele>
        <time>2019-08-16T15:09:52Z</time>
      </trkpt>
      <trkpt lat="47.97413" lon="6.75966">
        <ele>775.700623</ele>
        <time>2019-08-16T15:09:53Z</time>
      </trkpt>
      <trkpt lat="47.97412" lon="6.75957">
        <ele>774.532959</ele>
        <time>2019-08-16T15:09:54Z</time>
      </trkpt>
      <trkpt lat="47.97411" lon="6.75948">
        <ele>772.818359</ele>
        <time>2019-08-16T15:09:55Z</time>
      </trkpt>
      <trkpt lat="47.97411" lon="6.75939">
        <ele>771.708679</ele>
        <time>2019-08-16T15:09:56Z</time>
      </trkpt>
      <trkpt lat="47.97412" lon="6.75929">
        <ele>770.633484</ele>
        <time>2019-08-16T15:09:57Z</time>
      </trkpt>
      <trkpt lat="47.97413" lon="6.7592">
        <ele>769.609375</ele>
        <time>2019-08-16T15:09:58Z</time>
      </trkpt>
      <trkpt lat="47.97414" lon="6.7591">
        <ele>768.641541</ele>
        <time>2019-08-16T15:09:59Z</time>
      </trkpt>
      <trkpt lat="47.97416" lon="6.75901">
        <ele>768.181091</ele>
        <time>2019-08-16T15:10:00Z</time>
      </trkpt>
      <trkpt lat="47.97417" lon="6.75892">
        <ele>767.729248</ele>
        <time>2019-08-16T15:10:01Z</time>
      </trkpt>
      <trkpt lat="47.97419" lon="6.75885">
        <ele>766.84552</ele>
        <time>2019-08-16T15:10:02Z</time>
      </trkpt>
      <trkpt lat="47.97421" lon="6.75878">
        <ele>765.986328</ele>
        <time>2019-08-16T15:10:03Z</time>
      </trkpt>
      <trkpt lat="47.97423" lon="6.75871">
        <ele>765.152649</ele>
        <time>2019-08-16T15:10:04Z</time>
      </trkpt>
      <trkpt lat="47.97425" lon="6.75864">
        <ele>763.948059</ele>
        <time>2019-08-16T15:10:05Z</time>
      </trkpt>
      <trkpt lat="47.97426" lon="6.75858">
        <ele>763.154968</ele>
        <time>2019-08-16T15:10:06Z</time>
      </trkpt>
      <trkpt lat="47.97427" lon="6.75854">
        <ele>762.369141</ele>
        <time>2019-08-16T15:10:07Z</time>
      </trkpt>
      <trkpt lat="47.97429" lon="6.75851">
        <ele>761.597473</ele>
        <time>2019-08-16T15:10:08Z</time>
      </trkpt>
      <trkpt lat="47.97431" lon="6.75848">
        <ele>760.853333</ele>
        <time>2019-08-16T15:10:09Z</time>
      </trkpt>
      <trkpt lat="47.97431" lon="6.75845">
        <ele>760.148376</ele>
        <time>2019-08-16T15:10:10Z</time>
      </trkpt>
      <trkpt lat="47.9743" lon="6.75842">
        <ele>759.482849</ele>
        <time>2019-08-16T15:10:11Z</time>
      </trkpt>
      <trkpt lat="47.9743" lon="6.75838">
        <ele>758.864319</ele>
        <time>2019-08-16T15:10:12Z</time>
      </trkpt>
      <trkpt lat="47.9743" lon="6.75834">
        <ele>758.293457</ele>
        <time>2019-08-16T15:10:13Z</time>
      </trkpt>
      <trkpt lat="47.97431" lon="6.75831">
        <ele>757.772888</ele>
        <time>2019-08-16T15:10:14Z</time>
      </trkpt>
      <trkpt lat="47.97432" lon="6.75827">
        <ele>757.289368</ele>
        <time>2019-08-16T15:10:15Z</time>
      </trkpt>
      <trkpt lat="47.97434" lon="6.75823">
        <ele>756.829651</ele>
        <time>2019-08-16T15:10:16Z</time>
      </trkpt>
      <trkpt lat="47.97437" lon="6.75818">
        <ele>756.178162</ele>
        <time>2019-08-16T15:10:17Z</time>
      </trkpt>
      <trkpt lat="47.97438" lon="6.75813">
        <ele>755.7771</ele>
        <time>2019-08-16T15:10:18Z</time>
      </trkpt>
      <trkpt lat="47.9744" lon="6.75806">
        <ele>755.405701</ele>
        <time>2019-08-16T15:10:19Z</time>
      </trkpt>
      <trkpt lat="47.9744" lon="6.758">
        <ele>755.058594</ele>
        <time>2019-08-16T15:10:20Z</time>
      </trkpt>
      <trkpt lat="47.97441" lon="6.75792">
        <ele>754.732971</ele>
        <time>2019-08-16T15:10:21Z</time>
      </trkpt>
      <trkpt lat="47.97441" lon="6.75785">
        <ele>754.430359</ele>
        <time>2019-08-16T15:10:22Z</time>
      </trkpt>
      <trkpt lat="47.97442" lon="6.75777">
        <ele>754.155579</ele>
        <time>2019-08-16T15:10:23Z</time>
      </trkpt>
      <trkpt lat="47.97442" lon="6.75769">
        <ele>753.90509</ele>
        <time>2019-08-16T15:10:24Z</time>
      </trkpt>
      <trkpt lat="47.97443" lon="6.75761">
        <ele>753.670593</ele>
        <time>2019-08-16T15:10:25Z</time>
      </trkpt>
      <trkpt lat="47.97445" lon="6.75753">
        <ele>753.2995</ele>
        <time>2019-08-16T15:10:26Z</time>
      </trkpt>
      <trkpt lat="47.97446" lon="6.75745">
        <ele>753.020996</ele>
        <time>2019-08-16T15:10:27Z</time>
      </trkpt>
      <trkpt lat="47.97447" lon="6.75737">
        <ele>752.717285</ele>
        <time>2019-08-16T15:10:28Z</time>
      </trkpt>
      <trkpt lat="47.97448" lon="6.75729">
        <ele>752.39917</ele>
        <time>2019-08-16T15:10:29Z</time>
      </trkpt>
      <trkpt lat="47.97449" lon="6.75722">
        <ele>752.079407</ele>
        <time>2019-08-16T15:10:30Z</time>
      </trkpt>
      <trkpt lat="47.9745" lon="6.75714">
        <ele>751.775208</ele>
        <time>2019-08-16T15:10:31Z</time>
      </trkpt>
      <trkpt lat="47.97451" lon="6.75704">
        <ele>751.487305</ele>
        <time>2019-08-16T15:10:32Z</time>
      </trkpt>
      <trkpt lat="47.97451" lon="6.75695">
        <ele>751.20575</ele>
        <time>2019-08-16T15:10:33Z</time>
      </trkpt>
      <trkpt lat="47.97451" lon="6.75687">
        <ele>750.903015</ele>
        <time>2019-08-16T15:10:34Z</time>
      </trkpt>
      <trkpt lat="47.97451" lon="6.75679">
        <ele>750.561279</ele>
        <time>2019-08-16T15:10:35Z</time>
      </trkpt>
      <trkpt lat="47.9745" lon="6.7567">
        <ele>750.177979</ele>
        <time>2019-08-16T15:10:36Z</time>
      </trkpt>
      <trkpt lat="47.97449" lon="6.75663">
        <ele>749.536438</ele>
        <time>2019-08-16T15:10:37Z</time>
      </trkpt>
      <trkpt lat="47.97448" lon="6.75657">
        <ele>749.069336</ele>
        <time>2019-08-16T15:10:38Z</time>
      </trkpt>
      <trkpt lat="47.97446" lon="6.75651">
        <ele>748.583069</ele>
        <time>2019-08-16T15:10:39Z</time>
      </trkpt>
      <trkpt lat="47.97444" lon="6.75645">
        <ele>748.094238</ele>
        <time>2019-08-16T15:10:40Z</time>
      </trkpt>
      <trkpt lat="47.97443" lon="6.75639">
        <ele>747.399597</ele>
        <time>2019-08-16T15:10:41Z</time>
      </trkpt>
      <trkpt lat="47.97442" lon="6.75634">
        <ele>746.952209</ele>
        <time>2019-08-16T15:10:42Z</time>
      </trkpt>
      <trkpt lat="47.97441" lon="6.75629">
        <ele>746.489502</ele>
        <time>2019-08-16T15:10:43Z</time>
      </trkpt>
      <trkpt lat="47.9744" lon="6.75625">
        <ele>745.998291</ele>
        <time>2019-08-16T15:10:44Z</time>
      </trkpt>
      <trkpt lat="47.9744" lon="6.7562">
        <ele>745.484863</ele>
        <time>2019-08-16T15:10:45Z</time>
      </trkpt>
      <trkpt lat="47.97438" lon="6.75616">
        <ele>744.974792</ele>
        <time>2019-08-16T15:10:46Z</time>
      </trkpt>
      <trkpt lat="47.97437" lon="6.75611">
        <ele>744.237122</ele>
        <time>2019-08-16T15:10:47Z</time>
      </trkpt>
      <trkpt lat="47.97434" lon="6.75607">
        <ele>743.759094</ele>
        <time>2019-08-16T15:10:48Z</time>
      </trkpt>
      <trkpt lat="47.97433" lon="6.75604">
        <ele>743.284363</ele>
        <time>2019-08-16T15:10:49Z</time>
      </trkpt>
      <trkpt lat="47.97431" lon="6.75602">
        <ele>742.810303</ele>
        <time>2019-08-16T15:10:50Z</time>
      </trkpt>
      <trkpt lat="47.97429" lon="6.756">
        <ele>742.099548</ele>
        <time>2019-08-16T15:10:51Z</time>
      </trkpt>
      <trkpt lat="47.97427" lon="6.75598">
        <ele>741.621277</ele>
        <time>2019-08-16T15:10:52Z</time>
      </trkpt>
      <trkpt lat="47.97426" lon="6.75596">
        <ele>741.14679</ele>
        <time>2019-08-16T15:10:53Z</time>
      </trkpt>
      <trkpt lat="47.97425" lon="6.75595">
        <ele>740.474182</ele>
        <time>2019-08-16T15:10:54Z</time>
      </trkpt>
      <trkpt lat="47.97423" lon="6.75595">
        <ele>740.061584</ele>
        <time>2019-08-16T15:10:55Z</time>
      </trkpt>
      <trkpt lat="47.97421" lon="6.75596">
        <ele>739.677673</ele>
        <time>2019-08-16T15:10:56Z</time>
      </trkpt>
      <trkpt lat="47.97419" lon="6.75597">
        <ele>739.14502</ele>
        <time>2019-08-16T15:10:57Z</time>
      </trkpt>
      <trkpt lat="47.97416" lon="6.75598">
        <ele>738.810486</ele>
        <time>2019-08-16T15:10:58Z</time>
      </trkpt>
      <trkpt lat="47.97411" lon="6.756">
        <ele>738.486023</ele>
        <time>2019-08-16T15:10:59Z</time>
      </trkpt>
      <trkpt lat="47.97406" lon="6.75604">
        <ele>738.323975</ele>
        <time>2019-08-16T15:11:00Z</time>
      </trkpt>
      <trkpt lat="47.97401" lon="6.75607">
        <ele>738.160156</ele>
        <time>2019-08-16T15:11:01Z</time>
      </trkpt>
      <trkpt lat="47.97397" lon="6.75611">
        <ele>737.811523</ele>
        <time>2019-08-16T15:11:02Z</time>
      </trkpt>
      <trkpt lat="47.97392" lon="6.75614">
        <ele>737.189453</ele>
        <time>2019-08-16T15:11:03Z</time>
      </trkpt>
      <trkpt lat="47.97388" lon="6.75618">
        <ele>736.685364</ele>
        <time>2019-08-16T15:11:04Z</time>
      </trkpt>
      <trkpt lat="47.97382" lon="6.75622">
        <ele>736.119568</ele>
        <time>2019-08-16T15:11:05Z</time>
      </trkpt>
      <trkpt lat="47.97377" lon="6.75623">
        <ele>735.167725</ele>
        <time>2019-08-16T15:11:06Z</time>
      </trkpt>
      <trkpt lat="47.97371" lon="6.75623">
        <ele>734.468933</ele>
        <time>2019-08-16T15:11:07Z</time>
      </trkpt>
      <trkpt lat="47.97363" lon="6.75623">
        <ele>733.742371</ele>
        <time>2019-08-16T15:11:08Z</time>
      </trkpt>
      <trkpt lat="47.97356" lon="6.75624">
        <ele>732.650452</ele>
        <time>2019-08-16T15:11:09Z</time>
      </trkpt>
      <trkpt lat="47.97346" lon="6.75627">
        <ele>731.914551</ele>
        <time>2019-08-16T15:11:10Z</time>
      </trkpt>
      <trkpt lat="47.97338" lon="6.75631">
        <ele>731.116516</ele>
        <time>2019-08-16T15:11:11Z</time>
      </trkpt>
      <trkpt lat="47.97332" lon="6.75635">
        <ele>729.745117</ele>
        <time>2019-08-16T15:11:12Z</time>
      </trkpt>
      <trkpt lat="47.97326" lon="6.75641">
        <ele>728.713684</ele>
        <time>2019-08-16T15:11:13Z</time>
      </trkpt>
      <trkpt lat="47.97321" lon="6.75646">
        <ele>727.609192</ele>
        <time>2019-08-16T15:11:14Z</time>
      </trkpt>
      <trkpt lat="47.97317" lon="6.75651">
        <ele>726.446594</ele>
        <time>2019-08-16T15:11:15Z</time>
      </trkpt>
      <trkpt lat="47.97315" lon="6.75658">
        <ele>724.677795</ele>
        <time>2019-08-16T15:11:16Z</time>
      </trkpt>
      <trkpt lat="47.97312" lon="6.75664">
        <ele>723.543945</ele>
        <time>2019-08-16T15:11:17Z</time>
      </trkpt>
      <trkpt lat="47.97311" lon="6.75672">
        <ele>722.486389</ele>
        <time>2019-08-16T15:11:18Z</time>
      </trkpt>
      <trkpt lat="47.9731" lon="6.7568">
        <ele>721.517273</ele>
        <time>2019-08-16T15:11:19Z</time>
      </trkpt>
      <trkpt lat="47.97309" lon="6.75687">
        <ele>720.653992</ele>
        <time>2019-08-16T15:11:20Z</time>
      </trkpt>
      <trkpt lat="47.97308" lon="6.75696">
        <ele>719.900635</ele>
        <time>2019-08-16T15:11:21Z</time>
      </trkpt>
      <trkpt lat="47.97307" lon="6.75704">
        <ele>719.248474</ele>
        <time>2019-08-16T15:11:22Z</time>
      </trkpt>
      <trkpt lat="47.97306" lon="6.75712">
        <ele>718.693542</ele>
        <time>2019-08-16T15:11:23Z</time>
      </trkpt>
      <trkpt lat="47.97304" lon="6.7572">
        <ele>718.233826</ele>
        <time>2019-08-16T15:11:24Z</time>
      </trkpt>
      <trkpt lat="47.97303" lon="6.75728">
        <ele>717.872131</ele>
        <time>2019-08-16T15:11:25Z</time>
      </trkpt>
      <trkpt lat="47.97301" lon="6.75736">
        <ele>717.586731</ele>
        <time>2019-08-16T15:11:26Z</time>
      </trkpt>
      <trkpt lat="47.973" lon="6.75744">
        <ele>717.25885</ele>
        <time>2019-08-16T15:11:27Z</time>
      </trkpt>
      <trkpt lat="47.97298" lon="6.75752">
        <ele>717.08252</ele>
        <time>2019-08-16T15:11:28Z</time>
      </trkpt>
      <trkpt lat="47.97297" lon="6.7576">
        <ele>716.935791</ele>
        <time>2019-08-16T15:11:29Z</time>
      </trkpt>
      <trkpt lat="47.97296" lon="6.75769">
        <ele>716.813232</ele>
        <time>2019-08-16T15:11:30Z</time>
      </trkpt>
      <trkpt lat="47.97295" lon="6.75778">
        <ele>716.710266</ele>
        <time>2019-08-16T15:11:31Z</time>
      </trkpt>
      <trkpt lat="47.97294" lon="6.75786">
        <ele>716.623535</ele>
        <time>2019-08-16T15:11:32Z</time>
      </trkpt>
      <trkpt lat="47.97293" lon="6.75794">
        <ele>716.558777</ele>
        <time>2019-08-16T15:11:33Z</time>
      </trkpt>
      <trkpt lat="47.9729" lon="6.75801">
        <ele>716.521484</ele>
        <time>2019-08-16T15:11:34Z</time>
      </trkpt>
      <trkpt lat="47.97285" lon="6.75807">
        <ele>716.50592</ele>
        <time>2019-08-16T15:11:35Z</time>
      </trkpt>
      <trkpt lat="47.9728" lon="6.75815">
        <ele>716.495422</ele>
        <time>2019-08-16T15:11:36Z</time>
      </trkpt>
      <trkpt lat="47.97274" lon="6.75823">
        <ele>716.456726</ele>
        <time>2019-08-16T15:11:37Z</time>
      </trkpt>
      <trkpt lat="47.97269" lon="6.75832">
        <ele>716.39502</ele>
        <time>2019-08-16T15:11:38Z</time>
      </trkpt>
      <trkpt lat="47.97263" lon="6.75842">
        <ele>716.280701</ele>
        <time>2019-08-16T15:11:39Z</time>
      </trkpt>
      <trkpt lat="47.97258" lon="6.75852">
        <ele>716.081848</ele>
        <time>2019-08-16T15:11:40Z</time>
      </trkpt>
      <trkpt lat="47.97252" lon="6.75862">
        <ele>715.573425</ele>
        <time>2019-08-16T15:11:41Z</time>
      </trkpt>
      <trkpt lat="47.97248" lon="6.7587">
        <ele>715.090332</ele>
        <time>2019-08-16T15:11:42Z</time>
      </trkpt>
      <trkpt lat="47.97244" lon="6.75876">
        <ele>714.513855</ele>
        <time>2019-08-16T15:11:43Z</time>
      </trkpt>
      <trkpt lat="47.9724" lon="6.75877">
        <ele>713.879333</ele>
        <time>2019-08-16T15:11:44Z</time>
      </trkpt>
      <trkpt lat="47.97237" lon="6.75873">
        <ele>712.900391</ele>
        <time>2019-08-16T15:11:45Z</time>
      </trkpt>
      <trkpt lat="47.97236" lon="6.75867">
        <ele>712.268799</ele>
        <time>2019-08-16T15:11:46Z</time>
      </trkpt>
      <trkpt lat="47.97237" lon="6.75859">
        <ele>711.67627</ele>
        <time>2019-08-16T15:11:47Z</time>
      </trkpt>
      <trkpt lat="47.97238" lon="6.7585">
        <ele>711.134521</ele>
        <time>2019-08-16T15:11:48Z</time>
      </trkpt>
      <trkpt lat="47.9724" lon="6.7584">
        <ele>710.643799</ele>
        <time>2019-08-16T15:11:49Z</time>
      </trkpt>
      <trkpt lat="47.97241" lon="6.75831">
        <ele>710.1875</ele>
        <time>2019-08-16T15:11:50Z</time>
      </trkpt>
      <trkpt lat="47.97241" lon="6.75821">
        <ele>709.746338</ele>
        <time>2019-08-16T15:11:51Z</time>
      </trkpt>
      <trkpt lat="47.97239" lon="6.75812">
        <ele>709.30072</ele>
        <time>2019-08-16T15:11:52Z</time>
      </trkpt>
      <trkpt lat="47.97236" lon="6.75802">
        <ele>708.839172</ele>
        <time>2019-08-16T15:11:53Z</time>
      </trkpt>
      <trkpt lat="47.97234" lon="6.75792">
        <ele>708.346924</ele>
        <time>2019-08-16T15:11:54Z</time>
      </trkpt>
      <trkpt lat="47.97232" lon="6.75781">
        <ele>707.826477</ele>
        <time>2019-08-16T15:11:55Z</time>
      </trkpt>
      <trkpt lat="47.97232" lon="6.7577">
        <ele>707.275085</ele>
        <time>2019-08-16T15:11:56Z</time>
      </trkpt>
      <trkpt lat="47.97231" lon="6.75758">
        <ele>706.677246</ele>
        <time>2019-08-16T15:11:57Z</time>
      </trkpt>
      <trkpt lat="47.97231" lon="6.75746">
        <ele>706.024231</ele>
        <time>2019-08-16T15:11:58Z</time>
      </trkpt>
      <trkpt lat="47.9723" lon="6.75735">
        <ele>705.325378</ele>
        <time>2019-08-16T15:11:59Z</time>
      </trkpt>
      <trkpt lat="47.97229" lon="6.75723">
        <ele>704.619629</ele>
        <time>2019-08-16T15:12:00Z</time>
      </trkpt>
      <trkpt lat="47.97227" lon="6.75711">
        <ele>704.270264</ele>
        <time>2019-08-16T15:12:01Z</time>
      </trkpt>
      <trkpt lat="47.97225" lon="6.75699">
        <ele>703.567932</ele>
        <time>2019-08-16T15:12:02Z</time>
      </trkpt>
      <trkpt lat="47.97223" lon="6.75687">
        <ele>702.841125</ele>
        <time>2019-08-16T15:12:03Z</time>
      </trkpt>
      <trkpt lat="47.97221" lon="6.75676">
        <ele>702.075012</ele>
        <time>2019-08-16T15:12:04Z</time>
      </trkpt>
      <trkpt lat="47.97218" lon="6.75664">
        <ele>701.267029</ele>
        <time>2019-08-16T15:12:05Z</time>
      </trkpt>
      <trkpt lat="47.97213" lon="6.75653">
        <ele>699.986755</ele>
        <time>2019-08-16T15:12:06Z</time>
      </trkpt>
      <trkpt lat="47.9721" lon="6.75642">
        <ele>699.074036</ele>
        <time>2019-08-16T15:12:07Z</time>
      </trkpt>
      <trkpt lat="47.97206" lon="6.75632">
        <ele>698.114319</ele>
        <time>2019-08-16T15:12:08Z</time>
      </trkpt>
      <trkpt lat="47.97203" lon="6.75621">
        <ele>697.137939</ele>
        <time>2019-08-16T15:12:09Z</time>
      </trkpt>
      <trkpt lat="47.972" lon="6.7561">
        <ele>696.182129</ele>
        <time>2019-08-16T15:12:10Z</time>
      </trkpt>
      <trkpt lat="47.97197" lon="6.75599">
        <ele>694.838074</ele>
        <time>2019-08-16T15:12:11Z</time>
      </trkpt>
      <trkpt lat="47.97193" lon="6.75588">
        <ele>693.994385</ele>
        <time>2019-08-16T15:12:12Z</time>
      </trkpt>
      <trkpt lat="47.9719" lon="6.75577">
        <ele>693.183105</ele>
        <time>2019-08-16T15:12:13Z</time>
      </trkpt>
      <trkpt lat="47.97188" lon="6.75566">
        <ele>692.414246</ele>
        <time>2019-08-16T15:12:14Z</time>
      </trkpt>
      <trkpt lat="47.97186" lon="6.75554">
        <ele>691.679138</ele>
        <time>2019-08-16T15:12:15Z</time>
      </trkpt>
      <trkpt lat="47.97183" lon="6.75543">
        <ele>690.969543</ele>
        <time>2019-08-16T15:12:16Z</time>
      </trkpt>
      <trkpt lat="47.97182" lon="6.75534">
        <ele>690.266663</ele>
        <time>2019-08-16T15:12:17Z</time>
      </trkpt>
      <trkpt lat="47.9718" lon="6.75525">
        <ele>689.564453</ele>
        <time>2019-08-16T15:12:18Z</time>
      </trkpt>
      <trkpt lat="47.9718" lon="6.75516">
        <ele>688.862061</ele>
        <time>2019-08-16T15:12:19Z</time>
      </trkpt>
      <trkpt lat="47.9718" lon="6.75507">
        <ele>688.162598</ele>
        <time>2019-08-16T15:12:20Z</time>
      </trkpt>
      <trkpt lat="47.9718" lon="6.75498">
        <ele>687.462708</ele>
        <time>2019-08-16T15:12:21Z</time>
      </trkpt>
      <trkpt lat="47.97179" lon="6.7549">
        <ele>686.770508</ele>
        <time>2019-08-16T15:12:22Z</time>
      </trkpt>
      <trkpt lat="47.97178" lon="6.75483">
        <ele>686.082764</ele>
        <time>2019-08-16T15:12:23Z</time>
      </trkpt>
      <trkpt lat="47.97176" lon="6.75477">
        <ele>685.388367</ele>
        <time>2019-08-16T15:12:24Z</time>
      </trkpt>
      <trkpt lat="47.97175" lon="6.75472">
        <ele>684.322021</ele>
        <time>2019-08-16T15:12:25Z</time>
      </trkpt>
      <trkpt lat="47.97173" lon="6.75468">
        <ele>683.607361</ele>
        <time>2019-08-16T15:12:26Z</time>
      </trkpt>
      <trkpt lat="47.9717" lon="6.75465">
        <ele>682.900635</ele>
        <time>2019-08-16T15:12:27Z</time>
      </trkpt>
      <trkpt lat="47.97167" lon="6.75463">
        <ele>681.853088</ele>
        <time>2019-08-16T15:12:28Z</time>
      </trkpt>
      <trkpt lat="47.97164" lon="6.75463">
        <ele>681.183594</ele>
        <time>2019-08-16T15:12:29Z</time>
      </trkpt>
      <trkpt lat="47.9716" lon="6.75464">
        <ele>680.561523</ele>
        <time>2019-08-16T15:12:30Z</time>
      </trkpt>
      <trkpt lat="47.97157" lon="6.75468">
        <ele>679.713806</ele>
        <time>2019-08-16T15:12:31Z</time>
      </trkpt>
      <trkpt lat="47.97154" lon="6.75474">
        <ele>679.188477</ele>
        <time>2019-08-16T15:12:32Z</time>
      </trkpt>
      <trkpt lat="47.9715" lon="6.75482">
        <ele>678.680969</ele>
        <time>2019-08-16T15:12:33Z</time>
      </trkpt>
      <trkpt lat="47.97147" lon="6.7549">
        <ele>678.186951</ele>
        <time>2019-08-16T15:12:34Z</time>
      </trkpt>
      <trkpt lat="47.97144" lon="6.75498">
        <ele>677.710144</ele>
        <time>2019-08-16T15:12:35Z</time>
      </trkpt>
      <trkpt lat="47.9714" lon="6.75506">
        <ele>677.244873</ele>
        <time>2019-08-16T15:12:36Z</time>
      </trkpt>
      <trkpt lat="47.97136" lon="6.75515">
        <ele>676.785583</ele>
        <time>2019-08-16T15:12:37Z</time>
      </trkpt>
      <trkpt lat="47.97133" lon="6.75524">
        <ele>676.316833</ele>
        <time>2019-08-16T15:12:38Z</time>
      </trkpt>
      <trkpt lat="47.97129" lon="6.75531">
        <ele>675.832642</ele>
        <time>2019-08-16T15:12:39Z</time>
      </trkpt>
      <trkpt lat="47.97126" lon="6.75536">
        <ele>675.072815</ele>
        <time>2019-08-16T15:12:40Z</time>
      </trkpt>
      <trkpt lat="47.97122" lon="6.7554">
        <ele>674.544617</ele>
        <time>2019-08-16T15:12:41Z</time>
      </trkpt>
      <trkpt lat="47.97118" lon="6.75545">
        <ele>673.995789</ele>
        <time>2019-08-16T15:12:42Z</time>
      </trkpt>
      <trkpt lat="47.97115" lon="6.7555">
        <ele>673.419983</ele>
        <time>2019-08-16T15:12:43Z</time>
      </trkpt>
      <trkpt lat="47.97111" lon="6.75554">
        <ele>672.821716</ele>
        <time>2019-08-16T15:12:44Z</time>
      </trkpt>
      <trkpt lat="47.97108" lon="6.75559">
        <ele>671.901672</ele>
        <time>2019-08-16T15:12:45Z</time>
      </trkpt>
      <trkpt lat="47.97105" lon="6.75564">
        <ele>671.285583</ele>
        <time>2019-08-16T15:12:46Z</time>
      </trkpt>
      <trkpt lat="47.97101" lon="6.7557">
        <ele>670.666992</ele>
        <time>2019-08-16T15:12:47Z</time>
      </trkpt>
      <trkpt lat="47.97097" lon="6.75575">
        <ele>670.036194</ele>
        <time>2019-08-16T15:12:48Z</time>
      </trkpt>
      <trkpt lat="47.97092" lon="6.75581">
        <ele>669.083679</ele>
        <time>2019-08-16T15:12:49Z</time>
      </trkpt>
      <trkpt lat="47.97088" lon="6.75586">
        <ele>668.444336</ele>
        <time>2019-08-16T15:12:50Z</time>
      </trkpt>
      <trkpt lat="47.97085" lon="6.75591">
        <ele>667.780823</ele>
        <time>2019-08-16T15:12:51Z</time>
      </trkpt>
      <trkpt lat="47.97083" lon="6.75597">
        <ele>666.757874</ele>
        <time>2019-08-16T15:12:52Z</time>
      </trkpt>
      <trkpt lat="47.97082" lon="6.75604">
        <ele>666.095093</ele>
        <time>2019-08-16T15:12:53Z</time>
      </trkpt>
      <trkpt lat="47.97081" lon="6.7561">
        <ele>665.476746</ele>
        <time>2019-08-16T15:12:54Z</time>
      </trkpt>
      <trkpt lat="47.97078" lon="6.75615">
        <ele>664.907959</ele>
        <time>2019-08-16T15:12:55Z</time>
      </trkpt>
      <trkpt lat="47.97075" lon="6.75615">
        <ele>664.377136</ele>
        <time>2019-08-16T15:12:56Z</time>
      </trkpt>
      <trkpt lat="47.97073" lon="6.75613">
        <ele>663.656738</ele>
        <time>2019-08-16T15:12:57Z</time>
      </trkpt>
      <trkpt lat="47.97072" lon="6.75608">
        <ele>663.213501</ele>
        <time>2019-08-16T15:12:58Z</time>
      </trkpt>
      <trkpt lat="47.97071" lon="6.75603">
        <ele>662.788147</ele>
        <time>2019-08-16T15:12:59Z</time>
      </trkpt>
      <trkpt lat="47.9707" lon="6.75596">
        <ele>662.355469</ele>
        <time>2019-08-16T15:13:00Z</time>
      </trkpt>
      <trkpt lat="47.9707" lon="6.75589">
        <ele>661.901428</ele>
        <time>2019-08-16T15:13:01Z</time>
      </trkpt>
      <trkpt lat="47.97069" lon="6.75582">
        <ele>661.666016</ele>
        <time>2019-08-16T15:13:02Z</time>
      </trkpt>
      <trkpt lat="47.97069" lon="6.75575">
        <ele>661.427429</ele>
        <time>2019-08-16T15:13:03Z</time>
      </trkpt>
      <trkpt lat="47.97071" lon="6.75569">
        <ele>660.950378</ele>
        <time>2019-08-16T15:13:04Z</time>
      </trkpt>
      <trkpt lat="47.97072" lon="6.75564">
        <ele>660.483948</ele>
        <time>2019-08-16T15:13:05Z</time>
      </trkpt>
      <trkpt lat="47.97073" lon="6.75559">
        <ele>659.808105</ele>
        <time>2019-08-16T15:13:06Z</time>
      </trkpt>
      <trkpt lat="47.97075" lon="6.75555">
        <ele>659.38324</ele>
        <time>2019-08-16T15:13:07Z</time>
      </trkpt>
      <trkpt lat="47.97076" lon="6.75551">
        <ele>658.990051</ele>
        <time>2019-08-16T15:13:08Z</time>
      </trkpt>
      <trkpt lat="47.97077" lon="6.75548">
        <ele>658.643311</ele>
        <time>2019-08-16T15:13:09Z</time>
      </trkpt>
      <trkpt lat="47.97082" lon="6.75534">
        <ele>657.5354</ele>
        <time>2019-08-16T15:13:34Z</time>
      </trkpt>
      <trkpt lat="47.97083" lon="6.75531">
        <ele>657.55365</ele>
        <time>2019-08-16T15:13:36Z</time>
      </trkpt>
      <trkpt lat="47.97085" lon="6.75526">
        <ele>657.587219</ele>
        <time>2019-08-16T15:13:37Z</time>
      </trkpt>
      <trkpt lat="47.97087" lon="6.75521">
        <ele>657.612732</ele>
        <time>2019-08-16T15:13:38Z</time>
      </trkpt>
      <trkpt lat="47.97088" lon="6.75516">
        <ele>657.645691</ele>
        <time>2019-08-16T15:13:39Z</time>
      </trkpt>
      <trkpt lat="47.9709" lon="6.75511">
        <ele>657.683777</ele>
        <time>2019-08-16T15:13:40Z</time>
      </trkpt>
      <trkpt lat="47.97092" lon="6.75505">
        <ele>657.721741</ele>
        <time>2019-08-16T15:13:41Z</time>
      </trkpt>
      <trkpt lat="47.97094" lon="6.755">
        <ele>657.750671</ele>
        <time>2019-08-16T15:13:42Z</time>
      </trkpt>
      <trkpt lat="47.97096" lon="6.75495">
        <ele>657.781982</ele>
        <time>2019-08-16T15:13:43Z</time>
      </trkpt>
      <trkpt lat="47.97099" lon="6.7549">
        <ele>657.793152</ele>
        <time>2019-08-16T15:13:44Z</time>
      </trkpt>
      <trkpt lat="47.97102" lon="6.75486">
        <ele>657.795593</ele>
        <time>2019-08-16T15:13:45Z</time>
      </trkpt>
      <trkpt lat="47.97105" lon="6.75482">
        <ele>657.798523</ele>
        <time>2019-08-16T15:13:46Z</time>
      </trkpt>
      <trkpt lat="47.97108" lon="6.75478">
        <ele>657.807129</ele>
        <time>2019-08-16T15:13:47Z</time>
      </trkpt>
      <trkpt lat="47.9711" lon="6.75474">
        <ele>657.83197</ele>
        <time>2019-08-16T15:13:48Z</time>
      </trkpt>
      <trkpt lat="47.97111" lon="6.75469">
        <ele>657.918945</ele>
        <time>2019-08-16T15:13:49Z</time>
      </trkpt>
      <trkpt lat="47.97112" lon="6.75464">
        <ele>658.009033</ele>
        <time>2019-08-16T15:13:50Z</time>
      </trkpt>
      <trkpt lat="47.97113" lon="6.75458">
        <ele>658.121704</ele>
        <time>2019-08-16T15:13:51Z</time>
      </trkpt>
      <trkpt lat="47.97113" lon="6.75451">
        <ele>658.250427</ele>
        <time>2019-08-16T15:13:52Z</time>
      </trkpt>
      <trkpt lat="47.97114" lon="6.75445">
        <ele>658.387268</ele>
        <time>2019-08-16T15:13:53Z</time>
      </trkpt>
      <trkpt lat="47.97113" lon="6.75438">
        <ele>658.520508</ele>
        <time>2019-08-16T15:13:54Z</time>
      </trkpt>
      <trkpt lat="47.97113" lon="6.75431">
        <ele>658.640198</ele>
        <time>2019-08-16T15:13:55Z</time>
      </trkpt>
      <trkpt lat="47.97113" lon="6.75424">
        <ele>658.736755</ele>
        <time>2019-08-16T15:13:56Z</time>
      </trkpt>
      <trkpt lat="47.97113" lon="6.75416">
        <ele>658.807617</ele>
        <time>2019-08-16T15:13:57Z</time>
      </trkpt>
      <trkpt lat="47.97113" lon="6.75408">
        <ele>658.855591</ele>
        <time>2019-08-16T15:13:58Z</time>
      </trkpt>
      <trkpt lat="47.97113" lon="6.75399">
        <ele>658.871887</ele>
        <time>2019-08-16T15:13:59Z</time>
      </trkpt>
      <trkpt lat="47.97113" lon="6.75391">
        <ele>658.865417</ele>
        <time>2019-08-16T15:14:00Z</time>
      </trkpt>
      <trkpt lat="47.97113" lon="6.75382">
        <ele>658.819275</ele>
        <time>2019-08-16T15:14:01Z</time>
      </trkpt>
      <trkpt lat="47.97112" lon="6.75374">
        <ele>658.731873</ele>
        <time>2019-08-16T15:14:02Z</time>
      </trkpt>
      <trkpt lat="47.97112" lon="6.75364">
        <ele>658.677429</ele>
        <time>2019-08-16T15:14:03Z</time>
      </trkpt>
      <trkpt lat="47.97112" lon="6.75355">
        <ele>658.552124</ele>
        <time>2019-08-16T15:14:04Z</time>
      </trkpt>
      <trkpt lat="47.97111" lon="6.75346">
        <ele>658.405457</ele>
        <time>2019-08-16T15:14:05Z</time>
      </trkpt>
      <trkpt lat="47.97111" lon="6.75337">
        <ele>658.22821</ele>
        <time>2019-08-16T15:14:06Z</time>
      </trkpt>
      <trkpt lat="47.97111" lon="6.75327">
        <ele>658.018372</ele>
        <time>2019-08-16T15:14:07Z</time>
      </trkpt>
      <trkpt lat="47.97111" lon="6.75318">
        <ele>657.78363</ele>
        <time>2019-08-16T15:14:08Z</time>
      </trkpt>
      <trkpt lat="47.97111" lon="6.75309">
        <ele>657.528198</ele>
        <time>2019-08-16T15:14:09Z</time>
      </trkpt>
      <trkpt lat="47.97112" lon="6.753">
        <ele>657.24408</ele>
        <time>2019-08-16T15:14:10Z</time>
      </trkpt>
      <trkpt lat="47.97114" lon="6.75292">
        <ele>656.929016</ele>
        <time>2019-08-16T15:14:11Z</time>
      </trkpt>
      <trkpt lat="47.97116" lon="6.75283">
        <ele>656.600098</ele>
        <time>2019-08-16T15:14:12Z</time>
      </trkpt>
      <trkpt lat="47.97118" lon="6.75275">
        <ele>656.288391</ele>
        <time>2019-08-16T15:14:13Z</time>
      </trkpt>
      <trkpt lat="47.9712" lon="6.75266">
        <ele>656.005554</ele>
        <time>2019-08-16T15:14:14Z</time>
      </trkpt>
      <trkpt lat="47.97122" lon="6.75257">
        <ele>655.6297</ele>
        <time>2019-08-16T15:14:15Z</time>
      </trkpt>
      <trkpt lat="47.97123" lon="6.75247">
        <ele>655.394775</ele>
        <time>2019-08-16T15:14:16Z</time>
      </trkpt>
      <trkpt lat="47.97123" lon="6.75237">
        <ele>655.166992</ele>
        <time>2019-08-16T15:14:17Z</time>
      </trkpt>
      <trkpt lat="47.97124" lon="6.75228">
        <ele>654.947205</ele>
        <time>2019-08-16T15:14:18Z</time>
      </trkpt>
      <trkpt lat="47.97124" lon="6.75219">
        <ele>654.729797</ele>
        <time>2019-08-16T15:14:19Z</time>
      </trkpt>
      <trkpt lat="47.97123" lon="6.75209">
        <ele>654.520386</ele>
        <time>2019-08-16T15:14:20Z</time>
      </trkpt>
      <trkpt lat="47.97123" lon="6.75199">
        <ele>654.319885</ele>
        <time>2019-08-16T15:14:21Z</time>
      </trkpt>
      <trkpt lat="47.97123" lon="6.7519">
        <ele>654.130127</ele>
        <time>2019-08-16T15:14:22Z</time>
      </trkpt>
      <trkpt lat="47.97123" lon="6.7518">
        <ele>653.949158</ele>
        <time>2019-08-16T15:14:23Z</time>
      </trkpt>
      <trkpt lat="47.97123" lon="6.7517">
        <ele>653.776672</ele>
        <time>2019-08-16T15:14:24Z</time>
      </trkpt>
      <trkpt lat="47.97123" lon="6.75159">
        <ele>653.619568</ele>
        <time>2019-08-16T15:14:25Z</time>
      </trkpt>
      <trkpt lat="47.97123" lon="6.75149">
        <ele>653.46759</ele>
        <time>2019-08-16T15:14:26Z</time>
      </trkpt>
      <trkpt lat="47.97122" lon="6.75139">
        <ele>653.21521</ele>
        <time>2019-08-16T15:14:27Z</time>
      </trkpt>
      <trkpt lat="47.97121" lon="6.7513">
        <ele>653.012695</ele>
        <time>2019-08-16T15:14:28Z</time>
      </trkpt>
      <trkpt lat="47.97121" lon="6.7512">
        <ele>652.789246</ele>
        <time>2019-08-16T15:14:29Z</time>
      </trkpt>
      <trkpt lat="47.97121" lon="6.75111">
        <ele>652.553772</ele>
        <time>2019-08-16T15:14:30Z</time>
      </trkpt>
      <trkpt lat="47.97121" lon="6.75102">
        <ele>652.313965</ele>
        <time>2019-08-16T15:14:31Z</time>
      </trkpt>
      <trkpt lat="47.97123" lon="6.75094">
        <ele>652.078735</ele>
        <time>2019-08-16T15:14:32Z</time>
      </trkpt>
      <trkpt lat="47.97125" lon="6.75086">
        <ele>651.86554</ele>
        <time>2019-08-16T15:14:33Z</time>
      </trkpt>
      <trkpt lat="47.97126" lon="6.75079">
        <ele>651.696228</ele>
        <time>2019-08-16T15:14:34Z</time>
      </trkpt>
      <trkpt lat="47.97128" lon="6.75071">
        <ele>651.579163</ele>
        <time>2019-08-16T15:14:35Z</time>
      </trkpt>
      <trkpt lat="47.9713" lon="6.75065">
        <ele>651.521484</ele>
        <time>2019-08-16T15:14:36Z</time>
      </trkpt>
      <trkpt lat="47.97132" lon="6.75058">
        <ele>651.514648</ele>
        <time>2019-08-16T15:14:37Z</time>
      </trkpt>
      <trkpt lat="47.97134" lon="6.75052">
        <ele>651.548279</ele>
        <time>2019-08-16T15:14:38Z</time>
      </trkpt>
      <trkpt lat="47.97135" lon="6.75045">
        <ele>651.638855</ele>
        <time>2019-08-16T15:14:39Z</time>
      </trkpt>
      <trkpt lat="47.97137" lon="6.75039">
        <ele>651.772522</ele>
        <time>2019-08-16T15:14:40Z</time>
      </trkpt>
      <trkpt lat="47.97138" lon="6.75033">
        <ele>651.944153</ele>
        <time>2019-08-16T15:14:41Z</time>
      </trkpt>
      <trkpt lat="47.97139" lon="6.75026">
        <ele>652.154175</ele>
        <time>2019-08-16T15:14:42Z</time>
      </trkpt>
      <trkpt lat="47.97141" lon="6.7502">
        <ele>652.404236</ele>
        <time>2019-08-16T15:14:43Z</time>
      </trkpt>
      <trkpt lat="47.97142" lon="6.75013">
        <ele>652.862488</ele>
        <time>2019-08-16T15:14:44Z</time>
      </trkpt>
      <trkpt lat="47.97144" lon="6.75006">
        <ele>653.23175</ele>
        <time>2019-08-16T15:14:45Z</time>
      </trkpt>
      <trkpt lat="47.97146" lon="6.75">
        <ele>653.64624</ele>
        <time>2019-08-16T15:14:46Z</time>
      </trkpt>
      <trkpt lat="47.97147" lon="6.74995">
        <ele>654.297058</ele>
        <time>2019-08-16T15:14:47Z</time>
      </trkpt>
      <trkpt lat="47.97148" lon="6.74989">
        <ele>654.721069</ele>
        <time>2019-08-16T15:14:48Z</time>
      </trkpt>
      <trkpt lat="47.97149" lon="6.74982">
        <ele>655.119934</ele>
        <time>2019-08-16T15:14:49Z</time>
      </trkpt>
      <trkpt lat="47.97151" lon="6.74976">
        <ele>655.477051</ele>
        <time>2019-08-16T15:14:50Z</time>
      </trkpt>
      <trkpt lat="47.97153" lon="6.74969">
        <ele>655.771973</ele>
        <time>2019-08-16T15:14:51Z</time>
      </trkpt>
      <trkpt lat="47.97154" lon="6.74962">
        <ele>656.085632</ele>
        <time>2019-08-16T15:14:52Z</time>
      </trkpt>
      <trkpt lat="47.97155" lon="6.74955">
        <ele>656.215027</ele>
        <time>2019-08-16T15:14:53Z</time>
      </trkpt>
      <trkpt lat="47.97157" lon="6.74947">
        <ele>656.28418</ele>
        <time>2019-08-16T15:14:54Z</time>
      </trkpt>
      <trkpt lat="47.97157" lon="6.7494">
        <ele>656.294617</ele>
        <time>2019-08-16T15:14:55Z</time>
      </trkpt>
      <trkpt lat="47.97158" lon="6.74932">
        <ele>656.291077</ele>
        <time>2019-08-16T15:14:56Z</time>
      </trkpt>
      <trkpt lat="47.9716" lon="6.74924">
        <ele>656.243225</ele>
        <time>2019-08-16T15:14:57Z</time>
      </trkpt>
      <trkpt lat="47.9716" lon="6.74917">
        <ele>656.157043</ele>
        <time>2019-08-16T15:14:58Z</time>
      </trkpt>
      <trkpt lat="47.97162" lon="6.74909">
        <ele>656.059143</ele>
        <time>2019-08-16T15:14:59Z</time>
      </trkpt>
      <trkpt lat="47.97163" lon="6.749">
        <ele>655.956238</ele>
        <time>2019-08-16T15:15:00Z</time>
      </trkpt>
      <trkpt lat="47.97164" lon="6.74891">
        <ele>655.845886</ele>
        <time>2019-08-16T15:15:01Z</time>
      </trkpt>
      <trkpt lat="47.97165" lon="6.74882">
        <ele>655.716003</ele>
        <time>2019-08-16T15:15:02Z</time>
      </trkpt>
      <trkpt lat="47.97166" lon="6.74873">
        <ele>655.562561</ele>
        <time>2019-08-16T15:15:03Z</time>
      </trkpt>
      <trkpt lat="47.97168" lon="6.74853">
        <ele>655.476807</ele>
        <time>2019-08-16T15:15:05Z</time>
      </trkpt>
      <trkpt lat="47.9717" lon="6.74843">
        <ele>655.292297</ele>
        <time>2019-08-16T15:15:06Z</time>
      </trkpt>
      <trkpt lat="47.97171" lon="6.74832">
        <ele>655.088379</ele>
        <time>2019-08-16T15:15:07Z</time>
      </trkpt>
      <trkpt lat="47.97172" lon="6.74821">
        <ele>654.861816</ele>
        <time>2019-08-16T15:15:08Z</time>
      </trkpt>
      <trkpt lat="47.97173" lon="6.74809">
        <ele>654.604309</ele>
        <time>2019-08-16T15:15:09Z</time>
      </trkpt>
      <trkpt lat="47.97173" lon="6.74798">
        <ele>654.310974</ele>
        <time>2019-08-16T15:15:10Z</time>
      </trkpt>
      <trkpt lat="47.97175" lon="6.74787">
        <ele>653.979309</ele>
        <time>2019-08-16T15:15:11Z</time>
      </trkpt>
      <trkpt lat="47.97176" lon="6.74775">
        <ele>653.60437</ele>
        <time>2019-08-16T15:15:12Z</time>
      </trkpt>
      <trkpt lat="47.97176" lon="6.74762">
        <ele>652.967224</ele>
        <time>2019-08-16T15:15:13Z</time>
      </trkpt>
      <trkpt lat="47.97178" lon="6.7475">
        <ele>652.496521</ele>
        <time>2019-08-16T15:15:14Z</time>
      </trkpt>
      <trkpt lat="47.97179" lon="6.74737">
        <ele>652.00293</ele>
        <time>2019-08-16T15:15:15Z</time>
      </trkpt>
      <trkpt lat="47.9718" lon="6.74725">
        <ele>651.497314</ele>
        <time>2019-08-16T15:15:16Z</time>
      </trkpt>
      <trkpt lat="47.9718" lon="6.74712">
        <ele>650.992188</ele>
        <time>2019-08-16T15:15:17Z</time>
      </trkpt>
      <trkpt lat="47.97181" lon="6.747">
        <ele>650.490356</ele>
        <time>2019-08-16T15:15:18Z</time>
      </trkpt>
      <trkpt lat="47.97181" lon="6.74687">
        <ele>649.99176</ele>
        <time>2019-08-16T15:15:19Z</time>
      </trkpt>
      <trkpt lat="47.97182" lon="6.74675">
        <ele>649.502686</ele>
        <time>2019-08-16T15:15:20Z</time>
      </trkpt>
      <trkpt lat="47.97183" lon="6.74663">
        <ele>649.030579</ele>
        <time>2019-08-16T15:15:21Z</time>
      </trkpt>
      <trkpt lat="47.97184" lon="6.74652">
        <ele>648.585449</ele>
        <time>2019-08-16T15:15:22Z</time>
      </trkpt>
      <trkpt lat="47.97186" lon="6.74641">
        <ele>648.169128</ele>
        <time>2019-08-16T15:15:23Z</time>
      </trkpt>
      <trkpt lat="47.97187" lon="6.74629">
        <ele>647.778381</ele>
        <time>2019-08-16T15:15:24Z</time>
      </trkpt>
      <trkpt lat="47.97189" lon="6.74618">
        <ele>647.418274</ele>
        <time>2019-08-16T15:15:25Z</time>
      </trkpt>
      <trkpt lat="47.9719" lon="6.74606">
        <ele>647.099182</ele>
        <time>2019-08-16T15:15:26Z</time>
      </trkpt>
      <trkpt lat="47.97192" lon="6.74595">
        <ele>646.827698</ele>
        <time>2019-08-16T15:15:27Z</time>
      </trkpt>
      <trkpt lat="47.97195" lon="6.74584">
        <ele>646.595276</ele>
        <time>2019-08-16T15:15:28Z</time>
      </trkpt>
      <trkpt lat="47.97197" lon="6.74574">
        <ele>646.387695</ele>
        <time>2019-08-16T15:15:29Z</time>
      </trkpt>
      <trkpt lat="47.972" lon="6.74563">
        <ele>646.104919</ele>
        <time>2019-08-16T15:15:30Z</time>
      </trkpt>
      <trkpt lat="47.97202" lon="6.74553">
        <ele>645.930237</ele>
        <time>2019-08-16T15:15:31Z</time>
      </trkpt>
      <trkpt lat="47.97206" lon="6.74544">
        <ele>645.762573</ele>
        <time>2019-08-16T15:15:32Z</time>
      </trkpt>
      <trkpt lat="47.97209" lon="6.74534">
        <ele>645.601929</ele>
        <time>2019-08-16T15:15:33Z</time>
      </trkpt>
      <trkpt lat="47.97212" lon="6.74524">
        <ele>645.441589</ele>
        <time>2019-08-16T15:15:34Z</time>
      </trkpt>
      <trkpt lat="47.97216" lon="6.74514">
        <ele>645.175781</ele>
        <time>2019-08-16T15:15:35Z</time>
      </trkpt>
      <trkpt lat="47.97219" lon="6.74504">
        <ele>644.966675</ele>
        <time>2019-08-16T15:15:36Z</time>
      </trkpt>
      <trkpt lat="47.97222" lon="6.74495">
        <ele>644.738159</ele>
        <time>2019-08-16T15:15:37Z</time>
      </trkpt>
      <trkpt lat="47.97226" lon="6.74485">
        <ele>644.501282</ele>
        <time>2019-08-16T15:15:38Z</time>
      </trkpt>
      <trkpt lat="47.9723" lon="6.74476">
        <ele>644.259705</ele>
        <time>2019-08-16T15:15:39Z</time>
      </trkpt>
      <trkpt lat="47.97234" lon="6.74467">
        <ele>643.888062</ele>
        <time>2019-08-16T15:15:40Z</time>
      </trkpt>
      <trkpt lat="47.97238" lon="6.74457">
        <ele>643.639832</ele>
        <time>2019-08-16T15:15:41Z</time>
      </trkpt>
      <trkpt lat="47.97241" lon="6.74448">
        <ele>643.404968</ele>
        <time>2019-08-16T15:15:42Z</time>
      </trkpt>
      <trkpt lat="47.97245" lon="6.74438">
        <ele>643.191528</ele>
        <time>2019-08-16T15:15:43Z</time>
      </trkpt>
      <trkpt lat="47.97249" lon="6.74428">
        <ele>642.892517</ele>
        <time>2019-08-16T15:15:44Z</time>
      </trkpt>
      <trkpt lat="47.97253" lon="6.74418">
        <ele>642.681091</ele>
        <time>2019-08-16T15:15:45Z</time>
      </trkpt>
      <trkpt lat="47.97258" lon="6.7441">
        <ele>642.442444</ele>
        <time>2019-08-16T15:15:46Z</time>
      </trkpt>
      <trkpt lat="47.97264" lon="6.74404">
        <ele>642.023254</ele>
        <time>2019-08-16T15:15:47Z</time>
      </trkpt>
      <trkpt lat="47.9727" lon="6.74402">
        <ele>641.7005</ele>
        <time>2019-08-16T15:15:48Z</time>
      </trkpt>
      <trkpt lat="47.97277" lon="6.74401">
        <ele>641.339722</ele>
        <time>2019-08-16T15:15:49Z</time>
      </trkpt>
      <trkpt lat="47.97282" lon="6.74399">
        <ele>640.737122</ele>
        <time>2019-08-16T15:15:50Z</time>
      </trkpt>
      <trkpt lat="47.97287" lon="6.74394">
        <ele>640.312134</ele>
        <time>2019-08-16T15:15:51Z</time>
      </trkpt>
      <trkpt lat="47.97291" lon="6.74389">
        <ele>639.89679</ele>
        <time>2019-08-16T15:15:52Z</time>
      </trkpt>
      <trkpt lat="47.97294" lon="6.74385">
        <ele>639.508728</ele>
        <time>2019-08-16T15:15:53Z</time>
      </trkpt>
      <trkpt lat="47.97297" lon="6.74381">
        <ele>638.984924</ele>
        <time>2019-08-16T15:15:54Z</time>
      </trkpt>
      <trkpt lat="47.973" lon="6.74377">
        <ele>638.680847</ele>
        <time>2019-08-16T15:15:55Z</time>
      </trkpt>
      <trkpt lat="47.97303" lon="6.74372">
        <ele>638.42865</ele>
        <time>2019-08-16T15:15:56Z</time>
      </trkpt>
      <trkpt lat="47.97307" lon="6.74367">
        <ele>638.232849</ele>
        <time>2019-08-16T15:15:57Z</time>
      </trkpt>
      <trkpt lat="47.97311" lon="6.74362">
        <ele>638.024536</ele>
        <time>2019-08-16T15:15:58Z</time>
      </trkpt>
      <trkpt lat="47.97315" lon="6.74357">
        <ele>637.918518</ele>
        <time>2019-08-16T15:15:59Z</time>
      </trkpt>
      <trkpt lat="47.9732" lon="6.74353">
        <ele>637.828247</ele>
        <time>2019-08-16T15:16:00Z</time>
      </trkpt>
      <trkpt lat="47.97324" lon="6.7435">
        <ele>637.716187</ele>
        <time>2019-08-16T15:16:01Z</time>
      </trkpt>
      <trkpt lat="47.97328" lon="6.74347">
        <ele>637.667053</ele>
        <time>2019-08-16T15:16:02Z</time>
      </trkpt>
      <trkpt lat="47.97332" lon="6.74345">
        <ele>637.641663</ele>
        <time>2019-08-16T15:16:03Z</time>
      </trkpt>
      <trkpt lat="47.97337" lon="6.74343">
        <ele>637.641663</ele>
        <time>2019-08-16T15:16:04Z</time>
      </trkpt>
      <trkpt lat="47.97341" lon="6.74343">
        <ele>637.644714</ele>
        <time>2019-08-16T15:16:05Z</time>
      </trkpt>
      <trkpt lat="47.97345" lon="6.74345">
        <ele>637.657715</ele>
        <time>2019-08-16T15:16:06Z</time>
      </trkpt>
      <trkpt lat="47.9735" lon="6.74347">
        <ele>637.759338</ele>
        <time>2019-08-16T15:16:07Z</time>
      </trkpt>
      <trkpt lat="47.97356" lon="6.74348">
        <ele>637.867188</ele>
        <time>2019-08-16T15:16:08Z</time>
      </trkpt>
      <trkpt lat="47.97362" lon="6.74349">
        <ele>637.978577</ele>
        <time>2019-08-16T15:16:09Z</time>
      </trkpt>
      <trkpt lat="47.97369" lon="6.74348">
        <ele>638.088074</ele>
        <time>2019-08-16T15:16:10Z</time>
      </trkpt>
      <trkpt lat="47.97376" lon="6.74346">
        <ele>638.093323</ele>
        <time>2019-08-16T15:16:11Z</time>
      </trkpt>
      <trkpt lat="47.97382" lon="6.74341">
        <ele>638.078857</ele>
        <time>2019-08-16T15:16:12Z</time>
      </trkpt>
      <trkpt lat="47.97389" lon="6.74334">
        <ele>637.901245</ele>
        <time>2019-08-16T15:16:13Z</time>
      </trkpt>
      <trkpt lat="47.97395" lon="6.74327">
        <ele>637.675659</ele>
        <time>2019-08-16T15:16:14Z</time>
      </trkpt>
      <trkpt lat="47.974" lon="6.74318">
        <ele>637.363342</ele>
        <time>2019-08-16T15:16:15Z</time>
      </trkpt>
      <trkpt lat="47.97404" lon="6.74308">
        <ele>636.966431</ele>
        <time>2019-08-16T15:16:16Z</time>
      </trkpt>
      <trkpt lat="47.97407" lon="6.74297">
        <ele>636.260986</ele>
        <time>2019-08-16T15:16:17Z</time>
      </trkpt>
      <trkpt lat="47.97412" lon="6.74289">
        <ele>635.745178</ele>
        <time>2019-08-16T15:16:18Z</time>
      </trkpt>
      <trkpt lat="47.97417" lon="6.74283">
        <ele>635.209412</ele>
        <time>2019-08-16T15:16:19Z</time>
      </trkpt>
      <trkpt lat="47.97423" lon="6.74279">
        <ele>634.672791</ele>
        <time>2019-08-16T15:16:20Z</time>
      </trkpt>
      <trkpt lat="47.9743" lon="6.74275">
        <ele>633.893616</ele>
        <time>2019-08-16T15:16:21Z</time>
      </trkpt>
      <trkpt lat="47.97437" lon="6.74269">
        <ele>633.40802</ele>
        <time>2019-08-16T15:16:22Z</time>
      </trkpt>
      <trkpt lat="47.97444" lon="6.74263">
        <ele>632.960632</ele>
        <time>2019-08-16T15:16:23Z</time>
      </trkpt>
      <trkpt lat="47.97449" lon="6.74258">
        <ele>632.534668</ele>
        <time>2019-08-16T15:16:24Z</time>
      </trkpt>
      <trkpt lat="47.97455" lon="6.74253">
        <ele>631.921448</ele>
        <time>2019-08-16T15:16:25Z</time>
      </trkpt>
      <trkpt lat="47.97462" lon="6.74251">
        <ele>631.529358</ele>
        <time>2019-08-16T15:16:26Z</time>
      </trkpt>
      <trkpt lat="47.9747" lon="6.74251">
        <ele>631.144775</ele>
        <time>2019-08-16T15:16:27Z</time>
      </trkpt>
      <trkpt lat="47.97479" lon="6.74251">
        <ele>630.567322</ele>
        <time>2019-08-16T15:16:28Z</time>
      </trkpt>
      <trkpt lat="47.97488" lon="6.74251">
        <ele>630.17572</ele>
        <time>2019-08-16T15:16:29Z</time>
      </trkpt>
      <trkpt lat="47.97498" lon="6.74251">
        <ele>629.571777</ele>
        <time>2019-08-16T15:16:30Z</time>
      </trkpt>
      <trkpt lat="47.97506" lon="6.74253">
        <ele>629.142395</ele>
        <time>2019-08-16T15:16:31Z</time>
      </trkpt>
      <trkpt lat="47.97514" lon="6.74257">
        <ele>628.689941</ele>
        <time>2019-08-16T15:16:32Z</time>
      </trkpt>
      <trkpt lat="47.97521" lon="6.74261">
        <ele>627.9776</ele>
        <time>2019-08-16T15:16:33Z</time>
      </trkpt>
      <trkpt lat="47.97527" lon="6.74266">
        <ele>627.487122</ele>
        <time>2019-08-16T15:16:34Z</time>
      </trkpt>
      <trkpt lat="47.97533" lon="6.74271">
        <ele>626.986877</ele>
        <time>2019-08-16T15:16:35Z</time>
      </trkpt>
      <trkpt lat="47.97537" lon="6.74276">
        <ele>626.211975</ele>
        <time>2019-08-16T15:16:36Z</time>
      </trkpt>
      <trkpt lat="47.97542" lon="6.74277">
        <ele>625.66217</ele>
        <time>2019-08-16T15:16:37Z</time>
      </trkpt>
      <trkpt lat="47.97546" lon="6.74276">
        <ele>625.067139</ele>
        <time>2019-08-16T15:16:38Z</time>
      </trkpt>
      <trkpt lat="47.97549" lon="6.74271">
        <ele>624.429199</ele>
        <time>2019-08-16T15:16:39Z</time>
      </trkpt>
      <trkpt lat="47.97551" lon="6.74265">
        <ele>623.416077</ele>
        <time>2019-08-16T15:16:40Z</time>
      </trkpt>
      <trkpt lat="47.97554" lon="6.74257">
        <ele>622.743225</ele>
        <time>2019-08-16T15:16:41Z</time>
      </trkpt>
      <trkpt lat="47.97556" lon="6.74249">
        <ele>622.094177</ele>
        <time>2019-08-16T15:16:42Z</time>
      </trkpt>
      <trkpt lat="47.97558" lon="6.74241">
        <ele>621.490356</ele>
        <time>2019-08-16T15:16:43Z</time>
      </trkpt>
      <trkpt lat="47.97561" lon="6.74232">
        <ele>620.929138</ele>
        <time>2019-08-16T15:16:44Z</time>
      </trkpt>
      <trkpt lat="47.97564" lon="6.74224">
        <ele>620.418396</ele>
        <time>2019-08-16T15:16:45Z</time>
      </trkpt>
      <trkpt lat="47.97565" lon="6.74215">
        <ele>619.73645</ele>
        <time>2019-08-16T15:16:46Z</time>
      </trkpt>
      <trkpt lat="47.97567" lon="6.74206">
        <ele>619.332703</ele>
        <time>2019-08-16T15:16:47Z</time>
      </trkpt>
      <trkpt lat="47.97569" lon="6.74198">
        <ele>618.976318</ele>
        <time>2019-08-16T15:16:48Z</time>
      </trkpt>
      <trkpt lat="47.97571" lon="6.7419">
        <ele>618.670166</ele>
        <time>2019-08-16T15:16:49Z</time>
      </trkpt>
      <trkpt lat="47.97574" lon="6.74182">
        <ele>618.40033</ele>
        <time>2019-08-16T15:16:50Z</time>
      </trkpt>
      <trkpt lat="47.97577" lon="6.74175">
        <ele>618.027466</ele>
        <time>2019-08-16T15:16:51Z</time>
      </trkpt>
      <trkpt lat="47.97581" lon="6.74168">
        <ele>617.798157</ele>
        <time>2019-08-16T15:16:52Z</time>
      </trkpt>
      <trkpt lat="47.97585" lon="6.74162">
        <ele>617.589417</ele>
        <time>2019-08-16T15:16:53Z</time>
      </trkpt>
      <trkpt lat="47.97589" lon="6.74156">
        <ele>617.393677</ele>
        <time>2019-08-16T15:16:54Z</time>
      </trkpt>
      <trkpt lat="47.97592" lon="6.7415">
        <ele>617.198364</ele>
        <time>2019-08-16T15:16:55Z</time>
      </trkpt>
      <trkpt lat="47.97596" lon="6.74143">
        <ele>616.866943</ele>
        <time>2019-08-16T15:16:56Z</time>
      </trkpt>
      <trkpt lat="47.976" lon="6.74135">
        <ele>616.603333</ele>
        <time>2019-08-16T15:16:57Z</time>
      </trkpt>
      <trkpt lat="47.97604" lon="6.74127">
        <ele>616.298157</ele>
        <time>2019-08-16T15:16:58Z</time>
      </trkpt>
      <trkpt lat="47.97608" lon="6.74119">
        <ele>615.945374</ele>
        <time>2019-08-16T15:16:59Z</time>
      </trkpt>
      <trkpt lat="47.97612" lon="6.7411">
        <ele>615.292542</ele>
        <time>2019-08-16T15:17:00Z</time>
      </trkpt>
      <trkpt lat="47.97615" lon="6.74101">
        <ele>614.760071</ele>
        <time>2019-08-16T15:17:01Z</time>
      </trkpt>
      <trkpt lat="47.97619" lon="6.74092">
        <ele>614.147156</ele>
        <time>2019-08-16T15:17:02Z</time>
      </trkpt>
      <trkpt lat="47.97623" lon="6.74083">
        <ele>613.469299</ele>
        <time>2019-08-16T15:17:03Z</time>
      </trkpt>
      <trkpt lat="47.97626" lon="6.74074">
        <ele>612.37793</ele>
        <time>2019-08-16T15:17:04Z</time>
      </trkpt>
      <trkpt lat="47.97629" lon="6.74065">
        <ele>612.009033</ele>
        <time>2019-08-16T15:17:05Z</time>
      </trkpt>
      <trkpt lat="47.97633" lon="6.74057">
        <ele>611.280029</ele>
        <time>2019-08-16T15:17:06Z</time>
      </trkpt>
      <trkpt lat="47.97636" lon="6.74049">
        <ele>610.27887</ele>
        <time>2019-08-16T15:17:07Z</time>
      </trkpt>
      <trkpt lat="47.9764" lon="6.7404">
        <ele>609.71051</ele>
        <time>2019-08-16T15:17:08Z</time>
      </trkpt>
      <trkpt lat="47.97643" lon="6.74031">
        <ele>609.228821</ele>
        <time>2019-08-16T15:17:09Z</time>
      </trkpt>
      <trkpt lat="47.97647" lon="6.74023">
        <ele>608.820251</ele>
        <time>2019-08-16T15:17:10Z</time>
      </trkpt>
      <trkpt lat="47.9765" lon="6.74015">
        <ele>608.329163</ele>
        <time>2019-08-16T15:17:11Z</time>
      </trkpt>
      <trkpt lat="47.97654" lon="6.74008">
        <ele>608.065918</ele>
        <time>2019-08-16T15:17:12Z</time>
      </trkpt>
      <trkpt lat="47.97659" lon="6.74001">
        <ele>607.831726</ele>
        <time>2019-08-16T15:17:13Z</time>
      </trkpt>
      <trkpt lat="47.97663" lon="6.73995">
        <ele>607.610291</ele>
        <time>2019-08-16T15:17:14Z</time>
      </trkpt>
      <trkpt lat="47.97667" lon="6.73989">
        <ele>607.277771</ele>
        <time>2019-08-16T15:17:15Z</time>
      </trkpt>
      <trkpt lat="47.97672" lon="6.73983">
        <ele>607.061584</ele>
        <time>2019-08-16T15:17:16Z</time>
      </trkpt>
      <trkpt lat="47.97676" lon="6.73978">
        <ele>606.846619</ele>
        <time>2019-08-16T15:17:17Z</time>
      </trkpt>
      <trkpt lat="47.97679" lon="6.73971">
        <ele>606.508362</ele>
        <time>2019-08-16T15:17:18Z</time>
      </trkpt>
      <trkpt lat="47.97683" lon="6.73965">
        <ele>606.255676</ele>
        <time>2019-08-16T15:17:19Z</time>
      </trkpt>
      <trkpt lat="47.97688" lon="6.73959">
        <ele>605.963806</ele>
        <time>2019-08-16T15:17:20Z</time>
      </trkpt>
      <trkpt lat="47.97692" lon="6.73953">
        <ele>605.638489</ele>
        <time>2019-08-16T15:17:21Z</time>
      </trkpt>
      <trkpt lat="47.97697" lon="6.73947">
        <ele>605.096741</ele>
        <time>2019-08-16T15:17:22Z</time>
      </trkpt>
      <trkpt lat="47.97701" lon="6.7394">
        <ele>604.707458</ele>
        <time>2019-08-16T15:17:23Z</time>
      </trkpt>
      <trkpt lat="47.97705" lon="6.73932">
        <ele>604.303711</ele>
        <time>2019-08-16T15:17:24Z</time>
      </trkpt>
      <trkpt lat="47.9771" lon="6.73924">
        <ele>603.711243</ele>
        <time>2019-08-16T15:17:25Z</time>
      </trkpt>
      <trkpt lat="47.97714" lon="6.73916">
        <ele>603.341064</ele>
        <time>2019-08-16T15:17:26Z</time>
      </trkpt>
      <trkpt lat="47.97718" lon="6.73907">
        <ele>602.983337</ele>
        <time>2019-08-16T15:17:27Z</time>
      </trkpt>
      <trkpt lat="47.97721" lon="6.73898">
        <ele>602.416809</ele>
        <time>2019-08-16T15:17:28Z</time>
      </trkpt>
      <trkpt lat="47.97725" lon="6.73889">
        <ele>601.999329</ele>
        <time>2019-08-16T15:17:29Z</time>
      </trkpt>
      <trkpt lat="47.97729" lon="6.73879">
        <ele>601.554321</ele>
        <time>2019-08-16T15:17:30Z</time>
      </trkpt>
      <trkpt lat="47.97734" lon="6.73869">
        <ele>601.075195</ele>
        <time>2019-08-16T15:17:31Z</time>
      </trkpt>
      <trkpt lat="47.97738" lon="6.73858">
        <ele>600.555969</ele>
        <time>2019-08-16T15:17:32Z</time>
      </trkpt>
      <trkpt lat="47.97742" lon="6.73847">
        <ele>600.002014</ele>
        <time>2019-08-16T15:17:33Z</time>
      </trkpt>
      <trkpt lat="47.97747" lon="6.73835">
        <ele>599.104492</ele>
        <time>2019-08-16T15:17:34Z</time>
      </trkpt>
      <trkpt lat="47.97752" lon="6.73824">
        <ele>598.439575</ele>
        <time>2019-08-16T15:17:35Z</time>
      </trkpt>
      <trkpt lat="47.97757" lon="6.73814">
        <ele>597.7099</ele>
        <time>2019-08-16T15:17:36Z</time>
      </trkpt>
      <trkpt lat="47.97762" lon="6.73804">
        <ele>596.929016</ele>
        <time>2019-08-16T15:17:37Z</time>
      </trkpt>
      <trkpt lat="47.97768" lon="6.73794">
        <ele>596.13562</ele>
        <time>2019-08-16T15:17:38Z</time>
      </trkpt>
      <trkpt lat="47.97773" lon="6.73785">
        <ele>595.358337</ele>
        <time>2019-08-16T15:17:39Z</time>
      </trkpt>
      <trkpt lat="47.97778" lon="6.73776">
        <ele>594.620667</ele>
        <time>2019-08-16T15:17:40Z</time>
      </trkpt>
      <trkpt lat="47.97783" lon="6.73768">
        <ele>593.940674</ele>
        <time>2019-08-16T15:17:41Z</time>
      </trkpt>
      <trkpt lat="47.97789" lon="6.7376">
        <ele>593.052185</ele>
        <time>2019-08-16T15:17:42Z</time>
      </trkpt>
      <trkpt lat="47.97794" lon="6.73752">
        <ele>592.561096</ele>
        <time>2019-08-16T15:17:43Z</time>
      </trkpt>
      <trkpt lat="47.97799" lon="6.73745">
        <ele>592.150757</ele>
        <time>2019-08-16T15:17:44Z</time>
      </trkpt>
      <trkpt lat="47.97805" lon="6.73738">
        <ele>591.664063</ele>
        <time>2019-08-16T15:17:45Z</time>
      </trkpt>
      <trkpt lat="47.9781" lon="6.73732">
        <ele>591.388123</ele>
        <time>2019-08-16T15:17:46Z</time>
      </trkpt>
      <trkpt lat="47.97815" lon="6.73726">
        <ele>591.144226</ele>
        <time>2019-08-16T15:17:47Z</time>
      </trkpt>
      <trkpt lat="47.97819" lon="6.7372">
        <ele>590.839417</ele>
        <time>2019-08-16T15:17:48Z</time>
      </trkpt>
      <trkpt lat="47.97824" lon="6.73713">
        <ele>590.673157</ele>
        <time>2019-08-16T15:17:49Z</time>
      </trkpt>
      <trkpt lat="47.97828" lon="6.73707">
        <ele>590.510742</ele>
        <time>2019-08-16T15:17:50Z</time>
      </trkpt>
      <trkpt lat="47.97832" lon="6.73701">
        <ele>590.283752</ele>
        <time>2019-08-16T15:17:51Z</time>
      </trkpt>
      <trkpt lat="47.97836" lon="6.73695">
        <ele>590.155884</ele>
        <time>2019-08-16T15:17:52Z</time>
      </trkpt>
      <trkpt lat="47.97839" lon="6.73688">
        <ele>590.049988</ele>
        <time>2019-08-16T15:17:53Z</time>
      </trkpt>
      <trkpt lat="47.97844" lon="6.73681">
        <ele>589.947083</ele>
        <time>2019-08-16T15:17:54Z</time>
      </trkpt>
      <trkpt lat="47.97848" lon="6.73674">
        <ele>589.795898</ele>
        <time>2019-08-16T15:17:55Z</time>
      </trkpt>
      <trkpt lat="47.9785" lon="6.73666">
        <ele>589.68988</ele>
        <time>2019-08-16T15:17:56Z</time>
      </trkpt>
      <trkpt lat="47.97854" lon="6.73658">
        <ele>589.566589</ele>
        <time>2019-08-16T15:17:57Z</time>
      </trkpt>
      <trkpt lat="47.97857" lon="6.73649">
        <ele>589.400574</ele>
        <time>2019-08-16T15:17:58Z</time>
      </trkpt>
      <trkpt lat="47.97861" lon="6.73641">
        <ele>589.17627</ele>
        <time>2019-08-16T15:17:59Z</time>
      </trkpt>
      <trkpt lat="47.97864" lon="6.73632">
        <ele>588.913025</ele>
        <time>2019-08-16T15:18:00Z</time>
      </trkpt>
      <trkpt lat="47.97868" lon="6.73625">
        <ele>588.489075</ele>
        <time>2019-08-16T15:18:01Z</time>
      </trkpt>
      <trkpt lat="47.9787" lon="6.73617">
        <ele>588.185852</ele>
        <time>2019-08-16T15:18:02Z</time>
      </trkpt>
      <trkpt lat="47.97873" lon="6.73609">
        <ele>587.858948</ele>
        <time>2019-08-16T15:18:03Z</time>
      </trkpt>
      <trkpt lat="47.97875" lon="6.73601">
        <ele>587.532532</ele>
        <time>2019-08-16T15:18:04Z</time>
      </trkpt>
      <trkpt lat="47.97878" lon="6.73594">
        <ele>587.226929</ele>
        <time>2019-08-16T15:18:05Z</time>
      </trkpt>
      <trkpt lat="47.97881" lon="6.73587">
        <ele>587.087769</ele>
        <time>2019-08-16T15:18:06Z</time>
      </trkpt>
      <trkpt lat="47.97884" lon="6.73581">
        <ele>586.960754</ele>
        <time>2019-08-16T15:18:07Z</time>
      </trkpt>
      <trkpt lat="47.97887" lon="6.73575">
        <ele>586.847656</ele>
        <time>2019-08-16T15:18:08Z</time>
      </trkpt>
      <trkpt lat="47.97891" lon="6.7357">
        <ele>586.673035</ele>
        <time>2019-08-16T15:18:09Z</time>
      </trkpt>
      <trkpt lat="47.97893" lon="6.73564">
        <ele>586.564514</ele>
        <time>2019-08-16T15:18:10Z</time>
      </trkpt>
      <trkpt lat="47.97896" lon="6.73557">
        <ele>586.503845</ele>
        <time>2019-08-16T15:18:11Z</time>
      </trkpt>
      <trkpt lat="47.97899" lon="6.7355">
        <ele>586.452454</ele>
        <time>2019-08-16T15:18:12Z</time>
      </trkpt>
      <trkpt lat="47.97902" lon="6.73543">
        <ele>586.42688</ele>
        <time>2019-08-16T15:18:13Z</time>
      </trkpt>
      <trkpt lat="47.97905" lon="6.73536">
        <ele>586.399597</ele>
        <time>2019-08-16T15:18:14Z</time>
      </trkpt>
      <trkpt lat="47.97908" lon="6.73531">
        <ele>586.366333</ele>
        <time>2019-08-16T15:18:15Z</time>
      </trkpt>
      <trkpt lat="47.97916" lon="6.7352">
        <ele>584.858887</ele>
        <time>2019-08-16T15:18:37Z</time>
      </trkpt>
      <trkpt lat="47.97918" lon="6.73517">
        <ele>584.882751</ele>
        <time>2019-08-16T15:18:39Z</time>
      </trkpt>
      <trkpt lat="47.9792" lon="6.73514">
        <ele>584.891357</ele>
        <time>2019-08-16T15:18:40Z</time>
      </trkpt>
      <trkpt lat="47.97923" lon="6.7351">
        <ele>584.89447</ele>
        <time>2019-08-16T15:18:41Z</time>
      </trkpt>
      <trkpt lat="47.97926" lon="6.73506">
        <ele>584.894653</ele>
        <time>2019-08-16T15:18:42Z</time>
      </trkpt>
      <trkpt lat="47.97929" lon="6.73502">
        <ele>584.894104</ele>
        <time>2019-08-16T15:18:43Z</time>
      </trkpt>
      <trkpt lat="47.97932" lon="6.73498">
        <ele>584.894104</ele>
        <time>2019-08-16T15:18:44Z</time>
      </trkpt>
      <trkpt lat="47.97935" lon="6.73495">
        <ele>584.899536</ele>
        <time>2019-08-16T15:18:45Z</time>
      </trkpt>
      <trkpt lat="47.97937" lon="6.73492">
        <ele>584.92572</ele>
        <time>2019-08-16T15:18:46Z</time>
      </trkpt>
      <trkpt lat="47.9794" lon="6.73489">
        <ele>584.94928</ele>
        <time>2019-08-16T15:18:47Z</time>
      </trkpt>
      <trkpt lat="47.97944" lon="6.73485">
        <ele>585.003723</ele>
        <time>2019-08-16T15:18:48Z</time>
      </trkpt>
      <trkpt lat="47.97948" lon="6.73482">
        <ele>585.052917</ele>
        <time>2019-08-16T15:18:49Z</time>
      </trkpt>
      <trkpt lat="47.97952" lon="6.73479">
        <ele>585.104187</ele>
        <time>2019-08-16T15:18:50Z</time>
      </trkpt>
      <trkpt lat="47.97955" lon="6.73476">
        <ele>585.145142</ele>
        <time>2019-08-16T15:18:51Z</time>
      </trkpt>
      <trkpt lat="47.97959" lon="6.73473">
        <ele>585.181091</ele>
        <time>2019-08-16T15:18:52Z</time>
      </trkpt>
      <trkpt lat="47.97964" lon="6.7347">
        <ele>585.232727</ele>
        <time>2019-08-16T15:18:53Z</time>
      </trkpt>
      <trkpt lat="47.97969" lon="6.73466">
        <ele>585.25946</ele>
        <time>2019-08-16T15:18:54Z</time>
      </trkpt>
      <trkpt lat="47.97973" lon="6.73464">
        <ele>585.262207</ele>
        <time>2019-08-16T15:18:55Z</time>
      </trkpt>
      <trkpt lat="47.97975" lon="6.73464">
        <ele>585.243408</ele>
        <time>2019-08-16T15:18:56Z</time>
      </trkpt>
      <trkpt lat="47.97976" lon="6.73464">
        <ele>585.191223</ele>
        <time>2019-08-16T15:18:57Z</time>
      </trkpt>
      <trkpt lat="47.97973" lon="6.7345">
        <ele>583.810852</ele>
        <time>2019-08-16T15:19:56Z</time>
      </trkpt>
      <trkpt lat="47.97973" lon="6.73446">
        <ele>583.770142</ele>
        <time>2019-08-16T15:19:58Z</time>
      </trkpt>
      <trkpt lat="47.97975" lon="6.73441">
        <ele>583.704773</ele>
        <time>2019-08-16T15:19:59Z</time>
      </trkpt>
      <trkpt lat="47.97978" lon="6.73435">
        <ele>583.603821</ele>
        <time>2019-08-16T15:20:00Z</time>
      </trkpt>
      <trkpt lat="47.97981" lon="6.73428">
        <ele>583.455322</ele>
        <time>2019-08-16T15:20:01Z</time>
      </trkpt>
      <trkpt lat="47.97985" lon="6.7342">
        <ele>583.251892</ele>
        <time>2019-08-16T15:20:02Z</time>
      </trkpt>
      <trkpt lat="47.97988" lon="6.73411">
        <ele>582.994446</ele>
        <time>2019-08-16T15:20:03Z</time>
      </trkpt>
      <trkpt lat="47.97989" lon="6.734">
        <ele>582.684326</ele>
        <time>2019-08-16T15:20:04Z</time>
      </trkpt>
      <trkpt lat="47.9799" lon="6.73387">
        <ele>582.31427</ele>
        <time>2019-08-16T15:20:05Z</time>
      </trkpt>
      <trkpt lat="47.97992" lon="6.73374">
        <ele>581.879456</ele>
        <time>2019-08-16T15:20:06Z</time>
      </trkpt>
      <trkpt lat="47.97994" lon="6.73362">
        <ele>581.636292</ele>
        <time>2019-08-16T15:20:07Z</time>
      </trkpt>
      <trkpt lat="47.97997" lon="6.73352">
        <ele>581.377991</ele>
        <time>2019-08-16T15:20:08Z</time>
      </trkpt>
      <trkpt lat="47.98001" lon="6.73342">
        <ele>580.815857</ele>
        <time>2019-08-16T15:20:09Z</time>
      </trkpt>
      <trkpt lat="47.98006" lon="6.73333">
        <ele>580.189331</ele>
        <time>2019-08-16T15:20:10Z</time>
      </trkpt>
      <trkpt lat="47.98011" lon="6.73325">
        <ele>579.114563</ele>
        <time>2019-08-16T15:20:11Z</time>
      </trkpt>
      <trkpt lat="47.98016" lon="6.73316">
        <ele>578.315247</ele>
        <time>2019-08-16T15:20:12Z</time>
      </trkpt>
      <trkpt lat="47.98021" lon="6.73307">
        <ele>577.484985</ele>
        <time>2019-08-16T15:20:13Z</time>
      </trkpt>
      <trkpt lat="47.98026" lon="6.73299">
        <ele>576.650635</ele>
        <time>2019-08-16T15:20:14Z</time>
      </trkpt>
      <trkpt lat="47.98032" lon="6.7329">
        <ele>575.832764</ele>
        <time>2019-08-16T15:20:15Z</time>
      </trkpt>
      <trkpt lat="47.98037" lon="6.73281">
        <ele>574.683044</ele>
        <time>2019-08-16T15:20:16Z</time>
      </trkpt>
      <trkpt lat="47.98043" lon="6.73273">
        <ele>573.969666</ele>
        <time>2019-08-16T15:20:17Z</time>
      </trkpt>
      <trkpt lat="47.9805" lon="6.73265">
        <ele>573.280579</ele>
        <time>2019-08-16T15:20:18Z</time>
      </trkpt>
      <trkpt lat="47.98056" lon="6.73257">
        <ele>572.609314</ele>
        <time>2019-08-16T15:20:19Z</time>
      </trkpt>
      <trkpt lat="47.98062" lon="6.7325">
        <ele>571.631531</ele>
        <time>2019-08-16T15:20:20Z</time>
      </trkpt>
      <trkpt lat="47.98066" lon="6.7324">
        <ele>570.995605</ele>
        <time>2019-08-16T15:20:21Z</time>
      </trkpt>
      <trkpt lat="47.98069" lon="6.7323">
        <ele>570.383728</ele>
        <time>2019-08-16T15:20:22Z</time>
      </trkpt>
      <trkpt lat="47.98073" lon="6.7322">
        <ele>569.774597</ele>
        <time>2019-08-16T15:20:23Z</time>
      </trkpt>
      <trkpt lat="47.98077" lon="6.73211">
        <ele>569.152344</ele>
        <time>2019-08-16T15:20:24Z</time>
      </trkpt>
      <trkpt lat="47.98081" lon="6.73203">
        <ele>568.496521</ele>
        <time>2019-08-16T15:20:25Z</time>
      </trkpt>
      <trkpt lat="47.98083" lon="6.73196">
        <ele>567.465271</ele>
        <time>2019-08-16T15:20:26Z</time>
      </trkpt>
      <trkpt lat="47.98083" lon="6.73189">
        <ele>566.747864</ele>
        <time>2019-08-16T15:20:27Z</time>
      </trkpt>
      <trkpt lat="47.98082" lon="6.73184">
        <ele>566.024353</ele>
        <time>2019-08-16T15:20:28Z</time>
      </trkpt>
      <trkpt lat="47.98079" lon="6.73179">
        <ele>565.340637</ele>
        <time>2019-08-16T15:20:29Z</time>
      </trkpt>
      <trkpt lat="47.98074" lon="6.73176">
        <ele>564.710999</ele>
        <time>2019-08-16T15:20:30Z</time>
      </trkpt>
      <trkpt lat="47.9807" lon="6.73175">
        <ele>563.89801</ele>
        <time>2019-08-16T15:20:31Z</time>
      </trkpt>
      <trkpt lat="47.98065" lon="6.73175">
        <ele>563.440308</ele>
        <time>2019-08-16T15:20:32Z</time>
      </trkpt>
      <trkpt lat="47.98061" lon="6.73178">
        <ele>563.042847</ele>
        <time>2019-08-16T15:20:33Z</time>
      </trkpt>
      <trkpt lat="47.98058" lon="6.73183">
        <ele>562.488708</ele>
        <time>2019-08-16T15:20:34Z</time>
      </trkpt>
      <trkpt lat="47.98053" lon="6.73189">
        <ele>562.113892</ele>
        <time>2019-08-16T15:20:35Z</time>
      </trkpt>
      <trkpt lat="47.98047" lon="6.73194">
        <ele>561.722961</ele>
        <time>2019-08-16T15:20:36Z</time>
      </trkpt>
      <trkpt lat="47.98041" lon="6.73199">
        <ele>561.096252</ele>
        <time>2019-08-16T15:20:37Z</time>
      </trkpt>
      <trkpt lat="47.98034" lon="6.73204">
        <ele>560.645935</ele>
        <time>2019-08-16T15:20:38Z</time>
      </trkpt>
      <trkpt lat="47.98026" lon="6.73209">
        <ele>560.15979</ele>
        <time>2019-08-16T15:20:39Z</time>
      </trkpt>
      <trkpt lat="47.98019" lon="6.73214">
        <ele>559.355774</ele>
        <time>2019-08-16T15:20:40Z</time>
      </trkpt>
      <trkpt lat="47.98012" lon="6.73221">
        <ele>558.762695</ele>
        <time>2019-08-16T15:20:41Z</time>
      </trkpt>
      <trkpt lat="47.98005" lon="6.73228">
        <ele>558.124817</ele>
        <time>2019-08-16T15:20:42Z</time>
      </trkpt>
      <trkpt lat="47.97997" lon="6.73235">
        <ele>557.088684</ele>
        <time>2019-08-16T15:20:43Z</time>
      </trkpt>
      <trkpt lat="47.9799" lon="6.73242">
        <ele>556.368652</ele>
        <time>2019-08-16T15:20:44Z</time>
      </trkpt>
      <trkpt lat="47.97983" lon="6.73247">
        <ele>555.650391</ele>
        <time>2019-08-16T15:20:45Z</time>
      </trkpt>
      <trkpt lat="47.97975" lon="6.73252">
        <ele>554.925293</ele>
        <time>2019-08-16T15:20:46Z</time>
      </trkpt>
      <trkpt lat="47.97968" lon="6.73256">
        <ele>553.816833</ele>
        <time>2019-08-16T15:20:47Z</time>
      </trkpt>
      <trkpt lat="47.97959" lon="6.7326">
        <ele>553.087219</ele>
        <time>2019-08-16T15:20:48Z</time>
      </trkpt>
      <trkpt lat="47.97951" lon="6.73264">
        <ele>552.368591</ele>
        <time>2019-08-16T15:20:49Z</time>
      </trkpt>
      <trkpt lat="47.97943" lon="6.73268">
        <ele>551.259705</ele>
        <time>2019-08-16T15:20:50Z</time>
      </trkpt>
      <trkpt lat="47.97936" lon="6.73271">
        <ele>550.472961</ele>
        <time>2019-08-16T15:20:51Z</time>
      </trkpt>
      <trkpt lat="47.9793" lon="6.73275">
        <ele>549.664917</ele>
        <time>2019-08-16T15:20:52Z</time>
      </trkpt>
      <trkpt lat="47.97924" lon="6.73278">
        <ele>548.465576</ele>
        <time>2019-08-16T15:20:53Z</time>
      </trkpt>
      <trkpt lat="47.97918" lon="6.73283">
        <ele>547.703613</ele>
        <time>2019-08-16T15:20:54Z</time>
      </trkpt>
      <trkpt lat="47.97912" lon="6.73286">
        <ele>546.964417</ele>
        <time>2019-08-16T15:20:55Z</time>
      </trkpt>
      <trkpt lat="47.97906" lon="6.73289">
        <ele>545.880005</ele>
        <time>2019-08-16T15:20:56Z</time>
      </trkpt>
      <trkpt lat="47.97899" lon="6.7329">
        <ele>545.157288</ele>
        <time>2019-08-16T15:20:57Z</time>
      </trkpt>
      <trkpt lat="47.97892" lon="6.7329">
        <ele>544.053589</ele>
        <time>2019-08-16T15:20:58Z</time>
      </trkpt>
      <trkpt lat="47.97886" lon="6.73292">
        <ele>543.288696</ele>
        <time>2019-08-16T15:20:59Z</time>
      </trkpt>
      <trkpt lat="47.9788" lon="6.73293">
        <ele>542.516602</ele>
        <time>2019-08-16T15:21:00Z</time>
      </trkpt>
      <trkpt lat="47.97876" lon="6.73294">
        <ele>541.363708</ele>
        <time>2019-08-16T15:21:01Z</time>
      </trkpt>
      <trkpt lat="47.97871" lon="6.73295">
        <ele>540.602722</ele>
        <time>2019-08-16T15:21:02Z</time>
      </trkpt>
      <trkpt lat="47.97868" lon="6.73294">
        <ele>539.499939</ele>
        <time>2019-08-16T15:21:03Z</time>
      </trkpt>
      <trkpt lat="47.97864" lon="6.73291">
        <ele>538.792969</ele>
        <time>2019-08-16T15:21:04Z</time>
      </trkpt>
      <trkpt lat="47.97863" lon="6.73285">
        <ele>538.094055</ele>
        <time>2019-08-16T15:21:05Z</time>
      </trkpt>
      <trkpt lat="47.97864" lon="6.73278">
        <ele>537.400085</ele>
        <time>2019-08-16T15:21:06Z</time>
      </trkpt>
      <trkpt lat="47.97867" lon="6.73272">
        <ele>536.383606</ele>
        <time>2019-08-16T15:21:07Z</time>
      </trkpt>
      <trkpt lat="47.97871" lon="6.73267">
        <ele>536.053406</ele>
        <time>2019-08-16T15:21:08Z</time>
      </trkpt>
      <trkpt lat="47.97876" lon="6.73263">
        <ele>535.729248</ele>
        <time>2019-08-16T15:21:09Z</time>
      </trkpt>
      <trkpt lat="47.97879" lon="6.73257">
        <ele>535.104553</ele>
        <time>2019-08-16T15:21:10Z</time>
      </trkpt>
      <trkpt lat="47.97883" lon="6.73252">
        <ele>534.510986</ele>
        <time>2019-08-16T15:21:11Z</time>
      </trkpt>
      <trkpt lat="47.97887" lon="6.73247">
        <ele>533.938171</ele>
        <time>2019-08-16T15:21:12Z</time>
      </trkpt>
      <trkpt lat="47.9789" lon="6.73241">
        <ele>533.368408</ele>
        <time>2019-08-16T15:21:13Z</time>
      </trkpt>
      <trkpt lat="47.97893" lon="6.73233">
        <ele>532.778198</ele>
        <time>2019-08-16T15:21:14Z</time>
      </trkpt>
      <trkpt lat="47.97896" lon="6.73224">
        <ele>532.167175</ele>
        <time>2019-08-16T15:21:15Z</time>
      </trkpt>
      <trkpt lat="47.97899" lon="6.73216">
        <ele>531.216003</ele>
        <time>2019-08-16T15:21:16Z</time>
      </trkpt>
      <trkpt lat="47.97903" lon="6.73208">
        <ele>530.559875</ele>
        <time>2019-08-16T15:21:17Z</time>
      </trkpt>
      <trkpt lat="47.97906" lon="6.73199">
        <ele>529.878723</ele>
        <time>2019-08-16T15:21:18Z</time>
      </trkpt>
      <trkpt lat="47.97909" lon="6.7319">
        <ele>529.173035</ele>
        <time>2019-08-16T15:21:19Z</time>
      </trkpt>
      <trkpt lat="47.97912" lon="6.7318">
        <ele>528.091003</ele>
        <time>2019-08-16T15:21:20Z</time>
      </trkpt>
      <trkpt lat="47.97913" lon="6.7317">
        <ele>527.349548</ele>
        <time>2019-08-16T15:21:21Z</time>
      </trkpt>
      <trkpt lat="47.97915" lon="6.7316">
        <ele>526.579041</ele>
        <time>2019-08-16T15:21:22Z</time>
      </trkpt>
      <trkpt lat="47.97918" lon="6.73152">
        <ele>525.784241</ele>
        <time>2019-08-16T15:21:23Z</time>
      </trkpt>
      <trkpt lat="47.97921" lon="6.73144">
        <ele>524.997559</ele>
        <time>2019-08-16T15:21:24Z</time>
      </trkpt>
      <trkpt lat="47.97926" lon="6.73138">
        <ele>523.862</ele>
        <time>2019-08-16T15:21:25Z</time>
      </trkpt>
      <trkpt lat="47.9793" lon="6.73132">
        <ele>523.121643</ele>
        <time>2019-08-16T15:21:26Z</time>
      </trkpt>
      <trkpt lat="47.97934" lon="6.73125">
        <ele>522.369995</ele>
        <time>2019-08-16T15:21:27Z</time>
      </trkpt>
      <trkpt lat="47.97938" lon="6.73117">
        <ele>521.225586</ele>
        <time>2019-08-16T15:21:28Z</time>
      </trkpt>
      <trkpt lat="47.97942" lon="6.73109">
        <ele>520.45929</ele>
        <time>2019-08-16T15:21:29Z</time>
      </trkpt>
      <trkpt lat="47.97946" lon="6.73102">
        <ele>519.697571</ele>
        <time>2019-08-16T15:21:30Z</time>
      </trkpt>
      <trkpt lat="47.97951" lon="6.73094">
        <ele>518.578308</ele>
        <time>2019-08-16T15:21:31Z</time>
      </trkpt>
      <trkpt lat="47.97955" lon="6.73085">
        <ele>517.850037</ele>
        <time>2019-08-16T15:21:32Z</time>
      </trkpt>
      <trkpt lat="47.9796" lon="6.73077">
        <ele>517.14032</ele>
        <time>2019-08-16T15:21:33Z</time>
      </trkpt>
      <trkpt lat="47.97965" lon="6.73068">
        <ele>516.132568</ele>
        <time>2019-08-16T15:21:34Z</time>
      </trkpt>
      <trkpt lat="47.97969" lon="6.73058">
        <ele>515.521057</ele>
        <time>2019-08-16T15:21:35Z</time>
      </trkpt>
      <trkpt lat="47.97975" lon="6.73049">
        <ele>514.961121</ele>
        <time>2019-08-16T15:21:36Z</time>
      </trkpt>
      <trkpt lat="47.97981" lon="6.73042">
        <ele>514.193604</ele>
        <time>2019-08-16T15:21:37Z</time>
      </trkpt>
      <trkpt lat="47.97986" lon="6.73034">
        <ele>513.712158</ele>
        <time>2019-08-16T15:21:38Z</time>
      </trkpt>
      <trkpt lat="47.97992" lon="6.73027">
        <ele>513.256592</ele>
        <time>2019-08-16T15:21:39Z</time>
      </trkpt>
      <trkpt lat="47.97997" lon="6.73019">
        <ele>512.832825</ele>
        <time>2019-08-16T15:21:40Z</time>
      </trkpt>
      <trkpt lat="47.98003" lon="6.73013">
        <ele>512.446594</ele>
        <time>2019-08-16T15:21:41Z</time>
      </trkpt>
      <trkpt lat="47.98008" lon="6.73006">
        <ele>511.950592</ele>
        <time>2019-08-16T15:21:42Z</time>
      </trkpt>
      <trkpt lat="47.98014" lon="6.73">
        <ele>511.673828</ele>
        <time>2019-08-16T15:21:43Z</time>
      </trkpt>
      <trkpt lat="47.9802" lon="6.72993">
        <ele>511.430817</ele>
        <time>2019-08-16T15:21:44Z</time>
      </trkpt>
      <trkpt lat="47.98024" lon="6.72986">
        <ele>511.129303</ele>
        <time>2019-08-16T15:21:45Z</time>
      </trkpt>
      <trkpt lat="47.98029" lon="6.72979">
        <ele>510.971802</ele>
        <time>2019-08-16T15:21:46Z</time>
      </trkpt>
      <trkpt lat="47.98034" lon="6.72973">
        <ele>510.84375</ele>
        <time>2019-08-16T15:21:47Z</time>
      </trkpt>
      <trkpt lat="47.98039" lon="6.72966">
        <ele>510.743195</ele>
        <time>2019-08-16T15:21:48Z</time>
      </trkpt>
      <trkpt lat="47.98042" lon="6.7296">
        <ele>510.67691</ele>
        <time>2019-08-16T15:21:49Z</time>
      </trkpt>
      <trkpt lat="47.98046" lon="6.72955">
        <ele>510.661041</ele>
        <time>2019-08-16T15:21:50Z</time>
      </trkpt>
      <trkpt lat="47.98049" lon="6.7295">
        <ele>510.671844</ele>
        <time>2019-08-16T15:21:51Z</time>
      </trkpt>
      <trkpt lat="47.98052" lon="6.72945">
        <ele>510.731476</ele>
        <time>2019-08-16T15:21:52Z</time>
      </trkpt>
      <trkpt lat="47.98055" lon="6.72941">
        <ele>510.829712</ele>
        <time>2019-08-16T15:21:53Z</time>
      </trkpt>
      <trkpt lat="47.98059" lon="6.72937">
        <ele>510.957001</ele>
        <time>2019-08-16T15:21:54Z</time>
      </trkpt>
      <trkpt lat="47.98063" lon="6.72932">
        <ele>511.097626</ele>
        <time>2019-08-16T15:21:55Z</time>
      </trkpt>
      <trkpt lat="47.98068" lon="6.72926">
        <ele>511.225708</ele>
        <time>2019-08-16T15:21:56Z</time>
      </trkpt>
      <trkpt lat="47.98071" lon="6.72919">
        <ele>511.350616</ele>
        <time>2019-08-16T15:21:57Z</time>
      </trkpt>
      <trkpt lat="47.98076" lon="6.72913">
        <ele>511.364777</ele>
        <time>2019-08-16T15:21:58Z</time>
      </trkpt>
      <trkpt lat="47.9808" lon="6.72907">
        <ele>511.362305</ele>
        <time>2019-08-16T15:21:59Z</time>
      </trkpt>
      <trkpt lat="47.98084" lon="6.72901">
        <ele>511.242279</ele>
        <time>2019-08-16T15:22:00Z</time>
      </trkpt>
      <trkpt lat="47.98087" lon="6.72895">
        <ele>511.059692</ele>
        <time>2019-08-16T15:22:01Z</time>
      </trkpt>
      <trkpt lat="47.9809" lon="6.72889">
        <ele>510.800049</ele>
        <time>2019-08-16T15:22:02Z</time>
      </trkpt>
      <trkpt lat="47.98095" lon="6.72884">
        <ele>510.468964</ele>
        <time>2019-08-16T15:22:03Z</time>
      </trkpt>
      <trkpt lat="47.981" lon="6.72879">
        <ele>509.866852</ele>
        <time>2019-08-16T15:22:04Z</time>
      </trkpt>
      <trkpt lat="47.98106" lon="6.72875">
        <ele>509.404205</ele>
        <time>2019-08-16T15:22:05Z</time>
      </trkpt>
      <trkpt lat="47.98112" lon="6.72873">
        <ele>508.894318</ele>
        <time>2019-08-16T15:22:06Z</time>
      </trkpt>
      <trkpt lat="47.98118" lon="6.72869">
        <ele>508.055145</ele>
        <time>2019-08-16T15:22:07Z</time>
      </trkpt>
      <trkpt lat="47.98124" lon="6.72865">
        <ele>507.478027</ele>
        <time>2019-08-16T15:22:08Z</time>
      </trkpt>
      <trkpt lat="47.98129" lon="6.72862">
        <ele>507.195892</ele>
        <time>2019-08-16T15:22:09Z</time>
      </trkpt>
      <trkpt lat="47.98133" lon="6.72859">
        <ele>506.412109</ele>
        <time>2019-08-16T15:22:10Z</time>
      </trkpt>
      <trkpt lat="47.98138" lon="6.72858">
        <ele>505.960052</ele>
        <time>2019-08-16T15:22:11Z</time>
      </trkpt>
      <trkpt lat="47.98142" lon="6.72856">
        <ele>505.428497</ele>
        <time>2019-08-16T15:22:12Z</time>
      </trkpt>
      <trkpt lat="47.98145" lon="6.72855">
        <ele>505.174438</ele>
        <time>2019-08-16T15:22:13Z</time>
      </trkpt>
      <trkpt lat="47.98149" lon="6.72852">
        <ele>504.984131</ele>
        <time>2019-08-16T15:22:14Z</time>
      </trkpt>
      <trkpt lat="47.98153" lon="6.72849">
        <ele>504.774811</ele>
        <time>2019-08-16T15:22:15Z</time>
      </trkpt>
      <trkpt lat="47.98157" lon="6.72848">
        <ele>504.639526</ele>
        <time>2019-08-16T15:22:16Z</time>
      </trkpt>
      <trkpt lat="47.98161" lon="6.72845">
        <ele>504.461426</ele>
        <time>2019-08-16T15:22:17Z</time>
      </trkpt>
      <trkpt lat="47.98164" lon="6.72842">
        <ele>504.072723</ele>
        <time>2019-08-16T15:22:18Z</time>
      </trkpt>
      <trkpt lat="47.98167" lon="6.72838">
        <ele>503.729248</ele>
        <time>2019-08-16T15:22:19Z</time>
      </trkpt>
      <trkpt lat="47.98171" lon="6.72833">
        <ele>503.309906</ele>
        <time>2019-08-16T15:22:20Z</time>
      </trkpt>
      <trkpt lat="47.98175" lon="6.72827">
        <ele>502.800262</ele>
        <time>2019-08-16T15:22:21Z</time>
      </trkpt>
      <trkpt lat="47.98179" lon="6.7282">
        <ele>502.197876</ele>
        <time>2019-08-16T15:22:22Z</time>
      </trkpt>
      <trkpt lat="47.98184" lon="6.72812">
        <ele>501.520111</ele>
        <time>2019-08-16T15:22:23Z</time>
      </trkpt>
      <trkpt lat="47.9819" lon="6.72805">
        <ele>500.780396</ele>
        <time>2019-08-16T15:22:24Z</time>
      </trkpt>
      <trkpt lat="47.98195" lon="6.72798">
        <ele>499.593842</ele>
        <time>2019-08-16T15:22:25Z</time>
      </trkpt>
      <trkpt lat="47.98201" lon="6.72792">
        <ele>498.758423</ele>
        <time>2019-08-16T15:22:26Z</time>
      </trkpt>
      <trkpt lat="47.98207" lon="6.72788">
        <ele>497.875</ele>
        <time>2019-08-16T15:22:27Z</time>
      </trkpt>
      <trkpt lat="47.98214" lon="6.72785">
        <ele>496.945282</ele>
        <time>2019-08-16T15:22:28Z</time>
      </trkpt>
      <trkpt lat="47.9822" lon="6.72782">
        <ele>495.553436</ele>
        <time>2019-08-16T15:22:29Z</time>
      </trkpt>
      <trkpt lat="47.98223" lon="6.7278">
        <ele>494.661041</ele>
        <time>2019-08-16T15:22:30Z</time>
      </trkpt>
      <trkpt lat="47.98226" lon="6.72778">
        <ele>493.811554</ele>
        <time>2019-08-16T15:22:31Z</time>
      </trkpt>
      <trkpt lat="47.98228" lon="6.72777">
        <ele>492.678864</ele>
        <time>2019-08-16T15:22:32Z</time>
      </trkpt>
      <trkpt lat="47.9823" lon="6.72777">
        <ele>492.0513</ele>
        <time>2019-08-16T15:22:33Z</time>
      </trkpt>
      <trkpt lat="47.98233" lon="6.72776">
        <ele>491.519257</ele>
        <time>2019-08-16T15:22:34Z</time>
      </trkpt>
      <trkpt lat="47.98236" lon="6.72775">
        <ele>490.826904</ele>
        <time>2019-08-16T15:22:35Z</time>
      </trkpt>
      <trkpt lat="47.98239" lon="6.72774">
        <ele>490.409454</ele>
        <time>2019-08-16T15:22:36Z</time>
      </trkpt>
      <trkpt lat="47.98243" lon="6.72774">
        <ele>490.026367</ele>
        <time>2019-08-16T15:22:37Z</time>
      </trkpt>
      <trkpt lat="47.98248" lon="6.72775">
        <ele>489.509796</ele>
        <time>2019-08-16T15:22:38Z</time>
      </trkpt>
      <trkpt lat="47.98252" lon="6.72775">
        <ele>489.17215</ele>
        <time>2019-08-16T15:22:39Z</time>
      </trkpt>
      <trkpt lat="47.98256" lon="6.72775">
        <ele>488.82251</ele>
        <time>2019-08-16T15:22:40Z</time>
      </trkpt>
      <trkpt lat="47.98259" lon="6.72776">
        <ele>488.281342</ele>
        <time>2019-08-16T15:22:41Z</time>
      </trkpt>
      <trkpt lat="47.98263" lon="6.72777">
        <ele>487.924469</ele>
        <time>2019-08-16T15:22:42Z</time>
      </trkpt>
      <trkpt lat="47.98267" lon="6.72778">
        <ele>487.44104</ele>
        <time>2019-08-16T15:22:43Z</time>
      </trkpt>
      <trkpt lat="47.9827" lon="6.72778">
        <ele>487.178314</ele>
        <time>2019-08-16T15:22:44Z</time>
      </trkpt>
      <trkpt lat="47.98274" lon="6.72778">
        <ele>486.879547</ele>
        <time>2019-08-16T15:22:45Z</time>
      </trkpt>
      <trkpt lat="47.98277" lon="6.72778">
        <ele>486.728668</ele>
        <time>2019-08-16T15:22:46Z</time>
      </trkpt>
      <trkpt lat="47.98282" lon="6.72778">
        <ele>486.606781</ele>
        <time>2019-08-16T15:22:47Z</time>
      </trkpt>
      <trkpt lat="47.98286" lon="6.72778">
        <ele>486.465576</ele>
        <time>2019-08-16T15:22:48Z</time>
      </trkpt>
      <trkpt lat="47.9829" lon="6.72778">
        <ele>486.382111</ele>
        <time>2019-08-16T15:22:49Z</time>
      </trkpt>
      <trkpt lat="47.98294" lon="6.72778">
        <ele>486.244598</ele>
        <time>2019-08-16T15:22:50Z</time>
      </trkpt>
      <trkpt lat="47.98298" lon="6.72778">
        <ele>486.141022</ele>
        <time>2019-08-16T15:22:51Z</time>
      </trkpt>
      <trkpt lat="47.98302" lon="6.72779">
        <ele>485.970734</ele>
        <time>2019-08-16T15:22:52Z</time>
      </trkpt>
      <trkpt lat="47.98307" lon="6.72779">
        <ele>485.850616</ele>
        <time>2019-08-16T15:22:53Z</time>
      </trkpt>
      <trkpt lat="47.98311" lon="6.7278">
        <ele>485.726563</ele>
        <time>2019-08-16T15:22:54Z</time>
      </trkpt>
      <trkpt lat="47.98315" lon="6.72782">
        <ele>485.551758</ele>
        <time>2019-08-16T15:22:55Z</time>
      </trkpt>
      <trkpt lat="47.98319" lon="6.72784">
        <ele>485.448822</ele>
        <time>2019-08-16T15:22:56Z</time>
      </trkpt>
      <trkpt lat="47.98323" lon="6.72786">
        <ele>485.358978</ele>
        <time>2019-08-16T15:22:57Z</time>
      </trkpt>
      <trkpt lat="47.98327" lon="6.72789">
        <ele>485.210968</ele>
        <time>2019-08-16T15:22:58Z</time>
      </trkpt>
      <trkpt lat="47.98331" lon="6.72792">
        <ele>485.077362</ele>
        <time>2019-08-16T15:22:59Z</time>
      </trkpt>
      <trkpt lat="47.98335" lon="6.72795">
        <ele>484.893219</ele>
        <time>2019-08-16T15:23:00Z</time>
      </trkpt>
      <trkpt lat="47.98338" lon="6.72798">
        <ele>484.506256</ele>
        <time>2019-08-16T15:23:01Z</time>
      </trkpt>
      <trkpt lat="47.98341" lon="6.72802">
        <ele>484.154572</ele>
        <time>2019-08-16T15:23:02Z</time>
      </trkpt>
      <trkpt lat="47.98343" lon="6.72804">
        <ele>483.717072</ele>
        <time>2019-08-16T15:23:03Z</time>
      </trkpt>
      <trkpt lat="47.98344" lon="6.72806">
        <ele>483.192871</ele>
        <time>2019-08-16T15:23:04Z</time>
      </trkpt>
      <trkpt lat="47.98344" lon="6.72808">
        <ele>482.289307</ele>
        <time>2019-08-16T15:23:05Z</time>
      </trkpt>
      <trkpt lat="47.98343" lon="6.7281">
        <ele>481.658691</ele>
        <time>2019-08-16T15:23:06Z</time>
      </trkpt>
      <trkpt lat="47.98342" lon="6.72813">
        <ele>481.045441</ele>
        <time>2019-08-16T15:23:07Z</time>
      </trkpt>
      <trkpt lat="47.9834" lon="6.72814">
        <ele>480.481659</ele>
        <time>2019-08-16T15:23:08Z</time>
      </trkpt>
      <trkpt lat="47.98339" lon="6.72815">
        <ele>479.999603</ele>
        <time>2019-08-16T15:23:09Z</time>
      </trkpt>
      <trkpt lat="47.98338" lon="6.72817">
        <ele>479.794708</ele>
        <time>2019-08-16T15:23:10Z</time>
      </trkpt>
      <trkpt lat="47.98334" lon="6.7283">
        <ele>479.485352</ele>
        <time>2019-08-16T15:23:33Z</time>
      </trkpt>
      <trkpt lat="47.98333" lon="6.72833">
        <ele>479.572266</ele>
        <time>2019-08-16T15:23:35Z</time>
      </trkpt>
      <trkpt lat="47.98332" lon="6.72836">
        <ele>479.680878</ele>
        <time>2019-08-16T15:23:36Z</time>
      </trkpt>
      <trkpt lat="47.98333" lon="6.7284">
        <ele>479.80957</ele>
        <time>2019-08-16T15:23:37Z</time>
      </trkpt>
      <trkpt lat="47.98333" lon="6.72843">
        <ele>479.956512</ele>
        <time>2019-08-16T15:23:38Z</time>
      </trkpt>
      <trkpt lat="47.98334" lon="6.72846">
        <ele>480.114594</ele>
        <time>2019-08-16T15:23:39Z</time>
      </trkpt>
      <trkpt lat="47.98335" lon="6.72848">
        <ele>480.276215</ele>
        <time>2019-08-16T15:23:40Z</time>
      </trkpt>
      <trkpt lat="47.98335" lon="6.7285">
        <ele>480.437988</ele>
        <time>2019-08-16T15:23:41Z</time>
      </trkpt>
      <trkpt lat="47.98336" lon="6.72853">
        <ele>480.606781</ele>
        <time>2019-08-16T15:23:42Z</time>
      </trkpt>
      <trkpt lat="47.98337" lon="6.72856">
        <ele>480.787842</ele>
        <time>2019-08-16T15:23:43Z</time>
      </trkpt>
      <trkpt lat="47.98337" lon="6.72858">
        <ele>480.981659</ele>
        <time>2019-08-16T15:23:44Z</time>
      </trkpt>
      <trkpt lat="47.98337" lon="6.72861">
        <ele>481.186279</ele>
        <time>2019-08-16T15:23:45Z</time>
      </trkpt>
      <trkpt lat="47.98338" lon="6.72863">
        <ele>481.402802</ele>
        <time>2019-08-16T15:23:46Z</time>
      </trkpt>
      <trkpt lat="47.98338" lon="6.72866">
        <ele>481.631744</ele>
        <time>2019-08-16T15:23:47Z</time>
      </trkpt>
      <trkpt lat="47.9834" lon="6.72868">
        <ele>481.866364</ele>
        <time>2019-08-16T15:23:48Z</time>
      </trkpt>
      <trkpt lat="47.9834" lon="6.72871">
        <ele>482.097656</ele>
        <time>2019-08-16T15:23:49Z</time>
      </trkpt>
      <trkpt lat="47.98341" lon="6.72874">
        <ele>482.322052</ele>
        <time>2019-08-16T15:23:50Z</time>
      </trkpt>
      <trkpt lat="47.98342" lon="6.72876">
        <ele>482.544403</ele>
        <time>2019-08-16T15:23:51Z</time>
      </trkpt>
      <trkpt lat="47.98343" lon="6.72879">
        <ele>482.766022</ele>
        <time>2019-08-16T15:23:52Z</time>
      </trkpt>
      <trkpt lat="47.98344" lon="6.72881">
        <ele>482.98233</ele>
        <time>2019-08-16T15:23:53Z</time>
      </trkpt>
      <trkpt lat="47.98344" lon="6.72884">
        <ele>483.188873</ele>
        <time>2019-08-16T15:23:54Z</time>
      </trkpt>
      <trkpt lat="47.98346" lon="6.72886">
        <ele>483.38797</ele>
        <time>2019-08-16T15:23:55Z</time>
      </trkpt>
      <trkpt lat="47.98347" lon="6.72888">
        <ele>483.580231</ele>
        <time>2019-08-16T15:23:56Z</time>
      </trkpt>
      <trkpt lat="47.98348" lon="6.72891">
        <ele>483.762909</ele>
        <time>2019-08-16T15:23:57Z</time>
      </trkpt>
      <trkpt lat="47.9835" lon="6.72893">
        <ele>483.931641</ele>
        <time>2019-08-16T15:23:58Z</time>
      </trkpt>
      <trkpt lat="47.98352" lon="6.72896">
        <ele>484.078705</ele>
        <time>2019-08-16T15:23:59Z</time>
      </trkpt>
      <trkpt lat="47.98353" lon="6.72898">
        <ele>484.203857</ele>
        <time>2019-08-16T15:24:00Z</time>
      </trkpt>
      <trkpt lat="47.98354" lon="6.729">
        <ele>484.311676</ele>
        <time>2019-08-16T15:24:01Z</time>
      </trkpt>
      <trkpt lat="47.98356" lon="6.72902">
        <ele>484.467926</ele>
        <time>2019-08-16T15:24:02Z</time>
      </trkpt>
      <trkpt lat="47.98356" lon="6.72904">
        <ele>484.577484</ele>
        <time>2019-08-16T15:24:03Z</time>
      </trkpt>
      <trkpt lat="47.98357" lon="6.72905">
        <ele>484.69873</ele>
        <time>2019-08-16T15:24:04Z</time>
      </trkpt>
      <trkpt lat="47.98359" lon="6.72906">
        <ele>484.833374</ele>
        <time>2019-08-16T15:24:05Z</time>
      </trkpt>
      <trkpt lat="47.9836" lon="6.72907">
        <ele>484.98172</ele>
        <time>2019-08-16T15:24:06Z</time>
      </trkpt>
      <trkpt lat="47.98361" lon="6.72909">
        <ele>485.138336</ele>
        <time>2019-08-16T15:24:07Z</time>
      </trkpt>
      <trkpt lat="47.98362" lon="6.72911">
        <ele>485.310333</ele>
        <time>2019-08-16T15:24:08Z</time>
      </trkpt>
      <trkpt lat="47.98363" lon="6.72914">
        <ele>485.492584</ele>
        <time>2019-08-16T15:24:09Z</time>
      </trkpt>
      <trkpt lat="47.98363" lon="6.72917">
        <ele>485.588531</ele>
        <time>2019-08-16T15:24:10Z</time>
      </trkpt>
      <trkpt lat="47.98364" lon="6.72919">
        <ele>485.687531</ele>
        <time>2019-08-16T15:24:11Z</time>
      </trkpt>
      <trkpt lat="47.98365" lon="6.72921">
        <ele>485.892487</ele>
        <time>2019-08-16T15:24:12Z</time>
      </trkpt>
      <trkpt lat="47.98366" lon="6.72923">
        <ele>486.111481</ele>
        <time>2019-08-16T15:24:13Z</time>
      </trkpt>
      <trkpt lat="47.98368" lon="6.72926">
        <ele>486.343719</ele>
        <time>2019-08-16T15:24:14Z</time>
      </trkpt>
      <trkpt lat="47.98369" lon="6.72928">
        <ele>486.578705</ele>
        <time>2019-08-16T15:24:15Z</time>
      </trkpt>
      <trkpt lat="47.9837" lon="6.7293">
        <ele>486.802338</ele>
        <time>2019-08-16T15:24:16Z</time>
      </trkpt>
      <trkpt lat="47.98371" lon="6.72934">
        <ele>487.005737</ele>
        <time>2019-08-16T15:24:17Z</time>
      </trkpt>
      <trkpt lat="47.98372" lon="6.72936">
        <ele>487.189728</ele>
        <time>2019-08-16T15:24:18Z</time>
      </trkpt>
      <trkpt lat="47.98373" lon="6.72939">
        <ele>487.362518</ele>
        <time>2019-08-16T15:24:19Z</time>
      </trkpt>
      <trkpt lat="47.98375" lon="6.72941">
        <ele>487.524536</ele>
        <time>2019-08-16T15:24:20Z</time>
      </trkpt>
      <trkpt lat="47.98376" lon="6.72943">
        <ele>487.675201</ele>
        <time>2019-08-16T15:24:21Z</time>
      </trkpt>
      <trkpt lat="47.98378" lon="6.72945">
        <ele>487.812866</ele>
        <time>2019-08-16T15:24:22Z</time>
      </trkpt>
      <trkpt lat="47.9838" lon="6.72948">
        <ele>487.943451</ele>
        <time>2019-08-16T15:24:23Z</time>
      </trkpt>
      <trkpt lat="47.98381" lon="6.7295">
        <ele>488.069305</ele>
        <time>2019-08-16T15:24:24Z</time>
      </trkpt>
      <trkpt lat="47.98383" lon="6.72952">
        <ele>488.19339</ele>
        <time>2019-08-16T15:24:25Z</time>
      </trkpt>
      <trkpt lat="47.98384" lon="6.72955">
        <ele>488.31424</ele>
        <time>2019-08-16T15:24:26Z</time>
      </trkpt>
      <trkpt lat="47.98386" lon="6.72958">
        <ele>488.431305</ele>
        <time>2019-08-16T15:24:27Z</time>
      </trkpt>
      <trkpt lat="47.98386" lon="6.7296">
        <ele>488.54538</ele>
        <time>2019-08-16T15:24:28Z</time>
      </trkpt>
      <trkpt lat="47.98388" lon="6.72963">
        <ele>488.658203</ele>
        <time>2019-08-16T15:24:29Z</time>
      </trkpt>
      <trkpt lat="47.98389" lon="6.72965">
        <ele>488.775269</ele>
        <time>2019-08-16T15:24:30Z</time>
      </trkpt>
      <trkpt lat="47.98391" lon="6.72968">
        <ele>488.892181</ele>
        <time>2019-08-16T15:24:31Z</time>
      </trkpt>
      <trkpt lat="47.98393" lon="6.72971">
        <ele>489.006134</ele>
        <time>2019-08-16T15:24:32Z</time>
      </trkpt>
      <trkpt lat="47.98394" lon="6.72973">
        <ele>489.113037</ele>
        <time>2019-08-16T15:24:33Z</time>
      </trkpt>
      <trkpt lat="47.98397" lon="6.72975">
        <ele>489.256378</ele>
        <time>2019-08-16T15:24:34Z</time>
      </trkpt>
      <trkpt lat="47.984" lon="6.72977">
        <ele>489.33725</ele>
        <time>2019-08-16T15:24:35Z</time>
      </trkpt>
      <trkpt lat="47.98404" lon="6.72979">
        <ele>489.404816</ele>
        <time>2019-08-16T15:24:36Z</time>
      </trkpt>
      <trkpt lat="47.98409" lon="6.7298">
        <ele>489.445526</ele>
        <time>2019-08-16T15:24:37Z</time>
      </trkpt>
      <trkpt lat="47.98414" lon="6.7298">
        <ele>489.451416</ele>
        <time>2019-08-16T15:24:38Z</time>
      </trkpt>
      <trkpt lat="47.98419" lon="6.72979">
        <ele>489.425323</ele>
        <time>2019-08-16T15:24:39Z</time>
      </trkpt>
      <trkpt lat="47.98425" lon="6.72976">
        <ele>489.34494</ele>
        <time>2019-08-16T15:24:40Z</time>
      </trkpt>
      <trkpt lat="47.9843" lon="6.72974">
        <ele>489.130463</ele>
        <time>2019-08-16T15:24:41Z</time>
      </trkpt>
      <trkpt lat="47.98435" lon="6.72973">
        <ele>488.931366</ele>
        <time>2019-08-16T15:24:42Z</time>
      </trkpt>
      <trkpt lat="47.98439" lon="6.72971">
        <ele>488.55191</ele>
        <time>2019-08-16T15:24:43Z</time>
      </trkpt>
      <trkpt lat="47.98444" lon="6.7297">
        <ele>488.253662</ele>
        <time>2019-08-16T15:24:44Z</time>
      </trkpt>
      <trkpt lat="47.98449" lon="6.72969">
        <ele>487.93692</ele>
        <time>2019-08-16T15:24:45Z</time>
      </trkpt>
      <trkpt lat="47.98452" lon="6.72969">
        <ele>487.465118</ele>
        <time>2019-08-16T15:24:46Z</time>
      </trkpt>
      <trkpt lat="47.98455" lon="6.72968">
        <ele>487.173126</ele>
        <time>2019-08-16T15:24:47Z</time>
      </trkpt>
      <trkpt lat="47.98457" lon="6.72968">
        <ele>486.899261</ele>
        <time>2019-08-16T15:24:48Z</time>
      </trkpt>
      <trkpt lat="47.98447" lon="6.72969">
        <ele>485.227448</ele>
        <time>2019-08-16T15:25:06Z</time>
      </trkpt>
      <trkpt lat="47.98445" lon="6.72969">
        <ele>485.227997</ele>
        <time>2019-08-16T15:25:08Z</time>
      </trkpt>
      <trkpt lat="47.98443" lon="6.72969">
        <ele>485.228973</ele>
        <time>2019-08-16T15:25:09Z</time>
      </trkpt>
      <trkpt lat="47.98441" lon="6.7297">
        <ele>485.231201</ele>
        <time>2019-08-16T15:25:10Z</time>
      </trkpt>
      <trkpt lat="47.98439" lon="6.72971">
        <ele>485.237671</ele>
        <time>2019-08-16T15:25:11Z</time>
      </trkpt>
      <trkpt lat="47.98437" lon="6.72972">
        <ele>485.299561</ele>
        <time>2019-08-16T15:25:12Z</time>
      </trkpt>
      <trkpt lat="47.98435" lon="6.72973">
        <ele>485.385956</ele>
        <time>2019-08-16T15:25:13Z</time>
      </trkpt>
      <trkpt lat="47.98433" lon="6.72973">
        <ele>485.503204</ele>
        <time>2019-08-16T15:25:14Z</time>
      </trkpt>
      <trkpt lat="47.98431" lon="6.72974">
        <ele>485.724121</ele>
        <time>2019-08-16T15:25:15Z</time>
      </trkpt>
      <trkpt lat="47.9843" lon="6.72975">
        <ele>485.884521</ele>
        <time>2019-08-16T15:25:16Z</time>
      </trkpt>
      <trkpt lat="47.98428" lon="6.72975">
        <ele>486.039886</ele>
        <time>2019-08-16T15:25:17Z</time>
      </trkpt>
      <trkpt lat="47.98426" lon="6.72976">
        <ele>486.249969</ele>
        <time>2019-08-16T15:25:18Z</time>
      </trkpt>
      <trkpt lat="47.98423" lon="6.72977">
        <ele>486.374878</ele>
        <time>2019-08-16T15:25:19Z</time>
      </trkpt>
      <trkpt lat="47.98421" lon="6.72977">
        <ele>486.494171</ele>
        <time>2019-08-16T15:25:20Z</time>
      </trkpt>
      <trkpt lat="47.98419" lon="6.72978">
        <ele>486.665985</ele>
        <time>2019-08-16T15:25:21Z</time>
      </trkpt>
      <trkpt lat="47.98417" lon="6.72979">
        <ele>486.779907</ele>
        <time>2019-08-16T15:25:22Z</time>
      </trkpt>
      <trkpt lat="47.98415" lon="6.7298">
        <ele>486.899536</ele>
        <time>2019-08-16T15:25:23Z</time>
      </trkpt>
      <trkpt lat="47.98414" lon="6.72981">
        <ele>487.090576</ele>
        <time>2019-08-16T15:25:24Z</time>
      </trkpt>
      <trkpt lat="47.98412" lon="6.72981">
        <ele>487.222137</ele>
        <time>2019-08-16T15:25:25Z</time>
      </trkpt>
      <trkpt lat="47.98411" lon="6.72982">
        <ele>487.349701</ele>
        <time>2019-08-16T15:25:26Z</time>
      </trkpt>
      <trkpt lat="47.98409" lon="6.72981">
        <ele>487.519745</ele>
        <time>2019-08-16T15:25:27Z</time>
      </trkpt>
      <trkpt lat="47.98407" lon="6.7298">
        <ele>487.616699</ele>
        <time>2019-08-16T15:25:28Z</time>
      </trkpt>
      <trkpt lat="47.98406" lon="6.7298">
        <ele>487.705536</ele>
        <time>2019-08-16T15:25:29Z</time>
      </trkpt>
      <trkpt lat="47.98404" lon="6.72979">
        <ele>487.828613</ele>
        <time>2019-08-16T15:25:30Z</time>
      </trkpt>
      <trkpt lat="47.98402" lon="6.72979">
        <ele>487.91153</ele>
        <time>2019-08-16T15:25:31Z</time>
      </trkpt>
      <trkpt lat="47.98401" lon="6.72978">
        <ele>488.000275</ele>
        <time>2019-08-16T15:25:32Z</time>
      </trkpt>
      <trkpt lat="47.984" lon="6.72977">
        <ele>488.148956</ele>
        <time>2019-08-16T15:25:33Z</time>
      </trkpt>
      <trkpt lat="47.98399" lon="6.72976">
        <ele>488.259613</ele>
        <time>2019-08-16T15:25:34Z</time>
      </trkpt>
      <trkpt lat="47.98397" lon="6.72975">
        <ele>488.37674</ele>
        <time>2019-08-16T15:25:35Z</time>
      </trkpt>
      <trkpt lat="47.98397" lon="6.72976">
        <ele>488.568207</ele>
        <time>2019-08-16T15:25:36Z</time>
      </trkpt>
      <trkpt lat="47.98397" lon="6.72978">
        <ele>488.708984</ele>
        <time>2019-08-16T15:25:37Z</time>
      </trkpt>
      <trkpt lat="47.98397" lon="6.7298">
        <ele>488.860229</ele>
        <time>2019-08-16T15:25:38Z</time>
      </trkpt>
      <trkpt lat="47.98398" lon="6.72982">
        <ele>489.013062</ele>
        <time>2019-08-16T15:25:39Z</time>
      </trkpt>
      <trkpt lat="47.98398" lon="6.72985">
        <ele>489.16333</ele>
        <time>2019-08-16T15:25:40Z</time>
      </trkpt>
      <trkpt lat="47.98399" lon="6.72987">
        <ele>489.304779</ele>
        <time>2019-08-16T15:25:41Z</time>
      </trkpt>
      <trkpt lat="47.98399" lon="6.7299">
        <ele>489.446289</ele>
        <time>2019-08-16T15:25:42Z</time>
      </trkpt>
      <trkpt lat="47.98399" lon="6.72992">
        <ele>489.594818</ele>
        <time>2019-08-16T15:25:43Z</time>
      </trkpt>
      <trkpt lat="47.984" lon="6.72994">
        <ele>489.752686</ele>
        <time>2019-08-16T15:25:44Z</time>
      </trkpt>
      <trkpt lat="47.984" lon="6.72997">
        <ele>489.922394</ele>
        <time>2019-08-16T15:25:45Z</time>
      </trkpt>
      <trkpt lat="47.98401" lon="6.72999">
        <ele>490.109772</ele>
        <time>2019-08-16T15:25:46Z</time>
      </trkpt>
      <trkpt lat="47.98401" lon="6.73002">
        <ele>490.318329</ele>
        <time>2019-08-16T15:25:47Z</time>
      </trkpt>
      <trkpt lat="47.98401" lon="6.73004">
        <ele>490.534149</ele>
        <time>2019-08-16T15:25:48Z</time>
      </trkpt>
      <trkpt lat="47.98401" lon="6.73007">
        <ele>490.744385</ele>
        <time>2019-08-16T15:25:49Z</time>
      </trkpt>
      <trkpt lat="47.98401" lon="6.73009">
        <ele>490.939087</ele>
        <time>2019-08-16T15:25:50Z</time>
      </trkpt>
      <trkpt lat="47.98401" lon="6.73012">
        <ele>491.117554</ele>
        <time>2019-08-16T15:25:51Z</time>
      </trkpt>
      <trkpt lat="47.98401" lon="6.73014">
        <ele>491.279297</ele>
        <time>2019-08-16T15:25:52Z</time>
      </trkpt>
      <trkpt lat="47.98401" lon="6.73016">
        <ele>491.423309</ele>
        <time>2019-08-16T15:25:53Z</time>
      </trkpt>
      <trkpt lat="47.984" lon="6.73018">
        <ele>491.549103</ele>
        <time>2019-08-16T15:25:54Z</time>
      </trkpt>
      <trkpt lat="47.984" lon="6.73021">
        <ele>491.664276</ele>
        <time>2019-08-16T15:25:55Z</time>
      </trkpt>
      <trkpt lat="47.984" lon="6.73023">
        <ele>491.77713</ele>
        <time>2019-08-16T15:25:56Z</time>
      </trkpt>
      <trkpt lat="47.984" lon="6.73025">
        <ele>491.890594</ele>
        <time>2019-08-16T15:25:57Z</time>
      </trkpt>
      <trkpt lat="47.984" lon="6.73027">
        <ele>492.001465</ele>
        <time>2019-08-16T15:25:58Z</time>
      </trkpt>
      <trkpt lat="47.984" lon="6.73029">
        <ele>492.109039</ele>
        <time>2019-08-16T15:25:59Z</time>
      </trkpt>
      <trkpt lat="47.98401" lon="6.73032">
        <ele>492.222168</ele>
        <time>2019-08-16T15:26:00Z</time>
      </trkpt>
      <trkpt lat="47.98401" lon="6.73034">
        <ele>492.347565</ele>
        <time>2019-08-16T15:26:01Z</time>
      </trkpt>
      <trkpt lat="47.98401" lon="6.73036">
        <ele>492.493164</ele>
        <time>2019-08-16T15:26:02Z</time>
      </trkpt>
      <trkpt lat="47.98402" lon="6.73038">
        <ele>492.655121</ele>
        <time>2019-08-16T15:26:03Z</time>
      </trkpt>
      <trkpt lat="47.98402" lon="6.73039">
        <ele>492.830414</ele>
        <time>2019-08-16T15:26:04Z</time>
      </trkpt>
      <trkpt lat="47.98404" lon="6.73041">
        <ele>493.018097</ele>
        <time>2019-08-16T15:26:05Z</time>
      </trkpt>
      <trkpt lat="47.98405" lon="6.73043">
        <ele>493.217438</ele>
        <time>2019-08-16T15:26:06Z</time>
      </trkpt>
      <trkpt lat="47.98406" lon="6.73044">
        <ele>493.42215</ele>
        <time>2019-08-16T15:26:07Z</time>
      </trkpt>
      <trkpt lat="47.98406" lon="6.73045">
        <ele>493.895508</ele>
        <time>2019-08-16T15:26:08Z</time>
      </trkpt>
      <trkpt lat="47.98406" lon="6.73047">
        <ele>494.06958</ele>
        <time>2019-08-16T15:26:10Z</time>
      </trkpt>
      <trkpt lat="47.98407" lon="6.73049">
        <ele>494.156158</ele>
        <time>2019-08-16T15:26:11Z</time>
      </trkpt>
      <trkpt lat="47.98408" lon="6.73051">
        <ele>494.244476</ele>
        <time>2019-08-16T15:26:12Z</time>
      </trkpt>
      <trkpt lat="47.98409" lon="6.73053">
        <ele>494.428101</ele>
        <time>2019-08-16T15:26:13Z</time>
      </trkpt>
      <trkpt lat="47.9841" lon="6.73055">
        <ele>494.618317</ele>
        <time>2019-08-16T15:26:14Z</time>
      </trkpt>
      <trkpt lat="47.98411" lon="6.73057">
        <ele>494.81897</ele>
        <time>2019-08-16T15:26:15Z</time>
      </trkpt>
      <trkpt lat="47.98412" lon="6.73059">
        <ele>495.027863</ele>
        <time>2019-08-16T15:26:16Z</time>
      </trkpt>
      <trkpt lat="47.98412" lon="6.73061">
        <ele>495.241669</ele>
        <time>2019-08-16T15:26:17Z</time>
      </trkpt>
      <trkpt lat="47.98412" lon="6.73064">
        <ele>495.45224</ele>
        <time>2019-08-16T15:26:18Z</time>
      </trkpt>
      <trkpt lat="47.98413" lon="6.73066">
        <ele>495.655121</ele>
        <time>2019-08-16T15:26:19Z</time>
      </trkpt>
      <trkpt lat="47.98413" lon="6.73068">
        <ele>495.849457</ele>
        <time>2019-08-16T15:26:20Z</time>
      </trkpt>
      <trkpt lat="47.98414" lon="6.73071">
        <ele>496.034088</ele>
        <time>2019-08-16T15:26:21Z</time>
      </trkpt>
      <trkpt lat="47.98414" lon="6.73073">
        <ele>496.209351</ele>
        <time>2019-08-16T15:26:22Z</time>
      </trkpt>
      <trkpt lat="47.98415" lon="6.73076">
        <ele>496.369232</ele>
        <time>2019-08-16T15:26:23Z</time>
      </trkpt>
      <trkpt lat="47.98416" lon="6.73078">
        <ele>496.51413</ele>
        <time>2019-08-16T15:26:24Z</time>
      </trkpt>
      <trkpt lat="47.98417" lon="6.7308">
        <ele>496.640961</ele>
        <time>2019-08-16T15:26:25Z</time>
      </trkpt>
      <trkpt lat="47.98418" lon="6.73082">
        <ele>496.755157</ele>
        <time>2019-08-16T15:26:26Z</time>
      </trkpt>
      <trkpt lat="47.98418" lon="6.73084">
        <ele>496.900604</ele>
        <time>2019-08-16T15:26:27Z</time>
      </trkpt>
      <trkpt lat="47.9842" lon="6.73085">
        <ele>496.985107</ele>
        <time>2019-08-16T15:26:28Z</time>
      </trkpt>
      <trkpt lat="47.98421" lon="6.73086">
        <ele>497.072723</ele>
        <time>2019-08-16T15:26:29Z</time>
      </trkpt>
      <trkpt lat="47.9843" lon="6.7309">
        <ele>498.549957</ele>
        <time>2019-08-16T15:26:37Z</time>
      </trkpt>
      <trkpt lat="47.98433" lon="6.73091">
        <ele>498.700073</ele>
        <time>2019-08-16T15:26:39Z</time>
      </trkpt>
      <trkpt lat="47.98433" lon="6.73092">
        <ele>499.171143</ele>
        <time>2019-08-16T15:26:41Z</time>
      </trkpt>
      <trkpt lat="47.98444" lon="6.73093">
        <ele>499.862885</ele>
        <time>2019-08-16T15:26:47Z</time>
      </trkpt>
      <trkpt lat="47.98446" lon="6.73094">
        <ele>500.041595</ele>
        <time>2019-08-16T15:26:49Z</time>
      </trkpt>
      <trkpt lat="47.98448" lon="6.73096">
        <ele>500.151978</ele>
        <time>2019-08-16T15:26:50Z</time>
      </trkpt>
      <trkpt lat="47.98449" lon="6.73097">
        <ele>500.254242</ele>
        <time>2019-08-16T15:26:51Z</time>
      </trkpt>
      <trkpt lat="47.98451" lon="6.73098">
        <ele>500.388214</ele>
        <time>2019-08-16T15:26:52Z</time>
      </trkpt>
      <trkpt lat="47.98454" lon="6.73099">
        <ele>500.464874</ele>
        <time>2019-08-16T15:26:53Z</time>
      </trkpt>
      <trkpt lat="47.98456" lon="6.73099">
        <ele>500.526154</ele>
        <time>2019-08-16T15:26:54Z</time>
      </trkpt>
      <trkpt lat="47.98458" lon="6.731">
        <ele>500.591431</ele>
        <time>2019-08-16T15:26:55Z</time>
      </trkpt>
      <trkpt lat="47.98459" lon="6.731">
        <ele>500.622101</ele>
        <time>2019-08-16T15:26:56Z</time>
      </trkpt>
      <trkpt lat="47.98461" lon="6.731">
        <ele>500.649445</ele>
        <time>2019-08-16T15:26:57Z</time>
      </trkpt>
      <trkpt lat="47.98463" lon="6.73101">
        <ele>500.689453</ele>
        <time>2019-08-16T15:26:58Z</time>
      </trkpt>
      <trkpt lat="47.98466" lon="6.73101">
        <ele>500.726349</ele>
        <time>2019-08-16T15:26:59Z</time>
      </trkpt>
      <trkpt lat="47.98467" lon="6.73102">
        <ele>500.852081</ele>
        <time>2019-08-16T15:27:00Z</time>
      </trkpt>
      <trkpt lat="47.98468" lon="6.73103">
        <ele>501.010956</ele>
        <time>2019-08-16T15:27:02Z</time>
      </trkpt>
      <trkpt lat="47.9847" lon="6.73104">
        <ele>501.091553</ele>
        <time>2019-08-16T15:27:04Z</time>
      </trkpt>
      <trkpt lat="47.98472" lon="6.73105">
        <ele>501.226471</ele>
        <time>2019-08-16T15:27:05Z</time>
      </trkpt>
      <trkpt lat="47.98474" lon="6.73107">
        <ele>501.32663</ele>
        <time>2019-08-16T15:27:06Z</time>
      </trkpt>
      <trkpt lat="47.98476" lon="6.73108">
        <ele>501.439667</ele>
        <time>2019-08-16T15:27:07Z</time>
      </trkpt>
      <trkpt lat="47.98478" lon="6.7311">
        <ele>501.57132</ele>
        <time>2019-08-16T15:27:08Z</time>
      </trkpt>
      <trkpt lat="47.9848" lon="6.73111">
        <ele>501.809326</ele>
        <time>2019-08-16T15:27:09Z</time>
      </trkpt>
      <trkpt lat="47.98481" lon="6.73112">
        <ele>501.994019</ele>
        <time>2019-08-16T15:27:10Z</time>
      </trkpt>
      <trkpt lat="47.98483" lon="6.73112">
        <ele>502.199677</ele>
        <time>2019-08-16T15:27:11Z</time>
      </trkpt>
      <trkpt lat="47.98484" lon="6.73112">
        <ele>502.310669</ele>
        <time>2019-08-16T15:27:12Z</time>
      </trkpt>
      <trkpt lat="47.98486" lon="6.73113">
        <ele>502.548615</ele>
        <time>2019-08-16T15:27:13Z</time>
      </trkpt>
      <trkpt lat="47.98488" lon="6.73114">
        <ele>502.940887</ele>
        <time>2019-08-16T15:27:14Z</time>
      </trkpt>
      <trkpt lat="47.9849" lon="6.73114">
        <ele>503.214386</ele>
        <time>2019-08-16T15:27:15Z</time>
      </trkpt>
      <trkpt lat="47.98492" lon="6.73114">
        <ele>503.490936</ele>
        <time>2019-08-16T15:27:16Z</time>
      </trkpt>
      <trkpt lat="47.98494" lon="6.73115">
        <ele>503.910248</ele>
        <time>2019-08-16T15:27:17Z</time>
      </trkpt>
      <trkpt lat="47.98495" lon="6.73115">
        <ele>504.189301</ele>
        <time>2019-08-16T15:27:18Z</time>
      </trkpt>
      <trkpt lat="47.98497" lon="6.73116">
        <ele>504.460602</ele>
        <time>2019-08-16T15:27:19Z</time>
      </trkpt>
      <trkpt lat="47.98499" lon="6.73116">
        <ele>504.848053</ele>
        <time>2019-08-16T15:27:20Z</time>
      </trkpt>
      <trkpt lat="47.985" lon="6.73116">
        <ele>505.088379</ele>
        <time>2019-08-16T15:27:21Z</time>
      </trkpt>
      <trkpt lat="47.98502" lon="6.73116">
        <ele>505.315186</ele>
        <time>2019-08-16T15:27:22Z</time>
      </trkpt>
      <trkpt lat="47.98503" lon="6.73116">
        <ele>505.647125</ele>
        <time>2019-08-16T15:27:23Z</time>
      </trkpt>
      <trkpt lat="47.98505" lon="6.73116">
        <ele>505.866608</ele>
        <time>2019-08-16T15:27:24Z</time>
      </trkpt>
      <trkpt lat="47.98507" lon="6.73117">
        <ele>506.080566</ele>
        <time>2019-08-16T15:27:25Z</time>
      </trkpt>
      <trkpt lat="47.98508" lon="6.73117">
        <ele>506.381805</ele>
        <time>2019-08-16T15:27:26Z</time>
      </trkpt>
      <trkpt lat="47.9851" lon="6.73118">
        <ele>506.573242</ele>
        <time>2019-08-16T15:27:27Z</time>
      </trkpt>
      <trkpt lat="47.98512" lon="6.73118">
        <ele>506.845795</ele>
        <time>2019-08-16T15:27:28Z</time>
      </trkpt>
      <trkpt lat="47.98513" lon="6.73118">
        <ele>507.013397</ele>
        <time>2019-08-16T15:27:29Z</time>
      </trkpt>
      <trkpt lat="47.98515" lon="6.73119">
        <ele>507.165039</ele>
        <time>2019-08-16T15:27:30Z</time>
      </trkpt>
      <trkpt lat="47.98517" lon="6.7312">
        <ele>507.298492</ele>
        <time>2019-08-16T15:27:31Z</time>
      </trkpt>
      <trkpt lat="47.98518" lon="6.7312">
        <ele>507.466278</ele>
        <time>2019-08-16T15:27:32Z</time>
      </trkpt>
      <trkpt lat="47.9852" lon="6.7312">
        <ele>507.565308</ele>
        <time>2019-08-16T15:27:33Z</time>
      </trkpt>
      <trkpt lat="47.98521" lon="6.7312">
        <ele>507.662811</ele>
        <time>2019-08-16T15:27:34Z</time>
      </trkpt>
      <trkpt lat="47.98523" lon="6.7312">
        <ele>507.811005</ele>
        <time>2019-08-16T15:27:35Z</time>
      </trkpt>
      <trkpt lat="47.98524" lon="6.7312">
        <ele>507.912109</ele>
        <time>2019-08-16T15:27:36Z</time>
      </trkpt>
      <trkpt lat="47.98525" lon="6.73121">
        <ele>508.010712</ele>
        <time>2019-08-16T15:27:37Z</time>
      </trkpt>
      <trkpt lat="47.98526" lon="6.73121">
        <ele>508.155792</ele>
        <time>2019-08-16T15:27:38Z</time>
      </trkpt>
      <trkpt lat="47.98528" lon="6.7312">
        <ele>508.250977</ele>
        <time>2019-08-16T15:27:39Z</time>
      </trkpt>
      <trkpt lat="47.98529" lon="6.73121">
        <ele>508.341797</ele>
        <time>2019-08-16T15:27:40Z</time>
      </trkpt>
      <trkpt lat="47.98531" lon="6.73121">
        <ele>508.449707</ele>
        <time>2019-08-16T15:27:41Z</time>
      </trkpt>
      <trkpt lat="47.98533" lon="6.73121">
        <ele>508.504639</ele>
        <time>2019-08-16T15:27:42Z</time>
      </trkpt>
      <trkpt lat="47.98535" lon="6.73121">
        <ele>508.555206</ele>
        <time>2019-08-16T15:27:43Z</time>
      </trkpt>
      <trkpt lat="47.98537" lon="6.73121">
        <ele>508.634521</ele>
        <time>2019-08-16T15:27:44Z</time>
      </trkpt>
      <trkpt lat="47.98539" lon="6.73121">
        <ele>508.680695</ele>
        <time>2019-08-16T15:27:45Z</time>
      </trkpt>
      <trkpt lat="47.98542" lon="6.73122">
        <ele>508.716827</ele>
        <time>2019-08-16T15:27:46Z</time>
      </trkpt>
      <trkpt lat="47.98543" lon="6.73123">
        <ele>508.763794</ele>
        <time>2019-08-16T15:27:47Z</time>
      </trkpt>
      <trkpt lat="47.98545" lon="6.73124">
        <ele>508.803833</ele>
        <time>2019-08-16T15:27:48Z</time>
      </trkpt>
      <trkpt lat="47.98547" lon="6.73125">
        <ele>508.85379</ele>
        <time>2019-08-16T15:27:49Z</time>
      </trkpt>
      <trkpt lat="47.98549" lon="6.73126">
        <ele>508.925385</ele>
        <time>2019-08-16T15:27:50Z</time>
      </trkpt>
      <trkpt lat="47.98551" lon="6.73127">
        <ele>508.963226</ele>
        <time>2019-08-16T15:27:51Z</time>
      </trkpt>
      <trkpt lat="47.98552" lon="6.73128">
        <ele>508.998383</ele>
        <time>2019-08-16T15:27:52Z</time>
      </trkpt>
      <trkpt lat="47.98554" lon="6.73129">
        <ele>509.06665</ele>
        <time>2019-08-16T15:27:53Z</time>
      </trkpt>
      <trkpt lat="47.98556" lon="6.73131">
        <ele>509.126373</ele>
        <time>2019-08-16T15:27:54Z</time>
      </trkpt>
      <trkpt lat="47.98559" lon="6.73133">
        <ele>509.194336</ele>
        <time>2019-08-16T15:27:55Z</time>
      </trkpt>
      <trkpt lat="47.98561" lon="6.73134">
        <ele>509.29892</ele>
        <time>2019-08-16T15:27:56Z</time>
      </trkpt>
      <trkpt lat="47.98564" lon="6.73135">
        <ele>509.364166</ele>
        <time>2019-08-16T15:27:57Z</time>
      </trkpt>
      <trkpt lat="47.98567" lon="6.73136">
        <ele>509.421967</ele>
        <time>2019-08-16T15:27:58Z</time>
      </trkpt>
      <trkpt lat="47.9857" lon="6.73137">
        <ele>509.490692</ele>
        <time>2019-08-16T15:27:59Z</time>
      </trkpt>
      <trkpt lat="47.98572" lon="6.73138">
        <ele>509.514496</ele>
        <time>2019-08-16T15:28:00Z</time>
      </trkpt>
      <trkpt lat="47.98573" lon="6.7314">
        <ele>509.518646</ele>
        <time>2019-08-16T15:28:01Z</time>
      </trkpt>
      <trkpt lat="47.98574" lon="6.73142">
        <ele>509.514618</ele>
        <time>2019-08-16T15:28:02Z</time>
      </trkpt>
      <trkpt lat="47.98575" lon="6.73143">
        <ele>509.506073</ele>
        <time>2019-08-16T15:28:03Z</time>
      </trkpt>
      <trkpt lat="47.98577" lon="6.73145">
        <ele>509.505646</ele>
        <time>2019-08-16T15:28:04Z</time>
      </trkpt>
      <trkpt lat="47.98578" lon="6.73147">
        <ele>509.509369</ele>
        <time>2019-08-16T15:28:05Z</time>
      </trkpt>
      <trkpt lat="47.98579" lon="6.73149">
        <ele>509.530487</ele>
        <time>2019-08-16T15:28:06Z</time>
      </trkpt>
      <trkpt lat="47.98579" lon="6.7315">
        <ele>509.56897</ele>
        <time>2019-08-16T15:28:07Z</time>
      </trkpt>
      <trkpt lat="47.98579" lon="6.73152">
        <ele>509.654541</ele>
        <time>2019-08-16T15:28:08Z</time>
      </trkpt>
      <trkpt lat="47.98589" lon="6.73154">
        <ele>510.163483</ele>
        <time>2019-08-16T15:28:21Z</time>
      </trkpt>
      <trkpt lat="47.98592" lon="6.73156">
        <ele>510.124176</ele>
        <time>2019-08-16T15:28:23Z</time>
      </trkpt>
      <trkpt lat="47.98595" lon="6.73158">
        <ele>510.061157</ele>
        <time>2019-08-16T15:28:24Z</time>
      </trkpt>
      <trkpt lat="47.98598" lon="6.73161">
        <ele>509.974457</ele>
        <time>2019-08-16T15:28:25Z</time>
      </trkpt>
      <trkpt lat="47.98602" lon="6.73165">
        <ele>509.871185</ele>
        <time>2019-08-16T15:28:26Z</time>
      </trkpt>
      <trkpt lat="47.98607" lon="6.73167">
        <ele>509.677521</ele>
        <time>2019-08-16T15:28:27Z</time>
      </trkpt>
      <trkpt lat="47.98611" lon="6.73166">
        <ele>509.51709</ele>
        <time>2019-08-16T15:28:28Z</time>
      </trkpt>
      <trkpt lat="47.98616" lon="6.73165">
        <ele>509.322968</ele>
        <time>2019-08-16T15:28:29Z</time>
      </trkpt>
      <trkpt lat="47.98619" lon="6.73164">
        <ele>508.955688</ele>
        <time>2019-08-16T15:28:30Z</time>
      </trkpt>
      <trkpt lat="47.98622" lon="6.73163">
        <ele>508.662994</ele>
        <time>2019-08-16T15:28:31Z</time>
      </trkpt>
      <trkpt lat="47.98624" lon="6.73163">
        <ele>508.343109</ele>
        <time>2019-08-16T15:28:32Z</time>
      </trkpt>
      <trkpt lat="47.98626" lon="6.73163">
        <ele>507.853394</ele>
        <time>2019-08-16T15:28:33Z</time>
      </trkpt>
      <trkpt lat="47.98629" lon="6.73162">
        <ele>507.55191</ele>
        <time>2019-08-16T15:28:34Z</time>
      </trkpt>
      <trkpt lat="47.98631" lon="6.73161">
        <ele>507.298004</ele>
        <time>2019-08-16T15:28:35Z</time>
      </trkpt>
      <trkpt lat="47.98634" lon="6.73161">
        <ele>506.990143</ele>
        <time>2019-08-16T15:28:36Z</time>
      </trkpt>
      <trkpt lat="47.98637" lon="6.73161">
        <ele>506.822662</ele>
        <time>2019-08-16T15:28:37Z</time>
      </trkpt>
      <trkpt lat="47.98642" lon="6.73161">
        <ele>506.600098</ele>
        <time>2019-08-16T15:28:38Z</time>
      </trkpt>
      <trkpt lat="47.98645" lon="6.73162">
        <ele>506.463226</ele>
        <time>2019-08-16T15:28:39Z</time>
      </trkpt>
      <trkpt lat="47.98648" lon="6.73164">
        <ele>506.328979</ele>
        <time>2019-08-16T15:28:40Z</time>
      </trkpt>
      <trkpt lat="47.98651" lon="6.73167">
        <ele>506.11795</ele>
        <time>2019-08-16T15:28:41Z</time>
      </trkpt>
      <trkpt lat="47.98653" lon="6.73171">
        <ele>505.974518</ele>
        <time>2019-08-16T15:28:42Z</time>
      </trkpt>
      <trkpt lat="47.98657" lon="6.73175">
        <ele>505.836426</ele>
        <time>2019-08-16T15:28:43Z</time>
      </trkpt>
      <trkpt lat="47.98658" lon="6.7318">
        <ele>505.707275</ele>
        <time>2019-08-16T15:28:44Z</time>
      </trkpt>
      <trkpt lat="47.9866" lon="6.73184">
        <ele>505.583466</ele>
        <time>2019-08-16T15:28:45Z</time>
      </trkpt>
      <trkpt lat="47.98663" lon="6.73188">
        <ele>505.468842</ele>
        <time>2019-08-16T15:28:46Z</time>
      </trkpt>
      <trkpt lat="47.98665" lon="6.73192">
        <ele>505.356689</ele>
        <time>2019-08-16T15:28:47Z</time>
      </trkpt>
      <trkpt lat="47.98668" lon="6.73195">
        <ele>505.243164</ele>
        <time>2019-08-16T15:28:48Z</time>
      </trkpt>
      <trkpt lat="47.98672" lon="6.73198">
        <ele>505.032623</ele>
        <time>2019-08-16T15:28:49Z</time>
      </trkpt>
      <trkpt lat="47.98676" lon="6.73201">
        <ele>504.850494</ele>
        <time>2019-08-16T15:28:50Z</time>
      </trkpt>
      <trkpt lat="47.9868" lon="6.73205">
        <ele>504.630707</ele>
        <time>2019-08-16T15:28:51Z</time>
      </trkpt>
      <trkpt lat="47.98685" lon="6.7321">
        <ele>504.402069</ele>
        <time>2019-08-16T15:28:52Z</time>
      </trkpt>
      <trkpt lat="47.98689" lon="6.73214">
        <ele>504.053375</ele>
        <time>2019-08-16T15:28:53Z</time>
      </trkpt>
      <trkpt lat="47.98693" lon="6.73219">
        <ele>503.814301</ele>
        <time>2019-08-16T15:28:54Z</time>
      </trkpt>
      <trkpt lat="47.98696" lon="6.73225">
        <ele>503.568604</ele>
        <time>2019-08-16T15:28:55Z</time>
      </trkpt>
      <trkpt lat="47.987" lon="6.73231">
        <ele>503.224487</ele>
        <time>2019-08-16T15:28:56Z</time>
      </trkpt>
      <trkpt lat="47.98703" lon="6.73236">
        <ele>503.013672</ele>
        <time>2019-08-16T15:28:57Z</time>
      </trkpt>
      <trkpt lat="47.98706" lon="6.73241">
        <ele>502.805023</ele>
        <time>2019-08-16T15:28:58Z</time>
      </trkpt>
      <trkpt lat="47.98711" lon="6.73245">
        <ele>502.588043</ele>
        <time>2019-08-16T15:28:59Z</time>
      </trkpt>
      <trkpt lat="47.98715" lon="6.73249">
        <ele>502.258209</ele>
        <time>2019-08-16T15:29:00Z</time>
      </trkpt>
      <trkpt lat="47.98719" lon="6.73252">
        <ele>502.051758</ele>
        <time>2019-08-16T15:29:01Z</time>
      </trkpt>
      <trkpt lat="47.98724" lon="6.73255">
        <ele>501.853271</ele>
        <time>2019-08-16T15:29:02Z</time>
      </trkpt>
      <trkpt lat="47.98728" lon="6.73258">
        <ele>501.539093</ele>
        <time>2019-08-16T15:29:03Z</time>
      </trkpt>
      <trkpt lat="47.98732" lon="6.7326">
        <ele>501.312103</ele>
        <time>2019-08-16T15:29:04Z</time>
      </trkpt>
      <trkpt lat="47.98735" lon="6.73261">
        <ele>501.085236</ele>
        <time>2019-08-16T15:29:05Z</time>
      </trkpt>
      <trkpt lat="47.98737" lon="6.73263">
        <ele>500.774567</ele>
        <time>2019-08-16T15:29:06Z</time>
      </trkpt>
      <trkpt lat="47.98738" lon="6.73264">
        <ele>500.579498</ele>
        <time>2019-08-16T15:29:07Z</time>
      </trkpt>
      <trkpt lat="47.98739" lon="6.73265">
        <ele>500.386688</ele>
        <time>2019-08-16T15:29:08Z</time>
      </trkpt>
      <trkpt lat="47.98739" lon="6.73265">
        <ele>499.965363</ele>
        <time>2019-08-16T15:29:09Z</time>
      </trkpt>
      <trkpt lat="47.9874" lon="6.73267">
        <ele>499.843353</ele>
        <time>2019-08-16T15:29:11Z</time>
      </trkpt>
      <trkpt lat="47.9874" lon="6.73268">
        <ele>499.706635</ele>
        <time>2019-08-16T15:29:12Z</time>
      </trkpt>
      <trkpt lat="47.9874" lon="6.73271">
        <ele>499.671295</ele>
        <time>2019-08-16T15:29:13Z</time>
      </trkpt>
      <trkpt lat="47.9874" lon="6.73274">
        <ele>499.620575</ele>
        <time>2019-08-16T15:29:14Z</time>
      </trkpt>
      <trkpt lat="47.98739" lon="6.73278">
        <ele>499.608917</ele>
        <time>2019-08-16T15:29:15Z</time>
      </trkpt>
      <trkpt lat="47.98739" lon="6.73281">
        <ele>499.608917</ele>
        <time>2019-08-16T15:29:16Z</time>
      </trkpt>
      <trkpt lat="47.98738" lon="6.73285">
        <ele>499.652435</ele>
        <time>2019-08-16T15:29:17Z</time>
      </trkpt>
      <trkpt lat="47.98738" lon="6.73289">
        <ele>499.759857</ele>
        <time>2019-08-16T15:29:18Z</time>
      </trkpt>
      <trkpt lat="47.98737" lon="6.73293">
        <ele>499.917023</ele>
        <time>2019-08-16T15:29:19Z</time>
      </trkpt>
      <trkpt lat="47.98737" lon="6.73296">
        <ele>500.109497</ele>
        <time>2019-08-16T15:29:20Z</time>
      </trkpt>
      <trkpt lat="47.98736" lon="6.73299">
        <ele>500.320587</ele>
        <time>2019-08-16T15:29:21Z</time>
      </trkpt>
      <trkpt lat="47.98735" lon="6.73303">
        <ele>500.535797</ele>
        <time>2019-08-16T15:29:22Z</time>
      </trkpt>
      <trkpt lat="47.98735" lon="6.73306">
        <ele>500.740143</ele>
        <time>2019-08-16T15:29:23Z</time>
      </trkpt>
      <trkpt lat="47.98735" lon="6.73309">
        <ele>500.925659</ele>
        <time>2019-08-16T15:29:24Z</time>
      </trkpt>
      <trkpt lat="47.98735" lon="6.73312">
        <ele>501.093628</ele>
        <time>2019-08-16T15:29:25Z</time>
      </trkpt>
      <trkpt lat="47.98734" lon="6.73316">
        <ele>501.248749</ele>
        <time>2019-08-16T15:29:26Z</time>
      </trkpt>
      <trkpt lat="47.98734" lon="6.73319">
        <ele>501.398529</ele>
        <time>2019-08-16T15:29:27Z</time>
      </trkpt>
      <trkpt lat="47.98734" lon="6.73323">
        <ele>501.547638</ele>
        <time>2019-08-16T15:29:28Z</time>
      </trkpt>
      <trkpt lat="47.98734" lon="6.73326">
        <ele>501.701874</ele>
        <time>2019-08-16T15:29:29Z</time>
      </trkpt>
      <trkpt lat="47.98734" lon="6.73328">
        <ele>501.866791</ele>
        <time>2019-08-16T15:29:30Z</time>
      </trkpt>
      <trkpt lat="47.98733" lon="6.7333">
        <ele>502.049316</ele>
        <time>2019-08-16T15:29:31Z</time>
      </trkpt>
      <trkpt lat="47.98733" lon="6.73333">
        <ele>502.249146</ele>
        <time>2019-08-16T15:29:32Z</time>
      </trkpt>
      <trkpt lat="47.98733" lon="6.73335">
        <ele>502.461304</ele>
        <time>2019-08-16T15:29:33Z</time>
      </trkpt>
      <trkpt lat="47.98733" lon="6.73338">
        <ele>502.681061</ele>
        <time>2019-08-16T15:29:34Z</time>
      </trkpt>
      <trkpt lat="47.98733" lon="6.7334">
        <ele>502.907227</ele>
        <time>2019-08-16T15:29:35Z</time>
      </trkpt>
      <trkpt lat="47.98734" lon="6.73341">
        <ele>503.134521</ele>
        <time>2019-08-16T15:29:36Z</time>
      </trkpt>
      <trkpt lat="47.98733" lon="6.73344">
        <ele>503.358612</ele>
        <time>2019-08-16T15:29:37Z</time>
      </trkpt>
      <trkpt lat="47.98733" lon="6.73347">
        <ele>503.577728</ele>
        <time>2019-08-16T15:29:38Z</time>
      </trkpt>
      <trkpt lat="47.98732" lon="6.73348">
        <ele>503.796387</ele>
        <time>2019-08-16T15:29:39Z</time>
      </trkpt>
      <trkpt lat="47.98732" lon="6.7335">
        <ele>504.016937</ele>
        <time>2019-08-16T15:29:40Z</time>
      </trkpt>
      <trkpt lat="47.98732" lon="6.73352">
        <ele>504.243317</ele>
        <time>2019-08-16T15:29:41Z</time>
      </trkpt>
      <trkpt lat="47.98732" lon="6.73354">
        <ele>504.476807</ele>
        <time>2019-08-16T15:29:42Z</time>
      </trkpt>
      <trkpt lat="47.98731" lon="6.73356">
        <ele>504.857452</ele>
        <time>2019-08-16T15:29:43Z</time>
      </trkpt>
      <trkpt lat="47.98731" lon="6.73358">
        <ele>505.125336</ele>
        <time>2019-08-16T15:29:44Z</time>
      </trkpt>
      <trkpt lat="47.9873" lon="6.73361">
        <ele>505.392944</ele>
        <time>2019-08-16T15:29:45Z</time>
      </trkpt>
      <trkpt lat="47.9873" lon="6.73363">
        <ele>505.655121</ele>
        <time>2019-08-16T15:29:46Z</time>
      </trkpt>
      <trkpt lat="47.9873" lon="6.73365">
        <ele>505.913055</ele>
        <time>2019-08-16T15:29:47Z</time>
      </trkpt>
      <trkpt lat="47.9873" lon="6.73367">
        <ele>506.170929</ele>
        <time>2019-08-16T15:29:48Z</time>
      </trkpt>
      <trkpt lat="47.98729" lon="6.7337">
        <ele>506.431854</ele>
        <time>2019-08-16T15:29:49Z</time>
      </trkpt>
      <trkpt lat="47.98728" lon="6.73372">
        <ele>506.689819</ele>
        <time>2019-08-16T15:29:50Z</time>
      </trkpt>
      <trkpt lat="47.98728" lon="6.73374">
        <ele>506.938812</ele>
        <time>2019-08-16T15:29:51Z</time>
      </trkpt>
      <trkpt lat="47.98728" lon="6.73376">
        <ele>507.173065</ele>
        <time>2019-08-16T15:29:52Z</time>
      </trkpt>
      <trkpt lat="47.98728" lon="6.73379">
        <ele>507.395905</ele>
        <time>2019-08-16T15:29:53Z</time>
      </trkpt>
      <trkpt lat="47.98728" lon="6.73381">
        <ele>507.608276</ele>
        <time>2019-08-16T15:29:54Z</time>
      </trkpt>
      <trkpt lat="47.98727" lon="6.73383">
        <ele>507.809937</ele>
        <time>2019-08-16T15:29:55Z</time>
      </trkpt>
      <trkpt lat="47.98727" lon="6.73386">
        <ele>507.997101</ele>
        <time>2019-08-16T15:29:56Z</time>
      </trkpt>
      <trkpt lat="47.98728" lon="6.73388">
        <ele>508.170624</ele>
        <time>2019-08-16T15:29:57Z</time>
      </trkpt>
      <trkpt lat="47.98728" lon="6.7339">
        <ele>508.337402</ele>
        <time>2019-08-16T15:29:58Z</time>
      </trkpt>
      <trkpt lat="47.98728" lon="6.73392">
        <ele>508.505005</ele>
        <time>2019-08-16T15:29:59Z</time>
      </trkpt>
      <trkpt lat="47.98729" lon="6.73395">
        <ele>508.674347</ele>
        <time>2019-08-16T15:30:00Z</time>
      </trkpt>
      <trkpt lat="47.9873" lon="6.73397">
        <ele>508.837524</ele>
        <time>2019-08-16T15:30:01Z</time>
      </trkpt>
      <trkpt lat="47.98731" lon="6.734">
        <ele>508.988129</ele>
        <time>2019-08-16T15:30:02Z</time>
      </trkpt>
      <trkpt lat="47.98732" lon="6.73402">
        <ele>509.120941</ele>
        <time>2019-08-16T15:30:03Z</time>
      </trkpt>
      <trkpt lat="47.98734" lon="6.73404">
        <ele>509.237091</ele>
        <time>2019-08-16T15:30:04Z</time>
      </trkpt>
      <trkpt lat="47.98735" lon="6.73406">
        <ele>509.3367</ele>
        <time>2019-08-16T15:30:05Z</time>
      </trkpt>
      <trkpt lat="47.98736" lon="6.73407">
        <ele>509.422119</ele>
        <time>2019-08-16T15:30:06Z</time>
      </trkpt>
      <trkpt lat="47.98738" lon="6.73409">
        <ele>509.490631</ele>
        <time>2019-08-16T15:30:07Z</time>
      </trkpt>
      <trkpt lat="47.98739" lon="6.7341">
        <ele>509.566498</ele>
        <time>2019-08-16T15:30:08Z</time>
      </trkpt>
      <trkpt lat="47.9874" lon="6.73412">
        <ele>509.611664</ele>
        <time>2019-08-16T15:30:09Z</time>
      </trkpt>
      <trkpt lat="47.98742" lon="6.73415">
        <ele>509.666534</ele>
        <time>2019-08-16T15:30:10Z</time>
      </trkpt>
      <trkpt lat="47.98743" lon="6.73417">
        <ele>509.731934</ele>
        <time>2019-08-16T15:30:11Z</time>
      </trkpt>
      <trkpt lat="47.98745" lon="6.73419">
        <ele>509.799591</ele>
        <time>2019-08-16T15:30:12Z</time>
      </trkpt>
      <trkpt lat="47.98745" lon="6.73421">
        <ele>509.862915</ele>
        <time>2019-08-16T15:30:13Z</time>
      </trkpt>
      <trkpt lat="47.98746" lon="6.73423">
        <ele>509.893341</ele>
        <time>2019-08-16T15:30:14Z</time>
      </trkpt>
      <trkpt lat="47.98748" lon="6.73425">
        <ele>509.955566</ele>
        <time>2019-08-16T15:30:15Z</time>
      </trkpt>
      <trkpt lat="47.98749" lon="6.73426">
        <ele>510.044525</ele>
        <time>2019-08-16T15:30:16Z</time>
      </trkpt>
      <trkpt lat="47.98751" lon="6.73428">
        <ele>510.095215</ele>
        <time>2019-08-16T15:30:17Z</time>
      </trkpt>
      <trkpt lat="47.98753" lon="6.7343">
        <ele>510.131134</ele>
        <time>2019-08-16T15:30:18Z</time>
      </trkpt>
      <trkpt lat="47.98754" lon="6.73433">
        <ele>510.151031</ele>
        <time>2019-08-16T15:30:19Z</time>
      </trkpt>
      <trkpt lat="47.98757" lon="6.73436">
        <ele>510.154297</ele>
        <time>2019-08-16T15:30:20Z</time>
      </trkpt>
      <trkpt lat="47.9876" lon="6.7344">
        <ele>510.141449</ele>
        <time>2019-08-16T15:30:21Z</time>
      </trkpt>
      <trkpt lat="47.98762" lon="6.73445">
        <ele>510.099243</ele>
        <time>2019-08-16T15:30:22Z</time>
      </trkpt>
      <trkpt lat="47.98764" lon="6.73449">
        <ele>510.028198</ele>
        <time>2019-08-16T15:30:23Z</time>
      </trkpt>
      <trkpt lat="47.98768" lon="6.73454">
        <ele>509.932953</ele>
        <time>2019-08-16T15:30:24Z</time>
      </trkpt>
      <trkpt lat="47.98769" lon="6.73459">
        <ele>509.805542</ele>
        <time>2019-08-16T15:30:25Z</time>
      </trkpt>
      <trkpt lat="47.9877" lon="6.73463">
        <ele>509.639374</ele>
        <time>2019-08-16T15:30:26Z</time>
      </trkpt>
      <trkpt lat="47.98771" lon="6.73469">
        <ele>509.430939</ele>
        <time>2019-08-16T15:30:27Z</time>
      </trkpt>
      <trkpt lat="47.98771" lon="6.73475">
        <ele>509.194122</ele>
        <time>2019-08-16T15:30:28Z</time>
      </trkpt>
      <trkpt lat="47.98771" lon="6.73481">
        <ele>508.941895</ele>
        <time>2019-08-16T15:30:29Z</time>
      </trkpt>
      <trkpt lat="47.98774" lon="6.73487">
        <ele>508.532227</ele>
        <time>2019-08-16T15:30:30Z</time>
      </trkpt>
      <trkpt lat="47.98776" lon="6.7349">
        <ele>508.222626</ele>
        <time>2019-08-16T15:30:31Z</time>
      </trkpt>
      <trkpt lat="47.98778" lon="6.73492">
        <ele>507.881226</ele>
        <time>2019-08-16T15:30:32Z</time>
      </trkpt>
      <trkpt lat="47.98782" lon="6.73488">
        <ele>507.518799</ele>
        <time>2019-08-16T15:30:33Z</time>
      </trkpt>
      <trkpt lat="47.98785" lon="6.73484">
        <ele>507.145844</ele>
        <time>2019-08-16T15:30:34Z</time>
      </trkpt>
      <trkpt lat="47.98789" lon="6.7348">
        <ele>506.544189</ele>
        <time>2019-08-16T15:30:35Z</time>
      </trkpt>
      <trkpt lat="47.98791" lon="6.73476">
        <ele>506.124359</ele>
        <time>2019-08-16T15:30:36Z</time>
      </trkpt>
      <trkpt lat="47.98793" lon="6.73474">
        <ele>505.707367</ele>
        <time>2019-08-16T15:30:37Z</time>
      </trkpt>
      <trkpt lat="47.98796" lon="6.73472">
        <ele>505.307648</ele>
        <time>2019-08-16T15:30:38Z</time>
      </trkpt>
      <trkpt lat="47.98798" lon="6.73471">
        <ele>504.731079</ele>
        <time>2019-08-16T15:30:39Z</time>
      </trkpt>
      <trkpt lat="47.98801" lon="6.73472">
        <ele>504.370728</ele>
        <time>2019-08-16T15:30:40Z</time>
      </trkpt>
      <trkpt lat="47.98805" lon="6.73473">
        <ele>504.044189</ele>
        <time>2019-08-16T15:30:41Z</time>
      </trkpt>
      <trkpt lat="47.98808" lon="6.73474">
        <ele>503.645386</ele>
        <time>2019-08-16T15:30:42Z</time>
      </trkpt>
      <trkpt lat="47.98811" lon="6.73475">
        <ele>503.430878</ele>
        <time>2019-08-16T15:30:43Z</time>
      </trkpt>
      <trkpt lat="47.98814" lon="6.73478">
        <ele>503.237335</ele>
        <time>2019-08-16T15:30:44Z</time>
      </trkpt>
      <trkpt lat="47.98815" lon="6.73482">
        <ele>503.046539</ele>
        <time>2019-08-16T15:30:45Z</time>
      </trkpt>
      <trkpt lat="47.98816" lon="6.73485">
        <ele>502.846588</ele>
        <time>2019-08-16T15:30:46Z</time>
      </trkpt>
      <trkpt lat="47.98816" lon="6.73489">
        <ele>502.633057</ele>
        <time>2019-08-16T15:30:47Z</time>
      </trkpt>
      <trkpt lat="47.98816" lon="6.73492">
        <ele>502.40799</ele>
        <time>2019-08-16T15:30:48Z</time>
      </trkpt>
      <trkpt lat="47.98816" lon="6.73496">
        <ele>502.180542</ele>
        <time>2019-08-16T15:30:49Z</time>
      </trkpt>
      <trkpt lat="47.98816" lon="6.73501">
        <ele>501.971313</ele>
        <time>2019-08-16T15:30:50Z</time>
      </trkpt>
      <trkpt lat="47.98817" lon="6.73505">
        <ele>501.79776</ele>
        <time>2019-08-16T15:30:51Z</time>
      </trkpt>
      <trkpt lat="47.98817" lon="6.7351">
        <ele>501.670013</ele>
        <time>2019-08-16T15:30:52Z</time>
      </trkpt>
      <trkpt lat="47.98817" lon="6.73514">
        <ele>501.590363</ele>
        <time>2019-08-16T15:30:53Z</time>
      </trkpt>
      <trkpt lat="47.98817" lon="6.73518">
        <ele>501.56662</ele>
        <time>2019-08-16T15:30:54Z</time>
      </trkpt>
      <trkpt lat="47.98817" lon="6.73523">
        <ele>501.56662</ele>
        <time>2019-08-16T15:30:55Z</time>
      </trkpt>
      <trkpt lat="47.98817" lon="6.73528">
        <ele>501.591156</ele>
        <time>2019-08-16T15:30:56Z</time>
      </trkpt>
      <trkpt lat="47.98817" lon="6.73534">
        <ele>501.647461</ele>
        <time>2019-08-16T15:30:57Z</time>
      </trkpt>
      <trkpt lat="47.98816" lon="6.7354">
        <ele>501.71109</ele>
        <time>2019-08-16T15:30:58Z</time>
      </trkpt>
      <trkpt lat="47.98816" lon="6.73546">
        <ele>501.766968</ele>
        <time>2019-08-16T15:30:59Z</time>
      </trkpt>
      <trkpt lat="47.98815" lon="6.73552">
        <ele>501.802979</ele>
        <time>2019-08-16T15:31:00Z</time>
      </trkpt>
      <trkpt lat="47.98814" lon="6.73558">
        <ele>501.812653</ele>
        <time>2019-08-16T15:31:01Z</time>
      </trkpt>
      <trkpt lat="47.98813" lon="6.73564">
        <ele>501.812653</ele>
        <time>2019-08-16T15:31:02Z</time>
      </trkpt>
      <trkpt lat="47.98813" lon="6.73571">
        <ele>501.793793</ele>
        <time>2019-08-16T15:31:03Z</time>
      </trkpt>
      <trkpt lat="47.98813" lon="6.73577">
        <ele>501.751709</ele>
        <time>2019-08-16T15:31:04Z</time>
      </trkpt>
      <trkpt lat="47.98813" lon="6.73584">
        <ele>501.69516</ele>
        <time>2019-08-16T15:31:05Z</time>
      </trkpt>
      <trkpt lat="47.98814" lon="6.7359">
        <ele>501.638275</ele>
        <time>2019-08-16T15:31:06Z</time>
      </trkpt>
      <trkpt lat="47.98816" lon="6.73597">
        <ele>501.592621</ele>
        <time>2019-08-16T15:31:07Z</time>
      </trkpt>
      <trkpt lat="47.98817" lon="6.73603">
        <ele>501.561371</ele>
        <time>2019-08-16T15:31:08Z</time>
      </trkpt>
      <trkpt lat="47.98818" lon="6.73608">
        <ele>501.543701</ele>
        <time>2019-08-16T15:31:09Z</time>
      </trkpt>
      <trkpt lat="47.98818" lon="6.73614">
        <ele>501.537933</ele>
        <time>2019-08-16T15:31:10Z</time>
      </trkpt>
      <trkpt lat="47.98819" lon="6.7362">
        <ele>501.537933</ele>
        <time>2019-08-16T15:31:11Z</time>
      </trkpt>
      <trkpt lat="47.98819" lon="6.73625">
        <ele>501.551178</ele>
        <time>2019-08-16T15:31:12Z</time>
      </trkpt>
      <trkpt lat="47.9882" lon="6.73631">
        <ele>501.61795</ele>
        <time>2019-08-16T15:31:13Z</time>
      </trkpt>
      <trkpt lat="47.98821" lon="6.73635">
        <ele>501.656464</ele>
        <time>2019-08-16T15:31:14Z</time>
      </trkpt>
      <trkpt lat="47.98821" lon="6.7364">
        <ele>501.703491</ele>
        <time>2019-08-16T15:31:15Z</time>
      </trkpt>
      <trkpt lat="47.98822" lon="6.73645">
        <ele>501.837769</ele>
        <time>2019-08-16T15:31:16Z</time>
      </trkpt>
      <trkpt lat="47.98823" lon="6.73649">
        <ele>502.029449</ele>
        <time>2019-08-16T15:31:17Z</time>
      </trkpt>
      <trkpt lat="47.98824" lon="6.73653">
        <ele>502.277466</ele>
        <time>2019-08-16T15:31:18Z</time>
      </trkpt>
      <trkpt lat="47.98826" lon="6.73657">
        <ele>502.569702</ele>
        <time>2019-08-16T15:31:19Z</time>
      </trkpt>
      <trkpt lat="47.98827" lon="6.73661">
        <ele>502.886444</ele>
        <time>2019-08-16T15:31:20Z</time>
      </trkpt>
      <trkpt lat="47.98829" lon="6.73666">
        <ele>503.212006</ele>
        <time>2019-08-16T15:31:21Z</time>
      </trkpt>
      <trkpt lat="47.98831" lon="6.7367">
        <ele>503.523407</ele>
        <time>2019-08-16T15:31:22Z</time>
      </trkpt>
      <trkpt lat="47.98833" lon="6.73675">
        <ele>503.805542</ele>
        <time>2019-08-16T15:31:23Z</time>
      </trkpt>
      <trkpt lat="47.98834" lon="6.7368">
        <ele>504.047455</ele>
        <time>2019-08-16T15:31:24Z</time>
      </trkpt>
      <trkpt lat="47.98835" lon="6.73684">
        <ele>504.252472</ele>
        <time>2019-08-16T15:31:25Z</time>
      </trkpt>
      <trkpt lat="47.98835" lon="6.73689">
        <ele>504.43277</ele>
        <time>2019-08-16T15:31:26Z</time>
      </trkpt>
      <trkpt lat="47.98835" lon="6.73694">
        <ele>504.593109</ele>
        <time>2019-08-16T15:31:27Z</time>
      </trkpt>
      <trkpt lat="47.98834" lon="6.73699">
        <ele>504.732056</ele>
        <time>2019-08-16T15:31:28Z</time>
      </trkpt>
      <trkpt lat="47.98833" lon="6.73703">
        <ele>504.849152</ele>
        <time>2019-08-16T15:31:29Z</time>
      </trkpt>
      <trkpt lat="47.98832" lon="6.73706">
        <ele>504.958893</ele>
        <time>2019-08-16T15:31:30Z</time>
      </trkpt>
      <trkpt lat="47.98831" lon="6.7371">
        <ele>505.076263</ele>
        <time>2019-08-16T15:31:31Z</time>
      </trkpt>
      <trkpt lat="47.98829" lon="6.73714">
        <ele>505.197052</ele>
        <time>2019-08-16T15:31:32Z</time>
      </trkpt>
      <trkpt lat="47.98828" lon="6.73718">
        <ele>505.310516</ele>
        <time>2019-08-16T15:31:33Z</time>
      </trkpt>
      <trkpt lat="47.98826" lon="6.73722">
        <ele>505.407227</ele>
        <time>2019-08-16T15:31:34Z</time>
      </trkpt>
      <trkpt lat="47.98825" lon="6.73726">
        <ele>505.488892</ele>
        <time>2019-08-16T15:31:35Z</time>
      </trkpt>
      <trkpt lat="47.98823" lon="6.7373">
        <ele>505.588287</ele>
        <time>2019-08-16T15:31:36Z</time>
      </trkpt>
      <trkpt lat="47.98822" lon="6.73734">
        <ele>505.642578</ele>
        <time>2019-08-16T15:31:37Z</time>
      </trkpt>
      <trkpt lat="47.9882" lon="6.73739">
        <ele>505.685211</ele>
        <time>2019-08-16T15:31:38Z</time>
      </trkpt>
      <trkpt lat="47.98818" lon="6.73743">
        <ele>505.732513</ele>
        <time>2019-08-16T15:31:39Z</time>
      </trkpt>
      <trkpt lat="47.98816" lon="6.73748">
        <ele>505.761993</ele>
        <time>2019-08-16T15:31:40Z</time>
      </trkpt>
      <trkpt lat="47.98815" lon="6.73752">
        <ele>505.798248</ele>
        <time>2019-08-16T15:31:41Z</time>
      </trkpt>
      <trkpt lat="47.98813" lon="6.73757">
        <ele>505.838989</ele>
        <time>2019-08-16T15:31:42Z</time>
      </trkpt>
      <trkpt lat="47.98813" lon="6.73761">
        <ele>505.887909</ele>
        <time>2019-08-16T15:31:43Z</time>
      </trkpt>
      <trkpt lat="47.98812" lon="6.73766">
        <ele>505.943146</ele>
        <time>2019-08-16T15:31:44Z</time>
      </trkpt>
      <trkpt lat="47.98812" lon="6.7377">
        <ele>506.010254</ele>
        <time>2019-08-16T15:31:45Z</time>
      </trkpt>
      <trkpt lat="47.98812" lon="6.73775">
        <ele>506.086334</ele>
        <time>2019-08-16T15:31:46Z</time>
      </trkpt>
      <trkpt lat="47.98812" lon="6.73779">
        <ele>506.17514</ele>
        <time>2019-08-16T15:31:47Z</time>
      </trkpt>
      <trkpt lat="47.98813" lon="6.73783">
        <ele>506.276611</ele>
        <time>2019-08-16T15:31:48Z</time>
      </trkpt>
      <trkpt lat="47.98813" lon="6.73787">
        <ele>506.39151</ele>
        <time>2019-08-16T15:31:49Z</time>
      </trkpt>
      <trkpt lat="47.98813" lon="6.73791">
        <ele>506.521393</ele>
        <time>2019-08-16T15:31:50Z</time>
      </trkpt>
      <trkpt lat="47.98814" lon="6.73795">
        <ele>506.661163</ele>
        <time>2019-08-16T15:31:51Z</time>
      </trkpt>
      <trkpt lat="47.98814" lon="6.73799">
        <ele>506.803925</ele>
        <time>2019-08-16T15:31:52Z</time>
      </trkpt>
      <trkpt lat="47.98814" lon="6.73802">
        <ele>506.947601</ele>
        <time>2019-08-16T15:31:53Z</time>
      </trkpt>
      <trkpt lat="47.98814" lon="6.73805">
        <ele>507.091827</ele>
        <time>2019-08-16T15:31:54Z</time>
      </trkpt>
      <trkpt lat="47.98815" lon="6.73808">
        <ele>507.243561</ele>
        <time>2019-08-16T15:31:55Z</time>
      </trkpt>
      <trkpt lat="47.98816" lon="6.73811">
        <ele>507.397583</ele>
        <time>2019-08-16T15:31:56Z</time>
      </trkpt>
      <trkpt lat="47.98816" lon="6.73814">
        <ele>507.54837</ele>
        <time>2019-08-16T15:31:57Z</time>
      </trkpt>
      <trkpt lat="47.98817" lon="6.73817">
        <ele>507.696259</ele>
        <time>2019-08-16T15:31:58Z</time>
      </trkpt>
      <trkpt lat="47.98817" lon="6.7382">
        <ele>507.839233</ele>
        <time>2019-08-16T15:31:59Z</time>
      </trkpt>
      <trkpt lat="47.98818" lon="6.73823">
        <ele>507.983368</ele>
        <time>2019-08-16T15:32:00Z</time>
      </trkpt>
      <trkpt lat="47.98818" lon="6.73826">
        <ele>508.119385</ele>
        <time>2019-08-16T15:32:01Z</time>
      </trkpt>
      <trkpt lat="47.98818" lon="6.73829">
        <ele>508.249481</ele>
        <time>2019-08-16T15:32:02Z</time>
      </trkpt>
      <trkpt lat="47.98818" lon="6.73832">
        <ele>508.371796</ele>
        <time>2019-08-16T15:32:03Z</time>
      </trkpt>
      <trkpt lat="47.98819" lon="6.73835">
        <ele>508.492401</ele>
        <time>2019-08-16T15:32:04Z</time>
      </trkpt>
      <trkpt lat="47.98819" lon="6.73837">
        <ele>508.617035</ele>
        <time>2019-08-16T15:32:05Z</time>
      </trkpt>
      <trkpt lat="47.98819" lon="6.7384">
        <ele>508.746704</ele>
        <time>2019-08-16T15:32:06Z</time>
      </trkpt>
      <trkpt lat="47.9882" lon="6.73843">
        <ele>508.880646</ele>
        <time>2019-08-16T15:32:07Z</time>
      </trkpt>
      <trkpt lat="47.98821" lon="6.73846">
        <ele>509.012177</ele>
        <time>2019-08-16T15:32:08Z</time>
      </trkpt>
      <trkpt lat="47.98821" lon="6.73849">
        <ele>509.140411</ele>
        <time>2019-08-16T15:32:09Z</time>
      </trkpt>
      <trkpt lat="47.98821" lon="6.73852">
        <ele>509.260284</ele>
        <time>2019-08-16T15:32:10Z</time>
      </trkpt>
      <trkpt lat="47.98822" lon="6.73855">
        <ele>509.377197</ele>
        <time>2019-08-16T15:32:11Z</time>
      </trkpt>
      <trkpt lat="47.98822" lon="6.73858">
        <ele>509.496429</ele>
        <time>2019-08-16T15:32:12Z</time>
      </trkpt>
      <trkpt lat="47.98823" lon="6.73861">
        <ele>509.624603</ele>
        <time>2019-08-16T15:32:13Z</time>
      </trkpt>
      <trkpt lat="47.98823" lon="6.73863">
        <ele>509.754791</ele>
        <time>2019-08-16T15:32:14Z</time>
      </trkpt>
      <trkpt lat="47.98823" lon="6.73865">
        <ele>509.818878</ele>
        <time>2019-08-16T15:32:15Z</time>
      </trkpt>
      <trkpt lat="47.98824" lon="6.73868">
        <ele>509.88205</ele>
        <time>2019-08-16T15:32:16Z</time>
      </trkpt>
      <trkpt lat="47.98824" lon="6.7387">
        <ele>510.011719</ele>
        <time>2019-08-16T15:32:17Z</time>
      </trkpt>
      <trkpt lat="47.98825" lon="6.73872">
        <ele>510.1604</ele>
        <time>2019-08-16T15:32:18Z</time>
      </trkpt>
      <trkpt lat="47.98826" lon="6.73873">
        <ele>510.336182</ele>
        <time>2019-08-16T15:32:19Z</time>
      </trkpt>
      <trkpt lat="47.98828" lon="6.73874">
        <ele>510.533936</ele>
        <time>2019-08-16T15:32:20Z</time>
      </trkpt>
      <trkpt lat="47.98829" lon="6.73874">
        <ele>510.746216</ele>
        <time>2019-08-16T15:32:21Z</time>
      </trkpt>
      <trkpt lat="47.98831" lon="6.73873">
        <ele>511.082611</ele>
        <time>2019-08-16T15:32:22Z</time>
      </trkpt>
      <trkpt lat="47.98833" lon="6.73872">
        <ele>511.308685</ele>
        <time>2019-08-16T15:32:23Z</time>
      </trkpt>
      <trkpt lat="47.98835" lon="6.7387">
        <ele>511.516205</ele>
        <time>2019-08-16T15:32:24Z</time>
      </trkpt>
      <trkpt lat="47.98836" lon="6.73868">
        <ele>511.691925</ele>
        <time>2019-08-16T15:32:25Z</time>
      </trkpt>
      <trkpt lat="47.98837" lon="6.73866">
        <ele>511.889404</ele>
        <time>2019-08-16T15:32:26Z</time>
      </trkpt>
      <trkpt lat="47.98838" lon="6.73865">
        <ele>511.979584</ele>
        <time>2019-08-16T15:32:27Z</time>
      </trkpt>
      <trkpt lat="47.98839" lon="6.73864">
        <ele>512.031677</ele>
        <time>2019-08-16T15:32:28Z</time>
      </trkpt>
      <trkpt lat="47.9884" lon="6.73863">
        <ele>512.044861</ele>
        <time>2019-08-16T15:32:29Z</time>
      </trkpt>
      <trkpt lat="47.9885" lon="6.73864">
        <ele>511.589111</ele>
        <time>2019-08-16T15:33:12Z</time>
      </trkpt>
      <trkpt lat="47.98854" lon="6.73864">
        <ele>511.556763</ele>
        <time>2019-08-16T15:33:14Z</time>
      </trkpt>
      <trkpt lat="47.98858" lon="6.73864">
        <ele>511.536774</ele>
        <time>2019-08-16T15:33:15Z</time>
      </trkpt>
      <trkpt lat="47.98862" lon="6.73866">
        <ele>511.455566</ele>
        <time>2019-08-16T15:33:16Z</time>
      </trkpt>
      <trkpt lat="47.98866" lon="6.73867">
        <ele>511.38089</ele>
        <time>2019-08-16T15:33:17Z</time>
      </trkpt>
      <trkpt lat="47.98871" lon="6.73868">
        <ele>511.28067</ele>
        <time>2019-08-16T15:33:18Z</time>
      </trkpt>
      <trkpt lat="47.98875" lon="6.7387">
        <ele>511.081573</ele>
        <time>2019-08-16T15:33:19Z</time>
      </trkpt>
      <trkpt lat="47.98881" lon="6.73872">
        <ele>510.921478</ele>
        <time>2019-08-16T15:33:20Z</time>
      </trkpt>
      <trkpt lat="47.98887" lon="6.73874">
        <ele>510.74057</ele>
        <time>2019-08-16T15:33:21Z</time>
      </trkpt>
      <trkpt lat="47.98892" lon="6.73875">
        <ele>510.425201</ele>
        <time>2019-08-16T15:33:22Z</time>
      </trkpt>
      <trkpt lat="47.98898" lon="6.73876">
        <ele>510.190765</ele>
        <time>2019-08-16T15:33:23Z</time>
      </trkpt>
      <trkpt lat="47.98903" lon="6.73876">
        <ele>509.951019</ele>
        <time>2019-08-16T15:33:24Z</time>
      </trkpt>
      <trkpt lat="47.98909" lon="6.73876">
        <ele>509.584198</ele>
        <time>2019-08-16T15:33:25Z</time>
      </trkpt>
      <trkpt lat="47.98914" lon="6.73875">
        <ele>509.324615</ele>
        <time>2019-08-16T15:33:26Z</time>
      </trkpt>
      <trkpt lat="47.98917" lon="6.73874">
        <ele>509.048248</ele>
        <time>2019-08-16T15:33:27Z</time>
      </trkpt>
      <trkpt lat="47.9892" lon="6.73873">
        <ele>508.628052</ele>
        <time>2019-08-16T15:33:28Z</time>
      </trkpt>
      <trkpt lat="47.98923" lon="6.73874">
        <ele>508.367676</ele>
        <time>2019-08-16T15:33:29Z</time>
      </trkpt>
      <trkpt lat="47.98925" lon="6.73873">
        <ele>508.136688</ele>
        <time>2019-08-16T15:33:30Z</time>
      </trkpt>
      <trkpt lat="47.98929" lon="6.73873">
        <ele>507.829071</ele>
        <time>2019-08-16T15:33:31Z</time>
      </trkpt>
      <trkpt lat="47.98932" lon="6.73873">
        <ele>507.63562</ele>
        <time>2019-08-16T15:33:32Z</time>
      </trkpt>
      <trkpt lat="47.98935" lon="6.73873">
        <ele>507.445557</ele>
        <time>2019-08-16T15:33:33Z</time>
      </trkpt>
      <trkpt lat="47.98938" lon="6.73873">
        <ele>507.184601</ele>
        <time>2019-08-16T15:33:34Z</time>
      </trkpt>
      <trkpt lat="47.98941" lon="6.73874">
        <ele>507.017456</ele>
        <time>2019-08-16T15:33:35Z</time>
      </trkpt>
      <trkpt lat="47.98946" lon="6.73874">
        <ele>506.840088</ele>
        <time>2019-08-16T15:33:36Z</time>
      </trkpt>
      <trkpt lat="47.98951" lon="6.73874">
        <ele>506.528931</ele>
        <time>2019-08-16T15:33:37Z</time>
      </trkpt>
      <trkpt lat="47.98956" lon="6.73873">
        <ele>506.271393</ele>
        <time>2019-08-16T15:33:38Z</time>
      </trkpt>
      <trkpt lat="47.98961" lon="6.7387">
        <ele>505.965912</ele>
        <time>2019-08-16T15:33:39Z</time>
      </trkpt>
      <trkpt lat="47.98966" lon="6.73867">
        <ele>505.40683</ele>
        <time>2019-08-16T15:33:40Z</time>
      </trkpt>
      <trkpt lat="47.9897" lon="6.73862">
        <ele>504.961273</ele>
        <time>2019-08-16T15:33:41Z</time>
      </trkpt>
      <trkpt lat="47.98974" lon="6.73856">
        <ele>504.468018</ele>
        <time>2019-08-16T15:33:42Z</time>
      </trkpt>
      <trkpt lat="47.98977" lon="6.73848">
        <ele>503.932404</ele>
        <time>2019-08-16T15:33:43Z</time>
      </trkpt>
      <trkpt lat="47.98978" lon="6.73841">
        <ele>503.360718</ele>
        <time>2019-08-16T15:33:44Z</time>
      </trkpt>
      <trkpt lat="47.98981" lon="6.73833">
        <ele>502.750153</ele>
        <time>2019-08-16T15:33:45Z</time>
      </trkpt>
      <trkpt lat="47.98983" lon="6.73825">
        <ele>502.109283</ele>
        <time>2019-08-16T15:33:46Z</time>
      </trkpt>
      <trkpt lat="47.98986" lon="6.73818">
        <ele>501.449219</ele>
        <time>2019-08-16T15:33:47Z</time>
      </trkpt>
      <trkpt lat="47.98989" lon="6.73811">
        <ele>500.422821</ele>
        <time>2019-08-16T15:33:48Z</time>
      </trkpt>
      <trkpt lat="47.98992" lon="6.73806">
        <ele>499.708374</ele>
        <time>2019-08-16T15:33:49Z</time>
      </trkpt>
      <trkpt lat="47.98996" lon="6.73802">
        <ele>498.972198</ele>
        <time>2019-08-16T15:33:50Z</time>
      </trkpt>
      <trkpt lat="47.98999" lon="6.73797">
        <ele>498.235321</ele>
        <time>2019-08-16T15:33:51Z</time>
      </trkpt>
      <trkpt lat="47.99002" lon="6.73791">
        <ele>497.159027</ele>
        <time>2019-08-16T15:33:52Z</time>
      </trkpt>
      <trkpt lat="47.99006" lon="6.73784">
        <ele>496.467651</ele>
        <time>2019-08-16T15:33:53Z</time>
      </trkpt>
      <trkpt lat="47.9901" lon="6.73777">
        <ele>495.804962</ele>
        <time>2019-08-16T15:33:54Z</time>
      </trkpt>
      <trkpt lat="47.99014" lon="6.7377">
        <ele>495.191132</ele>
        <time>2019-08-16T15:33:55Z</time>
      </trkpt>
      <trkpt lat="47.99019" lon="6.73762">
        <ele>494.368164</ele>
        <time>2019-08-16T15:33:56Z</time>
      </trkpt>
      <trkpt lat="47.99024" lon="6.73755">
        <ele>493.863983</ele>
        <time>2019-08-16T15:33:57Z</time>
      </trkpt>
      <trkpt lat="47.9903" lon="6.73749">
        <ele>493.373993</ele>
        <time>2019-08-16T15:33:58Z</time>
      </trkpt>
      <trkpt lat="47.99036" lon="6.73744">
        <ele>492.645416</ele>
        <time>2019-08-16T15:33:59Z</time>
      </trkpt>
      <trkpt lat="47.99041" lon="6.73739">
        <ele>492.16629</ele>
        <time>2019-08-16T15:34:00Z</time>
      </trkpt>
      <trkpt lat="47.99047" lon="6.73733">
        <ele>491.704926</ele>
        <time>2019-08-16T15:34:01Z</time>
      </trkpt>
      <trkpt lat="47.99051" lon="6.73727">
        <ele>491.274811</ele>
        <time>2019-08-16T15:34:02Z</time>
      </trkpt>
      <trkpt lat="47.99055" lon="6.7372">
        <ele>490.716919</ele>
        <time>2019-08-16T15:34:03Z</time>
      </trkpt>
      <trkpt lat="47.99057" lon="6.73713">
        <ele>490.419098</ele>
        <time>2019-08-16T15:34:04Z</time>
      </trkpt>
      <trkpt lat="47.9906" lon="6.73706">
        <ele>490.182373</ele>
        <time>2019-08-16T15:34:05Z</time>
      </trkpt>
      <trkpt lat="47.99061" lon="6.737">
        <ele>490.001617</ele>
        <time>2019-08-16T15:34:06Z</time>
      </trkpt>
      <trkpt lat="47.99063" lon="6.73694">
        <ele>489.877197</ele>
        <time>2019-08-16T15:34:07Z</time>
      </trkpt>
      <trkpt lat="47.99064" lon="6.73689">
        <ele>489.810181</ele>
        <time>2019-08-16T15:34:08Z</time>
      </trkpt>
      <trkpt lat="47.99066" lon="6.73685">
        <ele>489.799713</ele>
        <time>2019-08-16T15:34:09Z</time>
      </trkpt>
      <trkpt lat="47.99067" lon="6.73682">
        <ele>489.802094</ele>
        <time>2019-08-16T15:34:10Z</time>
      </trkpt>
      <trkpt lat="47.99068" lon="6.73679">
        <ele>489.873138</ele>
        <time>2019-08-16T15:34:11Z</time>
      </trkpt>
      <trkpt lat="47.99069" lon="6.73674">
        <ele>489.957672</ele>
        <time>2019-08-16T15:34:12Z</time>
      </trkpt>
      <trkpt lat="47.9907" lon="6.7367">
        <ele>490.061432</ele>
        <time>2019-08-16T15:34:13Z</time>
      </trkpt>
      <trkpt lat="47.99072" lon="6.73666">
        <ele>490.169098</ele>
        <time>2019-08-16T15:34:14Z</time>
      </trkpt>
      <trkpt lat="47.99074" lon="6.73662">
        <ele>490.315582</ele>
        <time>2019-08-16T15:34:15Z</time>
      </trkpt>
      <trkpt lat="47.99078" lon="6.73654">
        <ele>490.360229</ele>
        <time>2019-08-16T15:34:17Z</time>
      </trkpt>
      <trkpt lat="47.9908" lon="6.7365">
        <ele>490.454132</ele>
        <time>2019-08-16T15:34:18Z</time>
      </trkpt>
      <trkpt lat="47.99082" lon="6.73646">
        <ele>490.561676</ele>
        <time>2019-08-16T15:34:19Z</time>
      </trkpt>
      <trkpt lat="47.99084" lon="6.73641">
        <ele>490.687225</ele>
        <time>2019-08-16T15:34:20Z</time>
      </trkpt>
      <trkpt lat="47.99086" lon="6.73637">
        <ele>490.902191</ele>
        <time>2019-08-16T15:34:21Z</time>
      </trkpt>
      <trkpt lat="47.99088" lon="6.73634">
        <ele>491.052643</ele>
        <time>2019-08-16T15:34:22Z</time>
      </trkpt>
      <trkpt lat="47.99091" lon="6.73631">
        <ele>491.207428</ele>
        <time>2019-08-16T15:34:23Z</time>
      </trkpt>
      <trkpt lat="47.99093" lon="6.73628">
        <ele>491.436798</ele>
        <time>2019-08-16T15:34:24Z</time>
      </trkpt>
      <trkpt lat="47.99096" lon="6.73624">
        <ele>491.578888</ele>
        <time>2019-08-16T15:34:25Z</time>
      </trkpt>
      <trkpt lat="47.99099" lon="6.73621">
        <ele>491.769897</ele>
        <time>2019-08-16T15:34:26Z</time>
      </trkpt>
      <trkpt lat="47.99102" lon="6.73618">
        <ele>491.890381</ele>
        <time>2019-08-16T15:34:27Z</time>
      </trkpt>
      <trkpt lat="47.99105" lon="6.73615">
        <ele>492.009277</ele>
        <time>2019-08-16T15:34:28Z</time>
      </trkpt>
      <trkpt lat="47.99108" lon="6.73612">
        <ele>492.185944</ele>
        <time>2019-08-16T15:34:29Z</time>
      </trkpt>
      <trkpt lat="47.99111" lon="6.73609">
        <ele>492.299683</ele>
        <time>2019-08-16T15:34:30Z</time>
      </trkpt>
      <trkpt lat="47.99114" lon="6.73606">
        <ele>492.403046</ele>
        <time>2019-08-16T15:34:31Z</time>
      </trkpt>
      <trkpt lat="47.99117" lon="6.73603">
        <ele>492.495605</ele>
        <time>2019-08-16T15:34:32Z</time>
      </trkpt>
      <trkpt lat="47.99121" lon="6.73601">
        <ele>492.619171</ele>
        <time>2019-08-16T15:34:33Z</time>
      </trkpt>
      <trkpt lat="47.99124" lon="6.73599">
        <ele>492.69873</ele>
        <time>2019-08-16T15:34:34Z</time>
      </trkpt>
      <trkpt lat="47.99127" lon="6.73596">
        <ele>492.773529</ele>
        <time>2019-08-16T15:34:35Z</time>
      </trkpt>
      <trkpt lat="47.99131" lon="6.73594">
        <ele>492.83963</ele>
        <time>2019-08-16T15:34:36Z</time>
      </trkpt>
      <trkpt lat="47.99134" lon="6.73592">
        <ele>492.917023</ele>
        <time>2019-08-16T15:34:37Z</time>
      </trkpt>
      <trkpt lat="47.99137" lon="6.73589">
        <ele>492.96347</ele>
        <time>2019-08-16T15:34:38Z</time>
      </trkpt>
      <trkpt lat="47.99141" lon="6.73587">
        <ele>493.010406</ele>
        <time>2019-08-16T15:34:39Z</time>
      </trkpt>
      <trkpt lat="47.99144" lon="6.73584">
        <ele>493.083282</ele>
        <time>2019-08-16T15:34:40Z</time>
      </trkpt>
      <trkpt lat="47.99148" lon="6.73582">
        <ele>493.132477</ele>
        <time>2019-08-16T15:34:41Z</time>
      </trkpt>
      <trkpt lat="47.99151" lon="6.7358">
        <ele>493.184326</ele>
        <time>2019-08-16T15:34:42Z</time>
      </trkpt>
      <trkpt lat="47.99155" lon="6.73578">
        <ele>493.270721</ele>
        <time>2019-08-16T15:34:43Z</time>
      </trkpt>
      <trkpt lat="47.99158" lon="6.73576">
        <ele>493.326141</ele>
        <time>2019-08-16T15:34:44Z</time>
      </trkpt>
      <trkpt lat="47.99162" lon="6.73573">
        <ele>493.377655</ele>
        <time>2019-08-16T15:34:45Z</time>
      </trkpt>
      <trkpt lat="47.99165" lon="6.7357">
        <ele>493.455231</ele>
        <time>2019-08-16T15:34:46Z</time>
      </trkpt>
      <trkpt lat="47.99167" lon="6.73567">
        <ele>493.508881</ele>
        <time>2019-08-16T15:34:47Z</time>
      </trkpt>
      <trkpt lat="47.9917" lon="6.73563">
        <ele>493.558258</ele>
        <time>2019-08-16T15:34:48Z</time>
      </trkpt>
      <trkpt lat="47.99173" lon="6.73559">
        <ele>493.604767</ele>
        <time>2019-08-16T15:34:49Z</time>
      </trkpt>
      <trkpt lat="47.99175" lon="6.73555">
        <ele>493.68396</ele>
        <time>2019-08-16T15:34:50Z</time>
      </trkpt>
      <trkpt lat="47.99178" lon="6.73551">
        <ele>493.74585</ele>
        <time>2019-08-16T15:34:51Z</time>
      </trkpt>
      <trkpt lat="47.9918" lon="6.73547">
        <ele>493.812866</ele>
        <time>2019-08-16T15:34:52Z</time>
      </trkpt>
      <trkpt lat="47.99181" lon="6.73543">
        <ele>493.917145</ele>
        <time>2019-08-16T15:34:53Z</time>
      </trkpt>
      <trkpt lat="47.99184" lon="6.73539">
        <ele>493.989166</ele>
        <time>2019-08-16T15:34:54Z</time>
      </trkpt>
      <trkpt lat="47.99186" lon="6.73535">
        <ele>494.068024</ele>
        <time>2019-08-16T15:34:55Z</time>
      </trkpt>
      <trkpt lat="47.99188" lon="6.73531">
        <ele>494.190094</ele>
        <time>2019-08-16T15:34:56Z</time>
      </trkpt>
      <trkpt lat="47.99191" lon="6.73527">
        <ele>494.270508</ele>
        <time>2019-08-16T15:34:57Z</time>
      </trkpt>
      <trkpt lat="47.99193" lon="6.73524">
        <ele>494.352783</ele>
        <time>2019-08-16T15:34:58Z</time>
      </trkpt>
      <trkpt lat="47.99195" lon="6.7352">
        <ele>494.502045</ele>
        <time>2019-08-16T15:34:59Z</time>
      </trkpt>
      <trkpt lat="47.99198" lon="6.73517">
        <ele>494.620819</ele>
        <time>2019-08-16T15:35:00Z</time>
      </trkpt>
      <trkpt lat="47.992" lon="6.73515">
        <ele>494.75415</ele>
        <time>2019-08-16T15:35:01Z</time>
      </trkpt>
      <trkpt lat="47.99203" lon="6.73514">
        <ele>494.974976</ele>
        <time>2019-08-16T15:35:02Z</time>
      </trkpt>
      <trkpt lat="47.99205" lon="6.73514">
        <ele>495.133331</ele>
        <time>2019-08-16T15:35:03Z</time>
      </trkpt>
      <trkpt lat="47.99208" lon="6.73515">
        <ele>495.303436</ele>
        <time>2019-08-16T15:35:04Z</time>
      </trkpt>
      <trkpt lat="47.99211" lon="6.73516">
        <ele>495.574097</ele>
        <time>2019-08-16T15:35:05Z</time>
      </trkpt>
      <trkpt lat="47.99215" lon="6.73516">
        <ele>495.766449</ele>
        <time>2019-08-16T15:35:06Z</time>
      </trkpt>
      <trkpt lat="47.99218" lon="6.73516">
        <ele>495.973511</ele>
        <time>2019-08-16T15:35:07Z</time>
      </trkpt>
      <trkpt lat="47.99221" lon="6.73516">
        <ele>496.321869</ele>
        <time>2019-08-16T15:35:08Z</time>
      </trkpt>
      <trkpt lat="47.99225" lon="6.73515">
        <ele>496.569305</ele>
        <time>2019-08-16T15:35:09Z</time>
      </trkpt>
      <trkpt lat="47.99229" lon="6.73515">
        <ele>496.812653</ele>
        <time>2019-08-16T15:35:10Z</time>
      </trkpt>
      <trkpt lat="47.99232" lon="6.73514">
        <ele>497.144287</ele>
        <time>2019-08-16T15:35:11Z</time>
      </trkpt>
      <trkpt lat="47.99236" lon="6.73513">
        <ele>497.334991</ele>
        <time>2019-08-16T15:35:12Z</time>
      </trkpt>
      <trkpt lat="47.99239" lon="6.73512">
        <ele>497.494751</ele>
        <time>2019-08-16T15:35:13Z</time>
      </trkpt>
      <trkpt lat="47.99243" lon="6.73511">
        <ele>497.666168</ele>
        <time>2019-08-16T15:35:14Z</time>
      </trkpt>
      <trkpt lat="47.99247" lon="6.73511">
        <ele>497.733276</ele>
        <time>2019-08-16T15:35:15Z</time>
      </trkpt>
      <trkpt lat="47.99251" lon="6.7351">
        <ele>497.759491</ele>
        <time>2019-08-16T15:35:16Z</time>
      </trkpt>
      <trkpt lat="47.99255" lon="6.7351">
        <ele>497.761475</ele>
        <time>2019-08-16T15:35:17Z</time>
      </trkpt>
      <trkpt lat="47.99259" lon="6.73509">
        <ele>497.761475</ele>
        <time>2019-08-16T15:35:18Z</time>
      </trkpt>
      <trkpt lat="47.99263" lon="6.73509">
        <ele>497.757843</ele>
        <time>2019-08-16T15:35:19Z</time>
      </trkpt>
      <trkpt lat="47.99267" lon="6.73508">
        <ele>497.72702</ele>
        <time>2019-08-16T15:35:20Z</time>
      </trkpt>
      <trkpt lat="47.99271" lon="6.73508">
        <ele>497.707184</ele>
        <time>2019-08-16T15:35:21Z</time>
      </trkpt>
      <trkpt lat="47.99276" lon="6.73507">
        <ele>497.693115</ele>
        <time>2019-08-16T15:35:22Z</time>
      </trkpt>
      <trkpt lat="47.9928" lon="6.73507">
        <ele>497.686615</ele>
        <time>2019-08-16T15:35:23Z</time>
      </trkpt>
      <trkpt lat="47.99284" lon="6.73506">
        <ele>497.684937</ele>
        <time>2019-08-16T15:35:24Z</time>
      </trkpt>
      <trkpt lat="47.99289" lon="6.73506">
        <ele>497.683624</ele>
        <time>2019-08-16T15:35:25Z</time>
      </trkpt>
      <trkpt lat="47.99293" lon="6.73505">
        <ele>497.668579</ele>
        <time>2019-08-16T15:35:26Z</time>
      </trkpt>
      <trkpt lat="47.99298" lon="6.73505">
        <ele>497.647827</ele>
        <time>2019-08-16T15:35:27Z</time>
      </trkpt>
      <trkpt lat="47.99302" lon="6.73506">
        <ele>497.626343</ele>
        <time>2019-08-16T15:35:28Z</time>
      </trkpt>
      <trkpt lat="47.99307" lon="6.73506">
        <ele>497.59201</ele>
        <time>2019-08-16T15:35:29Z</time>
      </trkpt>
      <trkpt lat="47.99311" lon="6.73506">
        <ele>497.564362</ele>
        <time>2019-08-16T15:35:30Z</time>
      </trkpt>
      <trkpt lat="47.99315" lon="6.73507">
        <ele>497.542236</ele>
        <time>2019-08-16T15:35:31Z</time>
      </trkpt>
      <trkpt lat="47.9932" lon="6.73506">
        <ele>497.538361</ele>
        <time>2019-08-16T15:35:32Z</time>
      </trkpt>
      <trkpt lat="47.99324" lon="6.73506">
        <ele>497.548126</ele>
        <time>2019-08-16T15:35:33Z</time>
      </trkpt>
      <trkpt lat="47.99329" lon="6.73504">
        <ele>497.572357</ele>
        <time>2019-08-16T15:35:34Z</time>
      </trkpt>
      <trkpt lat="47.99333" lon="6.73503">
        <ele>497.619049</ele>
        <time>2019-08-16T15:35:35Z</time>
      </trkpt>
      <trkpt lat="47.99338" lon="6.73501">
        <ele>497.649261</ele>
        <time>2019-08-16T15:35:36Z</time>
      </trkpt>
      <trkpt lat="47.99342" lon="6.73499">
        <ele>497.680267</ele>
        <time>2019-08-16T15:35:37Z</time>
      </trkpt>
      <trkpt lat="47.99347" lon="6.73496">
        <ele>497.724701</ele>
        <time>2019-08-16T15:35:38Z</time>
      </trkpt>
      <trkpt lat="47.99351" lon="6.73494">
        <ele>497.756012</ele>
        <time>2019-08-16T15:35:39Z</time>
      </trkpt>
      <trkpt lat="47.99355" lon="6.73491">
        <ele>497.786743</ele>
        <time>2019-08-16T15:35:40Z</time>
      </trkpt>
      <trkpt lat="47.99359" lon="6.73488">
        <ele>497.822632</ele>
        <time>2019-08-16T15:35:41Z</time>
      </trkpt>
      <trkpt lat="47.99363" lon="6.73484">
        <ele>497.840576</ele>
        <time>2019-08-16T15:35:42Z</time>
      </trkpt>
      <trkpt lat="47.99368" lon="6.73481">
        <ele>497.859863</ele>
        <time>2019-08-16T15:35:43Z</time>
      </trkpt>
      <trkpt lat="47.99372" lon="6.73478">
        <ele>497.900116</ele>
        <time>2019-08-16T15:35:44Z</time>
      </trkpt>
      <trkpt lat="47.99376" lon="6.73475">
        <ele>497.936676</ele>
        <time>2019-08-16T15:35:45Z</time>
      </trkpt>
      <trkpt lat="47.9938" lon="6.73472">
        <ele>497.985992</ele>
        <time>2019-08-16T15:35:46Z</time>
      </trkpt>
      <trkpt lat="47.99384" lon="6.73469">
        <ele>498.075439</ele>
        <time>2019-08-16T15:35:47Z</time>
      </trkpt>
      <trkpt lat="47.99389" lon="6.73466">
        <ele>498.144073</ele>
        <time>2019-08-16T15:35:48Z</time>
      </trkpt>
      <trkpt lat="47.99393" lon="6.73464">
        <ele>498.221039</ele>
        <time>2019-08-16T15:35:49Z</time>
      </trkpt>
      <trkpt lat="47.99397" lon="6.73462">
        <ele>498.357574</ele>
        <time>2019-08-16T15:35:50Z</time>
      </trkpt>
      <trkpt lat="47.99401" lon="6.73459">
        <ele>498.459503</ele>
        <time>2019-08-16T15:35:51Z</time>
      </trkpt>
      <trkpt lat="47.99405" lon="6.73457">
        <ele>498.566437</ele>
        <time>2019-08-16T15:35:52Z</time>
      </trkpt>
      <trkpt lat="47.99408" lon="6.73454">
        <ele>498.718414</ele>
        <time>2019-08-16T15:35:53Z</time>
      </trkpt>
      <trkpt lat="47.99412" lon="6.73451">
        <ele>498.810181</ele>
        <time>2019-08-16T15:35:54Z</time>
      </trkpt>
      <trkpt lat="47.99416" lon="6.73448">
        <ele>498.898682</ele>
        <time>2019-08-16T15:35:55Z</time>
      </trkpt>
      <trkpt lat="47.9942" lon="6.73445">
        <ele>499.035278</ele>
        <time>2019-08-16T15:35:56Z</time>
      </trkpt>
      <trkpt lat="47.99424" lon="6.73442">
        <ele>499.130341</ele>
        <time>2019-08-16T15:35:57Z</time>
      </trkpt>
      <trkpt lat="47.99427" lon="6.73439">
        <ele>499.225861</ele>
        <time>2019-08-16T15:35:58Z</time>
      </trkpt>
      <trkpt lat="47.99431" lon="6.73436">
        <ele>499.384888</ele>
        <time>2019-08-16T15:35:59Z</time>
      </trkpt>
      <trkpt lat="47.99434" lon="6.73433">
        <ele>499.513184</ele>
        <time>2019-08-16T15:36:00Z</time>
      </trkpt>
      <trkpt lat="47.99438" lon="6.7343">
        <ele>499.670624</ele>
        <time>2019-08-16T15:36:01Z</time>
      </trkpt>
      <trkpt lat="47.99442" lon="6.73427">
        <ele>499.955902</ele>
        <time>2019-08-16T15:36:02Z</time>
      </trkpt>
      <trkpt lat="47.99445" lon="6.73424">
        <ele>500.161499</ele>
        <time>2019-08-16T15:36:03Z</time>
      </trkpt>
      <trkpt lat="47.99448" lon="6.73421">
        <ele>500.369232</ele>
        <time>2019-08-16T15:36:04Z</time>
      </trkpt>
      <trkpt lat="47.99452" lon="6.73418">
        <ele>500.685028</ele>
        <time>2019-08-16T15:36:05Z</time>
      </trkpt>
      <trkpt lat="47.99455" lon="6.73414">
        <ele>500.89859</ele>
        <time>2019-08-16T15:36:06Z</time>
      </trkpt>
      <trkpt lat="47.99459" lon="6.73411">
        <ele>501.112091</ele>
        <time>2019-08-16T15:36:07Z</time>
      </trkpt>
      <trkpt lat="47.99463" lon="6.73408">
        <ele>501.431152</ele>
        <time>2019-08-16T15:36:08Z</time>
      </trkpt>
      <trkpt lat="47.99466" lon="6.73405">
        <ele>501.648529</ele>
        <time>2019-08-16T15:36:09Z</time>
      </trkpt>
      <trkpt lat="47.9947" lon="6.73401">
        <ele>501.872803</ele>
        <time>2019-08-16T15:36:10Z</time>
      </trkpt>
      <trkpt lat="47.99474" lon="6.73398">
        <ele>502.216888</ele>
        <time>2019-08-16T15:36:11Z</time>
      </trkpt>
      <trkpt lat="47.99477" lon="6.73395">
        <ele>502.447754</ele>
        <time>2019-08-16T15:36:12Z</time>
      </trkpt>
      <trkpt lat="47.99481" lon="6.73392">
        <ele>502.680542</ele>
        <time>2019-08-16T15:36:13Z</time>
      </trkpt>
      <trkpt lat="47.99485" lon="6.73389">
        <ele>502.915497</ele>
        <time>2019-08-16T15:36:14Z</time>
      </trkpt>
      <trkpt lat="47.9949" lon="6.73388">
        <ele>503.260345</ele>
        <time>2019-08-16T15:36:15Z</time>
      </trkpt>
      <trkpt lat="47.99494" lon="6.73387">
        <ele>503.482086</ele>
        <time>2019-08-16T15:36:16Z</time>
      </trkpt>
      <trkpt lat="47.99498" lon="6.73387">
        <ele>503.701508</ele>
        <time>2019-08-16T15:36:17Z</time>
      </trkpt>
      <trkpt lat="47.99501" lon="6.73388">
        <ele>503.809967</ele>
        <time>2019-08-16T15:36:18Z</time>
      </trkpt>
      <trkpt lat="47.99505" lon="6.73389">
        <ele>503.918976</ele>
        <time>2019-08-16T15:36:19Z</time>
      </trkpt>
      <trkpt lat="47.99508" lon="6.73388">
        <ele>504.137665</ele>
        <time>2019-08-16T15:36:20Z</time>
      </trkpt>
      <trkpt lat="47.99511" lon="6.73388">
        <ele>504.46933</ele>
        <time>2019-08-16T15:36:21Z</time>
      </trkpt>
      <trkpt lat="47.99514" lon="6.73387">
        <ele>504.695801</ele>
        <time>2019-08-16T15:36:22Z</time>
      </trkpt>
      <trkpt lat="47.99516" lon="6.73384">
        <ele>504.923248</ele>
        <time>2019-08-16T15:36:23Z</time>
      </trkpt>
      <trkpt lat="47.99518" lon="6.73379">
        <ele>505.241669</ele>
        <time>2019-08-16T15:36:24Z</time>
      </trkpt>
      <trkpt lat="47.99521" lon="6.73373">
        <ele>505.42334</ele>
        <time>2019-08-16T15:36:25Z</time>
      </trkpt>
      <trkpt lat="47.99523" lon="6.73368">
        <ele>505.574799</ele>
        <time>2019-08-16T15:36:26Z</time>
      </trkpt>
      <trkpt lat="47.99527" lon="6.73363">
        <ele>505.696045</ele>
        <time>2019-08-16T15:36:27Z</time>
      </trkpt>
      <trkpt lat="47.9953" lon="6.73358">
        <ele>505.77597</ele>
        <time>2019-08-16T15:36:28Z</time>
      </trkpt>
      <trkpt lat="47.99535" lon="6.73353">
        <ele>505.791718</ele>
        <time>2019-08-16T15:36:29Z</time>
      </trkpt>
      <trkpt lat="47.9954" lon="6.73348">
        <ele>505.790253</ele>
        <time>2019-08-16T15:36:30Z</time>
      </trkpt>
      <trkpt lat="47.99545" lon="6.73344">
        <ele>505.73349</ele>
        <time>2019-08-16T15:36:31Z</time>
      </trkpt>
      <trkpt lat="47.99551" lon="6.73339">
        <ele>505.537994</ele>
        <time>2019-08-16T15:36:32Z</time>
      </trkpt>
      <trkpt lat="47.99557" lon="6.73333">
        <ele>505.352631</ele>
        <time>2019-08-16T15:36:33Z</time>
      </trkpt>
      <trkpt lat="47.99564" lon="6.73327">
        <ele>505.120697</ele>
        <time>2019-08-16T15:36:34Z</time>
      </trkpt>
      <trkpt lat="47.99571" lon="6.73321">
        <ele>504.690094</ele>
        <time>2019-08-16T15:36:35Z</time>
      </trkpt>
      <trkpt lat="47.99579" lon="6.73315">
        <ele>504.352417</ele>
        <time>2019-08-16T15:36:36Z</time>
      </trkpt>
      <trkpt lat="47.99586" lon="6.73307">
        <ele>503.966217</ele>
        <time>2019-08-16T15:36:37Z</time>
      </trkpt>
      <trkpt lat="47.99595" lon="6.73298">
        <ele>503.272064</ele>
        <time>2019-08-16T15:36:38Z</time>
      </trkpt>
      <trkpt lat="47.99603" lon="6.73289">
        <ele>502.716644</ele>
        <time>2019-08-16T15:36:39Z</time>
      </trkpt>
      <trkpt lat="47.99612" lon="6.7328">
        <ele>502.081146</ele>
        <time>2019-08-16T15:36:40Z</time>
      </trkpt>
      <trkpt lat="47.99622" lon="6.73272">
        <ele>500.971771</ele>
        <time>2019-08-16T15:36:41Z</time>
      </trkpt>
      <trkpt lat="47.99632" lon="6.73266">
        <ele>500.135468</ele>
        <time>2019-08-16T15:36:42Z</time>
      </trkpt>
      <trkpt lat="47.99642" lon="6.73264">
        <ele>499.235565</ele>
        <time>2019-08-16T15:36:43Z</time>
      </trkpt>
      <trkpt lat="47.99653" lon="6.73266">
        <ele>497.817139</ele>
        <time>2019-08-16T15:36:44Z</time>
      </trkpt>
      <trkpt lat="47.99662" lon="6.73274">
        <ele>496.864471</ele>
        <time>2019-08-16T15:36:45Z</time>
      </trkpt>
      <trkpt lat="47.99669" lon="6.73286">
        <ele>495.461884</ele>
        <time>2019-08-16T15:36:46Z</time>
      </trkpt>
      <trkpt lat="47.99675" lon="6.733">
        <ele>494.542114</ele>
        <time>2019-08-16T15:36:47Z</time>
      </trkpt>
      <trkpt lat="47.99679" lon="6.73316">
        <ele>493.640411</ele>
        <time>2019-08-16T15:36:48Z</time>
      </trkpt>
      <trkpt lat="47.99683" lon="6.73332">
        <ele>492.32486</ele>
        <time>2019-08-16T15:36:49Z</time>
      </trkpt>
      <trkpt lat="47.99687" lon="6.73348">
        <ele>491.468994</ele>
        <time>2019-08-16T15:36:50Z</time>
      </trkpt>
      <trkpt lat="47.99691" lon="6.73364">
        <ele>490.625458</ele>
        <time>2019-08-16T15:36:51Z</time>
      </trkpt>
      <trkpt lat="47.99696" lon="6.7338">
        <ele>489.804688</ele>
        <time>2019-08-16T15:36:52Z</time>
      </trkpt>
      <trkpt lat="47.997" lon="6.73396">
        <ele>489.022949</ele>
        <time>2019-08-16T15:36:53Z</time>
      </trkpt>
      <trkpt lat="47.99704" lon="6.73412">
        <ele>488.291046</ele>
        <time>2019-08-16T15:36:54Z</time>
      </trkpt>
      <trkpt lat="47.99706" lon="6.73429">
        <ele>487.607391</ele>
        <time>2019-08-16T15:36:55Z</time>
      </trkpt>
      <trkpt lat="47.99706" lon="6.73446">
        <ele>486.957977</ele>
        <time>2019-08-16T15:36:56Z</time>
      </trkpt>
      <trkpt lat="47.99706" lon="6.73463">
        <ele>486.328094</ele>
        <time>2019-08-16T15:36:57Z</time>
      </trkpt>
      <trkpt lat="47.99706" lon="6.7348">
        <ele>485.708374</ele>
        <time>2019-08-16T15:36:58Z</time>
      </trkpt>
      <trkpt lat="47.99705" lon="6.73496">
        <ele>485.099335</ele>
        <time>2019-08-16T15:36:59Z</time>
      </trkpt>
      <trkpt lat="47.99704" lon="6.73512">
        <ele>484.501129</ele>
        <time>2019-08-16T15:37:00Z</time>
      </trkpt>
      <trkpt lat="47.99704" lon="6.73528">
        <ele>483.910492</ele>
        <time>2019-08-16T15:37:01Z</time>
      </trkpt>
      <trkpt lat="47.99703" lon="6.73543">
        <ele>483.320221</ele>
        <time>2019-08-16T15:37:02Z</time>
      </trkpt>
      <trkpt lat="47.997" lon="6.73558">
        <ele>482.734772</ele>
        <time>2019-08-16T15:37:03Z</time>
      </trkpt>
      <trkpt lat="47.99697" lon="6.73572">
        <ele>482.164093</ele>
        <time>2019-08-16T15:37:04Z</time>
      </trkpt>
      <trkpt lat="47.99694" lon="6.73585">
        <ele>481.627655</ele>
        <time>2019-08-16T15:37:05Z</time>
      </trkpt>
      <trkpt lat="47.9969" lon="6.73597">
        <ele>481.130585</ele>
        <time>2019-08-16T15:37:06Z</time>
      </trkpt>
      <trkpt lat="47.99687" lon="6.73609">
        <ele>480.669067</ele>
        <time>2019-08-16T15:37:07Z</time>
      </trkpt>
      <trkpt lat="47.99683" lon="6.73621">
        <ele>480.245239</ele>
        <time>2019-08-16T15:37:08Z</time>
      </trkpt>
      <trkpt lat="47.99681" lon="6.73633">
        <ele>479.874725</ele>
        <time>2019-08-16T15:37:09Z</time>
      </trkpt>
      <trkpt lat="47.9968" lon="6.73644">
        <ele>479.56662</ele>
        <time>2019-08-16T15:37:10Z</time>
      </trkpt>
      <trkpt lat="47.9968" lon="6.73656">
        <ele>479.319305</ele>
        <time>2019-08-16T15:37:11Z</time>
      </trkpt>
      <trkpt lat="47.99685" lon="6.73665">
        <ele>479.111969</ele>
        <time>2019-08-16T15:37:12Z</time>
      </trkpt>
      <trkpt lat="47.99692" lon="6.73669">
        <ele>478.849762</ele>
        <time>2019-08-16T15:37:13Z</time>
      </trkpt>
      <trkpt lat="47.997" lon="6.73669">
        <ele>478.697418</ele>
        <time>2019-08-16T15:37:14Z</time>
      </trkpt>
      <trkpt lat="47.99707" lon="6.73667">
        <ele>478.566742</ele>
        <time>2019-08-16T15:37:15Z</time>
      </trkpt>
      <trkpt lat="47.99713" lon="6.73664">
        <ele>478.410309</ele>
        <time>2019-08-16T15:37:16Z</time>
      </trkpt>
      <trkpt lat="47.9972" lon="6.73663">
        <ele>478.328369</ele>
        <time>2019-08-16T15:37:17Z</time>
      </trkpt>
      <trkpt lat="47.99726" lon="6.73661">
        <ele>478.295013</ele>
        <time>2019-08-16T15:37:18Z</time>
      </trkpt>
      <trkpt lat="47.99731" lon="6.73659">
        <ele>478.25415</ele>
        <time>2019-08-16T15:37:19Z</time>
      </trkpt>
      <trkpt lat="47.99736" lon="6.73654">
        <ele>478.25415</ele>
        <time>2019-08-16T15:37:20Z</time>
      </trkpt>
      <trkpt lat="47.99739" lon="6.7365">
        <ele>478.265045</ele>
        <time>2019-08-16T15:37:21Z</time>
      </trkpt>
      <trkpt lat="47.99741" lon="6.73644">
        <ele>478.283539</ele>
        <time>2019-08-16T15:37:22Z</time>
      </trkpt>
      <trkpt lat="47.99742" lon="6.73639">
        <ele>478.283539</ele>
        <time>2019-08-16T15:37:23Z</time>
      </trkpt>
      <trkpt lat="47.99744" lon="6.73633">
        <ele>478.273163</ele>
        <time>2019-08-16T15:37:24Z</time>
      </trkpt>
      <trkpt lat="47.99745" lon="6.73627">
        <ele>478.215332</ele>
        <time>2019-08-16T15:37:25Z</time>
      </trkpt>
      <trkpt lat="47.99746" lon="6.73621">
        <ele>478.088623</ele>
        <time>2019-08-16T15:37:26Z</time>
      </trkpt>
      <trkpt lat="47.99747" lon="6.73616">
        <ele>477.868286</ele>
        <time>2019-08-16T15:37:27Z</time>
      </trkpt>
      <trkpt lat="47.99746" lon="6.73611">
        <ele>477.541138</ele>
        <time>2019-08-16T15:37:28Z</time>
      </trkpt>
      <trkpt lat="47.99746" lon="6.73606">
        <ele>477.103882</ele>
        <time>2019-08-16T15:37:29Z</time>
      </trkpt>
      <trkpt lat="47.99746" lon="6.73602">
        <ele>476.57373</ele>
        <time>2019-08-16T15:37:30Z</time>
      </trkpt>
      <trkpt lat="47.99747" lon="6.73598">
        <ele>475.960449</ele>
        <time>2019-08-16T15:37:31Z</time>
      </trkpt>
      <trkpt lat="47.99748" lon="6.73593">
        <ele>475.270599</ele>
        <time>2019-08-16T15:37:32Z</time>
      </trkpt>
      <trkpt lat="47.99749" lon="6.73587">
        <ele>474.512054</ele>
        <time>2019-08-16T15:37:33Z</time>
      </trkpt>
      <trkpt lat="47.99752" lon="6.73581">
        <ele>473.703156</ele>
        <time>2019-08-16T15:37:34Z</time>
      </trkpt>
      <trkpt lat="47.99755" lon="6.73575">
        <ele>472.871338</ele>
        <time>2019-08-16T15:37:35Z</time>
      </trkpt>
      <trkpt lat="47.99757" lon="6.73569">
        <ele>472.036255</ele>
        <time>2019-08-16T15:37:36Z</time>
      </trkpt>
      <trkpt lat="47.9976" lon="6.73563">
        <ele>471.207977</ele>
        <time>2019-08-16T15:37:37Z</time>
      </trkpt>
      <trkpt lat="47.99762" lon="6.73557">
        <ele>470.01413</ele>
        <time>2019-08-16T15:37:38Z</time>
      </trkpt>
      <trkpt lat="47.99765" lon="6.73552">
        <ele>469.260284</ele>
        <time>2019-08-16T15:37:39Z</time>
      </trkpt>
      <trkpt lat="47.99768" lon="6.73547">
        <ele>468.53244</ele>
        <time>2019-08-16T15:37:40Z</time>
      </trkpt>
      <trkpt lat="47.99772" lon="6.73543">
        <ele>467.445709</ele>
        <time>2019-08-16T15:37:41Z</time>
      </trkpt>
      <trkpt lat="47.99775" lon="6.73538">
        <ele>466.715424</ele>
        <time>2019-08-16T15:37:42Z</time>
      </trkpt>
      <trkpt lat="47.99777" lon="6.73533">
        <ele>465.986908</ele>
        <time>2019-08-16T15:37:43Z</time>
      </trkpt>
      <trkpt lat="47.99778" lon="6.73525">
        <ele>465.26236</ele>
        <time>2019-08-16T15:37:44Z</time>
      </trkpt>
      <trkpt lat="47.99778" lon="6.73518">
        <ele>464.158447</ele>
        <time>2019-08-16T15:37:45Z</time>
      </trkpt>
      <trkpt lat="47.9978" lon="6.73512">
        <ele>463.403778</ele>
        <time>2019-08-16T15:37:46Z</time>
      </trkpt>
      <trkpt lat="47.99783" lon="6.73505">
        <ele>462.641937</ele>
        <time>2019-08-16T15:37:47Z</time>
      </trkpt>
      <trkpt lat="47.99786" lon="6.73498">
        <ele>461.88266</ele>
        <time>2019-08-16T15:37:48Z</time>
      </trkpt>
      <trkpt lat="47.99791" lon="6.73492">
        <ele>460.765411</ele>
        <time>2019-08-16T15:37:49Z</time>
      </trkpt>
      <trkpt lat="47.99794" lon="6.73486">
        <ele>460.048462</ele>
        <time>2019-08-16T15:37:50Z</time>
      </trkpt>
      <trkpt lat="47.99797" lon="6.7348">
        <ele>459.355469</ele>
        <time>2019-08-16T15:37:51Z</time>
      </trkpt>
      <trkpt lat="47.998" lon="6.73473">
        <ele>458.680328</ele>
        <time>2019-08-16T15:37:52Z</time>
      </trkpt>
      <trkpt lat="47.99803" lon="6.73466">
        <ele>458.024994</ele>
        <time>2019-08-16T15:37:53Z</time>
      </trkpt>
      <trkpt lat="47.99806" lon="6.73458">
        <ele>457.389404</ele>
        <time>2019-08-16T15:37:54Z</time>
      </trkpt>
      <trkpt lat="47.99809" lon="6.73451">
        <ele>456.489624</ele>
        <time>2019-08-16T15:37:55Z</time>
      </trkpt>
      <trkpt lat="47.99812" lon="6.73445">
        <ele>455.937592</ele>
        <time>2019-08-16T15:37:56Z</time>
      </trkpt>
      <trkpt lat="47.99815" lon="6.73439">
        <ele>455.427216</ele>
        <time>2019-08-16T15:37:57Z</time>
      </trkpt>
      <trkpt lat="47.99817" lon="6.73434">
        <ele>454.952271</ele>
        <time>2019-08-16T15:37:58Z</time>
      </trkpt>
      <trkpt lat="47.9982" lon="6.73429">
        <ele>454.506256</ele>
        <time>2019-08-16T15:37:59Z</time>
      </trkpt>
      <trkpt lat="47.99823" lon="6.73424">
        <ele>454.081299</ele>
        <time>2019-08-16T15:38:00Z</time>
      </trkpt>
      <trkpt lat="47.99826" lon="6.7342">
        <ele>453.675079</ele>
        <time>2019-08-16T15:38:01Z</time>
      </trkpt>
      <trkpt lat="47.99829" lon="6.73416">
        <ele>453.29248</ele>
        <time>2019-08-16T15:38:02Z</time>
      </trkpt>
      <trkpt lat="47.99832" lon="6.73411">
        <ele>452.77829</ele>
        <time>2019-08-16T15:38:03Z</time>
      </trkpt>
      <trkpt lat="47.99834" lon="6.73407">
        <ele>452.479645</ele>
        <time>2019-08-16T15:38:04Z</time>
      </trkpt>
      <trkpt lat="47.99837" lon="6.73403">
        <ele>452.223267</ele>
        <time>2019-08-16T15:38:05Z</time>
      </trkpt>
      <trkpt lat="47.99839" lon="6.73399">
        <ele>451.91452</ele>
        <time>2019-08-16T15:38:06Z</time>
      </trkpt>
      <trkpt lat="47.99841" lon="6.73396">
        <ele>451.752411</ele>
        <time>2019-08-16T15:38:07Z</time>
      </trkpt>
      <trkpt lat="47.99843" lon="6.73393">
        <ele>451.620239</ele>
        <time>2019-08-16T15:38:08Z</time>
      </trkpt>
      <trkpt lat="47.99846" lon="6.7339">
        <ele>451.522675</ele>
        <time>2019-08-16T15:38:09Z</time>
      </trkpt>
      <trkpt lat="47.99847" lon="6.73387">
        <ele>451.411957</ele>
        <time>2019-08-16T15:38:10Z</time>
      </trkpt>
      <trkpt lat="47.99849" lon="6.73382">
        <ele>451.351288</ele>
        <time>2019-08-16T15:38:11Z</time>
      </trkpt>
      <trkpt lat="47.99851" lon="6.73377">
        <ele>451.298065</ele>
        <time>2019-08-16T15:38:12Z</time>
      </trkpt>
      <trkpt lat="47.99853" lon="6.73372">
        <ele>451.260284</ele>
        <time>2019-08-16T15:38:13Z</time>
      </trkpt>
      <trkpt lat="47.99855" lon="6.73368">
        <ele>451.234009</ele>
        <time>2019-08-16T15:38:14Z</time>
      </trkpt>
      <trkpt lat="47.99857" lon="6.73364">
        <ele>451.218781</ele>
        <time>2019-08-16T15:38:15Z</time>
      </trkpt>
      <trkpt lat="47.9986" lon="6.7336">
        <ele>451.207916</ele>
        <time>2019-08-16T15:38:16Z</time>
      </trkpt>
      <trkpt lat="47.99862" lon="6.73357">
        <ele>451.203827</ele>
        <time>2019-08-16T15:38:17Z</time>
      </trkpt>
      <trkpt lat="47.99864" lon="6.73352">
        <ele>451.204468</ele>
        <time>2019-08-16T15:38:18Z</time>
      </trkpt>
      <trkpt lat="47.99867" lon="6.73349">
        <ele>451.206024</ele>
        <time>2019-08-16T15:38:19Z</time>
      </trkpt>
      <trkpt lat="47.99869" lon="6.73345">
        <ele>451.209564</ele>
        <time>2019-08-16T15:38:20Z</time>
      </trkpt>
      <trkpt lat="47.99872" lon="6.73341">
        <ele>451.216309</ele>
        <time>2019-08-16T15:38:21Z</time>
      </trkpt>
      <trkpt lat="47.99875" lon="6.73337">
        <ele>451.216309</ele>
        <time>2019-08-16T15:38:22Z</time>
      </trkpt>
      <trkpt lat="47.99879" lon="6.73333">
        <ele>451.207428</ele>
        <time>2019-08-16T15:38:23Z</time>
      </trkpt>
      <trkpt lat="47.99882" lon="6.73329">
        <ele>451.172943</ele>
        <time>2019-08-16T15:38:24Z</time>
      </trkpt>
      <trkpt lat="47.99884" lon="6.73324">
        <ele>451.106781</ele>
        <time>2019-08-16T15:38:25Z</time>
      </trkpt>
      <trkpt lat="47.99886" lon="6.7332">
        <ele>451.005249</ele>
        <time>2019-08-16T15:38:26Z</time>
      </trkpt>
      <trkpt lat="47.99887" lon="6.73315">
        <ele>450.86731</ele>
        <time>2019-08-16T15:38:27Z</time>
      </trkpt>
      <trkpt lat="47.99886" lon="6.73309">
        <ele>450.697662</ele>
        <time>2019-08-16T15:38:28Z</time>
      </trkpt>
      <trkpt lat="47.99884" lon="6.73304">
        <ele>450.497192</ele>
        <time>2019-08-16T15:38:29Z</time>
      </trkpt>
      <trkpt lat="47.99883" lon="6.733">
        <ele>450.266235</ele>
        <time>2019-08-16T15:38:30Z</time>
      </trkpt>
      <trkpt lat="47.99881" lon="6.73297">
        <ele>450.006317</ele>
        <time>2019-08-16T15:38:31Z</time>
      </trkpt>
      <trkpt lat="47.9988" lon="6.73293">
        <ele>449.738068</ele>
        <time>2019-08-16T15:38:32Z</time>
      </trkpt>
      <trkpt lat="47.9988" lon="6.73288">
        <ele>449.4935</ele>
        <time>2019-08-16T15:38:33Z</time>
      </trkpt>
      <trkpt lat="47.9988" lon="6.73285">
        <ele>449.216888</ele>
        <time>2019-08-16T15:38:34Z</time>
      </trkpt>
      <trkpt lat="47.9988" lon="6.73281">
        <ele>449.10791</ele>
        <time>2019-08-16T15:38:35Z</time>
      </trkpt>
      <trkpt lat="47.9988" lon="6.73278">
        <ele>449.079437</ele>
        <time>2019-08-16T15:38:36Z</time>
      </trkpt>
      <trkpt lat="47.9988" lon="6.73274">
        <ele>449.079437</ele>
        <time>2019-08-16T15:38:37Z</time>
      </trkpt>
      <trkpt lat="47.9988" lon="6.73271">
        <ele>449.129181</ele>
        <time>2019-08-16T15:38:38Z</time>
      </trkpt>
      <trkpt lat="47.9988" lon="6.73267">
        <ele>449.241821</ele>
        <time>2019-08-16T15:38:39Z</time>
      </trkpt>
      <trkpt lat="47.9988" lon="6.73263">
        <ele>449.383881</ele>
        <time>2019-08-16T15:38:40Z</time>
      </trkpt>
      <trkpt lat="47.99879" lon="6.7326">
        <ele>449.547943</ele>
        <time>2019-08-16T15:38:41Z</time>
      </trkpt>
      <trkpt lat="47.99879" lon="6.73256">
        <ele>449.727264</ele>
        <time>2019-08-16T15:38:42Z</time>
      </trkpt>
      <trkpt lat="47.99879" lon="6.73252">
        <ele>449.921844</ele>
        <time>2019-08-16T15:38:43Z</time>
      </trkpt>
      <trkpt lat="47.99879" lon="6.73249">
        <ele>450.135895</ele>
        <time>2019-08-16T15:38:44Z</time>
      </trkpt>
      <trkpt lat="47.99879" lon="6.73246">
        <ele>450.368011</ele>
        <time>2019-08-16T15:38:45Z</time>
      </trkpt>
      <trkpt lat="47.99879" lon="6.73242">
        <ele>450.61911</ele>
        <time>2019-08-16T15:38:46Z</time>
      </trkpt>
      <trkpt lat="47.99879" lon="6.73239">
        <ele>451.013214</ele>
        <time>2019-08-16T15:38:47Z</time>
      </trkpt>
      <trkpt lat="47.99879" lon="6.73236">
        <ele>451.279297</ele>
        <time>2019-08-16T15:38:48Z</time>
      </trkpt>
      <trkpt lat="47.99879" lon="6.73232">
        <ele>451.547333</ele>
        <time>2019-08-16T15:38:49Z</time>
      </trkpt>
      <trkpt lat="47.99879" lon="6.73229">
        <ele>451.815033</ele>
        <time>2019-08-16T15:38:50Z</time>
      </trkpt>
      <trkpt lat="47.99879" lon="6.73226">
        <ele>452.083771</ele>
        <time>2019-08-16T15:38:51Z</time>
      </trkpt>
      <trkpt lat="47.9988" lon="6.73222">
        <ele>452.347443</ele>
        <time>2019-08-16T15:38:52Z</time>
      </trkpt>
      <trkpt lat="47.9988" lon="6.73218">
        <ele>452.606567</ele>
        <time>2019-08-16T15:38:53Z</time>
      </trkpt>
      <trkpt lat="47.99879" lon="6.73215">
        <ele>452.857178</ele>
        <time>2019-08-16T15:38:54Z</time>
      </trkpt>
      <trkpt lat="47.99879" lon="6.73211">
        <ele>453.09729</ele>
        <time>2019-08-16T15:38:55Z</time>
      </trkpt>
      <trkpt lat="47.99879" lon="6.73207">
        <ele>453.325806</ele>
        <time>2019-08-16T15:38:56Z</time>
      </trkpt>
      <trkpt lat="47.99878" lon="6.73203">
        <ele>453.529419</ele>
        <time>2019-08-16T15:38:57Z</time>
      </trkpt>
      <trkpt lat="47.99877" lon="6.73199">
        <ele>453.700348</ele>
        <time>2019-08-16T15:38:58Z</time>
      </trkpt>
      <trkpt lat="47.99876" lon="6.73196">
        <ele>453.836151</ele>
        <time>2019-08-16T15:38:59Z</time>
      </trkpt>
      <trkpt lat="47.99875" lon="6.73193">
        <ele>453.947113</ele>
        <time>2019-08-16T15:39:00Z</time>
      </trkpt>
      <trkpt lat="47.99874" lon="6.7319">
        <ele>454.081696</ele>
        <time>2019-08-16T15:39:01Z</time>
      </trkpt>
      <trkpt lat="47.99873" lon="6.73188">
        <ele>454.160065</ele>
        <time>2019-08-16T15:39:02Z</time>
      </trkpt>
      <trkpt lat="47.99872" lon="6.73185">
        <ele>454.232574</ele>
        <time>2019-08-16T15:39:03Z</time>
      </trkpt>
      <trkpt lat="47.99871" lon="6.73182">
        <ele>454.303802</ele>
        <time>2019-08-16T15:39:04Z</time>
      </trkpt>
      <trkpt lat="47.99871" lon="6.73179">
        <ele>454.376984</ele>
        <time>2019-08-16T15:39:05Z</time>
      </trkpt>
      <trkpt lat="47.9987" lon="6.73176">
        <ele>454.455658</ele>
        <time>2019-08-16T15:39:06Z</time>
      </trkpt>
      <trkpt lat="47.99869" lon="6.73172">
        <ele>454.542236</ele>
        <time>2019-08-16T15:39:07Z</time>
      </trkpt>
      <trkpt lat="47.99868" lon="6.73169">
        <ele>454.638885</ele>
        <time>2019-08-16T15:39:08Z</time>
      </trkpt>
      <trkpt lat="47.99867" lon="6.73166">
        <ele>454.755005</ele>
        <time>2019-08-16T15:39:09Z</time>
      </trkpt>
      <trkpt lat="47.99866" lon="6.73163">
        <ele>454.892303</ele>
        <time>2019-08-16T15:39:10Z</time>
      </trkpt>
      <trkpt lat="47.99865" lon="6.7316">
        <ele>455.047577</ele>
        <time>2019-08-16T15:39:11Z</time>
      </trkpt>
      <trkpt lat="47.99863" lon="6.73157">
        <ele>455.210114</ele>
        <time>2019-08-16T15:39:12Z</time>
      </trkpt>
      <trkpt lat="47.99863" lon="6.73153">
        <ele>455.368439</ele>
        <time>2019-08-16T15:39:13Z</time>
      </trkpt>
      <trkpt lat="47.99862" lon="6.73148">
        <ele>455.508301</ele>
        <time>2019-08-16T15:39:14Z</time>
      </trkpt>
      <trkpt lat="47.9986" lon="6.73142">
        <ele>455.623535</ele>
        <time>2019-08-16T15:39:15Z</time>
      </trkpt>
      <trkpt lat="47.99859" lon="6.73136">
        <ele>455.70694</ele>
        <time>2019-08-16T15:39:16Z</time>
      </trkpt>
      <trkpt lat="47.99856" lon="6.73131">
        <ele>455.740967</ele>
        <time>2019-08-16T15:39:17Z</time>
      </trkpt>
      <trkpt lat="47.99853" lon="6.73129">
        <ele>455.736694</ele>
        <time>2019-08-16T15:39:18Z</time>
      </trkpt>
      <trkpt lat="47.9985" lon="6.73128">
        <ele>455.686554</ele>
        <time>2019-08-16T15:39:19Z</time>
      </trkpt>
      <trkpt lat="47.99848" lon="6.73129">
        <ele>455.645721</ele>
        <time>2019-08-16T15:39:20Z</time>
      </trkpt>
      <trkpt lat="47.99846" lon="6.73129">
        <ele>455.600616</ele>
        <time>2019-08-16T15:39:21Z</time>
      </trkpt>
      <trkpt lat="47.99844" lon="6.73128">
        <ele>455.517548</ele>
        <time>2019-08-16T15:39:22Z</time>
      </trkpt>
      <trkpt lat="47.99843" lon="6.73127">
        <ele>455.48291</ele>
        <time>2019-08-16T15:39:23Z</time>
      </trkpt>
      <trkpt lat="47.99841" lon="6.73126">
        <ele>455.494781</ele>
        <time>2019-08-16T15:39:24Z</time>
      </trkpt>
      <trkpt lat="47.99841" lon="6.73124">
        <ele>455.58902</ele>
        <time>2019-08-16T15:39:25Z</time>
      </trkpt>
      <trkpt lat="47.9984" lon="6.73121">
        <ele>455.88559</ele>
        <time>2019-08-16T15:39:26Z</time>
      </trkpt>
      <trkpt lat="47.9984" lon="6.73119">
        <ele>456.15686</ele>
        <time>2019-08-16T15:39:27Z</time>
      </trkpt>
      <trkpt lat="47.9984" lon="6.73117">
        <ele>456.460815</ele>
        <time>2019-08-16T15:39:28Z</time>
      </trkpt>
      <trkpt lat="47.9984" lon="6.73115">
        <ele>456.781769</ele>
        <time>2019-08-16T15:39:29Z</time>
      </trkpt>
      <trkpt lat="47.99839" lon="6.73113">
        <ele>457.101105</ele>
        <time>2019-08-16T15:39:30Z</time>
      </trkpt>
      <trkpt lat="47.99839" lon="6.73111">
        <ele>457.404053</ele>
        <time>2019-08-16T15:39:31Z</time>
      </trkpt>
      <trkpt lat="47.99837" lon="6.73109">
        <ele>457.675934</ele>
        <time>2019-08-16T15:39:32Z</time>
      </trkpt>
      <trkpt lat="47.99836" lon="6.73106">
        <ele>457.905518</ele>
        <time>2019-08-16T15:39:33Z</time>
      </trkpt>
      <trkpt lat="47.99834" lon="6.73102">
        <ele>458.092163</ele>
        <time>2019-08-16T15:39:34Z</time>
      </trkpt>
      <trkpt lat="47.99833" lon="6.73098">
        <ele>458.23584</ele>
        <time>2019-08-16T15:39:35Z</time>
      </trkpt>
      <trkpt lat="47.99833" lon="6.73094">
        <ele>458.338287</ele>
        <time>2019-08-16T15:39:36Z</time>
      </trkpt>
      <trkpt lat="47.99833" lon="6.7309">
        <ele>458.378021</ele>
        <time>2019-08-16T15:39:37Z</time>
      </trkpt>
      <trkpt lat="47.99833" lon="6.73085">
        <ele>458.378021</ele>
        <time>2019-08-16T15:39:38Z</time>
      </trkpt>
      <trkpt lat="47.99833" lon="6.7308">
        <ele>458.345062</ele>
        <time>2019-08-16T15:39:39Z</time>
      </trkpt>
      <trkpt lat="47.99831" lon="6.73074">
        <ele>458.23111</ele>
        <time>2019-08-16T15:39:40Z</time>
      </trkpt>
      <trkpt lat="47.99829" lon="6.73069">
        <ele>458.048615</ele>
        <time>2019-08-16T15:39:41Z</time>
      </trkpt>
      <trkpt lat="47.99828" lon="6.73064">
        <ele>457.811981</ele>
        <time>2019-08-16T15:39:42Z</time>
      </trkpt>
      <trkpt lat="47.99827" lon="6.73058">
        <ele>457.527802</ele>
        <time>2019-08-16T15:39:43Z</time>
      </trkpt>
      <trkpt lat="47.99827" lon="6.73054">
        <ele>457.208862</ele>
        <time>2019-08-16T15:39:44Z</time>
      </trkpt>
      <trkpt lat="47.99826" lon="6.7305">
        <ele>456.871429</ele>
        <time>2019-08-16T15:39:45Z</time>
      </trkpt>
      <trkpt lat="47.99826" lon="6.73046">
        <ele>456.544678</ele>
        <time>2019-08-16T15:39:46Z</time>
      </trkpt>
      <trkpt lat="47.99826" lon="6.73044">
        <ele>456.258789</ele>
        <time>2019-08-16T15:39:47Z</time>
      </trkpt>
      <trkpt lat="47.99828" lon="6.7304">
        <ele>455.926971</ele>
        <time>2019-08-16T15:39:48Z</time>
      </trkpt>
      <trkpt lat="47.99829" lon="6.73035">
        <ele>455.756866</ele>
        <time>2019-08-16T15:39:49Z</time>
      </trkpt>
      <trkpt lat="47.99829" lon="6.73028">
        <ele>455.603668</ele>
        <time>2019-08-16T15:39:50Z</time>
      </trkpt>
      <trkpt lat="47.99828" lon="6.73023">
        <ele>455.459747</ele>
        <time>2019-08-16T15:39:51Z</time>
      </trkpt>
      <trkpt lat="47.99826" lon="6.73017">
        <ele>455.324585</ele>
        <time>2019-08-16T15:39:52Z</time>
      </trkpt>
      <trkpt lat="47.99824" lon="6.73012">
        <ele>455.193604</ele>
        <time>2019-08-16T15:39:53Z</time>
      </trkpt>
      <trkpt lat="47.99822" lon="6.73005">
        <ele>455.054352</ele>
        <time>2019-08-16T15:39:54Z</time>
      </trkpt>
      <trkpt lat="47.9982" lon="6.72998">
        <ele>454.893799</ele>
        <time>2019-08-16T15:39:55Z</time>
      </trkpt>
      <trkpt lat="47.99817" lon="6.72992">
        <ele>454.712067</ele>
        <time>2019-08-16T15:39:56Z</time>
      </trkpt>
      <trkpt lat="47.99815" lon="6.72986">
        <ele>454.403534</ele>
        <time>2019-08-16T15:39:57Z</time>
      </trkpt>
      <trkpt lat="47.99814" lon="6.7298">
        <ele>454.196014</ele>
        <time>2019-08-16T15:39:58Z</time>
      </trkpt>
      <trkpt lat="47.99812" lon="6.72975">
        <ele>453.999512</ele>
        <time>2019-08-16T15:39:59Z</time>
      </trkpt>
      <trkpt lat="47.99812" lon="6.7297">
        <ele>453.812866</ele>
        <time>2019-08-16T15:40:00Z</time>
      </trkpt>
      <trkpt lat="47.99811" lon="6.72965">
        <ele>453.630035</ele>
        <time>2019-08-16T15:40:01Z</time>
      </trkpt>
      <trkpt lat="47.99812" lon="6.72959">
        <ele>453.457275</ele>
        <time>2019-08-16T15:40:02Z</time>
      </trkpt>
      <trkpt lat="47.99814" lon="6.72953">
        <ele>453.300446</ele>
        <time>2019-08-16T15:40:03Z</time>
      </trkpt>
      <trkpt lat="47.99817" lon="6.72948">
        <ele>453.155518</ele>
        <time>2019-08-16T15:40:04Z</time>
      </trkpt>
      <trkpt lat="47.9982" lon="6.72944">
        <ele>453.005005</ele>
        <time>2019-08-16T15:40:05Z</time>
      </trkpt>
      <trkpt lat="47.99823" lon="6.72939">
        <ele>452.82666</ele>
        <time>2019-08-16T15:40:06Z</time>
      </trkpt>
      <trkpt lat="47.99826" lon="6.72935">
        <ele>452.605988</ele>
        <time>2019-08-16T15:40:07Z</time>
      </trkpt>
      <trkpt lat="47.99828" lon="6.72931">
        <ele>452.187134</ele>
        <time>2019-08-16T15:40:08Z</time>
      </trkpt>
      <trkpt lat="47.99832" lon="6.72926">
        <ele>451.853424</ele>
        <time>2019-08-16T15:40:09Z</time>
      </trkpt>
      <trkpt lat="47.99835" lon="6.72922">
        <ele>451.493408</ele>
        <time>2019-08-16T15:40:10Z</time>
      </trkpt>
      <trkpt lat="47.99838" lon="6.72918">
        <ele>451.133942</ele>
        <time>2019-08-16T15:40:11Z</time>
      </trkpt>
      <trkpt lat="47.99842" lon="6.72914">
        <ele>450.641754</ele>
        <time>2019-08-16T15:40:12Z</time>
      </trkpt>
      <trkpt lat="47.99846" lon="6.7291">
        <ele>450.344238</ele>
        <time>2019-08-16T15:40:13Z</time>
      </trkpt>
      <trkpt lat="47.9985" lon="6.72906">
        <ele>450.052094</ele>
        <time>2019-08-16T15:40:14Z</time>
      </trkpt>
      <trkpt lat="47.99855" lon="6.72903">
        <ele>449.602051</ele>
        <time>2019-08-16T15:40:15Z</time>
      </trkpt>
      <trkpt lat="47.9986" lon="6.72901">
        <ele>449.301514</ele>
        <time>2019-08-16T15:40:16Z</time>
      </trkpt>
      <trkpt lat="47.99863" lon="6.72899">
        <ele>449.011383</ele>
        <time>2019-08-16T15:40:17Z</time>
      </trkpt>
      <trkpt lat="47.99867" lon="6.72897">
        <ele>448.599976</ele>
        <time>2019-08-16T15:40:18Z</time>
      </trkpt>
      <trkpt lat="47.99869" lon="6.72895">
        <ele>448.347626</ele>
        <time>2019-08-16T15:40:19Z</time>
      </trkpt>
      <trkpt lat="47.99871" lon="6.72893">
        <ele>448.13028</ele>
        <time>2019-08-16T15:40:20Z</time>
      </trkpt>
      <trkpt lat="47.99873" lon="6.7289">
        <ele>448.04068</ele>
        <time>2019-08-16T15:40:21Z</time>
      </trkpt>
      <trkpt lat="47.99875" lon="6.72887">
        <ele>447.902374</ele>
        <time>2019-08-16T15:40:22Z</time>
      </trkpt>
      <trkpt lat="47.99876" lon="6.72883">
        <ele>447.805298</ele>
        <time>2019-08-16T15:40:23Z</time>
      </trkpt>
      <trkpt lat="47.99876" lon="6.72879">
        <ele>447.729401</ele>
        <time>2019-08-16T15:40:24Z</time>
      </trkpt>
      <trkpt lat="47.99878" lon="6.72874">
        <ele>447.665497</ele>
        <time>2019-08-16T15:40:25Z</time>
      </trkpt>
      <trkpt lat="47.99878" lon="6.72869">
        <ele>447.605194</ele>
        <time>2019-08-16T15:40:26Z</time>
      </trkpt>
      <trkpt lat="47.99879" lon="6.72865">
        <ele>447.543121</ele>
        <time>2019-08-16T15:40:27Z</time>
      </trkpt>
      <trkpt lat="47.99879" lon="6.72861">
        <ele>447.461517</ele>
        <time>2019-08-16T15:40:28Z</time>
      </trkpt>
      <trkpt lat="47.9988" lon="6.72857">
        <ele>447.340729</ele>
        <time>2019-08-16T15:40:29Z</time>
      </trkpt>
      <trkpt lat="47.99881" lon="6.72852">
        <ele>447.170746</ele>
        <time>2019-08-16T15:40:30Z</time>
      </trkpt>
      <trkpt lat="47.99882" lon="6.72847">
        <ele>446.950775</ele>
        <time>2019-08-16T15:40:31Z</time>
      </trkpt>
      <trkpt lat="47.99882" lon="6.72842">
        <ele>446.685638</ele>
        <time>2019-08-16T15:40:32Z</time>
      </trkpt>
      <trkpt lat="47.99884" lon="6.72838">
        <ele>446.370209</ele>
        <time>2019-08-16T15:40:33Z</time>
      </trkpt>
      <trkpt lat="47.99886" lon="6.72836">
        <ele>445.994629</ele>
        <time>2019-08-16T15:40:34Z</time>
      </trkpt>
      <trkpt lat="47.99889" lon="6.72837">
        <ele>445.324432</ele>
        <time>2019-08-16T15:40:35Z</time>
      </trkpt>
      <trkpt lat="47.99891" lon="6.7284">
        <ele>444.835419</ele>
        <time>2019-08-16T15:40:36Z</time>
      </trkpt>
      <trkpt lat="47.99892" lon="6.72844">
        <ele>444.33548</ele>
        <time>2019-08-16T15:40:37Z</time>
      </trkpt>
      <trkpt lat="47.99893" lon="6.72849">
        <ele>443.843994</ele>
        <time>2019-08-16T15:40:38Z</time>
      </trkpt>
      <trkpt lat="47.99895" lon="6.72852">
        <ele>443.377594</ele>
        <time>2019-08-16T15:40:39Z</time>
      </trkpt>
      <trkpt lat="47.99897" lon="6.72855">
        <ele>442.968109</ele>
        <time>2019-08-16T15:40:40Z</time>
      </trkpt>
      <trkpt lat="47.999" lon="6.72857">
        <ele>442.632782</ele>
        <time>2019-08-16T15:40:41Z</time>
      </trkpt>
      <trkpt lat="47.99903" lon="6.7286">
        <ele>442.286621</ele>
        <time>2019-08-16T15:40:42Z</time>
      </trkpt>
      <trkpt lat="47.99905" lon="6.72863">
        <ele>442.140045</ele>
        <time>2019-08-16T15:40:43Z</time>
      </trkpt>
      <trkpt lat="47.99907" lon="6.72867">
        <ele>442.04007</ele>
        <time>2019-08-16T15:40:44Z</time>
      </trkpt>
      <trkpt lat="47.99908" lon="6.7287">
        <ele>441.980438</ele>
        <time>2019-08-16T15:40:45Z</time>
      </trkpt>
      <trkpt lat="47.99911" lon="6.72874">
        <ele>441.959106</ele>
        <time>2019-08-16T15:40:46Z</time>
      </trkpt>
      <trkpt lat="47.99912" lon="6.72878">
        <ele>441.959106</ele>
        <time>2019-08-16T15:40:47Z</time>
      </trkpt>
      <trkpt lat="47.99914" lon="6.72883">
        <ele>441.971405</ele>
        <time>2019-08-16T15:40:48Z</time>
      </trkpt>
      <trkpt lat="47.99915" lon="6.72888">
        <ele>442.001923</ele>
        <time>2019-08-16T15:40:49Z</time>
      </trkpt>
      <trkpt lat="47.99916" lon="6.72893">
        <ele>442.04068</ele>
        <time>2019-08-16T15:40:50Z</time>
      </trkpt>
      <trkpt lat="47.99917" lon="6.72897">
        <ele>442.08139</ele>
        <time>2019-08-16T15:40:51Z</time>
      </trkpt>
      <trkpt lat="47.99918" lon="6.72902">
        <ele>442.126709</ele>
        <time>2019-08-16T15:40:52Z</time>
      </trkpt>
      <trkpt lat="47.99918" lon="6.72906">
        <ele>442.173218</ele>
        <time>2019-08-16T15:40:53Z</time>
      </trkpt>
      <trkpt lat="47.99921" lon="6.72911">
        <ele>442.223602</ele>
        <time>2019-08-16T15:40:54Z</time>
      </trkpt>
      <trkpt lat="47.99923" lon="6.72915">
        <ele>442.279205</ele>
        <time>2019-08-16T15:40:55Z</time>
      </trkpt>
      <trkpt lat="47.99926" lon="6.72918">
        <ele>442.364502</ele>
        <time>2019-08-16T15:40:56Z</time>
      </trkpt>
      <trkpt lat="47.9993" lon="6.72921">
        <ele>442.41098</ele>
        <time>2019-08-16T15:40:57Z</time>
      </trkpt>
      <trkpt lat="47.99934" lon="6.72923">
        <ele>442.444</ele>
        <time>2019-08-16T15:40:58Z</time>
      </trkpt>
      <trkpt lat="47.99938" lon="6.72923">
        <ele>442.469391</ele>
        <time>2019-08-16T15:40:59Z</time>
      </trkpt>
      <trkpt lat="47.99941" lon="6.72924">
        <ele>442.471771</ele>
        <time>2019-08-16T15:41:00Z</time>
      </trkpt>
      <trkpt lat="47.99945" lon="6.72925">
        <ele>442.46994</ele>
        <time>2019-08-16T15:41:01Z</time>
      </trkpt>
      <trkpt lat="47.99949" lon="6.72925">
        <ele>442.444305</ele>
        <time>2019-08-16T15:41:02Z</time>
      </trkpt>
      <trkpt lat="47.99954" lon="6.72926">
        <ele>442.421417</ele>
        <time>2019-08-16T15:41:03Z</time>
      </trkpt>
      <trkpt lat="47.99958" lon="6.72926">
        <ele>442.407074</ele>
        <time>2019-08-16T15:41:04Z</time>
      </trkpt>
      <trkpt lat="47.99963" lon="6.72927">
        <ele>442.402435</ele>
        <time>2019-08-16T15:41:05Z</time>
      </trkpt>
      <trkpt lat="47.99967" lon="6.72927">
        <ele>442.404022</ele>
        <time>2019-08-16T15:41:06Z</time>
      </trkpt>
      <trkpt lat="47.99971" lon="6.72928">
        <ele>442.410889</ele>
        <time>2019-08-16T15:41:07Z</time>
      </trkpt>
      <trkpt lat="47.99976" lon="6.72929">
        <ele>442.414215</ele>
        <time>2019-08-16T15:41:08Z</time>
      </trkpt>
      <trkpt lat="47.9998" lon="6.72929">
        <ele>442.411041</ele>
        <time>2019-08-16T15:41:09Z</time>
      </trkpt>
      <trkpt lat="47.99985" lon="6.72929">
        <ele>442.391571</ele>
        <time>2019-08-16T15:41:10Z</time>
      </trkpt>
      <trkpt lat="47.99989" lon="6.7293">
        <ele>442.331543</ele>
        <time>2019-08-16T15:41:11Z</time>
      </trkpt>
      <trkpt lat="47.99994" lon="6.72929">
        <ele>442.279938</ele>
        <time>2019-08-16T15:41:12Z</time>
      </trkpt>
      <trkpt lat="47.99999" lon="6.72929">
        <ele>442.224152</ele>
        <time>2019-08-16T15:41:13Z</time>
      </trkpt>
      <trkpt lat="48.00003" lon="6.72928">
        <ele>442.140259</ele>
        <time>2019-08-16T15:41:14Z</time>
      </trkpt>
      <trkpt lat="48.00008" lon="6.72927">
        <ele>442.089111</ele>
        <time>2019-08-16T15:41:15Z</time>
      </trkpt>
      <trkpt lat="48.00012" lon="6.72925">
        <ele>442.04541</ele>
        <time>2019-08-16T15:41:16Z</time>
      </trkpt>
      <trkpt lat="48.00016" lon="6.72923">
        <ele>441.994049</ele>
        <time>2019-08-16T15:41:17Z</time>
      </trkpt>
      <trkpt lat="48.00021" lon="6.72921">
        <ele>441.965942</ele>
        <time>2019-08-16T15:41:18Z</time>
      </trkpt>
      <trkpt lat="48.00025" lon="6.72917">
        <ele>441.937897</ele>
        <time>2019-08-16T15:41:19Z</time>
      </trkpt>
      <trkpt lat="48.00029" lon="6.72913">
        <ele>441.889313</ele>
        <time>2019-08-16T15:41:20Z</time>
      </trkpt>
      <trkpt lat="48.00033" lon="6.72909">
        <ele>441.871338</ele>
        <time>2019-08-16T15:41:21Z</time>
      </trkpt>
      <trkpt lat="48.00036" lon="6.72904">
        <ele>441.852539</ele>
        <time>2019-08-16T15:41:22Z</time>
      </trkpt>
      <trkpt lat="48.00039" lon="6.72898">
        <ele>441.811646</ele>
        <time>2019-08-16T15:41:23Z</time>
      </trkpt>
      <trkpt lat="48.00042" lon="6.72892">
        <ele>441.763794</ele>
        <time>2019-08-16T15:41:24Z</time>
      </trkpt>
      <trkpt lat="48.00043" lon="6.72886">
        <ele>441.703461</ele>
        <time>2019-08-16T15:41:25Z</time>
      </trkpt>
      <trkpt lat="48.00045" lon="6.72879">
        <ele>441.627716</ele>
        <time>2019-08-16T15:41:26Z</time>
      </trkpt>
      <trkpt lat="48.00045" lon="6.72873">
        <ele>441.537628</ele>
        <time>2019-08-16T15:41:27Z</time>
      </trkpt>
      <trkpt lat="48.00047" lon="6.72866">
        <ele>441.437469</ele>
        <time>2019-08-16T15:41:28Z</time>
      </trkpt>
      <trkpt lat="48.00047" lon="6.72859">
        <ele>441.328979</ele>
        <time>2019-08-16T15:41:29Z</time>
      </trkpt>
      <trkpt lat="48.00048" lon="6.72852">
        <ele>441.213776</ele>
        <time>2019-08-16T15:41:30Z</time>
      </trkpt>
      <trkpt lat="48.00048" lon="6.72845">
        <ele>441.095093</ele>
        <time>2019-08-16T15:41:31Z</time>
      </trkpt>
      <trkpt lat="48.00048" lon="6.72837">
        <ele>440.976685</ele>
        <time>2019-08-16T15:41:32Z</time>
      </trkpt>
      <trkpt lat="48.00047" lon="6.72829">
        <ele>440.860748</ele>
        <time>2019-08-16T15:41:33Z</time>
      </trkpt>
      <trkpt lat="48.00047" lon="6.72821">
        <ele>440.747528</ele>
        <time>2019-08-16T15:41:34Z</time>
      </trkpt>
      <trkpt lat="48.00047" lon="6.72812">
        <ele>440.568939</ele>
        <time>2019-08-16T15:41:35Z</time>
      </trkpt>
      <trkpt lat="48.00047" lon="6.72803">
        <ele>440.432739</ele>
        <time>2019-08-16T15:41:36Z</time>
      </trkpt>
      <trkpt lat="48.00048" lon="6.72793">
        <ele>440.275269</ele>
        <time>2019-08-16T15:41:37Z</time>
      </trkpt>
      <trkpt lat="48.00048" lon="6.72784">
        <ele>440.095428</ele>
        <time>2019-08-16T15:41:38Z</time>
      </trkpt>
      <trkpt lat="48.0005" lon="6.72774">
        <ele>439.895508</ele>
        <time>2019-08-16T15:41:39Z</time>
      </trkpt>
      <trkpt lat="48.00052" lon="6.72764">
        <ele>439.67807</ele>
        <time>2019-08-16T15:41:40Z</time>
      </trkpt>
      <trkpt lat="48.00054" lon="6.72753">
        <ele>439.436066</ele>
        <time>2019-08-16T15:41:41Z</time>
      </trkpt>
      <trkpt lat="48.00056" lon="6.72742">
        <ele>439.149811</ele>
        <time>2019-08-16T15:41:42Z</time>
      </trkpt>
      <trkpt lat="48.00058" lon="6.72731">
        <ele>438.807465</ele>
        <time>2019-08-16T15:41:43Z</time>
      </trkpt>
      <trkpt lat="48.00058" lon="6.72719">
        <ele>438.411865</ele>
        <time>2019-08-16T15:41:44Z</time>
      </trkpt>
      <trkpt lat="48.00058" lon="6.72708">
        <ele>437.982056</ele>
        <time>2019-08-16T15:41:45Z</time>
      </trkpt>
      <trkpt lat="48.00056" lon="6.72695">
        <ele>437.53125</ele>
        <time>2019-08-16T15:41:46Z</time>
      </trkpt>
      <trkpt lat="48.00053" lon="6.72682">
        <ele>437.053436</ele>
        <time>2019-08-16T15:41:47Z</time>
      </trkpt>
      <trkpt lat="48.00051" lon="6.7267">
        <ele>436.543457</ele>
        <time>2019-08-16T15:41:48Z</time>
      </trkpt>
      <trkpt lat="48.0005" lon="6.72662">
        <ele>436.003082</ele>
        <time>2019-08-16T15:41:49Z</time>
      </trkpt>
      <trkpt lat="48.0005" lon="6.72655">
        <ele>435.434662</ele>
        <time>2019-08-16T15:41:50Z</time>
      </trkpt>
      <trkpt lat="48.00052" lon="6.72647">
        <ele>434.837311</ele>
        <time>2019-08-16T15:41:51Z</time>
      </trkpt>
      <trkpt lat="48.00053" lon="6.72639">
        <ele>434.202515</ele>
        <time>2019-08-16T15:41:52Z</time>
      </trkpt>
      <trkpt lat="48.00054" lon="6.72632">
        <ele>433.542877</ele>
        <time>2019-08-16T15:41:53Z</time>
      </trkpt>
      <trkpt lat="48.00055" lon="6.72624">
        <ele>432.875214</ele>
        <time>2019-08-16T15:41:54Z</time>
      </trkpt>
      <trkpt lat="48.00057" lon="6.72616">
        <ele>432.222748</ele>
        <time>2019-08-16T15:41:55Z</time>
      </trkpt>
      <trkpt lat="48.00058" lon="6.72608">
        <ele>431.602051</ele>
        <time>2019-08-16T15:41:56Z</time>
      </trkpt>
      <trkpt lat="48.00059" lon="6.72601">
        <ele>431.031525</ele>
        <time>2019-08-16T15:41:57Z</time>
      </trkpt>
      <trkpt lat="48.00061" lon="6.72594">
        <ele>430.519287</ele>
        <time>2019-08-16T15:41:58Z</time>
      </trkpt>
      <trkpt lat="48.00061" lon="6.72587">
        <ele>430.06778</ele>
        <time>2019-08-16T15:41:59Z</time>
      </trkpt>
      <trkpt lat="48.00062" lon="6.72581">
        <ele>429.678802</ele>
        <time>2019-08-16T15:42:00Z</time>
      </trkpt>
      <trkpt lat="48.00064" lon="6.72578">
        <ele>429.353912</ele>
        <time>2019-08-16T15:42:01Z</time>
      </trkpt>
      <trkpt lat="48.00067" lon="6.72577">
        <ele>429.08609</ele>
        <time>2019-08-16T15:42:02Z</time>
      </trkpt>
      <trkpt lat="48.0007" lon="6.72577">
        <ele>428.770386</ele>
        <time>2019-08-16T15:42:03Z</time>
      </trkpt>
      <trkpt lat="48.00073" lon="6.72577">
        <ele>428.61087</ele>
        <time>2019-08-16T15:42:04Z</time>
      </trkpt>
      <trkpt lat="48.00077" lon="6.72576">
        <ele>428.445557</ele>
        <time>2019-08-16T15:42:05Z</time>
      </trkpt>
      <trkpt lat="48.00081" lon="6.72576">
        <ele>428.36618</ele>
        <time>2019-08-16T15:42:06Z</time>
      </trkpt>
      <trkpt lat="48.00086" lon="6.72577">
        <ele>428.287201</ele>
        <time>2019-08-16T15:42:07Z</time>
      </trkpt>
      <trkpt lat="48.00091" lon="6.72577">
        <ele>428.153778</ele>
        <time>2019-08-16T15:42:08Z</time>
      </trkpt>
      <trkpt lat="48.00095" lon="6.72578">
        <ele>428.07608</ele>
        <time>2019-08-16T15:42:09Z</time>
      </trkpt>
      <trkpt lat="48.001" lon="6.72578">
        <ele>428.019287</ele>
        <time>2019-08-16T15:42:10Z</time>
      </trkpt>
      <trkpt lat="48.00105" lon="6.72579">
        <ele>427.971954</ele>
        <time>2019-08-16T15:42:11Z</time>
      </trkpt>
      <trkpt lat="48.0011" lon="6.72579">
        <ele>427.959747</ele>
        <time>2019-08-16T15:42:12Z</time>
      </trkpt>
      <trkpt lat="48.00114" lon="6.72578">
        <ele>427.958771</ele>
        <time>2019-08-16T15:42:13Z</time>
      </trkpt>
      <trkpt lat="48.00119" lon="6.72578">
        <ele>427.961426</ele>
        <time>2019-08-16T15:42:14Z</time>
      </trkpt>
      <trkpt lat="48.00124" lon="6.72577">
        <ele>427.96817</ele>
        <time>2019-08-16T15:42:15Z</time>
      </trkpt>
      <trkpt lat="48.00128" lon="6.72577">
        <ele>427.989166</ele>
        <time>2019-08-16T15:42:16Z</time>
      </trkpt>
      <trkpt lat="48.00133" lon="6.72577">
        <ele>427.999359</ele>
        <time>2019-08-16T15:42:17Z</time>
      </trkpt>
      <trkpt lat="48.00138" lon="6.72577">
        <ele>427.999359</ele>
        <time>2019-08-16T15:42:18Z</time>
      </trkpt>
      <trkpt lat="48.00143" lon="6.72576">
        <ele>427.9888</ele>
        <time>2019-08-16T15:42:19Z</time>
      </trkpt>
      <trkpt lat="48.00148" lon="6.72575">
        <ele>427.976349</ele>
        <time>2019-08-16T15:42:20Z</time>
      </trkpt>
      <trkpt lat="48.00152" lon="6.72574">
        <ele>427.969971</ele>
        <time>2019-08-16T15:42:21Z</time>
      </trkpt>
      <trkpt lat="48.00156" lon="6.72573">
        <ele>427.966888</ele>
        <time>2019-08-16T15:42:22Z</time>
      </trkpt>
      <trkpt lat="48.00161" lon="6.72573">
        <ele>427.963959</ele>
        <time>2019-08-16T15:42:23Z</time>
      </trkpt>
      <trkpt lat="48.00166" lon="6.72573">
        <ele>427.952545</ele>
        <time>2019-08-16T15:42:24Z</time>
      </trkpt>
      <trkpt lat="48.00171" lon="6.72574">
        <ele>427.924408</ele>
        <time>2019-08-16T15:42:25Z</time>
      </trkpt>
      <trkpt lat="48.00176" lon="6.72575">
        <ele>427.909546</ele>
        <time>2019-08-16T15:42:26Z</time>
      </trkpt>
      <trkpt lat="48.0018" lon="6.72576">
        <ele>427.909546</ele>
        <time>2019-08-16T15:42:27Z</time>
      </trkpt>
      <trkpt lat="48.00185" lon="6.72577">
        <ele>427.92337</ele>
        <time>2019-08-16T15:42:28Z</time>
      </trkpt>
      <trkpt lat="48.00189" lon="6.72577">
        <ele>427.943726</ele>
        <time>2019-08-16T15:42:29Z</time>
      </trkpt>
      <trkpt lat="48.00194" lon="6.72578">
        <ele>427.962189</ele>
        <time>2019-08-16T15:42:30Z</time>
      </trkpt>
      <trkpt lat="48.00198" lon="6.72577">
        <ele>427.989746</ele>
        <time>2019-08-16T15:42:31Z</time>
      </trkpt>
      <trkpt lat="48.00203" lon="6.72577">
        <ele>428.009644</ele>
        <time>2019-08-16T15:42:32Z</time>
      </trkpt>
      <trkpt lat="48.00208" lon="6.72576">
        <ele>428.015503</ele>
        <time>2019-08-16T15:42:33Z</time>
      </trkpt>
      <trkpt lat="48.00213" lon="6.72575">
        <ele>428.011078</ele>
        <time>2019-08-16T15:42:34Z</time>
      </trkpt>
      <trkpt lat="48.00217" lon="6.72573">
        <ele>427.99649</ele>
        <time>2019-08-16T15:42:35Z</time>
      </trkpt>
      <trkpt lat="48.00221" lon="6.7257">
        <ele>427.979614</ele>
        <time>2019-08-16T15:42:36Z</time>
      </trkpt>
      <trkpt lat="48.00225" lon="6.72567">
        <ele>427.971191</ele>
        <time>2019-08-16T15:42:37Z</time>
      </trkpt>
      <trkpt lat="48.0023" lon="6.72563">
        <ele>427.973419</ele>
        <time>2019-08-16T15:42:38Z</time>
      </trkpt>
      <trkpt lat="48.00234" lon="6.7256">
        <ele>427.981323</ele>
        <time>2019-08-16T15:42:39Z</time>
      </trkpt>
      <trkpt lat="48.00238" lon="6.72556">
        <ele>428.022949</ele>
        <time>2019-08-16T15:42:40Z</time>
      </trkpt>
      <trkpt lat="48.00242" lon="6.72551">
        <ele>428.063568</ele>
        <time>2019-08-16T15:42:41Z</time>
      </trkpt>
      <trkpt lat="48.00245" lon="6.72546">
        <ele>428.106598</ele>
        <time>2019-08-16T15:42:42Z</time>
      </trkpt>
      <trkpt lat="48.00249" lon="6.72541">
        <ele>428.148895</ele>
        <time>2019-08-16T15:42:43Z</time>
      </trkpt>
      <trkpt lat="48.00252" lon="6.72536">
        <ele>428.185455</ele>
        <time>2019-08-16T15:42:44Z</time>
      </trkpt>
      <trkpt lat="48.00254" lon="6.72531">
        <ele>428.233398</ele>
        <time>2019-08-16T15:42:45Z</time>
      </trkpt>
      <trkpt lat="48.00258" lon="6.72525">
        <ele>428.25769</ele>
        <time>2019-08-16T15:42:46Z</time>
      </trkpt>
      <trkpt lat="48.0026" lon="6.72519">
        <ele>428.275421</ele>
        <time>2019-08-16T15:42:47Z</time>
      </trkpt>
      <trkpt lat="48.00263" lon="6.72513">
        <ele>428.288788</ele>
        <time>2019-08-16T15:42:48Z</time>
      </trkpt>
      <trkpt lat="48.00264" lon="6.72506">
        <ele>428.287445</ele>
        <time>2019-08-16T15:42:49Z</time>
      </trkpt>
      <trkpt lat="48.00266" lon="6.725">
        <ele>428.265778</ele>
        <time>2019-08-16T15:42:50Z</time>
      </trkpt>
      <trkpt lat="48.00268" lon="6.72494">
        <ele>428.212555</ele>
        <time>2019-08-16T15:42:51Z</time>
      </trkpt>
      <trkpt lat="48.0027" lon="6.72487">
        <ele>428.128021</ele>
        <time>2019-08-16T15:42:52Z</time>
      </trkpt>
      <trkpt lat="48.00272" lon="6.72481">
        <ele>428.024384</ele>
        <time>2019-08-16T15:42:53Z</time>
      </trkpt>
      <trkpt lat="48.00274" lon="6.72475">
        <ele>427.905426</ele>
        <time>2019-08-16T15:42:54Z</time>
      </trkpt>
      <trkpt lat="48.00277" lon="6.72469">
        <ele>427.781982</ele>
        <time>2019-08-16T15:42:55Z</time>
      </trkpt>
      <trkpt lat="48.00279" lon="6.72463">
        <ele>427.608978</ele>
        <time>2019-08-16T15:42:56Z</time>
      </trkpt>
      <trkpt lat="48.00282" lon="6.72458">
        <ele>427.518707</ele>
        <time>2019-08-16T15:42:57Z</time>
      </trkpt>
      <trkpt lat="48.00285" lon="6.72452">
        <ele>427.464966</ele>
        <time>2019-08-16T15:42:58Z</time>
      </trkpt>
      <trkpt lat="48.00287" lon="6.72447">
        <ele>427.45401</ele>
        <time>2019-08-16T15:42:59Z</time>
      </trkpt>
      <trkpt lat="48.0029" lon="6.72442">
        <ele>427.464874</ele>
        <time>2019-08-16T15:43:00Z</time>
      </trkpt>
      <trkpt lat="48.00293" lon="6.72437">
        <ele>427.506866</ele>
        <time>2019-08-16T15:43:01Z</time>
      </trkpt>
      <trkpt lat="48.00296" lon="6.72431">
        <ele>427.569336</ele>
        <time>2019-08-16T15:43:02Z</time>
      </trkpt>
      <trkpt lat="48.003" lon="6.72426">
        <ele>427.684784</ele>
        <time>2019-08-16T15:43:03Z</time>
      </trkpt>
      <trkpt lat="48.00303" lon="6.72422">
        <ele>427.767853</ele>
        <time>2019-08-16T15:43:04Z</time>
      </trkpt>
      <trkpt lat="48.00306" lon="6.72417">
        <ele>427.852814</ele>
        <time>2019-08-16T15:43:05Z</time>
      </trkpt>
      <trkpt lat="48.00309" lon="6.72412">
        <ele>427.937256</ele>
        <time>2019-08-16T15:43:06Z</time>
      </trkpt>
      <trkpt lat="48.00313" lon="6.72408">
        <ele>428.027252</ele>
        <time>2019-08-16T15:43:07Z</time>
      </trkpt>
      <trkpt lat="48.00317" lon="6.72404">
        <ele>428.163239</ele>
        <time>2019-08-16T15:43:08Z</time>
      </trkpt>
      <trkpt lat="48.00322" lon="6.72401">
        <ele>428.241211</ele>
        <time>2019-08-16T15:43:09Z</time>
      </trkpt>
      <trkpt lat="48.00326" lon="6.72397">
        <ele>428.297485</ele>
        <time>2019-08-16T15:43:10Z</time>
      </trkpt>
      <trkpt lat="48.0033" lon="6.72394">
        <ele>428.347076</ele>
        <time>2019-08-16T15:43:11Z</time>
      </trkpt>
      <trkpt lat="48.00335" lon="6.72391">
        <ele>428.352173</ele>
        <time>2019-08-16T15:43:12Z</time>
      </trkpt>
      <trkpt lat="48.00339" lon="6.72388">
        <ele>428.3508</ele>
        <time>2019-08-16T15:43:13Z</time>
      </trkpt>
      <trkpt lat="48.00343" lon="6.72386">
        <ele>428.293365</ele>
        <time>2019-08-16T15:43:14Z</time>
      </trkpt>
      <trkpt lat="48.00348" lon="6.72383">
        <ele>428.227539</ele>
        <time>2019-08-16T15:43:15Z</time>
      </trkpt>
      <trkpt lat="48.00352" lon="6.7238">
        <ele>428.156982</ele>
        <time>2019-08-16T15:43:16Z</time>
      </trkpt>
      <trkpt lat="48.00356" lon="6.72378">
        <ele>428.069733</ele>
        <time>2019-08-16T15:43:17Z</time>
      </trkpt>
      <trkpt lat="48.00361" lon="6.72375">
        <ele>428.019684</ele>
        <time>2019-08-16T15:43:18Z</time>
      </trkpt>
      <trkpt lat="48.00365" lon="6.72372">
        <ele>427.978363</ele>
        <time>2019-08-16T15:43:19Z</time>
      </trkpt>
      <trkpt lat="48.00369" lon="6.72369">
        <ele>427.957031</ele>
        <time>2019-08-16T15:43:20Z</time>
      </trkpt>
      <trkpt lat="48.00373" lon="6.72366">
        <ele>427.947479</ele>
        <time>2019-08-16T15:43:21Z</time>
      </trkpt>
      <trkpt lat="48.00377" lon="6.72363">
        <ele>427.945221</ele>
        <time>2019-08-16T15:43:22Z</time>
      </trkpt>
      <trkpt lat="48.00381" lon="6.7236">
        <ele>427.940338</ele>
        <time>2019-08-16T15:43:23Z</time>
      </trkpt>
      <trkpt lat="48.00386" lon="6.72357">
        <ele>427.913727</ele>
        <time>2019-08-16T15:43:24Z</time>
      </trkpt>
      <trkpt lat="48.0039" lon="6.72354">
        <ele>427.884064</ele>
        <time>2019-08-16T15:43:25Z</time>
      </trkpt>
      <trkpt lat="48.00394" lon="6.72351">
        <ele>427.849762</ele>
        <time>2019-08-16T15:43:26Z</time>
      </trkpt>
      <trkpt lat="48.00399" lon="6.72348">
        <ele>427.78244</ele>
        <time>2019-08-16T15:43:27Z</time>
      </trkpt>
      <trkpt lat="48.00404" lon="6.72346">
        <ele>427.723145</ele>
        <time>2019-08-16T15:43:28Z</time>
      </trkpt>
      <trkpt lat="48.00408" lon="6.72343">
        <ele>427.659546</ele>
        <time>2019-08-16T15:43:29Z</time>
      </trkpt>
      <trkpt lat="48.00413" lon="6.7234">
        <ele>427.588226</ele>
        <time>2019-08-16T15:43:30Z</time>
      </trkpt>
      <trkpt lat="48.00418" lon="6.72337">
        <ele>427.549896</ele>
        <time>2019-08-16T15:43:31Z</time>
      </trkpt>
      <trkpt lat="48.00422" lon="6.72334">
        <ele>427.503693</ele>
        <time>2019-08-16T15:43:32Z</time>
      </trkpt>
      <trkpt lat="48.00427" lon="6.72331">
        <ele>427.421295</ele>
        <time>2019-08-16T15:43:33Z</time>
      </trkpt>
      <trkpt lat="48.00431" lon="6.72328">
        <ele>427.371979</ele>
        <time>2019-08-16T15:43:34Z</time>
      </trkpt>
      <trkpt lat="48.00435" lon="6.72325">
        <ele>427.328735</ele>
        <time>2019-08-16T15:43:35Z</time>
      </trkpt>
      <trkpt lat="48.0044" lon="6.72322">
        <ele>427.277954</ele>
        <time>2019-08-16T15:43:36Z</time>
      </trkpt>
      <trkpt lat="48.00444" lon="6.72319">
        <ele>427.255768</ele>
        <time>2019-08-16T15:43:37Z</time>
      </trkpt>
      <trkpt lat="48.00448" lon="6.72316">
        <ele>427.253326</ele>
        <time>2019-08-16T15:43:38Z</time>
      </trkpt>
      <trkpt lat="48.00452" lon="6.72314">
        <ele>427.263275</ele>
        <time>2019-08-16T15:43:39Z</time>
      </trkpt>
      <trkpt lat="48.00456" lon="6.72312">
        <ele>427.288971</ele>
        <time>2019-08-16T15:43:40Z</time>
      </trkpt>
      <trkpt lat="48.00459" lon="6.72312">
        <ele>427.309845</ele>
        <time>2019-08-16T15:43:41Z</time>
      </trkpt>
      <trkpt lat="48.00463" lon="6.72314">
        <ele>427.345062</ele>
        <time>2019-08-16T15:43:42Z</time>
      </trkpt>
      <trkpt lat="48.00465" lon="6.72318">
        <ele>427.388519</ele>
        <time>2019-08-16T15:43:43Z</time>
      </trkpt>
      <trkpt lat="48.00466" lon="6.72324">
        <ele>427.443207</ele>
        <time>2019-08-16T15:43:44Z</time>
      </trkpt>
      <trkpt lat="48.00467" lon="6.72331">
        <ele>427.499237</ele>
        <time>2019-08-16T15:43:45Z</time>
      </trkpt>
      <trkpt lat="48.00467" lon="6.72338">
        <ele>427.547638</ele>
        <time>2019-08-16T15:43:46Z</time>
      </trkpt>
      <trkpt lat="48.00468" lon="6.72345">
        <ele>427.586182</ele>
        <time>2019-08-16T15:43:47Z</time>
      </trkpt>
      <trkpt lat="48.00468" lon="6.72351">
        <ele>427.612457</ele>
        <time>2019-08-16T15:43:48Z</time>
      </trkpt>
      <trkpt lat="48.00469" lon="6.72357">
        <ele>427.618378</ele>
        <time>2019-08-16T15:43:49Z</time>
      </trkpt>
      <trkpt lat="48.00469" lon="6.72364">
        <ele>427.618378</ele>
        <time>2019-08-16T15:43:50Z</time>
      </trkpt>
      <trkpt lat="48.0047" lon="6.7237">
        <ele>427.604279</ele>
        <time>2019-08-16T15:43:51Z</time>
      </trkpt>
      <trkpt lat="48.00472" lon="6.72376">
        <ele>427.585846</ele>
        <time>2019-08-16T15:43:52Z</time>
      </trkpt>
      <trkpt lat="48.00473" lon="6.72381">
        <ele>427.580444</ele>
        <time>2019-08-16T15:43:53Z</time>
      </trkpt>
      <trkpt lat="48.00476" lon="6.72385">
        <ele>427.580444</ele>
        <time>2019-08-16T15:43:54Z</time>
      </trkpt>
      <trkpt lat="48.0048" lon="6.72387">
        <ele>427.602509</ele>
        <time>2019-08-16T15:43:55Z</time>
      </trkpt>
      <trkpt lat="48.00484" lon="6.72387">
        <ele>427.628052</ele>
        <time>2019-08-16T15:43:56Z</time>
      </trkpt>
      <trkpt lat="48.00488" lon="6.72384">
        <ele>427.660278</ele>
        <time>2019-08-16T15:43:57Z</time>
      </trkpt>
      <trkpt lat="48.00491" lon="6.7238">
        <ele>427.689941</ele>
        <time>2019-08-16T15:43:58Z</time>
      </trkpt>
      <trkpt lat="48.00495" lon="6.72375">
        <ele>427.697479</ele>
        <time>2019-08-16T15:43:59Z</time>
      </trkpt>
      <trkpt lat="48.00499" lon="6.72371">
        <ele>427.690887</ele>
        <time>2019-08-16T15:44:00Z</time>
      </trkpt>
      <trkpt lat="48.00502" lon="6.72367">
        <ele>427.659576</ele>
        <time>2019-08-16T15:44:01Z</time>
      </trkpt>
      <trkpt lat="48.00505" lon="6.72362">
        <ele>427.605103</ele>
        <time>2019-08-16T15:44:02Z</time>
      </trkpt>
      <trkpt lat="48.00509" lon="6.72358">
        <ele>427.577423</ele>
        <time>2019-08-16T15:44:03Z</time>
      </trkpt>
      <trkpt lat="48.00513" lon="6.72353">
        <ele>427.55423</ele>
        <time>2019-08-16T15:44:04Z</time>
      </trkpt>
      <trkpt lat="48.00517" lon="6.72349">
        <ele>427.530273</ele>
        <time>2019-08-16T15:44:05Z</time>
      </trkpt>
      <trkpt lat="48.0052" lon="6.72344">
        <ele>427.506226</ele>
        <time>2019-08-16T15:44:06Z</time>
      </trkpt>
      <trkpt lat="48.00524" lon="6.7234">
        <ele>427.48111</ele>
        <time>2019-08-16T15:44:07Z</time>
      </trkpt>
      <trkpt lat="48.00528" lon="6.72335">
        <ele>427.439667</ele>
        <time>2019-08-16T15:44:08Z</time>
      </trkpt>
      <trkpt lat="48.00531" lon="6.72331">
        <ele>427.404266</ele>
        <time>2019-08-16T15:44:09Z</time>
      </trkpt>
      <trkpt lat="48.00535" lon="6.72326">
        <ele>427.358032</ele>
        <time>2019-08-16T15:44:10Z</time>
      </trkpt>
      <trkpt lat="48.00539" lon="6.72321">
        <ele>427.308563</ele>
        <time>2019-08-16T15:44:11Z</time>
      </trkpt>
      <trkpt lat="48.00543" lon="6.72316">
        <ele>427.266632</ele>
        <time>2019-08-16T15:44:12Z</time>
      </trkpt>
      <trkpt lat="48.00547" lon="6.72311">
        <ele>427.229034</ele>
        <time>2019-08-16T15:44:13Z</time>
      </trkpt>
      <trkpt lat="48.00551" lon="6.72307">
        <ele>427.220123</ele>
        <time>2019-08-16T15:44:14Z</time>
      </trkpt>
      <trkpt lat="48.00555" lon="6.72302">
        <ele>427.220123</ele>
        <time>2019-08-16T15:44:15Z</time>
      </trkpt>
      <trkpt lat="48.00559" lon="6.72297">
        <ele>427.236237</ele>
        <time>2019-08-16T15:44:16Z</time>
      </trkpt>
      <trkpt lat="48.00563" lon="6.72292">
        <ele>427.259613</ele>
        <time>2019-08-16T15:44:17Z</time>
      </trkpt>
      <trkpt lat="48.00567" lon="6.72287">
        <ele>427.276215</ele>
        <time>2019-08-16T15:44:18Z</time>
      </trkpt>
      <trkpt lat="48.0057" lon="6.72283">
        <ele>427.28183</ele>
        <time>2019-08-16T15:44:19Z</time>
      </trkpt>
      <trkpt lat="48.00574" lon="6.72278">
        <ele>427.279297</ele>
        <time>2019-08-16T15:44:20Z</time>
      </trkpt>
      <trkpt lat="48.00578" lon="6.72273">
        <ele>427.268402</ele>
        <time>2019-08-16T15:44:21Z</time>
      </trkpt>
      <trkpt lat="48.00582" lon="6.72269">
        <ele>427.244263</ele>
        <time>2019-08-16T15:44:22Z</time>
      </trkpt>
      <trkpt lat="48.0059" lon="6.72259">
        <ele>427.233673</ele>
        <time>2019-08-16T15:44:24Z</time>
      </trkpt>
      <trkpt lat="48.00593" lon="6.72254">
        <ele>427.212372</ele>
        <time>2019-08-16T15:44:25Z</time>
      </trkpt>
      <trkpt lat="48.00597" lon="6.72249">
        <ele>427.197906</ele>
        <time>2019-08-16T15:44:26Z</time>
      </trkpt>
      <trkpt lat="48.00601" lon="6.72244">
        <ele>427.190308</ele>
        <time>2019-08-16T15:44:27Z</time>
      </trkpt>
      <trkpt lat="48.00605" lon="6.72239">
        <ele>427.188385</ele>
        <time>2019-08-16T15:44:28Z</time>
      </trkpt>
      <trkpt lat="48.00609" lon="6.72234">
        <ele>427.188873</ele>
        <time>2019-08-16T15:44:29Z</time>
      </trkpt>
      <trkpt lat="48.00613" lon="6.72229">
        <ele>427.189362</ele>
        <time>2019-08-16T15:44:30Z</time>
      </trkpt>
      <trkpt lat="48.00617" lon="6.72224">
        <ele>427.196136</ele>
        <time>2019-08-16T15:44:31Z</time>
      </trkpt>
      <trkpt lat="48.00621" lon="6.72219">
        <ele>427.206787</ele>
        <time>2019-08-16T15:44:32Z</time>
      </trkpt>
      <trkpt lat="48.00625" lon="6.72214">
        <ele>427.210236</ele>
        <time>2019-08-16T15:44:33Z</time>
      </trkpt>
      <trkpt lat="48.00629" lon="6.7221">
        <ele>427.215698</ele>
        <time>2019-08-16T15:44:34Z</time>
      </trkpt>
      <trkpt lat="48.00633" lon="6.72205">
        <ele>427.219116</ele>
        <time>2019-08-16T15:44:35Z</time>
      </trkpt>
      <trkpt lat="48.00637" lon="6.722">
        <ele>427.225128</ele>
        <time>2019-08-16T15:44:36Z</time>
      </trkpt>
      <trkpt lat="48.00641" lon="6.72195">
        <ele>427.241852</ele>
        <time>2019-08-16T15:44:37Z</time>
      </trkpt>
      <trkpt lat="48.00645" lon="6.7219">
        <ele>427.244232</ele>
        <time>2019-08-16T15:44:38Z</time>
      </trkpt>
      <trkpt lat="48.00649" lon="6.72186">
        <ele>427.246094</ele>
        <time>2019-08-16T15:44:39Z</time>
      </trkpt>
      <trkpt lat="48.00653" lon="6.72181">
        <ele>427.249512</ele>
        <time>2019-08-16T15:44:40Z</time>
      </trkpt>
      <trkpt lat="48.00657" lon="6.72177">
        <ele>427.26416</ele>
        <time>2019-08-16T15:44:41Z</time>
      </trkpt>
      <trkpt lat="48.00661" lon="6.72172">
        <ele>427.288605</ele>
        <time>2019-08-16T15:44:42Z</time>
      </trkpt>
      <trkpt lat="48.00665" lon="6.72167">
        <ele>427.312531</ele>
        <time>2019-08-16T15:44:43Z</time>
      </trkpt>
      <trkpt lat="48.00668" lon="6.72163">
        <ele>427.329559</ele>
        <time>2019-08-16T15:44:44Z</time>
      </trkpt>
      <trkpt lat="48.00672" lon="6.72158">
        <ele>427.339142</ele>
        <time>2019-08-16T15:44:45Z</time>
      </trkpt>
      <trkpt lat="48.00676" lon="6.72153">
        <ele>427.346069</ele>
        <time>2019-08-16T15:44:46Z</time>
      </trkpt>
      <trkpt lat="48.00679" lon="6.72148">
        <ele>427.35025</ele>
        <time>2019-08-16T15:44:47Z</time>
      </trkpt>
      <trkpt lat="48.00684" lon="6.72143">
        <ele>427.348389</ele>
        <time>2019-08-16T15:44:48Z</time>
      </trkpt>
      <trkpt lat="48.00688" lon="6.72138">
        <ele>427.337311</ele>
        <time>2019-08-16T15:44:49Z</time>
      </trkpt>
      <trkpt lat="48.00692" lon="6.72133">
        <ele>427.319794</ele>
        <time>2019-08-16T15:44:50Z</time>
      </trkpt>
      <trkpt lat="48.00696" lon="6.72127">
        <ele>427.301392</ele>
        <time>2019-08-16T15:44:51Z</time>
      </trkpt>
      <trkpt lat="48.007" lon="6.72121">
        <ele>427.276978</ele>
        <time>2019-08-16T15:44:52Z</time>
      </trkpt>
      <trkpt lat="48.00705" lon="6.72115">
        <ele>427.251373</ele>
        <time>2019-08-16T15:44:53Z</time>
      </trkpt>
      <trkpt lat="48.00709" lon="6.7211">
        <ele>427.212555</ele>
        <time>2019-08-16T15:44:54Z</time>
      </trkpt>
      <trkpt lat="48.00713" lon="6.72104">
        <ele>427.161041</ele>
        <time>2019-08-16T15:44:55Z</time>
      </trkpt>
      <trkpt lat="48.00716" lon="6.72099">
        <ele>427.088104</ele>
        <time>2019-08-16T15:44:56Z</time>
      </trkpt>
      <trkpt lat="48.00718" lon="6.72092">
        <ele>427.056061</ele>
        <time>2019-08-16T15:44:57Z</time>
      </trkpt>
      <trkpt lat="48.00718" lon="6.72084">
        <ele>427.033051</ele>
        <time>2019-08-16T15:44:58Z</time>
      </trkpt>
      <trkpt lat="48.00717" lon="6.72077">
        <ele>427.012238</ele>
        <time>2019-08-16T15:44:59Z</time>
      </trkpt>
      <trkpt lat="48.00714" lon="6.7207">
        <ele>426.996124</ele>
        <time>2019-08-16T15:45:00Z</time>
      </trkpt>
      <trkpt lat="48.00711" lon="6.72063">
        <ele>426.984283</ele>
        <time>2019-08-16T15:45:01Z</time>
      </trkpt>
      <trkpt lat="48.00708" lon="6.72057">
        <ele>426.979706</ele>
        <time>2019-08-16T15:45:02Z</time>
      </trkpt>
      <trkpt lat="48.00705" lon="6.7205">
        <ele>426.966583</ele>
        <time>2019-08-16T15:45:03Z</time>
      </trkpt>
      <trkpt lat="48.00703" lon="6.72044">
        <ele>426.936737</ele>
        <time>2019-08-16T15:45:04Z</time>
      </trkpt>
      <trkpt lat="48.00701" lon="6.72038">
        <ele>426.900543</ele>
        <time>2019-08-16T15:45:05Z</time>
      </trkpt>
      <trkpt lat="48.00699" lon="6.72032">
        <ele>426.870453</ele>
        <time>2019-08-16T15:45:06Z</time>
      </trkpt>
      <trkpt lat="48.00697" lon="6.72025">
        <ele>426.849274</ele>
        <time>2019-08-16T15:45:07Z</time>
      </trkpt>
      <trkpt lat="48.00696" lon="6.72018">
        <ele>426.827148</ele>
        <time>2019-08-16T15:45:08Z</time>
      </trkpt>
      <trkpt lat="48.00695" lon="6.72011">
        <ele>426.798706</ele>
        <time>2019-08-16T15:45:09Z</time>
      </trkpt>
      <trkpt lat="48.00694" lon="6.72005">
        <ele>426.773285</ele>
        <time>2019-08-16T15:45:10Z</time>
      </trkpt>
      <trkpt lat="48.00694" lon="6.71998">
        <ele>426.75473</ele>
        <time>2019-08-16T15:45:11Z</time>
      </trkpt>
      <trkpt lat="48.00694" lon="6.71991">
        <ele>426.74057</ele>
        <time>2019-08-16T15:45:12Z</time>
      </trkpt>
      <trkpt lat="48.00694" lon="6.71986">
        <ele>426.726685</ele>
        <time>2019-08-16T15:45:13Z</time>
      </trkpt>
      <trkpt lat="48.00694" lon="6.71981">
        <ele>426.712372</ele>
        <time>2019-08-16T15:45:14Z</time>
      </trkpt>
      <trkpt lat="48.00692" lon="6.71978">
        <ele>426.708527</ele>
        <time>2019-08-16T15:45:15Z</time>
      </trkpt>
      <trkpt lat="48.0069" lon="6.71977">
        <ele>426.708527</ele>
        <time>2019-08-16T15:45:16Z</time>
      </trkpt>
      <trkpt lat="48.00687" lon="6.71978">
        <ele>426.722931</ele>
        <time>2019-08-16T15:45:17Z</time>
      </trkpt>
      <trkpt lat="48.00684" lon="6.7198">
        <ele>426.754303</ele>
        <time>2019-08-16T15:45:18Z</time>
      </trkpt>
      <trkpt lat="48.00682" lon="6.71982">
        <ele>426.772491</ele>
        <time>2019-08-16T15:45:19Z</time>
      </trkpt>
      <trkpt lat="48.00678" lon="6.71982">
        <ele>426.792999</ele>
        <time>2019-08-16T15:45:20Z</time>
      </trkpt>
      <trkpt lat="48.00675" lon="6.71981">
        <ele>426.849579</ele>
        <time>2019-08-16T15:45:21Z</time>
      </trkpt>
      <trkpt lat="48.00671" lon="6.7198">
        <ele>426.894867</ele>
        <time>2019-08-16T15:45:22Z</time>
      </trkpt>
      <trkpt lat="48.00668" lon="6.71981">
        <ele>426.936035</ele>
        <time>2019-08-16T15:45:23Z</time>
      </trkpt>
      <trkpt lat="48.00665" lon="6.71981">
        <ele>426.951904</ele>
        <time>2019-08-16T15:45:24Z</time>
      </trkpt>
      <trkpt lat="48.00662" lon="6.71982">
        <ele>426.966797</ele>
        <time>2019-08-16T15:45:25Z</time>
      </trkpt>
      <trkpt lat="48.00658" lon="6.71984">
        <ele>427.012299</ele>
        <time>2019-08-16T15:45:26Z</time>
      </trkpt>
      <trkpt lat="48.00657" lon="6.71987">
        <ele>427.034668</ele>
        <time>2019-08-16T15:45:27Z</time>
      </trkpt>
      <trkpt lat="48.00656" lon="6.71989">
        <ele>427.038055</ele>
        <time>2019-08-16T15:45:28Z</time>
      </trkpt>
      <trkpt lat="48.00656" lon="6.71992">
        <ele>427.033295</ele>
        <time>2019-08-16T15:45:29Z</time>
      </trkpt>
    </trkseg>
  </trk>
</gpx>